<?xml version='1.0' encoding='UTF-8'?><gpx version="1.1" creator="JPX - https://github.com/jenetics/jpx" xmlns="http://www.topografix.com/GPX/1/1"><trk><trkseg><trkpt lat="45.90889661138662" lon="11.908038161176101"><ele>294.0</ele><time>2026-05-01T15:43:52.569Z</time></trkpt><trkpt lat="45.90892757487253" lon="11.907955759398714"><ele>294.0</ele><time>2026-05-01T15:43:56.571Z</time></trkpt><trkpt lat="45.90895528826488" lon="11.908051429828554"><ele>294.0</ele><time>2026-05-01T15:45:19.018Z</time></trkpt><trkpt lat="45.90897678485148" lon="11.908143231124729"><ele>294.0</ele><time>2026-05-01T15:46:52Z</time></trkpt><trkpt lat="45.909009877419926" lon="11.908255580058054"><ele>294.0</ele><time>2026-05-01T15:46:54Z</time></trkpt><trkpt lat="45.90903897198413" lon="11.908384706499248"><ele>294.0</ele><time>2026-05-01T15:46:56Z</time></trkpt><trkpt lat="45.90897673026316" lon="11.908495771529418"><ele>293.5</ele><time>2026-05-01T15:46:59Z</time></trkpt><trkpt lat="45.908920182179095" lon="11.908540563639603"><ele>293.0</ele><time>2026-05-01T15:47:00Z</time></trkpt><trkpt lat="45.908848344539344" lon="11.908581446824625"><ele>292.5</ele><time>2026-05-01T15:47:01Z</time></trkpt><trkpt lat="45.90877486527414" lon="11.908613128844587"><ele>292.0</ele><time>2026-05-01T15:47:02Z</time></trkpt><trkpt lat="45.9086877091482" lon="11.908686387394754"><ele>291.5</ele><time>2026-05-01T15:47:03Z</time></trkpt><trkpt lat="45.90860128496605" lon="11.908739855230289"><ele>291.0</ele><time>2026-05-01T15:47:04Z</time></trkpt><trkpt lat="45.90851276996939" lon="11.90880414810735"><ele>291.0</ele><time>2026-05-01T15:47:05Z</time></trkpt><trkpt lat="45.90841647527735" lon="11.908894496844722"><ele>291.0</ele><time>2026-05-01T15:47:06Z</time></trkpt><trkpt lat="45.90832744444693" lon="11.908946493625143"><ele>291.0</ele><time>2026-05-01T15:47:07Z</time></trkpt><trkpt lat="45.908247754423115" lon="11.908986516369444"><ele>291.0</ele><time>2026-05-01T15:47:08Z</time></trkpt><trkpt lat="45.90817887808811" lon="11.90901364349764"><ele>291.0</ele><time>2026-05-01T15:47:09Z</time></trkpt><trkpt lat="45.90810603074136" lon="11.909055525389856"><ele>291.0</ele><time>2026-05-01T15:47:10Z</time></trkpt><trkpt lat="45.90805159178494" lon="11.909409240698732"><ele>291.2</ele><time>2026-05-01T15:47:18Z</time></trkpt><trkpt lat="45.908076241678295" lon="11.909552987973305"><ele>291.40000000000003</ele><time>2026-05-01T15:47:19Z</time></trkpt><trkpt lat="45.90810319406646" lon="11.90970890277883"><ele>291.6</ele><time>2026-05-01T15:47:20Z</time></trkpt><trkpt lat="45.90814014197429" lon="11.909845607464929"><ele>291.8</ele><time>2026-05-01T15:47:21Z</time></trkpt><trkpt lat="45.908186637795666" lon="11.910023762217167"><ele>292.0</ele><time>2026-05-01T15:47:22Z</time></trkpt><trkpt lat="45.9082411774261" lon="11.910194248101774"><ele>291.25</ele><time>2026-05-01T15:47:23Z</time></trkpt><trkpt lat="45.9082780701713" lon="11.910370153095895"><ele>290.5</ele><time>2026-05-01T15:47:24Z</time></trkpt><trkpt lat="45.90832505961949" lon="11.910537053026074"><ele>289.75</ele><time>2026-05-01T15:47:25Z</time></trkpt><trkpt lat="45.90838259298881" lon="11.910708457588727"><ele>289.0</ele><time>2026-05-01T15:47:26Z</time></trkpt><trkpt lat="45.9084368437749" lon="11.910889917708962"><ele>286.75</ele><time>2026-05-01T15:47:27Z</time></trkpt><trkpt lat="45.90847657905456" lon="11.911074466292037"><ele>284.5</ele><time>2026-05-01T15:47:28Z</time></trkpt><trkpt lat="45.90852190085865" lon="11.911258927458665"><ele>282.25</ele><time>2026-05-01T15:47:29Z</time></trkpt><trkpt lat="45.9085678108459" lon="11.911443894128112"><ele>280.0</ele><time>2026-05-01T15:47:30Z</time></trkpt><trkpt lat="45.90861605123719" lon="11.911649898923141"><ele>279.25</ele><time>2026-05-01T15:47:31Z</time></trkpt><trkpt lat="45.908669228439514" lon="11.911841277489692"><ele>278.5</ele><time>2026-05-01T15:47:32Z</time></trkpt><trkpt lat="45.90868647679195" lon="11.912057173204179"><ele>277.75</ele><time>2026-05-01T15:47:33Z</time></trkpt><trkpt lat="45.90871181916041" lon="11.912262550202884"><ele>277.0</ele><time>2026-05-01T15:47:34Z</time></trkpt><trkpt lat="45.908750016991355" lon="11.912456760078028"><ele>276.5</ele><time>2026-05-01T15:47:35Z</time></trkpt><trkpt lat="45.90877099658585" lon="11.912657978012573"><ele>276.0</ele><time>2026-05-01T15:47:36Z</time></trkpt><trkpt lat="45.90880939774056" lon="11.91284302826188"><ele>275.5</ele><time>2026-05-01T15:47:37Z</time></trkpt><trkpt lat="45.908847824211286" lon="11.913035054204357"><ele>275.0</ele><time>2026-05-01T15:47:38Z</time></trkpt><trkpt lat="45.90887886855581" lon="11.913194164948104"><ele>275.0</ele><time>2026-05-01T15:47:39Z</time></trkpt><trkpt lat="45.908919779828054" lon="11.913392748658865"><ele>275.0</ele><time>2026-05-01T15:47:40Z</time></trkpt><trkpt lat="45.90896284104999" lon="11.913599454760844"><ele>275.0</ele><time>2026-05-01T15:47:41Z</time></trkpt><trkpt lat="45.908999901518584" lon="11.913772513932905"><ele>275.0</ele><time>2026-05-01T15:47:42Z</time></trkpt><trkpt lat="45.909045520364714" lon="11.913915581626204"><ele>274.4</ele><time>2026-05-01T15:47:43Z</time></trkpt><trkpt lat="45.909087440214186" lon="11.914044670408517"><ele>273.8</ele><time>2026-05-01T15:47:44Z</time></trkpt><trkpt lat="45.9091521693979" lon="11.914148307347734"><ele>273.2</ele><time>2026-05-01T15:47:45Z</time></trkpt><trkpt lat="45.90924000066235" lon="11.914240733651175"><ele>272.6</ele><time>2026-05-01T15:47:46Z</time></trkpt><trkpt lat="45.90934759560118" lon="11.914315220562194"><ele>272.0</ele><time>2026-05-01T15:47:47Z</time></trkpt><trkpt lat="45.90947193230528" lon="11.91437713933896"><ele>270.25</ele><time>2026-05-01T15:47:48Z</time></trkpt><trkpt lat="45.909598142330374" lon="11.914440144575591"><ele>268.5</ele><time>2026-05-01T15:47:49Z</time></trkpt><trkpt lat="45.909733945933645" lon="11.914486853302158"><ele>266.75</ele><time>2026-05-01T15:47:50Z</time></trkpt><trkpt lat="45.90986723117316" lon="11.914515494321918"><ele>265.0</ele><time>2026-05-01T15:47:51Z</time></trkpt><trkpt lat="45.910014530024085" lon="11.914529568930952"><ele>263.0</ele><time>2026-05-01T15:47:52Z</time></trkpt><trkpt lat="45.91016359494944" lon="11.914527075691739"><ele>261.0</ele><time>2026-05-01T15:47:53Z</time></trkpt><trkpt lat="45.91030861602673" lon="11.914519963165036"><ele>259.0</ele><time>2026-05-01T15:47:54Z</time></trkpt><trkpt lat="45.91045521737223" lon="11.914521281493716"><ele>257.0</ele><time>2026-05-01T15:47:55Z</time></trkpt><trkpt lat="45.910593087599494" lon="11.914520899075132"><ele>257.0</ele><time>2026-05-01T15:47:56Z</time></trkpt><trkpt lat="45.910730188976736" lon="11.914530066919014"><ele>257.0</ele><time>2026-05-01T15:47:57Z</time></trkpt><trkpt lat="45.910846882930784" lon="11.914558988747654"><ele>257.0</ele><time>2026-05-01T15:47:58Z</time></trkpt><trkpt lat="45.91099015472914" lon="11.914635003864811"><ele>257.0</ele><time>2026-05-01T15:47:59Z</time></trkpt><trkpt lat="45.91109681399299" lon="11.914701631868521"><ele>257.8</ele><time>2026-05-01T15:48:00Z</time></trkpt><trkpt lat="45.911185468873676" lon="11.914797986501409"><ele>258.6</ele><time>2026-05-01T15:48:01Z</time></trkpt><trkpt lat="45.911280394734845" lon="11.914870499681781"><ele>259.40000000000003</ele><time>2026-05-01T15:48:02Z</time></trkpt><trkpt lat="45.911348863969415" lon="11.914957973040728"><ele>260.2</ele><time>2026-05-01T15:48:03Z</time></trkpt><trkpt lat="45.911384561966315" lon="11.915074336033685"><ele>261.0</ele><time>2026-05-01T15:48:04Z</time></trkpt><trkpt lat="45.91139883695964" lon="11.915207143561014"><ele>261.75</ele><time>2026-05-01T15:48:05Z</time></trkpt><trkpt lat="45.91139106883113" lon="11.915374769785668"><ele>262.5</ele><time>2026-05-01T15:48:06Z</time></trkpt><trkpt lat="45.91137273098128" lon="11.915535764063122"><ele>263.25</ele><time>2026-05-01T15:48:07.002Z</time></trkpt><trkpt lat="45.91133310415487" lon="11.915686498369235"><ele>264.0</ele><time>2026-05-01T15:48:08.002Z</time></trkpt><trkpt lat="45.91127633347393" lon="11.915854018283142"><ele>264.0</ele><time>2026-05-01T15:48:09.002Z</time></trkpt><trkpt lat="45.91121751880513" lon="11.916006468608787"><ele>264.0</ele><time>2026-05-01T15:48:10.002Z</time></trkpt><trkpt lat="45.911155374009276" lon="11.916170756437667"><ele>264.0</ele><time>2026-05-01T15:48:11.002Z</time></trkpt><trkpt lat="45.9110792763553" lon="11.916328823289984"><ele>264.0</ele><time>2026-05-01T15:48:12.002Z</time></trkpt><trkpt lat="45.910998264315126" lon="11.916485221122779"><ele>264.0</ele><time>2026-05-01T15:48:13.002Z</time></trkpt><trkpt lat="45.91091492283844" lon="11.916643667947886"><ele>264.0</ele><time>2026-05-01T15:48:14.001Z</time></trkpt><trkpt lat="45.91083879248945" lon="11.916824086412769"><ele>264.0</ele><time>2026-05-01T15:48:15.001Z</time></trkpt><trkpt lat="45.910742688399594" lon="11.916981848892053"><ele>264.0</ele><time>2026-05-01T15:48:16.001Z</time></trkpt><trkpt lat="45.91067288140252" lon="11.917172551740618"><ele>260.6666666666667</ele><time>2026-05-01T15:48:17.001Z</time></trkpt><trkpt lat="45.9106052112958" lon="11.917379423821865"><ele>257.33333333333337</ele><time>2026-05-01T15:48:18.001Z</time></trkpt><trkpt lat="45.910546378488775" lon="11.917598799785987"><ele>254.0</ele><time>2026-05-01T15:48:19.001Z</time></trkpt><trkpt lat="45.91048851590886" lon="11.917837649881003"><ele>254.0</ele><time>2026-05-01T15:48:20.001Z</time></trkpt><trkpt lat="45.910436908982746" lon="11.918056286666413"><ele>254.0</ele><time>2026-05-01T15:48:21.001Z</time></trkpt><trkpt lat="45.91039125482601" lon="11.918281943681308"><ele>254.0</ele><time>2026-05-01T15:48:22.001Z</time></trkpt><trkpt lat="45.91032923183217" lon="11.918520960713318"><ele>253.66666666666669</ele><time>2026-05-01T15:48:23.001Z</time></trkpt><trkpt lat="45.91026137947205" lon="11.918735443112185"><ele>253.33333333333331</ele><time>2026-05-01T15:48:24.001Z</time></trkpt><trkpt lat="45.91019155101771" lon="11.918953364756389"><ele>253.0</ele><time>2026-05-01T15:48:25.001Z</time></trkpt><trkpt lat="45.91011106673153" lon="11.919178565091912"><ele>248.66666666666666</ele><time>2026-05-01T15:48:26.001Z</time></trkpt><trkpt lat="45.91003044410713" lon="11.919383529429158"><ele>244.33333333333331</ele><time>2026-05-01T15:48:27.001Z</time></trkpt><trkpt lat="45.90993940510442" lon="11.919603417640763"><ele>240.0</ele><time>2026-05-01T15:48:28.001Z</time></trkpt><trkpt lat="45.90985041125618" lon="11.9198197516107"><ele>240.0</ele><time>2026-05-01T15:48:29.001Z</time></trkpt><trkpt lat="45.9097535035272" lon="11.920046549688541"><ele>240.0</ele><time>2026-05-01T15:48:30.001Z</time></trkpt><trkpt lat="45.909663268683126" lon="11.920269016392238"><ele>240.0</ele><time>2026-05-01T15:48:31.001Z</time></trkpt><trkpt lat="45.90956719237293" lon="11.920494391185793"><ele>240.33333333333331</ele><time>2026-05-01T15:48:32.001Z</time></trkpt><trkpt lat="45.90947352380506" lon="11.920709677711935"><ele>240.66666666666666</ele><time>2026-05-01T15:48:33.001Z</time></trkpt><trkpt lat="45.90936870574752" lon="11.920943916230799"><ele>241.0</ele><time>2026-05-01T15:48:34Z</time></trkpt><trkpt lat="45.90927140363731" lon="11.921151606536865"><ele>239.0</ele><time>2026-05-01T15:48:35Z</time></trkpt><trkpt lat="45.90917777769627" lon="11.921363407988286"><ele>237.0</ele><time>2026-05-01T15:48:36Z</time></trkpt><trkpt lat="45.90907965875187" lon="11.921584304700557"><ele>235.0</ele><time>2026-05-01T15:48:37Z</time></trkpt><trkpt lat="45.908994114058046" lon="11.921845553420882"><ele>235.0</ele><time>2026-05-01T15:48:38Z</time></trkpt><trkpt lat="45.908913261449506" lon="11.922110845239608"><ele>235.0</ele><time>2026-05-01T15:48:39Z</time></trkpt><trkpt lat="45.9088401374162" lon="11.922358491643045"><ele>235.0</ele><time>2026-05-01T15:48:40Z</time></trkpt><trkpt lat="45.90877188870738" lon="11.922616610024042"><ele>235.33333333333331</ele><time>2026-05-01T15:48:41Z</time></trkpt><trkpt lat="45.9087111839411" lon="11.92285678572309"><ele>235.66666666666669</ele><time>2026-05-01T15:48:42Z</time></trkpt><trkpt lat="45.908654758875784" lon="11.923088286234368"><ele>236.0</ele><time>2026-05-01T15:48:43Z</time></trkpt><trkpt lat="45.90860262680884" lon="11.923309193204588"><ele>234.0</ele><time>2026-05-01T15:48:44Z</time></trkpt><trkpt lat="45.90855493886163" lon="11.923550439688654"><ele>232.0</ele><time>2026-05-01T15:48:45Z</time></trkpt><trkpt lat="45.90850092342776" lon="11.923787317759718"><ele>230.0</ele><time>2026-05-01T15:48:46Z</time></trkpt><trkpt lat="45.90848924176716" lon="11.9240542403339"><ele>229.33333333333334</ele><time>2026-05-01T15:48:47Z</time></trkpt><trkpt lat="45.90847834551743" lon="11.924308951630696"><ele>228.66666666666669</ele><time>2026-05-01T15:48:48Z</time></trkpt><trkpt lat="45.90847656685162" lon="11.924560104840705"><ele>228.0</ele><time>2026-05-01T15:48:49Z</time></trkpt><trkpt lat="45.90848214152747" lon="11.924813256095543"><ele>228.33333333333331</ele><time>2026-05-01T15:48:50Z</time></trkpt><trkpt lat="45.90847137316913" lon="11.92506900206109"><ele>228.66666666666666</ele><time>2026-05-01T15:48:51Z</time></trkpt><trkpt lat="45.90847216217475" lon="11.925317679945886"><ele>229.0</ele><time>2026-05-01T15:48:52Z</time></trkpt><trkpt lat="45.90847347102097" lon="11.925568894534779"><ele>229.0</ele><time>2026-05-01T15:48:53Z</time></trkpt><trkpt lat="45.90848227368712" lon="11.925825258653445"><ele>229.0</ele><time>2026-05-01T15:48:54Z</time></trkpt><trkpt lat="45.90849189784792" lon="11.926078526111805"><ele>229.0</ele><time>2026-05-01T15:48:55Z</time></trkpt><trkpt lat="45.90849746792084" lon="11.926334763329779"><ele>228.33333333333331</ele><time>2026-05-01T15:48:56Z</time></trkpt><trkpt lat="45.90850025099633" lon="11.926589001295179"><ele>227.66666666666669</ele><time>2026-05-01T15:48:57Z</time></trkpt><trkpt lat="45.908500482722225" lon="11.926840122926091"><ele>227.0</ele><time>2026-05-01T15:48:58Z</time></trkpt><trkpt lat="45.90849519938879" lon="11.927087646346688"><ele>224.66666666666669</ele><time>2026-05-01T15:48:59Z</time></trkpt><trkpt lat="45.908484982214674" lon="11.927342006380755"><ele>222.33333333333331</ele><time>2026-05-01T15:49:00Z</time></trkpt><trkpt lat="45.90847057858917" lon="11.927582082211833"><ele>220.0</ele><time>2026-05-01T15:49:01Z</time></trkpt><trkpt lat="45.90845651188063" lon="11.927791336688658"><ele>217.0</ele><time>2026-05-01T15:49:02Z</time></trkpt><trkpt lat="45.90844212433705" lon="11.928001540330635"><ele>214.0</ele><time>2026-05-01T15:49:03Z</time></trkpt><trkpt lat="45.90844347185539" lon="11.92821080504162"><ele>211.0</ele><time>2026-05-01T15:49:04Z</time></trkpt><trkpt lat="45.90841861280916" lon="11.928426269209178"><ele>208.0</ele><time>2026-05-01T15:49:05Z</time></trkpt><trkpt lat="45.9084113203525" lon="11.928638571427545"><ele>207.25</ele><time>2026-05-01T15:49:06Z</time></trkpt><trkpt lat="45.90842010025488" lon="11.928818926944286"><ele>206.5</ele><time>2026-05-01T15:49:07Z</time></trkpt><trkpt lat="45.908424853588464" lon="11.929003899708658"><ele>205.75</ele><time>2026-05-01T15:49:08Z</time></trkpt><trkpt lat="45.90844177451816" lon="11.929180220257276"><ele>205.0</ele><time>2026-05-01T15:49:09Z</time></trkpt><trkpt lat="45.90845926385934" lon="11.929348915749888"><ele>204.5</ele><time>2026-05-01T15:49:10Z</time></trkpt><trkpt lat="45.908480268325356" lon="11.929517746370466"><ele>204.0</ele><time>2026-05-01T15:49:11Z</time></trkpt><trkpt lat="45.90851010570738" lon="11.929684386790258"><ele>203.5</ele><time>2026-05-01T15:49:12Z</time></trkpt><trkpt lat="45.908547603127715" lon="11.929846543393376"><ele>203.0</ele><time>2026-05-01T15:49:13Z</time></trkpt><trkpt lat="45.90858732948977" lon="11.930009616074353"><ele>201.5</ele><time>2026-05-01T15:49:14Z</time></trkpt><trkpt lat="45.908625256398956" lon="11.930174168616748"><ele>200.0</ele><time>2026-05-01T15:49:15Z</time></trkpt><trkpt lat="45.90867159955723" lon="11.930328613317698"><ele>198.5</ele><time>2026-05-01T15:49:16Z</time></trkpt><trkpt lat="45.908716518080254" lon="11.930492280406373"><ele>197.0</ele><time>2026-05-01T15:49:17Z</time></trkpt><trkpt lat="45.90876392091017" lon="11.930652050381312"><ele>197.0</ele><time>2026-05-01T15:49:18Z</time></trkpt><trkpt lat="45.90880123347843" lon="11.930813596579144"><ele>197.0</ele><time>2026-05-01T15:49:19Z</time></trkpt><trkpt lat="45.9088374690566" lon="11.930959156008717"><ele>197.0</ele><time>2026-05-01T15:49:20Z</time></trkpt><trkpt lat="45.908884650748924" lon="11.931120456770994"><ele>197.0</ele><time>2026-05-01T15:49:21Z</time></trkpt><trkpt lat="45.90892819424674" lon="11.931291358800157"><ele>196.39999999999998</ele><time>2026-05-01T15:49:22Z</time></trkpt><trkpt lat="45.908966962625016" lon="11.931446687351228"><ele>195.79999999999998</ele><time>2026-05-01T15:49:23Z</time></trkpt><trkpt lat="45.90900776447838" lon="11.931595998901518"><ele>195.2</ele><time>2026-05-01T15:49:24Z</time></trkpt><trkpt lat="45.90905203878084" lon="11.931738292911609"><ele>194.6</ele><time>2026-05-01T15:49:25Z</time></trkpt><trkpt lat="45.90908625784072" lon="11.931892296557402"><ele>194.0</ele><time>2026-05-01T15:49:26Z</time></trkpt><trkpt lat="45.909091664191514" lon="11.932053601642824"><ele>193.79999999999998</ele><time>2026-05-01T15:49:27Z</time></trkpt><trkpt lat="45.909061867002585" lon="11.93220826266532"><ele>193.6</ele><time>2026-05-01T15:49:28Z</time></trkpt><trkpt lat="45.90900522993557" lon="11.932321248903868"><ele>193.4</ele><time>2026-05-01T15:49:29Z</time></trkpt><trkpt lat="45.90894215152269" lon="11.932429598072524"><ele>193.2</ele><time>2026-05-01T15:49:30Z</time></trkpt><trkpt lat="45.90888112997937" lon="11.932544317530416"><ele>193.0</ele><time>2026-05-01T15:49:31Z</time></trkpt><trkpt lat="45.9088152497863" lon="11.932669198470965"><ele>193.0</ele><time>2026-05-01T15:49:32Z</time></trkpt><trkpt lat="45.90875451948556" lon="11.932804767882836"><ele>193.0</ele><time>2026-05-01T15:49:33Z</time></trkpt><trkpt lat="45.90869192360738" lon="11.93293531574206"><ele>193.0</ele><time>2026-05-01T15:49:34Z</time></trkpt><trkpt lat="45.90862526489568" lon="11.93307611537632"><ele>193.0</ele><time>2026-05-01T15:49:35Z</time></trkpt><trkpt lat="45.908554016062865" lon="11.933220488163741"><ele>193.0</ele><time>2026-05-01T15:49:36Z</time></trkpt><trkpt lat="45.908485687085054" lon="11.933344725246158"><ele>193.0</ele><time>2026-05-01T15:49:37Z</time></trkpt><trkpt lat="45.90842030191936" lon="11.933452766639252"><ele>193.0</ele><time>2026-05-01T15:49:38Z</time></trkpt><trkpt lat="45.908359493897784" lon="11.933549430185312"><ele>193.0</ele><time>2026-05-01T15:49:39Z</time></trkpt><trkpt lat="45.9082937778224" lon="11.933653065567924"><ele>193.0</ele><time>2026-05-01T15:49:40Z</time></trkpt><trkpt lat="45.90823205508134" lon="11.933746794878825"><ele>193.16666666666666</ele><time>2026-05-01T15:49:41Z</time></trkpt><trkpt lat="45.908182164464" lon="11.933824038449394"><ele>193.33333333333331</ele><time>2026-05-01T15:49:42Z</time></trkpt><trkpt lat="45.9081229105607" lon="11.93392631157289"><ele>193.5</ele><time>2026-05-01T15:49:44Z</time></trkpt><trkpt lat="45.908063788327624" lon="11.934004591865126"><ele>193.66666666666669</ele><time>2026-05-01T15:49:52.999Z</time></trkpt><trkpt lat="45.907994227825185" lon="11.934106722822293"><ele>193.83333333333334</ele><time>2026-05-01T15:49:54.999Z</time></trkpt><trkpt lat="45.90793954405746" lon="11.934186514893444"><ele>194.0</ele><time>2026-05-01T15:49:55.999Z</time></trkpt><trkpt lat="45.907817597700344" lon="11.93421049926923"><ele>194.75</ele><time>2026-05-01T15:49:56.999Z</time></trkpt><trkpt lat="45.907734057108094" lon="11.934320807520873"><ele>195.5</ele><time>2026-05-01T15:49:57.999Z</time></trkpt><trkpt lat="45.90766225545685" lon="11.934452206545611"><ele>196.25</ele><time>2026-05-01T15:49:58.999Z</time></trkpt><trkpt lat="45.907573057463914" lon="11.934644529471106"><ele>197.0</ele><time>2026-05-01T15:49:59.999Z</time></trkpt><trkpt lat="45.907506760265875" lon="11.93479036115463"><ele>197.0</ele><time>2026-05-01T15:50:00.999Z</time></trkpt><trkpt lat="45.90745109553961" lon="11.934933617490183"><ele>197.0</ele><time>2026-05-01T15:50:01.999Z</time></trkpt><trkpt lat="45.90737863192191" lon="11.935084325344125"><ele>197.0</ele><time>2026-05-01T15:50:02.999Z</time></trkpt><trkpt lat="45.90729890819854" lon="11.935240812473463"><ele>197.0</ele><time>2026-05-01T15:50:03.999Z</time></trkpt><trkpt lat="45.907223774013005" lon="11.935406083691003"><ele>195.25</ele><time>2026-05-01T15:50:04.999Z</time></trkpt><trkpt lat="45.90714374914013" lon="11.935569314361832"><ele>193.5</ele><time>2026-05-01T15:50:05.999Z</time></trkpt><trkpt lat="45.90707545830485" lon="11.935709261517582"><ele>191.75</ele><time>2026-05-01T15:50:06.999Z</time></trkpt><trkpt lat="45.907012714144734" lon="11.93584389090874"><ele>190.0</ele><time>2026-05-01T15:50:07.999Z</time></trkpt><trkpt lat="45.906957988949095" lon="11.936013814743186"><ele>190.75</ele><time>2026-05-01T15:50:08.999Z</time></trkpt><trkpt lat="45.90688297461033" lon="11.936147291801596"><ele>191.5</ele><time>2026-05-01T15:50:09.999Z</time></trkpt><trkpt lat="45.906817995476025" lon="11.936262891255657"><ele>192.25</ele><time>2026-05-01T15:50:10.999Z</time></trkpt><trkpt lat="45.90674902100691" lon="11.936389432008378"><ele>193.0</ele><time>2026-05-01T15:50:11.999Z</time></trkpt><trkpt lat="45.90667045555714" lon="11.936531927255112"><ele>193.0</ele><time>2026-05-01T15:50:13.001Z</time></trkpt><trkpt lat="45.90659281508023" lon="11.936666144038663"><ele>193.0</ele><time>2026-05-01T15:50:14.001Z</time></trkpt><trkpt lat="45.90649923460353" lon="11.936797545407249"><ele>193.0</ele><time>2026-05-01T15:50:15.001Z</time></trkpt><trkpt lat="45.90640559591441" lon="11.936924837197306"><ele>193.0</ele><time>2026-05-01T15:50:16.001Z</time></trkpt><trkpt lat="45.906312397935366" lon="11.937061043517438"><ele>191.5</ele><time>2026-05-01T15:50:17.001Z</time></trkpt><trkpt lat="45.90621291932777" lon="11.937192094338334"><ele>190.0</ele><time>2026-05-01T15:50:18.001Z</time></trkpt><trkpt lat="45.906142829867655" lon="11.937356146562298"><ele>188.5</ele><time>2026-05-01T15:50:19.001Z</time></trkpt><trkpt lat="45.90608229532274" lon="11.937529025610226"><ele>187.0</ele><time>2026-05-01T15:50:20.001Z</time></trkpt><trkpt lat="45.906015185003895" lon="11.93770993930255"><ele>187.0</ele><time>2026-05-01T15:50:21.001Z</time></trkpt><trkpt lat="45.90594722708235" lon="11.937882740826346"><ele>187.0</ele><time>2026-05-01T15:50:22.001Z</time></trkpt><trkpt lat="45.905875381715816" lon="11.938067550826766"><ele>187.0</ele><time>2026-05-01T15:50:23.001Z</time></trkpt><trkpt lat="45.905820011232876" lon="11.938238495089955"><ele>187.0</ele><time>2026-05-01T15:50:24.001Z</time></trkpt><trkpt lat="45.905754938651036" lon="11.938402684695708"><ele>187.0</ele><time>2026-05-01T15:50:25.001Z</time></trkpt><trkpt lat="45.90570073611741" lon="11.938569829807951"><ele>187.0</ele><time>2026-05-01T15:50:26.001Z</time></trkpt><trkpt lat="45.90563684314773" lon="11.938738593684162"><ele>187.0</ele><time>2026-05-01T15:50:27Z</time></trkpt><trkpt lat="45.90559317315356" lon="11.938905483129448"><ele>187.0</ele><time>2026-05-01T15:50:28Z</time></trkpt><trkpt lat="45.90556692532804" lon="11.939076163033993"><ele>186.2</ele><time>2026-05-01T15:50:29Z</time></trkpt><trkpt lat="45.905554201167504" lon="11.939238383100697"><ele>185.39999999999998</ele><time>2026-05-01T15:50:30Z</time></trkpt><trkpt lat="45.90555265556263" lon="11.939389317399085"><ele>184.60000000000002</ele><time>2026-05-01T15:50:31Z</time></trkpt><trkpt lat="45.90554593222689" lon="11.939550329470018"><ele>183.8</ele><time>2026-05-01T15:50:32Z</time></trkpt><trkpt lat="45.90554266077366" lon="11.939694801239822"><ele>183.0</ele><time>2026-05-01T15:50:33Z</time></trkpt><trkpt lat="45.90553474084736" lon="11.939851435272164"><ele>183.0</ele><time>2026-05-01T15:50:34Z</time></trkpt><trkpt lat="45.90552682173211" lon="11.940005473884728"><ele>183.0</ele><time>2026-05-01T15:50:35Z</time></trkpt><trkpt lat="45.90550743453202" lon="11.940145243712418"><ele>183.0</ele><time>2026-05-01T15:50:36Z</time></trkpt><trkpt lat="45.90547400135024" lon="11.940278337105466"><ele>183.0</ele><time>2026-05-01T15:50:37Z</time></trkpt><trkpt lat="45.90545223987142" lon="11.940374667667962"><ele>183.0</ele><time>2026-05-01T15:50:38Z</time></trkpt><trkpt lat="45.90541019002143" lon="11.940489767187433"><ele>183.0</ele><time>2026-05-01T15:50:40Z</time></trkpt><trkpt lat="45.90540212626039" lon="11.940618429797032"><ele>183.0</ele><time>2026-05-01T15:50:42Z</time></trkpt><trkpt lat="45.905373309236325" lon="11.940699209761117"><ele>183.0</ele><time>2026-05-01T15:50:43Z</time></trkpt><trkpt lat="45.90530388586963" lon="11.940805347746762"><ele>183.0</ele><time>2026-05-01T15:50:45Z</time></trkpt><trkpt lat="45.905226933452546" lon="11.940886712509505"><ele>183.0</ele><time>2026-05-01T15:50:47Z</time></trkpt><trkpt lat="45.90516811496217" lon="11.940928448260047"><ele>183.0</ele><time>2026-05-01T15:50:48Z</time></trkpt><trkpt lat="45.90511657300019" lon="11.940991225723328"><ele>184.75</ele><time>2026-05-01T15:50:49Z</time></trkpt><trkpt lat="45.905055189889396" lon="11.941178339045615"><ele>186.5</ele><time>2026-05-01T15:50:51Z</time></trkpt><trkpt lat="45.90501720311527" lon="11.941321055178198"><ele>188.25</ele><time>2026-05-01T15:50:52Z</time></trkpt><trkpt lat="45.90495422600309" lon="11.941448439820618"><ele>190.0</ele><time>2026-05-01T15:50:53Z</time></trkpt><trkpt lat="45.90489138048558" lon="11.94156376705798"><ele>190.0</ele><time>2026-05-01T15:50:54Z</time></trkpt><trkpt lat="45.904728360898574" lon="11.941570550761577"><ele>190.0</ele><time>2026-05-01T15:50:55Z</time></trkpt><trkpt lat="45.904604153440296" lon="11.941620714592151"><ele>190.0</ele><time>2026-05-01T15:50:56Z</time></trkpt><trkpt lat="45.90444539412343" lon="11.941678133402055"><ele>189.75</ele><time>2026-05-01T15:50:57Z</time></trkpt><trkpt lat="45.904309619198514" lon="11.941741281475599"><ele>189.5</ele><time>2026-05-01T15:50:58Z</time></trkpt><trkpt lat="45.90416519342663" lon="11.941799453744023"><ele>189.25</ele><time>2026-05-01T15:50:59Z</time></trkpt><trkpt lat="45.90402168086526" lon="11.941861004423103"><ele>189.0</ele><time>2026-05-01T15:51:00Z</time></trkpt><trkpt lat="45.903871875242565" lon="11.941931261287438"><ele>189.0</ele><time>2026-05-01T15:51:01Z</time></trkpt><trkpt lat="45.903717752025614" lon="11.941998205685714"><ele>189.0</ele><time>2026-05-01T15:51:02Z</time></trkpt><trkpt lat="45.90357302110417" lon="11.94206526060268"><ele>189.0</ele><time>2026-05-01T15:51:03Z</time></trkpt><trkpt lat="45.90341885874206" lon="11.94211552195241"><ele>189.33333333333334</ele><time>2026-05-01T15:51:04Z</time></trkpt><trkpt lat="45.90326160711428" lon="11.94218101769883"><ele>189.66666666666669</ele><time>2026-05-01T15:51:05Z</time></trkpt><trkpt lat="45.903096853087135" lon="11.94224285551459"><ele>190.0</ele><time>2026-05-01T15:51:06Z</time></trkpt><trkpt lat="45.902928456266146" lon="11.942303409871945"><ele>190.0</ele><time>2026-05-01T15:51:07Z</time></trkpt><trkpt lat="45.902769329200616" lon="11.94236821782502"><ele>190.0</ele><time>2026-05-01T15:51:08Z</time></trkpt><trkpt lat="45.90260533433855" lon="11.94242738691356"><ele>190.0</ele><time>2026-05-01T15:51:09Z</time></trkpt><trkpt lat="45.902446029551975" lon="11.942457664709034"><ele>189.33333333333334</ele><time>2026-05-01T15:51:10Z</time></trkpt><trkpt lat="45.90229627522349" lon="11.942498607055917"><ele>188.66666666666666</ele><time>2026-05-01T15:51:11Z</time></trkpt><trkpt lat="45.90214951467304" lon="11.942536936209232"><ele>188.0</ele><time>2026-05-01T15:51:12Z</time></trkpt><trkpt lat="45.90199881135619" lon="11.942579012789215"><ele>188.0</ele><time>2026-05-01T15:51:13Z</time></trkpt><trkpt lat="45.90184300385613" lon="11.942619542591826"><ele>188.0</ele><time>2026-05-01T15:51:14Z</time></trkpt><trkpt lat="45.90169681432176" lon="11.942654633863338"><ele>188.0</ele><time>2026-05-01T15:51:15Z</time></trkpt><trkpt lat="45.9015458722458" lon="11.942688241927382"><ele>187.0</ele><time>2026-05-01T15:51:16Z</time></trkpt><trkpt lat="45.90139109269885" lon="11.94272154248209"><ele>186.0</ele><time>2026-05-01T15:51:17Z</time></trkpt><trkpt lat="45.90123314808087" lon="11.9427481246826"><ele>185.0</ele><time>2026-05-01T15:51:18Z</time></trkpt><trkpt lat="45.90107571305422" lon="11.9427822434842"><ele>185.0</ele><time>2026-05-01T15:51:19Z</time></trkpt><trkpt lat="45.90092662693845" lon="11.942809628118663"><ele>185.0</ele><time>2026-05-01T15:51:20Z</time></trkpt><trkpt lat="45.90078594012421" lon="11.942836272402065"><ele>185.0</ele><time>2026-05-01T15:51:20.999Z</time></trkpt><trkpt lat="45.900648012844336" lon="11.94285725330559"><ele>185.0</ele><time>2026-05-01T15:51:21.999Z</time></trkpt><trkpt lat="45.90051714727877" lon="11.942885340702404"><ele>185.2</ele><time>2026-05-01T15:51:22.999Z</time></trkpt><trkpt lat="45.90038167784472" lon="11.94290291020255"><ele>185.4</ele><time>2026-05-01T15:51:23.999Z</time></trkpt><trkpt lat="45.900268307101435" lon="11.942909972264701"><ele>185.60000000000002</ele><time>2026-05-01T15:51:24.999Z</time></trkpt><trkpt lat="45.90017010968586" lon="11.942896127729881"><ele>185.8</ele><time>2026-05-01T15:51:25.999Z</time></trkpt><trkpt lat="45.9000852535512" lon="11.942933415545843"><ele>186.0</ele><time>2026-05-01T15:51:26.999Z</time></trkpt><trkpt lat="45.90002142805302" lon="11.942935809565297"><ele>185.66666666666666</ele><time>2026-05-01T15:51:27.999Z</time></trkpt><trkpt lat="45.89995778076963" lon="11.942926167967673"><ele>185.33333333333334</ele><time>2026-05-01T15:51:28.999Z</time></trkpt><trkpt lat="45.89989350537462" lon="11.94290307398497"><ele>185.0</ele><time>2026-05-01T15:51:29.999Z</time></trkpt><trkpt lat="45.89981678487931" lon="11.942893444967813"><ele>184.66666666666669</ele><time>2026-05-01T15:51:31.999Z</time></trkpt><trkpt lat="45.89971260723799" lon="11.942861560238756"><ele>184.33333333333334</ele><time>2026-05-01T15:51:33.999Z</time></trkpt><trkpt lat="45.89962093726296" lon="11.942832461198389"><ele>184.0</ele><time>2026-05-01T15:51:34.999Z</time></trkpt><trkpt lat="45.899520859328526" lon="11.942851105180166"><ele>184.0</ele><time>2026-05-01T15:51:35.999Z</time></trkpt><trkpt lat="45.89939449032057" lon="11.94279228329509"><ele>184.0</ele><time>2026-05-01T15:51:36.999Z</time></trkpt><trkpt lat="45.89925488407593" lon="11.942723132531775"><ele>184.0</ele><time>2026-05-01T15:51:37.999Z</time></trkpt><trkpt lat="45.89912270526608" lon="11.94265706588383"><ele>184.0</ele><time>2026-05-01T15:51:38.999Z</time></trkpt><trkpt lat="45.89897290681159" lon="11.942623380850918"><ele>183.0</ele><time>2026-05-01T15:51:39.999Z</time></trkpt><trkpt lat="45.89882411846312" lon="11.942592617676386"><ele>182.0</ele><time>2026-05-01T15:51:40.999Z</time></trkpt><trkpt lat="45.898689805218275" lon="11.942563735435677"><ele>181.0</ele><time>2026-05-01T15:51:41.999Z</time></trkpt><trkpt lat="45.89855784895737" lon="11.942544842335693"><ele>180.0</ele><time>2026-05-01T15:51:42.999Z</time></trkpt><trkpt lat="45.898431489374005" lon="11.942536883187552"><ele>178.5</ele><time>2026-05-01T15:51:43.999Z</time></trkpt><trkpt lat="45.89830905256031" lon="11.942556468811146"><ele>177.0</ele><time>2026-05-01T15:51:44.999Z</time></trkpt><trkpt lat="45.89818979842798" lon="11.942568300168714"><ele>175.5</ele><time>2026-05-01T15:51:45.999Z</time></trkpt><trkpt lat="45.898071626684086" lon="11.942589213862451"><ele>174.0</ele><time>2026-05-01T15:51:46.999Z</time></trkpt><trkpt lat="45.89794896533456" lon="11.942606738966427"><ele>174.0</ele><time>2026-05-01T15:51:47.999Z</time></trkpt><trkpt lat="45.89782255152443" lon="11.942605701177206"><ele>174.0</ele><time>2026-05-01T15:51:48.999Z</time></trkpt><trkpt lat="45.89769811048665" lon="11.942617107103255"><ele>174.0</ele><time>2026-05-01T15:51:49.999Z</time></trkpt><trkpt lat="45.89757349445" lon="11.94263681539534"><ele>174.0</ele><time>2026-05-01T15:51:50.999Z</time></trkpt><trkpt lat="45.89745308191793" lon="11.942644476225222"><ele>174.0</ele><time>2026-05-01T15:51:51.999Z</time></trkpt><trkpt lat="45.897325706795776" lon="11.942652593954444"><ele>174.0</ele><time>2026-05-01T15:51:52.999Z</time></trkpt><trkpt lat="45.8971957162215" lon="11.942645261074563"><ele>174.0</ele><time>2026-05-01T15:51:53.999Z</time></trkpt><trkpt lat="45.89708093310601" lon="11.942651429150974"><ele>174.0</ele><time>2026-05-01T15:51:54.999Z</time></trkpt><trkpt lat="45.89696099599618" lon="11.942636426911779"><ele>174.0</ele><time>2026-05-01T15:51:55.999Z</time></trkpt><trkpt lat="45.896824686183855" lon="11.942621618804125"><ele>174.0</ele><time>2026-05-01T15:51:56.999Z</time></trkpt><trkpt lat="45.89668590041959" lon="11.942607738323865"><ele>174.0</ele><time>2026-05-01T15:51:57.999Z</time></trkpt><trkpt lat="45.89654407942983" lon="11.94257869690272"><ele>174.0</ele><time>2026-05-01T15:51:58.999Z</time></trkpt><trkpt lat="45.89641380483293" lon="11.94254774435287"><ele>176.25</ele><time>2026-05-01T15:51:59.999Z</time></trkpt><trkpt lat="45.89627470600006" lon="11.942535519547512"><ele>178.5</ele><time>2026-05-01T15:52:00.999Z</time></trkpt><trkpt lat="45.89613955302219" lon="11.94251417500603"><ele>180.75</ele><time>2026-05-01T15:52:01.999Z</time></trkpt><trkpt lat="45.89598638226841" lon="11.942492168188954"><ele>183.0</ele><time>2026-05-01T15:52:02.999Z</time></trkpt><trkpt lat="45.89584889632359" lon="11.942473079379027"><ele>183.0</ele><time>2026-05-01T15:52:03.999Z</time></trkpt><trkpt lat="45.895692825440314" lon="11.942442916660966"><ele>183.0</ele><time>2026-05-01T15:52:04.999Z</time></trkpt><trkpt lat="45.895523509129085" lon="11.942423004574616"><ele>183.0</ele><time>2026-05-01T15:52:05.999Z</time></trkpt><trkpt lat="45.89535170136733" lon="11.942390026057593"><ele>183.0</ele><time>2026-05-01T15:52:06.999Z</time></trkpt><trkpt lat="45.895195441346274" lon="11.942373427813159"><ele>183.0</ele><time>2026-05-01T15:52:07.999Z</time></trkpt><trkpt lat="45.89504089509021" lon="11.942348339357707"><ele>183.0</ele><time>2026-05-01T15:52:08.999Z</time></trkpt><trkpt lat="45.89488520702891" lon="11.942359967478225"><ele>181.75</ele><time>2026-05-01T15:52:09.999Z</time></trkpt><trkpt lat="45.89474251987018" lon="11.94234514290184"><ele>180.5</ele><time>2026-05-01T15:52:10.999Z</time></trkpt><trkpt lat="45.894612127891214" lon="11.942313249413102"><ele>179.25</ele><time>2026-05-01T15:52:11.999Z</time></trkpt><trkpt lat="45.89447883416859" lon="11.942300304097676"><ele>178.0</ele><time>2026-05-01T15:52:12.999Z</time></trkpt><trkpt lat="45.89434574041444" lon="11.942316998661756"><ele>179.0</ele><time>2026-05-01T15:52:13.999Z</time></trkpt><trkpt lat="45.89421708360969" lon="11.94236355607592"><ele>180.0</ele><time>2026-05-01T15:52:14.999Z</time></trkpt><trkpt lat="45.89407319235833" lon="11.942419157151516"><ele>181.0</ele><time>2026-05-01T15:52:15.999Z</time></trkpt><trkpt lat="45.893937681149474" lon="11.942495960903921"><ele>182.0</ele><time>2026-05-01T15:52:16.999Z</time></trkpt><trkpt lat="45.893796970025" lon="11.94257434373988"><ele>180.66666666666666</ele><time>2026-05-01T15:52:17.999Z</time></trkpt><trkpt lat="45.89365331397796" lon="11.9426690004633"><ele>179.33333333333334</ele><time>2026-05-01T15:52:19Z</time></trkpt><trkpt lat="45.89350574051276" lon="11.942769916093745"><ele>178.0</ele><time>2026-05-01T15:52:20Z</time></trkpt><trkpt lat="45.89335443540047" lon="11.942891671147338"><ele>178.0</ele><time>2026-05-01T15:52:21Z</time></trkpt><trkpt lat="45.893216459086894" lon="11.94300002035451"><ele>178.0</ele><time>2026-05-01T15:52:22Z</time></trkpt><trkpt lat="45.89309154324814" lon="11.94306905046127"><ele>178.0</ele><time>2026-05-01T15:52:23Z</time></trkpt><trkpt lat="45.89295946784296" lon="11.9431615500806"><ele>178.0</ele><time>2026-05-01T15:52:24Z</time></trkpt><trkpt lat="45.89282895024746" lon="11.943252014651597"><ele>178.0</ele><time>2026-05-01T15:52:25Z</time></trkpt><trkpt lat="45.89269954608809" lon="11.94332906044594"><ele>178.0</ele><time>2026-05-01T15:52:26Z</time></trkpt><trkpt lat="45.89257025285344" lon="11.943391971018084"><ele>178.0</ele><time>2026-05-01T15:52:27Z</time></trkpt><trkpt lat="45.89243310204118" lon="11.943446914306692"><ele>178.0</ele><time>2026-05-01T15:52:28Z</time></trkpt><trkpt lat="45.89228725461185" lon="11.94350042436546"><ele>177.33333333333334</ele><time>2026-05-01T15:52:29Z</time></trkpt><trkpt lat="45.89213988241347" lon="11.943537556267371"><ele>176.66666666666666</ele><time>2026-05-01T15:52:30Z</time></trkpt><trkpt lat="45.891991459532846" lon="11.94358871402015"><ele>176.0</ele><time>2026-05-01T15:52:31Z</time></trkpt><trkpt lat="45.8918308689085" lon="11.943626020356362"><ele>175.66666666666666</ele><time>2026-05-01T15:52:32Z</time></trkpt><trkpt lat="45.89168067687087" lon="11.943655657377846"><ele>175.33333333333334</ele><time>2026-05-01T15:52:33Z</time></trkpt><trkpt lat="45.89153599625544" lon="11.943705112822737"><ele>175.0</ele><time>2026-05-01T15:52:34Z</time></trkpt><trkpt lat="45.891385404418784" lon="11.943729830424328"><ele>175.0</ele><time>2026-05-01T15:52:35Z</time></trkpt><trkpt lat="45.891232358934424" lon="11.94375948743518"><ele>175.0</ele><time>2026-05-01T15:52:36Z</time></trkpt><trkpt lat="45.89107146410692" lon="11.943783815960536"><ele>175.0</ele><time>2026-05-01T15:52:37Z</time></trkpt><trkpt lat="45.89091814117696" lon="11.943811703623261"><ele>175.33333333333334</ele><time>2026-05-01T15:52:38Z</time></trkpt><trkpt lat="45.890757494241576" lon="11.943837678647352"><ele>175.66666666666666</ele><time>2026-05-01T15:52:39Z</time></trkpt><trkpt lat="45.890601168265064" lon="11.94386669933152"><ele>176.0</ele><time>2026-05-01T15:52:40Z</time></trkpt><trkpt lat="45.89044622089192" lon="11.943901320503302"><ele>176.0</ele><time>2026-05-01T15:52:41Z</time></trkpt><trkpt lat="45.89029536941729" lon="11.943958439869458"><ele>176.0</ele><time>2026-05-01T15:52:42Z</time></trkpt><trkpt lat="45.8901473892563" lon="11.944042997754478"><ele>176.0</ele><time>2026-05-01T15:52:43Z</time></trkpt><trkpt lat="45.89000354967771" lon="11.944150253037954"><ele>175.33333333333331</ele><time>2026-05-01T15:52:44Z</time></trkpt><trkpt lat="45.889864497396324" lon="11.944266849766889"><ele>174.66666666666666</ele><time>2026-05-01T15:52:45Z</time></trkpt><trkpt lat="45.88972836340308" lon="11.944392273490633"><ele>174.0</ele><time>2026-05-01T15:52:46Z</time></trkpt><trkpt lat="45.8895911037819" lon="11.944520943041818"><ele>174.0</ele><time>2026-05-01T15:52:47Z</time></trkpt><trkpt lat="45.88945570868795" lon="11.944655211616595"><ele>174.0</ele><time>2026-05-01T15:52:48Z</time></trkpt><trkpt lat="45.88931086833694" lon="11.944786796073945"><ele>174.0</ele><time>2026-05-01T15:52:49Z</time></trkpt><trkpt lat="45.88916897838944" lon="11.944916423066955"><ele>172.33333333333334</ele><time>2026-05-01T15:52:50Z</time></trkpt><trkpt lat="45.88903196615544" lon="11.945037496731699"><ele>170.66666666666669</ele><time>2026-05-01T15:52:51Z</time></trkpt><trkpt lat="45.88889607820517" lon="11.945156216544301"><ele>169.0</ele><time>2026-05-01T15:52:52Z</time></trkpt><trkpt lat="45.88876505191876" lon="11.945273079132846"><ele>169.0</ele><time>2026-05-01T15:52:53Z</time></trkpt><trkpt lat="45.888638859900034" lon="11.945385408076051"><ele>169.0</ele><time>2026-05-01T15:52:54Z</time></trkpt><trkpt lat="45.88851469417421" lon="11.94551072820708"><ele>169.0</ele><time>2026-05-01T15:52:55Z</time></trkpt><trkpt lat="45.88837985140942" lon="11.945631948954649"><ele>169.33333333333334</ele><time>2026-05-01T15:52:56Z</time></trkpt><trkpt lat="45.8882455806513" lon="11.945764706805514"><ele>169.66666666666666</ele><time>2026-05-01T15:52:57Z</time></trkpt><trkpt lat="45.88810638491884" lon="11.945894275421605"><ele>170.0</ele><time>2026-05-01T15:52:58Z</time></trkpt><trkpt lat="45.88796902681254" lon="11.946021281788088"><ele>170.0</ele><time>2026-05-01T15:52:59Z</time></trkpt><trkpt lat="45.88782813157558" lon="11.946152659962706"><ele>170.0</ele><time>2026-05-01T15:53:00Z</time></trkpt><trkpt lat="45.88768089076883" lon="11.946250561445027"><ele>170.0</ele><time>2026-05-01T15:53:01Z</time></trkpt><trkpt lat="45.887546592877165" lon="11.946370471986619"><ele>170.0</ele><time>2026-05-01T15:53:02Z</time></trkpt><trkpt lat="45.88740572205595" lon="11.946508276911157"><ele>170.0</ele><time>2026-05-01T15:53:03Z</time></trkpt><trkpt lat="45.887264607700416" lon="11.946647351448018"><ele>170.0</ele><time>2026-05-01T15:53:04Z</time></trkpt><trkpt lat="45.8871285908333" lon="11.94677111065688"><ele>170.0</ele><time>2026-05-01T15:53:05Z</time></trkpt><trkpt lat="45.88698643789624" lon="11.946897755839986"><ele>170.0</ele><time>2026-05-01T15:53:06Z</time></trkpt><trkpt lat="45.886840990053116" lon="11.947033573060114"><ele>170.0</ele><time>2026-05-01T15:53:07Z</time></trkpt><trkpt lat="45.88669786715527" lon="11.947169056419865"><ele>169.66666666666666</ele><time>2026-05-01T15:53:08Z</time></trkpt><trkpt lat="45.88656334593178" lon="11.947319055272974"><ele>169.33333333333334</ele><time>2026-05-01T15:53:09Z</time></trkpt><trkpt lat="45.88643797837102" lon="11.947501093940947"><ele>169.0</ele><time>2026-05-01T15:53:10Z</time></trkpt><trkpt lat="45.88632487722584" lon="11.947697768113107"><ele>169.0</ele><time>2026-05-01T15:53:11Z</time></trkpt><trkpt lat="45.88621759726207" lon="11.947913015874875"><ele>169.0</ele><time>2026-05-01T15:53:12Z</time></trkpt><trkpt lat="45.88610789539022" lon="11.948128397735251"><ele>169.0</ele><time>2026-05-01T15:53:13Z</time></trkpt><trkpt lat="45.8860077076414" lon="11.948354370366546"><ele>173.33333333333334</ele><time>2026-05-01T15:53:14Z</time></trkpt><trkpt lat="45.885909452186645" lon="11.94858070952535"><ele>177.66666666666666</ele><time>2026-05-01T15:53:15Z</time></trkpt><trkpt lat="45.88581569782143" lon="11.948812668190461"><ele>182.0</ele><time>2026-05-01T15:53:16Z</time></trkpt><trkpt lat="45.88573201265578" lon="11.949045633267042"><ele>178.0</ele><time>2026-05-01T15:53:17Z</time></trkpt><trkpt lat="45.88564904174356" lon="11.94929227335832"><ele>174.0</ele><time>2026-05-01T15:53:17.999Z</time></trkpt><trkpt lat="45.88557315500065" lon="11.949545684471346"><ele>170.0</ele><time>2026-05-01T15:53:18.999Z</time></trkpt><trkpt lat="45.885498576628294" lon="11.949783133597661"><ele>170.0</ele><time>2026-05-01T15:53:19.999Z</time></trkpt><trkpt lat="45.88543132399402" lon="11.950028468251103"><ele>170.0</ele><time>2026-05-01T15:53:20.999Z</time></trkpt><trkpt lat="45.885381685427426" lon="11.950270179567696"><ele>170.0</ele><time>2026-05-01T15:53:21.999Z</time></trkpt><trkpt lat="45.885318833739845" lon="11.95050328296042"><ele>168.66666666666666</ele><time>2026-05-01T15:53:22.999Z</time></trkpt><trkpt lat="45.88527427716087" lon="11.950757233309222"><ele>167.33333333333334</ele><time>2026-05-01T15:53:23.999Z</time></trkpt><trkpt lat="45.885216754470356" lon="11.951010855721629"><ele>166.0</ele><time>2026-05-01T15:53:24.999Z</time></trkpt><trkpt lat="45.885167017277546" lon="11.951247561136718"><ele>166.0</ele><time>2026-05-01T15:53:25.999Z</time></trkpt><trkpt lat="45.885126592102594" lon="11.951472837188309"><ele>166.0</ele><time>2026-05-01T15:53:26.999Z</time></trkpt><trkpt lat="45.885073333404414" lon="11.95171869700218"><ele>166.0</ele><time>2026-05-01T15:53:27.999Z</time></trkpt><trkpt lat="45.88502372880032" lon="11.951965901687585"><ele>169.66666666666669</ele><time>2026-05-01T15:53:28.999Z</time></trkpt><trkpt lat="45.884980693767865" lon="11.952182603749057"><ele>173.33333333333334</ele><time>2026-05-01T15:53:29.999Z</time></trkpt><trkpt lat="45.884959249837976" lon="11.952416758764697"><ele>177.0</ele><time>2026-05-01T15:53:30.999Z</time></trkpt><trkpt lat="45.8849080161313" lon="11.95262395919768"><ele>177.0</ele><time>2026-05-01T15:53:31.999Z</time></trkpt><trkpt lat="45.88487062545616" lon="11.9528485766934"><ele>177.0</ele><time>2026-05-01T15:53:32.999Z</time></trkpt><trkpt lat="45.884832560747775" lon="11.95307612777253"><ele>177.0</ele><time>2026-05-01T15:53:33.999Z</time></trkpt><trkpt lat="45.88479691298217" lon="11.95329613397712"><ele>175.33333333333334</ele><time>2026-05-01T15:53:34.999Z</time></trkpt><trkpt lat="45.884760645434234" lon="11.953516995799639"><ele>173.66666666666669</ele><time>2026-05-01T15:53:35.999Z</time></trkpt><trkpt lat="45.8847156149497" lon="11.953747588098647"><ele>172.0</ele><time>2026-05-01T15:53:36.999Z</time></trkpt><trkpt lat="45.8846547666107" lon="11.95397338291562"><ele>172.0</ele><time>2026-05-01T15:53:37.999Z</time></trkpt><trkpt lat="45.8845694005854" lon="11.95419405198973"><ele>172.0</ele><time>2026-05-01T15:53:38.999Z</time></trkpt><trkpt lat="45.88446721701269" lon="11.954388445022301"><ele>172.0</ele><time>2026-05-01T15:53:39.999Z</time></trkpt><trkpt lat="45.884353914637764" lon="11.95457909306964"><ele>171.0</ele><time>2026-05-01T15:53:40.999Z</time></trkpt><trkpt lat="45.884238564026674" lon="11.954773152631047"><ele>170.0</ele><time>2026-05-01T15:53:41.999Z</time></trkpt><trkpt lat="45.88411694875563" lon="11.954976991257638"><ele>169.0</ele><time>2026-05-01T15:53:42.999Z</time></trkpt><trkpt lat="45.88399753789232" lon="11.955177135062831"><ele>169.0</ele><time>2026-05-01T15:53:43.999Z</time></trkpt><trkpt lat="45.88387457882187" lon="11.955383212743124"><ele>169.0</ele><time>2026-05-01T15:53:44.999Z</time></trkpt><trkpt lat="45.883761249874404" lon="11.955572934170945"><ele>169.0</ele><time>2026-05-01T15:53:45.999Z</time></trkpt><trkpt lat="45.883652905562705" lon="11.9557544278427"><ele>168.0</ele><time>2026-05-01T15:53:46.999Z</time></trkpt><trkpt lat="45.88355682302468" lon="11.955940466335493"><ele>167.0</ele><time>2026-05-01T15:53:47.999Z</time></trkpt><trkpt lat="45.88345118852249" lon="11.956126493924902"><ele>166.0</ele><time>2026-05-01T15:53:48.999Z</time></trkpt><trkpt lat="45.883337751472354" lon="11.956279756262115"><ele>166.66666666666669</ele><time>2026-05-01T15:53:49.999Z</time></trkpt><trkpt lat="45.883226903548206" lon="11.956463655053465"><ele>167.33333333333334</ele><time>2026-05-01T15:53:50.999Z</time></trkpt><trkpt lat="45.883113221471454" lon="11.956652267967305"><ele>168.0</ele><time>2026-05-01T15:53:51.999Z</time></trkpt><trkpt lat="45.88300966094816" lon="11.956838918911902"><ele>168.0</ele><time>2026-05-01T15:53:52.999Z</time></trkpt><trkpt lat="45.88289930700446" lon="11.957018661551464"><ele>168.0</ele><time>2026-05-01T15:53:53.999Z</time></trkpt><trkpt lat="45.88279329629687" lon="11.95719599170294"><ele>168.0</ele><time>2026-05-01T15:53:54.999Z</time></trkpt><trkpt lat="45.8826702005445" lon="11.957366041163198"><ele>168.33333333333334</ele><time>2026-05-01T15:53:55.999Z</time></trkpt><trkpt lat="45.88256864754775" lon="11.957534319284564"><ele>168.66666666666669</ele><time>2026-05-01T15:53:56.999Z</time></trkpt><trkpt lat="45.88246093791674" lon="11.95769634072696"><ele>169.0</ele><time>2026-05-01T15:53:57.999Z</time></trkpt><trkpt lat="45.882366268681395" lon="11.957853988835518"><ele>169.0</ele><time>2026-05-01T15:53:58.999Z</time></trkpt><trkpt lat="45.88226158641733" lon="11.958010366004448"><ele>169.0</ele><time>2026-05-01T15:53:59.999Z</time></trkpt><trkpt lat="45.88215400542178" lon="11.958175126574176"><ele>169.0</ele><time>2026-05-01T15:54:00.999Z</time></trkpt><trkpt lat="45.882050896723705" lon="11.958334782877422"><ele>170.0</ele><time>2026-05-01T15:54:01.999Z</time></trkpt><trkpt lat="45.88194335574395" lon="11.958461865017322"><ele>171.0</ele><time>2026-05-01T15:54:02.999Z</time></trkpt><trkpt lat="45.88184581732083" lon="11.958632945459517"><ele>172.0</ele><time>2026-05-01T15:54:03.999Z</time></trkpt><trkpt lat="45.881750486122044" lon="11.958822805079091"><ele>172.0</ele><time>2026-05-01T15:54:04.999Z</time></trkpt><trkpt lat="45.881654904990484" lon="11.959020653820849"><ele>172.0</ele><time>2026-05-01T15:54:05.999Z</time></trkpt><trkpt lat="45.88155780909046" lon="11.959218167556749"><ele>172.0</ele><time>2026-05-01T15:54:06.999Z</time></trkpt><trkpt lat="45.88146801527001" lon="11.959414604257772"><ele>170.66666666666669</ele><time>2026-05-01T15:54:07.999Z</time></trkpt><trkpt lat="45.88137335229449" lon="11.959616845979852"><ele>169.33333333333334</ele><time>2026-05-01T15:54:08.999Z</time></trkpt><trkpt lat="45.88128032031678" lon="11.959822217922879"><ele>168.0</ele><time>2026-05-01T15:54:09.999Z</time></trkpt><trkpt lat="45.88118572409379" lon="11.960025125821014"><ele>168.0</ele><time>2026-05-01T15:54:10.999Z</time></trkpt><trkpt lat="45.88108654349711" lon="11.960232362087467"><ele>168.0</ele><time>2026-05-01T15:54:11.999Z</time></trkpt><trkpt lat="45.880990561167714" lon="11.960429755576873"><ele>168.0</ele><time>2026-05-01T15:54:12.999Z</time></trkpt><trkpt lat="45.88089352201706" lon="11.960615476481115"><ele>169.33333333333334</ele><time>2026-05-01T15:54:13.999Z</time></trkpt><trkpt lat="45.88079305915443" lon="11.960800471387978"><ele>170.66666666666669</ele><time>2026-05-01T15:54:14.999Z</time></trkpt><trkpt lat="45.88067987521494" lon="11.960981838324832"><ele>172.0</ele><time>2026-05-01T15:54:15.999Z</time></trkpt><trkpt lat="45.88057443051174" lon="11.961147473786964"><ele>172.0</ele><time>2026-05-01T15:54:16.999Z</time></trkpt><trkpt lat="45.88047123239104" lon="11.961297555922698"><ele>172.0</ele><time>2026-05-01T15:54:17.999Z</time></trkpt><trkpt lat="45.880371355732436" lon="11.961440388898593"><ele>172.0</ele><time>2026-05-01T15:54:18.999Z</time></trkpt><trkpt lat="45.88026431127791" lon="11.961590547048958"><ele>172.0</ele><time>2026-05-01T15:54:19.999Z</time></trkpt><trkpt lat="45.88015056403235" lon="11.961743134224132"><ele>171.66666666666669</ele><time>2026-05-01T15:54:20.999Z</time></trkpt><trkpt lat="45.8800336024131" lon="11.9618926820503"><ele>171.33333333333334</ele><time>2026-05-01T15:54:21.999Z</time></trkpt><trkpt lat="45.87991643801477" lon="11.962048492457315"><ele>171.0</ele><time>2026-05-01T15:54:22.999Z</time></trkpt><trkpt lat="45.87979060589596" lon="11.962197972432364"><ele>171.0</ele><time>2026-05-01T15:54:23.999Z</time></trkpt><trkpt lat="45.879678432658366" lon="11.96233206967627"><ele>171.0</ele><time>2026-05-01T15:54:25Z</time></trkpt><trkpt lat="45.87956792805796" lon="11.962453692649534"><ele>171.0</ele><time>2026-05-01T15:54:26Z</time></trkpt><trkpt lat="45.87947234636595" lon="11.962557716640514"><ele>171.0</ele><time>2026-05-01T15:54:27Z</time></trkpt><trkpt lat="45.879369471074526" lon="11.962649421134328"><ele>170.25</ele><time>2026-05-01T15:54:28Z</time></trkpt><trkpt lat="45.879253520014316" lon="11.962713433335002"><ele>169.5</ele><time>2026-05-01T15:54:29Z</time></trkpt><trkpt lat="45.879131867410685" lon="11.96276789410069"><ele>168.75</ele><time>2026-05-01T15:54:30Z</time></trkpt><trkpt lat="45.87900888181239" lon="11.962805996682249"><ele>168.0</ele><time>2026-05-01T15:54:31Z</time></trkpt><trkpt lat="45.878865821930596" lon="11.962832293246608"><ele>168.0</ele><time>2026-05-01T15:54:32Z</time></trkpt><trkpt lat="45.87872785340303" lon="11.962870895950468"><ele>168.0</ele><time>2026-05-01T15:54:33Z</time></trkpt><trkpt lat="45.8785868417692" lon="11.96291239140099"><ele>168.0</ele><time>2026-05-01T15:54:34Z</time></trkpt><trkpt lat="45.87844642691991" lon="11.962944921748056"><ele>168.0</ele><time>2026-05-01T15:54:35Z</time></trkpt><trkpt lat="45.87831783273014" lon="11.962973675855734"><ele>170.5</ele><time>2026-05-01T15:54:36Z</time></trkpt><trkpt lat="45.87818850308703" lon="11.963003861897489"><ele>173.0</ele><time>2026-05-01T15:54:37Z</time></trkpt><trkpt lat="45.87805914381937" lon="11.963031189366987"><ele>175.5</ele><time>2026-05-01T15:54:38Z</time></trkpt><trkpt lat="45.8779205785978" lon="11.963047936762946"><ele>178.0</ele><time>2026-05-01T15:54:39Z</time></trkpt><trkpt lat="45.87777738613827" lon="11.96308553532173"><ele>178.0</ele><time>2026-05-01T15:54:40Z</time></trkpt><trkpt lat="45.877636915201975" lon="11.963114673526906"><ele>178.0</ele><time>2026-05-01T15:54:41Z</time></trkpt><trkpt lat="45.877494445616044" lon="11.963130725617685"><ele>178.0</ele><time>2026-05-01T15:54:42Z</time></trkpt><trkpt lat="45.87734291921088" lon="11.96318541730499"><ele>178.0</ele><time>2026-05-01T15:54:43Z</time></trkpt><trkpt lat="45.87720232500345" lon="11.96322318524596"><ele>178.25</ele><time>2026-05-01T15:54:44Z</time></trkpt><trkpt lat="45.87705191138636" lon="11.963259228656167"><ele>178.5</ele><time>2026-05-01T15:54:45Z</time></trkpt><trkpt lat="45.876906904942444" lon="11.963262045578723"><ele>178.75</ele><time>2026-05-01T15:54:46Z</time></trkpt><trkpt lat="45.8767605860107" lon="11.963291415208369"><ele>179.0</ele><time>2026-05-01T15:54:47Z</time></trkpt><trkpt lat="45.876623574044004" lon="11.963321388741308"><ele>179.5</ele><time>2026-05-01T15:54:48Z</time></trkpt><trkpt lat="45.87648616212674" lon="11.963354642273043"><ele>180.0</ele><time>2026-05-01T15:54:49Z</time></trkpt><trkpt lat="45.87636368550915" lon="11.96338918643011"><ele>180.5</ele><time>2026-05-01T15:54:50Z</time></trkpt><trkpt lat="45.87624541423951" lon="11.963430888944144"><ele>181.0</ele><time>2026-05-01T15:54:51Z</time></trkpt><trkpt lat="45.87610615429553" lon="11.963484828875949"><ele>180.75</ele><time>2026-05-01T15:54:52Z</time></trkpt><trkpt lat="45.875977411348984" lon="11.963538208931755"><ele>180.5</ele><time>2026-05-01T15:54:53Z</time></trkpt><trkpt lat="45.875844708504054" lon="11.963608266459724"><ele>180.25</ele><time>2026-05-01T15:54:54Z</time></trkpt><trkpt lat="45.87572724314684" lon="11.963679009022362"><ele>180.0</ele><time>2026-05-01T15:54:55Z</time></trkpt><trkpt lat="45.87560814040951" lon="11.963752258917285"><ele>180.0</ele><time>2026-05-01T15:54:56Z</time></trkpt><trkpt lat="45.87548126415338" lon="11.963831710630588"><ele>180.0</ele><time>2026-05-01T15:54:57Z</time></trkpt><trkpt lat="45.87536126298747" lon="11.963920186604026"><ele>180.0</ele><time>2026-05-01T15:54:58Z</time></trkpt><trkpt lat="45.87523200320398" lon="11.964009337012785"><ele>180.0</ele><time>2026-05-01T15:54:59Z</time></trkpt><trkpt lat="45.875111792429614" lon="11.964085421107866"><ele>180.75</ele><time>2026-05-01T15:55:00Z</time></trkpt><trkpt lat="45.87498603361214" lon="11.964173953348693"><ele>181.5</ele><time>2026-05-01T15:55:01Z</time></trkpt><trkpt lat="45.874854230526935" lon="11.964230908055827"><ele>182.25</ele><time>2026-05-01T15:55:02Z</time></trkpt><trkpt lat="45.874727446300334" lon="11.9643094995487"><ele>183.0</ele><time>2026-05-01T15:55:03Z</time></trkpt><trkpt lat="45.874608489793935" lon="11.964384498247654"><ele>182.25</ele><time>2026-05-01T15:55:04Z</time></trkpt><trkpt lat="45.8745134374452" lon="11.96447036067006"><ele>181.5</ele><time>2026-05-01T15:55:05Z</time></trkpt><trkpt lat="45.87440411896843" lon="11.964525361981421"><ele>180.75</ele><time>2026-05-01T15:55:06Z</time></trkpt><trkpt lat="45.87428852051358" lon="11.964560497367192"><ele>180.0</ele><time>2026-05-01T15:55:07Z</time></trkpt><trkpt lat="45.8741841295102" lon="11.964622334690413"><ele>180.0</ele><time>2026-05-01T15:55:08Z</time></trkpt><trkpt lat="45.87407160159911" lon="11.964683944085527"><ele>180.0</ele><time>2026-05-01T15:55:09Z</time></trkpt><trkpt lat="45.873954256139235" lon="11.964740093602025"><ele>180.0</ele><time>2026-05-01T15:55:10Z</time></trkpt><trkpt lat="45.873827503097765" lon="11.964785719989312"><ele>180.0</ele><time>2026-05-01T15:55:11Z</time></trkpt><trkpt lat="45.87369650952644" lon="11.96482082911263"><ele>180.0</ele><time>2026-05-01T15:55:12Z</time></trkpt><trkpt lat="45.87355837173122" lon="11.964834074312405"><ele>180.0</ele><time>2026-05-01T15:55:13Z</time></trkpt><trkpt lat="45.873413175672454" lon="11.964806287267855"><ele>180.0</ele><time>2026-05-01T15:55:14Z</time></trkpt><trkpt lat="45.87327274404417" lon="11.964740912142448"><ele>180.0</ele><time>2026-05-01T15:55:15Z</time></trkpt><trkpt lat="45.87313575532136" lon="11.964651750492044"><ele>181.33333333333334</ele><time>2026-05-01T15:55:16Z</time></trkpt><trkpt lat="45.87300036345247" lon="11.964539312878943"><ele>182.66666666666669</ele><time>2026-05-01T15:55:17Z</time></trkpt><trkpt lat="45.87287437384769" lon="11.964415190196556"><ele>184.0</ele><time>2026-05-01T15:55:18Z</time></trkpt><trkpt lat="45.87274324965009" lon="11.964286781411339"><ele>184.33333333333334</ele><time>2026-05-01T15:55:19Z</time></trkpt><trkpt lat="45.87260346000312" lon="11.96416009032414"><ele>184.66666666666666</ele><time>2026-05-01T15:55:19.999Z</time></trkpt><trkpt lat="45.872457574027116" lon="11.964020721904916"><ele>185.0</ele><time>2026-05-01T15:55:20.999Z</time></trkpt><trkpt lat="45.87232402746373" lon="11.963867136058344"><ele>185.0</ele><time>2026-05-01T15:55:21.999Z</time></trkpt><trkpt lat="45.87220930448132" lon="11.963693050709214"><ele>185.0</ele><time>2026-05-01T15:55:22.999Z</time></trkpt><trkpt lat="45.87209628160403" lon="11.963511970839013"><ele>185.0</ele><time>2026-05-01T15:55:23.999Z</time></trkpt><trkpt lat="45.872008036968516" lon="11.963284081103614"><ele>186.0</ele><time>2026-05-01T15:55:24.999Z</time></trkpt><trkpt lat="45.87191618928604" lon="11.9630601499158"><ele>187.0</ele><time>2026-05-01T15:55:25.999Z</time></trkpt><trkpt lat="45.8718382522886" lon="11.962792455115517"><ele>188.0</ele><time>2026-05-01T15:55:26.999Z</time></trkpt><trkpt lat="45.8717483169685" lon="11.962529970642496"><ele>188.0</ele><time>2026-05-01T15:55:27.999Z</time></trkpt><trkpt lat="45.87164837889862" lon="11.962236241043023"><ele>188.0</ele><time>2026-05-01T15:55:28.999Z</time></trkpt><trkpt lat="45.87153099491997" lon="11.961916323415075"><ele>189.66666666666666</ele><time>2026-05-01T15:55:29.999Z</time></trkpt><trkpt lat="45.87142559586559" lon="11.961624862102491"><ele>191.33333333333331</ele><time>2026-05-01T15:55:30.999Z</time></trkpt><trkpt lat="45.87133709020141" lon="11.961361577127724"><ele>193.0</ele><time>2026-05-01T15:55:31.999Z</time></trkpt><trkpt lat="45.87124353112373" lon="11.961097576019162"><ele>194.66666666666666</ele><time>2026-05-01T15:55:32.999Z</time></trkpt><trkpt lat="45.871135625171945" lon="11.960824366276519"><ele>196.33333333333331</ele><time>2026-05-01T15:55:33.999Z</time></trkpt><trkpt lat="45.87102972560045" lon="11.960560812299784"><ele>198.0</ele><time>2026-05-01T15:55:34.999Z</time></trkpt><trkpt lat="45.870932486349595" lon="11.960288864862532"><ele>197.33333333333331</ele><time>2026-05-01T15:55:35.999Z</time></trkpt><trkpt lat="45.87082895561927" lon="11.960015004406625"><ele>196.66666666666666</ele><time>2026-05-01T15:55:36.999Z</time></trkpt><trkpt lat="45.870726668843076" lon="11.959740604286974"><ele>196.0</ele><time>2026-05-01T15:55:37.999Z</time></trkpt><trkpt lat="45.87062754922153" lon="11.959471647518793"><ele>196.0</ele><time>2026-05-01T15:55:38.999Z</time></trkpt><trkpt lat="45.870530304866755" lon="11.959192706397124"><ele>196.0</ele><time>2026-05-01T15:55:39.999Z</time></trkpt><trkpt lat="45.87042867057751" lon="11.958909518949895"><ele>196.0</ele><time>2026-05-01T15:55:40.999Z</time></trkpt><trkpt lat="45.870313728442156" lon="11.958626492150598"><ele>196.0</ele><time>2026-05-01T15:55:41.999Z</time></trkpt><trkpt lat="45.87020100592528" lon="11.958342589526898"><ele>196.0</ele><time>2026-05-01T15:55:42.999Z</time></trkpt><trkpt lat="45.870076606011224" lon="11.958060273005117"><ele>197.0</ele><time>2026-05-01T15:55:43.999Z</time></trkpt><trkpt lat="45.86994022984572" lon="11.957781369564254"><ele>198.0</ele><time>2026-05-01T15:55:44.999Z</time></trkpt><trkpt lat="45.86980445744678" lon="11.957507208870563"><ele>198.0</ele><time>2026-05-01T15:55:45.999Z</time></trkpt><trkpt lat="45.86967218094511" lon="11.957245658357076"><ele>198.0</ele><time>2026-05-01T15:55:46.999Z</time></trkpt><trkpt lat="45.86953545169517" lon="11.956988027174654"><ele>198.0</ele><time>2026-05-01T15:55:47.999Z</time></trkpt><trkpt lat="45.86939165754707" lon="11.956736950168443"><ele>198.0</ele><time>2026-05-01T15:55:48.999Z</time></trkpt><trkpt lat="45.86923779157491" lon="11.956484459399979"><ele>197.0</ele><time>2026-05-01T15:55:49.999Z</time></trkpt><trkpt lat="45.86908573509551" lon="11.956233875999287"><ele>196.0</ele><time>2026-05-01T15:55:50.999Z</time></trkpt><trkpt lat="45.86893725292543" lon="11.955990522478514"><ele>195.0</ele><time>2026-05-01T15:55:51.999Z</time></trkpt><trkpt lat="45.86877846396786" lon="11.95574302372502"><ele>194.0</ele><time>2026-05-01T15:55:52.999Z</time></trkpt><trkpt lat="45.86863385118982" lon="11.955500804517303"><ele>194.0</ele><time>2026-05-01T15:55:53.999Z</time></trkpt><trkpt lat="45.86848331643374" lon="11.955263793041222"><ele>194.0</ele><time>2026-05-01T15:55:54.999Z</time></trkpt><trkpt lat="45.86834214731822" lon="11.955029950045866"><ele>194.0</ele><time>2026-05-01T15:55:55.999Z</time></trkpt><trkpt lat="45.86819805929804" lon="11.954791237826914"><ele>193.66666666666669</ele><time>2026-05-01T15:55:56.999Z</time></trkpt><trkpt lat="45.868057619450504" lon="11.954560723782443"><ele>193.33333333333331</ele><time>2026-05-01T15:55:57.999Z</time></trkpt><trkpt lat="45.86791986269927" lon="11.954327878811227"><ele>193.0</ele><time>2026-05-01T15:55:58.999Z</time></trkpt><trkpt lat="45.86779081981863" lon="11.954116381437549"><ele>193.0</ele><time>2026-05-01T15:55:59.999Z</time></trkpt><trkpt lat="45.86767708686659" lon="11.953910175691762"><ele>193.0</ele><time>2026-05-01T15:56:00.999Z</time></trkpt><trkpt lat="45.86756736939101" lon="11.953735488246249"><ele>193.0</ele><time>2026-05-01T15:56:01.999Z</time></trkpt><trkpt lat="45.867476493455065" lon="11.953583541148971"><ele>193.0</ele><time>2026-05-01T15:56:02.999Z</time></trkpt><trkpt lat="45.86739649558494" lon="11.953433288540062"><ele>193.0</ele><time>2026-05-01T15:56:03.999Z</time></trkpt><trkpt lat="45.867340434582594" lon="11.953276012944091"><ele>193.0</ele><time>2026-05-01T15:56:04.999Z</time></trkpt><trkpt lat="45.867300243365584" lon="11.95310262494339"><ele>193.0</ele><time>2026-05-01T15:56:05.999Z</time></trkpt><trkpt lat="45.86727457246837" lon="11.952931230752824"><ele>193.0</ele><time>2026-05-01T15:56:06.999Z</time></trkpt><trkpt lat="45.86719882182202" lon="11.952778176342713"><ele>193.0</ele><time>2026-05-01T15:56:07.999Z</time></trkpt><trkpt lat="45.867097939328715" lon="11.952665512281502"><ele>193.0</ele><time>2026-05-01T15:56:08.999Z</time></trkpt><trkpt lat="45.866969086555045" lon="11.952572773859766"><ele>193.0</ele><time>2026-05-01T15:56:09.999Z</time></trkpt><trkpt lat="45.86683451174098" lon="11.952465270690942"><ele>192.66666666666666</ele><time>2026-05-01T15:56:10.999Z</time></trkpt><trkpt lat="45.86671687604904" lon="11.952326122182432"><ele>192.33333333333331</ele><time>2026-05-01T15:56:11.999Z</time></trkpt><trkpt lat="45.866607773066484" lon="11.95215906392912"><ele>192.0</ele><time>2026-05-01T15:56:12.999Z</time></trkpt><trkpt lat="45.866491669523825" lon="11.951966986665992"><ele>192.0</ele><time>2026-05-01T15:56:13.999Z</time></trkpt><trkpt lat="45.866367205992205" lon="11.951768972496588"><ele>192.0</ele><time>2026-05-01T15:56:14.999Z</time></trkpt><trkpt lat="45.8662353282051" lon="11.951565814153685"><ele>192.0</ele><time>2026-05-01T15:56:15.999Z</time></trkpt><trkpt lat="45.866094654138486" lon="11.951331098361154"><ele>192.0</ele><time>2026-05-01T15:56:16.999Z</time></trkpt><trkpt lat="45.865932106979244" lon="11.951073722824985"><ele>192.0</ele><time>2026-05-01T15:56:17.999Z</time></trkpt><trkpt lat="45.86575692395881" lon="11.950800264492221"><ele>192.0</ele><time>2026-05-01T15:56:18.999Z</time></trkpt><trkpt lat="45.86559285569537" lon="11.950530656877522"><ele>192.0</ele><time>2026-05-01T15:56:19.999Z</time></trkpt><trkpt lat="45.865414780697094" lon="11.95024623364109"><ele>192.0</ele><time>2026-05-01T15:56:20.999Z</time></trkpt><trkpt lat="45.86525163242733" lon="11.949986850631637"><ele>192.0</ele><time>2026-05-01T15:56:21.999Z</time></trkpt><trkpt lat="45.86510532493156" lon="11.949745265615928"><ele>191.5</ele><time>2026-05-01T15:56:22.999Z</time></trkpt><trkpt lat="45.86495327867157" lon="11.949494863858058"><ele>191.0</ele><time>2026-05-01T15:56:23.999Z</time></trkpt><trkpt lat="45.86480117765647" lon="11.949248260429673"><ele>190.5</ele><time>2026-05-01T15:56:24.999Z</time></trkpt><trkpt lat="45.864646100369896" lon="11.949007014145142"><ele>190.0</ele><time>2026-05-01T15:56:25.999Z</time></trkpt><trkpt lat="45.86449763682892" lon="11.94875572239457"><ele>190.0</ele><time>2026-05-01T15:56:26.999Z</time></trkpt><trkpt lat="45.86434781970682" lon="11.948500250725722"><ele>190.0</ele><time>2026-05-01T15:56:27.999Z</time></trkpt><trkpt lat="45.86419403889272" lon="11.948242987614456"><ele>189.5</ele><time>2026-05-01T15:56:28.999Z</time></trkpt><trkpt lat="45.86404377928584" lon="11.947995928436745"><ele>189.0</ele><time>2026-05-01T15:56:29.999Z</time></trkpt><trkpt lat="45.8638876762287" lon="11.947740648648542"><ele>190.0</ele><time>2026-05-01T15:56:31Z</time></trkpt><trkpt lat="45.86373349878575" lon="11.947491164552504"><ele>191.0</ele><time>2026-05-01T15:56:32Z</time></trkpt><trkpt lat="45.863576101316404" lon="11.94722587175958"><ele>190.5</ele><time>2026-05-01T15:56:33Z</time></trkpt><trkpt lat="45.863413594828614" lon="11.946977594450527"><ele>190.0</ele><time>2026-05-01T15:56:34Z</time></trkpt><trkpt lat="45.86325728926459" lon="11.946725704294211"><ele>189.5</ele><time>2026-05-01T15:56:35Z</time></trkpt><trkpt lat="45.86310066934398" lon="11.946473300545202"><ele>189.0</ele><time>2026-05-01T15:56:36Z</time></trkpt><trkpt lat="45.862946368330284" lon="11.946217759010652"><ele>189.0</ele><time>2026-05-01T15:56:37Z</time></trkpt><trkpt lat="45.86279437390641" lon="11.94596345920051"><ele>189.0</ele><time>2026-05-01T15:56:38Z</time></trkpt><trkpt lat="45.8626400162337" lon="11.945715318930446"><ele>189.0</ele><time>2026-05-01T15:56:39Z</time></trkpt><trkpt lat="45.862492012499466" lon="11.945472214626312"><ele>189.0</ele><time>2026-05-01T15:56:40Z</time></trkpt><trkpt lat="45.8623436784705" lon="11.945232495695999"><ele>189.0</ele><time>2026-05-01T15:56:41Z</time></trkpt><trkpt lat="45.86219801982201" lon="11.94499413045875"><ele>188.66666666666666</ele><time>2026-05-01T15:56:42Z</time></trkpt><trkpt lat="45.86206015548078" lon="11.944765864877217"><ele>188.33333333333331</ele><time>2026-05-01T15:56:43Z</time></trkpt><trkpt lat="45.86191943712003" lon="11.944530635619204"><ele>188.0</ele><time>2026-05-01T15:56:44Z</time></trkpt><trkpt lat="45.861776944831824" lon="11.944285869551374"><ele>187.5</ele><time>2026-05-01T15:56:45Z</time></trkpt><trkpt lat="45.86163681761486" lon="11.944026332164876"><ele>187.0</ele><time>2026-05-01T15:56:46Z</time></trkpt><trkpt lat="45.86150220417366" lon="11.943761816867005"><ele>187.0</ele><time>2026-05-01T15:56:47Z</time></trkpt><trkpt lat="45.86138471047831" lon="11.94349087891118"><ele>187.0</ele><time>2026-05-01T15:56:48Z</time></trkpt><trkpt lat="45.86126225175803" lon="11.943210889132258"><ele>187.0</ele><time>2026-05-01T15:56:49Z</time></trkpt><trkpt lat="45.86113663785132" lon="11.94293275739732"><ele>187.0</ele><time>2026-05-01T15:56:50Z</time></trkpt><trkpt lat="45.861021272586456" lon="11.94262818164917"><ele>186.5</ele><time>2026-05-01T15:56:51Z</time></trkpt><trkpt lat="45.860912043952034" lon="11.942322786605862"><ele>186.0</ele><time>2026-05-01T15:56:52Z</time></trkpt><trkpt lat="45.860809082548315" lon="11.942031599198913"><ele>186.0</ele><time>2026-05-01T15:56:53Z</time></trkpt><trkpt lat="45.860704496883045" lon="11.941743000282914"><ele>186.0</ele><time>2026-05-01T15:56:54Z</time></trkpt><trkpt lat="45.86060450297726" lon="11.941444841074219"><ele>185.5</ele><time>2026-05-01T15:56:55Z</time></trkpt><trkpt lat="45.86051526223281" lon="11.941143596592411"><ele>185.0</ele><time>2026-05-01T15:56:56Z</time></trkpt><trkpt lat="45.860423216313144" lon="11.940849488109803"><ele>186.0</ele><time>2026-05-01T15:56:57Z</time></trkpt><trkpt lat="45.86034463338266" lon="11.940540474507149"><ele>187.0</ele><time>2026-05-01T15:56:58Z</time></trkpt><trkpt lat="45.86027006393475" lon="11.94023842238587"><ele>187.0</ele><time>2026-05-01T15:56:59Z</time></trkpt><trkpt lat="45.86020947916552" lon="11.939951850024704"><ele>187.0</ele><time>2026-05-01T15:57:00Z</time></trkpt><trkpt lat="45.86013976701449" lon="11.939628578119239"><ele>187.0</ele><time>2026-05-01T15:57:01Z</time></trkpt><trkpt lat="45.860071167267805" lon="11.939327481930341"><ele>186.0</ele><time>2026-05-01T15:57:02Z</time></trkpt><trkpt lat="45.85997936256916" lon="11.938996151664757"><ele>185.0</ele><time>2026-05-01T15:57:03Z</time></trkpt><trkpt lat="45.85990391320457" lon="11.938686498772226"><ele>185.0</ele><time>2026-05-01T15:57:04Z</time></trkpt><trkpt lat="45.85983033198455" lon="11.938388292262085"><ele>185.0</ele><time>2026-05-01T15:57:05Z</time></trkpt><trkpt lat="45.859753011488536" lon="11.938093873221282"><ele>185.0</ele><time>2026-05-01T15:57:06Z</time></trkpt><trkpt lat="45.85968454709201" lon="11.937792125473997"><ele>187.0</ele><time>2026-05-01T15:57:07Z</time></trkpt><trkpt lat="45.859617969508214" lon="11.937487133296681"><ele>189.0</ele><time>2026-05-01T15:57:08Z</time></trkpt><trkpt lat="45.85955262294274" lon="11.937177493463986"><ele>191.0</ele><time>2026-05-01T15:57:09Z</time></trkpt><trkpt lat="45.859487338668714" lon="11.936871980069874"><ele>192.33333333333331</ele><time>2026-05-01T15:57:10Z</time></trkpt><trkpt lat="45.85939816569899" lon="11.936569740684147"><ele>193.66666666666666</ele><time>2026-05-01T15:57:11Z</time></trkpt><trkpt lat="45.85932146359558" lon="11.936314581959778"><ele>195.0</ele><time>2026-05-01T15:57:12Z</time></trkpt><trkpt lat="45.85925395774405" lon="11.936061644828028"><ele>192.0</ele><time>2026-05-01T15:57:13Z</time></trkpt><trkpt lat="45.85918826297118" lon="11.935817600128832"><ele>189.0</ele><time>2026-05-01T15:57:14Z</time></trkpt><trkpt lat="45.85912806852399" lon="11.935585504061796"><ele>186.0</ele><time>2026-05-01T15:57:15Z</time></trkpt><trkpt lat="45.85907260671168" lon="11.935360047893829"><ele>186.0</ele><time>2026-05-01T15:57:16Z</time></trkpt><trkpt lat="45.85902092428336" lon="11.935150887961274"><ele>186.0</ele><time>2026-05-01T15:57:17Z</time></trkpt><trkpt lat="45.85897121777724" lon="11.934947685157267"><ele>186.0</ele><time>2026-05-01T15:57:18Z</time></trkpt><trkpt lat="45.85891952620348" lon="11.93474268975745"><ele>186.33333333333334</ele><time>2026-05-01T15:57:19Z</time></trkpt><trkpt lat="45.858871188823414" lon="11.934528814389386"><ele>186.66666666666669</ele><time>2026-05-01T15:57:20Z</time></trkpt><trkpt lat="45.85882609023138" lon="11.934308449511619"><ele>187.0</ele><time>2026-05-01T15:57:21Z</time></trkpt><trkpt lat="45.85877689624695" lon="11.934073393569022"><ele>187.0</ele><time>2026-05-01T15:57:22Z</time></trkpt><trkpt lat="45.85872523979671" lon="11.933853512602337"><ele>187.0</ele><time>2026-05-01T15:57:23Z</time></trkpt><trkpt lat="45.85867870687457" lon="11.93363985215712"><ele>187.0</ele><time>2026-05-01T15:57:24Z</time></trkpt><trkpt lat="45.85863076802424" lon="11.933432518780233"><ele>187.33333333333334</ele><time>2026-05-01T15:57:24.999Z</time></trkpt><trkpt lat="45.858586608059355" lon="11.933249698393704"><ele>187.66666666666666</ele><time>2026-05-01T15:57:25.999Z</time></trkpt><trkpt lat="45.85853503572925" lon="11.933010024462956"><ele>188.0</ele><time>2026-05-01T15:57:26.999Z</time></trkpt><trkpt lat="45.858488413096126" lon="11.93280636736384"><ele>188.0</ele><time>2026-05-01T15:57:27.999Z</time></trkpt><trkpt lat="45.8584377193161" lon="11.932604622817061"><ele>188.0</ele><time>2026-05-01T15:57:28.999Z</time></trkpt><trkpt lat="45.85838398426518" lon="11.932407659233052"><ele>188.0</ele><time>2026-05-01T15:57:29.999Z</time></trkpt><trkpt lat="45.858328319533015" lon="11.932211526712528"><ele>188.0</ele><time>2026-05-01T15:57:30.999Z</time></trkpt><trkpt lat="45.8582691584026" lon="11.93201771630399"><ele>188.0</ele><time>2026-05-01T15:57:31.999Z</time></trkpt><trkpt lat="45.8582162107446" lon="11.931812415079857"><ele>188.0</ele><time>2026-05-01T15:57:32.999Z</time></trkpt><trkpt lat="45.8581636967123" lon="11.931602691405011"><ele>188.0</ele><time>2026-05-01T15:57:33.999Z</time></trkpt><trkpt lat="45.85811003982587" lon="11.931403662620333"><ele>188.0</ele><time>2026-05-01T15:57:34.999Z</time></trkpt><trkpt lat="45.85805528068091" lon="11.931199863995424"><ele>188.0</ele><time>2026-05-01T15:57:35.999Z</time></trkpt><trkpt lat="45.85799917360919" lon="11.931003920622805"><ele>188.0</ele><time>2026-05-01T15:57:36.999Z</time></trkpt><trkpt lat="45.857942213784355" lon="11.930822682202614"><ele>188.0</ele><time>2026-05-01T15:57:37.999Z</time></trkpt><trkpt lat="45.85789727476802" lon="11.930652636448741"><ele>188.5</ele><time>2026-05-01T15:57:38.999Z</time></trkpt><trkpt lat="45.85784770803784" lon="11.93047401108529"><ele>189.0</ele><time>2026-05-01T15:57:39.999Z</time></trkpt><trkpt lat="45.857799742504355" lon="11.930283191656192"><ele>189.5</ele><time>2026-05-01T15:57:40.999Z</time></trkpt><trkpt lat="45.85774494626639" lon="11.930086620931982"><ele>190.0</ele><time>2026-05-01T15:57:41.999Z</time></trkpt><trkpt lat="45.85769341067006" lon="11.92987896812303"><ele>190.0</ele><time>2026-05-01T15:57:42.999Z</time></trkpt><trkpt lat="45.85763864452869" lon="11.929669200990526"><ele>190.0</ele><time>2026-05-01T15:57:43.999Z</time></trkpt><trkpt lat="45.857583819386775" lon="11.929441285307465"><ele>190.0</ele><time>2026-05-01T15:57:44.999Z</time></trkpt><trkpt lat="45.85752437259012" lon="11.929221359191402"><ele>191.0</ele><time>2026-05-01T15:57:45.999Z</time></trkpt><trkpt lat="45.85747733416101" lon="11.928996375075506"><ele>192.0</ele><time>2026-05-01T15:57:46.999Z</time></trkpt><trkpt lat="45.857428554574085" lon="11.928784160308052"><ele>193.0</ele><time>2026-05-01T15:57:47.999Z</time></trkpt><trkpt lat="45.85738368231124" lon="11.928572483141668"><ele>194.33333333333331</ele><time>2026-05-01T15:57:48.999Z</time></trkpt><trkpt lat="45.85733395936422" lon="11.928350364648347"><ele>195.66666666666669</ele><time>2026-05-01T15:57:49.999Z</time></trkpt><trkpt lat="45.857282350416284" lon="11.928133173307433"><ele>197.0</ele><time>2026-05-01T15:57:50.999Z</time></trkpt><trkpt lat="45.857226881823884" lon="11.927917264253617"><ele>197.0</ele><time>2026-05-01T15:57:51.999Z</time></trkpt><trkpt lat="45.85717434174979" lon="11.927696764919913"><ele>197.0</ele><time>2026-05-01T15:57:52.999Z</time></trkpt><trkpt lat="45.85712194808016" lon="11.927479399647448"><ele>197.0</ele><time>2026-05-01T15:57:53.999Z</time></trkpt><trkpt lat="45.85706590082424" lon="11.927261626254733"><ele>196.0</ele><time>2026-05-01T15:57:54.999Z</time></trkpt><trkpt lat="45.85701326954714" lon="11.92703771074009"><ele>195.0</ele><time>2026-05-01T15:57:55.999Z</time></trkpt><trkpt lat="45.85695044240567" lon="11.926814877055385"><ele>194.0</ele><time>2026-05-01T15:57:56.999Z</time></trkpt><trkpt lat="45.856888129206126" lon="11.926586564518269"><ele>193.66666666666669</ele><time>2026-05-01T15:57:57.999Z</time></trkpt><trkpt lat="45.856832586386076" lon="11.92636397892509"><ele>193.33333333333331</ele><time>2026-05-01T15:57:58.999Z</time></trkpt><trkpt lat="45.85677441482136" lon="11.926150150539188"><ele>193.0</ele><time>2026-05-01T15:57:59.999Z</time></trkpt><trkpt lat="45.856711275427585" lon="11.925948345705928"><ele>192.33333333333331</ele><time>2026-05-01T15:58:00.999Z</time></trkpt><trkpt lat="45.856654607762565" lon="11.92575146460557"><ele>191.66666666666666</ele><time>2026-05-01T15:58:01.999Z</time></trkpt><trkpt lat="45.856604251278526" lon="11.92554548594538"><ele>191.0</ele><time>2026-05-01T15:58:02.999Z</time></trkpt><trkpt lat="45.856550941915735" lon="11.925340798366442"><ele>191.0</ele><time>2026-05-01T15:58:03.999Z</time></trkpt><trkpt lat="45.8565025543466" lon="11.92513478852441"><ele>191.0</ele><time>2026-05-01T15:58:04.999Z</time></trkpt><trkpt lat="45.85645068244739" lon="11.924925679171032"><ele>191.0</ele><time>2026-05-01T15:58:05.999Z</time></trkpt><trkpt lat="45.85639788110269" lon="11.924717877946287"><ele>192.0</ele><time>2026-05-01T15:58:06.999Z</time></trkpt><trkpt lat="45.85633789205936" lon="11.924515260673731"><ele>193.0</ele><time>2026-05-01T15:58:07.999Z</time></trkpt><trkpt lat="45.85628103273887" lon="11.924310667879423"><ele>194.0</ele><time>2026-05-01T15:58:08.999Z</time></trkpt><trkpt lat="45.85622172727649" lon="11.924112655582979"><ele>195.0</ele><time>2026-05-01T15:58:09.999Z</time></trkpt><trkpt lat="45.85616545660356" lon="11.923923678944663"><ele>196.0</ele><time>2026-05-01T15:58:10.999Z</time></trkpt><trkpt lat="45.856117933388596" lon="11.92373792654189"><ele>197.0</ele><time>2026-05-01T15:58:11.999Z</time></trkpt><trkpt lat="45.85606383661922" lon="11.923542648457289"><ele>198.0</ele><time>2026-05-01T15:58:12.999Z</time></trkpt><trkpt lat="45.85600394181003" lon="11.923346400899739"><ele>196.33333333333331</ele><time>2026-05-01T15:58:13.999Z</time></trkpt><trkpt lat="45.85594809069374" lon="11.923145034262523"><ele>194.66666666666666</ele><time>2026-05-01T15:58:14.999Z</time></trkpt><trkpt lat="45.85589715389903" lon="11.922937772182324"><ele>193.0</ele><time>2026-05-01T15:58:15.999Z</time></trkpt><trkpt lat="45.85583334144355" lon="11.922723883069521"><ele>194.0</ele><time>2026-05-01T15:58:16.999Z</time></trkpt><trkpt lat="45.855773373964354" lon="11.922501520657374"><ele>195.0</ele><time>2026-05-01T15:58:17.999Z</time></trkpt><trkpt lat="45.855707321105896" lon="11.922274045922865"><ele>196.0</ele><time>2026-05-01T15:58:18.999Z</time></trkpt><trkpt lat="45.8556442736809" lon="11.922050648547984"><ele>196.0</ele><time>2026-05-01T15:58:19.999Z</time></trkpt><trkpt lat="45.85557393164064" lon="11.921836200874575"><ele>196.0</ele><time>2026-05-01T15:58:20.999Z</time></trkpt><trkpt lat="45.85551283032641" lon="11.921623313127595"><ele>196.0</ele><time>2026-05-01T15:58:21.999Z</time></trkpt><trkpt lat="45.85544817204236" lon="11.921403568446298"><ele>196.66666666666666</ele><time>2026-05-01T15:58:22.999Z</time></trkpt><trkpt lat="45.855382677009985" lon="11.921169875669012"><ele>197.33333333333331</ele><time>2026-05-01T15:58:23.999Z</time></trkpt><trkpt lat="45.855313886054134" lon="11.920931899519479"><ele>198.0</ele><time>2026-05-01T15:58:24.999Z</time></trkpt><trkpt lat="45.85524635812115" lon="11.920701394774008"><ele>197.66666666666669</ele><time>2026-05-01T15:58:25.999Z</time></trkpt><trkpt lat="45.85517325277259" lon="11.9204672588796"><ele>197.33333333333334</ele><time>2026-05-01T15:58:26.999Z</time></trkpt><trkpt lat="45.855112665399595" lon="11.920231690155614"><ele>197.0</ele><time>2026-05-01T15:58:27.999Z</time></trkpt><trkpt lat="45.85504057901252" lon="11.919978571325768"><ele>197.66666666666669</ele><time>2026-05-01T15:58:28.999Z</time></trkpt><trkpt lat="45.85497247993005" lon="11.919727304815513"><ele>198.33333333333331</ele><time>2026-05-01T15:58:29.999Z</time></trkpt><trkpt lat="45.85490269795074" lon="11.91947608975816"><ele>199.0</ele><time>2026-05-01T15:58:30.999Z</time></trkpt><trkpt lat="45.85482908304581" lon="11.919232954438902"><ele>199.33333333333331</ele><time>2026-05-01T15:58:31.999Z</time></trkpt><trkpt lat="45.85475793556971" lon="11.918991299031692"><ele>199.66666666666669</ele><time>2026-05-01T15:58:32.999Z</time></trkpt><trkpt lat="45.85469439305947" lon="11.918746934534067"><ele>200.0</ele><time>2026-05-01T15:58:33.999Z</time></trkpt><trkpt lat="45.854619404198374" lon="11.918495840665678"><ele>199.66666666666669</ele><time>2026-05-01T15:58:34.999Z</time></trkpt><trkpt lat="45.85455305488789" lon="11.918275594890687"><ele>199.33333333333331</ele><time>2026-05-01T15:58:35.999Z</time></trkpt><trkpt lat="45.854488151253335" lon="11.918046543373267"><ele>199.0</ele><time>2026-05-01T15:58:37Z</time></trkpt><trkpt lat="45.85441807224173" lon="11.917819861951463"><ele>199.0</ele><time>2026-05-01T15:58:38Z</time></trkpt><trkpt lat="45.85434346371489" lon="11.91758493694243"><ele>199.0</ele><time>2026-05-01T15:58:39Z</time></trkpt><trkpt lat="45.85427095270094" lon="11.917348810353516"><ele>199.0</ele><time>2026-05-01T15:58:40Z</time></trkpt><trkpt lat="45.85420515345595" lon="11.917101986113384"><ele>198.66666666666666</ele><time>2026-05-01T15:58:41Z</time></trkpt><trkpt lat="45.85413283228445" lon="11.916854408786437"><ele>198.33333333333331</ele><time>2026-05-01T15:58:42Z</time></trkpt><trkpt lat="45.85406050550993" lon="11.916610035615657"><ele>198.0</ele><time>2026-05-01T15:58:43Z</time></trkpt><trkpt lat="45.85398963847769" lon="11.916362377939238"><ele>198.66666666666669</ele><time>2026-05-01T15:58:44Z</time></trkpt><trkpt lat="45.85392229837804" lon="11.91610160455424"><ele>199.33333333333334</ele><time>2026-05-01T15:58:45Z</time></trkpt><trkpt lat="45.85385065881631" lon="11.91583853980379"><ele>200.0</ele><time>2026-05-01T15:58:46Z</time></trkpt><trkpt lat="45.853784130801714" lon="11.915583660535761"><ele>200.0</ele><time>2026-05-01T15:58:47Z</time></trkpt><trkpt lat="45.85371892460051" lon="11.91532482228926"><ele>200.0</ele><time>2026-05-01T15:58:48Z</time></trkpt><trkpt lat="45.853664416351" lon="11.91506465040897"><ele>200.0</ele><time>2026-05-01T15:58:49Z</time></trkpt><trkpt lat="45.85362760049854" lon="11.914800710569688"><ele>200.66666666666669</ele><time>2026-05-01T15:58:50Z</time></trkpt><trkpt lat="45.85358846758066" lon="11.914538317218378"><ele>201.33333333333331</ele><time>2026-05-01T15:58:51Z</time></trkpt><trkpt lat="45.85356301696737" lon="11.914249192559325"><ele>202.0</ele><time>2026-05-01T15:58:52Z</time></trkpt><trkpt lat="45.853547763432054" lon="11.913961559393716"><ele>202.0</ele><time>2026-05-01T15:58:53Z</time></trkpt><trkpt lat="45.85353873393335" lon="11.9136580875276"><ele>202.0</ele><time>2026-05-01T15:58:54Z</time></trkpt><trkpt lat="45.853555134044704" lon="11.913359779887134"><ele>202.0</ele><time>2026-05-01T15:58:55Z</time></trkpt><trkpt lat="45.8535772782029" lon="11.913070048960908"><ele>201.66666666666666</ele><time>2026-05-01T15:58:56Z</time></trkpt><trkpt lat="45.85359736890081" lon="11.91276894355976"><ele>201.33333333333331</ele><time>2026-05-01T15:58:57Z</time></trkpt><trkpt lat="45.85362848046015" lon="11.91247656813379"><ele>201.0</ele><time>2026-05-01T15:58:58Z</time></trkpt><trkpt lat="45.853660725447156" lon="11.912178932386686"><ele>201.66666666666669</ele><time>2026-05-01T15:58:59Z</time></trkpt><trkpt lat="45.85371098035385" lon="11.911877208695193"><ele>202.33333333333334</ele><time>2026-05-01T15:59:00Z</time></trkpt><trkpt lat="45.853746300759916" lon="11.911578922120398"><ele>203.0</ele><time>2026-05-01T15:59:01Z</time></trkpt><trkpt lat="45.85378149368053" lon="11.911281626121037"><ele>203.0</ele><time>2026-05-01T15:59:02Z</time></trkpt><trkpt lat="45.85381606818079" lon="11.910979172948652"><ele>203.0</ele><time>2026-05-01T15:59:03Z</time></trkpt><trkpt lat="45.853848182617575" lon="11.910688878666003"><ele>203.0</ele><time>2026-05-01T15:59:04Z</time></trkpt><trkpt lat="45.853881757351154" lon="11.910391772888781"><ele>203.33333333333334</ele><time>2026-05-01T15:59:05Z</time></trkpt><trkpt lat="45.853916709989164" lon="11.910087143410951"><ele>203.66666666666669</ele><time>2026-05-01T15:59:06Z</time></trkpt><trkpt lat="45.85395039945251" lon="11.909793523119362"><ele>204.0</ele><time>2026-05-01T15:59:07Z</time></trkpt><trkpt lat="45.85398349610111" lon="11.909495375080292"><ele>204.66666666666669</ele><time>2026-05-01T15:59:08Z</time></trkpt><trkpt lat="45.85401193739577" lon="11.909200963227343"><ele>205.33333333333334</ele><time>2026-05-01T15:59:09Z</time></trkpt><trkpt lat="45.85402684202581" lon="11.908910955296795"><ele>206.0</ele><time>2026-05-01T15:59:10Z</time></trkpt><trkpt lat="45.854039100413985" lon="11.908617134202897"><ele>206.33333333333334</ele><time>2026-05-01T15:59:11Z</time></trkpt><trkpt lat="45.85403915281528" lon="11.908324033594257"><ele>206.66666666666669</ele><time>2026-05-01T15:59:12Z</time></trkpt><trkpt lat="45.85402468153793" lon="11.908030684083595"><ele>207.0</ele><time>2026-05-01T15:59:13Z</time></trkpt><trkpt lat="45.85400161785725" lon="11.907736284392266"><ele>207.33333333333331</ele><time>2026-05-01T15:59:14Z</time></trkpt><trkpt lat="45.85396646218515" lon="11.90745678896256"><ele>207.66666666666666</ele><time>2026-05-01T15:59:15Z</time></trkpt><trkpt lat="45.853924575472924" lon="11.907173833458689"><ele>208.0</ele><time>2026-05-01T15:59:16Z</time></trkpt><trkpt lat="45.853888090364386" lon="11.906896759160322"><ele>208.0</ele><time>2026-05-01T15:59:17Z</time></trkpt><trkpt lat="45.85385767889853" lon="11.906620708633323"><ele>208.0</ele><time>2026-05-01T15:59:18Z</time></trkpt><trkpt lat="45.8538184010725" lon="11.906335313463437"><ele>208.0</ele><time>2026-05-01T15:59:19Z</time></trkpt><trkpt lat="45.853778731544566" lon="11.9060507518269"><ele>207.33333333333331</ele><time>2026-05-01T15:59:20Z</time></trkpt><trkpt lat="45.85374364302499" lon="11.905773017748121"><ele>206.66666666666669</ele><time>2026-05-01T15:59:21Z</time></trkpt><trkpt lat="45.853701149762614" lon="11.905487995285142"><ele>206.0</ele><time>2026-05-01T15:59:22Z</time></trkpt><trkpt lat="45.85365780844417" lon="11.905211518416321"><ele>207.0</ele><time>2026-05-01T15:59:23Z</time></trkpt><trkpt lat="45.85361431949624" lon="11.904937050630444"><ele>208.0</ele><time>2026-05-01T15:59:24Z</time></trkpt><trkpt lat="45.853576569608585" lon="11.904671135525962"><ele>209.0</ele><time>2026-05-01T15:59:25Z</time></trkpt><trkpt lat="45.85354739343613" lon="11.904401940058781"><ele>209.66666666666669</ele><time>2026-05-01T15:59:26Z</time></trkpt><trkpt lat="45.85352573584732" lon="11.904137538697105"><ele>210.33333333333331</ele><time>2026-05-01T15:59:27Z</time></trkpt><trkpt lat="45.85351728233844" lon="11.903866334004443"><ele>211.0</ele><time>2026-05-01T15:59:28Z</time></trkpt><trkpt lat="45.853510905930236" lon="11.903596077324524"><ele>211.66666666666666</ele><time>2026-05-01T15:59:28.999Z</time></trkpt><trkpt lat="45.853516498082215" lon="11.903315571576698"><ele>212.33333333333331</ele><time>2026-05-01T15:59:29.999Z</time></trkpt><trkpt lat="45.85352693347208" lon="11.903042175286355"><ele>213.0</ele><time>2026-05-01T15:59:30.999Z</time></trkpt><trkpt lat="45.853547108705456" lon="11.902767668699022"><ele>213.0</ele><time>2026-05-01T15:59:31.999Z</time></trkpt><trkpt lat="45.85357436402868" lon="11.902491658529993"><ele>213.0</ele><time>2026-05-01T15:59:32.999Z</time></trkpt><trkpt lat="45.85360403235232" lon="11.902225360855049"><ele>213.0</ele><time>2026-05-01T15:59:33.999Z</time></trkpt><trkpt lat="45.85363762967146" lon="11.901954588789835"><ele>213.33333333333331</ele><time>2026-05-01T15:59:34.999Z</time></trkpt><trkpt lat="45.85366611353937" lon="11.90168505738501"><ele>213.66666666666666</ele><time>2026-05-01T15:59:35.999Z</time></trkpt><trkpt lat="45.853696435364654" lon="11.901406182952607"><ele>214.0</ele><time>2026-05-01T15:59:36.999Z</time></trkpt><trkpt lat="45.85371577821557" lon="11.901134436905712"><ele>214.66666666666666</ele><time>2026-05-01T15:59:37.999Z</time></trkpt><trkpt lat="45.85371840721634" lon="11.900859583931602"><ele>215.33333333333331</ele><time>2026-05-01T15:59:38.999Z</time></trkpt><trkpt lat="45.85371191840404" lon="11.900600711784811"><ele>216.0</ele><time>2026-05-01T15:59:39.999Z</time></trkpt><trkpt lat="45.853699429432424" lon="11.900339624752288"><ele>216.0</ele><time>2026-05-01T15:59:40.999Z</time></trkpt><trkpt lat="45.85368741300349" lon="11.900108793971302"><ele>216.0</ele><time>2026-05-01T15:59:41.999Z</time></trkpt><trkpt lat="45.8536601753295" lon="11.899886075506412"><ele>216.0</ele><time>2026-05-01T15:59:42.999Z</time></trkpt><trkpt lat="45.853632930002654" lon="11.899663873122881"><ele>216.0</ele><time>2026-05-01T15:59:43.999Z</time></trkpt><trkpt lat="45.8535918834692" lon="11.899440159667973"><ele>216.0</ele><time>2026-05-01T15:59:44.999Z</time></trkpt><trkpt lat="45.853550452555616" lon="11.899207783401044"><ele>216.0</ele><time>2026-05-01T15:59:45.999Z</time></trkpt><trkpt lat="45.85349955727032" lon="11.898971029970946"><ele>215.66666666666669</ele><time>2026-05-01T15:59:46.999Z</time></trkpt><trkpt lat="45.85344089345935" lon="11.898717234056807"><ele>215.33333333333334</ele><time>2026-05-01T15:59:47.999Z</time></trkpt><trkpt lat="45.853385463316194" lon="11.898461342678166"><ele>215.0</ele><time>2026-05-01T15:59:48.999Z</time></trkpt><trkpt lat="45.85332565220734" lon="11.898214691263084"><ele>215.0</ele><time>2026-05-01T15:59:49.999Z</time></trkpt><trkpt lat="45.853272841411574" lon="11.89796959882474"><ele>215.0</ele><time>2026-05-01T15:59:50.999Z</time></trkpt><trkpt lat="45.85322209746425" lon="11.89773228151153"><ele>215.0</ele><time>2026-05-01T15:59:51.999Z</time></trkpt><trkpt lat="45.85316973429256" lon="11.89750472241554"><ele>216.0</ele><time>2026-05-01T15:59:52.999Z</time></trkpt><trkpt lat="45.85311294241254" lon="11.89727833110604"><ele>217.0</ele><time>2026-05-01T15:59:53.999Z</time></trkpt><trkpt lat="45.85306441744949" lon="11.897053542246534"><ele>218.0</ele><time>2026-05-01T15:59:54.999Z</time></trkpt><trkpt lat="45.85301424858335" lon="11.896819616202764"><ele>218.0</ele><time>2026-05-01T15:59:55.999Z</time></trkpt><trkpt lat="45.85295990212182" lon="11.89659038851709"><ele>218.0</ele><time>2026-05-01T15:59:56.999Z</time></trkpt><trkpt lat="45.85291043979026" lon="11.896347803952382"><ele>218.0</ele><time>2026-05-01T15:59:57.999Z</time></trkpt><trkpt lat="45.852856038975446" lon="11.896101588232018"><ele>218.0</ele><time>2026-05-01T15:59:58.999Z</time></trkpt><trkpt lat="45.85278983087979" lon="11.895842881271081"><ele>218.0</ele><time>2026-05-01T15:59:59.999Z</time></trkpt><trkpt lat="45.85273461204044" lon="11.89558682127547"><ele>218.0</ele><time>2026-05-01T16:00:00.999Z</time></trkpt><trkpt lat="45.852678277305564" lon="11.895338372437399"><ele>218.33333333333334</ele><time>2026-05-01T16:00:01.999Z</time></trkpt><trkpt lat="45.85261901820665" lon="11.895077228261002"><ele>218.66666666666669</ele><time>2026-05-01T16:00:02.999Z</time></trkpt><trkpt lat="45.85256078031338" lon="11.894812960206705"><ele>219.0</ele><time>2026-05-01T16:00:03.999Z</time></trkpt><trkpt lat="45.85250044414029" lon="11.894523518303295"><ele>219.0</ele><time>2026-05-01T16:00:04.999Z</time></trkpt><trkpt lat="45.852428823218695" lon="11.894198214109325"><ele>219.0</ele><time>2026-05-01T16:00:05.999Z</time></trkpt><trkpt lat="45.852361241152096" lon="11.893886842624411"><ele>219.0</ele><time>2026-05-01T16:00:06.999Z</time></trkpt><trkpt lat="45.85228847812261" lon="11.893602566191488"><ele>219.0</ele><time>2026-05-01T16:00:07.999Z</time></trkpt><trkpt lat="45.8522289511499" lon="11.893300875800824"><ele>219.0</ele><time>2026-05-01T16:00:08.999Z</time></trkpt><trkpt lat="45.852164859525246" lon="11.893000064453283"><ele>218.66666666666669</ele><time>2026-05-01T16:00:09.999Z</time></trkpt><trkpt lat="45.852087905996605" lon="11.892708853000054"><ele>218.33333333333334</ele><time>2026-05-01T16:00:10.999Z</time></trkpt><trkpt lat="45.851996584383635" lon="11.892421736269581"><ele>218.0</ele><time>2026-05-01T16:00:11.999Z</time></trkpt><trkpt lat="45.85188506348788" lon="11.892144122834086"><ele>218.66666666666669</ele><time>2026-05-01T16:00:12.999Z</time></trkpt><trkpt lat="45.851760525761044" lon="11.891877271809522"><ele>219.33333333333331</ele><time>2026-05-01T16:00:13.999Z</time></trkpt><trkpt lat="45.85162944908656" lon="11.89163801016922"><ele>220.0</ele><time>2026-05-01T16:00:14.999Z</time></trkpt><trkpt lat="45.85149357816054" lon="11.891391082235963"><ele>220.0</ele><time>2026-05-01T16:00:15.999Z</time></trkpt><trkpt lat="45.851355834441634" lon="11.891142417196066"><ele>220.0</ele><time>2026-05-01T16:00:16.999Z</time></trkpt><trkpt lat="45.851224134150485" lon="11.890891870146245"><ele>220.0</ele><time>2026-05-01T16:00:17.999Z</time></trkpt><trkpt lat="45.851088930059866" lon="11.890635114027411"><ele>221.33333333333331</ele><time>2026-05-01T16:00:18.999Z</time></trkpt><trkpt lat="45.850955181667054" lon="11.89038327907863"><ele>222.66666666666669</ele><time>2026-05-01T16:00:19.999Z</time></trkpt><trkpt lat="45.85082827980143" lon="11.890139260806656"><ele>224.0</ele><time>2026-05-01T16:00:20.999Z</time></trkpt><trkpt lat="45.850705529020715" lon="11.88991142398327"><ele>224.33333333333334</ele><time>2026-05-01T16:00:21.999Z</time></trkpt><trkpt lat="45.85058880435231" lon="11.889681224543631"><ele>224.66666666666669</ele><time>2026-05-01T16:00:22.999Z</time></trkpt><trkpt lat="45.85047796498792" lon="11.889457321401675"><ele>225.0</ele><time>2026-05-01T16:00:23.999Z</time></trkpt><trkpt lat="45.850363832184016" lon="11.88924108314215"><ele>225.66666666666669</ele><time>2026-05-01T16:00:24.999Z</time></trkpt><trkpt lat="45.85026027701146" lon="11.889030975695617"><ele>226.33333333333334</ele><time>2026-05-01T16:00:25.999Z</time></trkpt><trkpt lat="45.850152152863984" lon="11.888819142329742"><ele>227.0</ele><time>2026-05-01T16:00:26.999Z</time></trkpt><trkpt lat="45.850053568347164" lon="11.888650637174043"><ele>227.0</ele><time>2026-05-01T16:00:27.999Z</time></trkpt><trkpt lat="45.84997031486198" lon="11.88849857189672"><ele>227.0</ele><time>2026-05-01T16:00:28.999Z</time></trkpt><trkpt lat="45.84992509295549" lon="11.888357780962691"><ele>227.0</ele><time>2026-05-01T16:00:29.999Z</time></trkpt><trkpt lat="45.84987676586657" lon="11.888234158674472"><ele>227.0</ele><time>2026-05-01T16:00:30.999Z</time></trkpt><trkpt lat="45.849847212248676" lon="11.888098885108308"><ele>227.0</ele><time>2026-05-01T16:00:31.999Z</time></trkpt><trkpt lat="45.84981103835243" lon="11.887974573988837"><ele>227.25</ele><time>2026-05-01T16:00:32.999Z</time></trkpt><trkpt lat="45.84976014461708" lon="11.887835043968973"><ele>227.5</ele><time>2026-05-01T16:00:33.999Z</time></trkpt><trkpt lat="45.84968389322801" lon="11.887675187974663"><ele>227.75</ele><time>2026-05-01T16:00:34.999Z</time></trkpt><trkpt lat="45.84963219570454" lon="11.887495944121442"><ele>228.0</ele><time>2026-05-01T16:00:35.999Z</time></trkpt><trkpt lat="45.84956989357387" lon="11.8872953865706"><ele>228.66666666666669</ele><time>2026-05-01T16:00:36.999Z</time></trkpt><trkpt lat="45.84951779883464" lon="11.88708238777171"><ele>229.33333333333334</ele><time>2026-05-01T16:00:37.999Z</time></trkpt><trkpt lat="45.84947442135354" lon="11.886861219762329"><ele>230.0</ele><time>2026-05-01T16:00:38.999Z</time></trkpt><trkpt lat="45.849410460234644" lon="11.886630490814781"><ele>231.0</ele><time>2026-05-01T16:00:39.999Z</time></trkpt><trkpt lat="45.84935197970596" lon="11.886388321206722"><ele>232.0</ele><time>2026-05-01T16:00:40.999Z</time></trkpt><trkpt lat="45.84929677410677" lon="11.886123662959886"><ele>233.0</ele><time>2026-05-01T16:00:41.998Z</time></trkpt><trkpt lat="45.84923112904008" lon="11.885834850598245"><ele>233.5</ele><time>2026-05-01T16:00:43Z</time></trkpt><trkpt lat="45.84915681068338" lon="11.88552403839484"><ele>234.0</ele><time>2026-05-01T16:00:44Z</time></trkpt><trkpt lat="45.84908119413354" lon="11.885196067747021"><ele>234.0</ele><time>2026-05-01T16:00:45Z</time></trkpt><trkpt lat="45.84901512607914" lon="11.884902767629193"><ele>234.0</ele><time>2026-05-01T16:00:46Z</time></trkpt><trkpt lat="45.848949974480185" lon="11.884608732183004"><ele>234.0</ele><time>2026-05-01T16:00:47Z</time></trkpt><trkpt lat="45.848883256776205" lon="11.884317471357956"><ele>234.33333333333331</ele><time>2026-05-01T16:00:48Z</time></trkpt><trkpt lat="45.84882860276346" lon="11.884019448742679"><ele>234.66666666666666</ele><time>2026-05-01T16:00:49Z</time></trkpt><trkpt lat="45.848785698449994" lon="11.883719816213189"><ele>235.0</ele><time>2026-05-01T16:00:50Z</time></trkpt><trkpt lat="45.848755593837225" lon="11.88341407577746"><ele>236.0</ele><time>2026-05-01T16:00:51Z</time></trkpt><trkpt lat="45.84872448054474" lon="11.883110820399274"><ele>237.0</ele><time>2026-05-01T16:00:52Z</time></trkpt><trkpt lat="45.848693122663754" lon="11.882811694275071"><ele>238.0</ele><time>2026-05-01T16:00:53Z</time></trkpt><trkpt lat="45.84866352398003" lon="11.882540069043396"><ele>238.0</ele><time>2026-05-01T16:00:54Z</time></trkpt><trkpt lat="45.84863633393089" lon="11.882294465635583"><ele>238.0</ele><time>2026-05-01T16:00:55Z</time></trkpt><trkpt lat="45.84861184896297" lon="11.882038255409348"><ele>238.0</ele><time>2026-05-01T16:00:56Z</time></trkpt><trkpt lat="45.848588211715885" lon="11.881779676951405"><ele>238.66666666666666</ele><time>2026-05-01T16:00:57Z</time></trkpt><trkpt lat="45.848557620729025" lon="11.881512983725395"><ele>239.33333333333331</ele><time>2026-05-01T16:00:58Z</time></trkpt><trkpt lat="45.8485317101298" lon="11.881256293702567"><ele>240.0</ele><time>2026-05-01T16:00:59Z</time></trkpt><trkpt lat="45.848501629196264" lon="11.88099375720596"><ele>240.33333333333331</ele><time>2026-05-01T16:01:00Z</time></trkpt><trkpt lat="45.84847838129649" lon="11.880723536203709"><ele>240.66666666666666</ele><time>2026-05-01T16:01:01Z</time></trkpt><trkpt lat="45.84845211309975" lon="11.880465706178036"><ele>241.0</ele><time>2026-05-01T16:01:02Z</time></trkpt><trkpt lat="45.84842453382643" lon="11.880202735567613"><ele>242.0</ele><time>2026-05-01T16:01:03Z</time></trkpt><trkpt lat="45.84839742407559" lon="11.879934192638055"><ele>243.0</ele><time>2026-05-01T16:01:04Z</time></trkpt><trkpt lat="45.84836980297889" lon="11.879670466102342"><ele>244.0</ele><time>2026-05-01T16:01:05Z</time></trkpt><trkpt lat="45.848346431174754" lon="11.879424083373175"><ele>244.66666666666666</ele><time>2026-05-01T16:01:06Z</time></trkpt><trkpt lat="45.84831903173348" lon="11.879162450188712"><ele>245.33333333333331</ele><time>2026-05-01T16:01:07Z</time></trkpt><trkpt lat="45.84829280715948" lon="11.878887697098206"><ele>246.0</ele><time>2026-05-01T16:01:08Z</time></trkpt><trkpt lat="45.8482646389115" lon="11.878623553662148"><ele>247.0</ele><time>2026-05-01T16:01:09Z</time></trkpt><trkpt lat="45.84823861127184" lon="11.878364241557078"><ele>248.0</ele><time>2026-05-01T16:01:10Z</time></trkpt><trkpt lat="45.84821389449281" lon="11.878138094976714"><ele>249.0</ele><time>2026-05-01T16:01:11Z</time></trkpt><trkpt lat="45.84819488931236" lon="11.877930862946833"><ele>249.0</ele><time>2026-05-01T16:01:12Z</time></trkpt><trkpt lat="45.84817764095272" lon="11.877753869363989"><ele>248.99999999999997</ele><time>2026-05-01T16:01:13Z</time></trkpt><trkpt lat="45.84818011485865" lon="11.877597770105707"><ele>248.99999999999997</ele><time>2026-05-01T16:01:14Z</time></trkpt><trkpt lat="45.84820292305816" lon="11.877464640785593"><ele>249.0</ele><time>2026-05-01T16:01:15Z</time></trkpt><trkpt lat="45.84824655968814" lon="11.877340359687885"><ele>249.0</ele><time>2026-05-01T16:01:16Z</time></trkpt><trkpt lat="45.84831636278885" lon="11.877200405154918"><ele>249.25</ele><time>2026-05-01T16:01:17Z</time></trkpt><trkpt lat="45.848393501996306" lon="11.877061355120892"><ele>249.5</ele><time>2026-05-01T16:01:18Z</time></trkpt><trkpt lat="45.84850130404566" lon="11.876934178589648"><ele>249.75</ele><time>2026-05-01T16:01:19Z</time></trkpt><trkpt lat="45.84862269342315" lon="11.876818405216339"><ele>250.0</ele><time>2026-05-01T16:01:20Z</time></trkpt><trkpt lat="45.84875943356239" lon="11.876709140227527"><ele>250.33333333333331</ele><time>2026-05-01T16:01:21Z</time></trkpt><trkpt lat="45.84889735181952" lon="11.876599587959616"><ele>250.66666666666669</ele><time>2026-05-01T16:01:22Z</time></trkpt><trkpt lat="45.84903406758736" lon="11.876481046950573"><ele>251.0</ele><time>2026-05-01T16:01:23Z</time></trkpt><trkpt lat="45.8491889273709" lon="11.876351269289323"><ele>252.66666666666669</ele><time>2026-05-01T16:01:24Z</time></trkpt><trkpt lat="45.84934859350193" lon="11.876222406782103"><ele>254.33333333333331</ele><time>2026-05-01T16:01:25Z</time></trkpt><trkpt lat="45.84951096158451" lon="11.876087416728197"><ele>256.0</ele><time>2026-05-01T16:01:26Z</time></trkpt><trkpt lat="45.84968486329272" lon="11.875946899350678"><ele>256.66666666666663</ele><time>2026-05-01T16:01:27Z</time></trkpt><trkpt lat="45.849851390249135" lon="11.875812702014176"><ele>257.3333333333333</ele><time>2026-05-01T16:01:28Z</time></trkpt><trkpt lat="45.850016137913805" lon="11.875676322608932"><ele>258.0</ele><time>2026-05-01T16:01:29Z</time></trkpt><trkpt lat="45.85017588897145" lon="11.875533257353364"><ele>259.0</ele><time>2026-05-01T16:01:30Z</time></trkpt><trkpt lat="45.85032901954313" lon="11.875388331058286"><ele>260.0</ele><time>2026-05-01T16:01:31Z</time></trkpt><trkpt lat="45.8504760029857" lon="11.87524617362126"><ele>261.0</ele><time>2026-05-01T16:01:32Z</time></trkpt><trkpt lat="45.85060805856183" lon="11.87510527084386"><ele>261.5</ele><time>2026-05-01T16:01:33Z</time></trkpt><trkpt lat="45.85071890838055" lon="11.87495897989174"><ele>262.0</ele><time>2026-05-01T16:01:33.999Z</time></trkpt><trkpt lat="45.85081489962993" lon="11.87479946010781"><ele>262.5</ele><time>2026-05-01T16:01:34.999Z</time></trkpt><trkpt lat="45.85090118559691" lon="11.87464747114058"><ele>263.0</ele><time>2026-05-01T16:01:35.999Z</time></trkpt><trkpt lat="45.850982988066825" lon="11.87450089717641"><ele>264.75</ele><time>2026-05-01T16:01:36.999Z</time></trkpt><trkpt lat="45.851065237002246" lon="11.874361037795333"><ele>266.5</ele><time>2026-05-01T16:01:37.999Z</time></trkpt><trkpt lat="45.85114027379988" lon="11.874226269129132"><ele>268.25</ele><time>2026-05-01T16:01:38.999Z</time></trkpt><trkpt lat="45.85120950776739" lon="11.874099674934783"><ele>270.0</ele><time>2026-05-01T16:01:39.999Z</time></trkpt><trkpt lat="45.851262318607745" lon="11.873977035210075"><ele>270.0</ele><time>2026-05-01T16:01:40.999Z</time></trkpt><trkpt lat="45.85129194534063" lon="11.873828716582377"><ele>270.0</ele><time>2026-05-01T16:01:41.999Z</time></trkpt><trkpt lat="45.85130292659731" lon="11.873685094270051"><ele>270.0</ele><time>2026-05-01T16:01:42.999Z</time></trkpt><trkpt lat="45.8512848301653" lon="11.873538766870364"><ele>270.0</ele><time>2026-05-01T16:01:43.999Z</time></trkpt><trkpt lat="45.851243927819226" lon="11.873390030274203"><ele>270.0</ele><time>2026-05-01T16:01:44.999Z</time></trkpt><trkpt lat="45.8511825170822" lon="11.873254076001736"><ele>270.0</ele><time>2026-05-01T16:01:45.999Z</time></trkpt><trkpt lat="45.85112068774313" lon="11.87311397953697"><ele>270.0</ele><time>2026-05-01T16:01:46.999Z</time></trkpt><trkpt lat="45.851054705533414" lon="11.872969188139374"><ele>270.0</ele><time>2026-05-01T16:01:47.999Z</time></trkpt><trkpt lat="45.85098692345504" lon="11.872807716103658"><ele>270.0</ele><time>2026-05-01T16:01:48.999Z</time></trkpt><trkpt lat="45.85091732324275" lon="11.872641007958586"><ele>269.0</ele><time>2026-05-01T16:01:49.999Z</time></trkpt><trkpt lat="45.85084387844419" lon="11.872466227923038"><ele>268.0</ele><time>2026-05-01T16:01:50.999Z</time></trkpt><trkpt lat="45.850758838843674" lon="11.872292431353161"><ele>267.0</ele><time>2026-05-01T16:01:51.999Z</time></trkpt><trkpt lat="45.850666644445354" lon="11.87213439879613"><ele>266.0</ele><time>2026-05-01T16:01:52.999Z</time></trkpt><trkpt lat="45.85057048921433" lon="11.871993725145181"><ele>266.0</ele><time>2026-05-01T16:01:53.999Z</time></trkpt><trkpt lat="45.85046017508379" lon="11.871873280256734"><ele>266.0</ele><time>2026-05-01T16:01:54.999Z</time></trkpt><trkpt lat="45.850346537925084" lon="11.87175495133521"><ele>266.0</ele><time>2026-05-01T16:01:55.999Z</time></trkpt><trkpt lat="45.85023068433604" lon="11.871646794821702"><ele>266.0</ele><time>2026-05-01T16:01:56.999Z</time></trkpt><trkpt lat="45.85011567088148" lon="11.871536697787402"><ele>266.0</ele><time>2026-05-01T16:01:57.999Z</time></trkpt><trkpt lat="45.85000298970256" lon="11.871438072630369"><ele>266.0</ele><time>2026-05-01T16:01:58.999Z</time></trkpt><trkpt lat="45.8498877263023" lon="11.871334525366226"><ele>266.0</ele><time>2026-05-01T16:01:59.999Z</time></trkpt><trkpt lat="45.84977994624948" lon="11.87123674349654"><ele>266.0</ele><time>2026-05-01T16:02:00.999Z</time></trkpt><trkpt lat="45.84967810962847" lon="11.871141535919424"><ele>266.0</ele><time>2026-05-01T16:02:01.999Z</time></trkpt><trkpt lat="45.84956957336817" lon="11.871045303707472"><ele>266.0</ele><time>2026-05-01T16:02:02.999Z</time></trkpt><trkpt lat="45.84944613722947" lon="11.870940032822924"><ele>266.0</ele><time>2026-05-01T16:02:03.999Z</time></trkpt><trkpt lat="45.84932363834621" lon="11.870823977194165"><ele>266.0</ele><time>2026-05-01T16:02:04.999Z</time></trkpt><trkpt lat="45.84920194754402" lon="11.87070948668375"><ele>265.0</ele><time>2026-05-01T16:02:05.999Z</time></trkpt><trkpt lat="45.84906965900696" lon="11.870590394540471"><ele>264.0</ele><time>2026-05-01T16:02:06.999Z</time></trkpt><trkpt lat="45.84894388933734" lon="11.87047536838607"><ele>263.0</ele><time>2026-05-01T16:02:07.999Z</time></trkpt><trkpt lat="45.84882017231984" lon="11.87035632757576"><ele>263.0</ele><time>2026-05-01T16:02:08.999Z</time></trkpt><trkpt lat="45.848696841570984" lon="11.870246791631484"><ele>263.0</ele><time>2026-05-01T16:02:09.999Z</time></trkpt><trkpt lat="45.84856946586212" lon="11.870136934356555"><ele>263.0</ele><time>2026-05-01T16:02:10.999Z</time></trkpt><trkpt lat="45.8484420387272" lon="11.8700244229873"><ele>263.0</ele><time>2026-05-01T16:02:11.999Z</time></trkpt><trkpt lat="45.848310283598806" lon="11.869909332929478"><ele>261.33333333333337</ele><time>2026-05-01T16:02:12.999Z</time></trkpt><trkpt lat="45.84817675260292" lon="11.869790024292788"><ele>259.6666666666667</ele><time>2026-05-01T16:02:13.999Z</time></trkpt><trkpt lat="45.84804402690416" lon="11.869672640838374"><ele>258.0</ele><time>2026-05-01T16:02:14.999Z</time></trkpt><trkpt lat="45.847915450811065" lon="11.869559996742339"><ele>258.0</ele><time>2026-05-01T16:02:15.999Z</time></trkpt><trkpt lat="45.84779407871732" lon="11.869450497979225"><ele>258.0</ele><time>2026-05-01T16:02:16.999Z</time></trkpt><trkpt lat="45.847669243635536" lon="11.869344863787427"><ele>258.0</ele><time>2026-05-01T16:02:17.999Z</time></trkpt><trkpt lat="45.847547716442044" lon="11.869237699948703"><ele>258.0</ele><time>2026-05-01T16:02:18.999Z</time></trkpt><trkpt lat="45.84742688806211" lon="11.869124245683782"><ele>259.6666666666667</ele><time>2026-05-01T16:02:19.999Z</time></trkpt><trkpt lat="45.84730184847242" lon="11.869020017037787"><ele>261.33333333333337</ele><time>2026-05-01T16:02:20.999Z</time></trkpt><trkpt lat="45.84717103337792" lon="11.868906517784348"><ele>263.0</ele><time>2026-05-01T16:02:21.999Z</time></trkpt><trkpt lat="45.8470345576255" lon="11.868783741084593"><ele>263.0</ele><time>2026-05-01T16:02:22.999Z</time></trkpt><trkpt lat="45.84690795259827" lon="11.868668014322434"><ele>263.0</ele><time>2026-05-01T16:02:23.999Z</time></trkpt><trkpt lat="45.84678078238116" lon="11.868558012021644"><ele>263.0</ele><time>2026-05-01T16:02:24.999Z</time></trkpt><trkpt lat="45.84665220866232" lon="11.868453431551583"><ele>263.0</ele><time>2026-05-01T16:02:25.999Z</time></trkpt><trkpt lat="45.84653179404814" lon="11.868344885867144"><ele>263.5</ele><time>2026-05-01T16:02:26.999Z</time></trkpt><trkpt lat="45.84641428371891" lon="11.868244405215966"><ele>264.0</ele><time>2026-05-01T16:02:27.999Z</time></trkpt><trkpt lat="45.84628900073006" lon="11.868139634846575"><ele>264.5</ele><time>2026-05-01T16:02:28.999Z</time></trkpt><trkpt lat="45.846160743556524" lon="11.868030079558595"><ele>265.0</ele><time>2026-05-01T16:02:29.999Z</time></trkpt><trkpt lat="45.84603797609547" lon="11.867913732131402"><ele>265.0</ele><time>2026-05-01T16:02:30.999Z</time></trkpt><trkpt lat="45.84591680789949" lon="11.867784475137858"><ele>265.0</ele><time>2026-05-01T16:02:31.999Z</time></trkpt><trkpt lat="45.845801905700334" lon="11.867633820353737"><ele>265.0</ele><time>2026-05-01T16:02:32.999Z</time></trkpt><trkpt lat="45.84569810166317" lon="11.867470243939747"><ele>265.25</ele><time>2026-05-01T16:02:33.999Z</time></trkpt><trkpt lat="45.845614430732844" lon="11.867302783726695"><ele>265.5</ele><time>2026-05-01T16:02:34.999Z</time></trkpt><trkpt lat="45.845545194365776" lon="11.867132570329707"><ele>265.75</ele><time>2026-05-01T16:02:35.999Z</time></trkpt><trkpt lat="45.84548383079099" lon="11.866945047840083"><ele>266.0</ele><time>2026-05-01T16:02:36.999Z</time></trkpt><trkpt lat="45.84542624897157" lon="11.866755403426174"><ele>266.75</ele><time>2026-05-01T16:02:37.999Z</time></trkpt><trkpt lat="45.84537822542642" lon="11.866550629003154"><ele>267.5</ele><time>2026-05-01T16:02:38.999Z</time></trkpt><trkpt lat="45.84534515729411" lon="11.866345384931318"><ele>268.25</ele><time>2026-05-01T16:02:39.999Z</time></trkpt><trkpt lat="45.84532293528085" lon="11.866131554898859"><ele>269.0</ele><time>2026-05-01T16:02:40.999Z</time></trkpt><trkpt lat="45.84530040460894" lon="11.865929251428513"><ele>269.0</ele><time>2026-05-01T16:02:41.999Z</time></trkpt><trkpt lat="45.84528113509347" lon="11.865721591715765"><ele>269.0</ele><time>2026-05-01T16:02:42.999Z</time></trkpt><trkpt lat="45.84526267679269" lon="11.865520250724888"><ele>269.0</ele><time>2026-05-01T16:02:43.999Z</time></trkpt><trkpt lat="45.84524236727461" lon="11.86530596461138"><ele>269.0</ele><time>2026-05-01T16:02:44.999Z</time></trkpt><trkpt lat="45.84521695760923" lon="11.865102117407359"><ele>269.5</ele><time>2026-05-01T16:02:45.999Z</time></trkpt><trkpt lat="45.845197000231465" lon="11.864906539663918"><ele>270.0</ele><time>2026-05-01T16:02:46.998Z</time></trkpt><trkpt lat="45.84518209832605" lon="11.864727154116578"><ele>270.5</ele><time>2026-05-01T16:02:47.998Z</time></trkpt><trkpt lat="45.84517250410516" lon="11.864560032907566"><ele>271.0</ele><time>2026-05-01T16:02:49Z</time></trkpt><trkpt lat="45.84516100810216" lon="11.864389504610013"><ele>272.8</ele><time>2026-05-01T16:02:50Z</time></trkpt><trkpt lat="45.84514056944544" lon="11.864226281813277"><ele>274.6</ele><time>2026-05-01T16:02:51Z</time></trkpt><trkpt lat="45.84512232391622" lon="11.864074523731771"><ele>276.4</ele><time>2026-05-01T16:02:52Z</time></trkpt><trkpt lat="45.84510765060416" lon="11.86392579758423"><ele>278.2</ele><time>2026-05-01T16:02:53Z</time></trkpt><trkpt lat="45.84509484718024" lon="11.863775090379907"><ele>280.0</ele><time>2026-05-01T16:02:54Z</time></trkpt><trkpt lat="45.84507161923225" lon="11.863592694776235"><ele>283.25</ele><time>2026-05-01T16:02:55Z</time></trkpt><trkpt lat="45.845057525378174" lon="11.863428952429729"><ele>286.5</ele><time>2026-05-01T16:02:56Z</time></trkpt><trkpt lat="45.845034351341546" lon="11.863266403802658"><ele>289.75</ele><time>2026-05-01T16:02:57Z</time></trkpt><trkpt lat="45.84501772225589" lon="11.86309713770595"><ele>293.0</ele><time>2026-05-01T16:02:58Z</time></trkpt><trkpt lat="45.84499981715658" lon="11.862925320264825"><ele>293.0</ele><time>2026-05-01T16:02:59Z</time></trkpt><trkpt lat="45.844992380122775" lon="11.862776218780711"><ele>293.0</ele><time>2026-05-01T16:03:00Z</time></trkpt><trkpt lat="45.84496814194068" lon="11.862642635518888"><ele>293.0</ele><time>2026-05-01T16:03:01Z</time></trkpt><trkpt lat="45.84497101310438" lon="11.86250187701802"><ele>293.0</ele><time>2026-05-01T16:03:02Z</time></trkpt><trkpt lat="45.84497365954215" lon="11.862358027251465"><ele>293.0</ele><time>2026-05-01T16:03:03Z</time></trkpt><trkpt lat="45.84497564684296" lon="11.862233976553469"><ele>295.2</ele><time>2026-05-01T16:03:04Z</time></trkpt><trkpt lat="45.84495013227118" lon="11.86209182954479"><ele>297.4</ele><time>2026-05-01T16:03:05Z</time></trkpt><trkpt lat="45.844964850279" lon="11.861954255302777"><ele>299.59999999999997</ele><time>2026-05-01T16:03:06Z</time></trkpt><trkpt lat="45.844965241616755" lon="11.86180893989611"><ele>301.8</ele><time>2026-05-01T16:03:07Z</time></trkpt><trkpt lat="45.844975969838906" lon="11.861672846693581"><ele>304.0</ele><time>2026-05-01T16:03:08Z</time></trkpt><trkpt lat="45.84498767772246" lon="11.861550591440496"><ele>304.3333333333333</ele><time>2026-05-01T16:03:09Z</time></trkpt><trkpt lat="45.844982182567065" lon="11.861454030299234"><ele>304.66666666666663</ele><time>2026-05-01T16:03:10Z</time></trkpt><trkpt lat="45.845001281096685" lon="11.86132095193003"><ele>305.0</ele><time>2026-05-01T16:03:11Z</time></trkpt><trkpt lat="45.845044797911704" lon="11.861191382845972"><ele>305.3333333333333</ele><time>2026-05-01T16:03:12Z</time></trkpt><trkpt lat="45.8450727337415" lon="11.861064246340208"><ele>305.6666666666667</ele><time>2026-05-01T16:03:13Z</time></trkpt><trkpt lat="45.845124381906444" lon="11.86096791933981"><ele>306.0</ele><time>2026-05-01T16:03:14Z</time></trkpt><trkpt lat="45.845170727840085" lon="11.86086171309895"><ele>310.8</ele><time>2026-05-01T16:03:15Z</time></trkpt><trkpt lat="45.845228032485146" lon="11.860762397111591"><ele>315.6</ele><time>2026-05-01T16:03:16Z</time></trkpt><trkpt lat="45.8452896168648" lon="11.860654482354143"><ele>320.4</ele><time>2026-05-01T16:03:17Z</time></trkpt><trkpt lat="45.845350913457125" lon="11.860546642889284"><ele>325.2</ele><time>2026-05-01T16:03:18Z</time></trkpt><trkpt lat="45.845413927018846" lon="11.860441711132193"><ele>330.0</ele><time>2026-05-01T16:03:19Z</time></trkpt><trkpt lat="45.84546253794187" lon="11.860337455498167"><ele>330.0</ele><time>2026-05-01T16:03:20Z</time></trkpt><trkpt lat="45.84548302058064" lon="11.860200289427977"><ele>330.0</ele><time>2026-05-01T16:03:21Z</time></trkpt><trkpt lat="45.845483246633805" lon="11.86007033918265"><ele>330.0</ele><time>2026-05-01T16:03:22Z</time></trkpt><trkpt lat="45.845454286375805" lon="11.859939018338366"><ele>330.0</ele><time>2026-05-01T16:03:23Z</time></trkpt><trkpt lat="45.84540462495975" lon="11.859822579488455"><ele>330.0</ele><time>2026-05-01T16:03:24Z</time></trkpt><trkpt lat="45.84532317008279" lon="11.859743211332312"><ele>330.2</ele><time>2026-05-01T16:03:25Z</time></trkpt><trkpt lat="45.845244907817005" lon="11.859686617201717"><ele>330.4</ele><time>2026-05-01T16:03:26Z</time></trkpt><trkpt lat="45.845164365399754" lon="11.85962796009794"><ele>330.6</ele><time>2026-05-01T16:03:27Z</time></trkpt><trkpt lat="45.84507435438568" lon="11.859557156777223"><ele>330.8</ele><time>2026-05-01T16:03:28Z</time></trkpt><trkpt lat="45.84499301924611" lon="11.859490442646592"><ele>331.0</ele><time>2026-05-01T16:03:29Z</time></trkpt><trkpt lat="45.84490126145679" lon="11.859407567570264"><ele>330.6</ele><time>2026-05-01T16:03:30Z</time></trkpt><trkpt lat="45.8448017898414" lon="11.85933320676519"><ele>330.20000000000005</ele><time>2026-05-01T16:03:31Z</time></trkpt><trkpt lat="45.84471099030897" lon="11.859250192931169"><ele>329.79999999999995</ele><time>2026-05-01T16:03:32Z</time></trkpt><trkpt lat="45.84462238856208" lon="11.859183040013475"><ele>329.4</ele><time>2026-05-01T16:03:33Z</time></trkpt><trkpt lat="45.84453304984989" lon="11.859121027960972"><ele>329.0</ele><time>2026-05-01T16:03:34Z</time></trkpt><trkpt lat="45.84442992365576" lon="11.859120529479714"><ele>329.0</ele><time>2026-05-01T16:03:35Z</time></trkpt><trkpt lat="45.84435003109652" lon="11.859152642243956"><ele>329.0</ele><time>2026-05-01T16:03:36Z</time></trkpt><trkpt lat="45.84427483864989" lon="11.859207974064198"><ele>329.0</ele><time>2026-05-01T16:03:37Z</time></trkpt><trkpt lat="45.844205187016996" lon="11.859286394840298"><ele>329.0</ele><time>2026-05-01T16:03:38Z</time></trkpt><trkpt lat="45.84414872630156" lon="11.859405384443937"><ele>329.0</ele><time>2026-05-01T16:03:39Z</time></trkpt><trkpt lat="45.8441008062772" lon="11.859534280285642"><ele>327.79999999999995</ele><time>2026-05-01T16:03:40Z</time></trkpt><trkpt lat="45.8440606974124" lon="11.859676267062568"><ele>326.59999999999997</ele><time>2026-05-01T16:03:40.999Z</time></trkpt><trkpt lat="45.844021154069424" lon="11.859830600494906"><ele>325.4</ele><time>2026-05-01T16:03:41.999Z</time></trkpt><trkpt lat="45.84399692456531" lon="11.859988127744144"><ele>324.2</ele><time>2026-05-01T16:03:42.999Z</time></trkpt><trkpt lat="45.84401128707977" lon="11.860137496719256"><ele>323.0</ele><time>2026-05-01T16:03:43.999Z</time></trkpt><trkpt lat="45.84403961623508" lon="11.86027595379451"><ele>322.59999999999997</ele><time>2026-05-01T16:03:44.999Z</time></trkpt><trkpt lat="45.84405925760286" lon="11.860410553749531"><ele>322.2</ele><time>2026-05-01T16:03:45.999Z</time></trkpt><trkpt lat="45.844074495395695" lon="11.860554320224024"><ele>321.8</ele><time>2026-05-01T16:03:46.999Z</time></trkpt><trkpt lat="45.844077578428845" lon="11.860683854685377"><ele>321.4</ele><time>2026-05-01T16:03:47.999Z</time></trkpt><trkpt lat="45.84404758928365" lon="11.860807957481736"><ele>321.0</ele><time>2026-05-01T16:03:48.999Z</time></trkpt><trkpt lat="45.84400012490452" lon="11.860899343037262"><ele>319.6</ele><time>2026-05-01T16:03:49.999Z</time></trkpt><trkpt lat="45.843935812772955" lon="11.860983097434088"><ele>318.20000000000005</ele><time>2026-05-01T16:03:50.999Z</time></trkpt><trkpt lat="45.84385512042104" lon="11.861101940588107"><ele>316.79999999999995</ele><time>2026-05-01T16:03:51.999Z</time></trkpt><trkpt lat="45.843761403058515" lon="11.861143835535172"><ele>315.4</ele><time>2026-05-01T16:03:52.999Z</time></trkpt><trkpt lat="45.843687079432236" lon="11.861185627143342"><ele>314.0</ele><time>2026-05-01T16:03:53.999Z</time></trkpt><trkpt lat="45.84357832600826" lon="11.86119863565467"><ele>314.0</ele><time>2026-05-01T16:03:54.999Z</time></trkpt><trkpt lat="45.84348815501763" lon="11.861175305234053"><ele>314.0</ele><time>2026-05-01T16:03:55.999Z</time></trkpt><trkpt lat="45.84339260954592" lon="11.86110045692583"><ele>314.0</ele><time>2026-05-01T16:03:56.999Z</time></trkpt><trkpt lat="45.84331747567019" lon="11.860989542510572"><ele>314.0</ele><time>2026-05-01T16:03:57.999Z</time></trkpt><trkpt lat="45.84324671994598" lon="11.860859097922582"><ele>314.0</ele><time>2026-05-01T16:03:58.999Z</time></trkpt><trkpt lat="45.843180856500105" lon="11.860714710408299"><ele>317.5</ele><time>2026-05-01T16:03:59.999Z</time></trkpt><trkpt lat="45.84312763077638" lon="11.860596208228644"><ele>321.0</ele><time>2026-05-01T16:04:00.999Z</time></trkpt><trkpt lat="45.84306347402279" lon="11.860459754657567"><ele>324.5</ele><time>2026-05-01T16:04:01.999Z</time></trkpt><trkpt lat="45.842999431948044" lon="11.86031094396237"><ele>328.0</ele><time>2026-05-01T16:04:02.999Z</time></trkpt><trkpt lat="45.84293522964666" lon="11.860156528902912"><ele>330.0</ele><time>2026-05-01T16:04:03.999Z</time></trkpt><trkpt lat="45.842871334120304" lon="11.86000177181042"><ele>332.0</ele><time>2026-05-01T16:04:04.999Z</time></trkpt><trkpt lat="45.842810255172274" lon="11.859847426761394"><ele>334.0</ele><time>2026-05-01T16:04:05.999Z</time></trkpt><trkpt lat="45.84274236500127" lon="11.859688555840762"><ele>336.0</ele><time>2026-05-01T16:04:06.999Z</time></trkpt><trkpt lat="45.84268518181824" lon="11.859532577684357"><ele>335.25</ele><time>2026-05-01T16:04:07.999Z</time></trkpt><trkpt lat="45.84262009396635" lon="11.859388012963308"><ele>334.5</ele><time>2026-05-01T16:04:08.999Z</time></trkpt><trkpt lat="45.84255392996173" lon="11.85923251301434"><ele>333.75</ele><time>2026-05-01T16:04:09.999Z</time></trkpt><trkpt lat="45.84249360880832" lon="11.85909460482566"><ele>333.0</ele><time>2026-05-01T16:04:10.999Z</time></trkpt><trkpt lat="45.842440907233915" lon="11.858962413077288"><ele>333.0</ele><time>2026-05-01T16:04:11.999Z</time></trkpt><trkpt lat="45.8423783538864" lon="11.858863721869511"><ele>333.0</ele><time>2026-05-01T16:04:12.999Z</time></trkpt><trkpt lat="45.84229930085817" lon="11.85881844444068"><ele>333.0</ele><time>2026-05-01T16:04:13.999Z</time></trkpt><trkpt lat="45.84219500200166" lon="11.85883020300218"><ele>333.0</ele><time>2026-05-01T16:04:14.999Z</time></trkpt><trkpt lat="45.842098572912" lon="11.858878367328467"><ele>333.0</ele><time>2026-05-01T16:04:15.999Z</time></trkpt><trkpt lat="45.84202243883563" lon="11.858950392710641"><ele>333.0</ele><time>2026-05-01T16:04:16.999Z</time></trkpt><trkpt lat="45.8419256689266" lon="11.85900965786712"><ele>333.0</ele><time>2026-05-01T16:04:17.999Z</time></trkpt><trkpt lat="45.84183174759058" lon="11.859066173372133"><ele>333.0</ele><time>2026-05-01T16:04:18.999Z</time></trkpt><trkpt lat="45.84173854584508" lon="11.859102589797024"><ele>333.0</ele><time>2026-05-01T16:04:19.999Z</time></trkpt><trkpt lat="45.84163227497544" lon="11.859128524204365"><ele>333.0</ele><time>2026-05-01T16:04:20.999Z</time></trkpt><trkpt lat="45.84152175730778" lon="11.85914972130012"><ele>334.0</ele><time>2026-05-01T16:04:21.999Z</time></trkpt><trkpt lat="45.841403513704044" lon="11.859155360288261"><ele>335.0</ele><time>2026-05-01T16:04:22.999Z</time></trkpt><trkpt lat="45.84128029352495" lon="11.85914322189994"><ele>336.0</ele><time>2026-05-01T16:04:23.999Z</time></trkpt><trkpt lat="45.841160077508704" lon="11.859112683018335"><ele>337.0</ele><time>2026-05-01T16:04:24.999Z</time></trkpt><trkpt lat="45.84104307333585" lon="11.859034621496509"><ele>337.0</ele><time>2026-05-01T16:04:25.999Z</time></trkpt><trkpt lat="45.840914762609195" lon="11.858959909199205"><ele>337.0</ele><time>2026-05-01T16:04:26.999Z</time></trkpt><trkpt lat="45.84075807657763" lon="11.85886867892139"><ele>337.0</ele><time>2026-05-01T16:04:27.999Z</time></trkpt><trkpt lat="45.84060489394432" lon="11.858796440105602"><ele>337.0</ele><time>2026-05-01T16:04:28.999Z</time></trkpt><trkpt lat="45.84046637569393" lon="11.858697089855736"><ele>337.0</ele><time>2026-05-01T16:04:29.999Z</time></trkpt><trkpt lat="45.840313410157265" lon="11.858621191025863"><ele>337.0</ele><time>2026-05-01T16:04:30.999Z</time></trkpt><trkpt lat="45.8401597921758" lon="11.858527236027795"><ele>337.0</ele><time>2026-05-01T16:04:31.999Z</time></trkpt><trkpt lat="45.84001296042606" lon="11.858444050305378"><ele>337.0</ele><time>2026-05-01T16:04:32.999Z</time></trkpt><trkpt lat="45.839867912669604" lon="11.858365554333615"><ele>337.0</ele><time>2026-05-01T16:04:33.999Z</time></trkpt><trkpt lat="45.839714066717406" lon="11.858253898229195"><ele>337.0</ele><time>2026-05-01T16:04:34.999Z</time></trkpt><trkpt lat="45.83957661958845" lon="11.858166596458679"><ele>337.0</ele><time>2026-05-01T16:04:35.999Z</time></trkpt><trkpt lat="45.83943329000454" lon="11.85808028483353"><ele>337.0</ele><time>2026-05-01T16:04:36.999Z</time></trkpt><trkpt lat="45.83929373968215" lon="11.857989645052381"><ele>336.66666666666663</ele><time>2026-05-01T16:04:37.999Z</time></trkpt><trkpt lat="45.839149197390945" lon="11.857891237493476"><ele>336.3333333333333</ele><time>2026-05-01T16:04:38.999Z</time></trkpt><trkpt lat="45.83900314986319" lon="11.857802923733791"><ele>336.0</ele><time>2026-05-01T16:04:39.999Z</time></trkpt><trkpt lat="45.83886622353751" lon="11.857738340028488"><ele>336.0</ele><time>2026-05-01T16:04:40.999Z</time></trkpt><trkpt lat="45.838720889789634" lon="11.857655354971707"><ele>336.0</ele><time>2026-05-01T16:04:41.999Z</time></trkpt><trkpt lat="45.83857069017966" lon="11.85757727156074"><ele>336.0</ele><time>2026-05-01T16:04:42.999Z</time></trkpt><trkpt lat="45.838429361786154" lon="11.85749680330173"><ele>335.75</ele><time>2026-05-01T16:04:43.999Z</time></trkpt><trkpt lat="45.838287162336755" lon="11.857413633888957"><ele>335.5</ele><time>2026-05-01T16:04:44.999Z</time></trkpt><trkpt lat="45.83814726005125" lon="11.857336972847865"><ele>335.25</ele><time>2026-05-01T16:04:45.999Z</time></trkpt><trkpt lat="45.838013311993556" lon="11.857266977509086"><ele>335.0</ele><time>2026-05-01T16:04:46.999Z</time></trkpt><trkpt lat="45.837879858203166" lon="11.85718117842623"><ele>335.0</ele><time>2026-05-01T16:04:47.999Z</time></trkpt><trkpt lat="45.83775480310702" lon="11.857078148524943"><ele>335.0</ele><time>2026-05-01T16:04:48.999Z</time></trkpt><trkpt lat="45.837641547446694" lon="11.856949332185064"><ele>335.0</ele><time>2026-05-01T16:04:49.999Z</time></trkpt><trkpt lat="45.837540902317045" lon="11.85682471784525"><ele>335.0</ele><time>2026-05-01T16:04:50.999Z</time></trkpt><trkpt lat="45.8374406181652" lon="11.856677487239683"><ele>335.0</ele><time>2026-05-01T16:04:51.999Z</time></trkpt><trkpt lat="45.837346043694865" lon="11.856526958953621"><ele>335.0</ele><time>2026-05-01T16:04:52.998Z</time></trkpt><trkpt lat="45.83725817630296" lon="11.856359779563862"><ele>335.0</ele><time>2026-05-01T16:04:53.998Z</time></trkpt><trkpt lat="45.83717933979694" lon="11.856179285613067"><ele>335.0</ele><time>2026-05-01T16:04:55Z</time></trkpt><trkpt lat="45.83710992661978" lon="11.85599050886978"><ele>335.75</ele><time>2026-05-01T16:04:56Z</time></trkpt><trkpt lat="45.83705889096487" lon="11.855796778264994"><ele>336.5</ele><time>2026-05-01T16:04:57Z</time></trkpt><trkpt lat="45.83699781292017" lon="11.855601269239877"><ele>337.25</ele><time>2026-05-01T16:04:58Z</time></trkpt><trkpt lat="45.83692618552743" lon="11.855429128508687"><ele>338.0</ele><time>2026-05-01T16:04:59Z</time></trkpt><trkpt lat="45.83687596815088" lon="11.855254288661063"><ele>338.5</ele><time>2026-05-01T16:05:00Z</time></trkpt><trkpt lat="45.83683092250254" lon="11.855093000415529"><ele>339.0</ele><time>2026-05-01T16:05:01Z</time></trkpt><trkpt lat="45.836774077259136" lon="11.85492972814133"><ele>339.5</ele><time>2026-05-01T16:05:02Z</time></trkpt><trkpt lat="45.83672893146386" lon="11.854792848587662"><ele>340.0</ele><time>2026-05-01T16:05:03Z</time></trkpt><trkpt lat="45.83670382945151" lon="11.85463732738316"><ele>340.0</ele><time>2026-05-01T16:05:04Z</time></trkpt><trkpt lat="45.836660125037774" lon="11.854490528831308"><ele>340.0</ele><time>2026-05-01T16:05:05Z</time></trkpt><trkpt lat="45.83661023295649" lon="11.854333807363213"><ele>340.0</ele><time>2026-05-01T16:05:06Z</time></trkpt><trkpt lat="45.83655876166765" lon="11.854176154080786"><ele>340.0</ele><time>2026-05-01T16:05:07Z</time></trkpt><trkpt lat="45.83650612468569" lon="11.854029065300297"><ele>340.0</ele><time>2026-05-01T16:05:08Z</time></trkpt><trkpt lat="45.83645787979612" lon="11.85388803602207"><ele>340.0</ele><time>2026-05-01T16:05:09Z</time></trkpt><trkpt lat="45.836414043357145" lon="11.853748081801172"><ele>340.0</ele><time>2026-05-01T16:05:10Z</time></trkpt><trkpt lat="45.83638762927345" lon="11.85362981021854"><ele>340.0</ele><time>2026-05-01T16:05:11Z</time></trkpt><trkpt lat="45.836363047919484" lon="11.853542528746964"><ele>340.0</ele><time>2026-05-01T16:05:12Z</time></trkpt><trkpt lat="45.83632820119106" lon="11.85343666777396"><ele>340.16666666666663</ele><time>2026-05-01T16:05:14Z</time></trkpt><trkpt lat="45.83628836565881" lon="11.85331954120236"><ele>340.3333333333333</ele><time>2026-05-01T16:05:17Z</time></trkpt><trkpt lat="45.83624206017032" lon="11.853174722877085"><ele>340.5</ele><time>2026-05-01T16:05:19Z</time></trkpt><trkpt lat="45.836214756286154" lon="11.85308917555556"><ele>340.6666666666667</ele><time>2026-05-01T16:05:20Z</time></trkpt><trkpt lat="45.836182210513726" lon="11.852983565622385"><ele>340.83333333333337</ele><time>2026-05-01T16:05:21Z</time></trkpt><trkpt lat="45.836149014995385" lon="11.852867426702849"><ele>341.0</ele><time>2026-05-01T16:05:22Z</time></trkpt><trkpt lat="45.83611146283599" lon="11.852747803227517"><ele>341.0</ele><time>2026-05-01T16:05:23Z</time></trkpt><trkpt lat="45.83606530507425" lon="11.852616491430817"><ele>341.0</ele><time>2026-05-01T16:05:24Z</time></trkpt><trkpt lat="45.83601829646421" lon="11.852471089643721"><ele>341.0</ele><time>2026-05-01T16:05:25Z</time></trkpt><trkpt lat="45.83597308997815" lon="11.852325738292059"><ele>341.0</ele><time>2026-05-01T16:05:26Z</time></trkpt><trkpt lat="45.835932194826306" lon="11.852178290485536"><ele>341.0</ele><time>2026-05-01T16:05:27Z</time></trkpt><trkpt lat="45.8358954838349" lon="11.85202193597045"><ele>340.0</ele><time>2026-05-01T16:05:28Z</time></trkpt><trkpt lat="45.83586305963195" lon="11.851866264218195"><ele>339.0</ele><time>2026-05-01T16:05:29Z</time></trkpt><trkpt lat="45.835822466078035" lon="11.851696513988186"><ele>338.0</ele><time>2026-05-01T16:05:30Z</time></trkpt><trkpt lat="45.83579195936607" lon="11.85152433462277"><ele>337.0</ele><time>2026-05-01T16:05:31Z</time></trkpt><trkpt lat="45.83575805694142" lon="11.851346493860984"><ele>337.0</ele><time>2026-05-01T16:05:32Z</time></trkpt><trkpt lat="45.8357324584899" lon="11.85116134690278"><ele>337.0</ele><time>2026-05-01T16:05:33Z</time></trkpt><trkpt lat="45.83570345150016" lon="11.850978951617137"><ele>337.0</ele><time>2026-05-01T16:05:34Z</time></trkpt><trkpt lat="45.83567284386876" lon="11.850799177326092"><ele>337.0</ele><time>2026-05-01T16:05:35Z</time></trkpt><trkpt lat="45.8356375399396" lon="11.850602483342323"><ele>337.25</ele><time>2026-05-01T16:05:36Z</time></trkpt><trkpt lat="45.83561349918065" lon="11.850412998692043"><ele>337.5</ele><time>2026-05-01T16:05:37Z</time></trkpt><trkpt lat="45.83557927203279" lon="11.850228406250844"><ele>337.75</ele><time>2026-05-01T16:05:38Z</time></trkpt><trkpt lat="45.83554056829644" lon="11.850018663980459"><ele>338.0</ele><time>2026-05-01T16:05:39Z</time></trkpt><trkpt lat="45.83551042337122" lon="11.849816937107672"><ele>338.25</ele><time>2026-05-01T16:05:40Z</time></trkpt><trkpt lat="45.835473521531505" lon="11.849602706418064"><ele>338.5</ele><time>2026-05-01T16:05:41Z</time></trkpt><trkpt lat="45.83543995882247" lon="11.849394514650404"><ele>338.75</ele><time>2026-05-01T16:05:42Z</time></trkpt><trkpt lat="45.83540418623464" lon="11.849202972224319"><ele>339.0</ele><time>2026-05-01T16:05:43Z</time></trkpt><trkpt lat="45.8353532996531" lon="11.849002471476803"><ele>339.0</ele><time>2026-05-01T16:05:44Z</time></trkpt><trkpt lat="45.83528619342406" lon="11.848819974146616"><ele>339.0</ele><time>2026-05-01T16:05:45Z</time></trkpt><trkpt lat="45.835207964229475" lon="11.848649778987488"><ele>339.0</ele><time>2026-05-01T16:05:45.999Z</time></trkpt><trkpt lat="45.83511244868331" lon="11.848487274158298"><ele>339.0</ele><time>2026-05-01T16:05:46.999Z</time></trkpt><trkpt lat="45.835008656666915" lon="11.848333790711722"><ele>337.3333333333333</ele><time>2026-05-01T16:05:47.999Z</time></trkpt><trkpt lat="45.83489834319405" lon="11.84819720868699"><ele>335.66666666666663</ele><time>2026-05-01T16:05:48.999Z</time></trkpt><trkpt lat="45.83477170681594" lon="11.84808052746106"><ele>334.0</ele><time>2026-05-01T16:05:49.999Z</time></trkpt><trkpt lat="45.83463483171653" lon="11.847973397722289"><ele>334.0</ele><time>2026-05-01T16:05:50.999Z</time></trkpt><trkpt lat="45.834493192974605" lon="11.847871568058073"><ele>334.0</ele><time>2026-05-01T16:05:51.999Z</time></trkpt><trkpt lat="45.8343512916071" lon="11.84777414296019"><ele>334.0</ele><time>2026-05-01T16:05:52.999Z</time></trkpt><trkpt lat="45.83420440116637" lon="11.847667623977763"><ele>333.3333333333333</ele><time>2026-05-01T16:05:53.999Z</time></trkpt><trkpt lat="45.83406138183994" lon="11.847560283260782"><ele>332.6666666666667</ele><time>2026-05-01T16:05:54.999Z</time></trkpt><trkpt lat="45.833918492684155" lon="11.847454565121783"><ele>332.0</ele><time>2026-05-01T16:05:55.999Z</time></trkpt><trkpt lat="45.83378451768061" lon="11.847333609624506"><ele>332.0</ele><time>2026-05-01T16:05:56.999Z</time></trkpt><trkpt lat="45.83364984870456" lon="11.847199121236697"><ele>332.0</ele><time>2026-05-01T16:05:57.999Z</time></trkpt><trkpt lat="45.83352757424636" lon="11.847045174567302"><ele>332.0</ele><time>2026-05-01T16:05:58.999Z</time></trkpt><trkpt lat="45.833416568915496" lon="11.846885651466572"><ele>330.25</ele><time>2026-05-01T16:05:59.999Z</time></trkpt><trkpt lat="45.83330963862464" lon="11.84673858960287"><ele>328.5</ele><time>2026-05-01T16:06:00.999Z</time></trkpt><trkpt lat="45.83319562935436" lon="11.846588516164541"><ele>326.75</ele><time>2026-05-01T16:06:01.999Z</time></trkpt><trkpt lat="45.83309336788862" lon="11.846439624659126"><ele>325.0</ele><time>2026-05-01T16:06:02.999Z</time></trkpt><trkpt lat="45.83298948733151" lon="11.846300434785567"><ele>325.0</ele><time>2026-05-01T16:06:03.999Z</time></trkpt><trkpt lat="45.832897572043656" lon="11.846170585772922"><ele>325.0</ele><time>2026-05-01T16:06:04.999Z</time></trkpt><trkpt lat="45.83280894567058" lon="11.846034685991603"><ele>325.0</ele><time>2026-05-01T16:06:05.999Z</time></trkpt><trkpt lat="45.83275249194005" lon="11.84586142873583"><ele>325.0</ele><time>2026-05-01T16:06:06.999Z</time></trkpt><trkpt lat="45.832709627094765" lon="11.845693594493117"><ele>324.25</ele><time>2026-05-01T16:06:07.999Z</time></trkpt><trkpt lat="45.83270010198889" lon="11.845501984135982"><ele>323.5</ele><time>2026-05-01T16:06:08.999Z</time></trkpt><trkpt lat="45.832728271325735" lon="11.84530599917405"><ele>322.75</ele><time>2026-05-01T16:06:09.999Z</time></trkpt><trkpt lat="45.832771611384224" lon="11.845121382099714"><ele>322.0</ele><time>2026-05-01T16:06:10.999Z</time></trkpt><trkpt lat="45.83282850198077" lon="11.844948024913633"><ele>321.5</ele><time>2026-05-01T16:06:11.999Z</time></trkpt><trkpt lat="45.832905816200196" lon="11.844787585008845"><ele>321.0</ele><time>2026-05-01T16:06:12.999Z</time></trkpt><trkpt lat="45.832973505895616" lon="11.844624314307039"><ele>320.5</ele><time>2026-05-01T16:06:13.999Z</time></trkpt><trkpt lat="45.83304363895721" lon="11.84445772666182"><ele>320.0</ele><time>2026-05-01T16:06:14.999Z</time></trkpt><trkpt lat="45.83311448461693" lon="11.844295525248567"><ele>319.75</ele><time>2026-05-01T16:06:15.999Z</time></trkpt><trkpt lat="45.83318539045851" lon="11.844135081659072"><ele>319.5</ele><time>2026-05-01T16:06:16.999Z</time></trkpt><trkpt lat="45.8332599493836" lon="11.843970170473263"><ele>319.25</ele><time>2026-05-01T16:06:17.999Z</time></trkpt><trkpt lat="45.833335974859274" lon="11.84379722516132"><ele>319.0</ele><time>2026-05-01T16:06:18.999Z</time></trkpt><trkpt lat="45.83340488311904" lon="11.843630215760264"><ele>319.75</ele><time>2026-05-01T16:06:19.999Z</time></trkpt><trkpt lat="45.83348642223836" lon="11.84347851673465"><ele>320.5</ele><time>2026-05-01T16:06:20.999Z</time></trkpt><trkpt lat="45.83354729712083" lon="11.84334119768352"><ele>321.25</ele><time>2026-05-01T16:06:21.999Z</time></trkpt><trkpt lat="45.8336043166312" lon="11.843207438927992"><ele>322.0</ele><time>2026-05-01T16:06:22.999Z</time></trkpt><trkpt lat="45.83365369715352" lon="11.843086073773886"><ele>322.3333333333333</ele><time>2026-05-01T16:06:23.999Z</time></trkpt><trkpt lat="45.8337116737586" lon="11.84297011681989"><ele>322.66666666666663</ele><time>2026-05-01T16:06:24.999Z</time></trkpt><trkpt lat="45.8337557838444" lon="11.842864248638259"><ele>323.0</ele><time>2026-05-01T16:06:25.999Z</time></trkpt><trkpt lat="45.83378386119236" lon="11.842775715312976"><ele>323.3333333333333</ele><time>2026-05-01T16:06:26.999Z</time></trkpt><trkpt lat="45.83380381067067" lon="11.842682002609752"><ele>323.6666666666667</ele><time>2026-05-01T16:06:27.999Z</time></trkpt><trkpt lat="45.83377690407182" lon="11.84258297053367"><ele>324.0</ele><time>2026-05-01T16:06:28.999Z</time></trkpt><trkpt lat="45.83371684605059" lon="11.842509574563438"><ele>323.0</ele><time>2026-05-01T16:06:29.999Z</time></trkpt><trkpt lat="45.833636873909086" lon="11.842473672606246"><ele>322.0</ele><time>2026-05-01T16:06:30.999Z</time></trkpt><trkpt lat="45.83355740191869" lon="11.842430394663173"><ele>321.0</ele><time>2026-05-01T16:06:31.999Z</time></trkpt><trkpt lat="45.83347053089655" lon="11.84239222873792"><ele>320.0</ele><time>2026-05-01T16:06:32.999Z</time></trkpt><trkpt lat="45.83338626360827" lon="11.84235329114148"><ele>319.0</ele><time>2026-05-01T16:06:33.999Z</time></trkpt><trkpt lat="45.8332868797219" lon="11.842305660539743"><ele>319.0</ele><time>2026-05-01T16:06:34.999Z</time></trkpt><trkpt lat="45.8331753636497" lon="11.842254773097206"><ele>319.0</ele><time>2026-05-01T16:06:35.999Z</time></trkpt><trkpt lat="45.83306309530771" lon="11.84220810486611"><ele>319.0</ele><time>2026-05-01T16:06:36.999Z</time></trkpt><trkpt lat="45.832938323086225" lon="11.842156245126931"><ele>319.0</ele><time>2026-05-01T16:06:37.999Z</time></trkpt><trkpt lat="45.832811899514034" lon="11.842104871687098"><ele>319.0</ele><time>2026-05-01T16:06:38.999Z</time></trkpt><trkpt lat="45.832687212531766" lon="11.842065333894114"><ele>319.0</ele><time>2026-05-01T16:06:39.999Z</time></trkpt><trkpt lat="45.83256890457623" lon="11.84201944238852"><ele>319.0</ele><time>2026-05-01T16:06:40.999Z</time></trkpt><trkpt lat="45.83245423191399" lon="11.841975769225085"><ele>319.0</ele><time>2026-05-01T16:06:41.999Z</time></trkpt><trkpt lat="45.83234551266489" lon="11.841930302659096"><ele>318.75</ele><time>2026-05-01T16:06:42.999Z</time></trkpt><trkpt lat="45.832243691307106" lon="11.841856424839616"><ele>318.5</ele><time>2026-05-01T16:06:43.999Z</time></trkpt><trkpt lat="45.8321536737379" lon="11.841758252915868"><ele>318.25</ele><time>2026-05-01T16:06:44.999Z</time></trkpt><trkpt lat="45.83209290770193" lon="11.841631830918853"><ele>318.0</ele><time>2026-05-01T16:06:45.999Z</time></trkpt><trkpt lat="45.8320327905778" lon="11.841478313604513"><ele>318.0</ele><time>2026-05-01T16:06:46.999Z</time></trkpt><trkpt lat="45.83199876075258" lon="11.841320763168902"><ele>318.0</ele><time>2026-05-01T16:06:47.999Z</time></trkpt><trkpt lat="45.83196041709752" lon="11.841187110837726"><ele>318.0</ele><time>2026-05-01T16:06:48.999Z</time></trkpt><trkpt lat="45.83190550919218" lon="11.841038823946116"><ele>318.0</ele><time>2026-05-01T16:06:49.999Z</time></trkpt><trkpt lat="45.83184805374835" lon="11.840887453909335"><ele>315.0</ele><time>2026-05-01T16:06:50.999Z</time></trkpt><trkpt lat="45.83179548490397" lon="11.840671746444237"><ele>312.0</ele><time>2026-05-01T16:06:51.999Z</time></trkpt><trkpt lat="45.831738251423545" lon="11.840499456586421"><ele>309.0</ele><time>2026-05-01T16:06:52.999Z</time></trkpt><trkpt lat="45.8316786359668" lon="11.840295325092967"><ele>306.0</ele><time>2026-05-01T16:06:53.999Z</time></trkpt><trkpt lat="45.83162758723082" lon="11.840150742356744"><ele>306.75</ele><time>2026-05-01T16:06:54.999Z</time></trkpt><trkpt lat="45.83158300695838" lon="11.839998962732286"><ele>307.5</ele><time>2026-05-01T16:06:55.999Z</time></trkpt><trkpt lat="45.831525255025" lon="11.839852608449622"><ele>308.25</ele><time>2026-05-01T16:06:56.999Z</time></trkpt><trkpt lat="45.83144497589094" lon="11.839671185477746"><ele>309.0</ele><time>2026-05-01T16:06:57.999Z</time></trkpt><trkpt lat="45.83136221810204" lon="11.839516973893678"><ele>309.0</ele><time>2026-05-01T16:06:58.998Z</time></trkpt><trkpt lat="45.83127614270157" lon="11.839354525818916"><ele>309.0</ele><time>2026-05-01T16:06:59.998Z</time></trkpt><trkpt lat="45.83120193625852" lon="11.839198271001269"><ele>309.0</ele><time>2026-05-01T16:07:01Z</time></trkpt><trkpt lat="45.83111576372686" lon="11.839043472317673"><ele>309.0</ele><time>2026-05-01T16:07:02Z</time></trkpt><trkpt lat="45.83102193094165" lon="11.83888719162001"><ele>308.25</ele><time>2026-05-01T16:07:03Z</time></trkpt><trkpt lat="45.83094265136233" lon="11.838733442625495"><ele>307.5</ele><time>2026-05-01T16:07:04Z</time></trkpt><trkpt lat="45.83085537945139" lon="11.838597168264892"><ele>306.75</ele><time>2026-05-01T16:07:05Z</time></trkpt><trkpt lat="45.83077950473075" lon="11.838450160666726"><ele>306.0</ele><time>2026-05-01T16:07:06Z</time></trkpt><trkpt lat="45.830707659018664" lon="11.838338478421274"><ele>306.0</ele><time>2026-05-01T16:07:07Z</time></trkpt><trkpt lat="45.83061512298442" lon="11.838231797449454"><ele>306.0</ele><time>2026-05-01T16:07:08Z</time></trkpt><trkpt lat="45.83051487464695" lon="11.838154791805321"><ele>306.0</ele><time>2026-05-01T16:07:09Z</time></trkpt><trkpt lat="45.83040601379196" lon="11.838122130815123"><ele>306.0</ele><time>2026-05-01T16:07:10Z</time></trkpt><trkpt lat="45.83029436481707" lon="11.838141794508783"><ele>306.0</ele><time>2026-05-01T16:07:11Z</time></trkpt><trkpt lat="45.83019043829571" lon="11.838225663614923"><ele>306.0</ele><time>2026-05-01T16:07:12Z</time></trkpt><trkpt lat="45.830108558332164" lon="11.838363242004801"><ele>306.0</ele><time>2026-05-01T16:07:13Z</time></trkpt><trkpt lat="45.83005575489388" lon="11.838507995826955"><ele>306.0</ele><time>2026-05-01T16:07:14Z</time></trkpt><trkpt lat="45.83001865437323" lon="11.838654384088368"><ele>304.25</ele><time>2026-05-01T16:07:15Z</time></trkpt><trkpt lat="45.829991177731856" lon="11.838803142157092"><ele>302.5</ele><time>2026-05-01T16:07:16Z</time></trkpt><trkpt lat="45.82995704767373" lon="11.838952288039048"><ele>300.75</ele><time>2026-05-01T16:07:17Z</time></trkpt><trkpt lat="45.82992097131135" lon="11.839133573977735"><ele>299.0</ele><time>2026-05-01T16:07:18Z</time></trkpt><trkpt lat="45.829882825946186" lon="11.839306979090194"><ele>298.5</ele><time>2026-05-01T16:07:19Z</time></trkpt><trkpt lat="45.829854877165644" lon="11.839475498571252"><ele>298.0</ele><time>2026-05-01T16:07:20Z</time></trkpt><trkpt lat="45.82982167053966" lon="11.839655028142424"><ele>297.5</ele><time>2026-05-01T16:07:21Z</time></trkpt><trkpt lat="45.82978844436302" lon="11.839830317330424"><ele>297.0</ele><time>2026-05-01T16:07:22Z</time></trkpt><trkpt lat="45.82977313417014" lon="11.839990531147663"><ele>297.2</ele><time>2026-05-01T16:07:23Z</time></trkpt><trkpt lat="45.829760379864844" lon="11.840146313155964"><ele>297.4</ele><time>2026-05-01T16:07:24Z</time></trkpt><trkpt lat="45.82974993773579" lon="11.840294656392889"><ele>297.6</ele><time>2026-05-01T16:07:25Z</time></trkpt><trkpt lat="45.8297486340218" lon="11.84043723468543"><ele>297.8</ele><time>2026-05-01T16:07:26Z</time></trkpt><trkpt lat="45.82974334587972" lon="11.840574210960071"><ele>298.0</ele><time>2026-05-01T16:07:27Z</time></trkpt><trkpt lat="45.82973449271455" lon="11.840707785571581"><ele>298.0</ele><time>2026-05-01T16:07:28Z</time></trkpt><trkpt lat="45.829729588536054" lon="11.840831019031414"><ele>298.0</ele><time>2026-05-01T16:07:29Z</time></trkpt><trkpt lat="45.82972334383497" lon="11.840944999618216"><ele>298.0</ele><time>2026-05-01T16:07:30Z</time></trkpt><trkpt lat="45.82971151491913" lon="11.84106713565377"><ele>298.0</ele><time>2026-05-01T16:07:31Z</time></trkpt><trkpt lat="45.82970078031187" lon="11.8411949718289"><ele>298.0</ele><time>2026-05-01T16:07:32Z</time></trkpt><trkpt lat="45.829683177252754" lon="11.84131914432147"><ele>298.0</ele><time>2026-05-01T16:07:33Z</time></trkpt><trkpt lat="45.829662667450236" lon="11.841435133834727"><ele>297.66666666666663</ele><time>2026-05-01T16:07:34Z</time></trkpt><trkpt lat="45.82963089488667" lon="11.841536316894839"><ele>297.3333333333333</ele><time>2026-05-01T16:07:35Z</time></trkpt><trkpt lat="45.82957558755859" lon="11.841603736188294"><ele>297.0</ele><time>2026-05-01T16:07:36Z</time></trkpt><trkpt lat="45.82949842364305" lon="11.841641126160996"><ele>296.6666666666667</ele><time>2026-05-01T16:07:37Z</time></trkpt><trkpt lat="45.82940182714399" lon="11.841624203319435"><ele>296.33333333333337</ele><time>2026-05-01T16:07:38Z</time></trkpt><trkpt lat="45.829331272349606" lon="11.841618661053573"><ele>296.0</ele><time>2026-05-01T16:07:39Z</time></trkpt><trkpt lat="45.82922262823298" lon="11.841514662213834"><ele>296.6666666666667</ele><time>2026-05-01T16:07:41Z</time></trkpt><trkpt lat="45.82919374192347" lon="11.841425864251667"><ele>297.33333333333337</ele><time>2026-05-01T16:07:42Z</time></trkpt><trkpt lat="45.82916837660645" lon="11.84133332485239"><ele>298.0</ele><time>2026-05-01T16:07:43Z</time></trkpt><trkpt lat="45.82915518007055" lon="11.84123253423846"><ele>298.6666666666667</ele><time>2026-05-01T16:07:44Z</time></trkpt><trkpt lat="45.82910703946492" lon="11.84107908968742"><ele>299.3333333333333</ele><time>2026-05-01T16:07:46Z</time></trkpt><trkpt lat="45.82908288703046" lon="11.840921905356028"><ele>300.0</ele><time>2026-05-01T16:07:48Z</time></trkpt><trkpt lat="45.829036994974544" lon="11.84077851070409"><ele>300.0</ele><time>2026-05-01T16:07:50Z</time></trkpt><trkpt lat="45.829009639320134" lon="11.840687319795656"><ele>300.0</ele><time>2026-05-01T16:07:51Z</time></trkpt><trkpt lat="45.82896415495569" lon="11.840518568612266"><ele>300.0</ele><time>2026-05-01T16:07:52.999Z</time></trkpt><trkpt lat="45.828946812739474" lon="11.840416652984507"><ele>300.0</ele><time>2026-05-01T16:07:53.999Z</time></trkpt><trkpt lat="45.82891763202913" lon="11.84031246633671"><ele>300.0</ele><time>2026-05-01T16:07:54.999Z</time></trkpt><trkpt lat="45.8288862362892" lon="11.840223299352077"><ele>300.0</ele><time>2026-05-01T16:07:55.999Z</time></trkpt><trkpt lat="45.82884304985448" lon="11.840138901201906"><ele>299.8333333333333</ele><time>2026-05-01T16:07:56.999Z</time></trkpt><trkpt lat="45.828798978883654" lon="11.840052294826341"><ele>299.6666666666667</ele><time>2026-05-01T16:07:57.999Z</time></trkpt><trkpt lat="45.82873639876559" lon="11.839991284317012"><ele>299.5</ele><time>2026-05-01T16:07:58.999Z</time></trkpt><trkpt lat="45.828662656493016" lon="11.839961221562566"><ele>299.33333333333337</ele><time>2026-05-01T16:07:59.999Z</time></trkpt><trkpt lat="45.82857761573405" lon="11.839958882056816"><ele>299.1666666666667</ele><time>2026-05-01T16:08:00.999Z</time></trkpt><trkpt lat="45.828494966440665" lon="11.839969507038864"><ele>299.0</ele><time>2026-05-01T16:08:01.999Z</time></trkpt><trkpt lat="45.828413073766285" lon="11.839987705721915"><ele>298.5</ele><time>2026-05-01T16:08:02.999Z</time></trkpt><trkpt lat="45.82832871114359" lon="11.84000427518025"><ele>298.0</ele><time>2026-05-01T16:08:03.999Z</time></trkpt><trkpt lat="45.82824301174105" lon="11.84002136315097"><ele>297.5</ele><time>2026-05-01T16:08:04.999Z</time></trkpt><trkpt lat="45.82816124460172" lon="11.840039292018785"><ele>297.0</ele><time>2026-05-01T16:08:05.999Z</time></trkpt><trkpt lat="45.82808611135793" lon="11.840070135618966"><ele>296.5</ele><time>2026-05-01T16:08:06.999Z</time></trkpt><trkpt lat="45.82800956081425" lon="11.840081414951825"><ele>296.0</ele><time>2026-05-01T16:08:07.999Z</time></trkpt><trkpt lat="45.827932747173534" lon="11.84010088757721"><ele>296.0</ele><time>2026-05-01T16:08:08.999Z</time></trkpt><trkpt lat="45.827851469258526" lon="11.840119977210554"><ele>296.0</ele><time>2026-05-01T16:08:09.999Z</time></trkpt><trkpt lat="45.82777389126724" lon="11.840131124214539"><ele>296.0</ele><time>2026-05-01T16:08:10.999Z</time></trkpt><trkpt lat="45.82769941060601" lon="11.840120365059935"><ele>296.0</ele><time>2026-05-01T16:08:11.999Z</time></trkpt><trkpt lat="45.82761251660953" lon="11.840112939835263"><ele>296.0</ele><time>2026-05-01T16:08:12.999Z</time></trkpt><trkpt lat="45.82753811395662" lon="11.840105263325125"><ele>296.0</ele><time>2026-05-01T16:08:13.999Z</time></trkpt><trkpt lat="45.82746681692969" lon="11.840065694131926"><ele>295.2</ele><time>2026-05-01T16:08:14.999Z</time></trkpt><trkpt lat="45.8274016174551" lon="11.840001932536627"><ele>294.40000000000003</ele><time>2026-05-01T16:08:15.999Z</time></trkpt><trkpt lat="45.82734130392232" lon="11.839922635628412"><ele>293.6</ele><time>2026-05-01T16:08:16.999Z</time></trkpt><trkpt lat="45.827310829198446" lon="11.839831787929564"><ele>292.8</ele><time>2026-05-01T16:08:17.999Z</time></trkpt><trkpt lat="45.827294664256286" lon="11.839660909969854"><ele>292.0</ele><time>2026-05-01T16:08:19.999Z</time></trkpt><trkpt lat="45.82727123519266" lon="11.839522364162635"><ele>292.0</ele><time>2026-05-01T16:08:21.999Z</time></trkpt><trkpt lat="45.82724710775295" lon="11.83938694510648"><ele>292.0</ele><time>2026-05-01T16:08:23.999Z</time></trkpt><trkpt lat="45.82722621653842" lon="11.839283521514304"><ele>292.0</ele><time>2026-05-01T16:08:25.999Z</time></trkpt><trkpt lat="45.827202975519796" lon="11.839195808907643"><ele>292.0</ele><time>2026-05-01T16:08:28.999Z</time></trkpt><trkpt lat="45.82716883851178" lon="11.838992687352548"><ele>292.0</ele><time>2026-05-01T16:08:36.999Z</time></trkpt><trkpt lat="45.827130616816405" lon="11.838830651027953"><ele>292.16666666666663</ele><time>2026-05-01T16:08:38.999Z</time></trkpt><trkpt lat="45.82710677245519" lon="11.838728073596377"><ele>292.3333333333333</ele><time>2026-05-01T16:08:39.999Z</time></trkpt><trkpt lat="45.827084616978894" lon="11.83860918956583"><ele>292.5</ele><time>2026-05-01T16:08:40.999Z</time></trkpt><trkpt lat="45.827059032267826" lon="11.838507641710384"><ele>292.6666666666667</ele><time>2026-05-01T16:08:41.999Z</time></trkpt><trkpt lat="45.827036822722" lon="11.838381046065674"><ele>292.83333333333337</ele><time>2026-05-01T16:08:42.999Z</time></trkpt><trkpt lat="45.82700662544434" lon="11.838245258727182"><ele>293.0</ele><time>2026-05-01T16:08:43.999Z</time></trkpt><trkpt lat="45.82696973065059" lon="11.838105070139505"><ele>292.8</ele><time>2026-05-01T16:08:44.999Z</time></trkpt><trkpt lat="45.82692966215133" lon="11.837978717608303"><ele>292.6</ele><time>2026-05-01T16:08:45.999Z</time></trkpt><trkpt lat="45.82689576388826" lon="11.837837907335013"><ele>292.4</ele><time>2026-05-01T16:08:46.999Z</time></trkpt><trkpt lat="45.826875011557576" lon="11.837718176437845"><ele>292.2</ele><time>2026-05-01T16:08:47.999Z</time></trkpt><trkpt lat="45.82685694730237" lon="11.837600966573392"><ele>292.0</ele><time>2026-05-01T16:08:48.999Z</time></trkpt><trkpt lat="45.82683453457182" lon="11.837461586128073"><ele>290.6</ele><time>2026-05-01T16:08:49.999Z</time></trkpt><trkpt lat="45.82680766038181" lon="11.83732692814249"><ele>289.2</ele><time>2026-05-01T16:08:50.999Z</time></trkpt><trkpt lat="45.82677744546873" lon="11.837194614447547"><ele>287.8</ele><time>2026-05-01T16:08:51.999Z</time></trkpt><trkpt lat="45.826751102833065" lon="11.837067180449164"><ele>286.4</ele><time>2026-05-01T16:08:52.999Z</time></trkpt><trkpt lat="45.82672817731256" lon="11.836929835266103"><ele>285.0</ele><time>2026-05-01T16:08:53.999Z</time></trkpt><trkpt lat="45.82670147332434" lon="11.836810738284186"><ele>285.0</ele><time>2026-05-01T16:08:54.999Z</time></trkpt><trkpt lat="45.82667758623975" lon="11.836666195471642"><ele>285.0</ele><time>2026-05-01T16:08:55.999Z</time></trkpt><trkpt lat="45.826648152255714" lon="11.836519645141124"><ele>285.0</ele><time>2026-05-01T16:08:56.999Z</time></trkpt><trkpt lat="45.826615435294386" lon="11.836386027064881"><ele>285.0</ele><time>2026-05-01T16:08:57.999Z</time></trkpt><trkpt lat="45.82659775507222" lon="11.836243986125615"><ele>285.0</ele><time>2026-05-01T16:08:58.999Z</time></trkpt><trkpt lat="45.826564132087356" lon="11.836130051831296"><ele>285.0</ele><time>2026-05-01T16:08:59.999Z</time></trkpt><trkpt lat="45.82653869142571" lon="11.836021108660427"><ele>285.0</ele><time>2026-05-01T16:09:00.999Z</time></trkpt><trkpt lat="45.82655026398748" lon="11.835879449740622"><ele>285.0</ele><time>2026-05-01T16:09:02.999Z</time></trkpt><trkpt lat="45.826569036024885" lon="11.835787140009765"><ele>285.0</ele><time>2026-05-01T16:09:04.998Z</time></trkpt><trkpt lat="45.82648500335183" lon="11.835812399511957"><ele>285.0</ele><time>2026-05-01T16:09:05.998Z</time></trkpt><trkpt lat="45.826553503080206" lon="11.835771535886543"><ele>285.0</ele><time>2026-05-01T16:09:07Z</time></trkpt><trkpt lat="45.82652536015111" lon="11.835854390793266"><ele>285.1666666666667</ele><time>2026-05-01T16:12:09.999Z</time></trkpt><trkpt lat="45.82659986889387" lon="11.8358352496616"><ele>285.3333333333333</ele><time>2026-05-01T16:15:18.999Z</time></trkpt><trkpt lat="45.82658334762951" lon="11.835746234007196"><ele>285.5</ele><time>2026-05-01T16:15:39Z</time></trkpt><trkpt lat="45.82653427510625" lon="11.835678537409084"><ele>285.66666666666663</ele><time>2026-05-01T16:15:45Z</time></trkpt><trkpt lat="45.826454668107516" lon="11.835615319827646"><ele>285.8333333333333</ele><time>2026-05-01T16:15:49Z</time></trkpt><trkpt lat="45.82638254944137" lon="11.835636138054449"><ele>286.0</ele><time>2026-05-01T16:15:58Z</time></trkpt><trkpt lat="45.826299943051346" lon="11.835550678702083"><ele>286.0</ele><time>2026-05-01T16:16:00Z</time></trkpt><trkpt lat="45.82623551611648" lon="11.835471659816857"><ele>286.0</ele><time>2026-05-01T16:16:01Z</time></trkpt><trkpt lat="45.82617920802686" lon="11.835397046686804"><ele>286.0</ele><time>2026-05-01T16:16:02Z</time></trkpt><trkpt lat="45.82608976300858" lon="11.83530411933303"><ele>286.0</ele><time>2026-05-01T16:16:03Z</time></trkpt><trkpt lat="45.8259928843164" lon="11.83519341330359"><ele>286.0</ele><time>2026-05-01T16:16:04Z</time></trkpt><trkpt lat="45.8258896827695" lon="11.835065589257526"><ele>285.25</ele><time>2026-05-01T16:16:05Z</time></trkpt><trkpt lat="45.82578957284319" lon="11.834966896001974"><ele>284.5</ele><time>2026-05-01T16:16:06Z</time></trkpt><trkpt lat="45.82567717577528" lon="11.83485222983903"><ele>283.75</ele><time>2026-05-01T16:16:07Z</time></trkpt><trkpt lat="45.8255694185374" lon="11.83473508162977"><ele>283.0</ele><time>2026-05-01T16:16:08Z</time></trkpt><trkpt lat="45.82546067377172" lon="11.834620527323722"><ele>283.0</ele><time>2026-05-01T16:16:09Z</time></trkpt><trkpt lat="45.82534276828702" lon="11.834486843229355"><ele>283.0</ele><time>2026-05-01T16:16:10Z</time></trkpt><trkpt lat="45.82521598002068" lon="11.83436328701121"><ele>283.0</ele><time>2026-05-01T16:16:11Z</time></trkpt><trkpt lat="45.82509978478382" lon="11.834237761280292"><ele>283.0</ele><time>2026-05-01T16:16:12Z</time></trkpt><trkpt lat="45.82498152058822" lon="11.834114881003204"><ele>281.3333333333333</ele><time>2026-05-01T16:16:13Z</time></trkpt><trkpt lat="45.82485975510329" lon="11.833977999491497"><ele>279.6666666666667</ele><time>2026-05-01T16:16:13.999Z</time></trkpt><trkpt lat="45.82473642177995" lon="11.833840155920926"><ele>278.0</ele><time>2026-05-01T16:16:14.999Z</time></trkpt><trkpt lat="45.82460458623926" lon="11.83369769237523"><ele>278.0</ele><time>2026-05-01T16:16:15.999Z</time></trkpt><trkpt lat="45.8244767390816" lon="11.833566774605549"><ele>278.0</ele><time>2026-05-01T16:16:16.999Z</time></trkpt><trkpt lat="45.824346352038845" lon="11.833424224979051"><ele>278.0</ele><time>2026-05-01T16:16:17.999Z</time></trkpt><trkpt lat="45.82420803413454" lon="11.833284077889864"><ele>276.33333333333337</ele><time>2026-05-01T16:16:18.999Z</time></trkpt><trkpt lat="45.824077923518765" lon="11.833143736262398"><ele>274.6666666666667</ele><time>2026-05-01T16:16:19.999Z</time></trkpt><trkpt lat="45.82394775123556" lon="11.833001238583062"><ele>273.0</ele><time>2026-05-01T16:16:20.999Z</time></trkpt><trkpt lat="45.82381854887118" lon="11.832862643210259"><ele>273.0</ele><time>2026-05-01T16:16:21.999Z</time></trkpt><trkpt lat="45.82368809594449" lon="11.832705996161001"><ele>273.0</ele><time>2026-05-01T16:16:22.999Z</time></trkpt><trkpt lat="45.82357359020031" lon="11.832540246599791"><ele>273.0</ele><time>2026-05-01T16:16:23.999Z</time></trkpt><trkpt lat="45.82346006608735" lon="11.832350710947106"><ele>272.0</ele><time>2026-05-01T16:16:24.999Z</time></trkpt><trkpt lat="45.82335434020492" lon="11.832156607652806"><ele>271.0</ele><time>2026-05-01T16:16:25.999Z</time></trkpt><trkpt lat="45.82324142373401" lon="11.831963002239792"><ele>270.0</ele><time>2026-05-01T16:16:26.999Z</time></trkpt><trkpt lat="45.82313170510561" lon="11.831752336122104"><ele>270.0</ele><time>2026-05-01T16:16:27.999Z</time></trkpt><trkpt lat="45.823022609018" lon="11.831545988046113"><ele>270.0</ele><time>2026-05-01T16:16:28.999Z</time></trkpt><trkpt lat="45.822919831848004" lon="11.831350819544676"><ele>270.0</ele><time>2026-05-01T16:16:29.999Z</time></trkpt><trkpt lat="45.82280640111329" lon="11.831151555619211"><ele>269.3333333333333</ele><time>2026-05-01T16:16:30.999Z</time></trkpt><trkpt lat="45.82269670622347" lon="11.830952137587142"><ele>268.66666666666663</ele><time>2026-05-01T16:16:31.999Z</time></trkpt><trkpt lat="45.82258561320013" lon="11.830752364121034"><ele>268.0</ele><time>2026-05-01T16:16:32.999Z</time></trkpt><trkpt lat="45.822480868326515" lon="11.830557734471839"><ele>267.25</ele><time>2026-05-01T16:16:33.999Z</time></trkpt><trkpt lat="45.82238645447478" lon="11.830376673634103"><ele>266.5</ele><time>2026-05-01T16:16:34.999Z</time></trkpt><trkpt lat="45.8223008179392" lon="11.830206591622341"><ele>265.75</ele><time>2026-05-01T16:16:35.999Z</time></trkpt><trkpt lat="45.822221600971716" lon="11.830039354933891"><ele>265.0</ele><time>2026-05-01T16:16:36.999Z</time></trkpt><trkpt lat="45.822142114126564" lon="11.82989511875631"><ele>264.75</ele><time>2026-05-01T16:16:37.999Z</time></trkpt><trkpt lat="45.822060428529866" lon="11.829770677500228"><ele>264.5</ele><time>2026-05-01T16:16:38.999Z</time></trkpt><trkpt lat="45.821975326766314" lon="11.829637306432817"><ele>264.25</ele><time>2026-05-01T16:16:39.999Z</time></trkpt><trkpt lat="45.82190312975372" lon="11.829459560062059"><ele>264.0</ele><time>2026-05-01T16:16:40.999Z</time></trkpt><trkpt lat="45.82186887890044" lon="11.829260455414426"><ele>263.6666666666667</ele><time>2026-05-01T16:16:41.999Z</time></trkpt><trkpt lat="45.82183186306539" lon="11.829049104911938"><ele>263.33333333333337</ele><time>2026-05-01T16:16:42.999Z</time></trkpt><trkpt lat="45.821777753496875" lon="11.828829645278145"><ele>263.0</ele><time>2026-05-01T16:16:43.999Z</time></trkpt><trkpt lat="45.82172913051757" lon="11.828602498535815"><ele>262.0</ele><time>2026-05-01T16:16:44.999Z</time></trkpt><trkpt lat="45.82167199700987" lon="11.828360854821176"><ele>261.0</ele><time>2026-05-01T16:16:45.999Z</time></trkpt><trkpt lat="45.82160497866325" lon="11.828103131944275"><ele>260.0</ele><time>2026-05-01T16:16:46.999Z</time></trkpt><trkpt lat="45.82153212532188" lon="11.827816574403851"><ele>259.6666666666667</ele><time>2026-05-01T16:16:47.999Z</time></trkpt><trkpt lat="45.821463276085176" lon="11.827541264305104"><ele>259.3333333333333</ele><time>2026-05-01T16:16:48.999Z</time></trkpt><trkpt lat="45.82139587111397" lon="11.827290849127637"><ele>259.0</ele><time>2026-05-01T16:16:49.999Z</time></trkpt><trkpt lat="45.821337284280425" lon="11.827039462915309"><ele>258.3333333333333</ele><time>2026-05-01T16:16:50.999Z</time></trkpt><trkpt lat="45.82127307752522" lon="11.826787948315827"><ele>257.6666666666667</ele><time>2026-05-01T16:16:51.999Z</time></trkpt><trkpt lat="45.82119986186236" lon="11.826541389125811"><ele>257.0</ele><time>2026-05-01T16:16:52.999Z</time></trkpt><trkpt lat="45.821131488560674" lon="11.826276266127682"><ele>257.0</ele><time>2026-05-01T16:16:53.999Z</time></trkpt><trkpt lat="45.82105892994034" lon="11.82600881814732"><ele>257.0</ele><time>2026-05-01T16:16:54.999Z</time></trkpt><trkpt lat="45.82098639968625" lon="11.825737169875802"><ele>257.0</ele><time>2026-05-01T16:16:55.999Z</time></trkpt><trkpt lat="45.820927246734975" lon="11.82546876473579"><ele>255.33333333333334</ele><time>2026-05-01T16:16:56.999Z</time></trkpt><trkpt lat="45.820870408013114" lon="11.825209491590767"><ele>253.66666666666669</ele><time>2026-05-01T16:16:57.999Z</time></trkpt><trkpt lat="45.82081184523966" lon="11.824949867723593"><ele>252.0</ele><time>2026-05-01T16:16:58.999Z</time></trkpt><trkpt lat="45.820757197672194" lon="11.82469571661324"><ele>251.33333333333331</ele><time>2026-05-01T16:16:59.999Z</time></trkpt><trkpt lat="45.820696398526415" lon="11.824439111404747"><ele>250.66666666666666</ele><time>2026-05-01T16:17:00.999Z</time></trkpt><trkpt lat="45.820637777352744" lon="11.824185451425663"><ele>250.0</ele><time>2026-05-01T16:17:01.999Z</time></trkpt><trkpt lat="45.820584807818186" lon="11.823925076704578"><ele>250.0</ele><time>2026-05-01T16:17:02.999Z</time></trkpt><trkpt lat="45.82052899734481" lon="11.823669128748753"><ele>250.0</ele><time>2026-05-01T16:17:03.999Z</time></trkpt><trkpt lat="45.820479546571676" lon="11.823412073877636"><ele>250.0</ele><time>2026-05-01T16:17:04.999Z</time></trkpt><trkpt lat="45.8204279368254" lon="11.823164445107523"><ele>250.0</ele><time>2026-05-01T16:17:05.999Z</time></trkpt><trkpt lat="45.82037704516665" lon="11.822910439747847"><ele>250.0</ele><time>2026-05-01T16:17:06.999Z</time></trkpt><trkpt lat="45.82032809693279" lon="11.822659342568969"><ele>250.0</ele><time>2026-05-01T16:17:07.999Z</time></trkpt><trkpt lat="45.82027270321292" lon="11.822413010093639"><ele>249.66666666666666</ele><time>2026-05-01T16:17:08.999Z</time></trkpt><trkpt lat="45.82021925715201" lon="11.822160999057182"><ele>249.33333333333331</ele><time>2026-05-01T16:17:09.999Z</time></trkpt><trkpt lat="45.82016216403226" lon="11.821907930582677"><ele>249.0</ele><time>2026-05-01T16:17:10.999Z</time></trkpt><trkpt lat="45.82010678539956" lon="11.821653527229634"><ele>247.66666666666669</ele><time>2026-05-01T16:17:11.999Z</time></trkpt><trkpt lat="45.82005641309169" lon="11.821407591067809"><ele>246.33333333333334</ele><time>2026-05-01T16:17:12.999Z</time></trkpt><trkpt lat="45.8200183648873" lon="11.821166050237332"><ele>245.0</ele><time>2026-05-01T16:17:13.999Z</time></trkpt><trkpt lat="45.81998027769779" lon="11.82093389405708"><ele>244.33333333333334</ele><time>2026-05-01T16:17:14.999Z</time></trkpt><trkpt lat="45.81994392714408" lon="11.820714155251983"><ele>243.66666666666669</ele><time>2026-05-01T16:17:15.999Z</time></trkpt><trkpt lat="45.81991129975115" lon="11.820496334826458"><ele>243.0</ele><time>2026-05-01T16:17:16.999Z</time></trkpt><trkpt lat="45.819889164361534" lon="11.820284939546992"><ele>242.25</ele><time>2026-05-01T16:17:17.999Z</time></trkpt><trkpt lat="45.819864208248575" lon="11.820096457487738"><ele>241.5</ele><time>2026-05-01T16:17:18.999Z</time></trkpt><trkpt lat="45.81983596209109" lon="11.819905197944436"><ele>240.75</ele><time>2026-05-01T16:17:19.999Z</time></trkpt><trkpt lat="45.8197895340094" lon="11.819719495117315"><ele>240.0</ele><time>2026-05-01T16:17:20.999Z</time></trkpt><trkpt lat="45.81973865472077" lon="11.819534230641937"><ele>240.0</ele><time>2026-05-01T16:17:21.999Z</time></trkpt><trkpt lat="45.81967459175985" lon="11.819353058135967"><ele>240.0</ele><time>2026-05-01T16:17:22.999Z</time></trkpt><trkpt lat="45.81959641709474" lon="11.819166394797467"><ele>240.0</ele><time>2026-05-01T16:17:23.999Z</time></trkpt><trkpt lat="45.81951846680957" lon="11.818988040069533"><ele>240.0</ele><time>2026-05-01T16:17:24.999Z</time></trkpt><trkpt lat="45.81943380267521" lon="11.81880496119634"><ele>239.0</ele><time>2026-05-01T16:17:25.999Z</time></trkpt><trkpt lat="45.81934779249488" lon="11.81861589436089"><ele>238.0</ele><time>2026-05-01T16:17:26.998Z</time></trkpt><trkpt lat="45.819264798748755" lon="11.818425596707879"><ele>237.0</ele><time>2026-05-01T16:17:27.998Z</time></trkpt><trkpt lat="45.819185278895894" lon="11.818244009459173"><ele>235.75</ele><time>2026-05-01T16:17:28.998Z</time></trkpt><trkpt lat="45.81911142429519" lon="11.818051666086351"><ele>234.5</ele><time>2026-05-01T16:17:29.998Z</time></trkpt><trkpt lat="45.819040392793426" lon="11.817879509405644"><ele>233.25</ele><time>2026-05-01T16:17:31Z</time></trkpt><trkpt lat="45.81897185192884" lon="11.817694614065728"><ele>232.0</ele><time>2026-05-01T16:17:32Z</time></trkpt><trkpt lat="45.81890634481093" lon="11.817522635221097"><ele>231.5</ele><time>2026-05-01T16:17:33Z</time></trkpt><trkpt lat="45.818836669844764" lon="11.817361018367615"><ele>231.0</ele><time>2026-05-01T16:17:34Z</time></trkpt><trkpt lat="45.81877266282021" lon="11.817210630519895"><ele>230.5</ele><time>2026-05-01T16:17:35Z</time></trkpt><trkpt lat="45.818705967635125" lon="11.817050220531447"><ele>230.0</ele><time>2026-05-01T16:17:36Z</time></trkpt><trkpt lat="45.81864779268022" lon="11.816902746071131"><ele>229.25</ele><time>2026-05-01T16:17:37Z</time></trkpt><trkpt lat="45.81858655415304" lon="11.816769948652382"><ele>228.5</ele><time>2026-05-01T16:17:38Z</time></trkpt><trkpt lat="45.81853359077535" lon="11.816635773697454"><ele>227.75</ele><time>2026-05-01T16:17:39Z</time></trkpt><trkpt lat="45.81847626779426" lon="11.816489387948769"><ele>227.0</ele><time>2026-05-01T16:17:40Z</time></trkpt><trkpt lat="45.81841747382772" lon="11.816345676381985"><ele>226.0</ele><time>2026-05-01T16:17:41Z</time></trkpt><trkpt lat="45.818355143541346" lon="11.816197538924122"><ele>225.0</ele><time>2026-05-01T16:17:42Z</time></trkpt><trkpt lat="45.818299719908666" lon="11.816042979380391"><ele>224.0</ele><time>2026-05-01T16:17:43Z</time></trkpt><trkpt lat="45.818240543676396" lon="11.815882285301031"><ele>223.0</ele><time>2026-05-01T16:17:44Z</time></trkpt><trkpt lat="45.818183450282916" lon="11.815708617508923"><ele>222.33333333333331</ele><time>2026-05-01T16:17:45Z</time></trkpt><trkpt lat="45.81813738829817" lon="11.815513158250972"><ele>221.66666666666669</ele><time>2026-05-01T16:17:46Z</time></trkpt><trkpt lat="45.818085911371455" lon="11.815303895966187"><ele>221.0</ele><time>2026-05-01T16:17:47Z</time></trkpt><trkpt lat="45.81804275607183" lon="11.815095920107249"><ele>221.0</ele><time>2026-05-01T16:17:48Z</time></trkpt><trkpt lat="45.817998721227085" lon="11.814881683416598"><ele>221.0</ele><time>2026-05-01T16:17:49Z</time></trkpt><trkpt lat="45.81795262196729" lon="11.814641504693636"><ele>221.0</ele><time>2026-05-01T16:17:50Z</time></trkpt><trkpt lat="45.81789894086366" lon="11.814409068045894"><ele>221.33333333333334</ele><time>2026-05-01T16:17:51Z</time></trkpt><trkpt lat="45.817846413440115" lon="11.814173854820801"><ele>221.66666666666669</ele><time>2026-05-01T16:17:52Z</time></trkpt><trkpt lat="45.817788271385474" lon="11.813923416859042"><ele>222.0</ele><time>2026-05-01T16:17:53Z</time></trkpt><trkpt lat="45.817732478299256" lon="11.813666917717791"><ele>222.0</ele><time>2026-05-01T16:17:54Z</time></trkpt><trkpt lat="45.817665807684534" lon="11.81341098757073"><ele>222.0</ele><time>2026-05-01T16:17:55Z</time></trkpt><trkpt lat="45.81761462640392" lon="11.813155828483215"><ele>222.0</ele><time>2026-05-01T16:17:56Z</time></trkpt><trkpt lat="45.81754861634153" lon="11.812898522332974"><ele>219.33333333333331</ele><time>2026-05-01T16:17:57Z</time></trkpt><trkpt lat="45.81748303042866" lon="11.812631540733923"><ele>216.66666666666666</ele><time>2026-05-01T16:17:58Z</time></trkpt><trkpt lat="45.81742956540517" lon="11.812369971304836"><ele>214.0</ele><time>2026-05-01T16:17:59Z</time></trkpt><trkpt lat="45.81737116163279" lon="11.812110754617793"><ele>214.0</ele><time>2026-05-01T16:18:00Z</time></trkpt><trkpt lat="45.817305392963036" lon="11.811845706356403"><ele>214.0</ele><time>2026-05-01T16:18:01Z</time></trkpt><trkpt lat="45.8172508666197" lon="11.811600237634899"><ele>214.0</ele><time>2026-05-01T16:18:02Z</time></trkpt><trkpt lat="45.81718620908728" lon="11.811329636488646"><ele>214.33333333333331</ele><time>2026-05-01T16:18:03Z</time></trkpt><trkpt lat="45.817121789047484" lon="11.811038610335057"><ele>214.66666666666669</ele><time>2026-05-01T16:18:04Z</time></trkpt><trkpt lat="45.817055235161256" lon="11.810756902760039"><ele>215.0</ele><time>2026-05-01T16:18:05Z</time></trkpt><trkpt lat="45.81698959620199" lon="11.810478248809762"><ele>215.0</ele><time>2026-05-01T16:18:06Z</time></trkpt><trkpt lat="45.816927441149126" lon="11.810214737538683"><ele>215.0</ele><time>2026-05-01T16:18:07Z</time></trkpt><trkpt lat="45.81686975026181" lon="11.809938058314264"><ele>215.0</ele><time>2026-05-01T16:18:08Z</time></trkpt><trkpt lat="45.81680582704543" lon="11.8096839855939"><ele>213.33333333333334</ele><time>2026-05-01T16:18:09Z</time></trkpt><trkpt lat="45.81674738406843" lon="11.809430006315397"><ele>211.66666666666669</ele><time>2026-05-01T16:18:10Z</time></trkpt><trkpt lat="45.816689028760806" lon="11.809167358464622"><ele>210.0</ele><time>2026-05-01T16:18:11Z</time></trkpt><trkpt lat="45.81663500062191" lon="11.808924438524915"><ele>210.0</ele><time>2026-05-01T16:18:12Z</time></trkpt><trkpt lat="45.81657821853035" lon="11.808683792125981"><ele>210.0</ele><time>2026-05-01T16:18:13Z</time></trkpt><trkpt lat="45.81652223251089" lon="11.808445257799288"><ele>210.0</ele><time>2026-05-01T16:18:14Z</time></trkpt><trkpt lat="45.81646839190044" lon="11.808209048801336"><ele>209.66666666666669</ele><time>2026-05-01T16:18:15Z</time></trkpt><trkpt lat="45.816414340689676" lon="11.807964377405574"><ele>209.33333333333334</ele><time>2026-05-01T16:18:16Z</time></trkpt><trkpt lat="45.81636739182281" lon="11.80774616443569"><ele>209.0</ele><time>2026-05-01T16:18:17Z</time></trkpt><trkpt lat="45.81632155762797" lon="11.807535681994525"><ele>209.0</ele><time>2026-05-01T16:18:18Z</time></trkpt><trkpt lat="45.816277240563316" lon="11.807338283899059"><ele>209.0</ele><time>2026-05-01T16:18:19Z</time></trkpt><trkpt lat="45.81623024794397" lon="11.807163833801772"><ele>209.0</ele><time>2026-05-01T16:18:20Z</time></trkpt><trkpt lat="45.81617929364965" lon="11.807002024380383"><ele>209.0</ele><time>2026-05-01T16:18:20.999Z</time></trkpt><trkpt lat="45.81615541541091" lon="11.806844209683488"><ele>208.75</ele><time>2026-05-01T16:18:21.999Z</time></trkpt><trkpt lat="45.81612491805502" lon="11.806678091375003"><ele>208.5</ele><time>2026-05-01T16:18:22.999Z</time></trkpt><trkpt lat="45.81609304915491" lon="11.806503078539585"><ele>208.25</ele><time>2026-05-01T16:18:23.999Z</time></trkpt><trkpt lat="45.816059478718635" lon="11.80632016884875"><ele>208.0</ele><time>2026-05-01T16:18:24.999Z</time></trkpt><trkpt lat="45.81601240150695" lon="11.80610833591763"><ele>206.0</ele><time>2026-05-01T16:18:25.999Z</time></trkpt><trkpt lat="45.81598961067377" lon="11.805879512191321"><ele>204.0</ele><time>2026-05-01T16:18:26.999Z</time></trkpt><trkpt lat="45.81596482049473" lon="11.805647140094171"><ele>202.0</ele><time>2026-05-01T16:18:27.999Z</time></trkpt><trkpt lat="45.8159433040586" lon="11.805388296416934"><ele>200.66666666666666</ele><time>2026-05-01T16:18:28.999Z</time></trkpt><trkpt lat="45.81591709971168" lon="11.805104638492944"><ele>199.33333333333331</ele><time>2026-05-01T16:18:29.999Z</time></trkpt><trkpt lat="45.81588402858643" lon="11.804792562828474"><ele>198.0</ele><time>2026-05-01T16:18:30.999Z</time></trkpt><trkpt lat="45.81586038293705" lon="11.804513470290297"><ele>198.0</ele><time>2026-05-01T16:18:31.999Z</time></trkpt><trkpt lat="45.81582896220982" lon="11.804226780012828"><ele>198.0</ele><time>2026-05-01T16:18:32.999Z</time></trkpt><trkpt lat="45.81580840298136" lon="11.80394349470308"><ele>198.0</ele><time>2026-05-01T16:18:33.999Z</time></trkpt><trkpt lat="45.81577885041691" lon="11.803675621215579"><ele>199.0</ele><time>2026-05-01T16:18:34.999Z</time></trkpt><trkpt lat="45.81575360104902" lon="11.80341492924016"><ele>200.0</ele><time>2026-05-01T16:18:35.999Z</time></trkpt><trkpt lat="45.81573054422258" lon="11.803160417264511"><ele>201.0</ele><time>2026-05-01T16:18:36.999Z</time></trkpt><trkpt lat="45.815709991299435" lon="11.802920831730692"><ele>201.0</ele><time>2026-05-01T16:18:37.999Z</time></trkpt><trkpt lat="45.81569066822161" lon="11.802701527771159"><ele>201.0</ele><time>2026-05-01T16:18:38.999Z</time></trkpt><trkpt lat="45.81566717448871" lon="11.802488306028053"><ele>201.0</ele><time>2026-05-01T16:18:39.999Z</time></trkpt><trkpt lat="45.815647336433194" lon="11.802275632765067"><ele>200.75</ele><time>2026-05-01T16:18:40.999Z</time></trkpt><trkpt lat="45.81562392747461" lon="11.802059462851131"><ele>200.5</ele><time>2026-05-01T16:18:41.999Z</time></trkpt><trkpt lat="45.81560630250418" lon="11.801847762840207"><ele>200.25</ele><time>2026-05-01T16:18:42.999Z</time></trkpt><trkpt lat="45.81558855668592" lon="11.801642687495242"><ele>200.0</ele><time>2026-05-01T16:18:43.999Z</time></trkpt><trkpt lat="45.81556884296314" lon="11.8014446569817"><ele>199.5</ele><time>2026-05-01T16:18:44.999Z</time></trkpt><trkpt lat="45.815546132155035" lon="11.801259649590566"><ele>199.0</ele><time>2026-05-01T16:18:45.999Z</time></trkpt><trkpt lat="45.815521134831705" lon="11.801086882654625"><ele>198.5</ele><time>2026-05-01T16:18:46.999Z</time></trkpt><trkpt lat="45.815502576862755" lon="11.800891997270684"><ele>198.0</ele><time>2026-05-01T16:18:47.999Z</time></trkpt><trkpt lat="45.81548463470636" lon="11.80070467079717"><ele>197.75</ele><time>2026-05-01T16:18:48.999Z</time></trkpt><trkpt lat="45.815464361113044" lon="11.800518656509247"><ele>197.5</ele><time>2026-05-01T16:18:49.999Z</time></trkpt><trkpt lat="45.81545243153184" lon="11.80032761780275"><ele>197.25</ele><time>2026-05-01T16:18:50.999Z</time></trkpt><trkpt lat="45.81544298542018" lon="11.800143252971742"><ele>197.0</ele><time>2026-05-01T16:18:51.999Z</time></trkpt><trkpt lat="45.81543414119446" lon="11.799954155044322"><ele>196.25</ele><time>2026-05-01T16:18:52.999Z</time></trkpt><trkpt lat="45.81543860714387" lon="11.799775396702794"><ele>195.5</ele><time>2026-05-01T16:18:53.999Z</time></trkpt><trkpt lat="45.8154400521057" lon="11.799585047276311"><ele>194.75</ele><time>2026-05-01T16:18:54.999Z</time></trkpt><trkpt lat="45.81544828027209" lon="11.799396452171642"><ele>194.0</ele><time>2026-05-01T16:18:55.999Z</time></trkpt><trkpt lat="45.815456760775355" lon="11.799201013255528"><ele>193.75</ele><time>2026-05-01T16:18:56.999Z</time></trkpt><trkpt lat="45.815460751972445" lon="11.799007081345088"><ele>193.5</ele><time>2026-05-01T16:18:57.999Z</time></trkpt><trkpt lat="45.81546385211566" lon="11.798814933633738"><ele>193.25</ele><time>2026-05-01T16:18:58.999Z</time></trkpt><trkpt lat="45.815472871302134" lon="11.798621087477526"><ele>193.0</ele><time>2026-05-01T16:18:59.999Z</time></trkpt><trkpt lat="45.815471381006155" lon="11.798421020722376"><ele>192.25</ele><time>2026-05-01T16:19:00.999Z</time></trkpt><trkpt lat="45.81547216407483" lon="11.798224761077863"><ele>191.5</ele><time>2026-05-01T16:19:01.999Z</time></trkpt><trkpt lat="45.81547368445591" lon="11.798019356203877"><ele>190.75</ele><time>2026-05-01T16:19:02.999Z</time></trkpt><trkpt lat="45.815460260356566" lon="11.797803004739757"><ele>190.0</ele><time>2026-05-01T16:19:03.999Z</time></trkpt><trkpt lat="45.81546561366389" lon="11.797590799560885"><ele>188.66666666666669</ele><time>2026-05-01T16:19:04.999Z</time></trkpt><trkpt lat="45.81546136557127" lon="11.797376677885742"><ele>187.33333333333334</ele><time>2026-05-01T16:19:05.999Z</time></trkpt><trkpt lat="45.81544740608441" lon="11.797149392752363"><ele>186.0</ele><time>2026-05-01T16:19:06.999Z</time></trkpt><trkpt lat="45.81545140376245" lon="11.79692406553987"><ele>185.0</ele><time>2026-05-01T16:19:07.999Z</time></trkpt><trkpt lat="45.815455954806595" lon="11.796706630889377"><ele>184.0</ele><time>2026-05-01T16:19:08.999Z</time></trkpt><trkpt lat="45.81545775299922" lon="11.79649862860559"><ele>183.0</ele><time>2026-05-01T16:19:09.999Z</time></trkpt><trkpt lat="45.81546135180163" lon="11.796281412268469"><ele>182.0</ele><time>2026-05-01T16:19:10.999Z</time></trkpt><trkpt lat="45.81546208459208" lon="11.796066251190648"><ele>182.5</ele><time>2026-05-01T16:19:11.999Z</time></trkpt><trkpt lat="45.81545841619651" lon="11.795861234002833"><ele>183.0</ele><time>2026-05-01T16:19:12.999Z</time></trkpt><trkpt lat="45.81546047975452" lon="11.79565900814852"><ele>183.5</ele><time>2026-05-01T16:19:13.999Z</time></trkpt><trkpt lat="45.815462134491604" lon="11.795464412840426"><ele>184.0</ele><time>2026-05-01T16:19:14.999Z</time></trkpt><trkpt lat="45.8154603564023" lon="11.795277023173039"><ele>184.5</ele><time>2026-05-01T16:19:15.999Z</time></trkpt><trkpt lat="45.81545832297914" lon="11.795085176511995"><ele>185.0</ele><time>2026-05-01T16:19:16.999Z</time></trkpt><trkpt lat="45.815462848981674" lon="11.794892275663585"><ele>185.5</ele><time>2026-05-01T16:19:17.999Z</time></trkpt><trkpt lat="45.815464308876784" lon="11.794694259817769"><ele>186.0</ele><time>2026-05-01T16:19:18.999Z</time></trkpt><trkpt lat="45.81546961395763" lon="11.794497998877183"><ele>186.0</ele><time>2026-05-01T16:19:19.999Z</time></trkpt><trkpt lat="45.81547212649522" lon="11.794304766076873"><ele>186.0</ele><time>2026-05-01T16:19:20.999Z</time></trkpt><trkpt lat="45.815470125152345" lon="11.794115599699966"><ele>186.0</ele><time>2026-05-01T16:19:21.999Z</time></trkpt><trkpt lat="45.81546160965418" lon="11.793918322306661"><ele>186.0</ele><time>2026-05-01T16:19:22.999Z</time></trkpt><trkpt lat="45.815439228898825" lon="11.793721158512612"><ele>186.0</ele><time>2026-05-01T16:19:23.999Z</time></trkpt><trkpt lat="45.815399389884625" lon="11.793529007152403"><ele>186.0</ele><time>2026-05-01T16:19:24.999Z</time></trkpt><trkpt lat="45.81535319255314" lon="11.793334713502752"><ele>186.0</ele><time>2026-05-01T16:19:25.999Z</time></trkpt><trkpt lat="45.815293750323946" lon="11.79314547915885"><ele>186.0</ele><time>2026-05-01T16:19:26.999Z</time></trkpt><trkpt lat="45.81522303258623" lon="11.792975267536098"><ele>185.5</ele><time>2026-05-01T16:19:27.999Z</time></trkpt><trkpt lat="45.815128988257435" lon="11.79282343310022"><ele>185.0</ele><time>2026-05-01T16:19:28.999Z</time></trkpt><trkpt lat="45.81502146965392" lon="11.792691876829211"><ele>184.5</ele><time>2026-05-01T16:19:29.999Z</time></trkpt><trkpt lat="45.81489854664169" lon="11.792577325637351"><ele>184.0</ele><time>2026-05-01T16:19:30.999Z</time></trkpt><trkpt lat="45.81478343524467" lon="11.792476133349012"><ele>184.5</ele><time>2026-05-01T16:19:31.999Z</time></trkpt><trkpt lat="45.814662117854034" lon="11.79238726187089"><ele>185.0</ele><time>2026-05-01T16:19:32.999Z</time></trkpt><trkpt lat="45.814539699206414" lon="11.792300422474932"><ele>185.5</ele><time>2026-05-01T16:19:33.999Z</time></trkpt><trkpt lat="45.8144216954857" lon="11.792200499614639"><ele>186.0</ele><time>2026-05-01T16:19:34.998Z</time></trkpt><trkpt lat="45.81430708745103" lon="11.792110016307388"><ele>186.0</ele><time>2026-05-01T16:19:35.998Z</time></trkpt><trkpt lat="45.81418814550221" lon="11.792005867986875"><ele>186.0</ele><time>2026-05-01T16:19:37Z</time></trkpt><trkpt lat="45.814081716694204" lon="11.791890694951688"><ele>186.0</ele><time>2026-05-01T16:19:38Z</time></trkpt><trkpt lat="45.81398909954446" lon="11.791778842409878"><ele>186.0</ele><time>2026-05-01T16:19:39Z</time></trkpt><trkpt lat="45.81389279932835" lon="11.791663963980966"><ele>187.25</ele><time>2026-05-01T16:19:40Z</time></trkpt><trkpt lat="45.81379289943253" lon="11.79154938103644"><ele>188.5</ele><time>2026-05-01T16:19:41Z</time></trkpt><trkpt lat="45.81368773892941" lon="11.791437931802925"><ele>189.75</ele><time>2026-05-01T16:19:42Z</time></trkpt><trkpt lat="45.813593910840275" lon="11.791324219814088"><ele>191.0</ele><time>2026-05-01T16:19:43Z</time></trkpt><trkpt lat="45.81349991741197" lon="11.791214818886768"><ele>190.75</ele><time>2026-05-01T16:19:44Z</time></trkpt><trkpt lat="45.813403564143876" lon="11.791110819663123"><ele>190.5</ele><time>2026-05-01T16:19:45Z</time></trkpt><trkpt lat="45.81330222579758" lon="11.7909951256841"><ele>190.25</ele><time>2026-05-01T16:19:46Z</time></trkpt><trkpt lat="45.813195562137345" lon="11.79087247528035"><ele>190.0</ele><time>2026-05-01T16:19:47Z</time></trkpt><trkpt lat="45.81309524329671" lon="11.790752902032498"><ele>190.0</ele><time>2026-05-01T16:19:48Z</time></trkpt><trkpt lat="45.81299263215691" lon="11.790634420994108"><ele>190.0</ele><time>2026-05-01T16:19:49Z</time></trkpt><trkpt lat="45.812889641954094" lon="11.790509409453993"><ele>190.0</ele><time>2026-05-01T16:19:50Z</time></trkpt><trkpt lat="45.81278491225765" lon="11.790384811895988"><ele>190.0</ele><time>2026-05-01T16:19:51Z</time></trkpt><trkpt lat="45.81267700237669" lon="11.790252731305221"><ele>189.75</ele><time>2026-05-01T16:19:52Z</time></trkpt><trkpt lat="45.81256588106488" lon="11.790129617599607"><ele>189.5</ele><time>2026-05-01T16:19:53Z</time></trkpt><trkpt lat="45.812455916483515" lon="11.790001415263049"><ele>189.25</ele><time>2026-05-01T16:19:54Z</time></trkpt><trkpt lat="45.81234697040271" lon="11.789871086258735"><ele>189.0</ele><time>2026-05-01T16:19:55Z</time></trkpt><trkpt lat="45.81223427204769" lon="11.789738886372755"><ele>189.0</ele><time>2026-05-01T16:19:56Z</time></trkpt><trkpt lat="45.81212101191301" lon="11.789607628541376"><ele>189.0</ele><time>2026-05-01T16:19:57Z</time></trkpt><trkpt lat="45.812007696687466" lon="11.789473078152797"><ele>189.0</ele><time>2026-05-01T16:19:58Z</time></trkpt><trkpt lat="45.81188995261269" lon="11.789333650844998"><ele>189.0</ele><time>2026-05-01T16:19:59Z</time></trkpt><trkpt lat="45.81177757805224" lon="11.789203285357502"><ele>187.75</ele><time>2026-05-01T16:20:00Z</time></trkpt><trkpt lat="45.81166560816859" lon="11.789073349632535"><ele>186.5</ele><time>2026-05-01T16:20:01Z</time></trkpt><trkpt lat="45.81155763951502" lon="11.788950545648225"><ele>185.25</ele><time>2026-05-01T16:20:02Z</time></trkpt><trkpt lat="45.81144745060695" lon="11.788823869996065"><ele>184.0</ele><time>2026-05-01T16:20:03Z</time></trkpt><trkpt lat="45.81134022022933" lon="11.788699029902054"><ele>184.0</ele><time>2026-05-01T16:20:04Z</time></trkpt><trkpt lat="45.81123144015041" lon="11.788570292970004"><ele>184.0</ele><time>2026-05-01T16:20:05Z</time></trkpt><trkpt lat="45.81112264346388" lon="11.788440501751511"><ele>184.0</ele><time>2026-05-01T16:20:06Z</time></trkpt><trkpt lat="45.81101771546224" lon="11.78831124329549"><ele>184.0</ele><time>2026-05-01T16:20:07Z</time></trkpt><trkpt lat="45.81090093075301" lon="11.788177520580616"><ele>183.5</ele><time>2026-05-01T16:20:08Z</time></trkpt><trkpt lat="45.81078497815912" lon="11.788047653500028"><ele>183.0</ele><time>2026-05-01T16:20:09Z</time></trkpt><trkpt lat="45.81067742458106" lon="11.787919501184623"><ele>182.5</ele><time>2026-05-01T16:20:10Z</time></trkpt><trkpt lat="45.81055972498264" lon="11.787771616361189"><ele>182.0</ele><time>2026-05-01T16:20:11Z</time></trkpt><trkpt lat="45.81044365690021" lon="11.787635176153186"><ele>182.0</ele><time>2026-05-01T16:20:12Z</time></trkpt><trkpt lat="45.81032819375634" lon="11.787497974248812"><ele>182.0</ele><time>2026-05-01T16:20:13Z</time></trkpt><trkpt lat="45.81021463321044" lon="11.787359262629325"><ele>182.0</ele><time>2026-05-01T16:20:14Z</time></trkpt><trkpt lat="45.81010378230205" lon="11.787208402987552"><ele>181.75</ele><time>2026-05-01T16:20:15Z</time></trkpt><trkpt lat="45.81000691169595" lon="11.787045960708385"><ele>181.5</ele><time>2026-05-01T16:20:16Z</time></trkpt><trkpt lat="45.80992041591048" lon="11.786872315971822"><ele>181.25</ele><time>2026-05-01T16:20:17Z</time></trkpt><trkpt lat="45.809848795529234" lon="11.786687536390119"><ele>181.0</ele><time>2026-05-01T16:20:18Z</time></trkpt><trkpt lat="45.809782216015186" lon="11.786497891723572"><ele>181.0</ele><time>2026-05-01T16:20:19Z</time></trkpt><trkpt lat="45.8097256428562" lon="11.78631483767204"><ele>181.0</ele><time>2026-05-01T16:20:20Z</time></trkpt><trkpt lat="45.8096702790502" lon="11.786125621801505"><ele>181.0</ele><time>2026-05-01T16:20:21Z</time></trkpt><trkpt lat="45.80961490015777" lon="11.785954264139296"><ele>181.0</ele><time>2026-05-01T16:20:22Z</time></trkpt><trkpt lat="45.809548199811175" lon="11.785770160159851"><ele>181.75</ele><time>2026-05-01T16:20:23Z</time></trkpt><trkpt lat="45.80949737832965" lon="11.785593879220711"><ele>182.5</ele><time>2026-05-01T16:20:24Z</time></trkpt><trkpt lat="45.80943807842247" lon="11.785419349401069"><ele>183.25</ele><time>2026-05-01T16:20:25Z</time></trkpt><trkpt lat="45.80938026686412" lon="11.785243632285317"><ele>184.0</ele><time>2026-05-01T16:20:26Z</time></trkpt><trkpt lat="45.80932147464029" lon="11.785059971886684"><ele>182.5</ele><time>2026-05-01T16:20:26.999Z</time></trkpt><trkpt lat="45.80926177045072" lon="11.784884301445384"><ele>181.0</ele><time>2026-05-01T16:20:27.999Z</time></trkpt><trkpt lat="45.80920452318224" lon="11.784700314984375"><ele>179.5</ele><time>2026-05-01T16:20:28.999Z</time></trkpt><trkpt lat="45.809149987786874" lon="11.784530114649849"><ele>178.0</ele><time>2026-05-01T16:20:29.999Z</time></trkpt><trkpt lat="45.80908666978738" lon="11.78435045533486"><ele>178.5</ele><time>2026-05-01T16:20:30.999Z</time></trkpt><trkpt lat="45.80903267207287" lon="11.784167779057169"><ele>179.0</ele><time>2026-05-01T16:20:31.999Z</time></trkpt><trkpt lat="45.80897618520428" lon="11.783979074411715"><ele>179.5</ele><time>2026-05-01T16:20:32.999Z</time></trkpt><trkpt lat="45.808919888159124" lon="11.783801848176545"><ele>180.0</ele><time>2026-05-01T16:20:33.999Z</time></trkpt><trkpt lat="45.80886210780655" lon="11.783609375441005"><ele>181.33333333333334</ele><time>2026-05-01T16:20:34.999Z</time></trkpt><trkpt lat="45.808797621333916" lon="11.783413939887826"><ele>182.66666666666669</ele><time>2026-05-01T16:20:35.999Z</time></trkpt><trkpt lat="45.80873191879833" lon="11.783210314410224"><ele>184.0</ele><time>2026-05-01T16:20:36.999Z</time></trkpt><trkpt lat="45.80867138529681" lon="11.783022169665466"><ele>184.0</ele><time>2026-05-01T16:20:37.999Z</time></trkpt><trkpt lat="45.80860671667629" lon="11.782816662881503"><ele>184.0</ele><time>2026-05-01T16:20:38.999Z</time></trkpt><trkpt lat="45.808544489852956" lon="11.782623713545197"><ele>184.0</ele><time>2026-05-01T16:20:39.999Z</time></trkpt><trkpt lat="45.80848137851994" lon="11.782424180937767"><ele>182.25</ele><time>2026-05-01T16:20:40.999Z</time></trkpt><trkpt lat="45.80842050110654" lon="11.782234590740833"><ele>180.5</ele><time>2026-05-01T16:20:41.999Z</time></trkpt><trkpt lat="45.80836126484702" lon="11.78204570002761"><ele>178.75</ele><time>2026-05-01T16:20:42.999Z</time></trkpt><trkpt lat="45.80830279481153" lon="11.78185771192508"><ele>177.0</ele><time>2026-05-01T16:20:43.999Z</time></trkpt><trkpt lat="45.80824536838348" lon="11.781668235702009"><ele>177.0</ele><time>2026-05-01T16:20:44.999Z</time></trkpt><trkpt lat="45.808181836617216" lon="11.781484698185732"><ele>177.0</ele><time>2026-05-01T16:20:45.999Z</time></trkpt><trkpt lat="45.80812390174389" lon="11.781309972990899"><ele>177.0</ele><time>2026-05-01T16:20:46.999Z</time></trkpt><trkpt lat="45.80807513095011" lon="11.781140234747005"><ele>177.0</ele><time>2026-05-01T16:20:47.999Z</time></trkpt><trkpt lat="45.808023847713905" lon="11.780984373485937"><ele>177.0</ele><time>2026-05-01T16:20:48.999Z</time></trkpt><trkpt lat="45.80797516105436" lon="11.780841943916885"><ele>177.0</ele><time>2026-05-01T16:20:49.999Z</time></trkpt><trkpt lat="45.807928066217926" lon="11.780712754807796"><ele>177.0</ele><time>2026-05-01T16:20:50.999Z</time></trkpt><trkpt lat="45.807890246421856" lon="11.780605692808232"><ele>177.0</ele><time>2026-05-01T16:20:51.999Z</time></trkpt><trkpt lat="45.80787090466325" lon="11.780498314588595"><ele>177.0</ele><time>2026-05-01T16:20:52.999Z</time></trkpt><trkpt lat="45.80789399334179" lon="11.780409421451646"><ele>177.0</ele><time>2026-05-01T16:20:53.999Z</time></trkpt><trkpt lat="45.80796927438894" lon="11.780349180236675"><ele>177.0</ele><time>2026-05-01T16:20:54.999Z</time></trkpt><trkpt lat="45.80802860105039" lon="11.78023858457451"><ele>177.0</ele><time>2026-05-01T16:20:55.999Z</time></trkpt><trkpt lat="45.80810345491347" lon="11.780096841631085"><ele>177.0</ele><time>2026-05-01T16:20:56.999Z</time></trkpt><trkpt lat="45.8081808917736" lon="11.77994759813514"><ele>177.0</ele><time>2026-05-01T16:20:57.999Z</time></trkpt><trkpt lat="45.80827880248737" lon="11.779769738505445"><ele>176.66666666666666</ele><time>2026-05-01T16:20:58.999Z</time></trkpt><trkpt lat="45.80839580638709" lon="11.779562107471577"><ele>176.33333333333331</ele><time>2026-05-01T16:20:59.999Z</time></trkpt><trkpt lat="45.808502396476044" lon="11.779357366018187"><ele>176.0</ele><time>2026-05-01T16:21:00.999Z</time></trkpt><trkpt lat="45.808597965060564" lon="11.779114532019666"><ele>178.0</ele><time>2026-05-01T16:21:01.999Z</time></trkpt><trkpt lat="45.80867677959273" lon="11.778844046182776"><ele>180.0</ele><time>2026-05-01T16:21:02.999Z</time></trkpt><trkpt lat="45.80876496223427" lon="11.778553774963276"><ele>182.0</ele><time>2026-05-01T16:21:03.999Z</time></trkpt><trkpt lat="45.808842761392704" lon="11.778310038631952"><ele>182.0</ele><time>2026-05-01T16:21:04.999Z</time></trkpt><trkpt lat="45.80891208981309" lon="11.778090858372853"><ele>182.0</ele><time>2026-05-01T16:21:05.999Z</time></trkpt><trkpt lat="45.80896861211868" lon="11.77789468815363"><ele>182.0</ele><time>2026-05-01T16:21:06.999Z</time></trkpt><trkpt lat="45.80904483766661" lon="11.777718520825301"><ele>182.0</ele><time>2026-05-01T16:21:07.999Z</time></trkpt><trkpt lat="45.809108424229166" lon="11.77750548493807"><ele>182.0</ele><time>2026-05-01T16:21:08.999Z</time></trkpt><trkpt lat="45.809203410494824" lon="11.777329651071478"><ele>182.0</ele><time>2026-05-01T16:21:09.999Z</time></trkpt><trkpt lat="45.809297758864446" lon="11.777138443203073"><ele>183.75</ele><time>2026-05-01T16:21:10.999Z</time></trkpt><trkpt lat="45.80938830845578" lon="11.776932957357454"><ele>185.5</ele><time>2026-05-01T16:21:11.999Z</time></trkpt><trkpt lat="45.80948127815795" lon="11.776770392104794"><ele>187.25</ele><time>2026-05-01T16:21:12.999Z</time></trkpt><trkpt lat="45.80955150473451" lon="11.776642693187469"><ele>189.0</ele><time>2026-05-01T16:21:13.999Z</time></trkpt><trkpt lat="45.80961007226556" lon="11.776541456168921"><ele>189.0</ele><time>2026-05-01T16:21:14.999Z</time></trkpt><trkpt lat="45.809663155761044" lon="11.776442300538271"><ele>189.0</ele><time>2026-05-01T16:21:15.999Z</time></trkpt><trkpt lat="45.80972369517489" lon="11.77632450070094"><ele>189.0</ele><time>2026-05-01T16:21:16.999Z</time></trkpt><trkpt lat="45.80979424448605" lon="11.77620000927577"><ele>189.0</ele><time>2026-05-01T16:21:17.999Z</time></trkpt><trkpt lat="45.80987380053363" lon="11.776073981237477"><ele>189.0</ele><time>2026-05-01T16:21:18.999Z</time></trkpt><trkpt lat="45.809966146463836" lon="11.775944103859842"><ele>189.0</ele><time>2026-05-01T16:21:19.999Z</time></trkpt><trkpt lat="45.81006657018446" lon="11.775809818362294"><ele>189.0</ele><time>2026-05-01T16:21:20.999Z</time></trkpt><trkpt lat="45.81017502700507" lon="11.775668354353456"><ele>189.0</ele><time>2026-05-01T16:21:21.999Z</time></trkpt><trkpt lat="45.81027097545051" lon="11.775544069403905"><ele>189.0</ele><time>2026-05-01T16:21:22.999Z</time></trkpt><trkpt lat="45.8103592644515" lon="11.775434939406328"><ele>189.6</ele><time>2026-05-01T16:21:23.999Z</time></trkpt><trkpt lat="45.810434654040066" lon="11.775332137347707"><ele>190.2</ele><time>2026-05-01T16:21:24.999Z</time></trkpt><trkpt lat="45.810514054373115" lon="11.775230686866257"><ele>190.79999999999998</ele><time>2026-05-01T16:21:25.999Z</time></trkpt><trkpt lat="45.81057368895389" lon="11.775149070899776"><ele>191.39999999999998</ele><time>2026-05-01T16:21:26.999Z</time></trkpt><trkpt lat="45.81064432572454" lon="11.775052512711317"><ele>192.0</ele><time>2026-05-01T16:21:27.999Z</time></trkpt><trkpt lat="45.8106946224202" lon="11.774936642318007"><ele>192.0</ele><time>2026-05-01T16:21:28.999Z</time></trkpt><trkpt lat="45.81076640039541" lon="11.774808849971821"><ele>192.0</ele><time>2026-05-01T16:21:29.999Z</time></trkpt><trkpt lat="45.810837540330915" lon="11.774673980922149"><ele>192.0</ele><time>2026-05-01T16:21:30.999Z</time></trkpt><trkpt lat="45.810899637533424" lon="11.774520326538205"><ele>192.0</ele><time>2026-05-01T16:21:31.999Z</time></trkpt><trkpt lat="45.81097822012181" lon="11.774362010125369"><ele>194.0</ele><time>2026-05-01T16:21:32.999Z</time></trkpt><trkpt lat="45.81106161093267" lon="11.774199071560076"><ele>196.0</ele><time>2026-05-01T16:21:33.999Z</time></trkpt><trkpt lat="45.81113519479389" lon="11.77403648142172"><ele>198.0</ele><time>2026-05-01T16:21:34.999Z</time></trkpt><trkpt lat="45.81120183076966" lon="11.773889031330318"><ele>200.0</ele><time>2026-05-01T16:21:35.999Z</time></trkpt><trkpt lat="45.8112520814872" lon="11.77374720129772"><ele>200.00000000000003</ele><time>2026-05-01T16:21:36.999Z</time></trkpt><trkpt lat="45.811274904337694" lon="11.773630496678267"><ele>200.0</ele><time>2026-05-01T16:21:37.999Z</time></trkpt><trkpt lat="45.81131589448839" lon="11.773527875634393"><ele>200.0</ele><time>2026-05-01T16:21:38.999Z</time></trkpt><trkpt lat="45.81137391110001" lon="11.773460440981054"><ele>200.0</ele><time>2026-05-01T16:21:39.999Z</time></trkpt><trkpt lat="45.81146664566315" lon="11.773415525408094"><ele>200.00000000000003</ele><time>2026-05-01T16:21:41.998Z</time></trkpt><trkpt lat="45.81153042461325" lon="11.773408089737442"><ele>200.0</ele><time>2026-05-01T16:21:43Z</time></trkpt><trkpt lat="45.811610231897205" lon="11.773415727300474"><ele>199.8</ele><time>2026-05-01T16:21:44Z</time></trkpt><trkpt lat="45.81167471119448" lon="11.77342245030585"><ele>199.6</ele><time>2026-05-01T16:21:45Z</time></trkpt><trkpt lat="45.811766827954294" lon="11.773377229143529"><ele>199.39999999999998</ele><time>2026-05-01T16:21:46Z</time></trkpt><trkpt lat="45.81185186088009" lon="11.773273568679416"><ele>199.2</ele><time>2026-05-01T16:21:47Z</time></trkpt><trkpt lat="45.811945311106456" lon="11.773146242762033"><ele>199.0</ele><time>2026-05-01T16:21:48Z</time></trkpt><trkpt lat="45.81205178792663" lon="11.773011741103133"><ele>200.75</ele><time>2026-05-01T16:21:49Z</time></trkpt><trkpt lat="45.81215625034001" lon="11.77288540326951"><ele>202.5</ele><time>2026-05-01T16:21:50Z</time></trkpt><trkpt lat="45.81226522221726" lon="11.772753217242139"><ele>204.25</ele><time>2026-05-01T16:21:51Z</time></trkpt><trkpt lat="45.8123783218057" lon="11.772618683927305"><ele>206.0</ele><time>2026-05-01T16:21:52Z</time></trkpt><trkpt lat="45.81249125218428" lon="11.772475318647121"><ele>206.0</ele><time>2026-05-01T16:21:53Z</time></trkpt><trkpt lat="45.812596288149706" lon="11.772330607644967"><ele>206.0</ele><time>2026-05-01T16:21:54Z</time></trkpt><trkpt lat="45.81269471686563" lon="11.772203474848858"><ele>206.0</ele><time>2026-05-01T16:21:55Z</time></trkpt><trkpt lat="45.81278314276311" lon="11.772079993247626"><ele>206.0</ele><time>2026-05-01T16:21:56Z</time></trkpt><trkpt lat="45.81286609601033" lon="11.771935002705943"><ele>208.75</ele><time>2026-05-01T16:21:57Z</time></trkpt><trkpt lat="45.81294237728134" lon="11.771756433761915"><ele>211.5</ele><time>2026-05-01T16:21:58Z</time></trkpt><trkpt lat="45.812998586567865" lon="11.771565996299332"><ele>214.25</ele><time>2026-05-01T16:21:59Z</time></trkpt><trkpt lat="45.81305894335586" lon="11.771366545866686"><ele>217.0</ele><time>2026-05-01T16:22:00Z</time></trkpt><trkpt lat="45.81305040140269" lon="11.771163709216543"><ele>218.0</ele><time>2026-05-01T16:22:01Z</time></trkpt><trkpt lat="45.81305950967056" lon="11.77098151925963"><ele>219.0</ele><time>2026-05-01T16:22:02Z</time></trkpt><trkpt lat="45.813101524703605" lon="11.770821055434467"><ele>220.0</ele><time>2026-05-01T16:22:03Z</time></trkpt><trkpt lat="45.813174248526046" lon="11.770677151012976"><ele>221.0</ele><time>2026-05-01T16:22:04Z</time></trkpt><trkpt lat="45.81324314259859" lon="11.77052351859018"><ele>221.0</ele><time>2026-05-01T16:22:05Z</time></trkpt><trkpt lat="45.813258493620275" lon="11.770334670973488"><ele>221.0</ele><time>2026-05-01T16:22:06Z</time></trkpt><trkpt lat="45.81322255704415" lon="11.770129346119766"><ele>221.0</ele><time>2026-05-01T16:22:07Z</time></trkpt><trkpt lat="45.81317398959656" lon="11.769932359750024"><ele>221.0</ele><time>2026-05-01T16:22:08Z</time></trkpt><trkpt lat="45.81312411107332" lon="11.769731988777115"><ele>223.33333333333334</ele><time>2026-05-01T16:22:09Z</time></trkpt><trkpt lat="45.813081431532254" lon="11.769525736737007"><ele>225.66666666666669</ele><time>2026-05-01T16:22:10Z</time></trkpt><trkpt lat="45.81303536089675" lon="11.76931679512074"><ele>228.0</ele><time>2026-05-01T16:22:11Z</time></trkpt><trkpt lat="45.81299048948765" lon="11.76910466148118"><ele>232.0</ele><time>2026-05-01T16:22:12Z</time></trkpt><trkpt lat="45.81294430967854" lon="11.768898475695728"><ele>236.0</ele><time>2026-05-01T16:22:13Z</time></trkpt><trkpt lat="45.81288699002447" lon="11.768691253490248"><ele>240.0</ele><time>2026-05-01T16:22:14Z</time></trkpt><trkpt lat="45.81280607744682" lon="11.76849555591972"><ele>245.33333333333331</ele><time>2026-05-01T16:22:15Z</time></trkpt><trkpt lat="45.81271130848833" lon="11.76829760715209"><ele>250.66666666666666</ele><time>2026-05-01T16:22:16Z</time></trkpt><trkpt lat="45.812647707961894" lon="11.768098069879796"><ele>256.0</ele><time>2026-05-01T16:22:17Z</time></trkpt><trkpt lat="45.812613316731486" lon="11.767906942970077"><ele>249.33333333333331</ele><time>2026-05-01T16:22:18Z</time></trkpt><trkpt lat="45.812587428571184" lon="11.76770230661029"><ele>242.66666666666669</ele><time>2026-05-01T16:22:19Z</time></trkpt><trkpt lat="45.812554330370375" lon="11.767461643767946"><ele>236.0</ele><time>2026-05-01T16:22:20Z</time></trkpt><trkpt lat="45.81248157160445" lon="11.767192813834615"><ele>236.0</ele><time>2026-05-01T16:22:21Z</time></trkpt><trkpt lat="45.81239419043358" lon="11.766945381309649"><ele>236.0</ele><time>2026-05-01T16:22:22Z</time></trkpt><trkpt lat="45.812311925611795" lon="11.766681612753118"><ele>236.0</ele><time>2026-05-01T16:22:23Z</time></trkpt><trkpt lat="45.81225305177431" lon="11.766444371681855"><ele>241.5</ele><time>2026-05-01T16:22:24Z</time></trkpt><trkpt lat="45.81223917599153" lon="11.766240941924641"><ele>247.0</ele><time>2026-05-01T16:22:25Z</time></trkpt><trkpt lat="45.81219212862369" lon="11.76607330820068"><ele>252.5</ele><time>2026-05-01T16:22:26Z</time></trkpt><trkpt lat="45.81210728966664" lon="11.765913185885294"><ele>258.0</ele><time>2026-05-01T16:22:27Z</time></trkpt><trkpt lat="45.81199245456718" lon="11.765742806158165"><ele>258.3333333333333</ele><time>2026-05-01T16:22:28Z</time></trkpt><trkpt lat="45.811872837309195" lon="11.765502699727552"><ele>258.66666666666663</ele><time>2026-05-01T16:22:29Z</time></trkpt><trkpt lat="45.811787971956804" lon="11.765281881988113"><ele>259.0</ele><time>2026-05-01T16:22:30Z</time></trkpt><trkpt lat="45.81170653670654" lon="11.765049753510272"><ele>259.0</ele><time>2026-05-01T16:22:31Z</time></trkpt><trkpt lat="45.81161722687147" lon="11.764808153261074"><ele>259.0</ele><time>2026-05-01T16:22:32Z</time></trkpt><trkpt lat="45.8115280321423" lon="11.764561447851058"><ele>259.0</ele><time>2026-05-01T16:22:33Z</time></trkpt><trkpt lat="45.811450409590364" lon="11.764312775888097"><ele>266.3333333333333</ele><time>2026-05-01T16:22:33.999Z</time></trkpt><trkpt lat="45.81137169523069" lon="11.764056839292417"><ele>273.6666666666667</ele><time>2026-05-01T16:22:34.999Z</time></trkpt><trkpt lat="45.81128852511105" lon="11.763799318253422"><ele>281.0</ele><time>2026-05-01T16:22:35.999Z</time></trkpt><trkpt lat="45.811211420133674" lon="11.763570308189545"><ele>286.75</ele><time>2026-05-01T16:22:36.999Z</time></trkpt><trkpt lat="45.81115561011436" lon="11.763394265375357"><ele>292.5</ele><time>2026-05-01T16:22:37.999Z</time></trkpt><trkpt lat="45.81111865287521" lon="11.763200260576706"><ele>298.25</ele><time>2026-05-01T16:22:38.999Z</time></trkpt><trkpt lat="45.811106375179605" lon="11.763009169600032"><ele>304.0</ele><time>2026-05-01T16:22:39.999Z</time></trkpt><trkpt lat="45.81110391870909" lon="11.762800954630228"><ele>309.0</ele><time>2026-05-01T16:22:40.999Z</time></trkpt><trkpt lat="45.81109849230412" lon="11.762589917906276"><ele>314.0</ele><time>2026-05-01T16:22:41.999Z</time></trkpt><trkpt lat="45.811108267034285" lon="11.7623489688584"><ele>319.0</ele><time>2026-05-01T16:22:42.999Z</time></trkpt><trkpt lat="45.811132267672804" lon="11.762139177856252"><ele>319.0</ele><time>2026-05-01T16:22:43.999Z</time></trkpt><trkpt lat="45.81116318678572" lon="11.761978195255521"><ele>319.0</ele><time>2026-05-01T16:22:44.999Z</time></trkpt><trkpt lat="45.81115876982944" lon="11.761814840305119"><ele>319.0</ele><time>2026-05-01T16:22:45.999Z</time></trkpt><trkpt lat="45.811172587106654" lon="11.761654401076724"><ele>319.0</ele><time>2026-05-01T16:22:47.999Z</time></trkpt><trkpt lat="45.81126833067766" lon="11.761706106825576"><ele>319.0</ele><time>2026-05-01T16:22:49.999Z</time></trkpt><trkpt lat="45.811210023400854" lon="11.76181814109871"><ele>319.0</ele><time>2026-05-01T16:22:50.999Z</time></trkpt><trkpt lat="45.8112193454348" lon="11.761938842714642"><ele>319.0</ele><time>2026-05-01T16:22:51.999Z</time></trkpt><trkpt lat="45.81119494733094" lon="11.762074621078172"><ele>319.0</ele><time>2026-05-01T16:22:52.999Z</time></trkpt><trkpt lat="45.81120524860544" lon="11.762231898193516"><ele>319.0</ele><time>2026-05-01T16:22:53.999Z</time></trkpt><trkpt lat="45.81123686797105" lon="11.76239641555015"><ele>319.0</ele><time>2026-05-01T16:22:54.999Z</time></trkpt><trkpt lat="45.811249855387615" lon="11.762584977775155"><ele>314.0</ele><time>2026-05-01T16:22:55.999Z</time></trkpt><trkpt lat="45.81129196385055" lon="11.762789097717395"><ele>309.0</ele><time>2026-05-01T16:22:56.999Z</time></trkpt><trkpt lat="45.81131734251383" lon="11.762993754314788"><ele>304.0</ele><time>2026-05-01T16:22:57.999Z</time></trkpt><trkpt lat="45.811387161161655" lon="11.763200191029563"><ele>304.0</ele><time>2026-05-01T16:22:58.999Z</time></trkpt><trkpt lat="45.811496484810405" lon="11.763412258262605"><ele>304.0</ele><time>2026-05-01T16:22:59.999Z</time></trkpt><trkpt lat="45.81164447053912" lon="11.763628506794435"><ele>304.0</ele><time>2026-05-01T16:23:00.999Z</time></trkpt><trkpt lat="45.81177389745581" lon="11.763853146720248"><ele>317.0</ele><time>2026-05-01T16:23:01.999Z</time></trkpt><trkpt lat="45.811914393632975" lon="11.76408832321346"><ele>330.0</ele><time>2026-05-01T16:23:02.999Z</time></trkpt><trkpt lat="45.81208441343081" lon="11.764318728524467"><ele>315.5</ele><time>2026-05-01T16:23:03.999Z</time></trkpt><trkpt lat="45.81226358124316" lon="11.764556728821342"><ele>301.0</ele><time>2026-05-01T16:23:04.999Z</time></trkpt><trkpt lat="45.81244331407832" lon="11.764785748343591"><ele>301.0</ele><time>2026-05-01T16:23:05.999Z</time></trkpt><trkpt lat="45.812623962979096" lon="11.764982428234232"><ele>301.0</ele><time>2026-05-01T16:23:06.999Z</time></trkpt><trkpt lat="45.812789967649515" lon="11.765116561616694"><ele>301.0</ele><time>2026-05-01T16:23:07.999Z</time></trkpt><trkpt lat="45.812919460303256" lon="11.765223229137934"><ele>306.75</ele><time>2026-05-01T16:23:08.999Z</time></trkpt><trkpt lat="45.81298399682478" lon="11.76538141534634"><ele>312.5</ele><time>2026-05-01T16:23:09.999Z</time></trkpt><trkpt lat="45.81306541882215" lon="11.765565776116938"><ele>318.25</ele><time>2026-05-01T16:23:10.999Z</time></trkpt><trkpt lat="45.81315682264854" lon="11.765743525332638"><ele>324.0</ele><time>2026-05-01T16:23:11.999Z</time></trkpt><trkpt lat="45.81327254161119" lon="11.765907232813236"><ele>330.6666666666667</ele><time>2026-05-01T16:23:12.999Z</time></trkpt><trkpt lat="45.81338220480827" lon="11.766075370720504"><ele>337.33333333333337</ele><time>2026-05-01T16:23:13.999Z</time></trkpt><trkpt lat="45.81350230015149" lon="11.766225356534571"><ele>344.0</ele><time>2026-05-01T16:23:14.999Z</time></trkpt><trkpt lat="45.813633186125074" lon="11.76635269598266"><ele>344.0</ele><time>2026-05-01T16:23:15.999Z</time></trkpt><trkpt lat="45.813759836338065" lon="11.766489114448607"><ele>344.0</ele><time>2026-05-01T16:23:16.999Z</time></trkpt><trkpt lat="45.81390556450431" lon="11.766583913868532"><ele>344.0</ele><time>2026-05-01T16:23:17.999Z</time></trkpt><trkpt lat="45.814049257152725" lon="11.766664315673045"><ele>344.0</ele><time>2026-05-01T16:23:18.999Z</time></trkpt><trkpt lat="45.81417823731893" lon="11.766796257101074"><ele>344.0</ele><time>2026-05-01T16:23:19.999Z</time></trkpt><trkpt lat="45.81427751703905" lon="11.766924060313409"><ele>344.0</ele><time>2026-05-01T16:23:20.999Z</time></trkpt><trkpt lat="45.81429488505408" lon="11.76705345205404"><ele>344.0</ele><time>2026-05-01T16:23:21.999Z</time></trkpt><trkpt lat="45.81433555905598" lon="11.767200954044405"><ele>351.33333333333337</ele><time>2026-05-01T16:23:22.999Z</time></trkpt><trkpt lat="45.814382235393374" lon="11.76737482029067"><ele>358.6666666666667</ele><time>2026-05-01T16:23:23.999Z</time></trkpt><trkpt lat="45.81443300974447" lon="11.767575365474825"><ele>366.0</ele><time>2026-05-01T16:23:24.999Z</time></trkpt><trkpt lat="45.8144899519737" lon="11.767834202075862"><ele>366.0</ele><time>2026-05-01T16:23:25.999Z</time></trkpt><trkpt lat="45.814588666618775" lon="11.768085831090767"><ele>366.0</ele><time>2026-05-01T16:23:26.999Z</time></trkpt><trkpt lat="45.81467644722117" lon="11.768331704624783"><ele>366.0</ele><time>2026-05-01T16:23:27.999Z</time></trkpt><trkpt lat="45.81478945776367" lon="11.768562057725461"><ele>358.6666666666667</ele><time>2026-05-01T16:23:28.999Z</time></trkpt><trkpt lat="45.81488383131717" lon="11.768795695003817"><ele>351.33333333333337</ele><time>2026-05-01T16:23:29.999Z</time></trkpt><trkpt lat="45.8149507789534" lon="11.769014139147407"><ele>344.0</ele><time>2026-05-01T16:23:30.999Z</time></trkpt><trkpt lat="45.8150151439362" lon="11.769189515380171"><ele>344.0</ele><time>2026-05-01T16:23:31.999Z</time></trkpt><trkpt lat="45.81508319929655" lon="11.769324081873537"><ele>344.0</ele><time>2026-05-01T16:23:32.999Z</time></trkpt><trkpt lat="45.81513525853278" lon="11.769443397052456"><ele>344.0</ele><time>2026-05-01T16:23:33.999Z</time></trkpt><trkpt lat="45.81516999249131" lon="11.769542630625303"><ele>344.0</ele><time>2026-05-01T16:23:34.999Z</time></trkpt><trkpt lat="45.81525421158288" lon="11.769642446889826"><ele>344.0</ele><time>2026-05-01T16:23:36.999Z</time></trkpt><trkpt lat="45.81534457087378" lon="11.769524322063434"><ele>344.0</ele><time>2026-05-01T16:23:38.999Z</time></trkpt><trkpt lat="45.8153261704319" lon="11.769423559652786"><ele>344.0</ele><time>2026-05-01T16:23:39.999Z</time></trkpt><trkpt lat="45.8152632916669" lon="11.769341731617304"><ele>344.0</ele><time>2026-05-01T16:23:40.999Z</time></trkpt><trkpt lat="45.8151854566773" lon="11.769268465492997"><ele>344.0</ele><time>2026-05-01T16:23:41.999Z</time></trkpt><trkpt lat="45.815141542708915" lon="11.769183651770346"><ele>344.0</ele><time>2026-05-01T16:23:42.999Z</time></trkpt><trkpt lat="45.81509879039055" lon="11.769064772937263"><ele>344.0</ele><time>2026-05-01T16:23:43.999Z</time></trkpt><trkpt lat="45.815070051975184" lon="11.768936906370683"><ele>344.0</ele><time>2026-05-01T16:23:44.999Z</time></trkpt><trkpt lat="45.81504675182254" lon="11.768793605264245"><ele>344.0</ele><time>2026-05-01T16:23:45.999Z</time></trkpt><trkpt lat="45.815043979538494" lon="11.768639343789713"><ele>344.0</ele><time>2026-05-01T16:23:46.999Z</time></trkpt><trkpt lat="45.8150159278812" lon="11.768480653495109"><ele>344.0</ele><time>2026-05-01T16:23:47.999Z</time></trkpt><trkpt lat="45.814975507203876" lon="11.768316497321193"><ele>344.0</ele><time>2026-05-01T16:23:49Z</time></trkpt><trkpt lat="45.81493675469336" lon="11.768130925086624"><ele>349.5</ele><time>2026-05-01T16:23:50Z</time></trkpt><trkpt lat="45.81490792980602" lon="11.76794596455407"><ele>355.0</ele><time>2026-05-01T16:23:51Z</time></trkpt><trkpt lat="45.81488437107397" lon="11.767763891732152"><ele>360.5</ele><time>2026-05-01T16:23:52Z</time></trkpt><trkpt lat="45.81485979243361" lon="11.767560463331394"><ele>366.0</ele><time>2026-05-01T16:23:53Z</time></trkpt><trkpt lat="45.81483311800381" lon="11.767379123305847"><ele>370.5</ele><time>2026-05-01T16:23:54Z</time></trkpt><trkpt lat="45.814790011129354" lon="11.76721474010765"><ele>375.0</ele><time>2026-05-01T16:23:55Z</time></trkpt><trkpt lat="45.814773691167495" lon="11.7670442087182"><ele>379.5</ele><time>2026-05-01T16:23:56Z</time></trkpt><trkpt lat="45.81474385053661" lon="11.766885893829546"><ele>384.0</ele><time>2026-05-01T16:23:57Z</time></trkpt><trkpt lat="45.81472376229814" lon="11.766740695305588"><ele>387.2</ele><time>2026-05-01T16:23:58Z</time></trkpt><trkpt lat="45.81470639885774" lon="11.766597626996624"><ele>390.4</ele><time>2026-05-01T16:23:59Z</time></trkpt><trkpt lat="45.81464966956626" lon="11.766470177186072"><ele>393.6</ele><time>2026-05-01T16:24:00Z</time></trkpt><trkpt lat="45.81457414558632" lon="11.766375494671083"><ele>396.8</ele><time>2026-05-01T16:24:01Z</time></trkpt><trkpt lat="45.814493375820035" lon="11.766302493748501"><ele>400.0</ele><time>2026-05-01T16:24:02Z</time></trkpt><trkpt lat="45.8144222362304" lon="11.766206190939954"><ele>400.0</ele><time>2026-05-01T16:24:03Z</time></trkpt><trkpt lat="45.814338845199174" lon="11.766117053535408"><ele>400.0</ele><time>2026-05-01T16:24:04Z</time></trkpt><trkpt lat="45.81426125341869" lon="11.766012698250222"><ele>400.0</ele><time>2026-05-01T16:24:05Z</time></trkpt><trkpt lat="45.81418637826826" lon="11.76591575786196"><ele>400.0</ele><time>2026-05-01T16:24:06Z</time></trkpt><trkpt lat="45.814123356982044" lon="11.765815151057893"><ele>400.0</ele><time>2026-05-01T16:24:07Z</time></trkpt><trkpt lat="45.814063024157775" lon="11.765704277336209"><ele>401.4</ele><time>2026-05-01T16:24:08Z</time></trkpt><trkpt lat="45.81400961801477" lon="11.765574628948825"><ele>402.8</ele><time>2026-05-01T16:24:09Z</time></trkpt><trkpt lat="45.81395148868152" lon="11.76545670127417"><ele>404.20000000000005</ele><time>2026-05-01T16:24:10Z</time></trkpt><trkpt lat="45.81389662112809" lon="11.765327424428039"><ele>405.6</ele><time>2026-05-01T16:24:11Z</time></trkpt><trkpt lat="45.813840105293266" lon="11.765185671173683"><ele>407.0</ele><time>2026-05-01T16:24:12Z</time></trkpt><trkpt lat="45.813785109145336" lon="11.765021990113082"><ele>407.0</ele><time>2026-05-01T16:24:13Z</time></trkpt><trkpt lat="45.813738219904835" lon="11.76485355130454"><ele>407.0</ele><time>2026-05-01T16:24:14Z</time></trkpt><trkpt lat="45.81368948852606" lon="11.764679329042616"><ele>407.0</ele><time>2026-05-01T16:24:15Z</time></trkpt><trkpt lat="45.81365261229956" lon="11.764510468696779"><ele>407.0</ele><time>2026-05-01T16:24:16Z</time></trkpt><trkpt lat="45.81359980321215" lon="11.764361525692296"><ele>402.0</ele><time>2026-05-01T16:24:17Z</time></trkpt><trkpt lat="45.81355351377902" lon="11.764246206278528"><ele>397.0</ele><time>2026-05-01T16:24:18Z</time></trkpt><trkpt lat="45.81349536977072" lon="11.764115536626793"><ele>392.0</ele><time>2026-05-01T16:24:19Z</time></trkpt><trkpt lat="45.81344862635742" lon="11.763986160020892"><ele>387.0</ele><time>2026-05-01T16:24:20Z</time></trkpt><trkpt lat="45.813374090697415" lon="11.763868789442173"><ele>382.0</ele><time>2026-05-01T16:24:22Z</time></trkpt><trkpt lat="45.81332275819997" lon="11.763767940498086"><ele>382.0</ele><time>2026-05-01T16:24:23Z</time></trkpt><trkpt lat="45.81326842832194" lon="11.763686843627283"><ele>382.0</ele><time>2026-05-01T16:24:24Z</time></trkpt><trkpt lat="45.813225446469446" lon="11.763603112544244"><ele>382.0</ele><time>2026-05-01T16:24:25Z</time></trkpt><trkpt lat="45.81317741312442" lon="11.763485860096047"><ele>382.0</ele><time>2026-05-01T16:24:26Z</time></trkpt><trkpt lat="45.813122267776905" lon="11.763381811589287"><ele>382.0</ele><time>2026-05-01T16:24:27Z</time></trkpt><trkpt lat="45.813074069438855" lon="11.76328506367115"><ele>382.0</ele><time>2026-05-01T16:24:28Z</time></trkpt><trkpt lat="45.81301970892183" lon="11.763191886166545"><ele>386.5</ele><time>2026-05-01T16:24:29Z</time></trkpt><trkpt lat="45.81296273449768" lon="11.763100331012485"><ele>391.0</ele><time>2026-05-01T16:24:30Z</time></trkpt><trkpt lat="45.81290918853989" lon="11.76302440901095"><ele>395.5</ele><time>2026-05-01T16:24:31Z</time></trkpt><trkpt lat="45.812856368425024" lon="11.762963518031377"><ele>400.0</ele><time>2026-05-01T16:24:32Z</time></trkpt><trkpt lat="45.81279991696092" lon="11.762865178680471"><ele>404.50000000000006</ele><time>2026-05-01T16:24:34Z</time></trkpt><trkpt lat="45.812850429391084" lon="11.762772343788432"><ele>409.0</ele><time>2026-05-01T16:24:37Z</time></trkpt><trkpt lat="45.812889343507145" lon="11.762898745231018"><ele>409.0</ele><time>2026-05-01T16:24:39Z</time></trkpt><trkpt lat="45.812946332866005" lon="11.762972845695298"><ele>409.0</ele><time>2026-05-01T16:24:39.999Z</time></trkpt><trkpt lat="45.81299102353754" lon="11.76307802633356"><ele>409.0</ele><time>2026-05-01T16:24:40.999Z</time></trkpt><trkpt lat="45.81307752175127" lon="11.763214675313517"><ele>409.0</ele><time>2026-05-01T16:24:41.999Z</time></trkpt><trkpt lat="45.81319387611132" lon="11.763364061315501"><ele>409.0</ele><time>2026-05-01T16:24:42.999Z</time></trkpt><trkpt lat="45.813326104570244" lon="11.763488195388506"><ele>400.0</ele><time>2026-05-01T16:24:43.999Z</time></trkpt><trkpt lat="45.813465667851645" lon="11.763661204597586"><ele>391.0</ele><time>2026-05-01T16:24:44.999Z</time></trkpt><trkpt lat="45.813620076726366" lon="11.763860813249508"><ele>382.0</ele><time>2026-05-01T16:24:45.999Z</time></trkpt><trkpt lat="45.81378148448019" lon="11.764028289282363"><ele>390.3333333333333</ele><time>2026-05-01T16:24:46.999Z</time></trkpt><trkpt lat="45.81389342155456" lon="11.76421111831798"><ele>398.66666666666663</ele><time>2026-05-01T16:24:47.999Z</time></trkpt><trkpt lat="45.813994528967505" lon="11.764412951245605"><ele>407.0</ele><time>2026-05-01T16:24:48.999Z</time></trkpt><trkpt lat="45.81408935610585" lon="11.764622673891775"><ele>407.0</ele><time>2026-05-01T16:24:49.999Z</time></trkpt><trkpt lat="45.81418814202565" lon="11.764821225729163"><ele>407.0</ele><time>2026-05-01T16:24:50.999Z</time></trkpt><trkpt lat="45.81433709833159" lon="11.764991474575051"><ele>407.0</ele><time>2026-05-01T16:24:51.999Z</time></trkpt><trkpt lat="45.81448011269947" lon="11.765145924673275"><ele>410.3333333333333</ele><time>2026-05-01T16:24:52.999Z</time></trkpt><trkpt lat="45.81463175372613" lon="11.76528869684108"><ele>413.66666666666663</ele><time>2026-05-01T16:24:53.999Z</time></trkpt><trkpt lat="45.814798863934925" lon="11.76541144284138"><ele>417.0</ele><time>2026-05-01T16:24:54.999Z</time></trkpt><trkpt lat="45.81497110043067" lon="11.765527867615473"><ele>417.0</ele><time>2026-05-01T16:24:55.999Z</time></trkpt><trkpt lat="45.815133195231304" lon="11.76564928524437"><ele>417.0</ele><time>2026-05-01T16:24:56.999Z</time></trkpt><trkpt lat="45.81526361192638" lon="11.765758753204793"><ele>417.0</ele><time>2026-05-01T16:24:57.999Z</time></trkpt><trkpt lat="45.81538726936325" lon="11.765895182779113"><ele>417.0</ele><time>2026-05-01T16:24:59.999Z</time></trkpt><trkpt lat="45.81546374140499" lon="11.765861536231155"><ele>417.0</ele><time>2026-05-01T16:25:00.999Z</time></trkpt><trkpt lat="45.81547707934177" lon="11.765764428604792"><ele>417.0</ele><time>2026-05-01T16:25:01.999Z</time></trkpt><trkpt lat="45.8154376084613" lon="11.765639828630729"><ele>417.0</ele><time>2026-05-01T16:25:02.999Z</time></trkpt><trkpt lat="45.8153318781774" lon="11.76562439481284"><ele>417.0</ele><time>2026-05-01T16:25:03.999Z</time></trkpt><trkpt lat="45.815267951127886" lon="11.765550784991214"><ele>417.0</ele><time>2026-05-01T16:25:04.999Z</time></trkpt><trkpt lat="45.815122259863266" lon="11.765399021085207"><ele>417.0</ele><time>2026-05-01T16:25:05.999Z</time></trkpt><trkpt lat="45.8149730735678" lon="11.765272273452794"><ele>417.0</ele><time>2026-05-01T16:25:06.999Z</time></trkpt><trkpt lat="45.81483552109903" lon="11.765126105592284"><ele>417.0</ele><time>2026-05-01T16:25:07.999Z</time></trkpt><trkpt lat="45.814686577987395" lon="11.764957852388042"><ele>431.33333333333337</ele><time>2026-05-01T16:25:08.999Z</time></trkpt><trkpt lat="45.81457045141283" lon="11.764785652628555"><ele>445.6666666666667</ele><time>2026-05-01T16:25:09.999Z</time></trkpt><trkpt lat="45.81448156406317" lon="11.764573989980972"><ele>460.0</ele><time>2026-05-01T16:25:10.999Z</time></trkpt><trkpt lat="45.81441843414518" lon="11.764373276962152"><ele>452.33333333333337</ele><time>2026-05-01T16:25:11.999Z</time></trkpt><trkpt lat="45.81438870601819" lon="11.764135575273059"><ele>444.66666666666663</ele><time>2026-05-01T16:25:12.999Z</time></trkpt><trkpt lat="45.81434192386806" lon="11.763890153485326"><ele>437.0</ele><time>2026-05-01T16:25:13.999Z</time></trkpt><trkpt lat="45.814285938995745" lon="11.763673462146178"><ele>444.66666666666663</ele><time>2026-05-01T16:25:14.999Z</time></trkpt><trkpt lat="45.81417782850035" lon="11.763443484902655"><ele>452.33333333333337</ele><time>2026-05-01T16:25:15.999Z</time></trkpt><trkpt lat="45.814091530788666" lon="11.763185816925969"><ele>460.0</ele><time>2026-05-01T16:25:16.999Z</time></trkpt><trkpt lat="45.81399058137543" lon="11.762975583105836"><ele>460.0</ele><time>2026-05-01T16:25:17.999Z</time></trkpt><trkpt lat="45.81387070594707" lon="11.762758343103256"><ele>460.0</ele><time>2026-05-01T16:25:18.999Z</time></trkpt><trkpt lat="45.813734053713624" lon="11.762521938852608"><ele>460.0</ele><time>2026-05-01T16:25:19.999Z</time></trkpt><trkpt lat="45.81360232201861" lon="11.762284518246606"><ele>459.2</ele><time>2026-05-01T16:25:20.999Z</time></trkpt><trkpt lat="45.81354395780798" lon="11.76210179635997"><ele>458.4</ele><time>2026-05-01T16:25:21.999Z</time></trkpt><trkpt lat="45.81349797634495" lon="11.761985003098507"><ele>457.6</ele><time>2026-05-01T16:25:22.999Z</time></trkpt><trkpt lat="45.81343699593464" lon="11.761877595926112"><ele>456.8</ele><time>2026-05-01T16:25:23.999Z</time></trkpt><trkpt lat="45.813384605227036" lon="11.761816875524113"><ele>456.0</ele><time>2026-05-01T16:25:24.999Z</time></trkpt><trkpt lat="45.813355211574766" lon="11.761734498701351"><ele>456.0</ele><time>2026-05-01T16:25:25.999Z</time></trkpt><trkpt lat="45.81340666181879" lon="11.761640752032443"><ele>456.0</ele><time>2026-05-01T16:25:27.999Z</time></trkpt><trkpt lat="45.8134525874223" lon="11.76180242404181"><ele>456.0</ele><time>2026-05-01T16:25:28.999Z</time></trkpt><trkpt lat="45.813505504939585" lon="11.761949141018253"><ele>456.0</ele><time>2026-05-01T16:25:29.999Z</time></trkpt><trkpt lat="45.813588253194766" lon="11.762099167556071"><ele>468.33333333333337</ele><time>2026-05-01T16:25:30.999Z</time></trkpt><trkpt lat="45.813677408153694" lon="11.762270510987895"><ele>480.6666666666667</ele><time>2026-05-01T16:25:31.999Z</time></trkpt><trkpt lat="45.81380455708827" lon="11.762439232179387"><ele>493.0</ele><time>2026-05-01T16:25:32.999Z</time></trkpt><trkpt lat="45.81396191195494" lon="11.762637971039542"><ele>500.33333333333337</ele><time>2026-05-01T16:25:33.999Z</time></trkpt><trkpt lat="45.81412390018275" lon="11.762848348311651"><ele>507.66666666666663</ele><time>2026-05-01T16:25:34.999Z</time></trkpt><trkpt lat="45.81429488141033" lon="11.76303820529392"><ele>515.0</ele><time>2026-05-01T16:25:35.999Z</time></trkpt><trkpt lat="45.814448546740834" lon="11.763184405356727"><ele>515.0</ele><time>2026-05-01T16:25:36.999Z</time></trkpt><trkpt lat="45.81453991683635" lon="11.763319724353423"><ele>515.0</ele><time>2026-05-01T16:25:37.999Z</time></trkpt><trkpt lat="45.81462902710151" lon="11.763487454282316"><ele>515.0</ele><time>2026-05-01T16:25:38.999Z</time></trkpt><trkpt lat="45.814715279241625" lon="11.763677514374754"><ele>515.0</ele><time>2026-05-01T16:25:39.999Z</time></trkpt><trkpt lat="45.814778268469325" lon="11.763854628329407"><ele>505.3333333333333</ele><time>2026-05-01T16:25:40.999Z</time></trkpt><trkpt lat="45.81487463114776" lon="11.764078819232031"><ele>495.66666666666663</ele><time>2026-05-01T16:25:41.999Z</time></trkpt><trkpt lat="45.814994665772524" lon="11.764229734743488"><ele>486.0</ele><time>2026-05-01T16:25:42.999Z</time></trkpt><trkpt lat="45.81514323282969" lon="11.764355079833479"><ele>488.66666666666663</ele><time>2026-05-01T16:25:43.999Z</time></trkpt><trkpt lat="45.815330133683005" lon="11.764486439119189"><ele>491.3333333333333</ele><time>2026-05-01T16:25:44.999Z</time></trkpt><trkpt lat="45.81553333316495" lon="11.764579050200663"><ele>494.0</ele><time>2026-05-01T16:25:45.999Z</time></trkpt><trkpt lat="45.81570923954623" lon="11.764689196809353"><ele>494.0</ele><time>2026-05-01T16:25:46.999Z</time></trkpt><trkpt lat="45.81587038098582" lon="11.764805145676487"><ele>494.0</ele><time>2026-05-01T16:25:47.999Z</time></trkpt><trkpt lat="45.81598752190225" lon="11.764896101271223"><ele>494.0</ele><time>2026-05-01T16:25:48.999Z</time></trkpt><trkpt lat="45.81606297868927" lon="11.764971703572167"><ele>494.0</ele><time>2026-05-01T16:25:49.999Z</time></trkpt><trkpt lat="45.81610836691389" lon="11.765047481797774"><ele>503.4</ele><time>2026-05-01T16:25:50.999Z</time></trkpt><trkpt lat="45.81615845529847" lon="11.76510855238205"><ele>512.8</ele><time>2026-05-01T16:25:51.999Z</time></trkpt><trkpt lat="45.816279818245555" lon="11.765144343292901"><ele>522.2</ele><time>2026-05-01T16:25:53.999Z</time></trkpt><trkpt lat="45.8163295685121" lon="11.765069214555918"><ele>531.6</ele><time>2026-05-01T16:25:55Z</time></trkpt><trkpt lat="45.81629490595771" lon="11.764915630900807"><ele>541.0</ele><time>2026-05-01T16:25:56Z</time></trkpt><trkpt lat="45.816217493972154" lon="11.764835570623234"><ele>541.0</ele><time>2026-05-01T16:25:57Z</time></trkpt><trkpt lat="45.81610051006971" lon="11.764755311225638"><ele>541.0</ele><time>2026-05-01T16:25:58Z</time></trkpt><trkpt lat="45.815943043210666" lon="11.76463524569123"><ele>541.0</ele><time>2026-05-01T16:25:59Z</time></trkpt><trkpt lat="45.815823683090805" lon="11.764506241855505"><ele>539.0</ele><time>2026-05-01T16:26:00Z</time></trkpt><trkpt lat="45.81566745428259" lon="11.764330582895738"><ele>537.0</ele><time>2026-05-01T16:26:01Z</time></trkpt><trkpt lat="45.81549374600071" lon="11.764132527936454"><ele>535.0</ele><time>2026-05-01T16:26:02Z</time></trkpt><trkpt lat="45.815351915127145" lon="11.7639592534766"><ele>535.0</ele><time>2026-05-01T16:26:03Z</time></trkpt><trkpt lat="45.81522880351152" lon="11.763822423451996"><ele>535.0</ele><time>2026-05-01T16:26:04Z</time></trkpt><trkpt lat="45.81516319577117" lon="11.763651750603383"><ele>535.0</ele><time>2026-05-01T16:26:05Z</time></trkpt><trkpt lat="45.815135696708275" lon="11.763483023253267"><ele>535.0</ele><time>2026-05-01T16:26:06Z</time></trkpt><trkpt lat="45.81511416414268" lon="11.763279138680648"><ele>535.3333333333334</ele><time>2026-05-01T16:26:07Z</time></trkpt><trkpt lat="45.815078864137185" lon="11.762982816263689"><ele>535.6666666666666</ele><time>2026-05-01T16:26:08Z</time></trkpt><trkpt lat="45.81500559140708" lon="11.762680228426259"><ele>536.0</ele><time>2026-05-01T16:26:09Z</time></trkpt><trkpt lat="45.814920503965304" lon="11.762435834451907"><ele>536.0</ele><time>2026-05-01T16:26:10Z</time></trkpt><trkpt lat="45.81483924381692" lon="11.762227830453643"><ele>536.0</ele><time>2026-05-01T16:26:11Z</time></trkpt><trkpt lat="45.814759036930326" lon="11.762016645947353"><ele>536.0</ele><time>2026-05-01T16:26:12Z</time></trkpt><trkpt lat="45.81462232181641" lon="11.761878257899351"><ele>540.25</ele><time>2026-05-01T16:26:13Z</time></trkpt><trkpt lat="45.81452599821678" lon="11.761712703736688"><ele>544.5</ele><time>2026-05-01T16:26:14Z</time></trkpt><trkpt lat="45.81442147946839" lon="11.761618585320008"><ele>548.75</ele><time>2026-05-01T16:26:15Z</time></trkpt><trkpt lat="45.814335999827456" lon="11.761490303701446"><ele>553.0</ele><time>2026-05-01T16:26:16Z</time></trkpt><trkpt lat="45.81444013142137" lon="11.761434565701014"><ele>553.0</ele><time>2026-05-01T16:26:20Z</time></trkpt><trkpt lat="45.81451782577917" lon="11.761506634107091"><ele>553.0</ele><time>2026-05-01T16:26:21Z</time></trkpt><trkpt lat="45.81457601164059" lon="11.761703340683209"><ele>553.0</ele><time>2026-05-01T16:26:22Z</time></trkpt><trkpt lat="45.81469377274029" lon="11.761814836227538"><ele>553.0</ele><time>2026-05-01T16:26:23Z</time></trkpt><trkpt lat="45.81482848201338" lon="11.761924506766148"><ele>547.3333333333334</ele><time>2026-05-01T16:26:24Z</time></trkpt><trkpt lat="45.81497994446014" lon="11.762077027768333"><ele>541.6666666666666</ele><time>2026-05-01T16:26:25Z</time></trkpt><trkpt lat="45.81513886561781" lon="11.762237552061135"><ele>536.0</ele><time>2026-05-01T16:26:26Z</time></trkpt><trkpt lat="45.815288307178946" lon="11.762396051421918"><ele>544.6666666666666</ele><time>2026-05-01T16:26:27Z</time></trkpt><trkpt lat="45.815387043689384" lon="11.76255988647359"><ele>553.3333333333334</ele><time>2026-05-01T16:26:28Z</time></trkpt><trkpt lat="45.81543848287285" lon="11.762755192359958"><ele>562.0</ele><time>2026-05-01T16:26:29Z</time></trkpt><trkpt lat="45.81550254093102" lon="11.762963387694377"><ele>562.0</ele><time>2026-05-01T16:26:30Z</time></trkpt><trkpt lat="45.81557673000101" lon="11.763143426793857"><ele>562.0</ele><time>2026-05-01T16:26:31Z</time></trkpt><trkpt lat="45.81562745987683" lon="11.763242452536282"><ele>562.0</ele><time>2026-05-01T16:26:32Z</time></trkpt><trkpt lat="45.81572135499881" lon="11.76336642400247"><ele>562.0</ele><time>2026-05-01T16:26:33Z</time></trkpt><trkpt lat="45.81583799260746" lon="11.763500219338054"><ele>564.0</ele><time>2026-05-01T16:26:34Z</time></trkpt><trkpt lat="45.81598190577997" lon="11.763603592859855"><ele>566.0</ele><time>2026-05-01T16:26:35Z</time></trkpt><trkpt lat="45.81613829107865" lon="11.763715533893807"><ele>568.0</ele><time>2026-05-01T16:26:36Z</time></trkpt><trkpt lat="45.81632505916255" lon="11.763848462881551"><ele>568.0</ele><time>2026-05-01T16:26:37Z</time></trkpt><trkpt lat="45.816487389613314" lon="11.763960975967278"><ele>568.0</ele><time>2026-05-01T16:26:38Z</time></trkpt><trkpt lat="45.81667586259592" lon="11.7640808025216"><ele>568.0</ele><time>2026-05-01T16:26:39Z</time></trkpt><trkpt lat="45.81676034454442" lon="11.764192486148797"><ele>573.8</ele><time>2026-05-01T16:26:40Z</time></trkpt><trkpt lat="45.81686378873807" lon="11.764297738302211"><ele>579.5999999999999</ele><time>2026-05-01T16:26:41Z</time></trkpt><trkpt lat="45.816938739765675" lon="11.764375533947906"><ele>585.4000000000001</ele><time>2026-05-01T16:26:42Z</time></trkpt><trkpt lat="45.81701138658905" lon="11.764446670474484"><ele>591.2</ele><time>2026-05-01T16:26:43Z</time></trkpt><trkpt lat="45.817082454713" lon="11.764611426180329"><ele>597.0</ele><time>2026-05-01T16:26:44.999Z</time></trkpt><trkpt lat="45.817145210559005" lon="11.764589237438512"><ele>597.0</ele><time>2026-05-01T16:26:45.999Z</time></trkpt><trkpt lat="45.81721119417727" lon="11.764435429786063"><ele>597.0</ele><time>2026-05-01T16:26:47.999Z</time></trkpt><trkpt lat="45.817033100874056" lon="11.764258317567602"><ele>597.0</ele><time>2026-05-01T16:26:49.999Z</time></trkpt><trkpt lat="45.81693241284891" lon="11.764143160399561"><ele>587.3333333333334</ele><time>2026-05-01T16:26:50.999Z</time></trkpt><trkpt lat="45.816817936696424" lon="11.76397843521641"><ele>577.6666666666667</ele><time>2026-05-01T16:26:51.999Z</time></trkpt><trkpt lat="45.81668848364002" lon="11.763800261797234"><ele>568.0</ele><time>2026-05-01T16:26:52.999Z</time></trkpt><trkpt lat="45.81648170889025" lon="11.763544550251142"><ele>577.6666666666667</ele><time>2026-05-01T16:26:53.999Z</time></trkpt><trkpt lat="45.816363439394436" lon="11.763367220958346"><ele>587.3333333333334</ele><time>2026-05-01T16:26:54.999Z</time></trkpt><trkpt lat="45.81624195207173" lon="11.763164576997799"><ele>597.0</ele><time>2026-05-01T16:26:55.999Z</time></trkpt><trkpt lat="45.81618259087908" lon="11.762984641662461"><ele>597.0</ele><time>2026-05-01T16:26:56.999Z</time></trkpt><trkpt lat="45.81617004494496" lon="11.76281627630425"><ele>597.0</ele><time>2026-05-01T16:26:57.999Z</time></trkpt><trkpt lat="45.81621179423714" lon="11.762717610929318"><ele>597.0</ele><time>2026-05-01T16:26:58.999Z</time></trkpt><trkpt lat="45.816245043013865" lon="11.762500716800844"><ele>597.0</ele><time>2026-05-01T16:26:59.999Z</time></trkpt><trkpt lat="45.816286650531964" lon="11.762409208416617"><ele>597.0</ele><time>2026-05-01T16:27:00.999Z</time></trkpt><trkpt lat="45.816264108343546" lon="11.762252183186423"><ele>600.0</ele><time>2026-05-01T16:27:01.999Z</time></trkpt><trkpt lat="45.81618315425554" lon="11.7620517670932"><ele>603.0</ele><time>2026-05-01T16:27:02.999Z</time></trkpt><trkpt lat="45.81616425531126" lon="11.76193902641446"><ele>606.0</ele><time>2026-05-01T16:27:03.999Z</time></trkpt><trkpt lat="45.81621567067619" lon="11.761860863979473"><ele>609.0</ele><time>2026-05-01T16:27:05.999Z</time></trkpt><trkpt lat="45.81629494587955" lon="11.761930041362865"><ele>612.0</ele><time>2026-05-01T16:27:06.999Z</time></trkpt><trkpt lat="45.81633943853215" lon="11.762261672093167"><ele>612.0</ele><time>2026-05-01T16:27:08.999Z</time></trkpt><trkpt lat="45.81638104478058" lon="11.762544878637451"><ele>612.0</ele><time>2026-05-01T16:27:09.999Z</time></trkpt><trkpt lat="45.81643992534572" lon="11.762747906912194"><ele>612.0</ele><time>2026-05-01T16:27:10.999Z</time></trkpt><trkpt lat="45.816509055134084" lon="11.762938426206537"><ele>607.0</ele><time>2026-05-01T16:27:11.999Z</time></trkpt><trkpt lat="45.81658980313751" lon="11.763124540203771"><ele>602.0</ele><time>2026-05-01T16:27:12.999Z</time></trkpt><trkpt lat="45.81670118324252" lon="11.763255413989757"><ele>597.0</ele><time>2026-05-01T16:27:13.999Z</time></trkpt><trkpt lat="45.81686930163534" lon="11.763390181492461"><ele>601.6666666666666</ele><time>2026-05-01T16:27:14.999Z</time></trkpt><trkpt lat="45.81703890795971" lon="11.763580887611633"><ele>606.3333333333333</ele><time>2026-05-01T16:27:15.999Z</time></trkpt><trkpt lat="45.817199160629286" lon="11.763743338475658"><ele>611.0</ele><time>2026-05-01T16:27:16.999Z</time></trkpt><trkpt lat="45.81732148982668" lon="11.763914692750486"><ele>611.0</ele><time>2026-05-01T16:27:17.999Z</time></trkpt><trkpt lat="45.81741483555277" lon="11.764036959600288"><ele>611.0</ele><time>2026-05-01T16:27:18.999Z</time></trkpt><trkpt lat="45.817480722649925" lon="11.764124628260173"><ele>611.0</ele><time>2026-05-01T16:27:19.999Z</time></trkpt><trkpt lat="45.81758242272965" lon="11.764215151936474"><ele>611.0</ele><time>2026-05-01T16:27:21.999Z</time></trkpt><trkpt lat="45.817666033495186" lon="11.764189119077345"><ele>611.0</ele><time>2026-05-01T16:27:22.999Z</time></trkpt><trkpt lat="45.81767537610473" lon="11.764037496317922"><ele>611.0</ele><time>2026-05-01T16:27:23.999Z</time></trkpt><trkpt lat="45.81761536670095" lon="11.763931588557128"><ele>611.0</ele><time>2026-05-01T16:27:24.999Z</time></trkpt><trkpt lat="45.817466520962306" lon="11.763790843730122"><ele>611.0</ele><time>2026-05-01T16:27:25.999Z</time></trkpt><trkpt lat="45.81737193763776" lon="11.763668379511255"><ele>611.0</ele><time>2026-05-01T16:27:26.999Z</time></trkpt><trkpt lat="45.81728030341444" lon="11.763529789747164"><ele>619.6666666666666</ele><time>2026-05-01T16:27:27.999Z</time></trkpt><trkpt lat="45.81717041112517" lon="11.763337579754628"><ele>628.3333333333334</ele><time>2026-05-01T16:27:28.999Z</time></trkpt><trkpt lat="45.81707757637325" lon="11.763134100588132"><ele>637.0</ele><time>2026-05-01T16:27:29.999Z</time></trkpt><trkpt lat="45.817026141997516" lon="11.762956936611252"><ele>637.0</ele><time>2026-05-01T16:27:30.999Z</time></trkpt><trkpt lat="45.81700349657848" lon="11.762793617427805"><ele>637.0</ele><time>2026-05-01T16:27:31.999Z</time></trkpt><trkpt lat="45.816990625613755" lon="11.762616560749118"><ele>637.0</ele><time>2026-05-01T16:27:32.999Z</time></trkpt><trkpt lat="45.81697749827832" lon="11.762399242387824"><ele>637.0</ele><time>2026-05-01T16:27:33.999Z</time></trkpt><trkpt lat="45.816961918049394" lon="11.762118015875835"><ele>646.5</ele><time>2026-05-01T16:27:34.999Z</time></trkpt><trkpt lat="45.81691167591388" lon="11.761745874311282"><ele>656.0</ele><time>2026-05-01T16:27:35.999Z</time></trkpt><trkpt lat="45.816850027493444" lon="11.761492588383927"><ele>648.5999999999999</ele><time>2026-05-01T16:27:36.999Z</time></trkpt><trkpt lat="45.81679486389882" lon="11.761282444936082"><ele>641.1999999999999</ele><time>2026-05-01T16:27:37.999Z</time></trkpt><trkpt lat="45.81674607735345" lon="11.76116368882277"><ele>633.8</ele><time>2026-05-01T16:27:38.999Z</time></trkpt><trkpt lat="45.81672500256267" lon="11.761059927925626"><ele>626.4</ele><time>2026-05-01T16:27:39.999Z</time></trkpt><trkpt lat="45.81669191178982" lon="11.760934910603831"><ele>619.0</ele><time>2026-05-01T16:27:41.999Z</time></trkpt><trkpt lat="45.81677383181653" lon="11.761051455356625"><ele>628.25</ele><time>2026-05-01T16:27:43.999Z</time></trkpt><trkpt lat="45.8168298248026" lon="11.761201920943801"><ele>637.5</ele><time>2026-05-01T16:27:44.999Z</time></trkpt><trkpt lat="45.816881298723644" lon="11.76137122038801"><ele>646.75</ele><time>2026-05-01T16:27:45.999Z</time></trkpt><trkpt lat="45.81697871420871" lon="11.761543454187517"><ele>656.0</ele><time>2026-05-01T16:27:46.999Z</time></trkpt><trkpt lat="45.8171072324103" lon="11.761759513073704"><ele>655.3333333333333</ele><time>2026-05-01T16:27:47.999Z</time></trkpt><trkpt lat="45.81722459923037" lon="11.76198692431298"><ele>654.6666666666666</ele><time>2026-05-01T16:27:48.999Z</time></trkpt><trkpt lat="45.81729584676324" lon="11.762277336069562"><ele>654.0</ele><time>2026-05-01T16:27:49.999Z</time></trkpt><trkpt lat="45.81735529560187" lon="11.762556276412772"><ele>648.3333333333334</ele><time>2026-05-01T16:27:50.999Z</time></trkpt><trkpt lat="45.81741312632512" lon="11.762768812155368"><ele>642.6666666666667</ele><time>2026-05-01T16:27:51.999Z</time></trkpt><trkpt lat="45.817505522693146" lon="11.762947911896347"><ele>637.0</ele><time>2026-05-01T16:27:52.999Z</time></trkpt><trkpt lat="45.81762553370422" lon="11.76310443496584"><ele>642.6666666666667</ele><time>2026-05-01T16:27:53.999Z</time></trkpt><trkpt lat="45.81778394554353" lon="11.763262852544418"><ele>648.3333333333334</ele><time>2026-05-01T16:27:54.999Z</time></trkpt><trkpt lat="45.81795949101371" lon="11.763453209734498"><ele>654.0</ele><time>2026-05-01T16:27:55.999Z</time></trkpt><trkpt lat="45.8181372438175" lon="11.763622480811687"><ele>654.0</ele><time>2026-05-01T16:27:56.999Z</time></trkpt><trkpt lat="45.8182974207408" lon="11.76381088217198"><ele>654.0</ele><time>2026-05-01T16:27:57.999Z</time></trkpt><trkpt lat="45.818429567784186" lon="11.763978703574102"><ele>654.0</ele><time>2026-05-01T16:27:58.998Z</time></trkpt><trkpt lat="45.818552499820925" lon="11.764170058441286"><ele>663.6666666666666</ele><time>2026-05-01T16:27:59.998Z</time></trkpt><trkpt lat="45.81864621363254" lon="11.764403368074303"><ele>673.3333333333333</ele><time>2026-05-01T16:28:01Z</time></trkpt><trkpt lat="45.81870802032332" lon="11.764575908168672"><ele>683.0</ele><time>2026-05-01T16:28:02Z</time></trkpt><trkpt lat="45.81877624081284" lon="11.764761924192367"><ele>683.0</ele><time>2026-05-01T16:28:03Z</time></trkpt><trkpt lat="45.81884834788999" lon="11.76488724820654"><ele>683.0</ele><time>2026-05-01T16:28:04Z</time></trkpt><trkpt lat="45.81888918169684" lon="11.765057079520181"><ele>683.0</ele><time>2026-05-01T16:28:05Z</time></trkpt><trkpt lat="45.81891712766045" lon="11.76522579075614"><ele>683.0</ele><time>2026-05-01T16:28:06Z</time></trkpt><trkpt lat="45.81894055269031" lon="11.76531837165678"><ele>683.0</ele><time>2026-05-01T16:28:07Z</time></trkpt><trkpt lat="45.8189918263321" lon="11.765468138162397"><ele>683.0</ele><time>2026-05-01T16:28:09Z</time></trkpt><trkpt lat="45.81908225677103" lon="11.76517163119114"><ele>683.0</ele><time>2026-05-01T16:28:11Z</time></trkpt><trkpt lat="45.819039974156404" lon="11.765032808549384"><ele>683.0</ele><time>2026-05-01T16:28:12Z</time></trkpt><trkpt lat="45.81898948082331" lon="11.76486265782078"><ele>683.0</ele><time>2026-05-01T16:28:13Z</time></trkpt><trkpt lat="45.8189458499009" lon="11.764654392571757"><ele>683.0</ele><time>2026-05-01T16:28:14Z</time></trkpt><trkpt lat="45.8188863395382" lon="11.764402073383962"><ele>683.0</ele><time>2026-05-01T16:28:15Z</time></trkpt><trkpt lat="45.81883857849473" lon="11.76414290271783"><ele>686.0</ele><time>2026-05-01T16:28:16Z</time></trkpt><trkpt lat="45.81877351443401" lon="11.76379476139202"><ele>689.0</ele><time>2026-05-01T16:28:17Z</time></trkpt><trkpt lat="45.81871249060979" lon="11.763542567840373"><ele>692.0</ele><time>2026-05-01T16:28:18Z</time></trkpt><trkpt lat="45.81861629488329" lon="11.763311192595078"><ele>695.75</ele><time>2026-05-01T16:28:19Z</time></trkpt><trkpt lat="45.81851312260188" lon="11.763125757342824"><ele>699.5</ele><time>2026-05-01T16:28:20Z</time></trkpt><trkpt lat="45.81840955168527" lon="11.762972766761724"><ele>703.25</ele><time>2026-05-01T16:28:21Z</time></trkpt><trkpt lat="45.81832026940029" lon="11.76285106468974"><ele>707.0</ele><time>2026-05-01T16:28:22Z</time></trkpt><trkpt lat="45.81823645941579" lon="11.762743213880857"><ele>704.0</ele><time>2026-05-01T16:28:23Z</time></trkpt><trkpt lat="45.818199170798586" lon="11.762581009114726"><ele>701.0</ele><time>2026-05-01T16:28:24Z</time></trkpt><trkpt lat="45.818172550889976" lon="11.762437051328938"><ele>698.0</ele><time>2026-05-01T16:28:25Z</time></trkpt><trkpt lat="45.81817185882707" lon="11.762301914810505"><ele>695.0</ele><time>2026-05-01T16:28:26Z</time></trkpt><trkpt lat="45.81820072703754" lon="11.762219070160853"><ele>692.0</ele><time>2026-05-01T16:28:27Z</time></trkpt><trkpt lat="45.818238035896734" lon="11.762117896122323"><ele>692.0</ele><time>2026-05-01T16:28:28Z</time></trkpt><trkpt lat="45.81836514206552" lon="11.7620683584524"><ele>692.0</ele><time>2026-05-01T16:28:29Z</time></trkpt><trkpt lat="45.8184603483574" lon="11.761932582364363"><ele>692.0</ele><time>2026-05-01T16:28:30Z</time></trkpt><trkpt lat="45.81853174879958" lon="11.761759291050852"><ele>692.0</ele><time>2026-05-01T16:28:31Z</time></trkpt><trkpt lat="45.81855979783184" lon="11.761541762743992"><ele>697.2</ele><time>2026-05-01T16:28:32Z</time></trkpt><trkpt lat="45.81856334048273" lon="11.761355505925838"><ele>702.4000000000001</ele><time>2026-05-01T16:28:33Z</time></trkpt><trkpt lat="45.81858816493678" lon="11.761205651518221"><ele>707.5999999999999</ele><time>2026-05-01T16:28:34Z</time></trkpt><trkpt lat="45.81860380818613" lon="11.761114992594736"><ele>712.8</ele><time>2026-05-01T16:28:35Z</time></trkpt><trkpt lat="45.818714641634294" lon="11.761084632184499"><ele>718.0</ele><time>2026-05-01T16:28:37Z</time></trkpt><trkpt lat="45.81873235638856" lon="11.761171560548831"><ele>718.0</ele><time>2026-05-01T16:28:38Z</time></trkpt><trkpt lat="45.81868735082033" lon="11.76142645095679"><ele>718.0</ele><time>2026-05-01T16:28:40Z</time></trkpt><trkpt lat="45.81870820615943" lon="11.761569478891417"><ele>718.0</ele><time>2026-05-01T16:28:41Z</time></trkpt><trkpt lat="45.8187560643541" lon="11.761695170477637"><ele>718.0</ele><time>2026-05-01T16:28:42Z</time></trkpt><trkpt lat="45.8188475825999" lon="11.76179503987689"><ele>718.0</ele><time>2026-05-01T16:28:43Z</time></trkpt><trkpt lat="45.818975658823376" lon="11.761853250858776"><ele>718.0</ele><time>2026-05-01T16:28:44Z</time></trkpt><trkpt lat="45.81906724812544" lon="11.761954741052403"><ele>718.0</ele><time>2026-05-01T16:28:45Z</time></trkpt><trkpt lat="45.81905839741355" lon="11.762114520995626"><ele>718.0</ele><time>2026-05-01T16:28:46Z</time></trkpt><trkpt lat="45.81902674263335" lon="11.762293366294758"><ele>717.8</ele><time>2026-05-01T16:28:47Z</time></trkpt><trkpt lat="45.81903400809166" lon="11.762419767093125"><ele>717.5999999999999</ele><time>2026-05-01T16:28:48Z</time></trkpt><trkpt lat="45.819102498006764" lon="11.762528243812381"><ele>717.4000000000001</ele><time>2026-05-01T16:28:49Z</time></trkpt><trkpt lat="45.81920790832557" lon="11.7625992354575"><ele>717.2</ele><time>2026-05-01T16:28:50Z</time></trkpt><trkpt lat="45.81932482843047" lon="11.762676738021417"><ele>717.0</ele><time>2026-05-01T16:28:51Z</time></trkpt><trkpt lat="45.819426559300844" lon="11.762763738355176"><ele>721.0</ele><time>2026-05-01T16:28:52Z</time></trkpt><trkpt lat="45.81953900065878" lon="11.762878118046817"><ele>725.0</ele><time>2026-05-01T16:28:53Z</time></trkpt><trkpt lat="45.819646754664994" lon="11.763035411382171"><ele>729.0</ele><time>2026-05-01T16:28:54Z</time></trkpt><trkpt lat="45.819777790437826" lon="11.763168257888399"><ele>729.0</ele><time>2026-05-01T16:28:54.999Z</time></trkpt><trkpt lat="45.81992908495655" lon="11.76325179082181"><ele>729.0</ele><time>2026-05-01T16:28:55.999Z</time></trkpt><trkpt lat="45.82007395794494" lon="11.763340074815963"><ele>729.0</ele><time>2026-05-01T16:28:56.999Z</time></trkpt><trkpt lat="45.82016956980753" lon="11.763523064199765"><ele>734.5</ele><time>2026-05-01T16:28:57.999Z</time></trkpt><trkpt lat="45.820228457612714" lon="11.763673321596023"><ele>740.0</ele><time>2026-05-01T16:28:58.999Z</time></trkpt><trkpt lat="45.82026374080597" lon="11.76385405417643"><ele>745.5</ele><time>2026-05-01T16:28:59.999Z</time></trkpt><trkpt lat="45.82026048220391" lon="11.764077168394184"><ele>751.0</ele><time>2026-05-01T16:29:00.999Z</time></trkpt><trkpt lat="45.820285346255055" lon="11.764330013033497"><ele>748.3333333333334</ele><time>2026-05-01T16:29:01.999Z</time></trkpt><trkpt lat="45.820373639600206" lon="11.764598942172928"><ele>745.6666666666666</ele><time>2026-05-01T16:29:02.999Z</time></trkpt><trkpt lat="45.82045038996621" lon="11.764860522522014"><ele>743.0</ele><time>2026-05-01T16:29:03.999Z</time></trkpt><trkpt lat="45.820509026386794" lon="11.76510042943727"><ele>740.75</ele><time>2026-05-01T16:29:04.999Z</time></trkpt><trkpt lat="45.820561552116686" lon="11.765286490420062"><ele>738.5</ele><time>2026-05-01T16:29:05.999Z</time></trkpt><trkpt lat="45.82064842310503" lon="11.76542830720613"><ele>736.25</ele><time>2026-05-01T16:29:06.999Z</time></trkpt><trkpt lat="45.82076172319724" lon="11.765569050123192"><ele>734.0</ele><time>2026-05-01T16:29:07.999Z</time></trkpt><trkpt lat="45.8208438758853" lon="11.765691344584045"><ele>734.0</ele><time>2026-05-01T16:29:08.999Z</time></trkpt><trkpt lat="45.820908104404495" lon="11.765741109590167"><ele>734.0</ele><time>2026-05-01T16:29:09.999Z</time></trkpt><trkpt lat="45.820975833263475" lon="11.765748689610401"><ele>734.0</ele><time>2026-05-01T16:29:10.999Z</time></trkpt><trkpt lat="45.82105226697176" lon="11.765688497708917"><ele>734.0</ele><time>2026-05-01T16:29:11.999Z</time></trkpt><trkpt lat="45.82105193370012" lon="11.765519700501342"><ele>734.0</ele><time>2026-05-01T16:29:12.999Z</time></trkpt><trkpt lat="45.821034105543184" lon="11.76537080112576"><ele>737.0</ele><time>2026-05-01T16:29:13.999Z</time></trkpt><trkpt lat="45.821060728176626" lon="11.765255709383128"><ele>740.0</ele><time>2026-05-01T16:29:14.999Z</time></trkpt><trkpt lat="45.821084298744395" lon="11.765126233462317"><ele>743.0</ele><time>2026-05-01T16:29:15.999Z</time></trkpt><trkpt lat="45.820835185093244" lon="11.764803742782902"><ele>743.0</ele><time>2026-05-01T16:29:16.999Z</time></trkpt><trkpt lat="45.82083089218089" lon="11.764581453524334"><ele>743.0</ele><time>2026-05-01T16:29:17.999Z</time></trkpt><trkpt lat="45.82085617037391" lon="11.76437234988609"><ele>743.0</ele><time>2026-05-01T16:29:18.999Z</time></trkpt><trkpt lat="45.82090946301595" lon="11.764125183493599"><ele>750.0</ele><time>2026-05-01T16:29:19.999Z</time></trkpt><trkpt lat="45.821000740114044" lon="11.763854424639433"><ele>757.0</ele><time>2026-05-01T16:29:20.999Z</time></trkpt><trkpt lat="45.82106766492923" lon="11.763597920030882"><ele>764.0</ele><time>2026-05-01T16:29:21.999Z</time></trkpt><trkpt lat="45.8211510032992" lon="11.763385399686237"><ele>764.0</ele><time>2026-05-01T16:29:22.999Z</time></trkpt><trkpt lat="45.821239476439935" lon="11.763213296794577"><ele>764.0</ele><time>2026-05-01T16:29:23.999Z</time></trkpt><trkpt lat="45.82130607957071" lon="11.763079775505137"><ele>764.0</ele><time>2026-05-01T16:29:24.999Z</time></trkpt><trkpt lat="45.82130614922746" lon="11.762963681936743"><ele>764.0</ele><time>2026-05-01T16:29:25.999Z</time></trkpt><trkpt lat="45.82131589044325" lon="11.762800551682407"><ele>764.0</ele><time>2026-05-01T16:29:26.999Z</time></trkpt><trkpt lat="45.8213577695617" lon="11.762682261460386"><ele>764.0</ele><time>2026-05-01T16:29:27.999Z</time></trkpt><trkpt lat="45.82141997748456" lon="11.762648084771127"><ele>764.0</ele><time>2026-05-01T16:29:28.999Z</time></trkpt><trkpt lat="45.821486629698335" lon="11.762700247159046"><ele>764.0</ele><time>2026-05-01T16:29:29.999Z</time></trkpt><trkpt lat="45.82154433391336" lon="11.762783397388676"><ele>764.0</ele><time>2026-05-01T16:29:30.999Z</time></trkpt><trkpt lat="45.82154065922273" lon="11.762986730728779"><ele>764.0</ele><time>2026-05-01T16:29:31.999Z</time></trkpt><trkpt lat="45.82156732445655" lon="11.763368106372178"><ele>764.0</ele><time>2026-05-01T16:29:32.999Z</time></trkpt><trkpt lat="45.82164871858274" lon="11.763513207123975"><ele>764.0</ele><time>2026-05-01T16:29:33.999Z</time></trkpt><trkpt lat="45.82176920617837" lon="11.76360354318294"><ele>773.3333333333333</ele><time>2026-05-01T16:29:34.999Z</time></trkpt><trkpt lat="45.82191143634798" lon="11.763623687819472"><ele>782.6666666666666</ele><time>2026-05-01T16:29:35.999Z</time></trkpt><trkpt lat="45.82208527736808" lon="11.763605408526773"><ele>792.0</ele><time>2026-05-01T16:29:36.999Z</time></trkpt><trkpt lat="45.8222514318416" lon="11.763614511841642"><ele>792.0</ele><time>2026-05-01T16:29:37.999Z</time></trkpt><trkpt lat="45.82238327903786" lon="11.763649376215602"><ele>792.0</ele><time>2026-05-01T16:29:38.999Z</time></trkpt><trkpt lat="45.822486636800924" lon="11.763639247653055"><ele>792.0</ele><time>2026-05-01T16:29:39.999Z</time></trkpt><trkpt lat="45.822561899942556" lon="11.763554269913941"><ele>792.0</ele><time>2026-05-01T16:29:40.999Z</time></trkpt><trkpt lat="45.82259947682237" lon="11.763383432957179"><ele>790.25</ele><time>2026-05-01T16:29:41.999Z</time></trkpt><trkpt lat="45.82264445406064" lon="11.763229216195047"><ele>788.5</ele><time>2026-05-01T16:29:42.999Z</time></trkpt><trkpt lat="45.82269861295899" lon="11.763093815162224"><ele>786.75</ele><time>2026-05-01T16:29:43.999Z</time></trkpt><trkpt lat="45.822743134579035" lon="11.76293319480704"><ele>785.0</ele><time>2026-05-01T16:29:44.999Z</time></trkpt><trkpt lat="45.82278755108886" lon="11.762744493555548"><ele>796.3333333333334</ele><time>2026-05-01T16:29:45.999Z</time></trkpt><trkpt lat="45.822737083747285" lon="11.762397273982563"><ele>807.6666666666667</ele><time>2026-05-01T16:29:46.999Z</time></trkpt><trkpt lat="45.822701131536135" lon="11.762176762108043"><ele>819.0</ele><time>2026-05-01T16:29:47.999Z</time></trkpt><trkpt lat="45.822681587117295" lon="11.762045713271618"><ele>819.0</ele><time>2026-05-01T16:29:48.999Z</time></trkpt><trkpt lat="45.82269892715877" lon="11.76195458201215"><ele>819.0</ele><time>2026-05-01T16:29:49.999Z</time></trkpt><trkpt lat="45.82275131433042" lon="11.761896529874864"><ele>819.0</ele><time>2026-05-01T16:29:50.999Z</time></trkpt><trkpt lat="45.82282387359528" lon="11.76190895994927"><ele>819.0</ele><time>2026-05-01T16:29:51.999Z</time></trkpt><trkpt lat="45.82281458952049" lon="11.76225764641659"><ele>819.0</ele><time>2026-05-01T16:29:53.999Z</time></trkpt><trkpt lat="45.82283970570778" lon="11.762439492444335"><ele>819.0</ele><time>2026-05-01T16:29:54.999Z</time></trkpt><trkpt lat="45.822871380022946" lon="11.762616920782284"><ele>819.0</ele><time>2026-05-01T16:29:55.999Z</time></trkpt><trkpt lat="45.82291554350361" lon="11.76287780308232"><ele>819.0</ele><time>2026-05-01T16:29:56.999Z</time></trkpt><trkpt lat="45.82297289134548" lon="11.763142666808683"><ele>819.0</ele><time>2026-05-01T16:29:57.999Z</time></trkpt><trkpt lat="45.823083007699594" lon="11.763368013691675"><ele>819.0</ele><time>2026-05-01T16:29:58.999Z</time></trkpt><trkpt lat="45.823176358103964" lon="11.763542365826853"><ele>819.0</ele><time>2026-05-01T16:29:59.999Z</time></trkpt><trkpt lat="45.823240893772315" lon="11.763722031439045"><ele>820.0</ele><time>2026-05-01T16:30:00.999Z</time></trkpt><trkpt lat="45.8232616505352" lon="11.763916138154967"><ele>821.0</ele><time>2026-05-01T16:30:01.999Z</time></trkpt><trkpt lat="45.82321621314075" lon="11.764082026572549"><ele>822.0</ele><time>2026-05-01T16:30:02.999Z</time></trkpt><trkpt lat="45.823099459118495" lon="11.76427862168133"><ele>823.0</ele><time>2026-05-01T16:30:03.999Z</time></trkpt><trkpt lat="45.82301218235439" lon="11.764484862694598"><ele>824.5</ele><time>2026-05-01T16:30:04.999Z</time></trkpt><trkpt lat="45.82298162028587" lon="11.76468222636547"><ele>826.0</ele><time>2026-05-01T16:30:05.999Z</time></trkpt><trkpt lat="45.822969398691534" lon="11.764850263176115"><ele>827.5</ele><time>2026-05-01T16:30:07Z</time></trkpt><trkpt lat="45.82303283438735" lon="11.765036624777265"><ele>829.0</ele><time>2026-05-01T16:30:08Z</time></trkpt><trkpt lat="45.82309564034374" lon="11.765233071012823"><ele>829.0</ele><time>2026-05-01T16:30:09Z</time></trkpt><trkpt lat="45.82315746460557" lon="11.765424297419521"><ele>829.0</ele><time>2026-05-01T16:30:10Z</time></trkpt><trkpt lat="45.82322151949702" lon="11.76560715759072"><ele>829.0</ele><time>2026-05-01T16:30:11Z</time></trkpt><trkpt lat="45.823246346126545" lon="11.76579684238117"><ele>829.0</ele><time>2026-05-01T16:30:12Z</time></trkpt><trkpt lat="45.8232649795701" lon="11.765977251604552"><ele>830.5</ele><time>2026-05-01T16:30:13Z</time></trkpt><trkpt lat="45.8232326974969" lon="11.766188864687164"><ele>832.0</ele><time>2026-05-01T16:30:14Z</time></trkpt><trkpt lat="45.82322381081232" lon="11.766365113977773"><ele>833.5</ele><time>2026-05-01T16:30:15Z</time></trkpt><trkpt lat="45.823212613818534" lon="11.766563957210812"><ele>835.0</ele><time>2026-05-01T16:30:16Z</time></trkpt><trkpt lat="45.82325080208526" lon="11.766659323455514"><ele>835.0</ele><time>2026-05-01T16:30:17Z</time></trkpt><trkpt lat="45.823329527931364" lon="11.766854135153515"><ele>835.0</ele><time>2026-05-01T16:30:18Z</time></trkpt><trkpt lat="45.82339381675901" lon="11.767028062929926"><ele>835.0</ele><time>2026-05-01T16:30:19Z</time></trkpt><trkpt lat="45.82342987115873" lon="11.767271796151228"><ele>834.5</ele><time>2026-05-01T16:30:20Z</time></trkpt><trkpt lat="45.823475908500086" lon="11.76743781874383"><ele>834.0</ele><time>2026-05-01T16:30:21Z</time></trkpt><trkpt lat="45.823513072229986" lon="11.767610822061426"><ele>833.5</ele><time>2026-05-01T16:30:22Z</time></trkpt><trkpt lat="45.823589919109395" lon="11.767791715815774"><ele>833.0</ele><time>2026-05-01T16:30:23Z</time></trkpt><trkpt lat="45.82368993321737" lon="11.767962613446898"><ele>843.6666666666667</ele><time>2026-05-01T16:30:24Z</time></trkpt><trkpt lat="45.82377081835432" lon="11.768094888806633"><ele>854.3333333333333</ele><time>2026-05-01T16:30:25Z</time></trkpt><trkpt lat="45.82381692111288" lon="11.768335953362293"><ele>865.0</ele><time>2026-05-01T16:30:26Z</time></trkpt><trkpt lat="45.82385117154792" lon="11.76868300428411"><ele>865.0</ele><time>2026-05-01T16:30:27Z</time></trkpt><trkpt lat="45.82390157006832" lon="11.768978949642687"><ele>865.0</ele><time>2026-05-01T16:30:28Z</time></trkpt><trkpt lat="45.8239566165745" lon="11.769240081007593"><ele>865.0</ele><time>2026-05-01T16:30:29Z</time></trkpt><trkpt lat="45.8240028393819" lon="11.769445289886658"><ele>862.75</ele><time>2026-05-01T16:30:30Z</time></trkpt><trkpt lat="45.82412657530753" lon="11.769517415353265"><ele>860.5</ele><time>2026-05-01T16:30:31Z</time></trkpt><trkpt lat="45.824213334350254" lon="11.769631282416613"><ele>858.25</ele><time>2026-05-01T16:30:32Z</time></trkpt><trkpt lat="45.824312006605616" lon="11.769746784868977"><ele>856.0</ele><time>2026-05-01T16:30:33Z</time></trkpt><trkpt lat="45.82432996499014" lon="11.769902375900886"><ele>856.0</ele><time>2026-05-01T16:30:34Z</time></trkpt><trkpt lat="45.82431217492357" lon="11.770004862895373"><ele>856.0</ele><time>2026-05-01T16:30:35Z</time></trkpt><trkpt lat="45.82425281888722" lon="11.770189131986136"><ele>856.0</ele><time>2026-05-01T16:30:36Z</time></trkpt><trkpt lat="45.82425653767004" lon="11.770394951939013"><ele>856.0</ele><time>2026-05-01T16:30:37Z</time></trkpt><trkpt lat="45.824290918546225" lon="11.770566468719126"><ele>860.8</ele><time>2026-05-01T16:30:38Z</time></trkpt><trkpt lat="45.82433782340847" lon="11.770696907672347"><ele>865.5999999999999</ele><time>2026-05-01T16:30:39Z</time></trkpt><trkpt lat="45.824389350178095" lon="11.770819774890489"><ele>870.4</ele><time>2026-05-01T16:30:40Z</time></trkpt><trkpt lat="45.824468156501155" lon="11.770905046205742"><ele>875.2</ele><time>2026-05-01T16:30:41Z</time></trkpt><trkpt lat="45.82459385839485" lon="11.770932559549856"><ele>880.0</ele><time>2026-05-01T16:30:42Z</time></trkpt><trkpt lat="45.82469153422447" lon="11.770788954828433"><ele>880.0</ele><time>2026-05-01T16:30:43Z</time></trkpt><trkpt lat="45.824750616705536" lon="11.770650776576435"><ele>880.0</ele><time>2026-05-01T16:30:44Z</time></trkpt><trkpt lat="45.824778792241254" lon="11.770488071519424"><ele>880.0</ele><time>2026-05-01T16:30:45Z</time></trkpt><trkpt lat="45.824755874046865" lon="11.770323991915376"><ele>880.0</ele><time>2026-05-01T16:30:46Z</time></trkpt><trkpt lat="45.82474270075829" lon="11.770181833794355"><ele>880.0</ele><time>2026-05-01T16:30:47Z</time></trkpt><trkpt lat="45.824675393284615" lon="11.76992560900076"><ele>882.3333333333333</ele><time>2026-05-01T16:30:48Z</time></trkpt><trkpt lat="45.824579207303685" lon="11.769703081082358"><ele>884.6666666666667</ele><time>2026-05-01T16:30:49Z</time></trkpt><trkpt lat="45.8244914430231" lon="11.769480092720197"><ele>887.0</ele><time>2026-05-01T16:30:50Z</time></trkpt><trkpt lat="45.824423771930505" lon="11.769261177964513"><ele>892.0</ele><time>2026-05-01T16:30:51Z</time></trkpt><trkpt lat="45.824346260526085" lon="11.769042588787448"><ele>897.0</ele><time>2026-05-01T16:30:52Z</time></trkpt><trkpt lat="45.82426283093891" lon="11.76880203110261"><ele>902.0</ele><time>2026-05-01T16:30:53Z</time></trkpt><trkpt lat="45.82419841930727" lon="11.768570308358424"><ele>891.3333333333334</ele><time>2026-05-01T16:30:54Z</time></trkpt><trkpt lat="45.8241324508456" lon="11.768403490730984"><ele>880.6666666666667</ele><time>2026-05-01T16:30:55Z</time></trkpt><trkpt lat="45.82414369260484" lon="11.768227042899149"><ele>870.0</ele><time>2026-05-01T16:30:56Z</time></trkpt><trkpt lat="45.82413669354835" lon="11.767930477826978"><ele>871.0</ele><time>2026-05-01T16:30:57Z</time></trkpt><trkpt lat="45.82416501919923" lon="11.767601663098533"><ele>872.0</ele><time>2026-05-01T16:30:58Z</time></trkpt><trkpt lat="45.824130570666114" lon="11.767381233744713"><ele>873.0</ele><time>2026-05-01T16:30:59Z</time></trkpt><trkpt lat="45.82434626890589" lon="11.767368636814208"><ele>884.6666666666667</ele><time>2026-05-01T16:30:59.999Z</time></trkpt><trkpt lat="45.824522849553226" lon="11.767367824022605"><ele>896.3333333333334</ele><time>2026-05-01T16:31:00.999Z</time></trkpt><trkpt lat="45.824621040298894" lon="11.767155092587236"><ele>908.0</ele><time>2026-05-01T16:31:01.999Z</time></trkpt><trkpt lat="45.82480396761395" lon="11.76693180344211"><ele>905.0</ele><time>2026-05-01T16:31:02.999Z</time></trkpt><trkpt lat="45.824876100501335" lon="11.766723115529821"><ele>902.0</ele><time>2026-05-01T16:31:03.999Z</time></trkpt><trkpt lat="45.82490334113121" lon="11.766627929415241"><ele>899.0</ele><time>2026-05-01T16:31:04.999Z</time></trkpt><trkpt lat="45.82495934603848" lon="11.766528207956862"><ele>896.0</ele><time>2026-05-01T16:31:05.999Z</time></trkpt><trkpt lat="45.825053474969245" lon="11.766516816800285"><ele>893.0</ele><time>2026-05-01T16:31:07.999Z</time></trkpt><trkpt lat="45.825001057833155" lon="11.766759594880751"><ele>896.75</ele><time>2026-05-01T16:31:08.999Z</time></trkpt><trkpt lat="45.824926812482786" lon="11.766901996886725"><ele>900.5</ele><time>2026-05-01T16:31:09.999Z</time></trkpt><trkpt lat="45.82483819997507" lon="11.767067067846936"><ele>904.25</ele><time>2026-05-01T16:31:10.999Z</time></trkpt><trkpt lat="45.82474992078453" lon="11.767263683809572"><ele>908.0</ele><time>2026-05-01T16:31:11.999Z</time></trkpt><trkpt lat="45.82471747462983" lon="11.767440445760524"><ele>908.0</ele><time>2026-05-01T16:31:12.999Z</time></trkpt><trkpt lat="45.824691176783105" lon="11.767620821807713"><ele>908.0</ele><time>2026-05-01T16:31:13.999Z</time></trkpt><trkpt lat="45.82468899455476" lon="11.767812427955864"><ele>908.0</ele><time>2026-05-01T16:31:14.999Z</time></trkpt><trkpt lat="45.82473105539803" lon="11.767984097189627"><ele>908.0</ele><time>2026-05-01T16:31:15.999Z</time></trkpt><trkpt lat="45.82479778787769" lon="11.768284968242714"><ele>906.0</ele><time>2026-05-01T16:31:16.999Z</time></trkpt><trkpt lat="45.82486876584641" lon="11.768533141136816"><ele>904.0</ele><time>2026-05-01T16:31:17.999Z</time></trkpt><trkpt lat="45.82494308988794" lon="11.768765458968199"><ele>902.0</ele><time>2026-05-01T16:31:18.999Z</time></trkpt><trkpt lat="45.82502680490675" lon="11.768955064948667"><ele>902.0</ele><time>2026-05-01T16:31:19.999Z</time></trkpt><trkpt lat="45.825113910920315" lon="11.769095596649942"><ele>902.0</ele><time>2026-05-01T16:31:20.999Z</time></trkpt><trkpt lat="45.825267585270566" lon="11.769262793910706"><ele>902.0</ele><time>2026-05-01T16:31:21.999Z</time></trkpt><trkpt lat="45.82541337758894" lon="11.769400011152863"><ele>904.25</ele><time>2026-05-01T16:31:22.999Z</time></trkpt><trkpt lat="45.82547954993216" lon="11.769454501972035"><ele>906.5</ele><time>2026-05-01T16:31:23.999Z</time></trkpt><trkpt lat="45.82560643582658" lon="11.769541252543391"><ele>908.75</ele><time>2026-05-01T16:31:24.999Z</time></trkpt><trkpt lat="45.82576846173971" lon="11.769632788422571"><ele>911.0</ele><time>2026-05-01T16:31:25.999Z</time></trkpt><trkpt lat="45.82601421774976" lon="11.769747466987575"><ele>915.0</ele><time>2026-05-01T16:31:26.999Z</time></trkpt><trkpt lat="45.8261989667935" lon="11.769825887008603"><ele>919.0</ele><time>2026-05-01T16:31:27.999Z</time></trkpt><trkpt lat="45.82630789330659" lon="11.769912047530473"><ele>923.0</ele><time>2026-05-01T16:31:28.999Z</time></trkpt><trkpt lat="45.82639994144056" lon="11.769950373784212"><ele>927.0</ele><time>2026-05-01T16:31:29.999Z</time></trkpt><trkpt lat="45.82647973739142" lon="11.769986190445149"><ele>927.0</ele><time>2026-05-01T16:31:30.999Z</time></trkpt><trkpt lat="45.82653737632716" lon="11.769831446438644"><ele>927.0</ele><time>2026-05-01T16:31:32.999Z</time></trkpt><trkpt lat="45.82650563713675" lon="11.769692909763666"><ele>927.0</ele><time>2026-05-01T16:31:33.999Z</time></trkpt><trkpt lat="45.82638350258522" lon="11.769590045807764"><ele>927.0</ele><time>2026-05-01T16:31:34.999Z</time></trkpt><trkpt lat="45.82623293145736" lon="11.769508265560393"><ele>927.0</ele><time>2026-05-01T16:31:35.999Z</time></trkpt><trkpt lat="45.82607213449688" lon="11.7694265603425"><ele>927.0</ele><time>2026-05-01T16:31:36.999Z</time></trkpt><trkpt lat="45.82593220960407" lon="11.76931690981855"><ele>927.0</ele><time>2026-05-01T16:31:37.999Z</time></trkpt><trkpt lat="45.82580003906064" lon="11.769195066592745"><ele>928.5</ele><time>2026-05-01T16:31:38.999Z</time></trkpt><trkpt lat="45.82570457313887" lon="11.769031829167034"><ele>930.0</ele><time>2026-05-01T16:31:39.999Z</time></trkpt><trkpt lat="45.825616932302886" lon="11.768826252397925"><ele>931.5</ele><time>2026-05-01T16:31:40.999Z</time></trkpt><trkpt lat="45.82559054556412" lon="11.768674808291594"><ele>933.0</ele><time>2026-05-01T16:31:41.999Z</time></trkpt><trkpt lat="45.82560331297723" lon="11.76849812924998"><ele>935.4</ele><time>2026-05-01T16:31:42.999Z</time></trkpt><trkpt lat="45.8256097835568" lon="11.768289319386334"><ele>937.8</ele><time>2026-05-01T16:31:43.999Z</time></trkpt><trkpt lat="45.82562687513565" lon="11.768152509571333"><ele>940.2</ele><time>2026-05-01T16:31:44.999Z</time></trkpt><trkpt lat="45.82563808171228" lon="11.768058071529735"><ele>942.6</ele><time>2026-05-01T16:31:45.999Z</time></trkpt><trkpt lat="45.82571415377117" lon="11.768051176591987"><ele>945.0</ele><time>2026-05-01T16:31:47.999Z</time></trkpt><trkpt lat="45.82572241106164" lon="11.768200684988171"><ele>945.0</ele><time>2026-05-01T16:31:48.999Z</time></trkpt><trkpt lat="45.82568320171033" lon="11.768339893471333"><ele>945.0</ele><time>2026-05-01T16:31:49.999Z</time></trkpt><trkpt lat="45.82568155796564" lon="11.768450823259519"><ele>945.0</ele><time>2026-05-01T16:31:50.999Z</time></trkpt><trkpt lat="45.82569254643544" lon="11.768549722796088"><ele>945.0</ele><time>2026-05-01T16:31:51.999Z</time></trkpt><trkpt lat="45.82571580720382" lon="11.768639723290956"><ele>945.0</ele><time>2026-05-01T16:31:52.999Z</time></trkpt><trkpt lat="45.825781362018" lon="11.768753306757494"><ele>945.0</ele><time>2026-05-01T16:31:53.999Z</time></trkpt><trkpt lat="45.82587077887115" lon="11.76887436397471"><ele>947.3333333333333</ele><time>2026-05-01T16:31:54.999Z</time></trkpt><trkpt lat="45.82600723652173" lon="11.768962188993756"><ele>949.6666666666666</ele><time>2026-05-01T16:31:55.999Z</time></trkpt><trkpt lat="45.826148970897904" lon="11.769049588249514"><ele>952.0</ele><time>2026-05-01T16:31:56.999Z</time></trkpt><trkpt lat="45.82631846947693" lon="11.769090476805992"><ele>952.0</ele><time>2026-05-01T16:31:57.999Z</time></trkpt><trkpt lat="45.826519492752276" lon="11.769127579640488"><ele>952.0</ele><time>2026-05-01T16:31:58.999Z</time></trkpt><trkpt lat="45.826730796791104" lon="11.769135079631342"><ele>952.0</ele><time>2026-05-01T16:31:59.999Z</time></trkpt><trkpt lat="45.82693336754741" lon="11.769080555805"><ele>957.3333333333333</ele><time>2026-05-01T16:32:00.999Z</time></trkpt><trkpt lat="45.8271212579885" lon="11.769081941966627"><ele>962.6666666666667</ele><time>2026-05-01T16:32:01.999Z</time></trkpt><trkpt lat="45.827316166338456" lon="11.769143108043476"><ele>968.0</ele><time>2026-05-01T16:32:02.999Z</time></trkpt><trkpt lat="45.82751217723772" lon="11.769194229256682"><ele>971.0</ele><time>2026-05-01T16:32:03.999Z</time></trkpt><trkpt lat="45.82767668650451" lon="11.769238049667987"><ele>974.0</ele><time>2026-05-01T16:32:04.999Z</time></trkpt><trkpt lat="45.82786435086187" lon="11.769295421667396"><ele>977.0</ele><time>2026-05-01T16:32:05.999Z</time></trkpt><trkpt lat="45.82804775196254" lon="11.769368232303295"><ele>977.0</ele><time>2026-05-01T16:32:06.999Z</time></trkpt><trkpt lat="45.82821172969168" lon="11.769473937332139"><ele>977.0</ele><time>2026-05-01T16:32:07.999Z</time></trkpt><trkpt lat="45.82833775213829" lon="11.769586797586657"><ele>977.0</ele><time>2026-05-01T16:32:08.999Z</time></trkpt><trkpt lat="45.82840610090968" lon="11.76967630037079"><ele>977.0</ele><time>2026-05-01T16:32:09.999Z</time></trkpt><trkpt lat="45.828477585863524" lon="11.769791440925982"><ele>984.0</ele><time>2026-05-01T16:32:10.999Z</time></trkpt><trkpt lat="45.82853372147772" lon="11.769941465088126"><ele>991.0</ele><time>2026-05-01T16:32:11.998Z</time></trkpt><trkpt lat="45.828576205290744" lon="11.77010155502751"><ele>998.0</ele><time>2026-05-01T16:32:13Z</time></trkpt><trkpt lat="45.82861673083922" lon="11.770281337672875"><ele>1005.0</ele><time>2026-05-01T16:32:14Z</time></trkpt><trkpt lat="45.82864021131954" lon="11.770451424285746"><ele>1005.0</ele><time>2026-05-01T16:32:15Z</time></trkpt><trkpt lat="45.82869372486859" lon="11.77071112008458"><ele>1005.0</ele><time>2026-05-01T16:32:16Z</time></trkpt><trkpt lat="45.82872769637636" lon="11.770806449864809"><ele>1005.0</ele><time>2026-05-01T16:32:17Z</time></trkpt><trkpt lat="45.82879398110605" lon="11.77090400393105"><ele>1005.0</ele><time>2026-05-01T16:32:18Z</time></trkpt><trkpt lat="45.828863730103016" lon="11.771016998598636"><ele>1005.0</ele><time>2026-05-01T16:32:19Z</time></trkpt><trkpt lat="45.829020778839244" lon="11.771048248476683"><ele>1005.0</ele><time>2026-05-01T16:32:20Z</time></trkpt><trkpt lat="45.829166794201214" lon="11.771011168578651"><ele>1005.0</ele><time>2026-05-01T16:32:21Z</time></trkpt><trkpt lat="45.82929991544169" lon="11.770995830185354"><ele>1005.0</ele><time>2026-05-01T16:32:22Z</time></trkpt><trkpt lat="45.829431531149766" lon="11.77100182415332"><ele>1003.2</ele><time>2026-05-01T16:32:23Z</time></trkpt><trkpt lat="45.829541430413194" lon="11.770983781588223"><ele>1001.4</ele><time>2026-05-01T16:32:24Z</time></trkpt><trkpt lat="45.82965561118179" lon="11.771048001361782"><ele>999.5999999999999</ele><time>2026-05-01T16:32:25Z</time></trkpt><trkpt lat="45.82975352076384" lon="11.771109961028046"><ele>997.8</ele><time>2026-05-01T16:32:26Z</time></trkpt><trkpt lat="45.82982296262" lon="11.771165829528636"><ele>996.0</ele><time>2026-05-01T16:32:27Z</time></trkpt><trkpt lat="45.82987874391681" lon="11.771225089924615"><ele>996.0</ele><time>2026-05-01T16:32:28Z</time></trkpt><trkpt lat="45.82993388059512" lon="11.77129491974669"><ele>996.0</ele><time>2026-05-01T16:32:29Z</time></trkpt><trkpt lat="45.82999735266896" lon="11.7713745336464"><ele>996.0</ele><time>2026-05-01T16:32:30Z</time></trkpt><trkpt lat="45.8300776511466" lon="11.771476057863426"><ele>996.0</ele><time>2026-05-01T16:32:31Z</time></trkpt><trkpt lat="45.83014958185529" lon="11.771558803441156"><ele>996.0</ele><time>2026-05-01T16:32:32Z</time></trkpt><trkpt lat="45.830219712621336" lon="11.77162909216177"><ele>996.0</ele><time>2026-05-01T16:32:33Z</time></trkpt><trkpt lat="45.83030597612987" lon="11.771691201936267"><ele>993.5999999999999</ele><time>2026-05-01T16:32:34Z</time></trkpt><trkpt lat="45.83037754768918" lon="11.77178685858837"><ele>991.1999999999999</ele><time>2026-05-01T16:32:35Z</time></trkpt><trkpt lat="45.8304626892127" lon="11.771835231888133"><ele>988.8000000000001</ele><time>2026-05-01T16:32:36Z</time></trkpt><trkpt lat="45.830563627573014" lon="11.771889232448432"><ele>986.4000000000001</ele><time>2026-05-01T16:32:37Z</time></trkpt><trkpt lat="45.830650768870505" lon="11.771922068514542"><ele>984.0</ele><time>2026-05-01T16:32:38Z</time></trkpt><trkpt lat="45.830749522718506" lon="11.771954928082296"><ele>984.0</ele><time>2026-05-01T16:32:39Z</time></trkpt><trkpt lat="45.83083817828887" lon="11.771994490262427"><ele>984.0000000000001</ele><time>2026-05-01T16:32:40Z</time></trkpt><trkpt lat="45.830921340827615" lon="11.772039575565499"><ele>984.0000000000001</ele><time>2026-05-01T16:32:41Z</time></trkpt><trkpt lat="45.83100734544981" lon="11.772083205019543"><ele>984.0</ele><time>2026-05-01T16:32:42Z</time></trkpt><trkpt lat="45.831105298420226" lon="11.772122037509865"><ele>984.0</ele><time>2026-05-01T16:32:43Z</time></trkpt><trkpt lat="45.831186166956364" lon="11.772161631115068"><ele>996.6</ele><time>2026-05-01T16:32:44Z</time></trkpt><trkpt lat="45.83126321143609" lon="11.77220327993331"><ele>1009.2</ele><time>2026-05-01T16:32:45Z</time></trkpt><trkpt lat="45.83133800705471" lon="11.772260992779513"><ele>1021.8000000000001</ele><time>2026-05-01T16:32:46.015Z</time></trkpt><trkpt lat="45.83140870026949" lon="11.772366947843322"><ele>1034.4</ele><time>2026-05-01T16:32:47.015Z</time></trkpt><trkpt lat="45.831488949908355" lon="11.77243915266396"><ele>1047.0</ele><time>2026-05-01T16:32:48Z</time></trkpt><trkpt lat="45.83155004968203" lon="11.772550532078352"><ele>1047.0</ele><time>2026-05-01T16:32:49Z</time></trkpt><trkpt lat="45.83160353612931" lon="11.772639717655677"><ele>1047.0</ele><time>2026-05-01T16:32:50Z</time></trkpt><trkpt lat="45.83165627508547" lon="11.772739720103809"><ele>1047.0</ele><time>2026-05-01T16:32:51Z</time></trkpt><trkpt lat="45.831682599587076" lon="11.772857839918242"><ele>1047.0</ele><time>2026-05-01T16:32:52Z</time></trkpt><trkpt lat="45.83169179892781" lon="11.772984624969018"><ele>1047.0</ele><time>2026-05-01T16:32:53Z</time></trkpt><trkpt lat="45.83166000495522" lon="11.773094163356816"><ele>1047.0</ele><time>2026-05-01T16:32:54Z</time></trkpt><trkpt lat="45.83162044068642" lon="11.77318551322824"><ele>1043.1666666666667</ele><time>2026-05-01T16:32:55Z</time></trkpt><trkpt lat="45.831579546715986" lon="11.773273206457606"><ele>1039.3333333333333</ele><time>2026-05-01T16:32:56Z</time></trkpt><trkpt lat="45.83155405591138" lon="11.773393114351375"><ele>1035.5</ele><time>2026-05-01T16:32:57Z</time></trkpt><trkpt lat="45.83150508504748" lon="11.773516859108529"><ele>1031.6666666666665</ele><time>2026-05-01T16:32:58Z</time></trkpt><trkpt lat="45.831442890304096" lon="11.773618612979462"><ele>1027.8333333333333</ele><time>2026-05-01T16:32:59Z</time></trkpt><trkpt lat="45.831391155430076" lon="11.773695797448658"><ele>1024.0</ele><time>2026-05-01T16:33:00Z</time></trkpt><trkpt lat="45.8313700558312" lon="11.773789260670437"><ele>1021.7142857142857</ele><time>2026-05-01T16:33:01Z</time></trkpt><trkpt lat="45.83139042622146" lon="11.773894211922483"><ele>1019.4285714285713</ele><time>2026-05-01T16:33:02Z</time></trkpt><trkpt lat="45.83144751936577" lon="11.773973311723346"><ele>1017.1428571428571</ele><time>2026-05-01T16:33:03Z</time></trkpt><trkpt lat="45.831513126688186" lon="11.774010122331067"><ele>1014.8571428571429</ele><time>2026-05-01T16:33:03.999Z</time></trkpt><trkpt lat="45.83157884535755" lon="11.774028557070325"><ele>1012.5714285714286</ele><time>2026-05-01T16:33:04.999Z</time></trkpt><trkpt lat="45.83163437117053" lon="11.774071732062602"><ele>1010.2857142857142</ele><time>2026-05-01T16:33:05.999Z</time></trkpt><trkpt lat="45.831716821746134" lon="11.774117645531174"><ele>1008.0</ele><time>2026-05-01T16:33:06.999Z</time></trkpt><trkpt lat="45.83178687568883" lon="11.774167674825556"><ele>1019.8</ele><time>2026-05-01T16:33:07.999Z</time></trkpt><trkpt lat="45.831818136240926" lon="11.774269997365405"><ele>1031.6</ele><time>2026-05-01T16:33:08.999Z</time></trkpt><trkpt lat="45.831826358810645" lon="11.774394494557503"><ele>1043.4</ele><time>2026-05-01T16:33:09.999Z</time></trkpt><trkpt lat="45.831816254863114" lon="11.774580465279504"><ele>1055.2</ele><time>2026-05-01T16:33:11.999Z</time></trkpt><trkpt lat="45.831828806788614" lon="11.774711274479015"><ele>1067.0</ele><time>2026-05-01T16:33:12.999Z</time></trkpt><trkpt lat="45.83184285132086" lon="11.774873870119654"><ele>1067.0</ele><time>2026-05-01T16:33:13.999Z</time></trkpt><trkpt lat="45.83187026497607" lon="11.774992400520576"><ele>1067.0</ele><time>2026-05-01T16:33:14.999Z</time></trkpt><trkpt lat="45.831892968422515" lon="11.775124715051307"><ele>1067.0</ele><time>2026-05-01T16:33:15.999Z</time></trkpt><trkpt lat="45.83190800520181" lon="11.775249106527266"><ele>1067.0</ele><time>2026-05-01T16:33:16.999Z</time></trkpt><trkpt lat="45.8319775756009" lon="11.775399748331692"><ele>1067.0</ele><time>2026-05-01T16:33:17.999Z</time></trkpt><trkpt lat="45.83206585721354" lon="11.77553190825347"><ele>1060.0</ele><time>2026-05-01T16:33:18.999Z</time></trkpt><trkpt lat="45.832244162238695" lon="11.775473171156644"><ele>1053.0</ele><time>2026-05-01T16:33:19.999Z</time></trkpt><trkpt lat="45.83230429661109" lon="11.775570454985719"><ele>1046.0</ele><time>2026-05-01T16:33:20.999Z</time></trkpt><trkpt lat="45.83232699180383" lon="11.775685927248524"><ele>1039.0</ele><time>2026-05-01T16:33:21.999Z</time></trkpt><trkpt lat="45.83230809041371" lon="11.77587300293811"><ele>1039.0</ele><time>2026-05-01T16:33:22.999Z</time></trkpt><trkpt lat="45.8322763058515" lon="11.77597307068281"><ele>1039.0</ele><time>2026-05-01T16:33:23.999Z</time></trkpt><trkpt lat="45.83226570160222" lon="11.776093419303722"><ele>1039.0</ele><time>2026-05-01T16:33:24.999Z</time></trkpt><trkpt lat="45.83227920798978" lon="11.776206877903933"><ele>1039.0</ele><time>2026-05-01T16:33:25.999Z</time></trkpt><trkpt lat="45.83229914599473" lon="11.776327201535581"><ele>1039.0</ele><time>2026-05-01T16:33:26.999Z</time></trkpt><trkpt lat="45.832345551525165" lon="11.776411454869404"><ele>1039.0</ele><time>2026-05-01T16:33:27.999Z</time></trkpt><trkpt lat="45.83238539395175" lon="11.776513580325226"><ele>1044.3333333333333</ele><time>2026-05-01T16:33:28.999Z</time></trkpt><trkpt lat="45.8324477962468" lon="11.776582496805718"><ele>1049.6666666666665</ele><time>2026-05-01T16:33:29.999Z</time></trkpt><trkpt lat="45.83252690478239" lon="11.776625260371777"><ele>1055.0</ele><time>2026-05-01T16:33:30.999Z</time></trkpt><trkpt lat="45.832605974619135" lon="11.776636980214114"><ele>1060.3333333333333</ele><time>2026-05-01T16:33:31.999Z</time></trkpt><trkpt lat="45.83273593516698" lon="11.776681980642634"><ele>1065.6666666666667</ele><time>2026-05-01T16:33:33.999Z</time></trkpt><trkpt lat="45.832790384337045" lon="11.77674901824251"><ele>1071.0</ele><time>2026-05-01T16:33:34.999Z</time></trkpt><trkpt lat="45.83284396175158" lon="11.776846706288945"><ele>1067.6</ele><time>2026-05-01T16:33:35.999Z</time></trkpt><trkpt lat="45.83289205685282" lon="11.776948307915713"><ele>1064.1999999999998</ele><time>2026-05-01T16:33:36.999Z</time></trkpt><trkpt lat="45.83292514453945" lon="11.777085032267685"><ele>1060.8000000000002</ele><time>2026-05-01T16:33:37.999Z</time></trkpt><trkpt lat="45.83293441661543" lon="11.777219400015131"><ele>1057.4</ele><time>2026-05-01T16:33:38.999Z</time></trkpt><trkpt lat="45.832921156487444" lon="11.777385282976827"><ele>1054.0</ele><time>2026-05-01T16:33:39.999Z</time></trkpt><trkpt lat="45.83289453324481" lon="11.77754559074404"><ele>1055.6000000000001</ele><time>2026-05-01T16:33:40.999Z</time></trkpt><trkpt lat="45.832897912054165" lon="11.777697905724965"><ele>1057.2</ele><time>2026-05-01T16:33:41.999Z</time></trkpt><trkpt lat="45.83292461467551" lon="11.777859814814034"><ele>1058.8000000000002</ele><time>2026-05-01T16:33:42.999Z</time></trkpt><trkpt lat="45.8329584696895" lon="11.77799992648219"><ele>1060.4</ele><time>2026-05-01T16:33:43.999Z</time></trkpt><trkpt lat="45.832989264927505" lon="11.778135192742202"><ele>1062.0</ele><time>2026-05-01T16:33:44.999Z</time></trkpt><trkpt lat="45.832996360385785" lon="11.778269900984506"><ele>1062.0</ele><time>2026-05-01T16:33:45.999Z</time></trkpt><trkpt lat="45.8329022364114" lon="11.778407954357862"><ele>1062.0</ele><time>2026-05-01T16:33:47.999Z</time></trkpt><trkpt lat="45.832824019325194" lon="11.778499035691219"><ele>1062.0</ele><time>2026-05-01T16:33:48.999Z</time></trkpt><trkpt lat="45.83274675596984" lon="11.778519913249475"><ele>1062.0</ele><time>2026-05-01T16:33:49.999Z</time></trkpt><trkpt lat="45.83270937030192" lon="11.77859530663601"><ele>1062.0</ele><time>2026-05-01T16:33:50.999Z</time></trkpt><trkpt lat="45.83266166966761" lon="11.778706395123518"><ele>1055.0</ele><time>2026-05-01T16:33:51.999Z</time></trkpt><trkpt lat="45.83263859929627" lon="11.778805335581763"><ele>1048.0</ele><time>2026-05-01T16:33:52.999Z</time></trkpt><trkpt lat="45.832599419469545" lon="11.778879784409979"><ele>1041.0</ele><time>2026-05-01T16:33:53.999Z</time></trkpt><trkpt lat="45.832540878586876" lon="11.778915980204017"><ele>1034.0</ele><time>2026-05-01T16:33:54.999Z</time></trkpt><trkpt lat="45.832447342244976" lon="11.778964725579161"><ele>1027.0</ele><time>2026-05-01T16:33:56.999Z</time></trkpt><trkpt lat="45.83236232591084" lon="11.779094324881262"><ele>1020.0</ele><time>2026-05-01T16:33:58.999Z</time></trkpt><trkpt lat="45.832399329549546" lon="11.77922458213341"><ele>1020.0</ele><time>2026-05-01T16:33:59.999Z</time></trkpt><trkpt lat="45.832441981512936" lon="11.779306647690731"><ele>1020.0</ele><time>2026-05-01T16:34:00.999Z</time></trkpt><trkpt lat="45.83248348883518" lon="11.779382876846519"><ele>1020.0</ele><time>2026-05-01T16:34:01.999Z</time></trkpt><trkpt lat="45.8325314881254" lon="11.779476785643544"><ele>1020.0</ele><time>2026-05-01T16:34:02.999Z</time></trkpt><trkpt lat="45.83257830447684" lon="11.779565176628607"><ele>1020.0</ele><time>2026-05-01T16:34:03.999Z</time></trkpt><trkpt lat="45.83262799632044" lon="11.779648286426271"><ele>1020.0</ele><time>2026-05-01T16:34:04.999Z</time></trkpt><trkpt lat="45.83270520388058" lon="11.779785893962949"><ele>1022.6</ele><time>2026-05-01T16:34:06.999Z</time></trkpt><trkpt lat="45.832660839053986" lon="11.779999280561311"><ele>1025.2</ele><time>2026-05-01T16:34:08.999Z</time></trkpt><trkpt lat="45.83262147081858" lon="11.780105883501664"><ele>1027.8</ele><time>2026-05-01T16:34:09.999Z</time></trkpt><trkpt lat="45.832575611203026" lon="11.78018632026865"><ele>1030.4</ele><time>2026-05-01T16:34:10.999Z</time></trkpt><trkpt lat="45.832538852774704" lon="11.780285659945301"><ele>1033.0</ele><time>2026-05-01T16:34:11.999Z</time></trkpt><trkpt lat="45.83246838706542" lon="11.780334270048664"><ele>1037.4</ele><time>2026-05-01T16:34:12.999Z</time></trkpt><trkpt lat="45.832363132617786" lon="11.780368243325483"><ele>1041.8</ele><time>2026-05-01T16:34:13.999Z</time></trkpt><trkpt lat="45.83228633911797" lon="11.780459245585748"><ele>1046.2</ele><time>2026-05-01T16:34:14.999Z</time></trkpt><trkpt lat="45.83221916369274" lon="11.78058561958747"><ele>1050.6</ele><time>2026-05-01T16:34:15.998Z</time></trkpt><trkpt lat="45.83216398401647" lon="11.780687349931172"><ele>1055.0</ele><time>2026-05-01T16:34:16.998Z</time></trkpt><trkpt lat="45.832107132562896" lon="11.780785465407705"><ele>1055.0</ele><time>2026-05-01T16:34:17.998Z</time></trkpt><trkpt lat="45.83206173101794" lon="11.780857548859634"><ele>1055.0</ele><time>2026-05-01T16:34:19Z</time></trkpt><trkpt lat="45.832018209903616" lon="11.781013983269828"><ele>1055.0</ele><time>2026-05-01T16:34:21Z</time></trkpt><trkpt lat="45.83207208817741" lon="11.781134890184612"><ele>1055.0</ele><time>2026-05-01T16:34:22Z</time></trkpt><trkpt lat="45.83215419496778" lon="11.781190731441216"><ele>1055.0</ele><time>2026-05-01T16:34:23Z</time></trkpt><trkpt lat="45.83223821662388" lon="11.781234076643411"><ele>1052.0</ele><time>2026-05-01T16:34:24Z</time></trkpt><trkpt lat="45.83233062137259" lon="11.781294649498337"><ele>1049.0</ele><time>2026-05-01T16:34:25Z</time></trkpt><trkpt lat="45.83242098391418" lon="11.78137376268244"><ele>1046.0</ele><time>2026-05-01T16:34:26Z</time></trkpt><trkpt lat="45.832511575779705" lon="11.781459333803053"><ele>1043.0</ele><time>2026-05-01T16:34:27Z</time></trkpt><trkpt lat="45.832612612705184" lon="11.78155420872735"><ele>1040.0</ele><time>2026-05-01T16:34:28Z</time></trkpt><trkpt lat="45.832733954580526" lon="11.781647856102213"><ele>1041.25</ele><time>2026-05-01T16:34:29Z</time></trkpt><trkpt lat="45.83282960467064" lon="11.781780085855855"><ele>1042.5</ele><time>2026-05-01T16:34:30Z</time></trkpt><trkpt lat="45.832925526802114" lon="11.781941353408854"><ele>1043.75</ele><time>2026-05-01T16:34:31Z</time></trkpt><trkpt lat="45.833028343468705" lon="11.782085523984849"><ele>1045.0</ele><time>2026-05-01T16:34:32Z</time></trkpt><trkpt lat="45.83313072001158" lon="11.782238811667211"><ele>1045.0</ele><time>2026-05-01T16:34:33Z</time></trkpt><trkpt lat="45.83321575031784" lon="11.782397551187342"><ele>1045.0</ele><time>2026-05-01T16:34:34Z</time></trkpt><trkpt lat="45.83330868499546" lon="11.78255551807059"><ele>1045.0</ele><time>2026-05-01T16:34:35Z</time></trkpt><trkpt lat="45.83341880192753" lon="11.782660475675682"><ele>1045.0</ele><time>2026-05-01T16:34:36Z</time></trkpt><trkpt lat="45.83353119945512" lon="11.782757638047034"><ele>1045.2</ele><time>2026-05-01T16:34:37Z</time></trkpt><trkpt lat="45.83363435815005" lon="11.782873359888109"><ele>1045.4</ele><time>2026-05-01T16:34:38Z</time></trkpt><trkpt lat="45.833721238224555" lon="11.782959246861479"><ele>1045.6</ele><time>2026-05-01T16:34:39Z</time></trkpt><trkpt lat="45.83379896685437" lon="11.783041608187172"><ele>1045.8</ele><time>2026-05-01T16:34:40Z</time></trkpt><trkpt lat="45.8338985961273" lon="11.783122131725557"><ele>1046.0</ele><time>2026-05-01T16:34:41Z</time></trkpt><trkpt lat="45.834005004133594" lon="11.783196104148681"><ele>1046.0</ele><time>2026-05-01T16:34:42Z</time></trkpt><trkpt lat="45.8341216628" lon="11.78323835917366"><ele>1046.0</ele><time>2026-05-01T16:34:43Z</time></trkpt><trkpt lat="45.834237275356585" lon="11.783237212448594"><ele>1046.0</ele><time>2026-05-01T16:34:44Z</time></trkpt><trkpt lat="45.834357183988004" lon="11.783168738481198"><ele>1046.0</ele><time>2026-05-01T16:34:45Z</time></trkpt><trkpt lat="45.83448073602591" lon="11.783056870333889"><ele>1045.6666666666667</ele><time>2026-05-01T16:34:46Z</time></trkpt><trkpt lat="45.83460049770773" lon="11.782916002137815"><ele>1045.3333333333333</ele><time>2026-05-01T16:34:47Z</time></trkpt><trkpt lat="45.83477295811053" lon="11.782786961466437"><ele>1045.0</ele><time>2026-05-01T16:34:48Z</time></trkpt><trkpt lat="45.83498134376671" lon="11.782637877140376"><ele>1045.0</ele><time>2026-05-01T16:34:49Z</time></trkpt><trkpt lat="45.83519203218712" lon="11.782478130793239"><ele>1045.0</ele><time>2026-05-01T16:34:50Z</time></trkpt><trkpt lat="45.83540277940513" lon="11.782296567688586"><ele>1045.0</ele><time>2026-05-01T16:34:51Z</time></trkpt><trkpt lat="45.83563334434898" lon="11.782116290361285"><ele>1045.0</ele><time>2026-05-01T16:34:52Z</time></trkpt><trkpt lat="45.835850346142976" lon="11.78191106372295"><ele>1050.5</ele><time>2026-05-01T16:34:53Z</time></trkpt><trkpt lat="45.83608381270876" lon="11.781701005945356"><ele>1056.0</ele><time>2026-05-01T16:34:54Z</time></trkpt><trkpt lat="45.83632674917419" lon="11.781509339663888"><ele>1056.0</ele><time>2026-05-01T16:34:55Z</time></trkpt><trkpt lat="45.83655234437043" lon="11.781272798249335"><ele>1056.0</ele><time>2026-05-01T16:34:56Z</time></trkpt><trkpt lat="45.836723430302804" lon="11.781083312485242"><ele>1059.6666666666667</ele><time>2026-05-01T16:34:57Z</time></trkpt><trkpt lat="45.836901255610535" lon="11.780887006730469"><ele>1063.3333333333335</ele><time>2026-05-01T16:34:58Z</time></trkpt><trkpt lat="45.837075172055954" lon="11.780739363861619"><ele>1067.0</ele><time>2026-05-01T16:34:59Z</time></trkpt><trkpt lat="45.83724239081434" lon="11.780611975100674"><ele>1067.0</ele><time>2026-05-01T16:35:00Z</time></trkpt><trkpt lat="45.837422792836456" lon="11.7804541253563"><ele>1067.0</ele><time>2026-05-01T16:35:01Z</time></trkpt><trkpt lat="45.83757758922798" lon="11.780257941731774"><ele>1067.0</ele><time>2026-05-01T16:35:02Z</time></trkpt><trkpt lat="45.837724502724555" lon="11.780085295526474"><ele>1074.6666666666667</ele><time>2026-05-01T16:35:03Z</time></trkpt><trkpt lat="45.8378450523613" lon="11.779874085536347"><ele>1082.3333333333333</ele><time>2026-05-01T16:35:04Z</time></trkpt><trkpt lat="45.83794339193715" lon="11.779672471688835"><ele>1090.0</ele><time>2026-05-01T16:35:05Z</time></trkpt><trkpt lat="45.8379899479444" lon="11.779472554364494"><ele>1090.25</ele><time>2026-05-01T16:35:06Z</time></trkpt><trkpt lat="45.83800784606189" lon="11.779288796656056"><ele>1090.5</ele><time>2026-05-01T16:35:07Z</time></trkpt><trkpt lat="45.83797603253128" lon="11.779101944334984"><ele>1090.75</ele><time>2026-05-01T16:35:08Z</time></trkpt><trkpt lat="45.83794816386989" lon="11.778895647937253"><ele>1091.0</ele><time>2026-05-01T16:35:09Z</time></trkpt><trkpt lat="45.83793854014863" lon="11.778719348337848"><ele>1091.0</ele><time>2026-05-01T16:35:10Z</time></trkpt><trkpt lat="45.83796291301489" lon="11.77857595839683"><ele>1091.0</ele><time>2026-05-01T16:35:11Z</time></trkpt><trkpt lat="45.83802100552636" lon="11.778459235572907"><ele>1091.0</ele><time>2026-05-01T16:35:11.999Z</time></trkpt><trkpt lat="45.83810253597789" lon="11.778307783075116"><ele>1091.0</ele><time>2026-05-01T16:35:12.999Z</time></trkpt><trkpt lat="45.83818123440246" lon="11.77816976139653"><ele>1090.0</ele><time>2026-05-01T16:35:13.999Z</time></trkpt><trkpt lat="45.83828582195166" lon="11.777984752355927"><ele>1089.0</ele><time>2026-05-01T16:35:14.999Z</time></trkpt><trkpt lat="45.83840789185001" lon="11.777746915060622"><ele>1088.0</ele><time>2026-05-01T16:35:15.999Z</time></trkpt><trkpt lat="45.83853038422469" lon="11.777508814221804"><ele>1095.3333333333335</ele><time>2026-05-01T16:35:16.999Z</time></trkpt><trkpt lat="45.8386528929658" lon="11.777341318331873"><ele>1102.6666666666667</ele><time>2026-05-01T16:35:17.999Z</time></trkpt><trkpt lat="45.8387618631549" lon="11.777144088883007"><ele>1110.0</ele><time>2026-05-01T16:35:18.999Z</time></trkpt><trkpt lat="45.83885057654383" lon="11.776838846951973"><ele>1110.0</ele><time>2026-05-01T16:35:19.999Z</time></trkpt><trkpt lat="45.838937409983394" lon="11.77654720303109"><ele>1110.0</ele><time>2026-05-01T16:35:20.999Z</time></trkpt><trkpt lat="45.83901496259807" lon="11.776282625076668"><ele>1110.0</ele><time>2026-05-01T16:35:21.999Z</time></trkpt><trkpt lat="45.83906723467585" lon="11.776010036440473"><ele>1107.5</ele><time>2026-05-01T16:35:22.999Z</time></trkpt><trkpt lat="45.839106387931274" lon="11.775810016966629"><ele>1105.0</ele><time>2026-05-01T16:35:23.999Z</time></trkpt><trkpt lat="45.839157633272364" lon="11.775638861459267"><ele>1102.5</ele><time>2026-05-01T16:35:24.999Z</time></trkpt><trkpt lat="45.83920821349277" lon="11.775492559714053"><ele>1100.0</ele><time>2026-05-01T16:35:25.999Z</time></trkpt><trkpt lat="45.839252550307656" lon="11.775393298749645"><ele>1100.0</ele><time>2026-05-01T16:35:26.999Z</time></trkpt><trkpt lat="45.839305139538176" lon="11.775333944971944"><ele>1100.0</ele><time>2026-05-01T16:35:27.999Z</time></trkpt><trkpt lat="45.839375143141126" lon="11.775315296977524"><ele>1100.0</ele><time>2026-05-01T16:35:28.999Z</time></trkpt><trkpt lat="45.83942222466663" lon="11.77539348865265"><ele>1100.0</ele><time>2026-05-01T16:35:29.999Z</time></trkpt><trkpt lat="45.83926727933851" lon="11.775533769454647"><ele>1100.0</ele><time>2026-05-01T16:35:30.999Z</time></trkpt><trkpt lat="45.83921396623585" lon="11.775720299694953"><ele>1100.0</ele><time>2026-05-01T16:35:31.999Z</time></trkpt><trkpt lat="45.83917353329196" lon="11.775896252335139"><ele>1100.0</ele><time>2026-05-01T16:35:32.999Z</time></trkpt><trkpt lat="45.839185706983905" lon="11.776078191261492"><ele>1100.0</ele><time>2026-05-01T16:35:33.999Z</time></trkpt><trkpt lat="45.839169426322286" lon="11.776266348643244"><ele>1100.0</ele><time>2026-05-01T16:35:34.999Z</time></trkpt><trkpt lat="45.83915567747217" lon="11.776462282615112"><ele>1103.3333333333335</ele><time>2026-05-01T16:35:35.999Z</time></trkpt><trkpt lat="45.839135410397674" lon="11.776676185979005"><ele>1106.6666666666667</ele><time>2026-05-01T16:35:36.999Z</time></trkpt><trkpt lat="45.839130255876235" lon="11.776964234081923"><ele>1110.0</ele><time>2026-05-01T16:35:37.999Z</time></trkpt><trkpt lat="45.839125400656236" lon="11.777257668068723"><ele>1114.6666666666667</ele><time>2026-05-01T16:35:38.999Z</time></trkpt><trkpt lat="45.83910290872555" lon="11.777534304463515"><ele>1119.3333333333335</ele><time>2026-05-01T16:35:39.999Z</time></trkpt><trkpt lat="45.839070116878844" lon="11.777784822513713"><ele>1124.0</ele><time>2026-05-01T16:35:40.999Z</time></trkpt><trkpt lat="45.83901681405917" lon="11.778064955862916"><ele>1126.75</ele><time>2026-05-01T16:35:41.999Z</time></trkpt><trkpt lat="45.83895502069384" lon="11.77831733944855"><ele>1129.5</ele><time>2026-05-01T16:35:42.999Z</time></trkpt><trkpt lat="45.83887606144403" lon="11.778486979128218"><ele>1132.25</ele><time>2026-05-01T16:35:43.999Z</time></trkpt><trkpt lat="45.83885569342781" lon="11.778615866117397"><ele>1135.0</ele><time>2026-05-01T16:35:44.999Z</time></trkpt><trkpt lat="45.83885291685841" lon="11.778762717076479"><ele>1135.4</ele><time>2026-05-01T16:35:45.999Z</time></trkpt><trkpt lat="45.838903511821755" lon="11.778886707419476"><ele>1135.8</ele><time>2026-05-01T16:35:46.999Z</time></trkpt><trkpt lat="45.83896998331321" lon="11.779031292499281"><ele>1136.2</ele><time>2026-05-01T16:35:47.999Z</time></trkpt><trkpt lat="45.83905258873466" lon="11.7791561074608"><ele>1136.6</ele><time>2026-05-01T16:35:48.999Z</time></trkpt><trkpt lat="45.83913011644242" lon="11.779261864557895"><ele>1137.0</ele><time>2026-05-01T16:35:49.999Z</time></trkpt><trkpt lat="45.839225798801124" lon="11.779373693536506"><ele>1144.0</ele><time>2026-05-01T16:35:50.999Z</time></trkpt><trkpt lat="45.83932447828692" lon="11.779497703882104"><ele>1151.0</ele><time>2026-05-01T16:35:51.999Z</time></trkpt><trkpt lat="45.839389578064" lon="11.779651766153439"><ele>1158.0</ele><time>2026-05-01T16:35:52.999Z</time></trkpt><trkpt lat="45.83942832218999" lon="11.779811941134456"><ele>1165.0</ele><time>2026-05-01T16:35:53.999Z</time></trkpt><trkpt lat="45.83948444618411" lon="11.779966490398683"><ele>1165.0</ele><time>2026-05-01T16:35:54.999Z</time></trkpt><trkpt lat="45.8395881723451" lon="11.780094808724366"><ele>1165.0</ele><time>2026-05-01T16:35:55.999Z</time></trkpt><trkpt lat="45.839699687059884" lon="11.780198751035122"><ele>1165.0</ele><time>2026-05-01T16:35:56.999Z</time></trkpt><trkpt lat="45.839822284515044" lon="11.780331912946643"><ele>1165.0</ele><time>2026-05-01T16:35:57.999Z</time></trkpt><trkpt lat="45.839975022229005" lon="11.780452110454172"><ele>1167.6666666666665</ele><time>2026-05-01T16:35:58.999Z</time></trkpt><trkpt lat="45.84010547997034" lon="11.780593198963006"><ele>1170.3333333333333</ele><time>2026-05-01T16:35:59.999Z</time></trkpt><trkpt lat="45.84023891823176" lon="11.780731819817072"><ele>1173.0</ele><time>2026-05-01T16:36:00.999Z</time></trkpt><trkpt lat="45.84038248452685" lon="11.780854967566873"><ele>1173.0</ele><time>2026-05-01T16:36:01.999Z</time></trkpt><trkpt lat="45.84053738443186" lon="11.780926523358387"><ele>1173.0</ele><time>2026-05-01T16:36:02.999Z</time></trkpt><trkpt lat="45.840684732536324" lon="11.780975268224493"><ele>1173.0</ele><time>2026-05-01T16:36:03.999Z</time></trkpt><trkpt lat="45.84083731940465" lon="11.781009784005887"><ele>1176.5</ele><time>2026-05-01T16:36:04.999Z</time></trkpt><trkpt lat="45.840996499661074" lon="11.780977858297708"><ele>1180.0</ele><time>2026-05-01T16:36:05.999Z</time></trkpt><trkpt lat="45.84114173581349" lon="11.780985119761537"><ele>1183.5</ele><time>2026-05-01T16:36:06.999Z</time></trkpt><trkpt lat="45.84128386031114" lon="11.780971709566591"><ele>1187.0</ele><time>2026-05-01T16:36:07.999Z</time></trkpt><trkpt lat="45.84139989928677" lon="11.781051389754913"><ele>1187.0</ele><time>2026-05-01T16:36:08.999Z</time></trkpt><trkpt lat="45.84141501307174" lon="11.78120990205893"><ele>1187.0</ele><time>2026-05-01T16:36:09.999Z</time></trkpt><trkpt lat="45.841473076208054" lon="11.78135069587528"><ele>1187.0</ele><time>2026-05-01T16:36:10.999Z</time></trkpt><trkpt lat="45.8415222607749" lon="11.781571552581767"><ele>1187.0</ele><time>2026-05-01T16:36:11.999Z</time></trkpt><trkpt lat="45.84155442485748" lon="11.781836069697242"><ele>1188.3333333333335</ele><time>2026-05-01T16:36:12.999Z</time></trkpt><trkpt lat="45.841592274298804" lon="11.782063081029886"><ele>1189.6666666666667</ele><time>2026-05-01T16:36:13.999Z</time></trkpt><trkpt lat="45.841625817965685" lon="11.78231855425735"><ele>1191.0</ele><time>2026-05-01T16:36:14.999Z</time></trkpt><trkpt lat="45.84168897845905" lon="11.78258809296496"><ele>1192.25</ele><time>2026-05-01T16:36:15.999Z</time></trkpt><trkpt lat="45.841764971260105" lon="11.782829009455481"><ele>1193.5</ele><time>2026-05-01T16:36:16.999Z</time></trkpt><trkpt lat="45.8418286863608" lon="11.783012292049735"><ele>1194.75</ele><time>2026-05-01T16:36:17.999Z</time></trkpt><trkpt lat="45.84189382031068" lon="11.783137817651108"><ele>1196.0</ele><time>2026-05-01T16:36:18.999Z</time></trkpt><trkpt lat="45.84196612111495" lon="11.783251703571887"><ele>1197.5</ele><time>2026-05-01T16:36:19.999Z</time></trkpt><trkpt lat="45.84213106276807" lon="11.783270590406667"><ele>1199.0</ele><time>2026-05-01T16:36:20.999Z</time></trkpt><trkpt lat="45.842243087092534" lon="11.783318535751564"><ele>1200.5</ele><time>2026-05-01T16:36:21.999Z</time></trkpt><trkpt lat="45.84235822652714" lon="11.78329365740753"><ele>1202.0</ele><time>2026-05-01T16:36:22.998Z</time></trkpt><trkpt lat="45.8424668045496" lon="11.783197997113977"><ele>1202.0</ele><time>2026-05-01T16:36:23.998Z</time></trkpt><trkpt lat="45.842567148536745" lon="11.783096785813044"><ele>1202.0</ele><time>2026-05-01T16:36:25Z</time></trkpt><trkpt lat="45.842678775001716" lon="11.782959980501465"><ele>1202.0</ele><time>2026-05-01T16:36:26Z</time></trkpt><trkpt lat="45.84276823060793" lon="11.782825539710867"><ele>1202.0</ele><time>2026-05-01T16:36:27Z</time></trkpt><trkpt lat="45.84285508357075" lon="11.782741924391738"><ele>1207.0</ele><time>2026-05-01T16:36:28Z</time></trkpt><trkpt lat="45.84296995991975" lon="11.78273863000632"><ele>1212.0</ele><time>2026-05-01T16:36:29Z</time></trkpt><trkpt lat="45.84307688430085" lon="11.782853618806463"><ele>1217.0</ele><time>2026-05-01T16:36:30Z</time></trkpt><trkpt lat="45.84317601129839" lon="11.782948220773086"><ele>1222.0</ele><time>2026-05-01T16:36:31Z</time></trkpt><trkpt lat="45.84329614604193" lon="11.783056296166098"><ele>1222.0</ele><time>2026-05-01T16:36:32Z</time></trkpt><trkpt lat="45.84344694034103" lon="11.783188734945073"><ele>1222.0</ele><time>2026-05-01T16:36:33Z</time></trkpt><trkpt lat="45.843597261761026" lon="11.783318978046744"><ele>1222.0</ele><time>2026-05-01T16:36:34Z</time></trkpt><trkpt lat="45.84374795437468" lon="11.78344957030786"><ele>1221.5</ele><time>2026-05-01T16:36:35Z</time></trkpt><trkpt lat="45.84386308479438" lon="11.783550612620656"><ele>1221.0</ele><time>2026-05-01T16:36:36Z</time></trkpt><trkpt lat="45.843970494993236" lon="11.78363070212666"><ele>1220.5</ele><time>2026-05-01T16:36:37Z</time></trkpt><trkpt lat="45.84409141601657" lon="11.783661247434102"><ele>1220.0</ele><time>2026-05-01T16:36:38Z</time></trkpt><trkpt lat="45.84424382628132" lon="11.783728327240622"><ele>1225.0</ele><time>2026-05-01T16:36:39Z</time></trkpt><trkpt lat="45.844415894165714" lon="11.78380665548033"><ele>1230.0</ele><time>2026-05-01T16:36:40Z</time></trkpt><trkpt lat="45.84460679710406" lon="11.783901652669966"><ele>1235.0</ele><time>2026-05-01T16:36:41Z</time></trkpt><trkpt lat="45.844779805382245" lon="11.784012227532815"><ele>1235.0</ele><time>2026-05-01T16:36:42Z</time></trkpt><trkpt lat="45.84491572671894" lon="11.784104516267377"><ele>1235.0</ele><time>2026-05-01T16:36:43Z</time></trkpt><trkpt lat="45.84500715244459" lon="11.78425276643069"><ele>1235.0</ele><time>2026-05-01T16:36:44Z</time></trkpt><trkpt lat="45.84508245605505" lon="11.784429560612791"><ele>1235.0</ele><time>2026-05-01T16:36:45Z</time></trkpt><trkpt lat="45.84517786040402" lon="11.784643540647693"><ele>1239.6666666666667</ele><time>2026-05-01T16:36:46Z</time></trkpt><trkpt lat="45.84527480047816" lon="11.784859197194264"><ele>1244.3333333333333</ele><time>2026-05-01T16:36:47Z</time></trkpt><trkpt lat="45.845382337991595" lon="11.785051587157922"><ele>1249.0</ele><time>2026-05-01T16:36:48Z</time></trkpt><trkpt lat="45.84548377784982" lon="11.785236396758961"><ele>1249.0</ele><time>2026-05-01T16:36:49Z</time></trkpt><trkpt lat="45.845598249162414" lon="11.785393911814063"><ele>1249.0</ele><time>2026-05-01T16:36:50Z</time></trkpt><trkpt lat="45.845736109526726" lon="11.785535980456002"><ele>1249.0</ele><time>2026-05-01T16:36:51Z</time></trkpt><trkpt lat="45.8459085370245" lon="11.785669371587183"><ele>1256.0</ele><time>2026-05-01T16:36:52Z</time></trkpt><trkpt lat="45.84608406660927" lon="11.785835994340916"><ele>1263.0</ele><time>2026-05-01T16:36:53Z</time></trkpt><trkpt lat="45.84625430809661" lon="11.785999615740584"><ele>1270.0</ele><time>2026-05-01T16:36:54Z</time></trkpt><trkpt lat="45.84641219671896" lon="11.786169370452237"><ele>1270.0</ele><time>2026-05-01T16:36:55Z</time></trkpt><trkpt lat="45.846538522220484" lon="11.78631350300049"><ele>1270.0</ele><time>2026-05-01T16:36:56Z</time></trkpt><trkpt lat="45.846580848423585" lon="11.78650942524442"><ele>1270.0</ele><time>2026-05-01T16:36:57Z</time></trkpt><trkpt lat="45.846654629322245" lon="11.786724443581928"><ele>1270.0</ele><time>2026-05-01T16:36:58Z</time></trkpt><trkpt lat="45.84676173890459" lon="11.786988395914994"><ele>1270.0</ele><time>2026-05-01T16:36:59Z</time></trkpt><trkpt lat="45.846857158476546" lon="11.78722482259182"><ele>1270.0</ele><time>2026-05-01T16:37:00Z</time></trkpt><trkpt lat="45.846938641037084" lon="11.787421077054388"><ele>1272.0</ele><time>2026-05-01T16:37:01Z</time></trkpt><trkpt lat="45.84701391340235" lon="11.787592568462651"><ele>1274.0</ele><time>2026-05-01T16:37:02Z</time></trkpt><trkpt lat="45.84710957089734" lon="11.787742271271037"><ele>1276.0</ele><time>2026-05-01T16:37:03Z</time></trkpt><trkpt lat="45.84724944589597" lon="11.78782421961437"><ele>1278.0</ele><time>2026-05-01T16:37:04Z</time></trkpt><trkpt lat="45.8474097167149" lon="11.787968759146192"><ele>1278.0</ele><time>2026-05-01T16:37:05Z</time></trkpt><trkpt lat="45.84758704315629" lon="11.788127438831658"><ele>1278.0</ele><time>2026-05-01T16:37:06Z</time></trkpt><trkpt lat="45.8477725610265" lon="11.788234093864915"><ele>1278.0</ele><time>2026-05-01T16:37:07Z</time></trkpt><trkpt lat="45.847914954122444" lon="11.788309525731501"><ele>1285.0</ele><time>2026-05-01T16:37:08Z</time></trkpt><trkpt lat="45.84801688775289" lon="11.788389564180761"><ele>1292.0</ele><time>2026-05-01T16:37:09Z</time></trkpt><trkpt lat="45.848061245784685" lon="11.788539636144973"><ele>1299.0</ele><time>2026-05-01T16:37:10Z</time></trkpt><trkpt lat="45.84812659479326" lon="11.788745046808367"><ele>1306.0</ele><time>2026-05-01T16:37:11Z</time></trkpt><trkpt lat="45.848178326550595" lon="11.7889603452354"><ele>1306.0</ele><time>2026-05-01T16:37:12Z</time></trkpt><trkpt lat="45.84825419636294" lon="11.789281876801729"><ele>1306.0</ele><time>2026-05-01T16:37:13Z</time></trkpt><trkpt lat="45.8483442318521" lon="11.789534505083353"><ele>1306.0</ele><time>2026-05-01T16:37:14Z</time></trkpt><trkpt lat="45.84844385861302" lon="11.789782389431334"><ele>1317.0</ele><time>2026-05-01T16:37:15Z</time></trkpt><trkpt lat="45.84853902084586" lon="11.790017640723422"><ele>1328.0</ele><time>2026-05-01T16:37:15.999Z</time></trkpt><trkpt lat="45.848608398096665" lon="11.790241292341058"><ele>1339.0</ele><time>2026-05-01T16:37:16.999Z</time></trkpt><trkpt lat="45.84861503537608" lon="11.79047015660534"><ele>1339.0</ele><time>2026-05-01T16:37:17.999Z</time></trkpt><trkpt lat="45.8486214205967" lon="11.790711421681449"><ele>1339.0</ele><time>2026-05-01T16:37:18.999Z</time></trkpt><trkpt lat="45.848615763355724" lon="11.790893898559458"><ele>1339.0</ele><time>2026-05-01T16:37:19.999Z</time></trkpt><trkpt lat="45.84858842228413" lon="11.791025226912813"><ele>1339.0</ele><time>2026-05-01T16:37:20.999Z</time></trkpt><trkpt lat="45.84851478805289" lon="11.791156275772538"><ele>1336.6</ele><time>2026-05-01T16:37:21.999Z</time></trkpt><trkpt lat="45.848443873222955" lon="11.791282743644027"><ele>1334.2</ele><time>2026-05-01T16:37:22.999Z</time></trkpt><trkpt lat="45.84838390694636" lon="11.791356593119188"><ele>1331.8</ele><time>2026-05-01T16:37:23.999Z</time></trkpt><trkpt lat="45.84829864368025" lon="11.791355352568702"><ele>1329.3999999999999</ele><time>2026-05-01T16:37:24.999Z</time></trkpt><trkpt lat="45.84820658149797" lon="11.791277692349357"><ele>1327.0</ele><time>2026-05-01T16:37:25.999Z</time></trkpt><trkpt lat="45.848080738460546" lon="11.791224863863592"><ele>1327.0</ele><time>2026-05-01T16:37:26.999Z</time></trkpt><trkpt lat="45.84798605879848" lon="11.79124224943286"><ele>1327.0</ele><time>2026-05-01T16:37:28.999Z</time></trkpt><trkpt lat="45.84795791551008" lon="11.791334331869566"><ele>1327.0</ele><time>2026-05-01T16:37:29.999Z</time></trkpt><trkpt lat="45.848042815821316" lon="11.791443448853233"><ele>1327.0</ele><time>2026-05-01T16:37:30.999Z</time></trkpt><trkpt lat="45.84813215708175" lon="11.791497343770759"><ele>1327.0</ele><time>2026-05-01T16:37:31.999Z</time></trkpt><trkpt lat="45.84821319153634" lon="11.791568338530098"><ele>1327.0</ele><time>2026-05-01T16:37:32.999Z</time></trkpt><trkpt lat="45.8482775007579" lon="11.79170112067456"><ele>1327.0</ele><time>2026-05-01T16:37:33.999Z</time></trkpt><trkpt lat="45.84833775597746" lon="11.79182618907639"><ele>1327.0</ele><time>2026-05-01T16:37:34.999Z</time></trkpt><trkpt lat="45.84837411478396" lon="11.791950141348162"><ele>1327.0</ele><time>2026-05-01T16:37:35.999Z</time></trkpt><trkpt lat="45.84838267221454" lon="11.792079767928755"><ele>1327.0</ele><time>2026-05-01T16:37:36.999Z</time></trkpt><trkpt lat="45.84838203353634" lon="11.792208345758892"><ele>1328.6</ele><time>2026-05-01T16:37:37.999Z</time></trkpt><trkpt lat="45.84831031117439" lon="11.792287165647291"><ele>1330.1999999999998</ele><time>2026-05-01T16:37:38.999Z</time></trkpt><trkpt lat="45.848254933281254" lon="11.792429777432142"><ele>1331.8</ele><time>2026-05-01T16:37:39.999Z</time></trkpt><trkpt lat="45.84821615995073" lon="11.792577453240725"><ele>1333.4</ele><time>2026-05-01T16:37:40.999Z</time></trkpt><trkpt lat="45.84818374196723" lon="11.792725414772834"><ele>1335.0</ele><time>2026-05-01T16:37:41.999Z</time></trkpt><trkpt lat="45.8482188322271" lon="11.792897230926352"><ele>1338.25</ele><time>2026-05-01T16:37:42.999Z</time></trkpt><trkpt lat="45.848261206467015" lon="11.793058327825086"><ele>1341.5</ele><time>2026-05-01T16:37:43.999Z</time></trkpt><trkpt lat="45.848316841988236" lon="11.793205928677658"><ele>1344.75</ele><time>2026-05-01T16:37:44.999Z</time></trkpt><trkpt lat="45.84837688377084" lon="11.793348966691585"><ele>1348.0</ele><time>2026-05-01T16:37:45.999Z</time></trkpt><trkpt lat="45.84846014743797" lon="11.79349651725176"><ele>1348.0</ele><time>2026-05-01T16:37:46.999Z</time></trkpt><trkpt lat="45.848556404822396" lon="11.793623188879863"><ele>1348.0</ele><time>2026-05-01T16:37:47.999Z</time></trkpt><trkpt lat="45.8486660405634" lon="11.793730831326178"><ele>1348.0</ele><time>2026-05-01T16:37:48.999Z</time></trkpt><trkpt lat="45.84875520981938" lon="11.793841579466953"><ele>1348.0</ele><time>2026-05-01T16:37:49.999Z</time></trkpt><trkpt lat="45.8488620161917" lon="11.793918484139416"><ele>1348.0</ele><time>2026-05-01T16:37:50.999Z</time></trkpt><trkpt lat="45.848955818459565" lon="11.793964054850997"><ele>1348.0</ele><time>2026-05-01T16:37:51.999Z</time></trkpt><trkpt lat="45.84907056014672" lon="11.793956537208501"><ele>1348.0</ele><time>2026-05-01T16:37:52.999Z</time></trkpt><trkpt lat="45.84918577726794" lon="11.79399861562332"><ele>1348.0</ele><time>2026-05-01T16:37:53.999Z</time></trkpt><trkpt lat="45.84931218670567" lon="11.793998252104304"><ele>1347.5</ele><time>2026-05-01T16:37:54.999Z</time></trkpt><trkpt lat="45.84943852831286" lon="11.794002202886938"><ele>1347.0</ele><time>2026-05-01T16:37:55.999Z</time></trkpt><trkpt lat="45.84957145255774" lon="11.794054123232824"><ele>1346.5</ele><time>2026-05-01T16:37:56.999Z</time></trkpt><trkpt lat="45.849672864663894" lon="11.794160590581534"><ele>1346.0</ele><time>2026-05-01T16:37:57.999Z</time></trkpt><trkpt lat="45.849783173230776" lon="11.794227334318906"><ele>1346.0</ele><time>2026-05-01T16:37:58.999Z</time></trkpt><trkpt lat="45.84990695196133" lon="11.79424849907015"><ele>1346.0</ele><time>2026-05-01T16:37:59.999Z</time></trkpt><trkpt lat="45.85000934916373" lon="11.794305870458423"><ele>1346.0</ele><time>2026-05-01T16:38:00.999Z</time></trkpt><trkpt lat="45.85011527473091" lon="11.794365356065365"><ele>1346.0</ele><time>2026-05-01T16:38:01.999Z</time></trkpt><trkpt lat="45.85022469053591" lon="11.794408235213673"><ele>1344.0</ele><time>2026-05-01T16:38:02.999Z</time></trkpt><trkpt lat="45.850359979449465" lon="11.794405632360972"><ele>1342.0</ele><time>2026-05-01T16:38:03.999Z</time></trkpt><trkpt lat="45.85049382019071" lon="11.794365274248001"><ele>1340.0</ele><time>2026-05-01T16:38:04.999Z</time></trkpt><trkpt lat="45.850631244726316" lon="11.794304511690422"><ele>1338.0</ele><time>2026-05-01T16:38:05.999Z</time></trkpt><trkpt lat="45.85074863233641" lon="11.794221528240698"><ele>1338.0</ele><time>2026-05-01T16:38:06.999Z</time></trkpt><trkpt lat="45.8508571241484" lon="11.794139563401176"><ele>1338.0</ele><time>2026-05-01T16:38:07.999Z</time></trkpt><trkpt lat="45.850953881158425" lon="11.794074618224665"><ele>1338.0</ele><time>2026-05-01T16:38:08.999Z</time></trkpt><trkpt lat="45.85104458405591" lon="11.794051366356483"><ele>1338.0</ele><time>2026-05-01T16:38:09.999Z</time></trkpt><trkpt lat="45.851138216774785" lon="11.794083487541775"><ele>1338.0</ele><time>2026-05-01T16:38:10.999Z</time></trkpt><trkpt lat="45.8512276963927" lon="11.794176871763138"><ele>1338.0</ele><time>2026-05-01T16:38:11.999Z</time></trkpt><trkpt lat="45.85131610970071" lon="11.794262438181793"><ele>1338.0</ele><time>2026-05-01T16:38:12.999Z</time></trkpt><trkpt lat="45.85140392130484" lon="11.794333173870559"><ele>1338.0</ele><time>2026-05-01T16:38:13.999Z</time></trkpt><trkpt lat="45.8514926242317" lon="11.794375684128159"><ele>1338.0</ele><time>2026-05-01T16:38:14.999Z</time></trkpt><trkpt lat="45.85160161752213" lon="11.79432721739211"><ele>1338.0</ele><time>2026-05-01T16:38:15.999Z</time></trkpt><trkpt lat="45.8516942299592" lon="11.794287356574168"><ele>1338.0</ele><time>2026-05-01T16:38:16.999Z</time></trkpt><trkpt lat="45.85178108331488" lon="11.794268490325805"><ele>1338.0</ele><time>2026-05-01T16:38:17.999Z</time></trkpt><trkpt lat="45.85184913033704" lon="11.794318974395567"><ele>1338.0</ele><time>2026-05-01T16:38:18.999Z</time></trkpt><trkpt lat="45.8519068915807" lon="11.794423867223985"><ele>1338.0</ele><time>2026-05-01T16:38:19.999Z</time></trkpt><trkpt lat="45.85194277934415" lon="11.794561300482998"><ele>1338.0</ele><time>2026-05-01T16:38:20.999Z</time></trkpt><trkpt lat="45.852003618283334" lon="11.794668550533274"><ele>1338.25</ele><time>2026-05-01T16:38:21.999Z</time></trkpt><trkpt lat="45.8520735232124" lon="11.794770108059634"><ele>1338.5</ele><time>2026-05-01T16:38:22.999Z</time></trkpt><trkpt lat="45.85218836661178" lon="11.794790129526973"><ele>1338.75</ele><time>2026-05-01T16:38:23.999Z</time></trkpt><trkpt lat="45.85230314597781" lon="11.794836633514292"><ele>1339.0</ele><time>2026-05-01T16:38:24.998Z</time></trkpt><trkpt lat="45.852423367583924" lon="11.794801391325805"><ele>1339.0</ele><time>2026-05-01T16:38:25.998Z</time></trkpt><trkpt lat="45.85250998765354" lon="11.794772452285635"><ele>1339.0</ele><time>2026-05-01T16:38:26.998Z</time></trkpt><trkpt lat="45.85260722990186" lon="11.794871937355472"><ele>1339.0</ele><time>2026-05-01T16:38:28.998Z</time></trkpt><trkpt lat="45.852620400339845" lon="11.794988629630803"><ele>1339.0</ele><time>2026-05-01T16:38:29.998Z</time></trkpt><trkpt lat="45.85264163208972" lon="11.795128835709841"><ele>1339.0</ele><time>2026-05-01T16:38:31Z</time></trkpt><trkpt lat="45.852673549854615" lon="11.795279901935793"><ele>1340.25</ele><time>2026-05-01T16:38:32Z</time></trkpt><trkpt lat="45.85273637239769" lon="11.795430147870889"><ele>1341.5</ele><time>2026-05-01T16:38:33Z</time></trkpt><trkpt lat="45.852816994584096" lon="11.795577567195743"><ele>1342.75</ele><time>2026-05-01T16:38:34Z</time></trkpt><trkpt lat="45.85288404662343" lon="11.795709335188194"><ele>1344.0</ele><time>2026-05-01T16:38:35Z</time></trkpt><trkpt lat="45.85290703970421" lon="11.795831267436297"><ele>1344.0</ele><time>2026-05-01T16:38:36Z</time></trkpt><trkpt lat="45.852894851494106" lon="11.795963805285457"><ele>1344.0</ele><time>2026-05-01T16:38:37Z</time></trkpt><trkpt lat="45.85285041727564" lon="11.796083229793185"><ele>1344.0</ele><time>2026-05-01T16:38:38Z</time></trkpt><trkpt lat="45.85279348289229" lon="11.796253433871723"><ele>1344.0</ele><time>2026-05-01T16:38:39Z</time></trkpt><trkpt lat="45.85275126519244" lon="11.796438939703215"><ele>1346.0</ele><time>2026-05-01T16:38:40Z</time></trkpt><trkpt lat="45.85270234566404" lon="11.796634326945483"><ele>1348.0</ele><time>2026-05-01T16:38:41Z</time></trkpt><trkpt lat="45.85267970912292" lon="11.796850699569216"><ele>1350.0</ele><time>2026-05-01T16:38:42Z</time></trkpt><trkpt lat="45.85268272364851" lon="11.79707714035743"><ele>1350.0</ele><time>2026-05-01T16:38:43Z</time></trkpt><trkpt lat="45.85270521960574" lon="11.797276924385175"><ele>1350.0</ele><time>2026-05-01T16:38:44Z</time></trkpt><trkpt lat="45.85273139943538" lon="11.797454945853188"><ele>1350.0</ele><time>2026-05-01T16:38:45Z</time></trkpt><trkpt lat="45.852760406014184" lon="11.797612020330533"><ele>1350.0</ele><time>2026-05-01T16:38:46Z</time></trkpt><trkpt lat="45.85278742829015" lon="11.797776439600844"><ele>1350.25</ele><time>2026-05-01T16:38:47Z</time></trkpt><trkpt lat="45.85292453237532" lon="11.797859956355163"><ele>1350.5</ele><time>2026-05-01T16:38:48Z</time></trkpt><trkpt lat="45.853036145173604" lon="11.797914574635389"><ele>1350.75</ele><time>2026-05-01T16:38:49Z</time></trkpt><trkpt lat="45.853142539544514" lon="11.797924839777108"><ele>1351.0</ele><time>2026-05-01T16:38:50Z</time></trkpt><trkpt lat="45.8532329790702" lon="11.797820396819573"><ele>1351.0</ele><time>2026-05-01T16:38:51Z</time></trkpt><trkpt lat="45.853298301174206" lon="11.797682418777464"><ele>1351.0</ele><time>2026-05-01T16:38:52Z</time></trkpt><trkpt lat="45.85331751703353" lon="11.797510719353566"><ele>1351.0</ele><time>2026-05-01T16:38:53Z</time></trkpt><trkpt lat="45.8533011508789" lon="11.797345033009705"><ele>1351.0</ele><time>2026-05-01T16:38:54Z</time></trkpt><trkpt lat="45.85326351516236" lon="11.797218614781153"><ele>1350.8</ele><time>2026-05-01T16:38:55Z</time></trkpt><trkpt lat="45.85326643872936" lon="11.797126793331868"><ele>1350.6</ele><time>2026-05-01T16:38:56Z</time></trkpt><trkpt lat="45.85337279069668" lon="11.797113785837357"><ele>1350.4</ele><time>2026-05-01T16:38:58Z</time></trkpt><trkpt lat="45.853452874813186" lon="11.797253393545029"><ele>1350.2</ele><time>2026-05-01T16:38:59Z</time></trkpt><trkpt lat="45.85353319115982" lon="11.797333935660209"><ele>1350.0</ele><time>2026-05-01T16:39:00Z</time></trkpt><trkpt lat="45.85363484487675" lon="11.797413692325176"><ele>1356.0</ele><time>2026-05-01T16:39:01Z</time></trkpt><trkpt lat="45.85374866992708" lon="11.797479602744247"><ele>1362.0</ele><time>2026-05-01T16:39:02Z</time></trkpt><trkpt lat="45.85389568380959" lon="11.797503561107005"><ele>1368.0</ele><time>2026-05-01T16:39:03Z</time></trkpt><trkpt lat="45.85401524943445" lon="11.797523060761451"><ele>1374.0</ele><time>2026-05-01T16:39:04Z</time></trkpt><trkpt lat="45.85409278364914" lon="11.79752167688885"><ele>1374.0</ele><time>2026-05-01T16:39:05Z</time></trkpt><trkpt lat="45.85417764114208" lon="11.79739876817126"><ele>1374.0</ele><time>2026-05-01T16:39:07Z</time></trkpt><trkpt lat="45.854154530882624" lon="11.797269269989632"><ele>1374.0</ele><time>2026-05-01T16:39:08Z</time></trkpt><trkpt lat="45.85408643421463" lon="11.797143074138416"><ele>1374.0</ele><time>2026-05-01T16:39:09Z</time></trkpt><trkpt lat="45.85400919168824" lon="11.797019830250653"><ele>1374.0</ele><time>2026-05-01T16:39:10Z</time></trkpt><trkpt lat="45.85392814734633" lon="11.796916688177703"><ele>1374.0</ele><time>2026-05-01T16:39:11Z</time></trkpt><trkpt lat="45.853863677048665" lon="11.796834639847024"><ele>1374.0</ele><time>2026-05-01T16:39:12Z</time></trkpt><trkpt lat="45.8538152759124" lon="11.796726481595885"><ele>1374.0</ele><time>2026-05-01T16:39:14Z</time></trkpt><trkpt lat="45.85391066431269" lon="11.796686748867979"><ele>1374.0</ele><time>2026-05-01T16:39:16Z</time></trkpt><trkpt lat="45.85398258646936" lon="11.796794836328965"><ele>1374.0</ele><time>2026-05-01T16:39:17Z</time></trkpt><trkpt lat="45.85406165284463" lon="11.796857374504409"><ele>1374.0</ele><time>2026-05-01T16:39:18Z</time></trkpt><trkpt lat="45.85414139347294" lon="11.7969392878808"><ele>1374.0</ele><time>2026-05-01T16:39:19Z</time></trkpt><trkpt lat="45.8542372095737" lon="11.797030415123688"><ele>1374.0</ele><time>2026-05-01T16:39:20Z</time></trkpt><trkpt lat="45.85435848604222" lon="11.797087902620493"><ele>1374.0</ele><time>2026-05-01T16:39:21Z</time></trkpt><trkpt lat="45.85449668962864" lon="11.797120469130792"><ele>1378.25</ele><time>2026-05-01T16:39:21.999Z</time></trkpt><trkpt lat="45.854646965303345" lon="11.797115625075167"><ele>1382.5</ele><time>2026-05-01T16:39:22.999Z</time></trkpt><trkpt lat="45.854783101700995" lon="11.797156740865756"><ele>1386.75</ele><time>2026-05-01T16:39:23.999Z</time></trkpt><trkpt lat="45.85488721498713" lon="11.79719417830673"><ele>1391.0</ele><time>2026-05-01T16:39:24.999Z</time></trkpt><trkpt lat="45.85496449295317" lon="11.797280116364405"><ele>1391.0</ele><time>2026-05-01T16:39:25.999Z</time></trkpt><trkpt lat="45.855001373602406" lon="11.797402768780913"><ele>1391.0</ele><time>2026-05-01T16:39:26.999Z</time></trkpt><trkpt lat="45.85502347677274" lon="11.797531403438594"><ele>1391.0</ele><time>2026-05-01T16:39:27.999Z</time></trkpt><trkpt lat="45.85499467046243" lon="11.797673610023736"><ele>1391.0</ele><time>2026-05-01T16:39:28.999Z</time></trkpt><trkpt lat="45.8549251208729" lon="11.79778595651639"><ele>1391.0</ele><time>2026-05-01T16:39:29.999Z</time></trkpt><trkpt lat="45.85488405723074" lon="11.797928896730092"><ele>1394.25</ele><time>2026-05-01T16:39:30.999Z</time></trkpt><trkpt lat="45.85483193914122" lon="11.798079155355715"><ele>1397.5</ele><time>2026-05-01T16:39:31.999Z</time></trkpt><trkpt lat="45.85477165431594" lon="11.798220731232785"><ele>1400.75</ele><time>2026-05-01T16:39:32.999Z</time></trkpt><trkpt lat="45.85470402324673" lon="11.798345548575863"><ele>1404.0</ele><time>2026-05-01T16:39:33.999Z</time></trkpt><trkpt lat="45.854630457168575" lon="11.798459925122655"><ele>1407.0</ele><time>2026-05-01T16:39:34.999Z</time></trkpt><trkpt lat="45.8545537063329" lon="11.798590296879468"><ele>1410.0</ele><time>2026-05-01T16:39:35.999Z</time></trkpt><trkpt lat="45.854478255596234" lon="11.798671099118533"><ele>1413.0</ele><time>2026-05-01T16:39:36.999Z</time></trkpt><trkpt lat="45.85444350615238" lon="11.798774189735848"><ele>1416.0</ele><time>2026-05-01T16:39:37.999Z</time></trkpt><trkpt lat="45.854448106303785" lon="11.79889700530026"><ele>1419.0</ele><time>2026-05-01T16:39:38.999Z</time></trkpt><trkpt lat="45.85448525963228" lon="11.799042839106711"><ele>1419.0</ele><time>2026-05-01T16:39:39.999Z</time></trkpt><trkpt lat="45.854541465805205" lon="11.79920695309194"><ele>1419.0</ele><time>2026-05-01T16:39:40.999Z</time></trkpt><trkpt lat="45.85460924773157" lon="11.79938048536513"><ele>1419.0</ele><time>2026-05-01T16:39:41.999Z</time></trkpt><trkpt lat="45.8546968389221" lon="11.799564274650377"><ele>1419.0</ele><time>2026-05-01T16:39:42.999Z</time></trkpt><trkpt lat="45.85479421717201" lon="11.799705782195904"><ele>1418.25</ele><time>2026-05-01T16:39:43.999Z</time></trkpt><trkpt lat="45.85487579655491" lon="11.79984936576475"><ele>1417.5</ele><time>2026-05-01T16:39:44.999Z</time></trkpt><trkpt lat="45.85498920962316" lon="11.799960085727637"><ele>1416.75</ele><time>2026-05-01T16:39:45.999Z</time></trkpt><trkpt lat="45.855140696004035" lon="11.800084472862396"><ele>1416.0</ele><time>2026-05-01T16:39:46.999Z</time></trkpt><trkpt lat="45.855293837236815" lon="11.800233680069137"><ele>1415.3333333333333</ele><time>2026-05-01T16:39:47.999Z</time></trkpt><trkpt lat="45.85543975772032" lon="11.800350225606174"><ele>1414.6666666666665</ele><time>2026-05-01T16:39:48.999Z</time></trkpt><trkpt lat="45.85555724514868" lon="11.800510250845454"><ele>1414.0</ele><time>2026-05-01T16:39:49.999Z</time></trkpt><trkpt lat="45.85565492972896" lon="11.80065212206497"><ele>1414.0</ele><time>2026-05-01T16:39:50.999Z</time></trkpt><trkpt lat="45.85573674557167" lon="11.800786055496685"><ele>1414.0</ele><time>2026-05-01T16:39:51.999Z</time></trkpt><trkpt lat="45.855824357114415" lon="11.800934418238242"><ele>1414.0</ele><time>2026-05-01T16:39:52.999Z</time></trkpt><trkpt lat="45.855905435269364" lon="11.80103317364301"><ele>1414.0</ele><time>2026-05-01T16:39:53.999Z</time></trkpt><trkpt lat="45.855981885066235" lon="11.801110566706566"><ele>1413.8000000000002</ele><time>2026-05-01T16:39:54.999Z</time></trkpt><trkpt lat="45.85605163609608" lon="11.801187534187429"><ele>1413.6000000000001</ele><time>2026-05-01T16:39:55.999Z</time></trkpt><trkpt lat="45.85607860141271" lon="11.80128990221604"><ele>1413.4</ele><time>2026-05-01T16:39:56.999Z</time></trkpt><trkpt lat="45.85606888488311" lon="11.801400302438182"><ele>1413.2</ele><time>2026-05-01T16:39:57.999Z</time></trkpt><trkpt lat="45.8560270446832" lon="11.801538023103646"><ele>1413.0</ele><time>2026-05-01T16:39:58.999Z</time></trkpt><trkpt lat="45.856071988157645" lon="11.801672348421363"><ele>1413.0</ele><time>2026-05-01T16:39:59.999Z</time></trkpt><trkpt lat="45.856136362508416" lon="11.801800732763985"><ele>1413.0</ele><time>2026-05-01T16:40:00.999Z</time></trkpt><trkpt lat="45.85622347168443" lon="11.801875634218188"><ele>1413.0</ele><time>2026-05-01T16:40:01.999Z</time></trkpt><trkpt lat="45.856280597820785" lon="11.801957436797958"><ele>1413.0</ele><time>2026-05-01T16:40:02.999Z</time></trkpt><trkpt lat="45.856292003073364" lon="11.802100890673417"><ele>1413.0</ele><time>2026-05-01T16:40:03.999Z</time></trkpt><trkpt lat="45.856277684218576" lon="11.80227029049765"><ele>1413.4</ele><time>2026-05-01T16:40:04.999Z</time></trkpt><trkpt lat="45.85625696215018" lon="11.802412716228979"><ele>1413.8000000000002</ele><time>2026-05-01T16:40:05.999Z</time></trkpt><trkpt lat="45.856277279636494" lon="11.802567587614682"><ele>1414.2</ele><time>2026-05-01T16:40:06.999Z</time></trkpt><trkpt lat="45.85633742119488" lon="11.802654944458748"><ele>1414.6</ele><time>2026-05-01T16:40:07.999Z</time></trkpt><trkpt lat="45.85644417214989" lon="11.802709741329785"><ele>1415.0</ele><time>2026-05-01T16:40:08.999Z</time></trkpt><trkpt lat="45.85654218358335" lon="11.802746909334921"><ele>1415.4</ele><time>2026-05-01T16:40:09.999Z</time></trkpt><trkpt lat="45.85661435701104" lon="11.802797601880604"><ele>1415.8</ele><time>2026-05-01T16:40:10.999Z</time></trkpt><trkpt lat="45.85666043489211" lon="11.802874012558918"><ele>1416.1999999999998</ele><time>2026-05-01T16:40:11.999Z</time></trkpt><trkpt lat="45.85668183926268" lon="11.803014258394283"><ele>1416.6</ele><time>2026-05-01T16:40:12.999Z</time></trkpt><trkpt lat="45.85667624541533" lon="11.803167420696086"><ele>1417.0</ele><time>2026-05-01T16:40:13.999Z</time></trkpt><trkpt lat="45.856690232268356" lon="11.80333916376951"><ele>1417.0</ele><time>2026-05-01T16:40:14.999Z</time></trkpt><trkpt lat="45.85668770606319" lon="11.803485119581051"><ele>1417.0</ele><time>2026-05-01T16:40:15.999Z</time></trkpt><trkpt lat="45.85671116123541" lon="11.803661550339049"><ele>1417.0</ele><time>2026-05-01T16:40:16.999Z</time></trkpt><trkpt lat="45.85674421090655" lon="11.803819570354896"><ele>1417.0</ele><time>2026-05-01T16:40:17.999Z</time></trkpt><trkpt lat="45.856777050402165" lon="11.803979307440963"><ele>1419.8</ele><time>2026-05-01T16:40:18.999Z</time></trkpt><trkpt lat="45.85680482148532" lon="11.804133313028986"><ele>1422.6</ele><time>2026-05-01T16:40:19.999Z</time></trkpt><trkpt lat="45.856837398651805" lon="11.804276604985315"><ele>1425.3999999999999</ele><time>2026-05-01T16:40:20.999Z</time></trkpt><trkpt lat="45.856879887150654" lon="11.804402951283805"><ele>1428.1999999999998</ele><time>2026-05-01T16:40:21.999Z</time></trkpt><trkpt lat="45.8569461730475" lon="11.804464164895043"><ele>1431.0</ele><time>2026-05-01T16:40:22.999Z</time></trkpt><trkpt lat="45.857040639943534" lon="11.80447862589698"><ele>1431.0</ele><time>2026-05-01T16:40:23.999Z</time></trkpt><trkpt lat="45.857153231933914" lon="11.804465217572561"><ele>1431.0</ele><time>2026-05-01T16:40:24.999Z</time></trkpt><trkpt lat="45.857288783019605" lon="11.804358921495682"><ele>1431.0</ele><time>2026-05-01T16:40:25.999Z</time></trkpt><trkpt lat="45.857399483075554" lon="11.804244090627526"><ele>1431.0</ele><time>2026-05-01T16:40:26.999Z</time></trkpt><trkpt lat="45.85749848935776" lon="11.804086748072802"><ele>1435.0</ele><time>2026-05-01T16:40:27.999Z</time></trkpt><trkpt lat="45.85758286207181" lon="11.803921908432422"><ele>1439.0</ele><time>2026-05-01T16:40:28.999Z</time></trkpt><trkpt lat="45.85767195416513" lon="11.803816034271527"><ele>1443.0</ele><time>2026-05-01T16:40:29.998Z</time></trkpt><trkpt lat="45.85775133510587" lon="11.803774997575587"><ele>1447.0</ele><time>2026-05-01T16:40:30.998Z</time></trkpt><trkpt lat="45.85785492182363" lon="11.803812028965757"><ele>1451.0</ele><time>2026-05-01T16:40:31.998Z</time></trkpt><trkpt lat="45.8579021683827" lon="11.803889649313122"><ele>1456.5</ele><time>2026-05-01T16:40:32.998Z</time></trkpt><trkpt lat="45.85797925270803" lon="11.804045858798627"><ele>1462.0</ele><time>2026-05-01T16:40:34.998Z</time></trkpt><trkpt lat="45.85805420364137" lon="11.804121505761213"><ele>1467.5</ele><time>2026-05-01T16:40:35.998Z</time></trkpt><trkpt lat="45.85816959896782" lon="11.804120316349483"><ele>1473.0</ele><time>2026-05-01T16:40:37Z</time></trkpt><trkpt lat="45.85827375362029" lon="11.804066036445988"><ele>1473.0</ele><time>2026-05-01T16:40:38Z</time></trkpt><trkpt lat="45.85835700717312" lon="11.803937620357411"><ele>1473.0</ele><time>2026-05-01T16:40:39Z</time></trkpt><trkpt lat="45.858423517496554" lon="11.80380875805003"><ele>1473.0</ele><time>2026-05-01T16:40:40Z</time></trkpt><trkpt lat="45.858491368714134" lon="11.803684238771368"><ele>1473.0</ele><time>2026-05-01T16:40:41Z</time></trkpt><trkpt lat="45.858546378529844" lon="11.803545370257766"><ele>1479.2</ele><time>2026-05-01T16:40:42Z</time></trkpt><trkpt lat="45.858624922012964" lon="11.803436467403307"><ele>1485.4</ele><time>2026-05-01T16:40:43Z</time></trkpt><trkpt lat="45.858689536178154" lon="11.803304515239393"><ele>1491.6000000000001</ele><time>2026-05-01T16:40:44Z</time></trkpt><trkpt lat="45.85875061991061" lon="11.803170125594296"><ele>1497.8000000000002</ele><time>2026-05-01T16:40:45Z</time></trkpt><trkpt lat="45.85878715508919" lon="11.803020044758124"><ele>1504.0</ele><time>2026-05-01T16:40:46Z</time></trkpt><trkpt lat="45.858832876053015" lon="11.802877613871063"><ele>1504.0</ele><time>2026-05-01T16:40:47Z</time></trkpt><trkpt lat="45.85885756355426" lon="11.802744897694502"><ele>1504.0</ele><time>2026-05-01T16:40:48Z</time></trkpt><trkpt lat="45.85887281450771" lon="11.802653878630503"><ele>1504.0</ele><time>2026-05-01T16:40:49Z</time></trkpt><trkpt lat="45.85889827065842" lon="11.802519029115071"><ele>1504.0</ele><time>2026-05-01T16:40:50Z</time></trkpt><trkpt lat="45.85893854222934" lon="11.802403645237371"><ele>1504.0</ele><time>2026-05-01T16:40:51Z</time></trkpt><trkpt lat="45.85897630631206" lon="11.802311369061929"><ele>1504.0</ele><time>2026-05-01T16:40:52Z</time></trkpt><trkpt lat="45.859034330899334" lon="11.80225195441537"><ele>1505.6</ele><time>2026-05-01T16:40:53Z</time></trkpt><trkpt lat="45.859111418283916" lon="11.802226824530063"><ele>1507.2</ele><time>2026-05-01T16:40:54Z</time></trkpt><trkpt lat="45.85919850935786" lon="11.802189010332501"><ele>1508.8</ele><time>2026-05-01T16:40:55Z</time></trkpt><trkpt lat="45.85934854054724" lon="11.802111844770362"><ele>1510.3999999999999</ele><time>2026-05-01T16:40:57Z</time></trkpt><trkpt lat="45.85934756953233" lon="11.80220598496354"><ele>1512.0</ele><time>2026-05-01T16:41:01Z</time></trkpt><trkpt lat="45.859236666792214" lon="11.802243244398342"><ele>1508.3333333333333</ele><time>2026-05-01T16:41:02Z</time></trkpt><trkpt lat="45.85915182958415" lon="11.80229616821299"><ele>1504.6666666666667</ele><time>2026-05-01T16:41:03Z</time></trkpt><trkpt lat="45.85907622707088" lon="11.80235853965592"><ele>1501.0</ele><time>2026-05-01T16:41:04Z</time></trkpt><trkpt lat="45.85903852278097" lon="11.802449987717154"><ele>1497.3333333333335</ele><time>2026-05-01T16:41:05Z</time></trkpt><trkpt lat="45.859026932192485" lon="11.802539207066848"><ele>1493.6666666666667</ele><time>2026-05-01T16:41:06Z</time></trkpt><trkpt lat="45.85903369957177" lon="11.802656496361177"><ele>1490.0</ele><time>2026-05-01T16:41:08Z</time></trkpt><trkpt lat="45.8591862642063" lon="11.802540685010227"><ele>1490.0</ele><time>2026-05-01T16:41:10Z</time></trkpt><trkpt lat="45.85922292227328" lon="11.802455284015018"><ele>1490.0</ele><time>2026-05-01T16:41:11Z</time></trkpt><trkpt lat="45.859296978406405" lon="11.802410360625323"><ele>1490.0</ele><time>2026-05-01T16:41:12Z</time></trkpt><trkpt lat="45.859396371807776" lon="11.802383950344584"><ele>1490.0</ele><time>2026-05-01T16:41:13Z</time></trkpt><trkpt lat="45.85952078941124" lon="11.802411970237104"><ele>1490.0</ele><time>2026-05-01T16:41:14Z</time></trkpt><trkpt lat="45.859667492028414" lon="11.802405003969584"><ele>1494.4</ele><time>2026-05-01T16:41:15Z</time></trkpt><trkpt lat="45.85980561703376" lon="11.802426869423876"><ele>1498.8</ele><time>2026-05-01T16:41:16Z</time></trkpt><trkpt lat="45.85992060820104" lon="11.802428732906884"><ele>1503.1999999999998</ele><time>2026-05-01T16:41:17Z</time></trkpt><trkpt lat="45.85999350722899" lon="11.802386701757708"><ele>1507.6</ele><time>2026-05-01T16:41:18Z</time></trkpt><trkpt lat="45.86005050908009" lon="11.802323014386692"><ele>1512.0</ele><time>2026-05-01T16:41:19Z</time></trkpt><trkpt lat="45.860053560199816" lon="11.802172179868592"><ele>1512.0</ele><time>2026-05-01T16:41:20Z</time></trkpt><trkpt lat="45.86003003643864" lon="11.801978056206162"><ele>1512.0</ele><time>2026-05-01T16:41:21Z</time></trkpt><trkpt lat="45.860048402158355" lon="11.80183770644027"><ele>1512.0</ele><time>2026-05-01T16:41:22Z</time></trkpt><trkpt lat="45.86007253647289" lon="11.801727885847072"><ele>1512.0</ele><time>2026-05-01T16:41:23Z</time></trkpt><trkpt lat="45.86014059814731" lon="11.801725409639268"><ele>1512.0</ele><time>2026-05-01T16:41:24Z</time></trkpt><trkpt lat="45.86019291649087" lon="11.801650891652294"><ele>1516.3999999999999</ele><time>2026-05-01T16:41:25Z</time></trkpt><trkpt lat="45.86023963977069" lon="11.801537939143666"><ele>1520.8</ele><time>2026-05-01T16:41:25.999Z</time></trkpt><trkpt lat="45.86024996730339" lon="11.80139030305013"><ele>1525.2</ele><time>2026-05-01T16:41:26.999Z</time></trkpt><trkpt lat="45.8602058409761" lon="11.801236988759475"><ele>1529.6</ele><time>2026-05-01T16:41:27.999Z</time></trkpt><trkpt lat="45.86016812226211" lon="11.801072930175739"><ele>1534.0</ele><time>2026-05-01T16:41:28.999Z</time></trkpt><trkpt lat="45.860121714954985" lon="11.80095518979237"><ele>1535.4</ele><time>2026-05-01T16:41:29.999Z</time></trkpt><trkpt lat="45.86005154725369" lon="11.800818095072724"><ele>1536.8000000000002</ele><time>2026-05-01T16:41:30.999Z</time></trkpt><trkpt lat="45.86002617898752" lon="11.800696940752431"><ele>1538.1999999999998</ele><time>2026-05-01T16:41:31.999Z</time></trkpt><trkpt lat="45.86004246654779" lon="11.800528954928915"><ele>1539.6</ele><time>2026-05-01T16:41:32.999Z</time></trkpt><trkpt lat="45.86010649693064" lon="11.800408900754036"><ele>1541.0</ele><time>2026-05-01T16:41:33.999Z</time></trkpt><trkpt lat="45.86018912280517" lon="11.800322403297894"><ele>1541.0</ele><time>2026-05-01T16:41:34.999Z</time></trkpt><trkpt lat="45.860274229871756" lon="11.800182002983561"><ele>1541.0</ele><time>2026-05-01T16:41:35.999Z</time></trkpt><trkpt lat="45.86034369848846" lon="11.800007480738044"><ele>1541.0</ele><time>2026-05-01T16:41:36.999Z</time></trkpt><trkpt lat="45.86040773392463" lon="11.7998787016034"><ele>1541.0</ele><time>2026-05-01T16:41:37.999Z</time></trkpt><trkpt lat="45.86048029934705" lon="11.799775691186387"><ele>1540.1999999999998</ele><time>2026-05-01T16:41:38.999Z</time></trkpt><trkpt lat="45.860583049628126" lon="11.799742917784622"><ele>1539.3999999999999</ele><time>2026-05-01T16:41:39.999Z</time></trkpt><trkpt lat="45.86068140792065" lon="11.799712843163238"><ele>1538.6</ele><time>2026-05-01T16:41:40.999Z</time></trkpt><trkpt lat="45.860786476644634" lon="11.799696444739139"><ele>1537.8</ele><time>2026-05-01T16:41:41.999Z</time></trkpt><trkpt lat="45.86091785927732" lon="11.799705298836539"><ele>1537.0</ele><time>2026-05-01T16:41:42.999Z</time></trkpt><trkpt lat="45.86100425647135" lon="11.79966441043588"><ele>1541.3999999999999</ele><time>2026-05-01T16:41:43.999Z</time></trkpt><trkpt lat="45.8610662843236" lon="11.799619475673863"><ele>1545.8</ele><time>2026-05-01T16:41:44.999Z</time></trkpt><trkpt lat="45.86110342187076" lon="11.799504751653133"><ele>1550.2</ele><time>2026-05-01T16:41:45.999Z</time></trkpt><trkpt lat="45.861095010382996" lon="11.799353295655468"><ele>1554.6</ele><time>2026-05-01T16:41:46.999Z</time></trkpt><trkpt lat="45.86103925696599" lon="11.799195527687532"><ele>1559.0</ele><time>2026-05-01T16:41:47.999Z</time></trkpt><trkpt lat="45.86095652479944" lon="11.79902896996432"><ele>1553.0</ele><time>2026-05-01T16:41:48.999Z</time></trkpt><trkpt lat="45.86089729720778" lon="11.798839695497966"><ele>1547.0</ele><time>2026-05-01T16:41:49.999Z</time></trkpt><trkpt lat="45.86087577364625" lon="11.798609953134681"><ele>1541.0</ele><time>2026-05-01T16:41:50.999Z</time></trkpt><trkpt lat="45.86084330378235" lon="11.798385530004623"><ele>1541.0</ele><time>2026-05-01T16:41:51.999Z</time></trkpt><trkpt lat="45.86082481594214" lon="11.798268848539461"><ele>1541.0</ele><time>2026-05-01T16:41:52.999Z</time></trkpt><trkpt lat="45.86084627047867" lon="11.798123614579133"><ele>1541.0</ele><time>2026-05-01T16:41:54.999Z</time></trkpt><trkpt lat="45.860914029288395" lon="11.798168356186862"><ele>1541.0</ele><time>2026-05-01T16:41:56.999Z</time></trkpt><trkpt lat="45.860901492336396" lon="11.798389287772212"><ele>1541.0</ele><time>2026-05-01T16:41:58.999Z</time></trkpt><trkpt lat="45.86093769903776" lon="11.798537199869928"><ele>1547.0</ele><time>2026-05-01T16:41:59.999Z</time></trkpt><trkpt lat="45.861030161426285" lon="11.798681831962265"><ele>1553.0</ele><time>2026-05-01T16:42:00.999Z</time></trkpt><trkpt lat="45.86110414853385" lon="11.798868353386151"><ele>1559.0</ele><time>2026-05-01T16:42:01.999Z</time></trkpt><trkpt lat="45.86121689931409" lon="11.799021704775653"><ele>1565.0</ele><time>2026-05-01T16:42:02.999Z</time></trkpt><trkpt lat="45.861326794129305" lon="11.799147851806602"><ele>1565.0</ele><time>2026-05-01T16:42:03.999Z</time></trkpt><trkpt lat="45.86142180212098" lon="11.799237071755067"><ele>1565.0</ele><time>2026-05-01T16:42:04.999Z</time></trkpt><trkpt lat="45.86147657461123" lon="11.799324823547371"><ele>1565.0</ele><time>2026-05-01T16:42:05.999Z</time></trkpt><trkpt lat="45.86149231763161" lon="11.799440141312202"><ele>1565.0</ele><time>2026-05-01T16:42:06.999Z</time></trkpt><trkpt lat="45.86145990238117" lon="11.799568335249196"><ele>1565.0</ele><time>2026-05-01T16:42:07.999Z</time></trkpt><trkpt lat="45.86148353367973" lon="11.799757077065138"><ele>1563.75</ele><time>2026-05-01T16:42:08.999Z</time></trkpt><trkpt lat="45.861522748700324" lon="11.799913485631125"><ele>1562.5</ele><time>2026-05-01T16:42:09.999Z</time></trkpt><trkpt lat="45.861561852181005" lon="11.800066658424663"><ele>1561.25</ele><time>2026-05-01T16:42:10.999Z</time></trkpt><trkpt lat="45.86161357379723" lon="11.800218495319225"><ele>1560.0</ele><time>2026-05-01T16:42:11.999Z</time></trkpt><trkpt lat="45.86167833021045" lon="11.800364757148348"><ele>1564.75</ele><time>2026-05-01T16:42:12.999Z</time></trkpt><trkpt lat="45.86178820814014" lon="11.80049014789167"><ele>1569.5</ele><time>2026-05-01T16:42:13.999Z</time></trkpt><trkpt lat="45.861912902960334" lon="11.80056704702223"><ele>1574.25</ele><time>2026-05-01T16:42:14.999Z</time></trkpt><trkpt lat="45.86199172473478" lon="11.800686180784659"><ele>1579.0</ele><time>2026-05-01T16:42:15.999Z</time></trkpt><trkpt lat="45.862031610270876" lon="11.800834401441714"><ele>1579.0</ele><time>2026-05-01T16:42:16.999Z</time></trkpt><trkpt lat="45.862083867341426" lon="11.80097745062136"><ele>1579.0</ele><time>2026-05-01T16:42:17.999Z</time></trkpt><trkpt lat="45.8621244487722" lon="11.801098898636008"><ele>1579.0</ele><time>2026-05-01T16:42:18.999Z</time></trkpt><trkpt lat="45.86213805825" lon="11.801205060817146"><ele>1579.0</ele><time>2026-05-01T16:42:19.999Z</time></trkpt><trkpt lat="45.862092506085254" lon="11.801299159792602"><ele>1579.0</ele><time>2026-05-01T16:42:20.999Z</time></trkpt><trkpt lat="45.862004614218456" lon="11.801370202303415"><ele>1579.0</ele><time>2026-05-01T16:42:21.999Z</time></trkpt><trkpt lat="45.86195679554431" lon="11.801476049717712"><ele>1579.0</ele><time>2026-05-01T16:42:22.999Z</time></trkpt><trkpt lat="45.86197997277533" lon="11.801647351501037"><ele>1579.0</ele><time>2026-05-01T16:42:23.999Z</time></trkpt><trkpt lat="45.86200250077291" lon="11.801815292437675"><ele>1579.0</ele><time>2026-05-01T16:42:24.999Z</time></trkpt><trkpt lat="45.861990370428416" lon="11.801986043347005"><ele>1579.0</ele><time>2026-05-01T16:42:25.999Z</time></trkpt><trkpt lat="45.86198388676018" lon="11.802147747633498"><ele>1579.0</ele><time>2026-05-01T16:42:26.999Z</time></trkpt><trkpt lat="45.86197696943692" lon="11.802313688804166"><ele>1579.0</ele><time>2026-05-01T16:42:27.999Z</time></trkpt><trkpt lat="45.861997552114175" lon="11.802454255391929"><ele>1579.0</ele><time>2026-05-01T16:42:28.999Z</time></trkpt><trkpt lat="45.86202918298987" lon="11.802574434430682"><ele>1579.0</ele><time>2026-05-01T16:42:29.999Z</time></trkpt><trkpt lat="45.8620957402703" lon="11.802677754337012"><ele>1579.0</ele><time>2026-05-01T16:42:30.999Z</time></trkpt><trkpt lat="45.86218861665456" lon="11.802740479224129"><ele>1579.0</ele><time>2026-05-01T16:42:31.999Z</time></trkpt><trkpt lat="45.8622968553359" lon="11.802754492690106"><ele>1579.0</ele><time>2026-05-01T16:42:32.998Z</time></trkpt><trkpt lat="45.862388243143606" lon="11.80272585171142"><ele>1579.0</ele><time>2026-05-01T16:42:33.998Z</time></trkpt><trkpt lat="45.86247588489418" lon="11.802648087803929"><ele>1579.0</ele><time>2026-05-01T16:42:34.998Z</time></trkpt><trkpt lat="45.86255947927256" lon="11.802546179175462"><ele>1579.0</ele><time>2026-05-01T16:42:35.998Z</time></trkpt><trkpt lat="45.862641483543925" lon="11.802489659875905"><ele>1577.6</ele><time>2026-05-01T16:42:36.998Z</time></trkpt><trkpt lat="45.862733444646786" lon="11.802518867880751"><ele>1576.2</ele><time>2026-05-01T16:42:37.998Z</time></trkpt><trkpt lat="45.862822113946635" lon="11.80256092927453"><ele>1574.8</ele><time>2026-05-01T16:42:38.998Z</time></trkpt><trkpt lat="45.86291260752881" lon="11.802648541052683"><ele>1573.3999999999999</ele><time>2026-05-01T16:42:39.998Z</time></trkpt><trkpt lat="45.862993462891865" lon="11.802764756216712"><ele>1572.0</ele><time>2026-05-01T16:42:40.998Z</time></trkpt><trkpt lat="45.863088359221734" lon="11.802876269506688"><ele>1572.0</ele><time>2026-05-01T16:42:41.998Z</time></trkpt><trkpt lat="45.86317877373676" lon="11.802983011688614"><ele>1572.0</ele><time>2026-05-01T16:42:43Z</time></trkpt><trkpt lat="45.863261448345895" lon="11.803044771489027"><ele>1572.0</ele><time>2026-05-01T16:42:44Z</time></trkpt><trkpt lat="45.8633478684633" lon="11.803045604974121"><ele>1572.0</ele><time>2026-05-01T16:42:45Z</time></trkpt><trkpt lat="45.863452336233564" lon="11.802967151905529"><ele>1572.0</ele><time>2026-05-01T16:42:46Z</time></trkpt><trkpt lat="45.863561146902775" lon="11.802926203529198"><ele>1570.75</ele><time>2026-05-01T16:42:47Z</time></trkpt><trkpt lat="45.863662881782616" lon="11.80286165876692"><ele>1569.5</ele><time>2026-05-01T16:42:48Z</time></trkpt><trkpt lat="45.86376900140792" lon="11.802797893332762"><ele>1568.25</ele><time>2026-05-01T16:42:49Z</time></trkpt><trkpt lat="45.86388171003898" lon="11.802749730123605"><ele>1567.0</ele><time>2026-05-01T16:42:50Z</time></trkpt><trkpt lat="45.86401143165491" lon="11.80272373149118"><ele>1567.0</ele><time>2026-05-01T16:42:51Z</time></trkpt><trkpt lat="45.86413296744639" lon="11.80269475593447"><ele>1567.0</ele><time>2026-05-01T16:42:52Z</time></trkpt><trkpt lat="45.864260173399586" lon="11.802693415545818"><ele>1567.0</ele><time>2026-05-01T16:42:53Z</time></trkpt><trkpt lat="45.864387165822805" lon="11.802695473938535"><ele>1567.0</ele><time>2026-05-01T16:42:54Z</time></trkpt><trkpt lat="45.8645025168768" lon="11.802729490467353"><ele>1565.3999999999999</ele><time>2026-05-01T16:42:55Z</time></trkpt><trkpt lat="45.86459704775348" lon="11.802749473417835"><ele>1563.8</ele><time>2026-05-01T16:42:56Z</time></trkpt><trkpt lat="45.864673875711915" lon="11.80275990095205"><ele>1562.2</ele><time>2026-05-01T16:42:57Z</time></trkpt><trkpt lat="45.86473812462073" lon="11.802726701196574"><ele>1560.6</ele><time>2026-05-01T16:42:58Z</time></trkpt><trkpt lat="45.86480689217601" lon="11.802536530393061"><ele>1559.0</ele><time>2026-05-01T16:43:00Z</time></trkpt><trkpt lat="45.86478956818732" lon="11.802407101785239"><ele>1562.4</ele><time>2026-05-01T16:43:01Z</time></trkpt><trkpt lat="45.86476701224434" lon="11.802267432658718"><ele>1565.8000000000002</ele><time>2026-05-01T16:43:02Z</time></trkpt><trkpt lat="45.86474424257357" lon="11.80212316949091"><ele>1569.1999999999998</ele><time>2026-05-01T16:43:03Z</time></trkpt><trkpt lat="45.86472354924912" lon="11.801975911321229"><ele>1572.6</ele><time>2026-05-01T16:43:04Z</time></trkpt><trkpt lat="45.86470601968752" lon="11.801814477423202"><ele>1576.0</ele><time>2026-05-01T16:43:05Z</time></trkpt><trkpt lat="45.86467947858829" lon="11.80166247298124"><ele>1577.4</ele><time>2026-05-01T16:43:06Z</time></trkpt><trkpt lat="45.864639619557494" lon="11.801513780467818"><ele>1578.8</ele><time>2026-05-01T16:43:07Z</time></trkpt><trkpt lat="45.864625445157046" lon="11.801356185655283"><ele>1580.2</ele><time>2026-05-01T16:43:08Z</time></trkpt><trkpt lat="45.86463577319014" lon="11.80119796199309"><ele>1581.6000000000001</ele><time>2026-05-01T16:43:09Z</time></trkpt><trkpt lat="45.864668467324755" lon="11.801040379038"><ele>1583.0</ele><time>2026-05-01T16:43:10Z</time></trkpt><trkpt lat="45.86469882026483" lon="11.80088330190774"><ele>1586.75</ele><time>2026-05-01T16:43:11Z</time></trkpt><trkpt lat="45.86472674331052" lon="11.800731090961264"><ele>1590.5</ele><time>2026-05-01T16:43:12Z</time></trkpt><trkpt lat="45.86475997473976" lon="11.800576459345304"><ele>1594.25</ele><time>2026-05-01T16:43:13Z</time></trkpt><trkpt lat="45.86479141366356" lon="11.800417827631815"><ele>1598.0</ele><time>2026-05-01T16:43:14Z</time></trkpt><trkpt lat="45.86483462643878" lon="11.800261497106995"><ele>1601.8000000000002</ele><time>2026-05-01T16:43:15Z</time></trkpt><trkpt lat="45.864875778148225" lon="11.800110790758158"><ele>1605.6</ele><time>2026-05-01T16:43:16Z</time></trkpt><trkpt lat="45.86491579105069" lon="11.799997640035805"><ele>1609.4</ele><time>2026-05-01T16:43:17Z</time></trkpt><trkpt lat="45.86497244751378" lon="11.799925684978147"><ele>1613.1999999999998</ele><time>2026-05-01T16:43:18Z</time></trkpt><trkpt lat="45.86505244251705" lon="11.799899481643862"><ele>1617.0</ele><time>2026-05-01T16:43:19Z</time></trkpt><trkpt lat="45.86512641507041" lon="11.799994678074025"><ele>1613.75</ele><time>2026-05-01T16:43:20Z</time></trkpt><trkpt lat="45.86524203570345" lon="11.800041007568309"><ele>1610.5</ele><time>2026-05-01T16:43:21Z</time></trkpt><trkpt lat="45.865369225286464" lon="11.800087964023378"><ele>1607.25</ele><time>2026-05-01T16:43:22Z</time></trkpt><trkpt lat="45.865511691831806" lon="11.800145408380871"><ele>1604.0</ele><time>2026-05-01T16:43:23Z</time></trkpt><trkpt lat="45.86567017033427" lon="11.800214732631265"><ele>1604.0</ele><time>2026-05-01T16:43:24Z</time></trkpt><trkpt lat="45.865862977125566" lon="11.800301830264322"><ele>1604.0</ele><time>2026-05-01T16:43:25Z</time></trkpt><trkpt lat="45.86605942737138" lon="11.800377407410467"><ele>1604.0</ele><time>2026-05-01T16:43:26Z</time></trkpt><trkpt lat="45.86621703110332" lon="11.800446934762252"><ele>1608.2</ele><time>2026-05-01T16:43:27Z</time></trkpt><trkpt lat="45.86632792902584" lon="11.800502955548067"><ele>1612.4</ele><time>2026-05-01T16:43:28Z</time></trkpt><trkpt lat="45.86641290570513" lon="11.800517001751167"><ele>1616.6</ele><time>2026-05-01T16:43:29Z</time></trkpt><trkpt lat="45.86650181431776" lon="11.800491673055985"><ele>1620.8</ele><time>2026-05-01T16:43:30Z</time></trkpt><trkpt lat="45.86661629483427" lon="11.80043042805711"><ele>1625.0</ele><time>2026-05-01T16:43:31Z</time></trkpt><trkpt lat="45.86671680214227" lon="11.800394289407334"><ele>1627.4</ele><time>2026-05-01T16:43:31.999Z</time></trkpt><trkpt lat="45.866820614093314" lon="11.800400837851168"><ele>1629.8</ele><time>2026-05-01T16:43:32.999Z</time></trkpt><trkpt lat="45.86691124356337" lon="11.80047958941106"><ele>1632.1999999999998</ele><time>2026-05-01T16:43:33.999Z</time></trkpt><trkpt lat="45.86702300982988" lon="11.800501141244117"><ele>1634.6</ele><time>2026-05-01T16:43:34.999Z</time></trkpt><trkpt lat="45.86712570208793" lon="11.800543042780136"><ele>1637.0</ele><time>2026-05-01T16:43:35.999Z</time></trkpt><trkpt lat="45.86722423516732" lon="11.800561076908627"><ele>1637.0</ele><time>2026-05-01T16:43:36.999Z</time></trkpt><trkpt lat="45.867314455794435" lon="11.800577589633859"><ele>1637.0</ele><time>2026-05-01T16:43:37.999Z</time></trkpt><trkpt lat="45.867391537277015" lon="11.800591697560774"><ele>1637.0</ele><time>2026-05-01T16:43:38.999Z</time></trkpt><trkpt lat="45.86750688547841" lon="11.800302586765726"><ele>1637.0</ele><time>2026-05-01T16:43:39.999Z</time></trkpt><trkpt lat="45.86761158282061" lon="11.800345501496924"><ele>1641.3999999999999</ele><time>2026-05-01T16:43:40.999Z</time></trkpt><trkpt lat="45.867713060436316" lon="11.800398840531212"><ele>1645.8</ele><time>2026-05-01T16:43:41.999Z</time></trkpt><trkpt lat="45.867821714161906" lon="11.800428867210956"><ele>1650.2</ele><time>2026-05-01T16:43:42.999Z</time></trkpt><trkpt lat="45.86793514781622" lon="11.800454432336425"><ele>1654.6</ele><time>2026-05-01T16:43:43.999Z</time></trkpt><trkpt lat="45.868030665799374" lon="11.800524934568184"><ele>1659.0</ele><time>2026-05-01T16:43:44.999Z</time></trkpt><trkpt lat="45.868114638650724" lon="11.80062330261809"><ele>1659.0</ele><time>2026-05-01T16:43:45.999Z</time></trkpt><trkpt lat="45.86819473554902" lon="11.800728682611286"><ele>1659.0</ele><time>2026-05-01T16:43:46.999Z</time></trkpt><trkpt lat="45.868273804006144" lon="11.800844243262754"><ele>1659.0</ele><time>2026-05-01T16:43:47.999Z</time></trkpt><trkpt lat="45.86834716174224" lon="11.800946218019359"><ele>1659.0</ele><time>2026-05-01T16:43:48.999Z</time></trkpt><trkpt lat="45.86842674104702" lon="11.801050217962928"><ele>1659.0</ele><time>2026-05-01T16:43:49.999Z</time></trkpt><trkpt lat="45.868503418299554" lon="11.801161557455103"><ele>1662.2</ele><time>2026-05-01T16:43:50.999Z</time></trkpt><trkpt lat="45.868575671137364" lon="11.801282229393422"><ele>1665.4</ele><time>2026-05-01T16:43:51.999Z</time></trkpt><trkpt lat="45.86862998030923" lon="11.801364173352217"><ele>1668.6</ele><time>2026-05-01T16:43:52.999Z</time></trkpt><trkpt lat="45.868721038997805" lon="11.801348066310226"><ele>1671.8</ele><time>2026-05-01T16:43:54.999Z</time></trkpt><trkpt lat="45.8687059605614" lon="11.801169757291813"><ele>1675.0</ele><time>2026-05-01T16:43:56.999Z</time></trkpt><trkpt lat="45.868634792638474" lon="11.801087601358628"><ele>1679.0000000000002</ele><time>2026-05-01T16:43:57.999Z</time></trkpt><trkpt lat="45.86860356242064" lon="11.800963891467719"><ele>1683.0</ele><time>2026-05-01T16:43:58.999Z</time></trkpt><trkpt lat="45.86857597048996" lon="11.80082999789278"><ele>1687.0</ele><time>2026-05-01T16:43:59.999Z</time></trkpt><trkpt lat="45.86853850650192" lon="11.800747282156433"><ele>1691.0</ele><time>2026-05-01T16:44:00.999Z</time></trkpt><trkpt lat="45.8684873762443" lon="11.800658850708873"><ele>1695.0000000000002</ele><time>2026-05-01T16:44:02.999Z</time></trkpt><trkpt lat="45.86855119899805" lon="11.800626825929477"><ele>1699.0</ele><time>2026-05-01T16:44:05.999Z</time></trkpt><trkpt lat="45.868610687498744" lon="11.800687369995906"><ele>1699.0</ele><time>2026-05-01T16:44:06.999Z</time></trkpt><trkpt lat="45.86865312122918" lon="11.800813507944541"><ele>1699.0</ele><time>2026-05-01T16:44:07.999Z</time></trkpt><trkpt lat="45.868706048036636" lon="11.800892866082298"><ele>1699.0</ele><time>2026-05-01T16:44:08.999Z</time></trkpt><trkpt lat="45.8687888779755" lon="11.801004866718388"><ele>1699.0</ele><time>2026-05-01T16:44:09.999Z</time></trkpt><trkpt lat="45.868899565951295" lon="11.80115365068631"><ele>1699.0</ele><time>2026-05-01T16:44:10.999Z</time></trkpt><trkpt lat="45.86902054841435" lon="11.801310543259126"><ele>1695.3333333333335</ele><time>2026-05-01T16:44:11.999Z</time></trkpt><trkpt lat="45.86916076401499" lon="11.801482310398033"><ele>1691.6666666666665</ele><time>2026-05-01T16:44:12.999Z</time></trkpt><trkpt lat="45.86929861908688" lon="11.801623161422846"><ele>1688.0</ele><time>2026-05-01T16:44:13.999Z</time></trkpt><trkpt lat="45.86941597341675" lon="11.801717886993073"><ele>1688.0</ele><time>2026-05-01T16:44:14.999Z</time></trkpt><trkpt lat="45.86952770516576" lon="11.801760894728039"><ele>1688.0</ele><time>2026-05-01T16:44:15.999Z</time></trkpt><trkpt lat="45.869655280095046" lon="11.801743689079881"><ele>1688.0</ele><time>2026-05-01T16:44:16.999Z</time></trkpt><trkpt lat="45.86979003545296" lon="11.801691624168027"><ele>1688.0</ele><time>2026-05-01T16:44:17.999Z</time></trkpt><trkpt lat="45.869936060927756" lon="11.801626982910378"><ele>1688.0</ele><time>2026-05-01T16:44:18.999Z</time></trkpt><trkpt lat="45.87010345836033" lon="11.801544191174722"><ele>1688.0</ele><time>2026-05-01T16:44:19.999Z</time></trkpt><trkpt lat="45.87031656084972" lon="11.801495197702401"><ele>1688.0</ele><time>2026-05-01T16:44:20.999Z</time></trkpt><trkpt lat="45.87050614967729" lon="11.801475873042394"><ele>1688.25</ele><time>2026-05-01T16:44:21.999Z</time></trkpt><trkpt lat="45.87067362235149" lon="11.801508681060279"><ele>1688.5</ele><time>2026-05-01T16:44:22.999Z</time></trkpt><trkpt lat="45.87080874553685" lon="11.801542817042598"><ele>1688.75</ele><time>2026-05-01T16:44:23.999Z</time></trkpt><trkpt lat="45.870933233169566" lon="11.801542333774659"><ele>1689.0</ele><time>2026-05-01T16:44:24.999Z</time></trkpt><trkpt lat="45.87105764575634" lon="11.80147185113961"><ele>1689.0</ele><time>2026-05-01T16:44:25.999Z</time></trkpt><trkpt lat="45.87117587946683" lon="11.801375827205677"><ele>1689.0</ele><time>2026-05-01T16:44:26.999Z</time></trkpt><trkpt lat="45.87127485863153" lon="11.80124812941755"><ele>1689.0</ele><time>2026-05-01T16:44:27.999Z</time></trkpt><trkpt lat="45.87138051170066" lon="11.80115053335558"><ele>1689.0</ele><time>2026-05-01T16:44:28.999Z</time></trkpt><trkpt lat="45.871491109848705" lon="11.801107359898724"><ele>1689.0</ele><time>2026-05-01T16:44:29.999Z</time></trkpt><trkpt lat="45.87164436155584" lon="11.80110739591513"><ele>1689.0</ele><time>2026-05-01T16:44:30.999Z</time></trkpt><trkpt lat="45.87178563221092" lon="11.801182557923264"><ele>1689.0</ele><time>2026-05-01T16:44:31.999Z</time></trkpt><trkpt lat="45.871968761790086" lon="11.801227758026624"><ele>1695.3333333333335</ele><time>2026-05-01T16:44:32.999Z</time></trkpt><trkpt lat="45.8721324794042" lon="11.801249465967597"><ele>1701.6666666666667</ele><time>2026-05-01T16:44:33.999Z</time></trkpt><trkpt lat="45.87228107947125" lon="11.801280393670474"><ele>1708.0</ele><time>2026-05-01T16:44:34.999Z</time></trkpt><trkpt lat="45.87241834680523" lon="11.801335189652168"><ele>1708.0</ele><time>2026-05-01T16:44:35.999Z</time></trkpt><trkpt lat="45.872556758032836" lon="11.801391328782133"><ele>1708.0</ele><time>2026-05-01T16:44:36.999Z</time></trkpt><trkpt lat="45.87268738795313" lon="11.801494692809728"><ele>1708.0</ele><time>2026-05-01T16:44:37.999Z</time></trkpt><trkpt lat="45.872782299990135" lon="11.801602086020255"><ele>1708.0</ele><time>2026-05-01T16:44:38.998Z</time></trkpt><trkpt lat="45.87287486339194" lon="11.801760508587257"><ele>1711.5</ele><time>2026-05-01T16:44:39.998Z</time></trkpt><trkpt lat="45.87294040486751" lon="11.801933985580089"><ele>1715.0</ele><time>2026-05-01T16:44:40.998Z</time></trkpt><trkpt lat="45.87300599973715" lon="11.802119091592628"><ele>1718.5</ele><time>2026-05-01T16:44:41.998Z</time></trkpt><trkpt lat="45.87305446897096" lon="11.80232214773721"><ele>1722.0</ele><time>2026-05-01T16:44:42.998Z</time></trkpt><trkpt lat="45.87307391036747" lon="11.802579825797688"><ele>1721.0</ele><time>2026-05-01T16:44:43.998Z</time></trkpt><trkpt lat="45.873083982973014" lon="11.802834123445407"><ele>1720.0</ele><time>2026-05-01T16:44:44.998Z</time></trkpt><trkpt lat="45.87310748397528" lon="11.803040433040882"><ele>1719.0</ele><time>2026-05-01T16:44:45.998Z</time></trkpt><trkpt lat="45.87316333146248" lon="11.80324224975964"><ele>1719.0</ele><time>2026-05-01T16:44:46.998Z</time></trkpt><trkpt lat="45.87321810730745" lon="11.803403832503296"><ele>1719.0</ele><time>2026-05-01T16:44:47.998Z</time></trkpt><trkpt lat="45.873271258350236" lon="11.803517229732096"><ele>1719.0</ele><time>2026-05-01T16:44:49Z</time></trkpt><trkpt lat="45.87332534949366" lon="11.803583744129071"><ele>1719.0</ele><time>2026-05-01T16:44:50Z</time></trkpt><trkpt lat="45.87340600382288" lon="11.803597452540565"><ele>1719.0</ele><time>2026-05-01T16:44:52Z</time></trkpt><trkpt lat="45.87346112499261" lon="11.803529032569713"><ele>1719.0</ele><time>2026-05-01T16:44:54Z</time></trkpt><trkpt lat="45.87349742149258" lon="11.803449852854738"><ele>1712.3333333333333</ele><time>2026-05-01T16:44:56Z</time></trkpt><trkpt lat="45.87351902401778" lon="11.803284561158456"><ele>1705.6666666666665</ele><time>2026-05-01T16:44:58Z</time></trkpt><trkpt lat="45.87353265430661" lon="11.80319396098477"><ele>1699.0</ele><time>2026-05-01T16:44:59Z</time></trkpt><trkpt lat="45.87353689788424" lon="11.803062197859942"><ele>1692.3333333333333</ele><time>2026-05-01T16:45:01Z</time></trkpt><trkpt lat="45.873512697827266" lon="11.802972366327413"><ele>1685.6666666666665</ele><time>2026-05-01T16:45:04Z</time></trkpt><trkpt lat="45.873536256005586" lon="11.802828245077569"><ele>1679.0</ele><time>2026-05-01T16:45:08Z</time></trkpt><trkpt lat="45.87355704068518" lon="11.802677575498754"><ele>1683.8000000000002</ele><time>2026-05-01T16:45:10Z</time></trkpt><trkpt lat="45.873542672479516" lon="11.802514626097242"><ele>1688.6000000000001</ele><time>2026-05-01T16:45:12Z</time></trkpt><trkpt lat="45.87355611817812" lon="11.802425584040213"><ele>1693.4</ele><time>2026-05-01T16:45:13Z</time></trkpt><trkpt lat="45.873544298168" lon="11.80225685865509"><ele>1698.2</ele><time>2026-05-01T16:45:15Z</time></trkpt><trkpt lat="45.87353952074609" lon="11.802105170269565"><ele>1703.0</ele><time>2026-05-01T16:45:17Z</time></trkpt><trkpt lat="45.87351816385439" lon="11.80194558069366"><ele>1703.8000000000002</ele><time>2026-05-01T16:45:19Z</time></trkpt><trkpt lat="45.87348905752062" lon="11.801791743008042"><ele>1704.6</ele><time>2026-05-01T16:45:21Z</time></trkpt><trkpt lat="45.873451199662185" lon="11.801665885709623"><ele>1705.3999999999999</ele><time>2026-05-01T16:45:23Z</time></trkpt><trkpt lat="45.87337643615089" lon="11.801635232849549"><ele>1706.1999999999998</ele><time>2026-05-01T16:45:25Z</time></trkpt><trkpt lat="45.873366283104424" lon="11.801769468445258"><ele>1707.0</ele><time>2026-05-01T16:45:27Z</time></trkpt><trkpt lat="45.87336604460182" lon="11.801891136965862"><ele>1706.1999999999998</ele><time>2026-05-01T16:45:29Z</time></trkpt><trkpt lat="45.87339040366212" lon="11.802040386945958"><ele>1705.3999999999999</ele><time>2026-05-01T16:45:31Z</time></trkpt><trkpt lat="45.87338363474957" lon="11.80220901025365"><ele>1704.6</ele><time>2026-05-01T16:45:33Z</time></trkpt><trkpt lat="45.873403306727326" lon="11.802367947676295"><ele>1703.8000000000002</ele><time>2026-05-01T16:45:35Z</time></trkpt><trkpt lat="45.8734387712939" lon="11.80250325014297"><ele>1703.0</ele><time>2026-05-01T16:45:36.999Z</time></trkpt><trkpt lat="45.873511279507746" lon="11.80261438694337"><ele>1705.6666666666665</ele><time>2026-05-01T16:45:38.999Z</time></trkpt><trkpt lat="45.87357127898583" lon="11.80267898606557"><ele>1708.3333333333333</ele><time>2026-05-01T16:45:40.999Z</time></trkpt><trkpt lat="45.87356873872863" lon="11.802800554594711"><ele>1711.0</ele><time>2026-05-01T16:45:43.999Z</time></trkpt><trkpt lat="45.873567924775365" lon="11.802915201862968"><ele>1713.6666666666665</ele><time>2026-05-01T16:45:46.999Z</time></trkpt><trkpt lat="45.87351024980926" lon="11.802966317179292"><ele>1716.3333333333333</ele><time>2026-05-01T16:46:15.999Z</time></trkpt><trkpt lat="45.87345082381422" lon="11.802912815342319"><ele>1719.0</ele><time>2026-05-01T16:47:39Z</time></trkpt><trkpt lat="45.87338422543322" lon="11.802977682062336"><ele>1719.0000000000002</ele><time>2026-05-01T16:48:01.999Z</time></trkpt><trkpt lat="45.873288895765576" lon="11.803059560469276"><ele>1719.0</ele><time>2026-05-01T16:52:15Z</time></trkpt><trkpt lat="45.87328183622457" lon="11.803156048183306"><ele>1719.0</ele><time>2026-05-01T16:52:19Z</time></trkpt><trkpt lat="45.87329002157757" lon="11.80306339725783"><ele>1719.0</ele><time>2026-05-01T16:52:45.999Z</time></trkpt><trkpt lat="45.87330887835001" lon="11.802975127596751"><ele>1719.0</ele><time>2026-05-01T16:53:35.999Z</time></trkpt><trkpt lat="45.87327369842998" lon="11.803061426230029"><ele>1719.0000000000002</ele><time>2026-05-01T16:56:53.999Z</time></trkpt><trkpt lat="45.87331238983788" lon="11.802987130068324"><ele>1719.0</ele><time>2026-05-01T16:57:40.999Z</time></trkpt><trkpt lat="45.87339040233865" lon="11.803027437375299"><ele>1719.0</ele><time>2026-05-01T16:57:57.998Z</time></trkpt><trkpt lat="45.87333668440537" lon="11.802957947945783"><ele>1719.0</ele><time>2026-05-01T16:58:15Z</time></trkpt><trkpt lat="45.87305867943325" lon="11.803501789087864"><ele>1719.0</ele><time>2026-05-01T16:58:57.999Z</time></trkpt><trkpt lat="45.87318778747484" lon="11.803337550797892"><ele>1719.0</ele><time>2026-05-01T16:58:58.999Z</time></trkpt><trkpt lat="45.873176217006566" lon="11.803246647615111"><ele>1719.0</ele><time>2026-05-01T16:58:59.999Z</time></trkpt><trkpt lat="45.873242455843716" lon="11.803245053314248"><ele>1719.0</ele><time>2026-05-01T16:59:00.999Z</time></trkpt><trkpt lat="45.8732918433629" lon="11.803163161243448"><ele>1719.0</ele><time>2026-05-01T16:59:03.999Z</time></trkpt><trkpt lat="45.8732873730394" lon="11.803052307505322"><ele>1712.3333333333333</ele><time>2026-05-01T16:59:10.999Z</time></trkpt><trkpt lat="45.873444784417764" lon="11.802951736826975"><ele>1705.6666666666665</ele><time>2026-05-01T17:05:30.999Z</time></trkpt><trkpt lat="45.87351279707716" lon="11.8029770964247"><ele>1699.0</ele><time>2026-05-01T17:05:34.999Z</time></trkpt><trkpt lat="45.87351980114606" lon="11.803068891940422"><ele>1692.3333333333333</ele><time>2026-05-01T17:07:54.999Z</time></trkpt><trkpt lat="45.87350145693625" lon="11.803174039417508"><ele>1685.6666666666665</ele><time>2026-05-01T17:08:01.999Z</time></trkpt><trkpt lat="45.87347749351955" lon="11.803258085084645"><ele>1679.0</ele><time>2026-05-01T17:08:08.999Z</time></trkpt><trkpt lat="45.87345376713362" lon="11.803350361676221"><ele>1679.0</ele><time>2026-05-01T17:08:14.999Z</time></trkpt><trkpt lat="45.87345344064764" lon="11.803442855625317"><ele>1679.0</ele><time>2026-05-01T17:08:20.999Z</time></trkpt><trkpt lat="45.87342283152324" lon="11.80353009450701"><ele>1679.0</ele><time>2026-05-01T17:08:28.999Z</time></trkpt><trkpt lat="45.87336559200838" lon="11.803577378113108"><ele>1679.0</ele><time>2026-05-01T17:08:35Z</time></trkpt><trkpt lat="45.87340801035655" lon="11.803656601358892"><ele>1679.0</ele><time>2026-05-01T17:10:52Z</time></trkpt><trkpt lat="45.87346245411619" lon="11.803598493976867"><ele>1679.0</ele><time>2026-05-01T17:12:49Z</time></trkpt><trkpt lat="45.87339637896482" lon="11.803620582636741"><ele>1679.0</ele><time>2026-05-01T17:13:01Z</time></trkpt><trkpt lat="45.87334274625214" lon="11.803563619174039"><ele>1683.6666666666665</ele><time>2026-05-01T17:14:53Z</time></trkpt><trkpt lat="45.8734080828532" lon="11.803587353141888"><ele>1688.3333333333333</ele><time>2026-05-01T17:18:09.999Z</time></trkpt><trkpt lat="45.87334271016618" lon="11.803589801448675"><ele>1693.0</ele><time>2026-05-01T17:19:43Z</time></trkpt><trkpt lat="45.873306155327924" lon="11.803482189471943"><ele>1697.6666666666665</ele><time>2026-05-01T17:24:09.999Z</time></trkpt><trkpt lat="45.87326119065623" lon="11.803385783103131"><ele>1702.3333333333333</ele><time>2026-05-01T17:24:11.999Z</time></trkpt><trkpt lat="45.8732132824662" lon="11.803266623483886"><ele>1707.0</ele><time>2026-05-01T17:24:13.999Z</time></trkpt><trkpt lat="45.873173744798606" lon="11.80313137660376"><ele>1709.3999999999999</ele><time>2026-05-01T17:24:15.999Z</time></trkpt><trkpt lat="45.87313364714341" lon="11.802989782230618"><ele>1711.7999999999997</ele><time>2026-05-01T17:24:17.999Z</time></trkpt><trkpt lat="45.87312607739375" lon="11.802835674594553"><ele>1714.2</ele><time>2026-05-01T17:24:19.999Z</time></trkpt><trkpt lat="45.87312180322333" lon="11.80274201603778"><ele>1716.6</ele><time>2026-05-01T17:24:20.999Z</time></trkpt><trkpt lat="45.873122937760414" lon="11.80259208201933"><ele>1719.0</ele><time>2026-05-01T17:24:22.999Z</time></trkpt><trkpt lat="45.87311124312715" lon="11.802395268875387"><ele>1719.5</ele><time>2026-05-01T17:24:24.999Z</time></trkpt><trkpt lat="45.87308269867886" lon="11.802286124064493"><ele>1720.0</ele><time>2026-05-01T17:24:25.999Z</time></trkpt><trkpt lat="45.873055910007125" lon="11.802170821084088"><ele>1720.5</ele><time>2026-05-01T17:24:26.999Z</time></trkpt><trkpt lat="45.8730280517534" lon="11.802051367163129"><ele>1721.0</ele><time>2026-05-01T17:24:27.999Z</time></trkpt><trkpt lat="45.87299243243506" lon="11.80192886443446"><ele>1721.5</ele><time>2026-05-01T17:24:28.999Z</time></trkpt><trkpt lat="45.87295048514151" lon="11.801812722802365"><ele>1722.0</ele><time>2026-05-01T17:24:29.999Z</time></trkpt><trkpt lat="45.87290004744873" lon="11.801701127226819"><ele>1722.8</ele><time>2026-05-01T17:24:30.999Z</time></trkpt><trkpt lat="45.87283163526975" lon="11.801589021594184"><ele>1723.6</ele><time>2026-05-01T17:24:31.999Z</time></trkpt><trkpt lat="45.872759709647674" lon="11.801483659033627"><ele>1724.3999999999999</ele><time>2026-05-01T17:24:32.999Z</time></trkpt><trkpt lat="45.872679223133375" lon="11.80139405850453"><ele>1725.1999999999998</ele><time>2026-05-01T17:24:33.999Z</time></trkpt><trkpt lat="45.87258009411526" lon="11.801316203118883"><ele>1726.0</ele><time>2026-05-01T17:24:34.999Z</time></trkpt><trkpt lat="45.87248163865834" lon="11.801264909191149"><ele>1721.5</ele><time>2026-05-01T17:24:35.999Z</time></trkpt><trkpt lat="45.872375387828846" lon="11.801218545660564"><ele>1717.0</ele><time>2026-05-01T17:24:36.999Z</time></trkpt><trkpt lat="45.87225811048928" lon="11.801190158967115"><ele>1712.5</ele><time>2026-05-01T17:24:37.999Z</time></trkpt><trkpt lat="45.87214318051737" lon="11.801177134464352"><ele>1708.0</ele><time>2026-05-01T17:24:38.999Z</time></trkpt><trkpt lat="45.87202938061134" lon="11.801144022727408"><ele>1708.0</ele><time>2026-05-01T17:24:39.999Z</time></trkpt><trkpt lat="45.87191131017807" lon="11.801117078203196"><ele>1708.0</ele><time>2026-05-01T17:24:40.999Z</time></trkpt><trkpt lat="45.871797684894005" lon="11.801093947057558"><ele>1708.0</ele><time>2026-05-01T17:24:41.999Z</time></trkpt><trkpt lat="45.87168940471566" lon="11.801054802781795"><ele>1708.0</ele><time>2026-05-01T17:24:42.999Z</time></trkpt><trkpt lat="45.87157005682532" lon="11.801039534671913"><ele>1703.25</ele><time>2026-05-01T17:24:43.999Z</time></trkpt><trkpt lat="45.87145264584286" lon="11.801079722498457"><ele>1698.5</ele><time>2026-05-01T17:24:44.999Z</time></trkpt><trkpt lat="45.87134186600864" lon="11.801148446751236"><ele>1693.75</ele><time>2026-05-01T17:24:45.999Z</time></trkpt><trkpt lat="45.87124489365451" lon="11.801238258100575"><ele>1689.0</ele><time>2026-05-01T17:24:46.999Z</time></trkpt><trkpt lat="45.871138307763175" lon="11.801305708024453"><ele>1689.0</ele><time>2026-05-01T17:24:47.999Z</time></trkpt><trkpt lat="45.871052365414634" lon="11.80140880943011"><ele>1689.0</ele><time>2026-05-01T17:24:48.999Z</time></trkpt><trkpt lat="45.87095871693235" lon="11.801476023655995"><ele>1689.0</ele><time>2026-05-01T17:24:49.999Z</time></trkpt><trkpt lat="45.87085152838475" lon="11.801498912461595"><ele>1689.0</ele><time>2026-05-01T17:24:50.999Z</time></trkpt><trkpt lat="45.87073298583773" lon="11.801477509279675"><ele>1689.0</ele><time>2026-05-01T17:24:51.999Z</time></trkpt><trkpt lat="45.87061184859573" lon="11.801448565499372"><ele>1688.75</ele><time>2026-05-01T17:24:52.999Z</time></trkpt><trkpt lat="45.870479996631985" lon="11.801435957356283"><ele>1688.5</ele><time>2026-05-01T17:24:53.999Z</time></trkpt><trkpt lat="45.87035070776526" lon="11.80146109366415"><ele>1688.25</ele><time>2026-05-01T17:24:54.999Z</time></trkpt><trkpt lat="45.870228521510846" lon="11.80148687652925"><ele>1688.0</ele><time>2026-05-01T17:24:55.999Z</time></trkpt><trkpt lat="45.8701030070071" lon="11.801513594255242"><ele>1688.0</ele><time>2026-05-01T17:24:56.999Z</time></trkpt><trkpt lat="45.86998224317156" lon="11.801549079493864"><ele>1688.0</ele><time>2026-05-01T17:24:57.999Z</time></trkpt><trkpt lat="45.869864907810815" lon="11.801605297298686"><ele>1688.0</ele><time>2026-05-01T17:24:58.999Z</time></trkpt><trkpt lat="45.86975337695853" lon="11.801652895058254"><ele>1688.0</ele><time>2026-05-01T17:24:59.999Z</time></trkpt><trkpt lat="45.86963771825292" lon="11.801660098228455"><ele>1688.0</ele><time>2026-05-01T17:25:00.999Z</time></trkpt><trkpt lat="45.869524931769924" lon="11.801645220647995"><ele>1688.0</ele><time>2026-05-01T17:25:01.999Z</time></trkpt><trkpt lat="45.869412114488746" lon="11.801602983519492"><ele>1688.0</ele><time>2026-05-01T17:25:02.999Z</time></trkpt><trkpt lat="45.86930969063889" lon="11.801530982263337"><ele>1688.0</ele><time>2026-05-01T17:25:03.999Z</time></trkpt><trkpt lat="45.86921790294683" lon="11.801447626002437"><ele>1690.2</ele><time>2026-05-01T17:25:04.999Z</time></trkpt><trkpt lat="45.869131585932415" lon="11.801355738309729"><ele>1692.4</ele><time>2026-05-01T17:25:05.999Z</time></trkpt><trkpt lat="45.86904669147939" lon="11.801260224139419"><ele>1694.6000000000001</ele><time>2026-05-01T17:25:06.999Z</time></trkpt><trkpt lat="45.86896592466685" lon="11.801168120418845"><ele>1696.8000000000002</ele><time>2026-05-01T17:25:07.999Z</time></trkpt><trkpt lat="45.8688889601031" lon="11.801076041081071"><ele>1699.0</ele><time>2026-05-01T17:25:08.999Z</time></trkpt><trkpt lat="45.86881319893227" lon="11.800976488951996"><ele>1699.0</ele><time>2026-05-01T17:25:09.998Z</time></trkpt><trkpt lat="45.868743133641445" lon="11.800888845922548"><ele>1699.0</ele><time>2026-05-01T17:25:10.998Z</time></trkpt><trkpt lat="45.868691741862726" lon="11.800802051064398"><ele>1699.0</ele><time>2026-05-01T17:25:11.998Z</time></trkpt><trkpt lat="45.86863605991308" lon="11.800718127866146"><ele>1699.0</ele><time>2026-05-01T17:25:12.998Z</time></trkpt><trkpt lat="45.868561199703755" lon="11.80059953971368"><ele>1699.0</ele><time>2026-05-01T17:25:14.998Z</time></trkpt><trkpt lat="45.8685197386583" lon="11.800789057435832"><ele>1699.0</ele><time>2026-05-01T17:25:19.998Z</time></trkpt><trkpt lat="45.86857481841203" lon="11.80091752611362"><ele>1699.0</ele><time>2026-05-01T17:25:22Z</time></trkpt><trkpt lat="45.86861546596137" lon="11.801086449571786"><ele>1699.0</ele><time>2026-05-01T17:25:24Z</time></trkpt><trkpt lat="45.86864507303331" lon="11.801171648041873"><ele>1699.0</ele><time>2026-05-01T17:25:25Z</time></trkpt><trkpt lat="45.86870681861989" lon="11.801296628556056"><ele>1699.0</ele><time>2026-05-01T17:25:27Z</time></trkpt><trkpt lat="45.86862368917534" lon="11.801365428931174"><ele>1695.0000000000002</ele><time>2026-05-01T17:25:29Z</time></trkpt><trkpt lat="45.868572777951066" lon="11.801273808909365"><ele>1691.0</ele><time>2026-05-01T17:25:30Z</time></trkpt><trkpt lat="45.86854499134498" lon="11.801183792455088"><ele>1687.0</ele><time>2026-05-01T17:25:31Z</time></trkpt><trkpt lat="45.86848421180818" lon="11.801094821677628"><ele>1683.0</ele><time>2026-05-01T17:25:32Z</time></trkpt><trkpt lat="45.86840868945576" lon="11.801013786230193"><ele>1679.0000000000002</ele><time>2026-05-01T17:25:33Z</time></trkpt><trkpt lat="45.86834181088971" lon="11.80090962936456"><ele>1675.0</ele><time>2026-05-01T17:25:34Z</time></trkpt><trkpt lat="45.86827223080607" lon="11.800811389965988"><ele>1671.8</ele><time>2026-05-01T17:25:35Z</time></trkpt><trkpt lat="45.868192447457304" lon="11.800705182038143"><ele>1668.6</ele><time>2026-05-01T17:25:36Z</time></trkpt><trkpt lat="45.868105615568744" lon="11.800591943865001"><ele>1665.4</ele><time>2026-05-01T17:25:37Z</time></trkpt><trkpt lat="45.868027530899425" lon="11.800496941198945"><ele>1662.2</ele><time>2026-05-01T17:25:38Z</time></trkpt><trkpt lat="45.86793325552127" lon="11.80040493022475"><ele>1659.0</ele><time>2026-05-01T17:25:39Z</time></trkpt><trkpt lat="45.86782041560141" lon="11.800368266687498"><ele>1659.0</ele><time>2026-05-01T17:25:40Z</time></trkpt><trkpt lat="45.86770577373282" lon="11.800359790082755"><ele>1659.0</ele><time>2026-05-01T17:25:41Z</time></trkpt><trkpt lat="45.86759172989346" lon="11.800342472356519"><ele>1659.0</ele><time>2026-05-01T17:25:42Z</time></trkpt><trkpt lat="45.867494578408795" lon="11.800304606404783"><ele>1659.0</ele><time>2026-05-01T17:25:43Z</time></trkpt><trkpt lat="45.86739893653149" lon="11.80026120392195"><ele>1659.0</ele><time>2026-05-01T17:25:44Z</time></trkpt><trkpt lat="45.86730092577572" lon="11.800301400204958"><ele>1654.6</ele><time>2026-05-01T17:25:45Z</time></trkpt><trkpt lat="45.86721092731435" lon="11.800384115491513"><ele>1650.2</ele><time>2026-05-01T17:25:46Z</time></trkpt><trkpt lat="45.86713122009444" lon="11.800473564828273"><ele>1645.8</ele><time>2026-05-01T17:25:47Z</time></trkpt><trkpt lat="45.86704687516353" lon="11.8005091714311"><ele>1641.3999999999999</ele><time>2026-05-01T17:25:48Z</time></trkpt><trkpt lat="45.866960330568105" lon="11.800449898796584"><ele>1637.0</ele><time>2026-05-01T17:25:49Z</time></trkpt><trkpt lat="45.86685831214777" lon="11.800427161866477"><ele>1634.6</ele><time>2026-05-01T17:25:50Z</time></trkpt><trkpt lat="45.8667583509039" lon="11.80036283496359"><ele>1632.1999999999998</ele><time>2026-05-01T17:25:51Z</time></trkpt><trkpt lat="45.866665342334436" lon="11.80035758027414"><ele>1629.8</ele><time>2026-05-01T17:25:52Z</time></trkpt><trkpt lat="45.866548194871434" lon="11.800426723894008"><ele>1627.4</ele><time>2026-05-01T17:25:53Z</time></trkpt><trkpt lat="45.86644659488023" lon="11.800479129503636"><ele>1625.0</ele><time>2026-05-01T17:25:54Z</time></trkpt><trkpt lat="45.866357872318765" lon="11.800509853758875"><ele>1625.0</ele><time>2026-05-01T17:25:55Z</time></trkpt><trkpt lat="45.86626197719024" lon="11.800448919536926"><ele>1625.0</ele><time>2026-05-01T17:25:56Z</time></trkpt><trkpt lat="45.86616184447124" lon="11.800388117289724"><ele>1625.0</ele><time>2026-05-01T17:25:57Z</time></trkpt><trkpt lat="45.86605351617904" lon="11.800353753073628"><ele>1625.0</ele><time>2026-05-01T17:25:58Z</time></trkpt><trkpt lat="45.865937257930746" lon="11.80028178705963"><ele>1626.75</ele><time>2026-05-01T17:25:59Z</time></trkpt><trkpt lat="45.86583136829562" lon="11.800244747524092"><ele>1628.5</ele><time>2026-05-01T17:26:00Z</time></trkpt><trkpt lat="45.86572420649105" lon="11.800179069238581"><ele>1630.25</ele><time>2026-05-01T17:26:01Z</time></trkpt><trkpt lat="45.86559929734175" lon="11.800131733447506"><ele>1632.0</ele><time>2026-05-01T17:26:02Z</time></trkpt><trkpt lat="45.865483949086006" lon="11.800084995200033"><ele>1632.0</ele><time>2026-05-01T17:26:03Z</time></trkpt><trkpt lat="45.86537989447012" lon="11.800044291242514"><ele>1632.0</ele><time>2026-05-01T17:26:04Z</time></trkpt><trkpt lat="45.865281222232554" lon="11.80000085958799"><ele>1632.0</ele><time>2026-05-01T17:26:05Z</time></trkpt><trkpt lat="45.86519009046933" lon="11.799969830663146"><ele>1632.0</ele><time>2026-05-01T17:26:06Z</time></trkpt><trkpt lat="45.86510789437352" lon="11.79993262829782"><ele>1632.0</ele><time>2026-05-01T17:26:07Z</time></trkpt><trkpt lat="45.8650438504515" lon="11.79989863176075"><ele>1629.5</ele><time>2026-05-01T17:26:08Z</time></trkpt><trkpt lat="45.86497642582228" lon="11.799897119912988"><ele>1627.0</ele><time>2026-05-01T17:26:09Z</time></trkpt><trkpt lat="45.86491662024252" lon="11.799942943587247"><ele>1624.5</ele><time>2026-05-01T17:26:09.999Z</time></trkpt><trkpt lat="45.86487014505236" lon="11.800032627173294"><ele>1622.0</ele><time>2026-05-01T17:26:10.999Z</time></trkpt><trkpt lat="45.864829798942544" lon="11.800143602108925"><ele>1619.5</ele><time>2026-05-01T17:26:11.999Z</time></trkpt><trkpt lat="45.86479809040656" lon="11.800263646930695"><ele>1617.0</ele><time>2026-05-01T17:26:12.999Z</time></trkpt><trkpt lat="45.86476112674289" lon="11.800397342623292"><ele>1613.1999999999998</ele><time>2026-05-01T17:26:13.999Z</time></trkpt><trkpt lat="45.86473132801854" lon="11.800537033474887"><ele>1609.4</ele><time>2026-05-01T17:26:14.999Z</time></trkpt><trkpt lat="45.86470320846349" lon="11.800687582552339"><ele>1605.6</ele><time>2026-05-01T17:26:15.999Z</time></trkpt><trkpt lat="45.864678697286195" lon="11.800831052986027"><ele>1601.8000000000002</ele><time>2026-05-01T17:26:16.999Z</time></trkpt><trkpt lat="45.86465593512258" lon="11.800973050949572"><ele>1598.0</ele><time>2026-05-01T17:26:17.999Z</time></trkpt><trkpt lat="45.86461395347208" lon="11.801115046557896"><ele>1595.0</ele><time>2026-05-01T17:26:18.999Z</time></trkpt><trkpt lat="45.86459650379418" lon="11.801258606860571"><ele>1592.0</ele><time>2026-05-01T17:26:19.999Z</time></trkpt><trkpt lat="45.86459200025015" lon="11.801412770960741"><ele>1589.0</ele><time>2026-05-01T17:26:20.999Z</time></trkpt><trkpt lat="45.86461131295124" lon="11.801560772651504"><ele>1586.0</ele><time>2026-05-01T17:26:21.999Z</time></trkpt><trkpt lat="45.86463982347144" lon="11.801690964274856"><ele>1583.0</ele><time>2026-05-01T17:26:22.999Z</time></trkpt><trkpt lat="45.86467244124416" lon="11.801822941545115"><ele>1581.6000000000001</ele><time>2026-05-01T17:26:23.999Z</time></trkpt><trkpt lat="45.86468510134799" lon="11.801960031294703"><ele>1580.2</ele><time>2026-05-01T17:26:24.999Z</time></trkpt><trkpt lat="45.86469522858037" lon="11.802100768014034"><ele>1578.8</ele><time>2026-05-01T17:26:25.999Z</time></trkpt><trkpt lat="45.86470977533303" lon="11.80223199973622"><ele>1577.4</ele><time>2026-05-01T17:26:26.999Z</time></trkpt><trkpt lat="45.86473001646856" lon="11.802357776543099"><ele>1576.0</ele><time>2026-05-01T17:26:27.999Z</time></trkpt><trkpt lat="45.86474663002249" lon="11.802468903669256"><ele>1576.0000000000002</ele><time>2026-05-01T17:26:28.999Z</time></trkpt><trkpt lat="45.8647472247246" lon="11.802572076927358"><ele>1576.0</ele><time>2026-05-01T17:26:29.999Z</time></trkpt><trkpt lat="45.86469380149029" lon="11.802701432557386"><ele>1576.0</ele><time>2026-05-01T17:26:31.999Z</time></trkpt><trkpt lat="45.864624574768406" lon="11.802715057469682"><ele>1576.0</ele><time>2026-05-01T17:26:32.999Z</time></trkpt><trkpt lat="45.86455124272998" lon="11.802675311382993"><ele>1576.0000000000002</ele><time>2026-05-01T17:26:33.999Z</time></trkpt><trkpt lat="45.864465927130254" lon="11.802658871969738"><ele>1576.0</ele><time>2026-05-01T17:26:34.999Z</time></trkpt><trkpt lat="45.864374144305934" lon="11.802648531330306"><ele>1576.0</ele><time>2026-05-01T17:26:35.999Z</time></trkpt><trkpt lat="45.864280879328746" lon="11.802661529400497"><ele>1576.0</ele><time>2026-05-01T17:26:36.999Z</time></trkpt><trkpt lat="45.86417865747963" lon="11.802660929572848"><ele>1576.0</ele><time>2026-05-01T17:26:37.999Z</time></trkpt><trkpt lat="45.86406757306331" lon="11.80266628850832"><ele>1576.0</ele><time>2026-05-01T17:26:38.999Z</time></trkpt><trkpt lat="45.86395580417128" lon="11.802698478402416"><ele>1576.0</ele><time>2026-05-01T17:26:39.999Z</time></trkpt><trkpt lat="45.86383970187484" lon="11.802751365407785"><ele>1575.0</ele><time>2026-05-01T17:26:40.999Z</time></trkpt><trkpt lat="45.86372121732908" lon="11.80280434073831"><ele>1574.0</ele><time>2026-05-01T17:26:41.999Z</time></trkpt><trkpt lat="45.86360249006673" lon="11.80286383138077"><ele>1573.0</ele><time>2026-05-01T17:26:42.999Z</time></trkpt><trkpt lat="45.863491065833436" lon="11.802920071947195"><ele>1572.0</ele><time>2026-05-01T17:26:43.999Z</time></trkpt><trkpt lat="45.86338036524995" lon="11.802965532526928"><ele>1572.0</ele><time>2026-05-01T17:26:44.999Z</time></trkpt><trkpt lat="45.86327801504176" lon="11.802989879137424"><ele>1572.0</ele><time>2026-05-01T17:26:45.999Z</time></trkpt><trkpt lat="45.86319240851223" lon="11.802955052984345"><ele>1572.0</ele><time>2026-05-01T17:26:46.999Z</time></trkpt><trkpt lat="45.86311154783463" lon="11.802880208741705"><ele>1572.0</ele><time>2026-05-01T17:26:47.999Z</time></trkpt><trkpt lat="45.863030769778796" lon="11.80275981732541"><ele>1572.0</ele><time>2026-05-01T17:26:48.999Z</time></trkpt><trkpt lat="45.862962522583736" lon="11.802625449543093"><ele>1573.3999999999999</ele><time>2026-05-01T17:26:49.999Z</time></trkpt><trkpt lat="45.86288260977112" lon="11.802515991637378"><ele>1574.8</ele><time>2026-05-01T17:26:50.999Z</time></trkpt><trkpt lat="45.862779440309374" lon="11.802464357159963"><ele>1576.2</ele><time>2026-05-01T17:26:51.999Z</time></trkpt><trkpt lat="45.862683524891395" lon="11.802464711794341"><ele>1577.6</ele><time>2026-05-01T17:26:52.999Z</time></trkpt><trkpt lat="45.86258142115746" lon="11.802484201792398"><ele>1579.0</ele><time>2026-05-01T17:26:53.999Z</time></trkpt><trkpt lat="45.86248730232115" lon="11.802546757565041"><ele>1579.0000000000002</ele><time>2026-05-01T17:26:54.999Z</time></trkpt><trkpt lat="45.86240706964669" lon="11.802622503694204"><ele>1579.0</ele><time>2026-05-01T17:26:55.999Z</time></trkpt><trkpt lat="45.862337361296774" lon="11.802694971878179"><ele>1579.0</ele><time>2026-05-01T17:26:56.999Z</time></trkpt><trkpt lat="45.86227045856741" lon="11.80270131127605"><ele>1579.0</ele><time>2026-05-01T17:26:57.999Z</time></trkpt><trkpt lat="45.86219682629333" lon="11.80268270152236"><ele>1579.0000000000002</ele><time>2026-05-01T17:26:58.999Z</time></trkpt><trkpt lat="45.862132813754506" lon="11.802647687553113"><ele>1579.0</ele><time>2026-05-01T17:26:59.999Z</time></trkpt><trkpt lat="45.862076349951245" lon="11.802578112888485"><ele>1579.0</ele><time>2026-05-01T17:27:00.999Z</time></trkpt><trkpt lat="45.862039774278095" lon="11.802477717243471"><ele>1579.0</ele><time>2026-05-01T17:27:01.999Z</time></trkpt><trkpt lat="45.86201870126854" lon="11.8023597045682"><ele>1579.0</ele><time>2026-05-01T17:27:02.999Z</time></trkpt><trkpt lat="45.86202039929065" lon="11.802220801294109"><ele>1579.0</ele><time>2026-05-01T17:27:03.999Z</time></trkpt><trkpt lat="45.86203043672428" lon="11.80207028328453"><ele>1579.0</ele><time>2026-05-01T17:27:04.999Z</time></trkpt><trkpt lat="45.862028966971586" lon="11.80190940484439"><ele>1580.2</ele><time>2026-05-01T17:27:05.999Z</time></trkpt><trkpt lat="45.862023103593316" lon="11.801761892433541"><ele>1581.4</ele><time>2026-05-01T17:27:06.999Z</time></trkpt><trkpt lat="45.86200814569652" lon="11.801613706796397"><ele>1582.6</ele><time>2026-05-01T17:27:07.999Z</time></trkpt><trkpt lat="45.86200807064229" lon="11.801472723389029"><ele>1583.8</ele><time>2026-05-01T17:27:08.999Z</time></trkpt><trkpt lat="45.86204115385334" lon="11.801346741247421"><ele>1585.0</ele><time>2026-05-01T17:27:09.999Z</time></trkpt><trkpt lat="45.86210496775646" lon="11.801256691701886"><ele>1585.0</ele><time>2026-05-01T17:27:10.999Z</time></trkpt><trkpt lat="45.862159780593785" lon="11.801177325525229"><ele>1585.0</ele><time>2026-05-01T17:27:11.999Z</time></trkpt><trkpt lat="45.86215017864056" lon="11.801047001098082"><ele>1585.0</ele><time>2026-05-01T17:27:12.999Z</time></trkpt><trkpt lat="45.862106892700766" lon="11.800922598689704"><ele>1585.0</ele><time>2026-05-01T17:27:13.999Z</time></trkpt><trkpt lat="45.86205675585299" lon="11.800794046800933"><ele>1585.0</ele><time>2026-05-01T17:27:14.999Z</time></trkpt><trkpt lat="45.86201597591296" lon="11.800670524821477"><ele>1583.8</ele><time>2026-05-01T17:27:15.999Z</time></trkpt><trkpt lat="45.861958581608555" lon="11.800558585545255"><ele>1582.6</ele><time>2026-05-01T17:27:16.998Z</time></trkpt><trkpt lat="45.861880000390336" lon="11.800479717452545"><ele>1581.4</ele><time>2026-05-01T17:27:17.998Z</time></trkpt><trkpt lat="45.86178936968001" lon="11.800421792159723"><ele>1580.2</ele><time>2026-05-01T17:27:18.998Z</time></trkpt><trkpt lat="45.86171015105608" lon="11.800344864914571"><ele>1579.0</ele><time>2026-05-01T17:27:19.998Z</time></trkpt><trkpt lat="45.86165023583274" lon="11.800223996226297"><ele>1575.0</ele><time>2026-05-01T17:27:20.998Z</time></trkpt><trkpt lat="45.86160322637983" lon="11.800085458260595"><ele>1571.0</ele><time>2026-05-01T17:27:21.998Z</time></trkpt><trkpt lat="45.86155949718633" lon="11.799945854757864"><ele>1567.0</ele><time>2026-05-01T17:27:22.998Z</time></trkpt><trkpt lat="45.861521886028186" lon="11.799796664636567"><ele>1563.0</ele><time>2026-05-01T17:27:23.998Z</time></trkpt><trkpt lat="45.86149505043094" lon="11.799652684166414"><ele>1559.0</ele><time>2026-05-01T17:27:24.998Z</time></trkpt><trkpt lat="45.86149178177241" lon="11.799507572261845"><ele>1559.0</ele><time>2026-05-01T17:27:25.998Z</time></trkpt><trkpt lat="45.861490401981705" lon="11.799367944975517"><ele>1559.0</ele><time>2026-05-01T17:27:27Z</time></trkpt><trkpt lat="45.86146987426745" lon="11.799227665286523"><ele>1559.0</ele><time>2026-05-01T17:27:28Z</time></trkpt><trkpt lat="45.861378296930624" lon="11.799133901145565"><ele>1559.0</ele><time>2026-05-01T17:27:29Z</time></trkpt><trkpt lat="45.8612983491229" lon="11.799048828493232"><ele>1559.0</ele><time>2026-05-01T17:27:30Z</time></trkpt><trkpt lat="45.86122090317456" lon="11.798974814629718"><ele>1560.2</ele><time>2026-05-01T17:27:31Z</time></trkpt><trkpt lat="45.86114753712093" lon="11.798866633200662"><ele>1561.4</ele><time>2026-05-01T17:27:32Z</time></trkpt><trkpt lat="45.86108763614722" lon="11.798751945905364"><ele>1562.6</ele><time>2026-05-01T17:27:33Z</time></trkpt><trkpt lat="45.861029159056486" lon="11.798632642706158"><ele>1563.8</ele><time>2026-05-01T17:27:34Z</time></trkpt><trkpt lat="45.860975866248026" lon="11.798513891144804"><ele>1565.0</ele><time>2026-05-01T17:27:35Z</time></trkpt><trkpt lat="45.86092837310063" lon="11.798404923242348"><ele>1566.0</ele><time>2026-05-01T17:27:36Z</time></trkpt><trkpt lat="45.860955977076316" lon="11.798258192870781"><ele>1567.0</ele><time>2026-05-01T17:27:37Z</time></trkpt><trkpt lat="45.86092882960166" lon="11.798105963401811"><ele>1568.0</ele><time>2026-05-01T17:27:39Z</time></trkpt><trkpt lat="45.86083743509968" lon="11.798083647058837"><ele>1569.0</ele><time>2026-05-01T17:27:41Z</time></trkpt><trkpt lat="45.86078777374362" lon="11.798158998515794"><ele>1570.0</ele><time>2026-05-01T17:27:42Z</time></trkpt><trkpt lat="45.86080846334081" lon="11.798304345659588"><ele>1564.2</ele><time>2026-05-01T17:27:43Z</time></trkpt><trkpt lat="45.86081904202442" lon="11.798434596911255"><ele>1558.4</ele><time>2026-05-01T17:27:44Z</time></trkpt><trkpt lat="45.86083573380359" lon="11.798562549151915"><ele>1552.6</ele><time>2026-05-01T17:27:45Z</time></trkpt><trkpt lat="45.86085345895153" lon="11.798709642845582"><ele>1546.8</ele><time>2026-05-01T17:27:46Z</time></trkpt><trkpt lat="45.86087282469696" lon="11.798869179850495"><ele>1541.0</ele><time>2026-05-01T17:27:47Z</time></trkpt><trkpt lat="45.86090420506695" lon="11.79902881811503"><ele>1539.8333333333333</ele><time>2026-05-01T17:27:48Z</time></trkpt><trkpt lat="45.860940979938526" lon="11.799163667172968"><ele>1538.6666666666665</ele><time>2026-05-01T17:27:49Z</time></trkpt><trkpt lat="45.860993759899735" lon="11.79929341506104"><ele>1537.5</ele><time>2026-05-01T17:27:50Z</time></trkpt><trkpt lat="45.86102925573681" lon="11.799407415955457"><ele>1536.3333333333333</ele><time>2026-05-01T17:27:51Z</time></trkpt><trkpt lat="45.86104158568335" lon="11.79951884119538"><ele>1535.1666666666665</ele><time>2026-05-01T17:27:52Z</time></trkpt><trkpt lat="45.86101936083733" lon="11.799604874642021"><ele>1534.0</ele><time>2026-05-01T17:27:53Z</time></trkpt><trkpt lat="45.860969028084256" lon="11.799664861888525"><ele>1534.6</ele><time>2026-05-01T17:27:54Z</time></trkpt><trkpt lat="45.86089646917141" lon="11.799701589791379"><ele>1535.2</ele><time>2026-05-01T17:27:55Z</time></trkpt><trkpt lat="45.8607817030326" lon="11.799649176119473"><ele>1535.8</ele><time>2026-05-01T17:27:56Z</time></trkpt><trkpt lat="45.86067136445369" lon="11.799685638627327"><ele>1536.3999999999999</ele><time>2026-05-01T17:27:57Z</time></trkpt><trkpt lat="45.86057142272022" lon="11.79971102219766"><ele>1537.0</ele><time>2026-05-01T17:27:58Z</time></trkpt><trkpt lat="45.86048928144183" lon="11.79974339052457"><ele>1537.0</ele><time>2026-05-01T17:27:59Z</time></trkpt><trkpt lat="45.86041792544667" lon="11.799808798379523"><ele>1537.0</ele><time>2026-05-01T17:28:00Z</time></trkpt><trkpt lat="45.860366869328104" lon="11.799921591684452"><ele>1537.0</ele><time>2026-05-01T17:28:01Z</time></trkpt><trkpt lat="45.860323279185266" lon="11.800044820460354"><ele>1537.0</ele><time>2026-05-01T17:28:02Z</time></trkpt><trkpt lat="45.86026993772307" lon="11.800169257123292"><ele>1537.0</ele><time>2026-05-01T17:28:03Z</time></trkpt><trkpt lat="45.86020174301287" lon="11.800270728574372"><ele>1537.8</ele><time>2026-05-01T17:28:04Z</time></trkpt><trkpt lat="45.860126453008505" lon="11.800360436929047"><ele>1538.6</ele><time>2026-05-01T17:28:05Z</time></trkpt><trkpt lat="45.86006235054331" lon="11.800469875140926"><ele>1539.3999999999999</ele><time>2026-05-01T17:28:06Z</time></trkpt><trkpt lat="45.86002209524427" lon="11.800607077070978"><ele>1540.1999999999998</ele><time>2026-05-01T17:28:07Z</time></trkpt><trkpt lat="45.86000896744436" lon="11.800755933694871"><ele>1541.0</ele><time>2026-05-01T17:28:08Z</time></trkpt><trkpt lat="45.860022277462825" lon="11.8008999102685"><ele>1539.6</ele><time>2026-05-01T17:28:09Z</time></trkpt><trkpt lat="45.86007415543882" lon="11.80103920862422"><ele>1538.1999999999998</ele><time>2026-05-01T17:28:10Z</time></trkpt><trkpt lat="45.86010644903004" lon="11.80118635243122"><ele>1536.8000000000002</ele><time>2026-05-01T17:28:11Z</time></trkpt><trkpt lat="45.86013981702972" lon="11.801329555781082"><ele>1535.4</ele><time>2026-05-01T17:28:12Z</time></trkpt><trkpt lat="45.860161203093256" lon="11.801480885257664"><ele>1534.0</ele><time>2026-05-01T17:28:13Z</time></trkpt><trkpt lat="45.86016425957316" lon="11.801604273968108"><ele>1534.0</ele><time>2026-05-01T17:28:14Z</time></trkpt><trkpt lat="45.86012686080374" lon="11.801701361605941"><ele>1534.0</ele><time>2026-05-01T17:28:14.999Z</time></trkpt><trkpt lat="45.86004452534627" lon="11.80172623762053"><ele>1534.0</ele><time>2026-05-01T17:28:15.999Z</time></trkpt><trkpt lat="45.85997566813813" lon="11.801802625879217"><ele>1534.0</ele><time>2026-05-01T17:28:16.999Z</time></trkpt><trkpt lat="45.859947649763285" lon="11.801936086360943"><ele>1534.0</ele><time>2026-05-01T17:28:17.999Z</time></trkpt><trkpt lat="45.85996554927967" lon="11.802091127255938"><ele>1529.6</ele><time>2026-05-01T17:28:18.999Z</time></trkpt><trkpt lat="45.85997242797533" lon="11.802219738145938"><ele>1525.2</ele><time>2026-05-01T17:28:19.999Z</time></trkpt><trkpt lat="45.85996426406652" lon="11.802314970398706"><ele>1520.8</ele><time>2026-05-01T17:28:20.999Z</time></trkpt><trkpt lat="45.859827150437305" lon="11.802394371509095"><ele>1516.3999999999999</ele><time>2026-05-01T17:28:22.999Z</time></trkpt><trkpt lat="45.85971802411061" lon="11.80238779612556"><ele>1512.0</ele><time>2026-05-01T17:28:23.999Z</time></trkpt><trkpt lat="45.85960073099921" lon="11.802382937234514"><ele>1512.0</ele><time>2026-05-01T17:28:24.999Z</time></trkpt><trkpt lat="45.859495787642096" lon="11.80237094198782"><ele>1512.0</ele><time>2026-05-01T17:28:25.999Z</time></trkpt><trkpt lat="45.859372113872254" lon="11.802362089861553"><ele>1512.0</ele><time>2026-05-01T17:28:26.999Z</time></trkpt><trkpt lat="45.85927761734457" lon="11.802373112807294"><ele>1512.0</ele><time>2026-05-01T17:28:27.999Z</time></trkpt><trkpt lat="45.85920106746074" lon="11.802412004628588"><ele>1512.0</ele><time>2026-05-01T17:28:28.999Z</time></trkpt><trkpt lat="45.85914173371771" lon="11.802484376745612"><ele>1512.0</ele><time>2026-05-01T17:28:29.999Z</time></trkpt><trkpt lat="45.859076181041246" lon="11.802598049407786"><ele>1512.0</ele><time>2026-05-01T17:28:31.999Z</time></trkpt><trkpt lat="45.85905675525819" lon="11.802479559410969"><ele>1512.0</ele><time>2026-05-01T17:28:33.999Z</time></trkpt><trkpt lat="45.859096232194055" lon="11.80238363407002"><ele>1512.0</ele><time>2026-05-01T17:28:34.999Z</time></trkpt><trkpt lat="45.85917805695462" lon="11.802336828498017"><ele>1512.0</ele><time>2026-05-01T17:28:35.999Z</time></trkpt><trkpt lat="45.85924256233959" lon="11.802288522240145"><ele>1512.0</ele><time>2026-05-01T17:28:36.999Z</time></trkpt><trkpt lat="45.85931304554673" lon="11.80225075839428"><ele>1512.0</ele><time>2026-05-01T17:28:37.999Z</time></trkpt><trkpt lat="45.85939880064842" lon="11.802206497254874"><ele>1512.0</ele><time>2026-05-01T17:28:38.999Z</time></trkpt><trkpt lat="45.859402315832924" lon="11.802089346314984"><ele>1512.0</ele><time>2026-05-01T17:28:40.999Z</time></trkpt><trkpt lat="45.85925768998103" lon="11.802087438315388"><ele>1512.0</ele><time>2026-05-01T17:28:42.999Z</time></trkpt><trkpt lat="45.85918002888828" lon="11.802146189345692"><ele>1512.0</ele><time>2026-05-01T17:28:43.999Z</time></trkpt><trkpt lat="45.85909509478826" lon="11.802197194536244"><ele>1510.6666666666667</ele><time>2026-05-01T17:28:44.999Z</time></trkpt><trkpt lat="45.859015562984865" lon="11.802225791924633"><ele>1509.3333333333333</ele><time>2026-05-01T17:28:45.999Z</time></trkpt><trkpt lat="45.858951352708644" lon="11.8022788102417"><ele>1508.0</ele><time>2026-05-01T17:28:46.999Z</time></trkpt><trkpt lat="45.85890400339979" lon="11.802360436918201"><ele>1506.6666666666665</ele><time>2026-05-01T17:28:47.999Z</time></trkpt><trkpt lat="45.8588787044395" lon="11.802476161691587"><ele>1505.3333333333333</ele><time>2026-05-01T17:28:48.999Z</time></trkpt><trkpt lat="45.85886907175965" lon="11.802600500306715"><ele>1504.0</ele><time>2026-05-01T17:28:49.999Z</time></trkpt><trkpt lat="45.858846400590885" lon="11.802720992170595"><ele>1504.0</ele><time>2026-05-01T17:28:50.999Z</time></trkpt><trkpt lat="45.8588150727039" lon="11.802844213611285"><ele>1504.0</ele><time>2026-05-01T17:28:51.999Z</time></trkpt><trkpt lat="45.85878309519222" lon="11.802975721683076"><ele>1504.0</ele><time>2026-05-01T17:28:52.999Z</time></trkpt><trkpt lat="45.85873980039344" lon="11.803111821292571"><ele>1504.0</ele><time>2026-05-01T17:28:53.999Z</time></trkpt><trkpt lat="45.85869567875337" lon="11.803239183164495"><ele>1504.0</ele><time>2026-05-01T17:28:54.999Z</time></trkpt><trkpt lat="45.858635946054655" lon="11.80336690631458"><ele>1505.0</ele><time>2026-05-01T17:28:55.999Z</time></trkpt><trkpt lat="45.858569091680145" lon="11.803497498005239"><ele>1506.0</ele><time>2026-05-01T17:28:56.999Z</time></trkpt><trkpt lat="45.85849671946431" lon="11.803628681437171"><ele>1507.0</ele><time>2026-05-01T17:28:57.999Z</time></trkpt><trkpt lat="45.858425302774044" lon="11.803759022813377"><ele>1508.0</ele><time>2026-05-01T17:28:58.999Z</time></trkpt><trkpt lat="45.85836170234995" lon="11.8038800392645"><ele>1501.0</ele><time>2026-05-01T17:28:59.999Z</time></trkpt><trkpt lat="45.85828701881366" lon="11.80397437383598"><ele>1494.0</ele><time>2026-05-01T17:29:00.999Z</time></trkpt><trkpt lat="45.85821489098505" lon="11.80406116226412"><ele>1487.0</ele><time>2026-05-01T17:29:01.999Z</time></trkpt><trkpt lat="45.858137142278025" lon="11.804119846842513"><ele>1480.0</ele><time>2026-05-01T17:29:02.999Z</time></trkpt><trkpt lat="45.8580446709753" lon="11.804066847014042"><ele>1473.0</ele><time>2026-05-01T17:29:03.999Z</time></trkpt><trkpt lat="45.85794443741128" lon="11.80402431368503"><ele>1473.0</ele><time>2026-05-01T17:29:04.999Z</time></trkpt><trkpt lat="45.85791764641065" lon="11.80386877995828"><ele>1473.0</ele><time>2026-05-01T17:29:05.999Z</time></trkpt><trkpt lat="45.857860541159475" lon="11.803796164108562"><ele>1473.0</ele><time>2026-05-01T17:29:06.999Z</time></trkpt><trkpt lat="45.85777862704661" lon="11.803744179735272"><ele>1473.0</ele><time>2026-05-01T17:29:07.999Z</time></trkpt><trkpt lat="45.85769473188228" lon="11.803780968834364"><ele>1473.0</ele><time>2026-05-01T17:29:08.999Z</time></trkpt><trkpt lat="45.85761478441007" lon="11.803858421150336"><ele>1468.6000000000001</ele><time>2026-05-01T17:29:09.999Z</time></trkpt><trkpt lat="45.857536820952596" lon="11.803966477102113"><ele>1464.2</ele><time>2026-05-01T17:29:10.999Z</time></trkpt><trkpt lat="45.85746789938452" lon="11.804090484885466"><ele>1459.8</ele><time>2026-05-01T17:29:11.999Z</time></trkpt><trkpt lat="45.85739717634966" lon="11.804206554648347"><ele>1455.4</ele><time>2026-05-01T17:29:12.999Z</time></trkpt><trkpt lat="45.85731798192138" lon="11.804316075221648"><ele>1451.0</ele><time>2026-05-01T17:29:13.999Z</time></trkpt><trkpt lat="45.857214187869246" lon="11.804357840234578"><ele>1451.0</ele><time>2026-05-01T17:29:14.999Z</time></trkpt><trkpt lat="45.85711441645359" lon="11.80440756362042"><ele>1451.0</ele><time>2026-05-01T17:29:15.999Z</time></trkpt><trkpt lat="45.85702141142065" lon="11.804449554377602"><ele>1451.0</ele><time>2026-05-01T17:29:16.999Z</time></trkpt><trkpt lat="45.85694332716929" lon="11.804410903590574"><ele>1451.0</ele><time>2026-05-01T17:29:17.999Z</time></trkpt><trkpt lat="45.85688130443615" lon="11.804320545784904"><ele>1451.0</ele><time>2026-05-01T17:29:18.999Z</time></trkpt><trkpt lat="45.85684839797972" lon="11.804195338825586"><ele>1451.0</ele><time>2026-05-01T17:29:19.999Z</time></trkpt><trkpt lat="45.85682060489749" lon="11.804044420043503"><ele>1451.0</ele><time>2026-05-01T17:29:20.999Z</time></trkpt><trkpt lat="45.856796545073166" lon="11.80388513834123"><ele>1451.0</ele><time>2026-05-01T17:29:21.998Z</time></trkpt><trkpt lat="45.85676312909912" lon="11.80373730984846"><ele>1451.0</ele><time>2026-05-01T17:29:22.998Z</time></trkpt><trkpt lat="45.85672739786211" lon="11.803573379640586"><ele>1444.1999999999998</ele><time>2026-05-01T17:29:23.998Z</time></trkpt><trkpt lat="45.85671262083757" lon="11.803411434832714"><ele>1437.3999999999999</ele><time>2026-05-01T17:29:24.998Z</time></trkpt><trkpt lat="45.85671624407579" lon="11.803243770725384"><ele>1430.6</ele><time>2026-05-01T17:29:25.998Z</time></trkpt><trkpt lat="45.85670683576466" lon="11.803108414735211"><ele>1423.8</ele><time>2026-05-01T17:29:26.998Z</time></trkpt><trkpt lat="45.85671289597161" lon="11.802962195863062"><ele>1417.0</ele><time>2026-05-01T17:29:27.998Z</time></trkpt><trkpt lat="45.856679472148734" lon="11.802829941286939"><ele>1417.0</ele><time>2026-05-01T17:29:28.998Z</time></trkpt><trkpt lat="45.85662420959293" lon="11.80272404268148"><ele>1417.0</ele><time>2026-05-01T17:29:29.998Z</time></trkpt><trkpt lat="45.856538559275414" lon="11.802669071799194"><ele>1417.0</ele><time>2026-05-01T17:29:30.998Z</time></trkpt><trkpt lat="45.85643668866211" lon="11.802640932856445"><ele>1417.0</ele><time>2026-05-01T17:29:31.998Z</time></trkpt><trkpt lat="45.85634287048435" lon="11.802566645807229"><ele>1417.0</ele><time>2026-05-01T17:29:33Z</time></trkpt><trkpt lat="45.85629121180132" lon="11.802445966080159"><ele>1416.6</ele><time>2026-05-01T17:29:34Z</time></trkpt><trkpt lat="45.856290666688516" lon="11.80231277394455"><ele>1416.1999999999998</ele><time>2026-05-01T17:29:35Z</time></trkpt><trkpt lat="45.85631023013504" lon="11.802142770948077"><ele>1415.8</ele><time>2026-05-01T17:29:36Z</time></trkpt><trkpt lat="45.85631376574527" lon="11.802015563357003"><ele>1415.4</ele><time>2026-05-01T17:29:37Z</time></trkpt><trkpt lat="45.85629503558694" lon="11.80189606692786"><ele>1415.0</ele><time>2026-05-01T17:29:38Z</time></trkpt><trkpt lat="45.856227011571754" lon="11.801802476152572"><ele>1414.6</ele><time>2026-05-01T17:29:39Z</time></trkpt><trkpt lat="45.85614305543423" lon="11.80173729371701"><ele>1414.2</ele><time>2026-05-01T17:29:40Z</time></trkpt><trkpt lat="45.856068532932746" lon="11.801647850193747"><ele>1413.8000000000002</ele><time>2026-05-01T17:29:41Z</time></trkpt><trkpt lat="45.85603866770802" lon="11.80150866764754"><ele>1413.4</ele><time>2026-05-01T17:29:42Z</time></trkpt><trkpt lat="45.85604719288053" lon="11.80136956302941"><ele>1413.0</ele><time>2026-05-01T17:29:43Z</time></trkpt><trkpt lat="45.856086124532425" lon="11.801247799849651"><ele>1413.0</ele><time>2026-05-01T17:29:44Z</time></trkpt><trkpt lat="45.85609425746183" lon="11.801140986339831"><ele>1413.0</ele><time>2026-05-01T17:29:45Z</time></trkpt><trkpt lat="45.85603174769699" lon="11.801057947033375"><ele>1413.0</ele><time>2026-05-01T17:29:46Z</time></trkpt><trkpt lat="45.85594361569469" lon="11.800993363052386"><ele>1413.0</ele><time>2026-05-01T17:29:47Z</time></trkpt><trkpt lat="45.855867903801865" lon="11.800914889198467"><ele>1413.0</ele><time>2026-05-01T17:29:48Z</time></trkpt><trkpt lat="45.85579242358823" lon="11.800815357155091"><ele>1413.25</ele><time>2026-05-01T17:29:49Z</time></trkpt><trkpt lat="45.85572090874382" lon="11.800705797551815"><ele>1413.5</ele><time>2026-05-01T17:29:50Z</time></trkpt><trkpt lat="45.855639731318" lon="11.800557643148341"><ele>1413.75</ele><time>2026-05-01T17:29:51Z</time></trkpt><trkpt lat="45.85554459119654" lon="11.800383732234302"><ele>1414.0</ele><time>2026-05-01T17:29:52Z</time></trkpt><trkpt lat="45.85542369573374" lon="11.800284718768804"><ele>1414.0</ele><time>2026-05-01T17:29:53Z</time></trkpt><trkpt lat="45.855311821732236" lon="11.800184913015851"><ele>1414.0</ele><time>2026-05-01T17:29:54Z</time></trkpt><trkpt lat="45.85520885619941" lon="11.800096234899977"><ele>1414.0</ele><time>2026-05-01T17:29:55Z</time></trkpt><trkpt lat="45.85510951527235" lon="11.800006105325087"><ele>1414.0</ele><time>2026-05-01T17:29:56Z</time></trkpt><trkpt lat="45.85501112307729" lon="11.799946419265083"><ele>1413.4</ele><time>2026-05-01T17:29:57Z</time></trkpt><trkpt lat="45.854932205515304" lon="11.79986788727794"><ele>1412.8000000000002</ele><time>2026-05-01T17:29:58Z</time></trkpt><trkpt lat="45.854854504534664" lon="11.799773678670041"><ele>1412.1999999999998</ele><time>2026-05-01T17:29:59Z</time></trkpt><trkpt lat="45.85478220891734" lon="11.799646231331943"><ele>1411.6</ele><time>2026-05-01T17:30:00Z</time></trkpt><trkpt lat="45.85469950089832" lon="11.79951768382389"><ele>1411.0</ele><time>2026-05-01T17:30:01Z</time></trkpt><trkpt lat="45.854643143456464" lon="11.799381631810675"><ele>1412.6</ele><time>2026-05-01T17:30:02Z</time></trkpt><trkpt lat="45.85458971859744" lon="11.79925277509896"><ele>1414.1999999999998</ele><time>2026-05-01T17:30:03Z</time></trkpt><trkpt lat="45.85454337211018" lon="11.799126711512557"><ele>1415.8000000000002</ele><time>2026-05-01T17:30:04Z</time></trkpt><trkpt lat="45.854504524152055" lon="11.799006176656503"><ele>1417.4</ele><time>2026-05-01T17:30:05Z</time></trkpt><trkpt lat="45.85447446982342" lon="11.798895769905508"><ele>1419.0</ele><time>2026-05-01T17:30:06Z</time></trkpt><trkpt lat="45.854474871315084" lon="11.798784944514159"><ele>1419.0</ele><time>2026-05-01T17:30:07Z</time></trkpt><trkpt lat="45.854514664597495" lon="11.798670942034692"><ele>1419.0</ele><time>2026-05-01T17:30:08Z</time></trkpt><trkpt lat="45.854585601324715" lon="11.798578893741068"><ele>1419.0</ele><time>2026-05-01T17:30:09Z</time></trkpt><trkpt lat="45.854661236135755" lon="11.798472932017837"><ele>1419.0</ele><time>2026-05-01T17:30:10Z</time></trkpt><trkpt lat="45.85473801821959" lon="11.798359051050953"><ele>1419.0</ele><time>2026-05-01T17:30:11Z</time></trkpt><trkpt lat="45.85481029679705" lon="11.798216471552829"><ele>1415.25</ele><time>2026-05-01T17:30:12Z</time></trkpt><trkpt lat="45.85487491475777" lon="11.798058536833034"><ele>1411.5</ele><time>2026-05-01T17:30:13Z</time></trkpt><trkpt lat="45.85492828247962" lon="11.79790491475834"><ele>1407.75</ele><time>2026-05-01T17:30:14Z</time></trkpt><trkpt lat="45.85497754845631" lon="11.797766462209239"><ele>1404.0</ele><time>2026-05-01T17:30:15Z</time></trkpt><trkpt lat="45.85502478927887" lon="11.797645326309151"><ele>1401.4</ele><time>2026-05-01T17:30:16Z</time></trkpt><trkpt lat="45.855051519154905" lon="11.797513617185132"><ele>1398.8000000000002</ele><time>2026-05-01T17:30:17Z</time></trkpt><trkpt lat="45.85503773725145" lon="11.797382470313513"><ele>1396.1999999999998</ele><time>2026-05-01T17:30:18Z</time></trkpt><trkpt lat="45.854979431791634" lon="11.79726751962254"><ele>1393.6</ele><time>2026-05-01T17:30:19Z</time></trkpt><trkpt lat="45.85489903638815" lon="11.797171139809533"><ele>1391.0</ele><time>2026-05-01T17:30:20Z</time></trkpt><trkpt lat="45.854790501065345" lon="11.79710822688906"><ele>1391.0</ele><time>2026-05-01T17:30:20.999Z</time></trkpt><trkpt lat="45.85466712636033" lon="11.797067819657116"><ele>1391.0</ele><time>2026-05-01T17:30:21.999Z</time></trkpt><trkpt lat="45.85453441067576" lon="11.797049024842076"><ele>1391.0</ele><time>2026-05-01T17:30:22.999Z</time></trkpt><trkpt lat="45.85440540275716" lon="11.797019684713108"><ele>1391.0</ele><time>2026-05-01T17:30:23.999Z</time></trkpt><trkpt lat="45.854281898102215" lon="11.796971646586183"><ele>1388.0</ele><time>2026-05-01T17:30:24.999Z</time></trkpt><trkpt lat="45.85418703447421" lon="11.7969001858812"><ele>1385.0</ele><time>2026-05-01T17:30:25.999Z</time></trkpt><trkpt lat="45.85412307635661" lon="11.796807658792478"><ele>1382.0</ele><time>2026-05-01T17:30:26.999Z</time></trkpt><trkpt lat="45.8540385064946" lon="11.796718826077628"><ele>1379.0</ele><time>2026-05-01T17:30:27.999Z</time></trkpt><trkpt lat="45.85396798710534" lon="11.796650622389436"><ele>1376.0</ele><time>2026-05-01T17:30:28.999Z</time></trkpt><trkpt lat="45.85385308373569" lon="11.796618853536012"><ele>1376.0</ele><time>2026-05-01T17:30:30.999Z</time></trkpt><trkpt lat="45.85379204165843" lon="11.79677944293372"><ele>1376.0</ele><time>2026-05-01T17:30:32.999Z</time></trkpt><trkpt lat="45.853862625633724" lon="11.796900086349712"><ele>1376.0</ele><time>2026-05-01T17:30:33.999Z</time></trkpt><trkpt lat="45.853931015460304" lon="11.796984077021202"><ele>1376.0</ele><time>2026-05-01T17:30:34.999Z</time></trkpt><trkpt lat="45.854001328005765" lon="11.797073558772215"><ele>1376.0</ele><time>2026-05-01T17:30:35.999Z</time></trkpt><trkpt lat="45.85406493322171" lon="11.797157195526381"><ele>1375.6</ele><time>2026-05-01T17:30:36.999Z</time></trkpt><trkpt lat="45.85411780464477" lon="11.797239396733069"><ele>1375.1999999999998</ele><time>2026-05-01T17:30:37.999Z</time></trkpt><trkpt lat="45.85414387745558" lon="11.797362867982965"><ele>1374.8000000000002</ele><time>2026-05-01T17:30:39.999Z</time></trkpt><trkpt lat="45.85408385909047" lon="11.797431788682575"><ele>1374.4</ele><time>2026-05-01T17:30:40.999Z</time></trkpt><trkpt lat="45.85397619040629" lon="11.797429869674875"><ele>1374.0</ele><time>2026-05-01T17:30:41.999Z</time></trkpt><trkpt lat="45.85386427622282" lon="11.797444873076815"><ele>1374.0</ele><time>2026-05-01T17:30:42.999Z</time></trkpt><trkpt lat="45.853762902221234" lon="11.797434802719131"><ele>1374.0</ele><time>2026-05-01T17:30:43.999Z</time></trkpt><trkpt lat="45.85366230552839" lon="11.797363794408614"><ele>1374.0</ele><time>2026-05-01T17:30:44.999Z</time></trkpt><trkpt lat="45.85357726651284" lon="11.79727345402485"><ele>1374.0</ele><time>2026-05-01T17:30:45.999Z</time></trkpt><trkpt lat="45.853503634486444" lon="11.79720109474348"><ele>1374.0</ele><time>2026-05-01T17:30:46.999Z</time></trkpt><trkpt lat="45.85343646912665" lon="11.797138927910593"><ele>1369.2</ele><time>2026-05-01T17:30:47.999Z</time></trkpt><trkpt lat="45.85337604094554" lon="11.797085170285051"><ele>1364.4</ele><time>2026-05-01T17:30:48.999Z</time></trkpt><trkpt lat="45.853310905114235" lon="11.797085344048218"><ele>1359.6</ele><time>2026-05-01T17:30:49.999Z</time></trkpt><trkpt lat="45.85323612191726" lon="11.797216634500435"><ele>1354.8</ele><time>2026-05-01T17:30:51.999Z</time></trkpt><trkpt lat="45.85325951634665" lon="11.79737481287644"><ele>1350.0</ele><time>2026-05-01T17:30:52.999Z</time></trkpt><trkpt lat="45.85327531040365" lon="11.797503507375188"><ele>1350.0</ele><time>2026-05-01T17:30:53.999Z</time></trkpt><trkpt lat="45.85326410776393" lon="11.797610987950867"><ele>1350.0</ele><time>2026-05-01T17:30:54.999Z</time></trkpt><trkpt lat="45.853226812276425" lon="11.797700294571717"><ele>1350.0</ele><time>2026-05-01T17:30:55.999Z</time></trkpt><trkpt lat="45.853175003081226" lon="11.797784289971766"><ele>1350.0</ele><time>2026-05-01T17:30:56.999Z</time></trkpt><trkpt lat="45.85310717572351" lon="11.79784113441623"><ele>1350.0</ele><time>2026-05-01T17:30:57.999Z</time></trkpt><trkpt lat="45.85302873688043" lon="11.79781339948029"><ele>1350.0</ele><time>2026-05-01T17:30:58.999Z</time></trkpt><trkpt lat="45.852919973099155" lon="11.797760616150097"><ele>1350.0</ele><time>2026-05-01T17:30:59.999Z</time></trkpt><trkpt lat="45.85283209437272" lon="11.797670201967604"><ele>1350.0</ele><time>2026-05-01T17:31:00.999Z</time></trkpt><trkpt lat="45.85277698633215" lon="11.797535610170641"><ele>1350.0</ele><time>2026-05-01T17:31:01.999Z</time></trkpt><trkpt lat="45.85274908138482" lon="11.797383544899539"><ele>1350.0</ele><time>2026-05-01T17:31:02.999Z</time></trkpt><trkpt lat="45.8527317374575" lon="11.7972168644594"><ele>1350.0</ele><time>2026-05-01T17:31:03.999Z</time></trkpt><trkpt lat="45.85271909834217" lon="11.797052400187848"><ele>1350.0</ele><time>2026-05-01T17:31:04.999Z</time></trkpt><trkpt lat="45.852718902562444" lon="11.796866871513439"><ele>1350.0</ele><time>2026-05-01T17:31:05.999Z</time></trkpt><trkpt lat="45.85272901035298" lon="11.796677602870929"><ele>1350.0</ele><time>2026-05-01T17:31:06.999Z</time></trkpt><trkpt lat="45.85276500929577" lon="11.796497815955002"><ele>1350.0</ele><time>2026-05-01T17:31:07.999Z</time></trkpt><trkpt lat="45.85281989221152" lon="11.796318807601848"><ele>1350.0</ele><time>2026-05-01T17:31:08.999Z</time></trkpt><trkpt lat="45.85287210447547" lon="11.796168742562534"><ele>1350.0</ele><time>2026-05-01T17:31:09.999Z</time></trkpt><trkpt lat="45.85291944938746" lon="11.796029780042614"><ele>1350.0</ele><time>2026-05-01T17:31:10.999Z</time></trkpt><trkpt lat="45.8529565217047" lon="11.795902713252628"><ele>1350.0</ele><time>2026-05-01T17:31:11.999Z</time></trkpt><trkpt lat="45.85296276018874" lon="11.795782463450683"><ele>1350.0</ele><time>2026-05-01T17:31:12.999Z</time></trkpt><trkpt lat="45.85289881468058" lon="11.79566496104067"><ele>1348.8</ele><time>2026-05-01T17:31:13.999Z</time></trkpt><trkpt lat="45.85284541538607" lon="11.795557841080651"><ele>1347.6</ele><time>2026-05-01T17:31:14.999Z</time></trkpt><trkpt lat="45.85278852005248" lon="11.795442816914122"><ele>1346.4</ele><time>2026-05-01T17:31:15.999Z</time></trkpt><trkpt lat="45.852729757222846" lon="11.795310589390514"><ele>1345.2</ele><time>2026-05-01T17:31:16.999Z</time></trkpt><trkpt lat="45.852685965956674" lon="11.795157108757703"><ele>1344.0</ele><time>2026-05-01T17:31:17.999Z</time></trkpt><trkpt lat="45.852659535175206" lon="11.795005370640746"><ele>1343.0</ele><time>2026-05-01T17:31:18.999Z</time></trkpt><trkpt lat="45.85264962455555" lon="11.794878072783646"><ele>1342.0</ele><time>2026-05-01T17:31:19.999Z</time></trkpt><trkpt lat="45.852615848642" lon="11.79478013920779"><ele>1341.0</ele><time>2026-05-01T17:31:20.999Z</time></trkpt><trkpt lat="45.85254893600945" lon="11.794720895151794"><ele>1340.0</ele><time>2026-05-01T17:31:21.999Z</time></trkpt><trkpt lat="45.852449369316304" lon="11.794728845869914"><ele>1339.0</ele><time>2026-05-01T17:31:22.999Z</time></trkpt><trkpt lat="45.85234429489861" lon="11.794775172147762"><ele>1339.0</ele><time>2026-05-01T17:31:23.999Z</time></trkpt><trkpt lat="45.85223448031381" lon="11.794781998554173"><ele>1339.0</ele><time>2026-05-01T17:31:24.999Z</time></trkpt><trkpt lat="45.852126059998646" lon="11.794754706003221"><ele>1339.0</ele><time>2026-05-01T17:31:25.999Z</time></trkpt><trkpt lat="45.85204835568168" lon="11.794696346366413"><ele>1339.0</ele><time>2026-05-01T17:31:26.998Z</time></trkpt><trkpt lat="45.85199380316047" lon="11.794598052707983"><ele>1339.0</ele><time>2026-05-01T17:31:27.998Z</time></trkpt><trkpt lat="45.85194729240228" lon="11.794459799982151"><ele>1338.75</ele><time>2026-05-01T17:31:28.998Z</time></trkpt><trkpt lat="45.8518884499355" lon="11.794312370449973"><ele>1338.5</ele><time>2026-05-01T17:31:29.998Z</time></trkpt><trkpt lat="45.85178078314355" lon="11.79423115301139"><ele>1338.25</ele><time>2026-05-01T17:31:30.998Z</time></trkpt><trkpt lat="45.85165872751925" lon="11.794242582585085"><ele>1338.0</ele><time>2026-05-01T17:31:31.998Z</time></trkpt><trkpt lat="45.8515473944945" lon="11.794302690878855"><ele>1338.0</ele><time>2026-05-01T17:31:32.998Z</time></trkpt><trkpt lat="45.8514623755754" lon="11.794319380846204"><ele>1338.0</ele><time>2026-05-01T17:31:33.998Z</time></trkpt><trkpt lat="45.85135247008514" lon="11.794264928118102"><ele>1338.0</ele><time>2026-05-01T17:31:34.998Z</time></trkpt><trkpt lat="45.851254326995196" lon="11.79414398201272"><ele>1338.0</ele><time>2026-05-01T17:31:35.998Z</time></trkpt><trkpt lat="45.851150436942156" lon="11.794058371523741"><ele>1338.0</ele><time>2026-05-01T17:31:36.998Z</time></trkpt><trkpt lat="45.851019741148875" lon="11.794011775615129"><ele>1338.0</ele><time>2026-05-01T17:31:37.998Z</time></trkpt><trkpt lat="45.850871057403815" lon="11.794070510698988"><ele>1338.0</ele><time>2026-05-01T17:31:39Z</time></trkpt><trkpt lat="45.85077427536205" lon="11.79414829776546"><ele>1338.0</ele><time>2026-05-01T17:31:40Z</time></trkpt><trkpt lat="45.85065402276472" lon="11.79423914794514"><ele>1338.0</ele><time>2026-05-01T17:31:41Z</time></trkpt><trkpt lat="45.85053424109498" lon="11.79429912993254"><ele>1338.0</ele><time>2026-05-01T17:31:42Z</time></trkpt><trkpt lat="45.85039314742956" lon="11.794346545395452"><ele>1338.0</ele><time>2026-05-01T17:31:43Z</time></trkpt><trkpt lat="45.85025773123129" lon="11.794365847637707"><ele>1338.0</ele><time>2026-05-01T17:31:44Z</time></trkpt><trkpt lat="45.850137402203394" lon="11.794345036819756"><ele>1340.6666666666667</ele><time>2026-05-01T17:31:45Z</time></trkpt><trkpt lat="45.85002756202159" lon="11.794264411381844"><ele>1343.3333333333335</ele><time>2026-05-01T17:31:46Z</time></trkpt><trkpt lat="45.849850002081844" lon="11.794191754644327"><ele>1346.0</ele><time>2026-05-01T17:31:47Z</time></trkpt><trkpt lat="45.84970895939434" lon="11.794143482805307"><ele>1346.0</ele><time>2026-05-01T17:31:48Z</time></trkpt><trkpt lat="45.84952640211778" lon="11.79400785013125"><ele>1346.0</ele><time>2026-05-01T17:31:49Z</time></trkpt><trkpt lat="45.84939774354587" lon="11.793976233026903"><ele>1346.0</ele><time>2026-05-01T17:31:50Z</time></trkpt><trkpt lat="45.84927348421243" lon="11.79397696853342"><ele>1346.5</ele><time>2026-05-01T17:31:51Z</time></trkpt><trkpt lat="45.849141612183054" lon="11.793961164102154"><ele>1347.0</ele><time>2026-05-01T17:31:52Z</time></trkpt><trkpt lat="45.849013832076146" lon="11.793952000214167"><ele>1347.5</ele><time>2026-05-01T17:31:53Z</time></trkpt><trkpt lat="45.8489002743245" lon="11.793907022408183"><ele>1348.0</ele><time>2026-05-01T17:31:54Z</time></trkpt><trkpt lat="45.84880162771368" lon="11.79382408128603"><ele>1348.0</ele><time>2026-05-01T17:31:55Z</time></trkpt><trkpt lat="45.84870307035362" lon="11.793734699241842"><ele>1348.0</ele><time>2026-05-01T17:31:56Z</time></trkpt><trkpt lat="45.84859933133895" lon="11.793648889241581"><ele>1348.0</ele><time>2026-05-01T17:31:57Z</time></trkpt><trkpt lat="45.848505066885124" lon="11.793535556827607"><ele>1348.0</ele><time>2026-05-01T17:31:58Z</time></trkpt><trkpt lat="45.84842227942166" lon="11.793400567803713"><ele>1348.0</ele><time>2026-05-01T17:31:59Z</time></trkpt><trkpt lat="45.84835528907221" lon="11.793251521297195"><ele>1348.0</ele><time>2026-05-01T17:32:00Z</time></trkpt><trkpt lat="45.84830271226932" lon="11.793089067924072"><ele>1348.0</ele><time>2026-05-01T17:32:01Z</time></trkpt><trkpt lat="45.848265752182385" lon="11.792923328335736"><ele>1348.0</ele><time>2026-05-01T17:32:02Z</time></trkpt><trkpt lat="45.8482447122628" lon="11.792772671618788"><ele>1345.4</ele><time>2026-05-01T17:32:03Z</time></trkpt><trkpt lat="45.84824759997586" lon="11.792629603527327"><ele>1342.8000000000002</ele><time>2026-05-01T17:32:04Z</time></trkpt><trkpt lat="45.84828390603263" lon="11.79249478679581"><ele>1340.2</ele><time>2026-05-01T17:32:05Z</time></trkpt><trkpt lat="45.84833143917248" lon="11.792356924996458"><ele>1337.6</ele><time>2026-05-01T17:32:06Z</time></trkpt><trkpt lat="45.848381036733116" lon="11.792230462823024"><ele>1335.0</ele><time>2026-05-01T17:32:07Z</time></trkpt><trkpt lat="45.84841034415526" lon="11.792113574895604"><ele>1335.0</ele><time>2026-05-01T17:32:08Z</time></trkpt><trkpt lat="45.84844044948923" lon="11.791968639162748"><ele>1335.0</ele><time>2026-05-01T17:32:09Z</time></trkpt><trkpt lat="45.848396038573334" lon="11.791815330301784"><ele>1335.0</ele><time>2026-05-01T17:32:10Z</time></trkpt><trkpt lat="45.84833497402034" lon="11.791677584342578"><ele>1335.0</ele><time>2026-05-01T17:32:11Z</time></trkpt><trkpt lat="45.8482581522976" lon="11.791563832538804"><ele>1335.0</ele><time>2026-05-01T17:32:12Z</time></trkpt><trkpt lat="45.84818138238873" lon="11.791471647018707"><ele>1333.6666666666667</ele><time>2026-05-01T17:32:13Z</time></trkpt><trkpt lat="45.8481146679642" lon="11.791408577780128"><ele>1332.3333333333333</ele><time>2026-05-01T17:32:14Z</time></trkpt><trkpt lat="45.84805456795591" lon="11.791366376967868"><ele>1331.0</ele><time>2026-05-01T17:32:15Z</time></trkpt><trkpt lat="45.84806419706381" lon="11.79124864251876"><ele>1329.6666666666665</ele><time>2026-05-01T17:32:17Z</time></trkpt><trkpt lat="45.848130282380936" lon="11.791260273051774"><ele>1328.3333333333333</ele><time>2026-05-01T17:32:18Z</time></trkpt><trkpt lat="45.84821607704381" lon="11.791332881205555"><ele>1327.0</ele><time>2026-05-01T17:32:19Z</time></trkpt><trkpt lat="45.848302706150406" lon="11.791359662203018"><ele>1327.0</ele><time>2026-05-01T17:32:20Z</time></trkpt><trkpt lat="45.84837817390222" lon="11.7913894081376"><ele>1327.0</ele><time>2026-05-01T17:32:21Z</time></trkpt><trkpt lat="45.84845163442462" lon="11.791326649216758"><ele>1327.0</ele><time>2026-05-01T17:32:22Z</time></trkpt><trkpt lat="45.848520728517386" lon="11.79122057277356"><ele>1327.0</ele><time>2026-05-01T17:32:23Z</time></trkpt><trkpt lat="45.84858267748788" lon="11.791104928747261"><ele>1327.0</ele><time>2026-05-01T17:32:24Z</time></trkpt><trkpt lat="45.84864018645359" lon="11.790942448142387"><ele>1330.0</ele><time>2026-05-01T17:32:25Z</time></trkpt><trkpt lat="45.84865425274251" lon="11.790751130504072"><ele>1333.0</ele><time>2026-05-01T17:32:25.999Z</time></trkpt><trkpt lat="45.84865116558926" lon="11.790576874292798"><ele>1336.0</ele><time>2026-05-01T17:32:26.999Z</time></trkpt><trkpt lat="45.84864669106991" lon="11.790407804620406"><ele>1339.0</ele><time>2026-05-01T17:32:27.999Z</time></trkpt><trkpt lat="45.84863608857471" lon="11.79022960821128"><ele>1339.5</ele><time>2026-05-01T17:32:28.999Z</time></trkpt><trkpt lat="45.84860098422853" lon="11.790070860576117"><ele>1340.0</ele><time>2026-05-01T17:32:29.999Z</time></trkpt><trkpt lat="45.84853918759858" lon="11.789917447386665"><ele>1340.5</ele><time>2026-05-01T17:32:30.999Z</time></trkpt><trkpt lat="45.84846794926915" lon="11.789785490432342"><ele>1341.0</ele><time>2026-05-01T17:32:31.999Z</time></trkpt><trkpt lat="45.84840244156989" lon="11.789630671380232"><ele>1332.25</ele><time>2026-05-01T17:32:32.999Z</time></trkpt><trkpt lat="45.84834601175993" lon="11.78948016264653"><ele>1323.5</ele><time>2026-05-01T17:32:33.999Z</time></trkpt><trkpt lat="45.848295742709624" lon="11.789325174810303"><ele>1314.75</ele><time>2026-05-01T17:32:34.999Z</time></trkpt><trkpt lat="45.84824684081535" lon="11.789128859654086"><ele>1306.0</ele><time>2026-05-01T17:32:35.999Z</time></trkpt><trkpt lat="45.84821096760145" lon="11.788954475421045"><ele>1306.0</ele><time>2026-05-01T17:32:36.999Z</time></trkpt><trkpt lat="45.84817383444093" lon="11.788778599305475"><ele>1306.0</ele><time>2026-05-01T17:32:37.999Z</time></trkpt><trkpt lat="45.84811915581413" lon="11.788604521316998"><ele>1306.0</ele><time>2026-05-01T17:32:38.999Z</time></trkpt><trkpt lat="45.84805550207368" lon="11.78844997401747"><ele>1306.0</ele><time>2026-05-01T17:32:39.999Z</time></trkpt><trkpt lat="45.84798154990235" lon="11.788309273799834"><ele>1307.0</ele><time>2026-05-01T17:32:40.999Z</time></trkpt><trkpt lat="45.84785167793375" lon="11.788199578611044"><ele>1308.0</ele><time>2026-05-01T17:32:41.999Z</time></trkpt><trkpt lat="45.847734380974586" lon="11.788132993717854"><ele>1309.0</ele><time>2026-05-01T17:32:42.999Z</time></trkpt><trkpt lat="45.84762265880985" lon="11.788029350792831"><ele>1310.0</ele><time>2026-05-01T17:32:43.999Z</time></trkpt><trkpt lat="45.84750118632431" lon="11.787953121975024"><ele>1305.75</ele><time>2026-05-01T17:32:44.999Z</time></trkpt><trkpt lat="45.847383376401844" lon="11.787869474986563"><ele>1301.5</ele><time>2026-05-01T17:32:45.999Z</time></trkpt><trkpt lat="45.84727607667223" lon="11.787760508911317"><ele>1297.25</ele><time>2026-05-01T17:32:46.999Z</time></trkpt><trkpt lat="45.84716465611791" lon="11.787689245492006"><ele>1293.0</ele><time>2026-05-01T17:32:47.999Z</time></trkpt><trkpt lat="45.84706450117484" lon="11.787592951901518"><ele>1293.0</ele><time>2026-05-01T17:32:48.999Z</time></trkpt><trkpt lat="45.84698082082392" lon="11.7874717273782"><ele>1293.0</ele><time>2026-05-01T17:32:49.999Z</time></trkpt><trkpt lat="45.846926900400106" lon="11.787316946145726"><ele>1293.0</ele><time>2026-05-01T17:32:50.999Z</time></trkpt><trkpt lat="45.84686358622192" lon="11.78715842574111"><ele>1293.0</ele><time>2026-05-01T17:32:51.999Z</time></trkpt><trkpt lat="45.84678564626409" lon="11.78699106137191"><ele>1287.25</ele><time>2026-05-01T17:32:52.999Z</time></trkpt><trkpt lat="45.84673178227045" lon="11.78682249039"><ele>1281.5</ele><time>2026-05-01T17:32:53.999Z</time></trkpt><trkpt lat="45.846683712583264" lon="11.786620070957932"><ele>1275.75</ele><time>2026-05-01T17:32:54.999Z</time></trkpt><trkpt lat="45.84663702367183" lon="11.786422502447218"><ele>1270.0</ele><time>2026-05-01T17:32:55.999Z</time></trkpt><trkpt lat="45.84657408331833" lon="11.786242959612284"><ele>1270.0</ele><time>2026-05-01T17:32:56.999Z</time></trkpt><trkpt lat="45.846470522004026" lon="11.786099321153285"><ele>1270.0</ele><time>2026-05-01T17:32:57.999Z</time></trkpt><trkpt lat="45.846389982469255" lon="11.785988189559356"><ele>1270.0</ele><time>2026-05-01T17:32:58.999Z</time></trkpt><trkpt lat="45.84626422897742" lon="11.78586955269031"><ele>1270.0</ele><time>2026-05-01T17:32:59.999Z</time></trkpt><trkpt lat="45.846137696949334" lon="11.785746413747475"><ele>1273.0</ele><time>2026-05-01T17:33:00.999Z</time></trkpt><trkpt lat="45.84600324078501" lon="11.785638011553141"><ele>1276.0</ele><time>2026-05-01T17:33:01.999Z</time></trkpt><trkpt lat="45.845868031823045" lon="11.78553328510674"><ele>1279.0</ele><time>2026-05-01T17:33:02.999Z</time></trkpt><trkpt lat="45.84573974039744" lon="11.78542659126164"><ele>1274.5</ele><time>2026-05-01T17:33:03.999Z</time></trkpt><trkpt lat="45.84561454074867" lon="11.78532400201003"><ele>1270.0</ele><time>2026-05-01T17:33:04.999Z</time></trkpt><trkpt lat="45.84550701874183" lon="11.785181830744321"><ele>1265.5</ele><time>2026-05-01T17:33:05.999Z</time></trkpt><trkpt lat="45.845412111365555" lon="11.78501447574955"><ele>1261.0</ele><time>2026-05-01T17:33:06.999Z</time></trkpt><trkpt lat="45.84532313131951" lon="11.784823319517807"><ele>1261.0</ele><time>2026-05-01T17:33:07.999Z</time></trkpt><trkpt lat="45.84524378537213" lon="11.784642610825532"><ele>1261.0</ele><time>2026-05-01T17:33:08.999Z</time></trkpt><trkpt lat="45.84516337704424" lon="11.784460591785715"><ele>1261.0</ele><time>2026-05-01T17:33:09.999Z</time></trkpt><trkpt lat="45.84508690468855" lon="11.784303956792913"><ele>1261.0</ele><time>2026-05-01T17:33:10.999Z</time></trkpt><trkpt lat="45.84503362545472" lon="11.784126393772995"><ele>1254.5</ele><time>2026-05-01T17:33:11.999Z</time></trkpt><trkpt lat="45.84494107185662" lon="11.784018082200928"><ele>1248.0</ele><time>2026-05-01T17:33:12.999Z</time></trkpt><trkpt lat="45.844838396560576" lon="11.783950164696982"><ele>1241.5</ele><time>2026-05-01T17:33:13.999Z</time></trkpt><trkpt lat="45.844716272645925" lon="11.783916761802883"><ele>1235.0</ele><time>2026-05-01T17:33:14.999Z</time></trkpt><trkpt lat="45.84459395785383" lon="11.783867527804345"><ele>1235.0</ele><time>2026-05-01T17:33:15.999Z</time></trkpt><trkpt lat="45.84447243407461" lon="11.783804850644412"><ele>1235.0</ele><time>2026-05-01T17:33:16.999Z</time></trkpt><trkpt lat="45.844345815321695" lon="11.783752586559451"><ele>1235.0</ele><time>2026-05-01T17:33:17.999Z</time></trkpt><trkpt lat="45.84420747017953" lon="11.783681131177852"><ele>1235.0</ele><time>2026-05-01T17:33:18.999Z</time></trkpt><trkpt lat="45.84406757460501" lon="11.78362234630649"><ele>1235.5</ele><time>2026-05-01T17:33:19.999Z</time></trkpt><trkpt lat="45.84393693363979" lon="11.783570617778624"><ele>1236.0</ele><time>2026-05-01T17:33:20.999Z</time></trkpt><trkpt lat="45.84382658912073" lon="11.783459325258919"><ele>1236.5</ele><time>2026-05-01T17:33:21.999Z</time></trkpt><trkpt lat="45.84370345897472" lon="11.783355270571333"><ele>1237.0</ele><time>2026-05-01T17:33:22.999Z</time></trkpt><trkpt lat="45.843575336744294" lon="11.783244332132497"><ele>1233.25</ele><time>2026-05-01T17:33:23.999Z</time></trkpt><trkpt lat="45.8434551006992" lon="11.783140025955122"><ele>1229.5</ele><time>2026-05-01T17:33:24.999Z</time></trkpt><trkpt lat="45.8433416993022" lon="11.783040428235779"><ele>1225.75</ele><time>2026-05-01T17:33:25.999Z</time></trkpt><trkpt lat="45.843230938586125" lon="11.782941601988266"><ele>1222.0</ele><time>2026-05-01T17:33:26.999Z</time></trkpt><trkpt lat="45.843137854415694" lon="11.782854929879823"><ele>1222.0</ele><time>2026-05-01T17:33:27.999Z</time></trkpt><trkpt lat="45.843055792421744" lon="11.782779530005229"><ele>1222.0</ele><time>2026-05-01T17:33:28.999Z</time></trkpt><trkpt lat="45.842961038579794" lon="11.78271670471505"><ele>1222.0</ele><time>2026-05-01T17:33:29.999Z</time></trkpt><trkpt lat="45.84283250902914" lon="11.78271655470675"><ele>1222.0</ele><time>2026-05-01T17:33:30.999Z</time></trkpt><trkpt lat="45.842708535195406" lon="11.782819618710237"><ele>1217.0</ele><time>2026-05-01T17:33:31.999Z</time></trkpt><trkpt lat="45.842623123163264" lon="11.782932650116944"><ele>1212.0</ele><time>2026-05-01T17:33:32.998Z</time></trkpt><trkpt lat="45.84251524317565" lon="11.783036669227874"><ele>1207.0</ele><time>2026-05-01T17:33:33.998Z</time></trkpt><trkpt lat="45.84240536282728" lon="11.783125616160765"><ele>1202.0</ele><time>2026-05-01T17:33:34.998Z</time></trkpt><trkpt lat="45.842314397469934" lon="11.783189362987304"><ele>1202.0</ele><time>2026-05-01T17:33:35.998Z</time></trkpt><trkpt lat="45.84224237005285" lon="11.783243608811427"><ele>1202.0</ele><time>2026-05-01T17:33:36.998Z</time></trkpt><trkpt lat="45.8421578968982" lon="11.783218148874356"><ele>1202.0</ele><time>2026-05-01T17:33:37.998Z</time></trkpt><trkpt lat="45.8420641226028" lon="11.783125410386884"><ele>1202.0</ele><time>2026-05-01T17:33:38.998Z</time></trkpt><trkpt lat="45.84196794735266" lon="11.783023507589306"><ele>1202.0</ele><time>2026-05-01T17:33:39.998Z</time></trkpt><trkpt lat="45.841877309699214" lon="11.78292860813332"><ele>1202.0</ele><time>2026-05-01T17:33:40.998Z</time></trkpt><trkpt lat="45.84181790301965" lon="11.782793470507393"><ele>1202.0</ele><time>2026-05-01T17:33:41.998Z</time></trkpt><trkpt lat="45.841775353726455" lon="11.782620495126109"><ele>1202.0</ele><time>2026-05-01T17:33:42.998Z</time></trkpt><trkpt lat="45.84175151147399" lon="11.782425483995674"><ele>1202.0</ele><time>2026-05-01T17:33:43.998Z</time></trkpt><trkpt lat="45.841706907271835" lon="11.782259448490139"><ele>1199.25</ele><time>2026-05-01T17:33:45Z</time></trkpt><trkpt lat="45.84167803818262" lon="11.782085679090263"><ele>1196.5</ele><time>2026-05-01T17:33:46Z</time></trkpt><trkpt lat="45.84165757004267" lon="11.781909293100181"><ele>1193.75</ele><time>2026-05-01T17:33:47Z</time></trkpt><trkpt lat="45.841622517156814" lon="11.78173669249334"><ele>1191.0</ele><time>2026-05-01T17:33:48Z</time></trkpt><trkpt lat="45.841576816291735" lon="11.781550805524732"><ele>1190.75</ele><time>2026-05-01T17:33:49Z</time></trkpt><trkpt lat="45.84153613152908" lon="11.781327758876378"><ele>1190.5</ele><time>2026-05-01T17:33:50Z</time></trkpt><trkpt lat="45.841482018174396" lon="11.781182304808407"><ele>1190.25</ele><time>2026-05-01T17:33:51Z</time></trkpt><trkpt lat="45.84144569735454" lon="11.781044953828138"><ele>1190.0</ele><time>2026-05-01T17:33:52Z</time></trkpt><trkpt lat="45.84137132226466" lon="11.7809363297762"><ele>1190.0</ele><time>2026-05-01T17:33:53Z</time></trkpt><trkpt lat="45.84127817955763" lon="11.7808570408058"><ele>1190.0</ele><time>2026-05-01T17:33:54Z</time></trkpt><trkpt lat="45.84115721761536" lon="11.780819115691708"><ele>1190.0</ele><time>2026-05-01T17:33:55Z</time></trkpt><trkpt lat="45.84102486848697" lon="11.780834490823187"><ele>1190.0</ele><time>2026-05-01T17:33:56Z</time></trkpt><trkpt lat="45.84090103076509" lon="11.78086555866354"><ele>1185.75</ele><time>2026-05-01T17:33:57Z</time></trkpt><trkpt lat="45.84079746083699" lon="11.78088743086752"><ele>1181.5</ele><time>2026-05-01T17:33:58Z</time></trkpt><trkpt lat="45.84067795012673" lon="11.780864173280534"><ele>1177.25</ele><time>2026-05-01T17:33:59Z</time></trkpt><trkpt lat="45.840558866833476" lon="11.78079931432101"><ele>1173.0</ele><time>2026-05-01T17:34:00Z</time></trkpt><trkpt lat="45.84044346613573" lon="11.780710316574673"><ele>1173.0</ele><time>2026-05-01T17:34:01Z</time></trkpt><trkpt lat="45.840329160122785" lon="11.780599971730501"><ele>1173.0</ele><time>2026-05-01T17:34:02Z</time></trkpt><trkpt lat="45.84020519588806" lon="11.78050395475733"><ele>1173.0</ele><time>2026-05-01T17:34:03Z</time></trkpt><trkpt lat="45.840074702838216" lon="11.780419709503944"><ele>1173.0</ele><time>2026-05-01T17:34:04Z</time></trkpt><trkpt lat="45.83995352960087" lon="11.78033069811854"><ele>1171.0</ele><time>2026-05-01T17:34:05Z</time></trkpt><trkpt lat="45.83982597075885" lon="11.780240839721717"><ele>1169.0</ele><time>2026-05-01T17:34:06Z</time></trkpt><trkpt lat="45.83970178321352" lon="11.780134427133625"><ele>1167.0</ele><time>2026-05-01T17:34:07Z</time></trkpt><trkpt lat="45.839604869587994" lon="11.780019038261356"><ele>1165.0</ele><time>2026-05-01T17:34:08Z</time></trkpt><trkpt lat="45.83952099414202" lon="11.779894750562931"><ele>1165.0</ele><time>2026-05-01T17:34:09Z</time></trkpt><trkpt lat="45.83945959480051" lon="11.779732017112966"><ele>1165.0</ele><time>2026-05-01T17:34:10Z</time></trkpt><trkpt lat="45.83941162693385" lon="11.779554446832952"><ele>1165.0</ele><time>2026-05-01T17:34:11Z</time></trkpt><trkpt lat="45.83932898718617" lon="11.779401148772504"><ele>1165.0</ele><time>2026-05-01T17:34:12Z</time></trkpt><trkpt lat="45.839229698564424" lon="11.779269068378794"><ele>1158.0</ele><time>2026-05-01T17:34:13Z</time></trkpt><trkpt lat="45.83913723055945" lon="11.779150913236746"><ele>1151.0</ele><time>2026-05-01T17:34:14Z</time></trkpt><trkpt lat="45.83904088764209" lon="11.779049190766663"><ele>1144.0</ele><time>2026-05-01T17:34:15Z</time></trkpt><trkpt lat="45.838972750021036" lon="11.778931281125201"><ele>1137.0</ele><time>2026-05-01T17:34:16Z</time></trkpt><trkpt lat="45.83892949667588" lon="11.778800886754752"><ele>1137.0</ele><time>2026-05-01T17:34:17Z</time></trkpt><trkpt lat="45.83891059869611" lon="11.77867454910985"><ele>1137.0</ele><time>2026-05-01T17:34:18Z</time></trkpt><trkpt lat="45.838926475460624" lon="11.778540381309565"><ele>1137.0</ele><time>2026-05-01T17:34:19Z</time></trkpt><trkpt lat="45.83897671027318" lon="11.77838604705592"><ele>1137.0</ele><time>2026-05-01T17:34:20Z</time></trkpt><trkpt lat="45.83903677700073" lon="11.778218802062868"><ele>1137.0</ele><time>2026-05-01T17:34:21Z</time></trkpt><trkpt lat="45.839099597003745" lon="11.778026902495286"><ele>1136.5</ele><time>2026-05-01T17:34:22Z</time></trkpt><trkpt lat="45.83912186250115" lon="11.777842726890551"><ele>1136.0</ele><time>2026-05-01T17:34:23Z</time></trkpt><trkpt lat="45.839147693507435" lon="11.777668599626256"><ele>1135.5</ele><time>2026-05-01T17:34:24Z</time></trkpt><trkpt lat="45.8391633212186" lon="11.777482955262162"><ele>1135.0</ele><time>2026-05-01T17:34:25Z</time></trkpt><trkpt lat="45.83916658877295" lon="11.777295547680282"><ele>1132.25</ele><time>2026-05-01T17:34:26Z</time></trkpt><trkpt lat="45.83915664799296" lon="11.777101758157114"><ele>1129.5</ele><time>2026-05-01T17:34:27Z</time></trkpt><trkpt lat="45.83915261687" lon="11.776922421697709"><ele>1126.75</ele><time>2026-05-01T17:34:28Z</time></trkpt><trkpt lat="45.83916418182722" lon="11.776746013516833"><ele>1124.0</ele><time>2026-05-01T17:34:29Z</time></trkpt><trkpt lat="45.83918536368827" lon="11.776555342424507"><ele>1120.5</ele><time>2026-05-01T17:34:30Z</time></trkpt><trkpt lat="45.83919310282683" lon="11.776372491644995"><ele>1117.0</ele><time>2026-05-01T17:34:31Z</time></trkpt><trkpt lat="45.83919637338446" lon="11.776197619819563"><ele>1113.5</ele><time>2026-05-01T17:34:31.999Z</time></trkpt><trkpt lat="45.83920036040197" lon="11.776025763381167"><ele>1110.0</ele><time>2026-05-01T17:34:32.999Z</time></trkpt><trkpt lat="45.83920877365025" lon="11.775874234973012"><ele>1108.0</ele><time>2026-05-01T17:34:33.999Z</time></trkpt><trkpt lat="45.83922960289497" lon="11.775746270960882"><ele>1106.0</ele><time>2026-05-01T17:34:34.999Z</time></trkpt><trkpt lat="45.839273497447294" lon="11.775629953617864"><ele>1104.0</ele><time>2026-05-01T17:34:35.999Z</time></trkpt><trkpt lat="45.83932408517496" lon="11.7755505610559"><ele>1102.0</ele><time>2026-05-01T17:34:36.999Z</time></trkpt><trkpt lat="45.83934494982895" lon="11.775399749485668"><ele>1100.0</ele><time>2026-05-01T17:34:38.999Z</time></trkpt><trkpt lat="45.839232366416375" lon="11.775331108222861"><ele>1100.0</ele><time>2026-05-01T17:34:40.999Z</time></trkpt><trkpt lat="45.83918204922704" lon="11.775461619501034"><ele>1100.0</ele><time>2026-05-01T17:34:41.999Z</time></trkpt><trkpt lat="45.83914164404212" lon="11.775575035467739"><ele>1100.0</ele><time>2026-05-01T17:34:42.999Z</time></trkpt><trkpt lat="45.8391057594462" lon="11.775686632158521"><ele>1100.0</ele><time>2026-05-01T17:34:43.999Z</time></trkpt><trkpt lat="45.83906999649615" lon="11.775817808735265"><ele>1100.0</ele><time>2026-05-01T17:34:44.999Z</time></trkpt><trkpt lat="45.83903984607879" lon="11.775969027024516"><ele>1102.0</ele><time>2026-05-01T17:34:45.999Z</time></trkpt><trkpt lat="45.83901483313036" lon="11.776119321776573"><ele>1104.0</ele><time>2026-05-01T17:34:46.999Z</time></trkpt><trkpt lat="45.838986815342814" lon="11.776253592074482"><ele>1106.0</ele><time>2026-05-01T17:34:47.999Z</time></trkpt><trkpt lat="45.83894081915404" lon="11.776415171668981"><ele>1108.0</ele><time>2026-05-01T17:34:48.999Z</time></trkpt><trkpt lat="45.838894496122876" lon="11.776569495505868"><ele>1110.0</ele><time>2026-05-01T17:34:49.999Z</time></trkpt><trkpt lat="45.838849855954244" lon="11.776718212544827"><ele>1113.5</ele><time>2026-05-01T17:34:50.999Z</time></trkpt><trkpt lat="45.83877727701535" lon="11.77696930412955"><ele>1117.0</ele><time>2026-05-01T17:34:51.999Z</time></trkpt><trkpt lat="45.838727276792234" lon="11.777136072289048"><ele>1120.5</ele><time>2026-05-01T17:34:52.999Z</time></trkpt><trkpt lat="45.83864998835758" lon="11.77727657575242"><ele>1124.0</ele><time>2026-05-01T17:34:53.999Z</time></trkpt><trkpt lat="45.83855185315347" lon="11.777402863471435"><ele>1124.0</ele><time>2026-05-01T17:34:54.999Z</time></trkpt><trkpt lat="45.83847190665927" lon="11.777569532489618"><ele>1124.0</ele><time>2026-05-01T17:34:55.999Z</time></trkpt><trkpt lat="45.838374135479896" lon="11.777712285038728"><ele>1124.0</ele><time>2026-05-01T17:34:56.999Z</time></trkpt><trkpt lat="45.83828759641589" lon="11.777861663704057"><ele>1124.0</ele><time>2026-05-01T17:34:57.999Z</time></trkpt><trkpt lat="45.83820223125489" lon="11.778008261278002"><ele>1115.75</ele><time>2026-05-01T17:34:58.999Z</time></trkpt><trkpt lat="45.83810669123008" lon="11.778142011535556"><ele>1107.5</ele><time>2026-05-01T17:34:59.999Z</time></trkpt><trkpt lat="45.838016722007296" lon="11.778269787428115"><ele>1099.25</ele><time>2026-05-01T17:35:00.999Z</time></trkpt><trkpt lat="45.83795341828843" lon="11.778408840763403"><ele>1091.0</ele><time>2026-05-01T17:35:01.999Z</time></trkpt><trkpt lat="45.83789561980455" lon="11.778545339407248"><ele>1091.0</ele><time>2026-05-01T17:35:02.999Z</time></trkpt><trkpt lat="45.8378643390781" lon="11.778668410716353"><ele>1091.0</ele><time>2026-05-01T17:35:03.999Z</time></trkpt><trkpt lat="45.837852401436976" lon="11.778837339371757"><ele>1091.0</ele><time>2026-05-01T17:35:04.999Z</time></trkpt><trkpt lat="45.83794401865999" lon="11.779081412524269"><ele>1091.0</ele><time>2026-05-01T17:35:05.999Z</time></trkpt><trkpt lat="45.83798006186639" lon="11.779269856227835"><ele>1090.75</ele><time>2026-05-01T17:35:06.999Z</time></trkpt><trkpt lat="45.837967355482796" lon="11.779433957181384"><ele>1090.5</ele><time>2026-05-01T17:35:07.999Z</time></trkpt><trkpt lat="45.837928091213406" lon="11.779606642459019"><ele>1090.25</ele><time>2026-05-01T17:35:08.999Z</time></trkpt><trkpt lat="45.83785738889986" lon="11.77976952851636"><ele>1090.0</ele><time>2026-05-01T17:35:09.999Z</time></trkpt><trkpt lat="45.83777023825922" lon="11.77996250905878"><ele>1090.0</ele><time>2026-05-01T17:35:10.999Z</time></trkpt><trkpt lat="45.8376542726174" lon="11.780119047315047"><ele>1090.0</ele><time>2026-05-01T17:35:11.999Z</time></trkpt><trkpt lat="45.8375311539643" lon="11.780269316037655"><ele>1090.0</ele><time>2026-05-01T17:35:12.999Z</time></trkpt><trkpt lat="45.83738720012381" lon="11.780406502438156"><ele>1082.3333333333333</ele><time>2026-05-01T17:35:13.999Z</time></trkpt><trkpt lat="45.83723903391634" lon="11.780531489302966"><ele>1074.6666666666667</ele><time>2026-05-01T17:35:14.999Z</time></trkpt><trkpt lat="45.83708886710719" lon="11.780648464452346"><ele>1067.0</ele><time>2026-05-01T17:35:15.999Z</time></trkpt><trkpt lat="45.83694306175826" lon="11.7807811667707"><ele>1067.0</ele><time>2026-05-01T17:35:16.999Z</time></trkpt><trkpt lat="45.83680489352946" lon="11.780928371296419"><ele>1067.0</ele><time>2026-05-01T17:35:17.999Z</time></trkpt><trkpt lat="45.836662509343974" lon="11.781090196485222"><ele>1067.0</ele><time>2026-05-01T17:35:18.999Z</time></trkpt><trkpt lat="45.83653003232441" lon="11.78125151183636"><ele>1063.3333333333335</ele><time>2026-05-01T17:35:19.999Z</time></trkpt><trkpt lat="45.836376542168765" lon="11.781412919663907"><ele>1059.6666666666667</ele><time>2026-05-01T17:35:20.999Z</time></trkpt><trkpt lat="45.8362195210229" lon="11.781558898231577"><ele>1056.0</ele><time>2026-05-01T17:35:21.999Z</time></trkpt><trkpt lat="45.83605924274089" lon="11.781695799723847"><ele>1052.3333333333333</ele><time>2026-05-01T17:35:22.999Z</time></trkpt><trkpt lat="45.835886692328664" lon="11.78183893620516"><ele>1048.6666666666665</ele><time>2026-05-01T17:35:23.999Z</time></trkpt><trkpt lat="45.835716425423136" lon="11.781976473063848"><ele>1045.0</ele><time>2026-05-01T17:35:24.999Z</time></trkpt><trkpt lat="45.8355429479319" lon="11.782122806218029"><ele>1045.0</ele><time>2026-05-01T17:35:25.999Z</time></trkpt><trkpt lat="45.83536404301803" lon="11.78227839958763"><ele>1045.0</ele><time>2026-05-01T17:35:26.999Z</time></trkpt><trkpt lat="45.83519041217944" lon="11.78243057109757"><ele>1045.0</ele><time>2026-05-01T17:35:27.999Z</time></trkpt><trkpt lat="45.835016181071566" lon="11.782573338508866"><ele>1045.0</ele><time>2026-05-01T17:35:28.999Z</time></trkpt><trkpt lat="45.83484602037989" lon="11.782716783935035"><ele>1045.0</ele><time>2026-05-01T17:35:29.999Z</time></trkpt><trkpt lat="45.834678912983954" lon="11.78284864747469"><ele>1045.0</ele><time>2026-05-01T17:35:30.999Z</time></trkpt><trkpt lat="45.83452405333443" lon="11.782981337536246"><ele>1045.0</ele><time>2026-05-01T17:35:31.999Z</time></trkpt><trkpt lat="45.83438147654989" lon="11.783106354743627"><ele>1045.0</ele><time>2026-05-01T17:35:32.999Z</time></trkpt><trkpt lat="45.83425179141651" lon="11.783197493681815"><ele>1045.0</ele><time>2026-05-01T17:35:33.999Z</time></trkpt><trkpt lat="45.83412045403475" lon="11.78323703720304"><ele>1045.0</ele><time>2026-05-01T17:35:34.999Z</time></trkpt><trkpt lat="45.83399371718577" lon="11.78321164501237"><ele>1045.25</ele><time>2026-05-01T17:35:35.999Z</time></trkpt><trkpt lat="45.833858644609776" lon="11.78313524316752"><ele>1045.5</ele><time>2026-05-01T17:35:36.999Z</time></trkpt><trkpt lat="45.83373198491657" lon="11.783021743619734"><ele>1045.75</ele><time>2026-05-01T17:35:37.998Z</time></trkpt><trkpt lat="45.83361737114107" lon="11.782888283465825"><ele>1046.0</ele><time>2026-05-01T17:35:38.998Z</time></trkpt><trkpt lat="45.83350235331985" lon="11.78275516474551"><ele>1045.6666666666667</ele><time>2026-05-01T17:35:39.998Z</time></trkpt><trkpt lat="45.833381280112754" lon="11.782633788896499"><ele>1045.3333333333333</ele><time>2026-05-01T17:35:40.998Z</time></trkpt><trkpt lat="45.83326374079377" lon="11.7824881369741"><ele>1045.0</ele><time>2026-05-01T17:35:41.998Z</time></trkpt><trkpt lat="45.833160430509594" lon="11.782325898298991"><ele>1045.0</ele><time>2026-05-01T17:35:42.998Z</time></trkpt><trkpt lat="45.83306399040913" lon="11.782159880951468"><ele>1045.0</ele><time>2026-05-01T17:35:43.998Z</time></trkpt><trkpt lat="45.83296366085834" lon="11.781992582721813"><ele>1045.0</ele><time>2026-05-01T17:35:44.998Z</time></trkpt><trkpt lat="45.83286228056978" lon="11.781836381040595"><ele>1043.3333333333333</ele><time>2026-05-01T17:35:45.998Z</time></trkpt><trkpt lat="45.832731964751865" lon="11.781710917721375"><ele>1041.6666666666667</ele><time>2026-05-01T17:35:46.998Z</time></trkpt><trkpt lat="45.832546933063036" lon="11.781590940244888"><ele>1040.0</ele><time>2026-05-01T17:35:47.998Z</time></trkpt><trkpt lat="45.8324566905393" lon="11.781374924715923"><ele>1040.0</ele><time>2026-05-01T17:35:48.998Z</time></trkpt><trkpt lat="45.83233796155357" lon="11.78129081908881"><ele>1040.0</ele><time>2026-05-01T17:35:49.998Z</time></trkpt><trkpt lat="45.83222368472344" lon="11.78121283246372"><ele>1040.0</ele><time>2026-05-01T17:35:51Z</time></trkpt><trkpt lat="45.83213848218204" lon="11.781149104267326"><ele>1040.0</ele><time>2026-05-01T17:35:52Z</time></trkpt><trkpt lat="45.83208035684255" lon="11.781091080456102"><ele>1040.0</ele><time>2026-05-01T17:35:53Z</time></trkpt><trkpt lat="45.83206488010742" lon="11.780887033480472"><ele>1043.75</ele><time>2026-05-01T17:35:56Z</time></trkpt><trkpt lat="45.83214793925098" lon="11.780765467579862"><ele>1047.5</ele><time>2026-05-01T17:35:57Z</time></trkpt><trkpt lat="45.83223127900361" lon="11.780629152798069"><ele>1051.25</ele><time>2026-05-01T17:35:58Z</time></trkpt><trkpt lat="45.83232896629848" lon="11.780510466670208"><ele>1055.0</ele><time>2026-05-01T17:35:59Z</time></trkpt><trkpt lat="45.83243559388627" lon="11.78043839666354"><ele>1055.0</ele><time>2026-05-01T17:36:00Z</time></trkpt><trkpt lat="45.83251789313047" lon="11.780360808216084"><ele>1055.0</ele><time>2026-05-01T17:36:01Z</time></trkpt><trkpt lat="45.832584807287056" lon="11.780230053437245"><ele>1055.0</ele><time>2026-05-01T17:36:02Z</time></trkpt><trkpt lat="45.83264964783797" lon="11.78006375331448"><ele>1055.0</ele><time>2026-05-01T17:36:03Z</time></trkpt><trkpt lat="45.832667434515336" lon="11.779896664229907"><ele>1050.6</ele><time>2026-05-01T17:36:04Z</time></trkpt><trkpt lat="45.83268122500517" lon="11.779754594680009"><ele>1046.2</ele><time>2026-05-01T17:36:05Z</time></trkpt><trkpt lat="45.8326319261424" lon="11.779641853914718"><ele>1041.8</ele><time>2026-05-01T17:36:06Z</time></trkpt><trkpt lat="45.83255943068944" lon="11.779513804407015"><ele>1037.4</ele><time>2026-05-01T17:36:07Z</time></trkpt><trkpt lat="45.83250315183855" lon="11.779397393594756"><ele>1033.0</ele><time>2026-05-01T17:36:08Z</time></trkpt><trkpt lat="45.83246243876985" lon="11.779290559220131"><ele>1030.4</ele><time>2026-05-01T17:36:09Z</time></trkpt><trkpt lat="45.83245156085414" lon="11.779164347071116"><ele>1027.8</ele><time>2026-05-01T17:36:10Z</time></trkpt><trkpt lat="45.832488333942855" lon="11.77907022597114"><ele>1025.2</ele><time>2026-05-01T17:36:11Z</time></trkpt><trkpt lat="45.83257062230559" lon="11.778994791525033"><ele>1022.6</ele><time>2026-05-01T17:36:12Z</time></trkpt><trkpt lat="45.83265338063021" lon="11.778903888598645"><ele>1020.0</ele><time>2026-05-01T17:36:13Z</time></trkpt><trkpt lat="45.83271884580392" lon="11.778774717316368"><ele>1028.4</ele><time>2026-05-01T17:36:14Z</time></trkpt><trkpt lat="45.8327550121474" lon="11.778628649148995"><ele>1036.8</ele><time>2026-05-01T17:36:15Z</time></trkpt><trkpt lat="45.83282786799206" lon="11.778526429521076"><ele>1045.2</ele><time>2026-05-01T17:36:16Z</time></trkpt><trkpt lat="45.832926717157314" lon="11.778447914338306"><ele>1053.6</ele><time>2026-05-01T17:36:17Z</time></trkpt><trkpt lat="45.83301642172996" lon="11.778353257405008"><ele>1062.0</ele><time>2026-05-01T17:36:18Z</time></trkpt><trkpt lat="45.83307791284622" lon="11.778244682047704"><ele>1062.0</ele><time>2026-05-01T17:36:19Z</time></trkpt><trkpt lat="45.833053519838046" lon="11.77811470382532"><ele>1062.0</ele><time>2026-05-01T17:36:20Z</time></trkpt><trkpt lat="45.83302796795177" lon="11.777806180299512"><ele>1062.0</ele><time>2026-05-01T17:36:21Z</time></trkpt><trkpt lat="45.832989089792854" lon="11.777613038519219"><ele>1060.4</ele><time>2026-05-01T17:36:22Z</time></trkpt><trkpt lat="45.83298976106495" lon="11.777465904752459"><ele>1058.8000000000002</ele><time>2026-05-01T17:36:23Z</time></trkpt><trkpt lat="45.83298036244759" lon="11.777296422402774"><ele>1057.2</ele><time>2026-05-01T17:36:24Z</time></trkpt><trkpt lat="45.83298363565531" lon="11.777127172266567"><ele>1055.6000000000001</ele><time>2026-05-01T17:36:25Z</time></trkpt><trkpt lat="45.83294774683734" lon="11.77700013547058"><ele>1054.0</ele><time>2026-05-01T17:36:26Z</time></trkpt><trkpt lat="45.83289015282909" lon="11.776837439071938"><ele>1058.25</ele><time>2026-05-01T17:36:27Z</time></trkpt><trkpt lat="45.83280872856723" lon="11.77670597892757"><ele>1062.5</ele><time>2026-05-01T17:36:28Z</time></trkpt><trkpt lat="45.8327110349795" lon="11.77659581176728"><ele>1066.75</ele><time>2026-05-01T17:36:29Z</time></trkpt><trkpt lat="45.83262330089558" lon="11.776506300358605"><ele>1071.0</ele><time>2026-05-01T17:36:30Z</time></trkpt><trkpt lat="45.832493419597235" lon="11.776524899903723"><ele>1064.6</ele><time>2026-05-01T17:36:31Z</time></trkpt><trkpt lat="45.83241573864581" lon="11.776418452642359"><ele>1058.1999999999998</ele><time>2026-05-01T17:36:32Z</time></trkpt><trkpt lat="45.83237244773827" lon="11.776300438863855"><ele>1051.8000000000002</ele><time>2026-05-01T17:36:33Z</time></trkpt><trkpt lat="45.83229442621271" lon="11.77620533290435"><ele>1045.4</ele><time>2026-05-01T17:36:34Z</time></trkpt><trkpt lat="45.8322963136927" lon="11.776097977971538"><ele>1039.0</ele><time>2026-05-01T17:36:35Z</time></trkpt><trkpt lat="45.832288348761125" lon="11.775969862750278"><ele>1039.0</ele><time>2026-05-01T17:36:36Z</time></trkpt><trkpt lat="45.83232079205173" lon="11.77584944625009"><ele>1039.0</ele><time>2026-05-01T17:36:36.999Z</time></trkpt><trkpt lat="45.832330708058635" lon="11.775664935204746"><ele>1039.0</ele><time>2026-05-01T17:36:37.999Z</time></trkpt><trkpt lat="45.832246124723795" lon="11.775440146873578"><ele>1039.0</ele><time>2026-05-01T17:36:39.999Z</time></trkpt><trkpt lat="45.832169462159534" lon="11.77529460753583"><ele>1046.0</ele><time>2026-05-01T17:36:40.999Z</time></trkpt><trkpt lat="45.83210830863576" lon="11.775153009391474"><ele>1053.0</ele><time>2026-05-01T17:36:41.999Z</time></trkpt><trkpt lat="45.832059007669415" lon="11.774994293174258"><ele>1060.0</ele><time>2026-05-01T17:36:42.999Z</time></trkpt><trkpt lat="45.83194699234434" lon="11.77486556987861"><ele>1067.0</ele><time>2026-05-01T17:36:43.999Z</time></trkpt><trkpt lat="45.831892926521" lon="11.774716124686538"><ele>1067.0</ele><time>2026-05-01T17:36:44.999Z</time></trkpt><trkpt lat="45.831832229646" lon="11.774573578682407"><ele>1067.0</ele><time>2026-05-01T17:36:45.999Z</time></trkpt><trkpt lat="45.831772852495156" lon="11.774426187023698"><ele>1067.0</ele><time>2026-05-01T17:36:46.999Z</time></trkpt><trkpt lat="45.831741217940326" lon="11.774242933557323"><ele>1067.0</ele><time>2026-05-01T17:36:47.999Z</time></trkpt><trkpt lat="45.83184165694068" lon="11.774124262870467"><ele>1055.2</ele><time>2026-05-01T17:36:48.999Z</time></trkpt><trkpt lat="45.83168904026613" lon="11.774037562090266"><ele>1043.4</ele><time>2026-05-01T17:36:49.999Z</time></trkpt><trkpt lat="45.83157152137579" lon="11.773998077672667"><ele>1031.6</ele><time>2026-05-01T17:36:50.999Z</time></trkpt><trkpt lat="45.83150250437364" lon="11.773930237475811"><ele>1019.8</ele><time>2026-05-01T17:36:51.999Z</time></trkpt><trkpt lat="45.83149164779245" lon="11.773831275471316"><ele>1008.0</ele><time>2026-05-01T17:36:52.999Z</time></trkpt><trkpt lat="45.831494196518435" lon="11.773710096764066"><ele>1008.0</ele><time>2026-05-01T17:36:53.999Z</time></trkpt><trkpt lat="45.831521193495135" lon="11.773558250164623"><ele>1008.0</ele><time>2026-05-01T17:36:55.999Z</time></trkpt><trkpt lat="45.8316329718217" lon="11.773469102408518"><ele>1008.0</ele><time>2026-05-01T17:36:56.999Z</time></trkpt><trkpt lat="45.83166942471597" lon="11.77333856231147"><ele>1008.0</ele><time>2026-05-01T17:36:57.999Z</time></trkpt><trkpt lat="45.83167830950364" lon="11.77317798104579"><ele>1008.0</ele><time>2026-05-01T17:36:58.999Z</time></trkpt><trkpt lat="45.83170923644945" lon="11.7730383028282"><ele>1011.2</ele><time>2026-05-01T17:36:59.999Z</time></trkpt><trkpt lat="45.83173188598765" lon="11.772926087679057"><ele>1014.4</ele><time>2026-05-01T17:37:00.999Z</time></trkpt><trkpt lat="45.83173376603171" lon="11.772798504743399"><ele>1017.6000000000001</ele><time>2026-05-01T17:37:01.999Z</time></trkpt><trkpt lat="45.831676758855835" lon="11.772654517284318"><ele>1020.8000000000001</ele><time>2026-05-01T17:37:02.999Z</time></trkpt><trkpt lat="45.831608816613546" lon="11.772514486117055"><ele>1024.0</ele><time>2026-05-01T17:37:03.999Z</time></trkpt><trkpt lat="45.831548893779214" lon="11.772372645138935"><ele>1029.75</ele><time>2026-05-01T17:37:04.999Z</time></trkpt><trkpt lat="45.83149377738799" lon="11.772233657672244"><ele>1035.5</ele><time>2026-05-01T17:37:05.999Z</time></trkpt><trkpt lat="45.8314381552045" lon="11.772105330684267"><ele>1041.25</ele><time>2026-05-01T17:37:06.999Z</time></trkpt><trkpt lat="45.83133719770906" lon="11.771991998367104"><ele>1047.0</ele><time>2026-05-01T17:37:07.999Z</time></trkpt><trkpt lat="45.8312719513163" lon="11.77186925777604"><ele>1045.0</ele><time>2026-05-01T17:37:08.999Z</time></trkpt><trkpt lat="45.83119042497171" lon="11.771746125315978"><ele>1043.0</ele><time>2026-05-01T17:37:09.999Z</time></trkpt><trkpt lat="45.83106037829231" lon="11.771674802129612"><ele>1041.0</ele><time>2026-05-01T17:37:10.999Z</time></trkpt><trkpt lat="45.830944086197405" lon="11.77159882437693"><ele>1039.0</ele><time>2026-05-01T17:37:11.999Z</time></trkpt><trkpt lat="45.83069230320941" lon="11.771768553847242"><ele>1039.0</ele><time>2026-05-01T17:37:12.999Z</time></trkpt><trkpt lat="45.83053268866413" lon="11.771753720183067"><ele>1039.0</ele><time>2026-05-01T17:37:13.999Z</time></trkpt><trkpt lat="45.830400521649665" lon="11.77169935229957"><ele>1039.0</ele><time>2026-05-01T17:37:14.999Z</time></trkpt><trkpt lat="45.83029550468548" lon="11.771591279823104"><ele>1039.0</ele><time>2026-05-01T17:37:15.999Z</time></trkpt><trkpt lat="45.830167788576354" lon="11.771505296733649"><ele>1028.25</ele><time>2026-05-01T17:37:16.999Z</time></trkpt><trkpt lat="45.83005913152205" lon="11.771412699115347"><ele>1017.5</ele><time>2026-05-01T17:37:17.999Z</time></trkpt><trkpt lat="45.829980602164625" lon="11.771327407072457"><ele>1006.75</ele><time>2026-05-01T17:37:18.999Z</time></trkpt><trkpt lat="45.829888556646836" lon="11.771221940234488"><ele>996.0</ele><time>2026-05-01T17:37:19.999Z</time></trkpt><trkpt lat="45.829799490152055" lon="11.771097211376102"><ele>1006.75</ele><time>2026-05-01T17:37:20.999Z</time></trkpt><trkpt lat="45.82969288682696" lon="11.771016982324744"><ele>1017.5</ele><time>2026-05-01T17:37:21.999Z</time></trkpt><trkpt lat="45.82956239531425" lon="11.770971411505373"><ele>1028.25</ele><time>2026-05-01T17:37:22.999Z</time></trkpt><trkpt lat="45.829452046362505" lon="11.770962314399773"><ele>1039.0</ele><time>2026-05-01T17:37:23.999Z</time></trkpt><trkpt lat="45.829329605969335" lon="11.770926406779033"><ele>1030.5</ele><time>2026-05-01T17:37:24.999Z</time></trkpt><trkpt lat="45.82921818532141" lon="11.770914674732232"><ele>1022.0</ele><time>2026-05-01T17:37:25.999Z</time></trkpt><trkpt lat="45.8291418218393" lon="11.770853025449272"><ele>1013.5</ele><time>2026-05-01T17:37:26.999Z</time></trkpt><trkpt lat="45.829035370058115" lon="11.770823663031244"><ele>1005.0</ele><time>2026-05-01T17:37:27.999Z</time></trkpt><trkpt lat="45.828888044071576" lon="11.770920013314052"><ele>1005.0</ele><time>2026-05-01T17:37:28.999Z</time></trkpt><trkpt lat="45.828822193579406" lon="11.77083298852421"><ele>1005.0</ele><time>2026-05-01T17:37:29.999Z</time></trkpt><trkpt lat="45.82874417623421" lon="11.770730150860063"><ele>1005.0</ele><time>2026-05-01T17:37:31.999Z</time></trkpt><trkpt lat="45.828696583312386" lon="11.770581315958664"><ele>1005.0</ele><time>2026-05-01T17:37:32.999Z</time></trkpt><trkpt lat="45.82866138925296" lon="11.770449238201167"><ele>1005.0</ele><time>2026-05-01T17:37:33.999Z</time></trkpt><trkpt lat="45.82864828004408" lon="11.770306019584064"><ele>1009.0</ele><time>2026-05-01T17:37:34.999Z</time></trkpt><trkpt lat="45.828620843943085" lon="11.770150541024881"><ele>1013.0</ele><time>2026-05-01T17:37:35.999Z</time></trkpt><trkpt lat="45.82856956374301" lon="11.769949974835852"><ele>1017.0</ele><time>2026-05-01T17:37:36.999Z</time></trkpt><trkpt lat="45.82851425559444" lon="11.769790921719057"><ele>1021.0</ele><time>2026-05-01T17:37:37.999Z</time></trkpt><trkpt lat="45.82845486699822" lon="11.769675713973701"><ele>1015.8</ele><time>2026-05-01T17:37:38.999Z</time></trkpt><trkpt lat="45.828368491251524" lon="11.769568198861688"><ele>1010.5999999999999</ele><time>2026-05-01T17:37:39.999Z</time></trkpt><trkpt lat="45.82827521634771" lon="11.769474252610035"><ele>1005.4</ele><time>2026-05-01T17:37:40.999Z</time></trkpt><trkpt lat="45.82817583980764" lon="11.769391987520587"><ele>1000.2</ele><time>2026-05-01T17:37:41.999Z</time></trkpt><trkpt lat="45.82807809004396" lon="11.769333071798044"><ele>995.0</ele><time>2026-05-01T17:37:42.998Z</time></trkpt><trkpt lat="45.827949998281156" lon="11.769278272975477"><ele>995.0</ele><time>2026-05-01T17:37:43.998Z</time></trkpt><trkpt lat="45.827859622559544" lon="11.769250530653004"><ele>995.0</ele><time>2026-05-01T17:37:44.998Z</time></trkpt><trkpt lat="45.82772894708616" lon="11.769205779702146"><ele>995.0</ele><time>2026-05-01T17:37:45.998Z</time></trkpt><trkpt lat="45.82755787229513" lon="11.769148445451311"><ele>995.0</ele><time>2026-05-01T17:37:46.998Z</time></trkpt><trkpt lat="45.827427805865895" lon="11.769107856060447"><ele>986.0</ele><time>2026-05-01T17:37:47.998Z</time></trkpt><trkpt lat="45.82729257999518" lon="11.769059636749684"><ele>977.0</ele><time>2026-05-01T17:37:48.998Z</time></trkpt><trkpt lat="45.82711023174731" lon="11.769028355081145"><ele>968.0</ele><time>2026-05-01T17:37:49.998Z</time></trkpt><trkpt lat="45.82695136629893" lon="11.769020216775923"><ele>964.0</ele><time>2026-05-01T17:37:50.998Z</time></trkpt><trkpt lat="45.8267974509714" lon="11.769058980786077"><ele>960.0</ele><time>2026-05-01T17:37:51.998Z</time></trkpt><trkpt lat="45.826663165680024" lon="11.76907465094888"><ele>956.0</ele><time>2026-05-01T17:37:52.998Z</time></trkpt><trkpt lat="45.82653130619588" lon="11.769087998016412"><ele>952.0</ele><time>2026-05-01T17:37:53.998Z</time></trkpt><trkpt lat="45.82640318142983" lon="11.769079760722706"><ele>952.0</ele><time>2026-05-01T17:37:54.998Z</time></trkpt><trkpt lat="45.82628047438331" lon="11.769042560791735"><ele>952.0</ele><time>2026-05-01T17:37:55.998Z</time></trkpt><trkpt lat="45.82616682143647" lon="11.768998471327974"><ele>952.0</ele><time>2026-05-01T17:37:57Z</time></trkpt><trkpt lat="45.826048389883695" lon="11.768948502308346"><ele>952.0</ele><time>2026-05-01T17:37:58Z</time></trkpt><trkpt lat="45.82593979325856" lon="11.768883432796946"><ele>950.6</ele><time>2026-05-01T17:37:59Z</time></trkpt><trkpt lat="45.82584919735068" lon="11.768795885329208"><ele>949.2</ele><time>2026-05-01T17:38:00Z</time></trkpt><trkpt lat="45.82577737660834" lon="11.768683811805571"><ele>947.8</ele><time>2026-05-01T17:38:01Z</time></trkpt><trkpt lat="45.82572643371961" lon="11.768566212584352"><ele>946.4</ele><time>2026-05-01T17:38:02Z</time></trkpt><trkpt lat="45.82570699365485" lon="11.768427513692695"><ele>945.0</ele><time>2026-05-01T17:38:03Z</time></trkpt><trkpt lat="45.82571384070832" lon="11.76829333356875"><ele>945.0</ele><time>2026-05-01T17:38:04Z</time></trkpt><trkpt lat="45.82573767564786" lon="11.76818497902496"><ele>945.0</ele><time>2026-05-01T17:38:05Z</time></trkpt><trkpt lat="45.82571748341462" lon="11.76809274939663"><ele>945.0</ele><time>2026-05-01T17:38:06Z</time></trkpt><trkpt lat="45.82560976984712" lon="11.768062607491494"><ele>945.0</ele><time>2026-05-01T17:38:08Z</time></trkpt><trkpt lat="45.82557542491364" lon="11.768279989284265"><ele>945.0</ele><time>2026-05-01T17:38:10Z</time></trkpt><trkpt lat="45.82558151372799" lon="11.768408780475117"><ele>942.0</ele><time>2026-05-01T17:38:11Z</time></trkpt><trkpt lat="45.82556642103499" lon="11.768556584077029"><ele>939.0</ele><time>2026-05-01T17:38:12Z</time></trkpt><trkpt lat="45.82556892231002" lon="11.768714602332174"><ele>936.0</ele><time>2026-05-01T17:38:13Z</time></trkpt><trkpt lat="45.8256039593637" lon="11.768877609293572"><ele>933.0</ele><time>2026-05-01T17:38:14Z</time></trkpt><trkpt lat="45.825664408605064" lon="11.769049374004762"><ele>933.0</ele><time>2026-05-01T17:38:15Z</time></trkpt><trkpt lat="45.825746961914575" lon="11.769210426213457"><ele>933.0</ele><time>2026-05-01T17:38:16Z</time></trkpt><trkpt lat="45.82585558213704" lon="11.769350136603851"><ele>933.0</ele><time>2026-05-01T17:38:17Z</time></trkpt><trkpt lat="45.82598046309908" lon="11.769468473461567"><ele>933.0</ele><time>2026-05-01T17:38:18Z</time></trkpt><trkpt lat="45.82610662989468" lon="11.769562761632274"><ele>931.5</ele><time>2026-05-01T17:38:19Z</time></trkpt><trkpt lat="45.826234963563635" lon="11.769617535096302"><ele>930.0</ele><time>2026-05-01T17:38:20Z</time></trkpt><trkpt lat="45.8263526593627" lon="11.769634689761753"><ele>928.5</ele><time>2026-05-01T17:38:21Z</time></trkpt><trkpt lat="45.826454602827894" lon="11.769737504607235"><ele>927.0</ele><time>2026-05-01T17:38:23Z</time></trkpt><trkpt lat="45.82649939236495" lon="11.769834783515806"><ele>927.0</ele><time>2026-05-01T17:38:25Z</time></trkpt><trkpt lat="45.82637823147658" lon="11.769834476219664"><ele>927.0</ele><time>2026-05-01T17:38:27Z</time></trkpt><trkpt lat="45.826239566434516" lon="11.76973123281235"><ele>927.0</ele><time>2026-05-01T17:38:28Z</time></trkpt><trkpt lat="45.82613659965014" lon="11.769703144367362"><ele>927.0</ele><time>2026-05-01T17:38:29Z</time></trkpt><trkpt lat="45.82602595712741" lon="11.769628663294476"><ele>923.0</ele><time>2026-05-01T17:38:30Z</time></trkpt><trkpt lat="45.82590217784628" lon="11.769574063130367"><ele>919.0</ele><time>2026-05-01T17:38:31Z</time></trkpt><trkpt lat="45.82577168803109" lon="11.769511737510136"><ele>915.0</ele><time>2026-05-01T17:38:32Z</time></trkpt><trkpt lat="45.8256379313241" lon="11.769439717062752"><ele>911.0</ele><time>2026-05-01T17:38:33Z</time></trkpt><trkpt lat="45.825500404716685" lon="11.769372600269856"><ele>908.0</ele><time>2026-05-01T17:38:34Z</time></trkpt><trkpt lat="45.825380687348556" lon="11.769242667334606"><ele>905.0</ele><time>2026-05-01T17:38:35Z</time></trkpt><trkpt lat="45.82521797198363" lon="11.769076704779877"><ele>902.0</ele><time>2026-05-01T17:38:36Z</time></trkpt><trkpt lat="45.82511798216442" lon="11.768949434548656"><ele>902.0</ele><time>2026-05-01T17:38:37Z</time></trkpt><trkpt lat="45.825042019447125" lon="11.768814796186579"><ele>902.0</ele><time>2026-05-01T17:38:38Z</time></trkpt><trkpt lat="45.82497591390662" lon="11.76863091357221"><ele>902.0</ele><time>2026-05-01T17:38:39Z</time></trkpt><trkpt lat="45.824899692914784" lon="11.768391354397735"><ele>902.0</ele><time>2026-05-01T17:38:40Z</time></trkpt><trkpt lat="45.8248707658561" lon="11.76818350493387"><ele>903.5</ele><time>2026-05-01T17:38:41Z</time></trkpt><trkpt lat="45.8247875169137" lon="11.768031341696295"><ele>905.0</ele><time>2026-05-01T17:38:42Z</time></trkpt><trkpt lat="45.82474275675083" lon="11.767862130830355"><ele>906.5</ele><time>2026-05-01T17:38:43Z</time></trkpt><trkpt lat="45.82472221352005" lon="11.767686766939796"><ele>908.0</ele><time>2026-05-01T17:38:43.999Z</time></trkpt><trkpt lat="45.82473180882096" lon="11.767504015769777"><ele>908.0</ele><time>2026-05-01T17:38:44.999Z</time></trkpt><trkpt lat="45.824760644862124" lon="11.767341170620096"><ele>908.0</ele><time>2026-05-01T17:38:45.999Z</time></trkpt><trkpt lat="45.824816328372414" lon="11.767187927023123"><ele>908.0</ele><time>2026-05-01T17:38:46.999Z</time></trkpt><trkpt lat="45.824902459959084" lon="11.767025035372894"><ele>908.0</ele><time>2026-05-01T17:38:47.999Z</time></trkpt><trkpt lat="45.82496864260448" lon="11.766875662152389"><ele>905.0</ele><time>2026-05-01T17:38:48.999Z</time></trkpt><trkpt lat="45.825031157245085" lon="11.766759142407675"><ele>902.0</ele><time>2026-05-01T17:38:49.999Z</time></trkpt><trkpt lat="45.82504903483154" lon="11.7666290552775"><ele>899.0</ele><time>2026-05-01T17:38:50.999Z</time></trkpt><trkpt lat="45.82503078838176" lon="11.766526612140309"><ele>896.0</ele><time>2026-05-01T17:38:51.999Z</time></trkpt><trkpt lat="45.82497900086981" lon="11.766459840234454"><ele>893.0</ele><time>2026-05-01T17:38:52.999Z</time></trkpt><trkpt lat="45.824862487982735" lon="11.766542474965616"><ele>893.0</ele><time>2026-05-01T17:38:54.999Z</time></trkpt><trkpt lat="45.824823415642" lon="11.766675723188465"><ele>893.0</ele><time>2026-05-01T17:38:55.999Z</time></trkpt><trkpt lat="45.82477039521442" lon="11.766819689817217"><ele>893.0</ele><time>2026-05-01T17:38:56.999Z</time></trkpt><trkpt lat="45.82470042203807" lon="11.766946885095985"><ele>893.0</ele><time>2026-05-01T17:38:57.999Z</time></trkpt><trkpt lat="45.824611533793444" lon="11.767053835084479"><ele>893.0</ele><time>2026-05-01T17:38:58.999Z</time></trkpt><trkpt lat="45.82453261783123" lon="11.767182898730114"><ele>898.0</ele><time>2026-05-01T17:38:59.999Z</time></trkpt><trkpt lat="45.82445465004122" lon="11.767348893132795"><ele>903.0</ele><time>2026-05-01T17:39:00.999Z</time></trkpt><trkpt lat="45.82442354267357" lon="11.767564581141041"><ele>908.0</ele><time>2026-05-01T17:39:01.999Z</time></trkpt><trkpt lat="45.82438657874717" lon="11.767786080744905"><ele>908.3333333333334</ele><time>2026-05-01T17:39:02.999Z</time></trkpt><trkpt lat="45.82434463526956" lon="11.768020930005063"><ele>908.6666666666667</ele><time>2026-05-01T17:39:03.999Z</time></trkpt><trkpt lat="45.824300905092336" lon="11.768253221902645"><ele>909.0</ele><time>2026-05-01T17:39:04.999Z</time></trkpt><trkpt lat="45.82426641399333" lon="11.768474848160265"><ele>894.3333333333333</ele><time>2026-05-01T17:39:05.999Z</time></trkpt><trkpt lat="45.8242449041782" lon="11.768693591785027"><ele>879.6666666666666</ele><time>2026-05-01T17:39:06.999Z</time></trkpt><trkpt lat="45.82425835724228" lon="11.768924780299638"><ele>865.0</ele><time>2026-05-01T17:39:07.999Z</time></trkpt><trkpt lat="45.824299708330734" lon="11.769156669356821"><ele>872.3333333333333</ele><time>2026-05-01T17:39:08.999Z</time></trkpt><trkpt lat="45.824359748546456" lon="11.76937236363577"><ele>879.6666666666667</ele><time>2026-05-01T17:39:09.999Z</time></trkpt><trkpt lat="45.82444589865665" lon="11.769587556801858"><ele>887.0</ele><time>2026-05-01T17:39:10.999Z</time></trkpt><trkpt lat="45.82453203297268" lon="11.769783838966683"><ele>887.0</ele><time>2026-05-01T17:39:11.999Z</time></trkpt><trkpt lat="45.82460483189085" lon="11.769947564942832"><ele>887.0</ele><time>2026-05-01T17:39:12.999Z</time></trkpt><trkpt lat="45.82466598421625" lon="11.770083667027372"><ele>887.0</ele><time>2026-05-01T17:39:13.999Z</time></trkpt><trkpt lat="45.8247076129154" lon="11.770225759947241"><ele>887.0</ele><time>2026-05-01T17:39:14.999Z</time></trkpt><trkpt lat="45.82470713530706" lon="11.770358589792332"><ele>887.0</ele><time>2026-05-01T17:39:15.999Z</time></trkpt><trkpt lat="45.82469045932028" lon="11.770498509539676"><ele>885.6</ele><time>2026-05-01T17:39:16.999Z</time></trkpt><trkpt lat="45.82467283539163" lon="11.770640897698158"><ele>884.2</ele><time>2026-05-01T17:39:17.999Z</time></trkpt><trkpt lat="45.82463873034565" lon="11.770743516749992"><ele>882.8</ele><time>2026-05-01T17:39:18.999Z</time></trkpt><trkpt lat="45.82454995339257" lon="11.770792682301261"><ele>881.4</ele><time>2026-05-01T17:39:19.999Z</time></trkpt><trkpt lat="45.82444537387646" lon="11.770783539178115"><ele>880.0</ele><time>2026-05-01T17:39:20.999Z</time></trkpt><trkpt lat="45.82433101422417" lon="11.770696047088668"><ele>874.0</ele><time>2026-05-01T17:39:21.999Z</time></trkpt><trkpt lat="45.82424780691503" lon="11.770568620385834"><ele>868.0</ele><time>2026-05-01T17:39:22.999Z</time></trkpt><trkpt lat="45.82419705402974" lon="11.770381385812255"><ele>862.0</ele><time>2026-05-01T17:39:23.999Z</time></trkpt><trkpt lat="45.82416157580523" lon="11.77019408823998"><ele>856.0</ele><time>2026-05-01T17:39:24.999Z</time></trkpt><trkpt lat="45.8241661586624" lon="11.770009614198411"><ele>856.0</ele><time>2026-05-01T17:39:25.999Z</time></trkpt><trkpt lat="45.824191461203924" lon="11.769845082104597"><ele>855.9999999999999</ele><time>2026-05-01T17:39:26.999Z</time></trkpt><trkpt lat="45.824177473379805" lon="11.769693343021354"><ele>855.9999999999999</ele><time>2026-05-01T17:39:27.999Z</time></trkpt><trkpt lat="45.82414962808425" lon="11.769610049871282"><ele>856.0</ele><time>2026-05-01T17:39:28.999Z</time></trkpt><trkpt lat="45.82407873914844" lon="11.769521013964855"><ele>856.0</ele><time>2026-05-01T17:39:29.999Z</time></trkpt><trkpt lat="45.82398917508102" lon="11.769424185802615"><ele>858.25</ele><time>2026-05-01T17:39:30.999Z</time></trkpt><trkpt lat="45.82394119618995" lon="11.76923969135029"><ele>860.5</ele><time>2026-05-01T17:39:31.999Z</time></trkpt><trkpt lat="45.82391207946264" lon="11.769037639758803"><ele>862.75</ele><time>2026-05-01T17:39:32.999Z</time></trkpt><trkpt lat="45.82386113219641" lon="11.768822393695208"><ele>865.0</ele><time>2026-05-01T17:39:33.999Z</time></trkpt><trkpt lat="45.82383027249405" lon="11.768608170586361"><ele>866.25</ele><time>2026-05-01T17:39:34.999Z</time></trkpt><trkpt lat="45.82380190059672" lon="11.768389710723122"><ele>867.5</ele><time>2026-05-01T17:39:35.999Z</time></trkpt><trkpt lat="45.82379529189527" lon="11.768176297090793"><ele>868.75</ele><time>2026-05-01T17:39:36.999Z</time></trkpt><trkpt lat="45.823761754228606" lon="11.767983982605845"><ele>870.0</ele><time>2026-05-01T17:39:37.999Z</time></trkpt><trkpt lat="45.823698644292804" lon="11.767867663138443"><ele>870.0</ele><time>2026-05-01T17:39:38.999Z</time></trkpt><trkpt lat="45.823592883258996" lon="11.76771078278069"><ele>870.0</ele><time>2026-05-01T17:39:39.999Z</time></trkpt><trkpt lat="45.823500213686906" lon="11.767535405662189"><ele>870.0</ele><time>2026-05-01T17:39:40.999Z</time></trkpt><trkpt lat="45.82342582840908" lon="11.76737621335031"><ele>870.0</ele><time>2026-05-01T17:39:41.999Z</time></trkpt><trkpt lat="45.82336598550269" lon="11.767217001901473"><ele>861.25</ele><time>2026-05-01T17:39:42.999Z</time></trkpt><trkpt lat="45.823324996201364" lon="11.76702706931782"><ele>852.5</ele><time>2026-05-01T17:39:43.999Z</time></trkpt><trkpt lat="45.82324632310801" lon="11.766836641043595"><ele>843.75</ele><time>2026-05-01T17:39:44.999Z</time></trkpt><trkpt lat="45.82321990838789" lon="11.766618365660216"><ele>835.0</ele><time>2026-05-01T17:39:45.999Z</time></trkpt><trkpt lat="45.82314415910592" lon="11.766468690155234"><ele>835.0</ele><time>2026-05-01T17:39:46.999Z</time></trkpt><trkpt lat="45.823107639760615" lon="11.766299751841464"><ele>835.0</ele><time>2026-05-01T17:39:47.999Z</time></trkpt><trkpt lat="45.823145261311176" lon="11.766095560075502"><ele>835.0</ele><time>2026-05-01T17:39:48.999Z</time></trkpt><trkpt lat="45.82321330232979" lon="11.76596341234156"><ele>835.0</ele><time>2026-05-01T17:39:49.998Z</time></trkpt><trkpt lat="45.8232779084823" lon="11.765674357469102"><ele>833.5</ele><time>2026-05-01T17:39:50.998Z</time></trkpt><trkpt lat="45.82331276704954" lon="11.765541884368607"><ele>832.0</ele><time>2026-05-01T17:39:51.998Z</time></trkpt><trkpt lat="45.82326978687324" lon="11.765392570795896"><ele>830.5</ele><time>2026-05-01T17:39:52.998Z</time></trkpt><trkpt lat="45.823179989505576" lon="11.765195548058797"><ele>829.0</ele><time>2026-05-01T17:39:53.998Z</time></trkpt><trkpt lat="45.8230900322032" lon="11.765044785544177"><ele>829.0</ele><time>2026-05-01T17:39:54.998Z</time></trkpt><trkpt lat="45.82303554373917" lon="11.764881449338791"><ele>829.0</ele><time>2026-05-01T17:39:55.998Z</time></trkpt><trkpt lat="45.82302207996429" lon="11.764704058981957"><ele>829.0</ele><time>2026-05-01T17:39:56.998Z</time></trkpt><trkpt lat="45.82299510906364" lon="11.764531429810978"><ele>829.0</ele><time>2026-05-01T17:39:57.998Z</time></trkpt><trkpt lat="45.82304758115102" lon="11.764388350025191"><ele>827.5</ele><time>2026-05-01T17:39:58.998Z</time></trkpt><trkpt lat="45.823099254507895" lon="11.76425347785055"><ele>826.0</ele><time>2026-05-01T17:39:59.998Z</time></trkpt><trkpt lat="45.82321045117836" lon="11.764036800723996"><ele>824.5</ele><time>2026-05-01T17:40:00.998Z</time></trkpt><trkpt lat="45.82322516245921" lon="11.763828149982945"><ele>823.0</ele><time>2026-05-01T17:40:01.998Z</time></trkpt><trkpt lat="45.82321828400369" lon="11.763685402221565"><ele>823.0</ele><time>2026-05-01T17:40:03Z</time></trkpt><trkpt lat="45.82317799880697" lon="11.763558116686964"><ele>823.0</ele><time>2026-05-01T17:40:04Z</time></trkpt><trkpt lat="45.82308874971579" lon="11.76338252948247"><ele>823.0</ele><time>2026-05-01T17:40:05Z</time></trkpt><trkpt lat="45.82303008236283" lon="11.76326223120813"><ele>823.0</ele><time>2026-05-01T17:40:06Z</time></trkpt><trkpt lat="45.822980048757046" lon="11.763098590016345"><ele>821.6666666666666</ele><time>2026-05-01T17:40:07Z</time></trkpt><trkpt lat="45.82294026656337" lon="11.762867412820157"><ele>820.3333333333333</ele><time>2026-05-01T17:40:08Z</time></trkpt><trkpt lat="45.82290179731602" lon="11.762659897542251"><ele>819.0</ele><time>2026-05-01T17:40:09Z</time></trkpt><trkpt lat="45.82285630604851" lon="11.762447265576904"><ele>819.0</ele><time>2026-05-01T17:40:10Z</time></trkpt><trkpt lat="45.822823718088564" lon="11.762253516661525"><ele>819.0</ele><time>2026-05-01T17:40:11Z</time></trkpt><trkpt lat="45.82278845151095" lon="11.762060433378192"><ele>819.0</ele><time>2026-05-01T17:40:12Z</time></trkpt><trkpt lat="45.82273470525684" lon="11.761896792538842"><ele>819.0</ele><time>2026-05-01T17:40:13Z</time></trkpt><trkpt lat="45.82268980428896" lon="11.76176744365217"><ele>819.0</ele><time>2026-05-01T17:40:14Z</time></trkpt><trkpt lat="45.82267528627788" lon="11.761963297439125"><ele>819.0</ele><time>2026-05-01T17:40:16Z</time></trkpt><trkpt lat="45.822607127059634" lon="11.762031787135387"><ele>819.0</ele><time>2026-05-01T17:40:17Z</time></trkpt><trkpt lat="45.82261861140379" lon="11.762215972794952"><ele>819.0</ele><time>2026-05-01T17:40:18Z</time></trkpt><trkpt lat="45.822621054577546" lon="11.762358406162523"><ele>819.0</ele><time>2026-05-01T17:40:19Z</time></trkpt><trkpt lat="45.82263748842681" lon="11.762515727807143"><ele>810.5</ele><time>2026-05-01T17:40:20Z</time></trkpt><trkpt lat="45.82263776604533" lon="11.762703141195974"><ele>802.0</ele><time>2026-05-01T17:40:21Z</time></trkpt><trkpt lat="45.82260946003121" lon="11.762893293023476"><ele>793.5</ele><time>2026-05-01T17:40:22Z</time></trkpt><trkpt lat="45.822587571810956" lon="11.763089823663218"><ele>785.0</ele><time>2026-05-01T17:40:23Z</time></trkpt><trkpt lat="45.82256104458184" lon="11.763276168918356"><ele>785.0</ele><time>2026-05-01T17:40:24Z</time></trkpt><trkpt lat="45.82253376360053" lon="11.763470280539446"><ele>785.0</ele><time>2026-05-01T17:40:25Z</time></trkpt><trkpt lat="45.82247721666184" lon="11.763608414233584"><ele>785.0</ele><time>2026-05-01T17:40:26Z</time></trkpt><trkpt lat="45.822418959244295" lon="11.763697402396572"><ele>785.0</ele><time>2026-05-01T17:40:27Z</time></trkpt><trkpt lat="45.82234516385088" lon="11.76367398390921"><ele>785.0</ele><time>2026-05-01T17:40:28Z</time></trkpt><trkpt lat="45.822147472211235" lon="11.763596601157158"><ele>786.75</ele><time>2026-05-01T17:40:29Z</time></trkpt><trkpt lat="45.822007379690355" lon="11.763578140749267"><ele>788.5</ele><time>2026-05-01T17:40:30Z</time></trkpt><trkpt lat="45.82187655582169" lon="11.763587788242592"><ele>790.25</ele><time>2026-05-01T17:40:31Z</time></trkpt><trkpt lat="45.82174887987639" lon="11.763555111734398"><ele>792.0</ele><time>2026-05-01T17:40:32Z</time></trkpt><trkpt lat="45.82164556093507" lon="11.763491344013527"><ele>785.0</ele><time>2026-05-01T17:40:33Z</time></trkpt><trkpt lat="45.8215740858577" lon="11.763400064705467"><ele>778.0</ele><time>2026-05-01T17:40:34Z</time></trkpt><trkpt lat="45.8214997635554" lon="11.763268038553399"><ele>771.0</ele><time>2026-05-01T17:40:35Z</time></trkpt><trkpt lat="45.821494829842806" lon="11.76308108160754"><ele>764.0</ele><time>2026-05-01T17:40:36Z</time></trkpt><trkpt lat="45.82147353729917" lon="11.762920391695385"><ele>764.0</ele><time>2026-05-01T17:40:37Z</time></trkpt><trkpt lat="45.82146057471083" lon="11.762808872843936"><ele>764.0</ele><time>2026-05-01T17:40:38Z</time></trkpt><trkpt lat="45.82141039202553" lon="11.762734167738627"><ele>764.0</ele><time>2026-05-01T17:40:39Z</time></trkpt><trkpt lat="45.82129878975396" lon="11.762862115672545"><ele>764.0</ele><time>2026-05-01T17:40:41Z</time></trkpt><trkpt lat="45.82128770533884" lon="11.763015979131463"><ele>764.0</ele><time>2026-05-01T17:40:42Z</time></trkpt><trkpt lat="45.82125951522588" lon="11.763172095813916"><ele>764.0</ele><time>2026-05-01T17:40:43Z</time></trkpt><trkpt lat="45.821177318505185" lon="11.763327688259379"><ele>764.0</ele><time>2026-05-01T17:40:44Z</time></trkpt><trkpt lat="45.82111145487689" lon="11.763504866832768"><ele>764.0</ele><time>2026-05-01T17:40:45Z</time></trkpt><trkpt lat="45.82103807229954" lon="11.763685792970508"><ele>764.0</ele><time>2026-05-01T17:40:46Z</time></trkpt><trkpt lat="45.820985280957636" lon="11.763910458464697"><ele>759.6666666666666</ele><time>2026-05-01T17:40:47Z</time></trkpt><trkpt lat="45.82092487554928" lon="11.764130305618972"><ele>755.3333333333334</ele><time>2026-05-01T17:40:48Z</time></trkpt><trkpt lat="45.820864728211355" lon="11.76433024516357"><ele>751.0</ele><time>2026-05-01T17:40:48.999Z</time></trkpt><trkpt lat="45.82081469239252" lon="11.76450785183421"><ele>749.0</ele><time>2026-05-01T17:40:49.999Z</time></trkpt><trkpt lat="45.82079542062901" lon="11.764683245625607"><ele>747.0</ele><time>2026-05-01T17:40:50.999Z</time></trkpt><trkpt lat="45.82080728794126" lon="11.7648714373529"><ele>745.0</ele><time>2026-05-01T17:40:51.999Z</time></trkpt><trkpt lat="45.820850619821435" lon="11.765060793199341"><ele>743.0</ele><time>2026-05-01T17:40:52.999Z</time></trkpt><trkpt lat="45.820886461890375" lon="11.765232614707093"><ele>741.2</ele><time>2026-05-01T17:40:53.999Z</time></trkpt><trkpt lat="45.82092922451053" lon="11.765380341018417"><ele>739.4</ele><time>2026-05-01T17:40:54.999Z</time></trkpt><trkpt lat="45.820961181732756" lon="11.765488473689997"><ele>737.6</ele><time>2026-05-01T17:40:55.999Z</time></trkpt><trkpt lat="45.820955978632355" lon="11.765631493469703"><ele>735.8000000000001</ele><time>2026-05-01T17:40:57.999Z</time></trkpt><trkpt lat="45.82087541597574" lon="11.765633241690438"><ele>734.0</ele><time>2026-05-01T17:40:58.999Z</time></trkpt><trkpt lat="45.82079501570413" lon="11.765586275311705"><ele>734.0</ele><time>2026-05-01T17:40:59.999Z</time></trkpt><trkpt lat="45.8207265070503" lon="11.765430770591676"><ele>734.0</ele><time>2026-05-01T17:41:00.999Z</time></trkpt><trkpt lat="45.82061990795547" lon="11.76530401052127"><ele>734.0</ele><time>2026-05-01T17:41:01.999Z</time></trkpt><trkpt lat="45.82053803399888" lon="11.765162566572481"><ele>734.0</ele><time>2026-05-01T17:41:02.999Z</time></trkpt><trkpt lat="45.82051184675912" lon="11.764964842450551"><ele>737.0</ele><time>2026-05-01T17:41:03.999Z</time></trkpt><trkpt lat="45.82044551477371" lon="11.764758371485279"><ele>740.0</ele><time>2026-05-01T17:41:04.999Z</time></trkpt><trkpt lat="45.82038315034711" lon="11.764553379413046"><ele>743.0</ele><time>2026-05-01T17:41:05.999Z</time></trkpt><trkpt lat="45.82031553354776" lon="11.76435464675928"><ele>745.0</ele><time>2026-05-01T17:41:06.999Z</time></trkpt><trkpt lat="45.82028694781158" lon="11.764178038382909"><ele>747.0</ele><time>2026-05-01T17:41:07.999Z</time></trkpt><trkpt lat="45.82028324229961" lon="11.76397042601036"><ele>749.0</ele><time>2026-05-01T17:41:08.999Z</time></trkpt><trkpt lat="45.820283829790455" lon="11.763769399639871"><ele>751.0</ele><time>2026-05-01T17:41:09.999Z</time></trkpt><trkpt lat="45.82024737599556" lon="11.763577752385816"><ele>745.5</ele><time>2026-05-01T17:41:10.999Z</time></trkpt><trkpt lat="45.820141121975084" lon="11.763396713466445"><ele>740.0</ele><time>2026-05-01T17:41:11.999Z</time></trkpt><trkpt lat="45.82003563112801" lon="11.763266797333069"><ele>734.5</ele><time>2026-05-01T17:41:12.999Z</time></trkpt><trkpt lat="45.81993837071082" lon="11.763134273052659"><ele>729.0</ele><time>2026-05-01T17:41:13.999Z</time></trkpt><trkpt lat="45.81980509937545" lon="11.763051721366034"><ele>729.0</ele><time>2026-05-01T17:41:14.999Z</time></trkpt><trkpt lat="45.81964912595588" lon="11.762965615616526"><ele>729.0</ele><time>2026-05-01T17:41:15.999Z</time></trkpt><trkpt lat="45.81955266508008" lon="11.762827709205235"><ele>729.0</ele><time>2026-05-01T17:41:16.999Z</time></trkpt><trkpt lat="45.81944929403992" lon="11.762693980727022"><ele>729.0</ele><time>2026-05-01T17:41:17.999Z</time></trkpt><trkpt lat="45.819342979786654" lon="11.762580332422026"><ele>726.6</ele><time>2026-05-01T17:41:18.999Z</time></trkpt><trkpt lat="45.819236963879945" lon="11.762524876799983"><ele>724.2</ele><time>2026-05-01T17:41:19.999Z</time></trkpt><trkpt lat="45.81914224058032" lon="11.762434448165852"><ele>721.8000000000001</ele><time>2026-05-01T17:41:20.999Z</time></trkpt><trkpt lat="45.81907492466338" lon="11.762376527914887"><ele>719.4000000000001</ele><time>2026-05-01T17:41:21.999Z</time></trkpt><trkpt lat="45.81904146590634" lon="11.762257358887362"><ele>717.0</ele><time>2026-05-01T17:41:22.999Z</time></trkpt><trkpt lat="45.819082949054014" lon="11.762157694301674"><ele>717.0</ele><time>2026-05-01T17:41:23.999Z</time></trkpt><trkpt lat="45.81908436621088" lon="11.76201876770033"><ele>717.0</ele><time>2026-05-01T17:41:24.999Z</time></trkpt><trkpt lat="45.81904928142624" lon="11.761834282325317"><ele>717.0</ele><time>2026-05-01T17:41:25.999Z</time></trkpt><trkpt lat="45.818924810074236" lon="11.761729760690633"><ele>717.0</ele><time>2026-05-01T17:41:26.999Z</time></trkpt><trkpt lat="45.818814333931" lon="11.761639188151094"><ele>717.2</ele><time>2026-05-01T17:41:27.999Z</time></trkpt><trkpt lat="45.81874941107284" lon="11.761526133336135"><ele>717.4000000000001</ele><time>2026-05-01T17:41:28.999Z</time></trkpt><trkpt lat="45.818695109551136" lon="11.761412953521756"><ele>717.5999999999999</ele><time>2026-05-01T17:41:29.999Z</time></trkpt><trkpt lat="45.81871568161226" lon="11.761251084914756"><ele>717.8</ele><time>2026-05-01T17:41:30.999Z</time></trkpt><trkpt lat="45.81876934053652" lon="11.76113436778965"><ele>718.0</ele><time>2026-05-01T17:41:31.999Z</time></trkpt><trkpt lat="45.81874043253078" lon="11.761046374951215"><ele>718.0</ele><time>2026-05-01T17:41:32.999Z</time></trkpt><trkpt lat="45.818661733808" lon="11.761010654008938"><ele>718.0</ele><time>2026-05-01T17:41:33.999Z</time></trkpt><trkpt lat="45.81858671317622" lon="11.761075500505449"><ele>718.0</ele><time>2026-05-01T17:41:34.999Z</time></trkpt><trkpt lat="45.81854932087172" lon="11.761210897761792"><ele>718.0</ele><time>2026-05-01T17:41:35.999Z</time></trkpt><trkpt lat="45.81854430964061" lon="11.761364628773157"><ele>718.0</ele><time>2026-05-01T17:41:36.999Z</time></trkpt><trkpt lat="45.81853444708553" lon="11.761524724910167"><ele>718.0</ele><time>2026-05-01T17:41:37.999Z</time></trkpt><trkpt lat="45.81852494548143" lon="11.76170131221924"><ele>718.0</ele><time>2026-05-01T17:41:38.999Z</time></trkpt><trkpt lat="45.81846545097104" lon="11.761843973781977"><ele>718.0</ele><time>2026-05-01T17:41:39.999Z</time></trkpt><trkpt lat="45.81839412144353" lon="11.761977713073243"><ele>718.0</ele><time>2026-05-01T17:41:40.999Z</time></trkpt><trkpt lat="45.81829421247158" lon="11.762073271605587"><ele>711.5</ele><time>2026-05-01T17:41:41.999Z</time></trkpt><trkpt lat="45.81819924224882" lon="11.7621767070639"><ele>705.0</ele><time>2026-05-01T17:41:42.999Z</time></trkpt><trkpt lat="45.818134692448616" lon="11.762295533872798"><ele>698.5</ele><time>2026-05-01T17:41:43.999Z</time></trkpt><trkpt lat="45.81811236724787" lon="11.762449448288264"><ele>692.0</ele><time>2026-05-01T17:41:44.999Z</time></trkpt><trkpt lat="45.81812971673121" lon="11.762636627783806"><ele>687.0</ele><time>2026-05-01T17:41:45.999Z</time></trkpt><trkpt lat="45.81819687215039" lon="11.762820280758293"><ele>682.0</ele><time>2026-05-01T17:41:46.999Z</time></trkpt><trkpt lat="45.81830801001497" lon="11.762968292269038"><ele>677.0</ele><time>2026-05-01T17:41:47.999Z</time></trkpt><trkpt lat="45.81843461239995" lon="11.763101833751218"><ele>682.0</ele><time>2026-05-01T17:41:48.999Z</time></trkpt><trkpt lat="45.818545614639625" lon="11.763259664395832"><ele>687.0</ele><time>2026-05-01T17:41:49.999Z</time></trkpt><trkpt lat="45.81863185586485" lon="11.76344531565583"><ele>692.0</ele><time>2026-05-01T17:41:50.999Z</time></trkpt><trkpt lat="45.81869878259373" lon="11.763636360127393"><ele>692.0</ele><time>2026-05-01T17:41:51.999Z</time></trkpt><trkpt lat="45.81873836718557" lon="11.76385678998017"><ele>692.0</ele><time>2026-05-01T17:41:52.999Z</time></trkpt><trkpt lat="45.81876625754422" lon="11.764075507481284"><ele>692.0</ele><time>2026-05-01T17:41:53.999Z</time></trkpt><trkpt lat="45.818796985353934" lon="11.764300902307339"><ele>689.75</ele><time>2026-05-01T17:41:54.998Z</time></trkpt><trkpt lat="45.81884080068318" lon="11.764506895524123"><ele>687.5</ele><time>2026-05-01T17:41:55.998Z</time></trkpt><trkpt lat="45.81890062230576" lon="11.764695220695621"><ele>685.25</ele><time>2026-05-01T17:41:56.998Z</time></trkpt><trkpt lat="45.81894458619348" lon="11.764864198178232"><ele>683.0</ele><time>2026-05-01T17:41:57.998Z</time></trkpt><trkpt lat="45.81899766800951" lon="11.76503145117654"><ele>683.0</ele><time>2026-05-01T17:41:58.998Z</time></trkpt><trkpt lat="45.81902899240775" lon="11.765148563797098"><ele>683.0</ele><time>2026-05-01T17:41:59.998Z</time></trkpt><trkpt lat="45.81908094792909" lon="11.76520248266353"><ele>683.0</ele><time>2026-05-01T17:42:00.998Z</time></trkpt><trkpt lat="45.81902394207218" lon="11.765299445757293"><ele>683.0</ele><time>2026-05-01T17:42:02.998Z</time></trkpt><trkpt lat="45.81895036430255" lon="11.765235892442961"><ele>683.0</ele><time>2026-05-01T17:42:03.998Z</time></trkpt><trkpt lat="45.81892486678287" lon="11.765074744888764"><ele>683.0</ele><time>2026-05-01T17:42:04.998Z</time></trkpt><trkpt lat="45.81889261557116" lon="11.764931002337066"><ele>683.0</ele><time>2026-05-01T17:42:05.998Z</time></trkpt><trkpt lat="45.81884363796884" lon="11.764762163978624"><ele>683.0</ele><time>2026-05-01T17:42:06.998Z</time></trkpt><trkpt lat="45.818775435652604" lon="11.764594201774921"><ele>683.0</ele><time>2026-05-01T17:42:07.998Z</time></trkpt><trkpt lat="45.81869279289853" lon="11.7644168289506"><ele>683.0</ele><time>2026-05-01T17:42:09Z</time></trkpt><trkpt lat="45.81860893039554" lon="11.764241737296743"><ele>686.0</ele><time>2026-05-01T17:42:10Z</time></trkpt><trkpt lat="45.818551297536295" lon="11.764037308368996"><ele>689.0</ele><time>2026-05-01T17:42:11Z</time></trkpt><trkpt lat="45.81845984526781" lon="11.76385771388722"><ele>692.0</ele><time>2026-05-01T17:42:12Z</time></trkpt><trkpt lat="45.81834799245136" lon="11.763702350790847"><ele>687.0</ele><time>2026-05-01T17:42:13Z</time></trkpt><trkpt lat="45.81822011375242" lon="11.763570444805879"><ele>682.0</ele><time>2026-05-01T17:42:14Z</time></trkpt><trkpt lat="45.81807761868948" lon="11.763451295271185"><ele>677.0</ele><time>2026-05-01T17:42:15Z</time></trkpt><trkpt lat="45.81794127365144" lon="11.76332579425504"><ele>677.0</ele><time>2026-05-01T17:42:16Z</time></trkpt><trkpt lat="45.81780987161399" lon="11.763194893650647"><ele>677.0</ele><time>2026-05-01T17:42:17Z</time></trkpt><trkpt lat="45.81766492386544" lon="11.763065004266092"><ele>677.0</ele><time>2026-05-01T17:42:18Z</time></trkpt><trkpt lat="45.817552679562944" lon="11.762910359840419"><ele>671.25</ele><time>2026-05-01T17:42:19Z</time></trkpt><trkpt lat="45.81746302784544" lon="11.762745198289842"><ele>665.5</ele><time>2026-05-01T17:42:20Z</time></trkpt><trkpt lat="45.81742721239426" lon="11.762569416785416"><ele>659.75</ele><time>2026-05-01T17:42:21Z</time></trkpt><trkpt lat="45.81738950834466" lon="11.762353733189748"><ele>654.0</ele><time>2026-05-01T17:42:22Z</time></trkpt><trkpt lat="45.81733518295746" lon="11.762110784000171"><ele>654.0</ele><time>2026-05-01T17:42:23Z</time></trkpt><trkpt lat="45.81725102498047" lon="11.761913909780755"><ele>654.0</ele><time>2026-05-01T17:42:24Z</time></trkpt><trkpt lat="45.81715654473345" lon="11.761733126231064"><ele>654.0</ele><time>2026-05-01T17:42:25Z</time></trkpt><trkpt lat="45.81707195431552" lon="11.761554047791664"><ele>654.4000000000001</ele><time>2026-05-01T17:42:26Z</time></trkpt><trkpt lat="45.816993893880635" lon="11.761398128754207"><ele>654.8</ele><time>2026-05-01T17:42:27Z</time></trkpt><trkpt lat="45.81693478320624" lon="11.761236779287517"><ele>655.2</ele><time>2026-05-01T17:42:28Z</time></trkpt><trkpt lat="45.81689882381865" lon="11.761092688996623"><ele>655.5999999999999</ele><time>2026-05-01T17:42:29Z</time></trkpt><trkpt lat="45.8168637846185" lon="11.760988456343771"><ele>656.0</ele><time>2026-05-01T17:42:30Z</time></trkpt><trkpt lat="45.81680662368606" lon="11.760894439197026"><ele>648.5999999999999</ele><time>2026-05-01T17:42:31Z</time></trkpt><trkpt lat="45.81674789555448" lon="11.760857761680253"><ele>641.1999999999999</ele><time>2026-05-01T17:42:32Z</time></trkpt><trkpt lat="45.81668321537539" lon="11.760870661316607"><ele>633.8</ele><time>2026-05-01T17:42:33Z</time></trkpt><trkpt lat="45.816636722567246" lon="11.761005524715054"><ele>626.4</ele><time>2026-05-01T17:42:34Z</time></trkpt><trkpt lat="45.81671993915015" lon="11.761156581876184"><ele>619.0</ele><time>2026-05-01T17:42:35Z</time></trkpt><trkpt lat="45.81677119177081" lon="11.761273623148332"><ele>619.0</ele><time>2026-05-01T17:42:36Z</time></trkpt><trkpt lat="45.816798579467005" lon="11.761432039194633"><ele>619.0</ele><time>2026-05-01T17:42:37Z</time></trkpt><trkpt lat="45.816845775702795" lon="11.761612937979281"><ele>619.0</ele><time>2026-05-01T17:42:38Z</time></trkpt><trkpt lat="45.8168928343533" lon="11.761798843468119"><ele>619.0</ele><time>2026-05-01T17:42:39Z</time></trkpt><trkpt lat="45.81692259389464" lon="11.762017014169142"><ele>625.0</ele><time>2026-05-01T17:42:40Z</time></trkpt><trkpt lat="45.8169471966087" lon="11.762251051210649"><ele>631.0</ele><time>2026-05-01T17:42:41Z</time></trkpt><trkpt lat="45.81696212506102" lon="11.762488711954415"><ele>637.0</ele><time>2026-05-01T17:42:42Z</time></trkpt><trkpt lat="45.816975142101754" lon="11.762702424406651"><ele>637.0</ele><time>2026-05-01T17:42:43Z</time></trkpt><trkpt lat="45.816988658349395" lon="11.762890215678599"><ele>637.0</ele><time>2026-05-01T17:42:44Z</time></trkpt><trkpt lat="45.81701281432434" lon="11.763070649929805"><ele>637.0</ele><time>2026-05-01T17:42:45Z</time></trkpt><trkpt lat="45.81707742914256" lon="11.763245157673994"><ele>637.0</ele><time>2026-05-01T17:42:46Z</time></trkpt><trkpt lat="45.81715979152361" lon="11.763430696002166"><ele>630.5</ele><time>2026-05-01T17:42:47Z</time></trkpt><trkpt lat="45.81726019366064" lon="11.76360566179687"><ele>624.0</ele><time>2026-05-01T17:42:48Z</time></trkpt><trkpt lat="45.817360782336394" lon="11.76373121472828"><ele>617.5</ele><time>2026-05-01T17:42:49Z</time></trkpt><trkpt lat="45.81744991260722" lon="11.763840014065904"><ele>611.0</ele><time>2026-05-01T17:42:50Z</time></trkpt><trkpt lat="45.81752749100679" lon="11.763910758050269"><ele>611.0</ele><time>2026-05-01T17:42:51Z</time></trkpt><trkpt lat="45.81757849277055" lon="11.763983552164664"><ele>611.0</ele><time>2026-05-01T17:42:52Z</time></trkpt><trkpt lat="45.817563115251126" lon="11.764128959025545"><ele>611.0</ele><time>2026-05-01T17:42:54Z</time></trkpt><trkpt lat="45.81750012239513" lon="11.764141214088532"><ele>611.0</ele><time>2026-05-01T17:42:55Z</time></trkpt><trkpt lat="45.81744828564898" lon="11.76401681263428"><ele>611.0</ele><time>2026-05-01T17:42:55.999Z</time></trkpt><trkpt lat="45.81736655121139" lon="11.763910231000057"><ele>611.0</ele><time>2026-05-01T17:42:56.999Z</time></trkpt><trkpt lat="45.81728395911255" lon="11.763793440737608"><ele>611.0</ele><time>2026-05-01T17:42:57.999Z</time></trkpt><trkpt lat="45.817169398649824" lon="11.763665672406058"><ele>611.0</ele><time>2026-05-01T17:42:58.999Z</time></trkpt><trkpt lat="45.817070736322925" lon="11.76352213683013"><ele>611.0</ele><time>2026-05-01T17:42:59.999Z</time></trkpt><trkpt lat="45.81694249446046" lon="11.763405463127103"><ele>611.0</ele><time>2026-05-01T17:43:00.999Z</time></trkpt><trkpt lat="45.81680602781709" lon="11.763290141446895"><ele>611.25</ele><time>2026-05-01T17:43:01.999Z</time></trkpt><trkpt lat="45.816688874628255" lon="11.763147571403175"><ele>611.5</ele><time>2026-05-01T17:43:02.999Z</time></trkpt><trkpt lat="45.81660063443615" lon="11.76298665574504"><ele>611.75</ele><time>2026-05-01T17:43:03.999Z</time></trkpt><trkpt lat="45.816524077524505" lon="11.762809002513512"><ele>612.0</ele><time>2026-05-01T17:43:04.999Z</time></trkpt><trkpt lat="45.81646565962381" lon="11.76263361938658"><ele>612.0</ele><time>2026-05-01T17:43:05.999Z</time></trkpt><trkpt lat="45.81643760709646" lon="11.762460655128642"><ele>612.0</ele><time>2026-05-01T17:43:06.999Z</time></trkpt><trkpt lat="45.816412107905386" lon="11.76229015752378"><ele>612.0</ele><time>2026-05-01T17:43:07.999Z</time></trkpt><trkpt lat="45.816384838478164" lon="11.762149421579615"><ele>612.0</ele><time>2026-05-01T17:43:08.999Z</time></trkpt><trkpt lat="45.81635068601154" lon="11.762002913491342"><ele>612.0</ele><time>2026-05-01T17:43:09.999Z</time></trkpt><trkpt lat="45.81628709929235" lon="11.761922585487818"><ele>612.0</ele><time>2026-05-01T17:43:10.999Z</time></trkpt><trkpt lat="45.81612417117612" lon="11.761934761418129"><ele>612.0</ele><time>2026-05-01T17:43:11.999Z</time></trkpt><trkpt lat="45.81608030242189" lon="11.76213255158416"><ele>612.0</ele><time>2026-05-01T17:43:12.999Z</time></trkpt><trkpt lat="45.81618736918693" lon="11.762197542879619"><ele>612.0</ele><time>2026-05-01T17:43:14.999Z</time></trkpt><trkpt lat="45.81621088680963" lon="11.76236037280392"><ele>612.0</ele><time>2026-05-01T17:43:15.999Z</time></trkpt><trkpt lat="45.816207695259415" lon="11.762547046609077"><ele>612.0</ele><time>2026-05-01T17:43:16.999Z</time></trkpt><trkpt lat="45.81618887283026" lon="11.762748069058754"><ele>612.0</ele><time>2026-05-01T17:43:17.999Z</time></trkpt><trkpt lat="45.81616082713096" lon="11.762941053078038"><ele>608.25</ele><time>2026-05-01T17:43:18.999Z</time></trkpt><trkpt lat="45.816168934369955" lon="11.763140176197288"><ele>604.5</ele><time>2026-05-01T17:43:19.999Z</time></trkpt><trkpt lat="45.81622571581554" lon="11.763315298875378"><ele>600.75</ele><time>2026-05-01T17:43:20.999Z</time></trkpt><trkpt lat="45.81632958541246" lon="11.763452659386141"><ele>597.0</ele><time>2026-05-01T17:43:21.999Z</time></trkpt><trkpt lat="45.81642911304502" lon="11.763588291425194"><ele>600.5</ele><time>2026-05-01T17:43:22.999Z</time></trkpt><trkpt lat="45.81654670874508" lon="11.763720432232512"><ele>604.0</ele><time>2026-05-01T17:43:23.999Z</time></trkpt><trkpt lat="45.816665182850564" lon="11.763850179650648"><ele>607.5</ele><time>2026-05-01T17:43:24.999Z</time></trkpt><trkpt lat="45.816776042696084" lon="11.763975198641104"><ele>611.0</ele><time>2026-05-01T17:43:25.999Z</time></trkpt><trkpt lat="45.81687829366412" lon="11.764129410767739"><ele>611.0</ele><time>2026-05-01T17:43:26.999Z</time></trkpt><trkpt lat="45.81697091428007" lon="11.764251437058515"><ele>611.0</ele><time>2026-05-01T17:43:27.999Z</time></trkpt><trkpt lat="45.81704534032988" lon="11.764340009749612"><ele>611.0</ele><time>2026-05-01T17:43:28.999Z</time></trkpt><trkpt lat="45.8171088457655" lon="11.764412689511037"><ele>611.0</ele><time>2026-05-01T17:43:29.999Z</time></trkpt><trkpt lat="45.81710114682361" lon="11.764524310390703"><ele>611.0</ele><time>2026-05-01T17:43:32.999Z</time></trkpt><trkpt lat="45.816992410478434" lon="11.764400019859416"><ele>611.0</ele><time>2026-05-01T17:43:33.999Z</time></trkpt><trkpt lat="45.816939264927505" lon="11.76427406020329"><ele>611.0</ele><time>2026-05-01T17:43:34.999Z</time></trkpt><trkpt lat="45.81684285025847" lon="11.764172030387224"><ele>611.0</ele><time>2026-05-01T17:43:35.999Z</time></trkpt><trkpt lat="45.81673538042101" lon="11.764082093970151"><ele>611.0</ele><time>2026-05-01T17:43:36.999Z</time></trkpt><trkpt lat="45.816608891768794" lon="11.76398861128973"><ele>596.6666666666666</ele><time>2026-05-01T17:43:37.999Z</time></trkpt><trkpt lat="45.81646436011372" lon="11.763901370380804"><ele>582.3333333333334</ele><time>2026-05-01T17:43:38.999Z</time></trkpt><trkpt lat="45.8163097228241" lon="11.763805233081774"><ele>568.0</ele><time>2026-05-01T17:43:39.999Z</time></trkpt><trkpt lat="45.81616642804873" lon="11.763682441476217"><ele>568.0</ele><time>2026-05-01T17:43:40.999Z</time></trkpt><trkpt lat="45.81601866096855" lon="11.763576669297423"><ele>568.0</ele><time>2026-05-01T17:43:41.999Z</time></trkpt><trkpt lat="45.815868494689845" lon="11.76346917998892"><ele>568.0</ele><time>2026-05-01T17:43:42.999Z</time></trkpt><trkpt lat="45.81574469980789" lon="11.76335718851726"><ele>566.5</ele><time>2026-05-01T17:43:43.999Z</time></trkpt><trkpt lat="45.81565206383515" lon="11.763224050394069"><ele>565.0</ele><time>2026-05-01T17:43:44.999Z</time></trkpt><trkpt lat="45.81558599657247" lon="11.76307484775278"><ele>563.5</ele><time>2026-05-01T17:43:45.999Z</time></trkpt><trkpt lat="45.81551532751658" lon="11.76289078989342"><ele>562.0</ele><time>2026-05-01T17:43:46.999Z</time></trkpt><trkpt lat="45.81545253500022" lon="11.762691226766693"><ele>565.75</ele><time>2026-05-01T17:43:47.999Z</time></trkpt><trkpt lat="45.81538928841389" lon="11.762484966646033"><ele>569.5</ele><time>2026-05-01T17:43:48.999Z</time></trkpt><trkpt lat="45.81531468855781" lon="11.762318034978243"><ele>573.25</ele><time>2026-05-01T17:43:49.999Z</time></trkpt><trkpt lat="45.815242747004525" lon="11.762251971872217"><ele>577.0</ele><time>2026-05-01T17:43:50.999Z</time></trkpt><trkpt lat="45.81514863009314" lon="11.762132734700165"><ele>571.0</ele><time>2026-05-01T17:43:51.999Z</time></trkpt><trkpt lat="45.81502033907115" lon="11.762069795613327"><ele>565.0</ele><time>2026-05-01T17:43:52.999Z</time></trkpt><trkpt lat="45.81489868413427" lon="11.761927411072868"><ele>559.0</ele><time>2026-05-01T17:43:53.999Z</time></trkpt><trkpt lat="45.81478101460063" lon="11.761816505062523"><ele>553.0</ele><time>2026-05-01T17:43:54.999Z</time></trkpt><trkpt lat="45.81466960440505" lon="11.761738289215069"><ele>553.0</ele><time>2026-05-01T17:43:55.999Z</time></trkpt><trkpt lat="45.814583435619035" lon="11.761658636616083"><ele>553.0</ele><time>2026-05-01T17:43:56.999Z</time></trkpt><trkpt lat="45.814500707441304" lon="11.761578413585013"><ele>553.0</ele><time>2026-05-01T17:43:57.999Z</time></trkpt><trkpt lat="45.81446330248912" lon="11.761467193122614"><ele>553.0</ele><time>2026-05-01T17:43:58.999Z</time></trkpt><trkpt lat="45.81436417265863" lon="11.761376163927615"><ele>553.0</ele><time>2026-05-01T17:44:00.999Z</time></trkpt><trkpt lat="45.81429625689245" lon="11.761567118430303"><ele>553.0</ele><time>2026-05-01T17:44:02.998Z</time></trkpt><trkpt lat="45.814382741895976" lon="11.761661828300385"><ele>553.0</ele><time>2026-05-01T17:44:03.998Z</time></trkpt><trkpt lat="45.81446590279556" lon="11.761743993939634"><ele>553.0</ele><time>2026-05-01T17:44:04.998Z</time></trkpt><trkpt lat="45.81454395538287" lon="11.761855073721446"><ele>553.0</ele><time>2026-05-01T17:44:05.998Z</time></trkpt><trkpt lat="45.81462135868544" lon="11.762007539296492"><ele>548.75</ele><time>2026-05-01T17:44:06.998Z</time></trkpt><trkpt lat="45.814709350168215" lon="11.76215988370514"><ele>544.5</ele><time>2026-05-01T17:44:07.998Z</time></trkpt><trkpt lat="45.81480113537425" lon="11.762332282721452"><ele>540.25</ele><time>2026-05-01T17:44:08.998Z</time></trkpt><trkpt lat="45.81488924149436" lon="11.762522442858204"><ele>536.0</ele><time>2026-05-01T17:44:09.998Z</time></trkpt><trkpt lat="45.81495496605921" lon="11.762732662171596"><ele>529.0</ele><time>2026-05-01T17:44:10.998Z</time></trkpt><trkpt lat="45.81499615523664" lon="11.762943270346799"><ele>522.0</ele><time>2026-05-01T17:44:11.998Z</time></trkpt><trkpt lat="45.81502583564952" lon="11.76317352061089"><ele>515.0</ele><time>2026-05-01T17:44:12.998Z</time></trkpt><trkpt lat="45.81503803715658" lon="11.76340161296167"><ele>520.0</ele><time>2026-05-01T17:44:13.998Z</time></trkpt><trkpt lat="45.81507877313147" lon="11.76359663933662"><ele>525.0</ele><time>2026-05-01T17:44:15Z</time></trkpt><trkpt lat="45.81511548711849" lon="11.763764369256881"><ele>530.0</ele><time>2026-05-01T17:44:16Z</time></trkpt><trkpt lat="45.81516118494152" lon="11.763863385197675"><ele>535.0</ele><time>2026-05-01T17:44:17Z</time></trkpt><trkpt lat="45.8152663008022" lon="11.764010960240956"><ele>535.0</ele><time>2026-05-01T17:44:18Z</time></trkpt><trkpt lat="45.815383554034696" lon="11.764141396194734"><ele>535.0</ele><time>2026-05-01T17:44:19Z</time></trkpt><trkpt lat="45.81549854096686" lon="11.764274978218458"><ele>535.0</ele><time>2026-05-01T17:44:20Z</time></trkpt><trkpt lat="45.81562048888291" lon="11.764414018155062"><ele>536.5</ele><time>2026-05-01T17:44:21Z</time></trkpt><trkpt lat="45.815731972007164" lon="11.764570314189486"><ele>538.0</ele><time>2026-05-01T17:44:22Z</time></trkpt><trkpt lat="45.81586542458029" lon="11.764685838709756"><ele>539.5</ele><time>2026-05-01T17:44:23Z</time></trkpt><trkpt lat="45.81598436221304" lon="11.764783719867065"><ele>541.0</ele><time>2026-05-01T17:44:24Z</time></trkpt><trkpt lat="45.81608574325644" lon="11.764878958113112"><ele>541.0</ele><time>2026-05-01T17:44:25Z</time></trkpt><trkpt lat="45.81616497825725" lon="11.764950026485554"><ele>541.0</ele><time>2026-05-01T17:44:26Z</time></trkpt><trkpt lat="45.816225156595664" lon="11.765010571753686"><ele>541.0</ele><time>2026-05-01T17:44:27Z</time></trkpt><trkpt lat="45.816245339525985" lon="11.765134015962012"><ele>541.0</ele><time>2026-05-01T17:44:29Z</time></trkpt><trkpt lat="45.816182457513996" lon="11.765161334044326"><ele>541.0</ele><time>2026-05-01T17:44:30Z</time></trkpt><trkpt lat="45.816119798862424" lon="11.764998863305868"><ele>541.0</ele><time>2026-05-01T17:44:31Z</time></trkpt><trkpt lat="45.8160453818167" lon="11.764891153191428"><ele>541.0</ele><time>2026-05-01T17:44:32Z</time></trkpt><trkpt lat="45.81593293006108" lon="11.76482125211494"><ele>541.0</ele><time>2026-05-01T17:44:33Z</time></trkpt><trkpt lat="45.81581478409494" lon="11.76471149825232"><ele>541.0</ele><time>2026-05-01T17:44:34Z</time></trkpt><trkpt lat="45.81568478862049" lon="11.764620155031356"><ele>525.3333333333334</ele><time>2026-05-01T17:44:35Z</time></trkpt><trkpt lat="45.81553714274154" lon="11.764530383203702"><ele>509.66666666666663</ele><time>2026-05-01T17:44:36Z</time></trkpt><trkpt lat="45.81537733646396" lon="11.764457475771179"><ele>494.0</ele><time>2026-05-01T17:44:37Z</time></trkpt><trkpt lat="45.81523765587881" lon="11.764371735790013"><ele>492.0</ele><time>2026-05-01T17:44:38Z</time></trkpt><trkpt lat="45.81510168693988" lon="11.76426791471474"><ele>490.0</ele><time>2026-05-01T17:44:39Z</time></trkpt><trkpt lat="45.814972070459206" lon="11.76417126611698"><ele>488.0</ele><time>2026-05-01T17:44:40Z</time></trkpt><trkpt lat="45.814883228395104" lon="11.764016150988018"><ele>486.0</ele><time>2026-05-01T17:44:41Z</time></trkpt><trkpt lat="45.814830438181204" lon="11.763826828736732"><ele>486.0</ele><time>2026-05-01T17:44:42Z</time></trkpt><trkpt lat="45.81479572360671" lon="11.76362754493602"><ele>486.0</ele><time>2026-05-01T17:44:43Z</time></trkpt><trkpt lat="45.814708300563694" lon="11.763462808230583"><ele>486.0</ele><time>2026-05-01T17:44:44Z</time></trkpt><trkpt lat="45.81459621940356" lon="11.76326837335842"><ele>477.33333333333337</ele><time>2026-05-01T17:44:45Z</time></trkpt><trkpt lat="45.81449474087898" lon="11.76310356700584"><ele>468.6666666666667</ele><time>2026-05-01T17:44:46Z</time></trkpt><trkpt lat="45.8143423203688" lon="11.762999180524684"><ele>460.0</ele><time>2026-05-01T17:44:47Z</time></trkpt><trkpt lat="45.814218135449735" lon="11.76285640180351"><ele>460.0</ele><time>2026-05-01T17:44:48Z</time></trkpt><trkpt lat="45.814099030054024" lon="11.76270254662747"><ele>460.0</ele><time>2026-05-01T17:44:49Z</time></trkpt><trkpt lat="45.81398045952498" lon="11.762542192813042"><ele>460.0</ele><time>2026-05-01T17:44:50Z</time></trkpt><trkpt lat="45.813867210227535" lon="11.762391994004282"><ele>468.25</ele><time>2026-05-01T17:44:51Z</time></trkpt><trkpt lat="45.813752772696944" lon="11.762247571027228"><ele>476.5</ele><time>2026-05-01T17:44:52Z</time></trkpt><trkpt lat="45.813669304923536" lon="11.762064929713738"><ele>484.75</ele><time>2026-05-01T17:44:53Z</time></trkpt><trkpt lat="45.81359609919226" lon="11.761917298936869"><ele>493.0</ele><time>2026-05-01T17:44:54Z</time></trkpt><trkpt lat="45.813533414894394" lon="11.761788761845954"><ele>485.59999999999997</ele><time>2026-05-01T17:44:55Z</time></trkpt><trkpt lat="45.813487311683296" lon="11.761664162236851"><ele>478.19999999999993</ele><time>2026-05-01T17:44:56Z</time></trkpt><trkpt lat="45.81343891843143" lon="11.761585831916085"><ele>470.8</ele><time>2026-05-01T17:44:57Z</time></trkpt><trkpt lat="45.813387477568355" lon="11.761532357285239"><ele>463.4</ele><time>2026-05-01T17:44:58Z</time></trkpt><trkpt lat="45.813299618147816" lon="11.761638919064263"><ele>456.0</ele><time>2026-05-01T17:45:00Z</time></trkpt><trkpt lat="45.81329685669168" lon="11.761819258963312"><ele>451.25</ele><time>2026-05-01T17:45:01Z</time></trkpt><trkpt lat="45.81338463487874" lon="11.761935483476147"><ele>446.5</ele><time>2026-05-01T17:45:02Z</time></trkpt><trkpt lat="45.81344282769266" lon="11.7620530065058"><ele>441.75</ele><time>2026-05-01T17:45:02.999Z</time></trkpt><trkpt lat="45.813505335583514" lon="11.762190199512366"><ele>437.0</ele><time>2026-05-01T17:45:03.999Z</time></trkpt><trkpt lat="45.813562250261796" lon="11.762362360953295"><ele>442.75</ele><time>2026-05-01T17:45:04.999Z</time></trkpt><trkpt lat="45.813623861021505" lon="11.762531388428446"><ele>448.5</ele><time>2026-05-01T17:45:05.999Z</time></trkpt><trkpt lat="45.81369888819822" lon="11.762720546261288"><ele>454.25</ele><time>2026-05-01T17:45:06.999Z</time></trkpt><trkpt lat="45.81379433721254" lon="11.762912859579767"><ele>460.0</ele><time>2026-05-01T17:45:07.999Z</time></trkpt><trkpt lat="45.81391255928499" lon="11.763090399781339"><ele>460.0</ele><time>2026-05-01T17:45:08.999Z</time></trkpt><trkpt lat="45.81399696755655" lon="11.763263020193609"><ele>460.0</ele><time>2026-05-01T17:45:09.999Z</time></trkpt><trkpt lat="45.81408926371508" lon="11.763455778123292"><ele>460.0</ele><time>2026-05-01T17:45:10.999Z</time></trkpt><trkpt lat="45.81418606712905" lon="11.763632823189345"><ele>452.33333333333337</ele><time>2026-05-01T17:45:11.999Z</time></trkpt><trkpt lat="45.81425167579436" lon="11.763842524986647"><ele>444.66666666666663</ele><time>2026-05-01T17:45:12.999Z</time></trkpt><trkpt lat="45.814296654688015" lon="11.764052199042412"><ele>437.0</ele><time>2026-05-01T17:45:13.999Z</time></trkpt><trkpt lat="45.81433004817124" lon="11.764284827749522"><ele>442.75</ele><time>2026-05-01T17:45:14.999Z</time></trkpt><trkpt lat="45.814363906510394" lon="11.76448341069832"><ele>448.5</ele><time>2026-05-01T17:45:15.999Z</time></trkpt><trkpt lat="45.81440948136622" lon="11.764618775054156"><ele>454.25</ele><time>2026-05-01T17:45:16.999Z</time></trkpt><trkpt lat="45.814533716946976" lon="11.764773256915433"><ele>460.0</ele><time>2026-05-01T17:45:17.999Z</time></trkpt><trkpt lat="45.81464340471767" lon="11.764965388187349"><ele>460.0</ele><time>2026-05-01T17:45:18.999Z</time></trkpt><trkpt lat="45.814769975914515" lon="11.765124926295266"><ele>460.0</ele><time>2026-05-01T17:45:19.999Z</time></trkpt><trkpt lat="45.81489782207711" lon="11.765265969974342"><ele>460.0</ele><time>2026-05-01T17:45:20.999Z</time></trkpt><trkpt lat="45.81501516827209" lon="11.765384017504275"><ele>462.2</ele><time>2026-05-01T17:45:21.999Z</time></trkpt><trkpt lat="45.81512566119451" lon="11.7654780544065"><ele>464.4</ele><time>2026-05-01T17:45:22.999Z</time></trkpt><trkpt lat="45.815215432350726" lon="11.76555948366847"><ele>466.6</ele><time>2026-05-01T17:45:23.999Z</time></trkpt><trkpt lat="45.81529104683876" lon="11.765628496757143"><ele>468.8</ele><time>2026-05-01T17:45:24.999Z</time></trkpt><trkpt lat="45.815358154646404" lon="11.765700525611182"><ele>471.0</ele><time>2026-05-01T17:45:26.999Z</time></trkpt><trkpt lat="45.815220711225315" lon="11.765595807460244"><ele>457.5</ele><time>2026-05-01T17:45:29.999Z</time></trkpt><trkpt lat="45.81513240966869" lon="11.765527253561222"><ele>444.0</ele><time>2026-05-01T17:45:30.999Z</time></trkpt><trkpt lat="45.81502815244763" lon="11.765426529639262"><ele>430.5</ele><time>2026-05-01T17:45:31.999Z</time></trkpt><trkpt lat="45.814897500698855" lon="11.765358940461226"><ele>417.0</ele><time>2026-05-01T17:45:32.999Z</time></trkpt><trkpt lat="45.81477085349318" lon="11.765265223841174"><ele>431.33333333333337</ele><time>2026-05-01T17:45:33.999Z</time></trkpt><trkpt lat="45.814619023921075" lon="11.765194407716642"><ele>445.6666666666667</ele><time>2026-05-01T17:45:34.999Z</time></trkpt><trkpt lat="45.81447921281643" lon="11.765069387880006"><ele>460.0</ele><time>2026-05-01T17:45:35.999Z</time></trkpt><trkpt lat="45.8143552131723" lon="11.76493767416083"><ele>442.33333333333337</ele><time>2026-05-01T17:45:36.999Z</time></trkpt><trkpt lat="45.81423810985108" lon="11.764830104836532"><ele>424.66666666666663</ele><time>2026-05-01T17:45:37.999Z</time></trkpt><trkpt lat="45.81414245906784" lon="11.764658857662157"><ele>407.0</ele><time>2026-05-01T17:45:38.999Z</time></trkpt><trkpt lat="45.81406080643684" lon="11.764465141069381"><ele>417.0</ele><time>2026-05-01T17:45:39.999Z</time></trkpt><trkpt lat="45.813961900294856" lon="11.764294475677298"><ele>427.0</ele><time>2026-05-01T17:45:40.999Z</time></trkpt><trkpt lat="45.81387525892043" lon="11.76410179457696"><ele>437.0</ele><time>2026-05-01T17:45:41.999Z</time></trkpt><trkpt lat="45.81375417322465" lon="11.763934281174638"><ele>437.0</ele><time>2026-05-01T17:45:42.999Z</time></trkpt><trkpt lat="45.81361734487988" lon="11.763798302307054"><ele>437.0</ele><time>2026-05-01T17:45:43.999Z</time></trkpt><trkpt lat="45.81350572731879" lon="11.76366779686084"><ele>437.0</ele><time>2026-05-01T17:45:44.999Z</time></trkpt><trkpt lat="45.81337869108181" lon="11.763518671907265"><ele>427.66666666666663</ele><time>2026-05-01T17:45:45.999Z</time></trkpt><trkpt lat="45.81324335558762" lon="11.763360025520928"><ele>418.33333333333337</ele><time>2026-05-01T17:45:46.999Z</time></trkpt><trkpt lat="45.81313261104001" lon="11.763225730958958"><ele>409.0</ele><time>2026-05-01T17:45:47.999Z</time></trkpt><trkpt lat="45.81304012850856" lon="11.763089601296086"><ele>409.00000000000006</ele><time>2026-05-01T17:45:48.999Z</time></trkpt><trkpt lat="45.81296201617881" lon="11.762956670581385"><ele>409.0</ele><time>2026-05-01T17:45:49.999Z</time></trkpt><trkpt lat="45.81290449032524" lon="11.762847225065194"><ele>409.0</ele><time>2026-05-01T17:45:50.999Z</time></trkpt><trkpt lat="45.81285479258859" lon="11.76278528560031"><ele>409.0</ele><time>2026-05-01T17:45:51.999Z</time></trkpt><trkpt lat="45.812753754892725" lon="11.762765919510679"><ele>409.00000000000006</ele><time>2026-05-01T17:45:53.999Z</time></trkpt><trkpt lat="45.812735159827774" lon="11.762854569628423"><ele>409.0</ele><time>2026-05-01T17:45:54.999Z</time></trkpt><trkpt lat="45.81276959858762" lon="11.762955441369819"><ele>409.0</ele><time>2026-05-01T17:45:55.999Z</time></trkpt><trkpt lat="45.812852454054" lon="11.76304102355205"><ele>409.0</ele><time>2026-05-01T17:45:56.999Z</time></trkpt><trkpt lat="45.81292813138424" lon="11.76314878548804"><ele>409.0</ele><time>2026-05-01T17:45:57.999Z</time></trkpt><trkpt lat="45.81300335613729" lon="11.763277962686608"><ele>409.0</ele><time>2026-05-01T17:45:58.999Z</time></trkpt><trkpt lat="45.81308111261067" lon="11.763434445438667"><ele>402.25</ele><time>2026-05-01T17:45:59.999Z</time></trkpt><trkpt lat="45.813153455009136" lon="11.763598358171306"><ele>395.5</ele><time>2026-05-01T17:46:00.999Z</time></trkpt><trkpt lat="45.81323716163928" lon="11.763772940558471"><ele>388.75</ele><time>2026-05-01T17:46:01.999Z</time></trkpt><trkpt lat="45.8133361848655" lon="11.763956370518132"><ele>382.0</ele><time>2026-05-01T17:46:02.999Z</time></trkpt><trkpt lat="45.81343198771299" lon="11.764151701299525"><ele>390.3333333333333</ele><time>2026-05-01T17:46:03.999Z</time></trkpt><trkpt lat="45.81351949950366" lon="11.764341264353376"><ele>398.66666666666663</ele><time>2026-05-01T17:46:04.999Z</time></trkpt><trkpt lat="45.81360393565928" lon="11.764526196906553"><ele>407.0</ele><time>2026-05-01T17:46:05.999Z</time></trkpt><trkpt lat="45.81365351034943" lon="11.764726931397442"><ele>407.0</ele><time>2026-05-01T17:46:06.999Z</time></trkpt><trkpt lat="45.8137165952215" lon="11.764923260931038"><ele>407.0</ele><time>2026-05-01T17:46:07.998Z</time></trkpt><trkpt lat="45.813782553744744" lon="11.76513993865441"><ele>407.0</ele><time>2026-05-01T17:46:08.998Z</time></trkpt><trkpt lat="45.81385918620532" lon="11.765338227630084"><ele>396.3333333333333</ele><time>2026-05-01T17:46:09.998Z</time></trkpt><trkpt lat="45.81393230312787" lon="11.765530012483717"><ele>385.66666666666663</ele><time>2026-05-01T17:46:10.998Z</time></trkpt><trkpt lat="45.814015371669015" lon="11.765705562158978"><ele>375.0</ele><time>2026-05-01T17:46:11.998Z</time></trkpt><trkpt lat="45.814116688534625" lon="11.765866329501325"><ele>375.0</ele><time>2026-05-01T17:46:12.998Z</time></trkpt><trkpt lat="45.81422936653329" lon="11.76601485457824"><ele>375.0</ele><time>2026-05-01T17:46:13.998Z</time></trkpt><trkpt lat="45.81434702321166" lon="11.76615137184017"><ele>375.0</ele><time>2026-05-01T17:46:14.998Z</time></trkpt><trkpt lat="45.814455349285225" lon="11.766285199941205"><ele>375.0</ele><time>2026-05-01T17:46:15.998Z</time></trkpt><trkpt lat="45.814547129491366" lon="11.766399083130784"><ele>377.25</ele><time>2026-05-01T17:46:16.998Z</time></trkpt><trkpt lat="45.814610454391726" lon="11.76652511114427"><ele>379.5</ele><time>2026-05-01T17:46:17.998Z</time></trkpt><trkpt lat="45.81465795704462" lon="11.766681766168096"><ele>381.75</ele><time>2026-05-01T17:46:18.998Z</time></trkpt><trkpt lat="45.8146745305973" lon="11.766843506113034"><ele>384.0</ele><time>2026-05-01T17:46:19.998Z</time></trkpt><trkpt lat="45.814701714576884" lon="11.767047630161994"><ele>384.0</ele><time>2026-05-01T17:46:21Z</time></trkpt><trkpt lat="45.81473542742019" lon="11.767265194983715"><ele>384.0</ele><time>2026-05-01T17:46:22Z</time></trkpt><trkpt lat="45.81478609721043" lon="11.767475887189669"><ele>384.0</ele><time>2026-05-01T17:46:23Z</time></trkpt><trkpt lat="45.814805185583005" lon="11.76770601359742"><ele>378.0</ele><time>2026-05-01T17:46:24Z</time></trkpt><trkpt lat="45.814851336453664" lon="11.767930445311812"><ele>372.0</ele><time>2026-05-01T17:46:25Z</time></trkpt><trkpt lat="45.81488762998989" lon="11.768148971110373"><ele>366.0</ele><time>2026-05-01T17:46:26Z</time></trkpt><trkpt lat="45.814924896435414" lon="11.768360126440651"><ele>360.5</ele><time>2026-05-01T17:46:27Z</time></trkpt><trkpt lat="45.81497468743808" lon="11.768562638157439"><ele>355.0</ele><time>2026-05-01T17:46:28Z</time></trkpt><trkpt lat="45.81502081463438" lon="11.768775051870378"><ele>349.5</ele><time>2026-05-01T17:46:29Z</time></trkpt><trkpt lat="45.81505328099807" lon="11.768962978481573"><ele>344.0</ele><time>2026-05-01T17:46:30Z</time></trkpt><trkpt lat="45.815105418750626" lon="11.769129899011661"><ele>352.6</ele><time>2026-05-01T17:46:31Z</time></trkpt><trkpt lat="45.81516597968751" lon="11.769277392937116"><ele>361.2</ele><time>2026-05-01T17:46:32Z</time></trkpt><trkpt lat="45.8152349134859" lon="11.769377549029327"><ele>369.8</ele><time>2026-05-01T17:46:33Z</time></trkpt><trkpt lat="45.81528080708131" lon="11.769463110108854"><ele>378.40000000000003</ele><time>2026-05-01T17:46:34Z</time></trkpt><trkpt lat="45.815279254006605" lon="11.769597800364672"><ele>387.0</ele><time>2026-05-01T17:46:36Z</time></trkpt><trkpt lat="45.81516348100197" lon="11.769517141484872"><ele>376.25</ele><time>2026-05-01T17:46:38Z</time></trkpt><trkpt lat="45.81512963801035" lon="11.769377727459991"><ele>365.5</ele><time>2026-05-01T17:46:39Z</time></trkpt><trkpt lat="45.815081626978454" lon="11.769260994827231"><ele>354.75</ele><time>2026-05-01T17:46:40Z</time></trkpt><trkpt lat="45.81504536445342" lon="11.76910592723236"><ele>344.0</ele><time>2026-05-01T17:46:41Z</time></trkpt><trkpt lat="45.81498017177091" lon="11.768913882675303"><ele>344.0</ele><time>2026-05-01T17:46:42Z</time></trkpt><trkpt lat="45.81489814905666" lon="11.768743099432585"><ele>344.0</ele><time>2026-05-01T17:46:43Z</time></trkpt><trkpt lat="45.814825933951234" lon="11.768552488507105"><ele>344.0</ele><time>2026-05-01T17:46:44Z</time></trkpt><trkpt lat="45.81473359373954" lon="11.768326540933977"><ele>351.33333333333337</ele><time>2026-05-01T17:46:45Z</time></trkpt><trkpt lat="45.81464928788783" lon="11.76812961235221"><ele>358.6666666666667</ele><time>2026-05-01T17:46:46Z</time></trkpt><trkpt lat="45.81456946875615" lon="11.767910810259869"><ele>366.0</ele><time>2026-05-01T17:46:47Z</time></trkpt><trkpt lat="45.81449342690387" lon="11.767691654106509"><ele>370.5</ele><time>2026-05-01T17:46:48Z</time></trkpt><trkpt lat="45.81443082678138" lon="11.767484941106238"><ele>375.0</ele><time>2026-05-01T17:46:49Z</time></trkpt><trkpt lat="45.814378653209694" lon="11.767287017100369"><ele>379.5</ele><time>2026-05-01T17:46:50Z</time></trkpt><trkpt lat="45.81433887930718" lon="11.767114915373435"><ele>384.0</ele><time>2026-05-01T17:46:51Z</time></trkpt><trkpt lat="45.81430514419774" lon="11.766969489389028"><ele>374.0</ele><time>2026-05-01T17:46:52Z</time></trkpt><trkpt lat="45.81424662250276" lon="11.766856701209194"><ele>364.0</ele><time>2026-05-01T17:46:53Z</time></trkpt><trkpt lat="45.81415378312344" lon="11.76671614799247"><ele>354.0</ele><time>2026-05-01T17:46:54Z</time></trkpt><trkpt lat="45.81401612850218" lon="11.76661214372226"><ele>344.0</ele><time>2026-05-01T17:46:55Z</time></trkpt><trkpt lat="45.81388877926256" lon="11.76651396652357"><ele>344.0</ele><time>2026-05-01T17:46:56Z</time></trkpt><trkpt lat="45.81375598663363" lon="11.766407252561963"><ele>344.0</ele><time>2026-05-01T17:46:57Z</time></trkpt><trkpt lat="45.81364724366949" lon="11.76631477388605"><ele>344.0</ele><time>2026-05-01T17:46:58Z</time></trkpt><trkpt lat="45.81352454837209" lon="11.766209293634331"><ele>344.0</ele><time>2026-05-01T17:46:59Z</time></trkpt><trkpt lat="45.813409935375645" lon="11.766067820652516"><ele>337.33333333333337</ele><time>2026-05-01T17:47:00Z</time></trkpt><trkpt lat="45.813280364975256" lon="11.765866367877411"><ele>330.6666666666667</ele><time>2026-05-01T17:47:01Z</time></trkpt><trkpt lat="45.81317942963165" lon="11.765680500710758"><ele>324.0</ele><time>2026-05-01T17:47:02Z</time></trkpt><trkpt lat="45.813086691232435" lon="11.765499770082132"><ele>324.0</ele><time>2026-05-01T17:47:03Z</time></trkpt><trkpt lat="45.81300731970135" lon="11.765321463453017"><ele>324.0</ele><time>2026-05-01T17:47:04Z</time></trkpt><trkpt lat="45.81292176361299" lon="11.765157178035267"><ele>324.0</ele><time>2026-05-01T17:47:05Z</time></trkpt><trkpt lat="45.81279832628634" lon="11.765066177322078"><ele>324.0</ele><time>2026-05-01T17:47:06Z</time></trkpt><trkpt lat="45.81265244407105" lon="11.764984494662876"><ele>316.3333333333333</ele><time>2026-05-01T17:47:07Z</time></trkpt><trkpt lat="45.81253568589873" lon="11.764860014763386"><ele>308.66666666666663</ele><time>2026-05-01T17:47:07.999Z</time></trkpt><trkpt lat="45.81242337099452" lon="11.76471874912017"><ele>301.0</ele><time>2026-05-01T17:47:08.999Z</time></trkpt><trkpt lat="45.81230961303717" lon="11.764565978303718"><ele>301.0</ele><time>2026-05-01T17:47:09.999Z</time></trkpt><trkpt lat="45.81219910749638" lon="11.7644138832496"><ele>301.0</ele><time>2026-05-01T17:47:10.999Z</time></trkpt><trkpt lat="45.81208520196102" lon="11.76424975136861"><ele>301.0</ele><time>2026-05-01T17:47:11.999Z</time></trkpt><trkpt lat="45.81197079628319" lon="11.764087154756512"><ele>294.3333333333333</ele><time>2026-05-01T17:47:12.999Z</time></trkpt><trkpt lat="45.811857251889506" lon="11.763921839644292"><ele>287.6666666666667</ele><time>2026-05-01T17:47:13.999Z</time></trkpt><trkpt lat="45.81175439657627" lon="11.76374942173398"><ele>281.0</ele><time>2026-05-01T17:47:14.999Z</time></trkpt><trkpt lat="45.811659038955995" lon="11.763588043634515"><ele>286.75</ele><time>2026-05-01T17:47:15.999Z</time></trkpt><trkpt lat="45.811547199180744" lon="11.763452561188355"><ele>292.5</ele><time>2026-05-01T17:47:16.999Z</time></trkpt><trkpt lat="45.81147020856056" lon="11.763281291487802"><ele>298.25</ele><time>2026-05-01T17:47:17.999Z</time></trkpt><trkpt lat="45.81139641852446" lon="11.763116836730537"><ele>304.0</ele><time>2026-05-01T17:47:18.999Z</time></trkpt><trkpt lat="45.81134459620677" lon="11.762928791375913"><ele>304.0</ele><time>2026-05-01T17:47:19.999Z</time></trkpt><trkpt lat="45.811302014792446" lon="11.762727894553349"><ele>304.0</ele><time>2026-05-01T17:47:20.999Z</time></trkpt><trkpt lat="45.81125943141711" lon="11.762518480254144"><ele>304.0</ele><time>2026-05-01T17:47:21.999Z</time></trkpt><trkpt lat="45.81125336904956" lon="11.762311268533375"><ele>304.0</ele><time>2026-05-01T17:47:22.999Z</time></trkpt><trkpt lat="45.81123848180811" lon="11.762127679134133"><ele>306.16666666666663</ele><time>2026-05-01T17:47:23.999Z</time></trkpt><trkpt lat="45.81123754115146" lon="11.761969849016715"><ele>308.3333333333333</ele><time>2026-05-01T17:47:24.999Z</time></trkpt><trkpt lat="45.81124289724506" lon="11.76182616878536"><ele>310.5</ele><time>2026-05-01T17:47:25.999Z</time></trkpt><trkpt lat="45.81124786999006" lon="11.76172084855662"><ele>312.6666666666667</ele><time>2026-05-01T17:47:26.999Z</time></trkpt><trkpt lat="45.81124697997292" lon="11.761613442583153"><ele>314.83333333333337</ele><time>2026-05-01T17:47:27.999Z</time></trkpt><trkpt lat="45.81120683002994" lon="11.7615290541664"><ele>317.0</ele><time>2026-05-01T17:47:28.999Z</time></trkpt><trkpt lat="45.81112434781739" lon="11.761579933597586"><ele>317.0</ele><time>2026-05-01T17:47:29.999Z</time></trkpt><trkpt lat="45.81107309463869" lon="11.761657549090744"><ele>317.0</ele><time>2026-05-01T17:47:30.999Z</time></trkpt><trkpt lat="45.81110725943033" lon="11.76184503344986"><ele>317.0</ele><time>2026-05-01T17:47:31.999Z</time></trkpt><trkpt lat="45.81108804264293" lon="11.761984195259835"><ele>317.0</ele><time>2026-05-01T17:47:32.999Z</time></trkpt><trkpt lat="45.811082592298426" lon="11.762166935174994"><ele>317.0</ele><time>2026-05-01T17:47:33.999Z</time></trkpt><trkpt lat="45.811076664084396" lon="11.762365696735397"><ele>317.5</ele><time>2026-05-01T17:47:34.999Z</time></trkpt><trkpt lat="45.81107225979511" lon="11.762573068782261"><ele>318.0</ele><time>2026-05-01T17:47:35.999Z</time></trkpt><trkpt lat="45.81107055654228" lon="11.762792638257006"><ele>318.5</ele><time>2026-05-01T17:47:36.999Z</time></trkpt><trkpt lat="45.811072872128335" lon="11.762998094812344"><ele>319.0</ele><time>2026-05-01T17:47:37.999Z</time></trkpt><trkpt lat="45.811100337967844" lon="11.76319308414022"><ele>315.25</ele><time>2026-05-01T17:47:38.999Z</time></trkpt><trkpt lat="45.81113195184856" lon="11.76337606276427"><ele>311.5</ele><time>2026-05-01T17:47:39.999Z</time></trkpt><trkpt lat="45.81117643063402" lon="11.763576634732821"><ele>307.75</ele><time>2026-05-01T17:47:40.999Z</time></trkpt><trkpt lat="45.81125751294322" lon="11.76376135652995"><ele>304.0</ele><time>2026-05-01T17:47:41.999Z</time></trkpt><trkpt lat="45.81131680918162" lon="11.764000426086207"><ele>296.3333333333333</ele><time>2026-05-01T17:47:42.999Z</time></trkpt><trkpt lat="45.81138649858745" lon="11.764216207536668"><ele>288.6666666666667</ele><time>2026-05-01T17:47:43.999Z</time></trkpt><trkpt lat="45.811453027020654" lon="11.764444691903597"><ele>281.0</ele><time>2026-05-01T17:47:44.999Z</time></trkpt><trkpt lat="45.811528731034464" lon="11.764668992956297"><ele>273.6666666666667</ele><time>2026-05-01T17:47:45.999Z</time></trkpt><trkpt lat="45.81160846869324" lon="11.764885530338855"><ele>266.3333333333333</ele><time>2026-05-01T17:47:46.999Z</time></trkpt><trkpt lat="45.81168603299602" lon="11.765097525043789"><ele>259.0</ele><time>2026-05-01T17:47:47.999Z</time></trkpt><trkpt lat="45.81175956464192" lon="11.76530681189044"><ele>265.0</ele><time>2026-05-01T17:47:48.999Z</time></trkpt><trkpt lat="45.81183828505017" lon="11.765510990340614"><ele>271.0</ele><time>2026-05-01T17:47:49.999Z</time></trkpt><trkpt lat="45.81193339178519" lon="11.76570414012732"><ele>277.0</ele><time>2026-05-01T17:47:50.999Z</time></trkpt><trkpt lat="45.81203956199542" lon="11.765869324685683"><ele>277.0</ele><time>2026-05-01T17:47:51.999Z</time></trkpt><trkpt lat="45.81212476995813" lon="11.766017354801985"><ele>277.0</ele><time>2026-05-01T17:47:52.999Z</time></trkpt><trkpt lat="45.81218814358811" lon="11.766168366912702"><ele>277.0</ele><time>2026-05-01T17:47:53.999Z</time></trkpt><trkpt lat="45.8122206256948" lon="11.766336431781747"><ele>277.0</ele><time>2026-05-01T17:47:54.999Z</time></trkpt><trkpt lat="45.81223904303713" lon="11.766550174339285"><ele>272.25</ele><time>2026-05-01T17:47:55.999Z</time></trkpt><trkpt lat="45.81230602903701" lon="11.766773468682361"><ele>267.5</ele><time>2026-05-01T17:47:56.999Z</time></trkpt><trkpt lat="45.81237117492736" lon="11.766959634309377"><ele>262.75</ele><time>2026-05-01T17:47:57.999Z</time></trkpt><trkpt lat="45.812429522517945" lon="11.76713227763615"><ele>258.0</ele><time>2026-05-01T17:47:58.999Z</time></trkpt><trkpt lat="45.81248635760951" lon="11.767315862839975"><ele>252.5</ele><time>2026-05-01T17:47:59.999Z</time></trkpt><trkpt lat="45.81252649471099" lon="11.767511159213992"><ele>247.0</ele><time>2026-05-01T17:48:00.999Z</time></trkpt><trkpt lat="45.81255612458918" lon="11.767716848475674"><ele>241.5</ele><time>2026-05-01T17:48:01.999Z</time></trkpt><trkpt lat="45.812580930038905" lon="11.767899680598198"><ele>236.0</ele><time>2026-05-01T17:48:02.999Z</time></trkpt><trkpt lat="45.812611605279294" lon="11.76809976636545"><ele>237.0</ele><time>2026-05-01T17:48:03.999Z</time></trkpt><trkpt lat="45.812657732125146" lon="11.768295248090286"><ele>238.0</ele><time>2026-05-01T17:48:04.999Z</time></trkpt><trkpt lat="45.8127329946447" lon="11.768461905388275"><ele>239.0</ele><time>2026-05-01T17:48:05.999Z</time></trkpt><trkpt lat="45.81282420454845" lon="11.768619855590602"><ele>240.0</ele><time>2026-05-01T17:48:06.999Z</time></trkpt><trkpt lat="45.812874758878905" lon="11.76879158664714"><ele>240.0</ele><time>2026-05-01T17:48:07.999Z</time></trkpt><trkpt lat="45.81292069611388" lon="11.769001614898572"><ele>240.0</ele><time>2026-05-01T17:48:08.999Z</time></trkpt><trkpt lat="45.81296334715154" lon="11.769196618748543"><ele>240.0</ele><time>2026-05-01T17:48:09.999Z</time></trkpt><trkpt lat="45.81300867125492" lon="11.769393778730326"><ele>240.0</ele><time>2026-05-01T17:48:10.999Z</time></trkpt><trkpt lat="45.81305460043909" lon="11.769591517217151"><ele>237.0</ele><time>2026-05-01T17:48:11.999Z</time></trkpt><trkpt lat="45.81314118908621" lon="11.76976919325965"><ele>234.0</ele><time>2026-05-01T17:48:12.998Z</time></trkpt><trkpt lat="45.8131736144438" lon="11.769945997531096"><ele>231.0</ele><time>2026-05-01T17:48:13.998Z</time></trkpt><trkpt lat="45.81320832737628" lon="11.770103888854333"><ele>228.0</ele><time>2026-05-01T17:48:14.998Z</time></trkpt><trkpt lat="45.81323453649727" lon="11.770246981644393"><ele>226.83333333333334</ele><time>2026-05-01T17:48:15.998Z</time></trkpt><trkpt lat="45.81320207824105" lon="11.770390075961759"><ele>225.66666666666669</ele><time>2026-05-01T17:48:16.998Z</time></trkpt><trkpt lat="45.81318990397429" lon="11.77051265164756"><ele>224.5</ele><time>2026-05-01T17:48:17.998Z</time></trkpt><trkpt lat="45.81314653676453" lon="11.770643559245896"><ele>223.33333333333334</ele><time>2026-05-01T17:48:18.998Z</time></trkpt><trkpt lat="45.81311698389045" lon="11.770753100159748"><ele>222.16666666666669</ele><time>2026-05-01T17:48:19.998Z</time></trkpt><trkpt lat="45.8130655423731" lon="11.770818992844317"><ele>221.0</ele><time>2026-05-01T17:48:20.998Z</time></trkpt><trkpt lat="45.81302887118423" lon="11.77092486715255"><ele>220.20000000000002</ele><time>2026-05-01T17:48:22.998Z</time></trkpt><trkpt lat="45.81300989332313" lon="11.771044002204908"><ele>219.40000000000003</ele><time>2026-05-01T17:49:08Z</time></trkpt><trkpt lat="45.81302711527374" lon="11.771211442734664"><ele>218.6</ele><time>2026-05-01T17:49:10Z</time></trkpt><trkpt lat="45.81302837217833" lon="11.771319377616674"><ele>217.8</ele><time>2026-05-01T17:49:11Z</time></trkpt><trkpt lat="45.812998337368924" lon="11.771487563418676"><ele>217.0</ele><time>2026-05-01T17:49:12Z</time></trkpt><trkpt lat="45.8129474562373" lon="11.771645201607896"><ele>217.0</ele><time>2026-05-01T17:49:13Z</time></trkpt><trkpt lat="45.81290084106551" lon="11.77179003565192"><ele>217.0</ele><time>2026-05-01T17:49:13.999Z</time></trkpt><trkpt lat="45.81283672375408" lon="11.771921622684465"><ele>217.0</ele><time>2026-05-01T17:49:14.999Z</time></trkpt><trkpt lat="45.812772310205546" lon="11.772054041406049"><ele>217.0</ele><time>2026-05-01T17:49:15.999Z</time></trkpt><trkpt lat="45.81269280056682" lon="11.772179150690429"><ele>214.8</ele><time>2026-05-01T17:49:16.999Z</time></trkpt><trkpt lat="45.8126015897365" lon="11.772270449084411"><ele>212.6</ele><time>2026-05-01T17:49:17.999Z</time></trkpt><trkpt lat="45.81251778460183" lon="11.772392160852815"><ele>210.4</ele><time>2026-05-01T17:49:18.999Z</time></trkpt><trkpt lat="45.812437389721026" lon="11.772488698384116"><ele>208.20000000000002</ele><time>2026-05-01T17:49:19.999Z</time></trkpt><trkpt lat="45.81236298387915" lon="11.772587822419093"><ele>206.0</ele><time>2026-05-01T17:49:20.999Z</time></trkpt><trkpt lat="45.81228486624168" lon="11.772686141441946"><ele>206.20000000000002</ele><time>2026-05-01T17:49:21.999Z</time></trkpt><trkpt lat="45.812202276925994" lon="11.772781036004371"><ele>206.4</ele><time>2026-05-01T17:49:22.999Z</time></trkpt><trkpt lat="45.81212054257301" lon="11.772882015979848"><ele>206.6</ele><time>2026-05-01T17:49:23.999Z</time></trkpt><trkpt lat="45.81204210737677" lon="11.77298243935559"><ele>206.8</ele><time>2026-05-01T17:49:24.999Z</time></trkpt><trkpt lat="45.81196137836911" lon="11.773080363238298"><ele>207.0</ele><time>2026-05-01T17:49:25.999Z</time></trkpt><trkpt lat="45.811889285568064" lon="11.773174252707399"><ele>205.39999999999998</ele><time>2026-05-01T17:49:26.999Z</time></trkpt><trkpt lat="45.81181844803673" lon="11.773273301917005"><ele>203.79999999999998</ele><time>2026-05-01T17:49:27.999Z</time></trkpt><trkpt lat="45.811732583119735" lon="11.773353482913253"><ele>202.2</ele><time>2026-05-01T17:49:28.999Z</time></trkpt><trkpt lat="45.81164343910295" lon="11.77340650184215"><ele>200.6</ele><time>2026-05-01T17:49:29.999Z</time></trkpt><trkpt lat="45.81153873777751" lon="11.773398820061827"><ele>199.0</ele><time>2026-05-01T17:49:30.999Z</time></trkpt><trkpt lat="45.811445247307994" lon="11.773382973957315"><ele>199.0</ele><time>2026-05-01T17:49:31.999Z</time></trkpt><trkpt lat="45.81136878192527" lon="11.773397922439678"><ele>199.0</ele><time>2026-05-01T17:49:32.999Z</time></trkpt><trkpt lat="45.81129540565455" lon="11.773474181215827"><ele>199.0</ele><time>2026-05-01T17:49:33.999Z</time></trkpt><trkpt lat="45.81124119842311" lon="11.773596915987763"><ele>199.0</ele><time>2026-05-01T17:49:34.999Z</time></trkpt><trkpt lat="45.81120416200664" lon="11.77372761313176"><ele>199.0</ele><time>2026-05-01T17:49:35.999Z</time></trkpt><trkpt lat="45.811167496180154" lon="11.77387392228018"><ele>199.25</ele><time>2026-05-01T17:49:36.999Z</time></trkpt><trkpt lat="45.81111210588238" lon="11.77402446420302"><ele>199.5</ele><time>2026-05-01T17:49:37.999Z</time></trkpt><trkpt lat="45.81104977254524" lon="11.774172130243855"><ele>199.75</ele><time>2026-05-01T17:49:38.999Z</time></trkpt><trkpt lat="45.81097886463064" lon="11.77432143699824"><ele>200.0</ele><time>2026-05-01T17:49:39.999Z</time></trkpt><trkpt lat="45.81090753095843" lon="11.774471281496943"><ele>198.0</ele><time>2026-05-01T17:49:40.999Z</time></trkpt><trkpt lat="45.81082189378451" lon="11.77463549512282"><ele>196.0</ele><time>2026-05-01T17:49:41.999Z</time></trkpt><trkpt lat="45.81074787204656" lon="11.774794767608235"><ele>194.0</ele><time>2026-05-01T17:49:42.999Z</time></trkpt><trkpt lat="45.81066843822234" lon="11.774948293060671"><ele>192.0</ele><time>2026-05-01T17:49:43.999Z</time></trkpt><trkpt lat="45.81057018567532" lon="11.775080741983478"><ele>192.75</ele><time>2026-05-01T17:49:44.999Z</time></trkpt><trkpt lat="45.81048720986966" lon="11.775206188784423"><ele>193.5</ele><time>2026-05-01T17:49:45.999Z</time></trkpt><trkpt lat="45.810380564678724" lon="11.775297510298323"><ele>194.25</ele><time>2026-05-01T17:49:46.999Z</time></trkpt><trkpt lat="45.81031102388186" lon="11.77543814535711"><ele>195.0</ele><time>2026-05-01T17:49:47.999Z</time></trkpt><trkpt lat="45.8102470865318" lon="11.775552390823401"><ele>195.0</ele><time>2026-05-01T17:49:48.999Z</time></trkpt><trkpt lat="45.81017583979544" lon="11.775634533789423"><ele>195.0</ele><time>2026-05-01T17:49:49.999Z</time></trkpt><trkpt lat="45.81007539008397" lon="11.775761688529846"><ele>195.0</ele><time>2026-05-01T17:49:50.999Z</time></trkpt><trkpt lat="45.80998534864671" lon="11.775892528370257"><ele>195.0</ele><time>2026-05-01T17:49:51.999Z</time></trkpt><trkpt lat="45.80988958688743" lon="11.776018020224774"><ele>193.5</ele><time>2026-05-01T17:49:52.999Z</time></trkpt><trkpt lat="45.80979645321174" lon="11.776150954229733"><ele>192.0</ele><time>2026-05-01T17:49:53.999Z</time></trkpt><trkpt lat="45.80970465762675" lon="11.776300547946972"><ele>190.5</ele><time>2026-05-01T17:49:54.999Z</time></trkpt><trkpt lat="45.80960579835581" lon="11.776441152629387"><ele>189.0</ele><time>2026-05-01T17:49:55.999Z</time></trkpt><trkpt lat="45.80952639680932" lon="11.776595887714826"><ele>189.0</ele><time>2026-05-01T17:49:56.999Z</time></trkpt><trkpt lat="45.80943629002093" lon="11.776768480723014"><ele>189.0</ele><time>2026-05-01T17:49:57.999Z</time></trkpt><trkpt lat="45.80934925140029" lon="11.776929875077208"><ele>189.0</ele><time>2026-05-01T17:49:58.999Z</time></trkpt><trkpt lat="45.80925825290899" lon="11.777104774083503"><ele>189.0</ele><time>2026-05-01T17:49:59.999Z</time></trkpt><trkpt lat="45.809171661400775" lon="11.777281906134524"><ele>186.66666666666666</ele><time>2026-05-01T17:50:00.999Z</time></trkpt><trkpt lat="45.809089695976255" lon="11.7774628212125"><ele>184.33333333333331</ele><time>2026-05-01T17:50:01.999Z</time></trkpt><trkpt lat="45.80901216328342" lon="11.77765985036872"><ele>182.0</ele><time>2026-05-01T17:50:02.999Z</time></trkpt><trkpt lat="45.808944897548656" lon="11.777857274648806"><ele>182.0</ele><time>2026-05-01T17:50:03.999Z</time></trkpt><trkpt lat="45.80888271770314" lon="11.778062316867398"><ele>182.0</ele><time>2026-05-01T17:50:04.999Z</time></trkpt><trkpt lat="45.808827898564445" lon="11.77825404048875"><ele>182.0</ele><time>2026-05-01T17:50:05.999Z</time></trkpt><trkpt lat="45.808770649177234" lon="11.778438608979846"><ele>182.0</ele><time>2026-05-01T17:50:06.999Z</time></trkpt><trkpt lat="45.80871783718505" lon="11.778616111904514"><ele>182.0</ele><time>2026-05-01T17:50:07.999Z</time></trkpt><trkpt lat="45.80867128871102" lon="11.778781780829634"><ele>182.0</ele><time>2026-05-01T17:50:08.999Z</time></trkpt><trkpt lat="45.80862496123514" lon="11.778939799570887"><ele>182.0</ele><time>2026-05-01T17:50:09.999Z</time></trkpt><trkpt lat="45.80857989621859" lon="11.779095994873787"><ele>182.0</ele><time>2026-05-01T17:50:10.999Z</time></trkpt><trkpt lat="45.80852493521666" lon="11.77925875677398"><ele>180.5</ele><time>2026-05-01T17:50:11.999Z</time></trkpt><trkpt lat="45.808459414112804" lon="11.779409745789668"><ele>179.0</ele><time>2026-05-01T17:50:12.999Z</time></trkpt><trkpt lat="45.80838914602658" lon="11.779565021522986"><ele>177.5</ele><time>2026-05-01T17:50:13.999Z</time></trkpt><trkpt lat="45.80829544985914" lon="11.77969382197734"><ele>176.0</ele><time>2026-05-01T17:50:14.999Z</time></trkpt><trkpt lat="45.808216609186786" lon="11.77983975147269"><ele>176.0</ele><time>2026-05-01T17:50:15.999Z</time></trkpt><trkpt lat="45.80814171967269" lon="11.779974177229697"><ele>176.0</ele><time>2026-05-01T17:50:16.999Z</time></trkpt><trkpt lat="45.80808292791013" lon="11.780087616879825"><ele>176.0</ele><time>2026-05-01T17:50:17.999Z</time></trkpt><trkpt lat="45.80802548447873" lon="11.780184571486869"><ele>176.0</ele><time>2026-05-01T17:50:18.998Z</time></trkpt><trkpt lat="45.80799024943726" lon="11.780262939046466"><ele>176.0</ele><time>2026-05-01T17:50:19.998Z</time></trkpt><trkpt lat="45.80793754297681" lon="11.780319745925633"><ele>176.0</ele><time>2026-05-01T17:50:20.998Z</time></trkpt><trkpt lat="45.8078635028126" lon="11.7803665828276"><ele>176.16666666666666</ele><time>2026-05-01T17:50:22.998Z</time></trkpt><trkpt lat="45.80782457730549" lon="11.780471157773274"><ele>176.33333333333331</ele><time>2026-05-01T17:50:27.998Z</time></trkpt><trkpt lat="45.80784200648389" lon="11.780570399452918"><ele>176.5</ele><time>2026-05-01T17:50:28.998Z</time></trkpt><trkpt lat="45.80788502410909" lon="11.78066373602939"><ele>176.66666666666666</ele><time>2026-05-01T17:50:29.998Z</time></trkpt><trkpt lat="45.80791432823216" lon="11.780766404371722"><ele>176.83333333333334</ele><time>2026-05-01T17:50:30.998Z</time></trkpt><trkpt lat="45.80795577690647" lon="11.780896142362584"><ele>177.0</ele><time>2026-05-01T17:50:31.998Z</time></trkpt><trkpt lat="45.80799943002862" lon="11.781040514820633"><ele>177.0</ele><time>2026-05-01T17:50:33Z</time></trkpt><trkpt lat="45.80804573143561" lon="11.781173912645045"><ele>177.0</ele><time>2026-05-01T17:50:34Z</time></trkpt><trkpt lat="45.80810145627833" lon="11.781324578817653"><ele>177.0</ele><time>2026-05-01T17:50:35Z</time></trkpt><trkpt lat="45.80815209392883" lon="11.781490622789137"><ele>177.0</ele><time>2026-05-01T17:50:36Z</time></trkpt><trkpt lat="45.808205531800645" lon="11.781659052620606"><ele>177.0</ele><time>2026-05-01T17:50:37Z</time></trkpt><trkpt lat="45.80826451808253" lon="11.781839856976639"><ele>177.0</ele><time>2026-05-01T17:50:38Z</time></trkpt><trkpt lat="45.808320592117184" lon="11.782029673527722"><ele>177.0</ele><time>2026-05-01T17:50:39Z</time></trkpt><trkpt lat="45.8083787510059" lon="11.78222150919266"><ele>177.0</ele><time>2026-05-01T17:50:40Z</time></trkpt><trkpt lat="45.8084414832301" lon="11.782415218105797"><ele>179.33333333333334</ele><time>2026-05-01T17:50:41Z</time></trkpt><trkpt lat="45.80850481367537" lon="11.782610293677358"><ele>181.66666666666669</ele><time>2026-05-01T17:50:42Z</time></trkpt><trkpt lat="45.80856609655265" lon="11.782810105403524"><ele>184.0</ele><time>2026-05-01T17:50:43Z</time></trkpt><trkpt lat="45.80863251679609" lon="11.783011736854236"><ele>184.0</ele><time>2026-05-01T17:50:44Z</time></trkpt><trkpt lat="45.80869976405839" lon="11.78322522870622"><ele>184.0</ele><time>2026-05-01T17:50:45Z</time></trkpt><trkpt lat="45.80877270750301" lon="11.783417725792035"><ele>184.0</ele><time>2026-05-01T17:50:46Z</time></trkpt><trkpt lat="45.80883429075314" lon="11.783619586406193"><ele>182.66666666666669</ele><time>2026-05-01T17:50:47Z</time></trkpt><trkpt lat="45.808900927763176" lon="11.78381836332112"><ele>181.33333333333334</ele><time>2026-05-01T17:50:48Z</time></trkpt><trkpt lat="45.80896462559439" lon="11.784027617408295"><ele>180.0</ele><time>2026-05-01T17:50:49Z</time></trkpt><trkpt lat="45.80902827154435" lon="11.784237782163048"><ele>179.33333333333334</ele><time>2026-05-01T17:50:50Z</time></trkpt><trkpt lat="45.80909615634577" lon="11.78444465157163"><ele>178.66666666666669</ele><time>2026-05-01T17:50:51Z</time></trkpt><trkpt lat="45.80916323528967" lon="11.784660093597493"><ele>178.0</ele><time>2026-05-01T17:50:52Z</time></trkpt><trkpt lat="45.80923076532112" lon="11.78487799941634"><ele>178.0</ele><time>2026-05-01T17:50:53Z</time></trkpt><trkpt lat="45.80929622171415" lon="11.785099494814704"><ele>178.0</ele><time>2026-05-01T17:50:54Z</time></trkpt><trkpt lat="45.80936955188328" lon="11.78531616302649"><ele>178.0</ele><time>2026-05-01T17:50:55Z</time></trkpt><trkpt lat="45.8094364074001" lon="11.785533144479652"><ele>179.0</ele><time>2026-05-01T17:50:56Z</time></trkpt><trkpt lat="45.809512564578476" lon="11.785755549913768"><ele>180.0</ele><time>2026-05-01T17:50:57Z</time></trkpt><trkpt lat="45.809583700324474" lon="11.785973351373471"><ele>181.0</ele><time>2026-05-01T17:50:58Z</time></trkpt><trkpt lat="45.80965751129548" lon="11.78618567164417"><ele>181.0</ele><time>2026-05-01T17:50:59Z</time></trkpt><trkpt lat="45.80971727868882" lon="11.786410162631867"><ele>181.0</ele><time>2026-05-01T17:51:00Z</time></trkpt><trkpt lat="45.80979131217395" lon="11.786630986903285"><ele>181.0</ele><time>2026-05-01T17:51:01Z</time></trkpt><trkpt lat="45.809877842261486" lon="11.786851816413952"><ele>181.33333333333334</ele><time>2026-05-01T17:51:02Z</time></trkpt><trkpt lat="45.80998452662616" lon="11.78704702980783"><ele>181.66666666666666</ele><time>2026-05-01T17:51:03Z</time></trkpt><trkpt lat="45.8100846634536" lon="11.787242380402892"><ele>182.0</ele><time>2026-05-01T17:51:04Z</time></trkpt><trkpt lat="45.81020628547249" lon="11.787414661147997"><ele>182.0</ele><time>2026-05-01T17:51:05Z</time></trkpt><trkpt lat="45.81033273602877" lon="11.787583805521992"><ele>182.0</ele><time>2026-05-01T17:51:06Z</time></trkpt><trkpt lat="45.81046671792279" lon="11.787744534607198"><ele>182.0</ele><time>2026-05-01T17:51:07Z</time></trkpt><trkpt lat="45.81059923654536" lon="11.787908408469907"><ele>181.66666666666666</ele><time>2026-05-01T17:51:08Z</time></trkpt><trkpt lat="45.81073376796971" lon="11.788072580839444"><ele>181.33333333333334</ele><time>2026-05-01T17:51:09Z</time></trkpt><trkpt lat="45.81087615174228" lon="11.788235523999164"><ele>181.0</ele><time>2026-05-01T17:51:10Z</time></trkpt><trkpt lat="45.811023081824665" lon="11.788401376606448"><ele>182.0</ele><time>2026-05-01T17:51:11Z</time></trkpt><trkpt lat="45.811164929870124" lon="11.788570671392325"><ele>183.0</ele><time>2026-05-01T17:51:12Z</time></trkpt><trkpt lat="45.81130873927208" lon="11.788739057906891"><ele>184.0</ele><time>2026-05-01T17:51:13Z</time></trkpt><trkpt lat="45.811451520744086" lon="11.788908812288668"><ele>184.0</ele><time>2026-05-01T17:51:14Z</time></trkpt><trkpt lat="45.81160190897537" lon="11.789076403416718"><ele>184.0</ele><time>2026-05-01T17:51:15Z</time></trkpt><trkpt lat="45.811742896667724" lon="11.789241845783973"><ele>184.0</ele><time>2026-05-01T17:51:16Z</time></trkpt><trkpt lat="45.81188817758468" lon="11.789410668061684"><ele>185.66666666666669</ele><time>2026-05-01T17:51:17Z</time></trkpt><trkpt lat="45.812032152468724" lon="11.789576347881207"><ele>187.33333333333334</ele><time>2026-05-01T17:51:18Z</time></trkpt><trkpt lat="45.81217605717083" lon="11.789749612963853"><ele>189.0</ele><time>2026-05-01T17:51:18.999Z</time></trkpt><trkpt lat="45.81232531305277" lon="11.789922229828111"><ele>189.0</ele><time>2026-05-01T17:51:19.999Z</time></trkpt><trkpt lat="45.81246977606816" lon="11.790092527296165"><ele>189.0</ele><time>2026-05-01T17:51:20.999Z</time></trkpt><trkpt lat="45.812613297192286" lon="11.790260635043468"><ele>189.0</ele><time>2026-05-01T17:51:21.999Z</time></trkpt><trkpt lat="45.81275985999503" lon="11.79043007827793"><ele>189.33333333333334</ele><time>2026-05-01T17:51:22.999Z</time></trkpt><trkpt lat="45.81290360029123" lon="11.79060479502727"><ele>189.66666666666669</ele><time>2026-05-01T17:51:23.999Z</time></trkpt><trkpt lat="45.81305388788446" lon="11.790776680306497"><ele>190.0</ele><time>2026-05-01T17:51:24.999Z</time></trkpt><trkpt lat="45.8132081537041" lon="11.790950298708601"><ele>190.33333333333334</ele><time>2026-05-01T17:51:25.999Z</time></trkpt><trkpt lat="45.81336044975953" lon="11.791134689141876"><ele>190.66666666666666</ele><time>2026-05-01T17:51:26.999Z</time></trkpt><trkpt lat="45.813517451683545" lon="11.791304400505458"><ele>191.0</ele><time>2026-05-01T17:51:27.999Z</time></trkpt><trkpt lat="45.81366672595138" lon="11.791480956199797"><ele>191.0</ele><time>2026-05-01T17:51:28.999Z</time></trkpt><trkpt lat="45.813822572169414" lon="11.79166547136376"><ele>191.0</ele><time>2026-05-01T17:51:29.999Z</time></trkpt><trkpt lat="45.813976215812836" lon="11.791833207096195"><ele>191.0</ele><time>2026-05-01T17:51:30.999Z</time></trkpt><trkpt lat="45.81412116824377" lon="11.792005991349578"><ele>191.33333333333331</ele><time>2026-05-01T17:51:31.999Z</time></trkpt><trkpt lat="45.81429471433475" lon="11.792146461411688"><ele>191.66666666666666</ele><time>2026-05-01T17:51:32.999Z</time></trkpt><trkpt lat="45.81447685205292" lon="11.7922843375189"><ele>192.0</ele><time>2026-05-01T17:51:33.999Z</time></trkpt><trkpt lat="45.81464098641693" lon="11.792426106467751"><ele>192.0</ele><time>2026-05-01T17:51:34.999Z</time></trkpt><trkpt lat="45.81481365882444" lon="11.792556556663335"><ele>192.0</ele><time>2026-05-01T17:51:35.999Z</time></trkpt><trkpt lat="45.81495170808314" lon="11.792681065206299"><ele>192.0</ele><time>2026-05-01T17:51:36.999Z</time></trkpt><trkpt lat="45.815081816073565" lon="11.792864353672401"><ele>191.33333333333334</ele><time>2026-05-01T17:51:37.999Z</time></trkpt><trkpt lat="45.81518996943461" lon="11.793062660855345"><ele>190.66666666666669</ele><time>2026-05-01T17:51:38.999Z</time></trkpt><trkpt lat="45.81528150805224" lon="11.793292445379333"><ele>190.0</ele><time>2026-05-01T17:51:39.999Z</time></trkpt><trkpt lat="45.81535574549278" lon="11.793544756147842"><ele>188.66666666666669</ele><time>2026-05-01T17:51:40.999Z</time></trkpt><trkpt lat="45.8154004822793" lon="11.793799904690612"><ele>187.33333333333334</ele><time>2026-05-01T17:51:41.999Z</time></trkpt><trkpt lat="45.8154301756141" lon="11.794063764711208"><ele>186.0</ele><time>2026-05-01T17:51:42.999Z</time></trkpt><trkpt lat="45.815434561726164" lon="11.794335036956126"><ele>186.0</ele><time>2026-05-01T17:51:43.999Z</time></trkpt><trkpt lat="45.815431881650206" lon="11.79460652928339"><ele>186.0</ele><time>2026-05-01T17:51:44.999Z</time></trkpt><trkpt lat="45.81543223829167" lon="11.794881040037193"><ele>186.0</ele><time>2026-05-01T17:51:45.999Z</time></trkpt><trkpt lat="45.81543512702707" lon="11.795163708984642"><ele>185.33333333333334</ele><time>2026-05-01T17:51:46.999Z</time></trkpt><trkpt lat="45.815433035285025" lon="11.79545376021537"><ele>184.66666666666669</ele><time>2026-05-01T17:51:47.999Z</time></trkpt><trkpt lat="45.815431750816714" lon="11.795746761645546"><ele>184.0</ele><time>2026-05-01T17:51:48.999Z</time></trkpt><trkpt lat="45.8154259302987" lon="11.79604472510882"><ele>183.33333333333334</ele><time>2026-05-01T17:51:49.999Z</time></trkpt><trkpt lat="45.815424134944195" lon="11.796355312251368"><ele>182.66666666666666</ele><time>2026-05-01T17:51:50.999Z</time></trkpt><trkpt lat="45.81542823127601" lon="11.796654917450542"><ele>182.0</ele><time>2026-05-01T17:51:51.999Z</time></trkpt><trkpt lat="45.815432585870646" lon="11.796961260260042"><ele>183.33333333333331</ele><time>2026-05-01T17:51:52.999Z</time></trkpt><trkpt lat="45.81542942985426" lon="11.797271232822855"><ele>184.66666666666666</ele><time>2026-05-01T17:51:53.999Z</time></trkpt><trkpt lat="45.81542778766709" lon="11.79757821606291"><ele>186.0</ele><time>2026-05-01T17:51:54.999Z</time></trkpt><trkpt lat="45.815430208876705" lon="11.797882312148156"><ele>187.33333333333334</ele><time>2026-05-01T17:51:55.999Z</time></trkpt><trkpt lat="45.81542983061707" lon="11.798183290049446"><ele>188.66666666666669</ele><time>2026-05-01T17:51:56.999Z</time></trkpt><trkpt lat="45.81542896501055" lon="11.798483092669716"><ele>190.0</ele><time>2026-05-01T17:51:57.999Z</time></trkpt><trkpt lat="45.81542539727881" lon="11.798770952904507"><ele>191.0</ele><time>2026-05-01T17:51:58.999Z</time></trkpt><trkpt lat="45.81542563657963" lon="11.799050583434115"><ele>192.0</ele><time>2026-05-01T17:51:59.999Z</time></trkpt><trkpt lat="45.81542023099312" lon="11.79932004915704"><ele>193.0</ele><time>2026-05-01T17:52:00.999Z</time></trkpt><trkpt lat="45.81541943778454" lon="11.799581640914523"><ele>193.33333333333331</ele><time>2026-05-01T17:52:01.999Z</time></trkpt><trkpt lat="45.8154239338887" lon="11.79982655747226"><ele>193.66666666666669</ele><time>2026-05-01T17:52:02.999Z</time></trkpt><trkpt lat="45.8154308683172" lon="11.800072021445136"><ele>194.0</ele><time>2026-05-01T17:52:03.999Z</time></trkpt><trkpt lat="45.81544112160612" lon="11.80032199116324"><ele>195.0</ele><time>2026-05-01T17:52:04.999Z</time></trkpt><trkpt lat="45.81545951396646" lon="11.800552862671436"><ele>196.0</ele><time>2026-05-01T17:52:05.999Z</time></trkpt><trkpt lat="45.815463246744294" lon="11.800768920229983"><ele>197.0</ele><time>2026-05-01T17:52:06.999Z</time></trkpt><trkpt lat="45.81548231235474" lon="11.800977011460041"><ele>197.25</ele><time>2026-05-01T17:52:07.999Z</time></trkpt><trkpt lat="45.815502095231054" lon="11.8011848703932"><ele>197.5</ele><time>2026-05-01T17:52:08.999Z</time></trkpt><trkpt lat="45.81552119543339" lon="11.801385556439993"><ele>197.75</ele><time>2026-05-01T17:52:09.999Z</time></trkpt><trkpt lat="45.81554069837483" lon="11.801590474298083"><ele>198.0</ele><time>2026-05-01T17:52:10.999Z</time></trkpt><trkpt lat="45.815560428629595" lon="11.801797780444518"><ele>198.5</ele><time>2026-05-01T17:52:11.999Z</time></trkpt><trkpt lat="45.8155805414789" lon="11.802009106499716"><ele>199.0</ele><time>2026-05-01T17:52:12.999Z</time></trkpt><trkpt lat="45.815601179646414" lon="11.802225957246561"><ele>199.5</ele><time>2026-05-01T17:52:13.999Z</time></trkpt><trkpt lat="45.81562055828629" lon="11.802427557981947"><ele>200.0</ele><time>2026-05-01T17:52:14.999Z</time></trkpt><trkpt lat="45.81564008361717" lon="11.802631496815387"><ele>200.25</ele><time>2026-05-01T17:52:15.999Z</time></trkpt><trkpt lat="45.815684345515436" lon="11.802834377251848"><ele>200.5</ele><time>2026-05-01T17:52:16.999Z</time></trkpt><trkpt lat="45.81570456745373" lon="11.80304068666585"><ele>200.75</ele><time>2026-05-01T17:52:17.999Z</time></trkpt><trkpt lat="45.815726530707124" lon="11.803252194926465"><ele>201.0</ele><time>2026-05-01T17:52:18.999Z</time></trkpt><trkpt lat="45.81574535153267" lon="11.803468377766297"><ele>200.0</ele><time>2026-05-01T17:52:19.999Z</time></trkpt><trkpt lat="45.81576299156762" lon="11.803691628021163"><ele>199.0</ele><time>2026-05-01T17:52:20.999Z</time></trkpt><trkpt lat="45.815782590608336" lon="11.803911602528903"><ele>198.0</ele><time>2026-05-01T17:52:21.999Z</time></trkpt><trkpt lat="45.81580378667132" lon="11.804129230078809"><ele>198.0</ele><time>2026-05-01T17:52:22.999Z</time></trkpt><trkpt lat="45.81582122708864" lon="11.80434500965869"><ele>198.0</ele><time>2026-05-01T17:52:23.999Z</time></trkpt><trkpt lat="45.815843214720346" lon="11.804552661766296"><ele>198.0</ele><time>2026-05-01T17:52:24.998Z</time></trkpt><trkpt lat="45.8158608156278" lon="11.804757822945323"><ele>198.0</ele><time>2026-05-01T17:52:25.998Z</time></trkpt><trkpt lat="45.81587904803561" lon="11.804958409428275"><ele>198.0</ele><time>2026-05-01T17:52:26.998Z</time></trkpt><trkpt lat="45.815895404691354" lon="11.80515720512331"><ele>198.0</ele><time>2026-05-01T17:52:27.998Z</time></trkpt><trkpt lat="45.81591722198931" lon="11.805336842762719"><ele>198.0</ele><time>2026-05-01T17:52:28.998Z</time></trkpt><trkpt lat="45.815937146509306" lon="11.805511679202118"><ele>198.0</ele><time>2026-05-01T17:52:29.998Z</time></trkpt><trkpt lat="45.815954071560085" lon="11.805680215588609"><ele>198.33333333333334</ele><time>2026-05-01T17:52:30.998Z</time></trkpt><trkpt lat="45.81594743263082" lon="11.805838176699464"><ele>198.66666666666669</ele><time>2026-05-01T17:52:31.998Z</time></trkpt><trkpt lat="45.81596087390456" lon="11.805972164292482"><ele>199.0</ele><time>2026-05-01T17:52:32.998Z</time></trkpt><trkpt lat="45.81597324696908" lon="11.806092193722899"><ele>199.33333333333334</ele><time>2026-05-01T17:52:33.998Z</time></trkpt><trkpt lat="45.81599828562314" lon="11.80619596370044"><ele>199.66666666666669</ele><time>2026-05-01T17:52:34.998Z</time></trkpt><trkpt lat="45.815981287275086" lon="11.806298292771956"><ele>200.0</ele><time>2026-05-01T17:52:35.998Z</time></trkpt><trkpt lat="45.81595305631577" lon="11.806397647875526"><ele>200.57142857142858</ele><time>2026-05-01T17:52:36.998Z</time></trkpt><trkpt lat="45.81594416484015" lon="11.806492465177639"><ele>201.14285714285714</ele><time>2026-05-01T17:52:37.998Z</time></trkpt><trkpt lat="45.815956841896025" lon="11.8065860376711"><ele>201.71428571428572</ele><time>2026-05-01T17:52:39Z</time></trkpt><trkpt lat="45.8159905321776" lon="11.806677181587627"><ele>202.28571428571428</ele><time>2026-05-01T17:52:40Z</time></trkpt><trkpt lat="45.816051551998676" lon="11.806722312518108"><ele>202.85714285714286</ele><time>2026-05-01T17:52:41Z</time></trkpt><trkpt lat="45.8160979080534" lon="11.806821877244298"><ele>203.42857142857144</ele><time>2026-05-01T17:52:42Z</time></trkpt><trkpt lat="45.816138901694806" lon="11.806922155551932"><ele>204.0</ele><time>2026-05-01T17:52:43Z</time></trkpt><trkpt lat="45.816170077973744" lon="11.807034291399006"><ele>204.79999999999998</ele><time>2026-05-01T17:52:44Z</time></trkpt><trkpt lat="45.816200079525494" lon="11.807152392529387"><ele>205.6</ele><time>2026-05-01T17:52:45Z</time></trkpt><trkpt lat="45.816232465326685" lon="11.80728682881444"><ele>206.4</ele><time>2026-05-01T17:52:46Z</time></trkpt><trkpt lat="45.81625780841777" lon="11.807416397685849"><ele>207.2</ele><time>2026-05-01T17:52:47Z</time></trkpt><trkpt lat="45.81629036353501" lon="11.807550452086677"><ele>208.0</ele><time>2026-05-01T17:52:48Z</time></trkpt><trkpt lat="45.81632379590498" lon="11.807690585002097"><ele>208.0</ele><time>2026-05-01T17:52:49Z</time></trkpt><trkpt lat="45.81635464862172" lon="11.807834800400135"><ele>208.0</ele><time>2026-05-01T17:52:50Z</time></trkpt><trkpt lat="45.816390074086044" lon="11.807991336490074"><ele>208.0</ele><time>2026-05-01T17:52:51Z</time></trkpt><trkpt lat="45.81643075927799" lon="11.80816198211066"><ele>208.0</ele><time>2026-05-01T17:52:52Z</time></trkpt><trkpt lat="45.81648114345022" lon="11.808360336769486"><ele>208.5</ele><time>2026-05-01T17:52:53Z</time></trkpt><trkpt lat="45.81653109826071" lon="11.808552173452332"><ele>209.0</ele><time>2026-05-01T17:52:54Z</time></trkpt><trkpt lat="45.81655716804983" lon="11.80873882500316"><ele>209.5</ele><time>2026-05-01T17:52:55Z</time></trkpt><trkpt lat="45.816599330614956" lon="11.808909808790446"><ele>210.0</ele><time>2026-05-01T17:52:56Z</time></trkpt><trkpt lat="45.81664102022112" lon="11.809080507040143"><ele>210.0</ele><time>2026-05-01T17:52:57Z</time></trkpt><trkpt lat="45.8166826615709" lon="11.809260816979547"><ele>210.0</ele><time>2026-05-01T17:52:58Z</time></trkpt><trkpt lat="45.81672602923221" lon="11.809442237110241"><ele>210.0</ele><time>2026-05-01T17:52:59Z</time></trkpt><trkpt lat="45.81676630147373" lon="11.809634231448001"><ele>210.0</ele><time>2026-05-01T17:53:00Z</time></trkpt><trkpt lat="45.81680811813434" lon="11.809818756747703"><ele>211.25</ele><time>2026-05-01T17:53:01Z</time></trkpt><trkpt lat="45.816852507745644" lon="11.810000144149267"><ele>212.5</ele><time>2026-05-01T17:53:02Z</time></trkpt><trkpt lat="45.8168954139884" lon="11.81018411360439"><ele>213.75</ele><time>2026-05-01T17:53:03Z</time></trkpt><trkpt lat="45.81693718814366" lon="11.810370840963962"><ele>215.0</ele><time>2026-05-01T17:53:04Z</time></trkpt><trkpt lat="45.81698082563042" lon="11.810558599554332"><ele>215.0</ele><time>2026-05-01T17:53:05Z</time></trkpt><trkpt lat="45.817024025449165" lon="11.810746140043623"><ele>215.0</ele><time>2026-05-01T17:53:06Z</time></trkpt><trkpt lat="45.817067049520205" lon="11.810930132407764"><ele>215.0</ele><time>2026-05-01T17:53:07Z</time></trkpt><trkpt lat="45.81711013308764" lon="11.81112707421716"><ele>215.0</ele><time>2026-05-01T17:53:08Z</time></trkpt><trkpt lat="45.81715788766988" lon="11.81131557842393"><ele>215.0</ele><time>2026-05-01T17:53:09Z</time></trkpt><trkpt lat="45.817204962307095" lon="11.811508283330829"><ele>215.0</ele><time>2026-05-01T17:53:10Z</time></trkpt><trkpt lat="45.817249634009855" lon="11.811703855390178"><ele>215.0</ele><time>2026-05-01T17:53:11Z</time></trkpt><trkpt lat="45.8172897039866" lon="11.811883765844684"><ele>215.0</ele><time>2026-05-01T17:53:12Z</time></trkpt><trkpt lat="45.81731813116846" lon="11.812082004018832"><ele>214.75</ele><time>2026-05-01T17:53:13Z</time></trkpt><trkpt lat="45.81736253508173" lon="11.812275132237804"><ele>214.5</ele><time>2026-05-01T17:53:14Z</time></trkpt><trkpt lat="45.81742208733704" lon="11.812461526053248"><ele>214.25</ele><time>2026-05-01T17:53:15Z</time></trkpt><trkpt lat="45.817454343264814" lon="11.812655668294916"><ele>214.0</ele><time>2026-05-01T17:53:16Z</time></trkpt><trkpt lat="45.81749404125056" lon="11.812852510874357"><ele>214.0</ele><time>2026-05-01T17:53:17Z</time></trkpt><trkpt lat="45.817536513928246" lon="11.813051079677031"><ele>214.0</ele><time>2026-05-01T17:53:18Z</time></trkpt><trkpt lat="45.81758372861373" lon="11.81323595550304"><ele>214.0</ele><time>2026-05-01T17:53:19Z</time></trkpt><trkpt lat="45.817625803247076" lon="11.813430155098757"><ele>214.0</ele><time>2026-05-01T17:53:20Z</time></trkpt><trkpt lat="45.81767062710493" lon="11.813621186045218"><ele>215.75</ele><time>2026-05-01T17:53:21Z</time></trkpt><trkpt lat="45.81771743766419" lon="11.813810587062271"><ele>217.5</ele><time>2026-05-01T17:53:22Z</time></trkpt><trkpt lat="45.81776191212668" lon="11.814002932356805"><ele>219.25</ele><time>2026-05-01T17:53:23Z</time></trkpt><trkpt lat="45.817809079185004" lon="11.814194459866505"><ele>221.0</ele><time>2026-05-01T17:53:24Z</time></trkpt><trkpt lat="45.81785287200005" lon="11.814390204629564"><ele>221.0</ele><time>2026-05-01T17:53:24.999Z</time></trkpt><trkpt lat="45.817900797904976" lon="11.814588037221956"><ele>221.0</ele><time>2026-05-01T17:53:25.999Z</time></trkpt><trkpt lat="45.81794725076535" lon="11.814785840840726"><ele>221.0</ele><time>2026-05-01T17:53:26.999Z</time></trkpt><trkpt lat="45.81799100157925" lon="11.814970035353065"><ele>221.0</ele><time>2026-05-01T17:53:27.999Z</time></trkpt><trkpt lat="45.818031560275784" lon="11.81515461381187"><ele>221.0</ele><time>2026-05-01T17:53:28.999Z</time></trkpt><trkpt lat="45.81807424021192" lon="11.815329798370964"><ele>221.0</ele><time>2026-05-01T17:53:29.999Z</time></trkpt><trkpt lat="45.818114620559015" lon="11.81549021181922"><ele>221.0</ele><time>2026-05-01T17:53:30.999Z</time></trkpt><trkpt lat="45.81813565238631" lon="11.815644103012211"><ele>221.0</ele><time>2026-05-01T17:53:31.999Z</time></trkpt><trkpt lat="45.81817537071791" lon="11.815796639278426"><ele>221.0</ele><time>2026-05-01T17:53:32.999Z</time></trkpt><trkpt lat="45.81821864182386" lon="11.815935243946978"><ele>221.00000000000003</ele><time>2026-05-01T17:53:33.999Z</time></trkpt><trkpt lat="45.81825795373572" lon="11.816045433310043"><ele>221.00000000000003</ele><time>2026-05-01T17:53:34.999Z</time></trkpt><trkpt lat="45.81829835609327" lon="11.816149821370903"><ele>221.0</ele><time>2026-05-01T17:53:35.999Z</time></trkpt><trkpt lat="45.81834335464188" lon="11.816259313575037"><ele>221.0</ele><time>2026-05-01T17:53:36.999Z</time></trkpt><trkpt lat="45.818393155648536" lon="11.816379268292371"><ele>221.4</ele><time>2026-05-01T17:53:37.999Z</time></trkpt><trkpt lat="45.8184597616254" lon="11.816496978137453"><ele>221.8</ele><time>2026-05-01T17:53:38.999Z</time></trkpt><trkpt lat="45.81849876512621" lon="11.81663839017037"><ele>222.20000000000002</ele><time>2026-05-01T17:53:39.999Z</time></trkpt><trkpt lat="45.81855246185616" lon="11.816770448610885"><ele>222.60000000000002</ele><time>2026-05-01T17:53:40.999Z</time></trkpt><trkpt lat="45.81860269695559" lon="11.816893993797308"><ele>223.0</ele><time>2026-05-01T17:53:41.999Z</time></trkpt><trkpt lat="45.81864579131411" lon="11.81700036173936"><ele>224.16666666666666</ele><time>2026-05-01T17:53:42.999Z</time></trkpt><trkpt lat="45.818685713998455" lon="11.81709895089946"><ele>225.33333333333331</ele><time>2026-05-01T17:53:43.999Z</time></trkpt><trkpt lat="45.81872138626341" lon="11.817187040043232"><ele>226.5</ele><time>2026-05-01T17:53:44.999Z</time></trkpt><trkpt lat="45.818758706331046" lon="11.817274433567606"><ele>227.66666666666669</ele><time>2026-05-01T17:53:45.999Z</time></trkpt><trkpt lat="45.81879888705439" lon="11.81737065242974"><ele>228.83333333333334</ele><time>2026-05-01T17:53:46.999Z</time></trkpt><trkpt lat="45.81884091838112" lon="11.817471302749583"><ele>230.0</ele><time>2026-05-01T17:53:47.999Z</time></trkpt><trkpt lat="45.81888469791579" lon="11.81757613946922"><ele>230.33333333333334</ele><time>2026-05-01T17:53:48.999Z</time></trkpt><trkpt lat="45.818929767670845" lon="11.817684065861757"><ele>230.66666666666669</ele><time>2026-05-01T17:53:49.999Z</time></trkpt><trkpt lat="45.818977203527396" lon="11.817797868376912"><ele>231.0</ele><time>2026-05-01T17:53:50.999Z</time></trkpt><trkpt lat="45.81902599831026" lon="11.817916563004133"><ele>231.33333333333331</ele><time>2026-05-01T17:53:51.999Z</time></trkpt><trkpt lat="45.81907289717629" lon="11.818030645797789"><ele>231.66666666666666</ele><time>2026-05-01T17:53:52.999Z</time></trkpt><trkpt lat="45.81911100076431" lon="11.818123333944868"><ele>232.0</ele><time>2026-05-01T17:53:53.999Z</time></trkpt><trkpt lat="45.81914905703351" lon="11.81821590685366"><ele>232.0</ele><time>2026-05-01T17:53:54.999Z</time></trkpt><trkpt lat="45.81919699032838" lon="11.818332505730277"><ele>232.0</ele><time>2026-05-01T17:53:55.999Z</time></trkpt><trkpt lat="45.81924159029591" lon="11.818440996505268"><ele>232.0</ele><time>2026-05-01T17:53:56.999Z</time></trkpt><trkpt lat="45.81928774404956" lon="11.818553266812602"><ele>232.0</ele><time>2026-05-01T17:53:57.999Z</time></trkpt><trkpt lat="45.81933482937484" lon="11.818667803185795"><ele>232.0</ele><time>2026-05-01T17:53:58.999Z</time></trkpt><trkpt lat="45.819397091132515" lon="11.818771927808175"><ele>233.0</ele><time>2026-05-01T17:53:59.999Z</time></trkpt><trkpt lat="45.81944420886324" lon="11.818891252979155"><ele>234.0</ele><time>2026-05-01T17:54:00.999Z</time></trkpt><trkpt lat="45.81949269909803" lon="11.819013007028463"><ele>235.0</ele><time>2026-05-01T17:54:01.999Z</time></trkpt><trkpt lat="45.819548104791096" lon="11.819131664828218"><ele>236.0</ele><time>2026-05-01T17:54:02.999Z</time></trkpt><trkpt lat="45.81960229897979" lon="11.819254116556793"><ele>237.0</ele><time>2026-05-01T17:54:03.999Z</time></trkpt><trkpt lat="45.81965399769649" lon="11.819383690162722"><ele>237.6</ele><time>2026-05-01T17:54:04.999Z</time></trkpt><trkpt lat="45.819693917763" lon="11.819518864932363"><ele>238.2</ele><time>2026-05-01T17:54:05.999Z</time></trkpt><trkpt lat="45.81972635211231" lon="11.819656232818215"><ele>238.8</ele><time>2026-05-01T17:54:06.999Z</time></trkpt><trkpt lat="45.81975520326757" lon="11.819799648083649"><ele>239.4</ele><time>2026-05-01T17:54:07.999Z</time></trkpt><trkpt lat="45.81978666604893" lon="11.819943667890437"><ele>240.0</ele><time>2026-05-01T17:54:08.999Z</time></trkpt><trkpt lat="45.81981201106289" lon="11.820098909335771"><ele>240.75</ele><time>2026-05-01T17:54:09.999Z</time></trkpt><trkpt lat="45.81984345598904" lon="11.820268169377703"><ele>241.5</ele><time>2026-05-01T17:54:10.999Z</time></trkpt><trkpt lat="45.819859919759175" lon="11.82046622234726"><ele>242.25</ele><time>2026-05-01T17:54:11.999Z</time></trkpt><trkpt lat="45.819903508422854" lon="11.820721015178318"><ele>243.0</ele><time>2026-05-01T17:54:12.999Z</time></trkpt><trkpt lat="45.81996920071527" lon="11.820991228535833"><ele>243.66666666666669</ele><time>2026-05-01T17:54:13.999Z</time></trkpt><trkpt lat="45.8200148123489" lon="11.82127573805544"><ele>244.33333333333334</ele><time>2026-05-01T17:54:14.999Z</time></trkpt><trkpt lat="45.82007982288652" lon="11.821579981472748"><ele>245.0</ele><time>2026-05-01T17:54:15.999Z</time></trkpt><trkpt lat="45.82015111949495" lon="11.821919662628206"><ele>247.0</ele><time>2026-05-01T17:54:16.999Z</time></trkpt><trkpt lat="45.82020388627082" lon="11.822277721462843"><ele>249.0</ele><time>2026-05-01T17:54:17.999Z</time></trkpt><trkpt lat="45.820276613311876" lon="11.822607296629766"><ele>249.5</ele><time>2026-05-01T17:54:18.999Z</time></trkpt><trkpt lat="45.82034605522551" lon="11.822926912479492"><ele>250.0</ele><time>2026-05-01T17:54:19.999Z</time></trkpt><trkpt lat="45.820415869332614" lon="11.823247069571405"><ele>250.0</ele><time>2026-05-01T17:54:20.999Z</time></trkpt><trkpt lat="45.820487572977335" lon="11.823577540064722"><ele>250.0</ele><time>2026-05-01T17:54:21.999Z</time></trkpt><trkpt lat="45.820560016867816" lon="11.823911683792318"><ele>250.0</ele><time>2026-05-01T17:54:22.999Z</time></trkpt><trkpt lat="45.82063701798036" lon="11.824269257347629"><ele>250.0</ele><time>2026-05-01T17:54:23.999Z</time></trkpt><trkpt lat="45.8207089519759" lon="11.824603300363982"><ele>249.5</ele><time>2026-05-01T17:54:24.999Z</time></trkpt><trkpt lat="45.82079516901407" lon="11.824945843656575"><ele>249.0</ele><time>2026-05-01T17:54:25.999Z</time></trkpt><trkpt lat="45.820870375686525" lon="11.825288258263685"><ele>250.5</ele><time>2026-05-01T17:54:26.999Z</time></trkpt><trkpt lat="45.82093262958933" lon="11.825632979687974"><ele>252.0</ele><time>2026-05-01T17:54:27.999Z</time></trkpt><trkpt lat="45.82100781425957" lon="11.825961661732904"><ele>254.5</ele><time>2026-05-01T17:54:28.999Z</time></trkpt><trkpt lat="45.821086705369424" lon="11.826276492578543"><ele>257.0</ele><time>2026-05-01T17:54:29.999Z</time></trkpt><trkpt lat="45.82116365861451" lon="11.826581174348588"><ele>257.6666666666667</ele><time>2026-05-01T17:54:30.998Z</time></trkpt><trkpt lat="45.82123889076204" lon="11.826876591321161"><ele>258.3333333333333</ele><time>2026-05-01T17:54:31.998Z</time></trkpt><trkpt lat="45.8213097577193" lon="11.827152209037605"><ele>259.0</ele><time>2026-05-01T17:54:32.998Z</time></trkpt><trkpt lat="45.8213792864448" lon="11.82742262164649"><ele>259.3333333333333</ele><time>2026-05-01T17:54:33.998Z</time></trkpt><trkpt lat="45.82144917414331" lon="11.827694430788714"><ele>259.6666666666667</ele><time>2026-05-01T17:54:34.998Z</time></trkpt><trkpt lat="45.821511006461535" lon="11.82793490294963"><ele>260.0</ele><time>2026-05-01T17:54:35.998Z</time></trkpt><trkpt lat="45.82159292459728" lon="11.828144478234126"><ele>260.0</ele><time>2026-05-01T17:54:36.998Z</time></trkpt><trkpt lat="45.82164755791508" lon="11.828354874008811"><ele>260.0</ele><time>2026-05-01T17:54:37.998Z</time></trkpt><trkpt lat="45.82169757127507" lon="11.828542780632695"><ele>260.0</ele><time>2026-05-01T17:54:38.998Z</time></trkpt><trkpt lat="45.82174110651438" lon="11.828715255101507"><ele>260.0</ele><time>2026-05-01T17:54:39.998Z</time></trkpt><trkpt lat="45.82175302703334" lon="11.828886936778702"><ele>260.0</ele><time>2026-05-01T17:54:40.998Z</time></trkpt><trkpt lat="45.82177470942145" lon="11.829031120497977"><ele>260.0</ele><time>2026-05-01T17:54:41.998Z</time></trkpt><trkpt lat="45.8217587874247" lon="11.82915686784209"><ele>260.0</ele><time>2026-05-01T17:54:42.998Z</time></trkpt><trkpt lat="45.82170175101791" lon="11.829263457002568"><ele>260.0</ele><time>2026-05-01T17:54:43.998Z</time></trkpt><trkpt lat="45.82164430549372" lon="11.829344918114842"><ele>260.0</ele><time>2026-05-01T17:54:45Z</time></trkpt><trkpt lat="45.82162251430516" lon="11.829462851761708"><ele>260.2</ele><time>2026-05-01T17:54:46Z</time></trkpt><trkpt lat="45.82160628778046" lon="11.829580823514963"><ele>260.4</ele><time>2026-05-01T17:54:47Z</time></trkpt><trkpt lat="45.82170846646297" lon="11.829692851682992"><ele>260.6</ele><time>2026-05-01T17:54:48Z</time></trkpt><trkpt lat="45.82182305432525" lon="11.829722798767948"><ele>260.8</ele><time>2026-05-01T17:54:49Z</time></trkpt><trkpt lat="45.82193503217083" lon="11.829751393702988"><ele>261.0</ele><time>2026-05-01T17:54:50Z</time></trkpt><trkpt lat="45.8220532115652" lon="11.829812296012022"><ele>262.0</ele><time>2026-05-01T17:54:51Z</time></trkpt><trkpt lat="45.82215988801622" lon="11.829969734691211"><ele>263.0</ele><time>2026-05-01T17:54:52Z</time></trkpt><trkpt lat="45.82224893718747" lon="11.830174661356255"><ele>264.0</ele><time>2026-05-01T17:54:53Z</time></trkpt><trkpt lat="45.82233842642759" lon="11.830351537854591"><ele>264.3333333333333</ele><time>2026-05-01T17:54:54Z</time></trkpt><trkpt lat="45.82243508773423" lon="11.83054145274192"><ele>264.66666666666663</ele><time>2026-05-01T17:54:55Z</time></trkpt><trkpt lat="45.8225403043007" lon="11.830736777367774"><ele>265.0</ele><time>2026-05-01T17:54:56Z</time></trkpt><trkpt lat="45.82265119496105" lon="11.83094356359775"><ele>266.66666666666663</ele><time>2026-05-01T17:54:57Z</time></trkpt><trkpt lat="45.82276255637834" lon="11.83115060850428"><ele>268.3333333333333</ele><time>2026-05-01T17:54:58Z</time></trkpt><trkpt lat="45.82287483572736" lon="11.831363491454734"><ele>270.0</ele><time>2026-05-01T17:54:59Z</time></trkpt><trkpt lat="45.82299065565642" lon="11.831577876583257"><ele>270.0</ele><time>2026-05-01T17:55:00Z</time></trkpt><trkpt lat="45.823104639562494" lon="11.831792630827204"><ele>270.0</ele><time>2026-05-01T17:55:01Z</time></trkpt><trkpt lat="45.823218503241385" lon="11.83200115147942"><ele>270.0</ele><time>2026-05-01T17:55:02Z</time></trkpt><trkpt lat="45.82333413440196" lon="11.832209524666013"><ele>270.0</ele><time>2026-05-01T17:55:03Z</time></trkpt><trkpt lat="45.82345047430199" lon="11.832412922190525"><ele>270.0</ele><time>2026-05-01T17:55:04Z</time></trkpt><trkpt lat="45.82356793138411" lon="11.832608105769586"><ele>270.0</ele><time>2026-05-01T17:55:05Z</time></trkpt><trkpt lat="45.823701915101694" lon="11.832777045177417"><ele>271.0</ele><time>2026-05-01T17:55:06Z</time></trkpt><trkpt lat="45.823839244239046" lon="11.832928562415475"><ele>272.0</ele><time>2026-05-01T17:55:07Z</time></trkpt><trkpt lat="45.82396976004367" lon="11.833093131049592"><ele>273.0</ele><time>2026-05-01T17:55:08Z</time></trkpt><trkpt lat="45.8241013625437" lon="11.833233968429008"><ele>273.0</ele><time>2026-05-01T17:55:09Z</time></trkpt><trkpt lat="45.82423580319037" lon="11.83337784303819"><ele>273.0</ele><time>2026-05-01T17:55:10Z</time></trkpt><trkpt lat="45.824386087521624" lon="11.833509740958858"><ele>273.0</ele><time>2026-05-01T17:55:11Z</time></trkpt><trkpt lat="45.82452402110329" lon="11.833658711294621"><ele>274.6666666666667</ele><time>2026-05-01T17:55:12Z</time></trkpt><trkpt lat="45.82466017169526" lon="11.833832652690186"><ele>276.33333333333337</ele><time>2026-05-01T17:55:13Z</time></trkpt><trkpt lat="45.824810919666014" lon="11.833979395020393"><ele>278.0</ele><time>2026-05-01T17:55:14Z</time></trkpt><trkpt lat="45.82495526451791" lon="11.834138872175664"><ele>278.0</ele><time>2026-05-01T17:55:15Z</time></trkpt><trkpt lat="45.82509606726473" lon="11.834293784834822"><ele>278.0</ele><time>2026-05-01T17:55:16Z</time></trkpt><trkpt lat="45.82524254838223" lon="11.83444139482356"><ele>278.0</ele><time>2026-05-01T17:55:17Z</time></trkpt><trkpt lat="45.825382119360555" lon="11.834592636363258"><ele>279.6666666666667</ele><time>2026-05-01T17:55:18Z</time></trkpt><trkpt lat="45.825522627137545" lon="11.834745029637798"><ele>281.3333333333333</ele><time>2026-05-01T17:55:19Z</time></trkpt><trkpt lat="45.82566115394355" lon="11.834886781571868"><ele>283.0</ele><time>2026-05-01T17:55:20Z</time></trkpt><trkpt lat="45.82578880663406" lon="11.83503903375719"><ele>282.0</ele><time>2026-05-01T17:55:21Z</time></trkpt><trkpt lat="45.82592152004048" lon="11.835177951455481"><ele>281.0</ele><time>2026-05-01T17:55:22Z</time></trkpt><trkpt lat="45.8260484030739" lon="11.835306705821333"><ele>280.0</ele><time>2026-05-01T17:55:23Z</time></trkpt><trkpt lat="45.82616075226251" lon="11.835445085629868"><ele>282.0</ele><time>2026-05-01T17:55:24Z</time></trkpt><trkpt lat="45.82628338965254" lon="11.835560714976534"><ele>284.0</ele><time>2026-05-01T17:55:25Z</time></trkpt><trkpt lat="45.82639153358667" lon="11.835735334431016"><ele>286.0</ele><time>2026-05-01T17:55:26Z</time></trkpt><trkpt lat="45.826472350514855" lon="11.835917562548966"><ele>285.66666666666663</ele><time>2026-05-01T17:55:27Z</time></trkpt><trkpt lat="45.82650728957205" lon="11.836124376996866"><ele>285.3333333333333</ele><time>2026-05-01T17:55:28Z</time></trkpt><trkpt lat="45.82656013279135" lon="11.836337780750604"><ele>285.0</ele><time>2026-05-01T17:55:29Z</time></trkpt><trkpt lat="45.82660763763769" lon="11.836544300619778"><ele>285.0</ele><time>2026-05-01T17:55:30Z</time></trkpt><trkpt lat="45.82665389835834" lon="11.836741346060915"><ele>285.0</ele><time>2026-05-01T17:55:30.999Z</time></trkpt><trkpt lat="45.8266936147817" lon="11.83694348794985"><ele>285.0</ele><time>2026-05-01T17:55:31.999Z</time></trkpt><trkpt lat="45.826731754470146" lon="11.837132123377524"><ele>285.0</ele><time>2026-05-01T17:55:32.999Z</time></trkpt><trkpt lat="45.826775602824966" lon="11.83731751805807"><ele>286.75</ele><time>2026-05-01T17:55:33.999Z</time></trkpt><trkpt lat="45.82681373223058" lon="11.837498872438662"><ele>288.5</ele><time>2026-05-01T17:55:34.999Z</time></trkpt><trkpt lat="45.82683780517971" lon="11.837662870419296"><ele>290.25</ele><time>2026-05-01T17:55:35.999Z</time></trkpt><trkpt lat="45.82686219997046" lon="11.837818537451808"><ele>292.0</ele><time>2026-05-01T17:55:36.999Z</time></trkpt><trkpt lat="45.82688611185145" lon="11.83794817804473"><ele>292.25</ele><time>2026-05-01T17:55:37.999Z</time></trkpt><trkpt lat="45.82692523484144" lon="11.838083271633778"><ele>292.5</ele><time>2026-05-01T17:55:38.999Z</time></trkpt><trkpt lat="45.826963643050284" lon="11.838220753919147"><ele>292.75</ele><time>2026-05-01T17:55:39.999Z</time></trkpt><trkpt lat="45.82699665923945" lon="11.838386598532274"><ele>293.0</ele><time>2026-05-01T17:55:40.999Z</time></trkpt><trkpt lat="45.82702939887831" lon="11.838560087542307"><ele>293.0</ele><time>2026-05-01T17:55:41.999Z</time></trkpt><trkpt lat="45.8270662178505" lon="11.83872778676207"><ele>293.0</ele><time>2026-05-01T17:55:42.999Z</time></trkpt><trkpt lat="45.82710755373321" lon="11.838895708437128"><ele>293.0</ele><time>2026-05-01T17:55:43.999Z</time></trkpt><trkpt lat="45.827145161074355" lon="11.839062833948473"><ele>293.0</ele><time>2026-05-01T17:55:44.999Z</time></trkpt><trkpt lat="45.82718195326545" lon="11.839238426619833"><ele>292.75</ele><time>2026-05-01T17:55:45.999Z</time></trkpt><trkpt lat="45.82721524782838" lon="11.839415968122402"><ele>292.5</ele><time>2026-05-01T17:55:46.999Z</time></trkpt><trkpt lat="45.82725045089672" lon="11.839591684932872"><ele>292.25</ele><time>2026-05-01T17:55:47.999Z</time></trkpt><trkpt lat="45.82728116365152" lon="11.839760139423882"><ele>292.0</ele><time>2026-05-01T17:55:48.999Z</time></trkpt><trkpt lat="45.827313706380835" lon="11.839912686919314"><ele>292.0</ele><time>2026-05-01T17:55:49.999Z</time></trkpt><trkpt lat="45.82735841196993" lon="11.840038596208837"><ele>292.0</ele><time>2026-05-01T17:55:50.999Z</time></trkpt><trkpt lat="45.82745152019348" lon="11.840116274090061"><ele>292.0</ele><time>2026-05-01T17:55:51.999Z</time></trkpt><trkpt lat="45.82755770386508" lon="11.840150607090163"><ele>292.0</ele><time>2026-05-01T17:55:52.999Z</time></trkpt><trkpt lat="45.82765884530807" lon="11.84016808921319"><ele>292.0</ele><time>2026-05-01T17:55:53.999Z</time></trkpt><trkpt lat="45.82776758562003" lon="11.840160548406567"><ele>293.0</ele><time>2026-05-01T17:55:54.999Z</time></trkpt><trkpt lat="45.827892312602735" lon="11.840151712974437"><ele>294.0</ele><time>2026-05-01T17:55:55.999Z</time></trkpt><trkpt lat="45.82801544466781" lon="11.84010755047329"><ele>295.0</ele><time>2026-05-01T17:55:56.999Z</time></trkpt><trkpt lat="45.82813253905804" lon="11.840070957816907"><ele>296.0</ele><time>2026-05-01T17:55:57.999Z</time></trkpt><trkpt lat="45.82827392440236" lon="11.840037402005688"><ele>296.0</ele><time>2026-05-01T17:55:58.999Z</time></trkpt><trkpt lat="45.82838446073508" lon="11.840013404095053"><ele>296.0</ele><time>2026-05-01T17:55:59.999Z</time></trkpt><trkpt lat="45.82849043668979" lon="11.840014734070644"><ele>296.0</ele><time>2026-05-01T17:56:00.999Z</time></trkpt><trkpt lat="45.82858396459594" lon="11.839991216813093"><ele>296.0</ele><time>2026-05-01T17:56:01.999Z</time></trkpt><trkpt lat="45.8286725888549" lon="11.840012314261198"><ele>296.0</ele><time>2026-05-01T17:56:02.999Z</time></trkpt><trkpt lat="45.828746361944646" lon="11.840066018557653"><ele>296.6</ele><time>2026-05-01T17:56:03.999Z</time></trkpt><trkpt lat="45.82883375789299" lon="11.84016299939698"><ele>297.20000000000005</ele><time>2026-05-01T17:56:05.999Z</time></trkpt><trkpt lat="45.8289416313244" lon="11.84007811250897"><ele>297.79999999999995</ele><time>2026-05-01T17:56:07.999Z</time></trkpt><trkpt lat="45.828994515187055" lon="11.839972766823768"><ele>298.4</ele><time>2026-05-01T17:56:08.999Z</time></trkpt><trkpt lat="45.829049857478815" lon="11.839844554648502"><ele>299.0</ele><time>2026-05-01T17:56:09.999Z</time></trkpt><trkpt lat="45.829085828325326" lon="11.839705196799688"><ele>299.0</ele><time>2026-05-01T17:56:10.999Z</time></trkpt><trkpt lat="45.8291432006113" lon="11.839600928444094"><ele>299.0</ele><time>2026-05-01T17:56:11.999Z</time></trkpt><trkpt lat="45.8292087385908" lon="11.839508238121994"><ele>299.0</ele><time>2026-05-01T17:56:12.999Z</time></trkpt><trkpt lat="45.829278991353995" lon="11.839417506429927"><ele>299.0</ele><time>2026-05-01T17:56:13.999Z</time></trkpt><trkpt lat="45.829348088579174" lon="11.839324933821526"><ele>299.0</ele><time>2026-05-01T17:56:14.999Z</time></trkpt><trkpt lat="45.82941445671364" lon="11.839237088533954"><ele>299.0</ele><time>2026-05-01T17:56:15.999Z</time></trkpt><trkpt lat="45.829479279216876" lon="11.839149976267642"><ele>299.0</ele><time>2026-05-01T17:56:16.999Z</time></trkpt><trkpt lat="45.829539228952065" lon="11.83905478425382"><ele>299.0</ele><time>2026-05-01T17:56:17.999Z</time></trkpt><trkpt lat="45.829613033109624" lon="11.838950244426371"><ele>299.0</ele><time>2026-05-01T17:56:18.999Z</time></trkpt><trkpt lat="45.82969617560844" lon="11.838843909872235"><ele>299.0</ele><time>2026-05-01T17:56:19.999Z</time></trkpt><trkpt lat="45.82977001697841" lon="11.838729809273064"><ele>299.0</ele><time>2026-05-01T17:56:20.999Z</time></trkpt><trkpt lat="45.8298492720952" lon="11.838627449658631"><ele>299.0</ele><time>2026-05-01T17:56:21.999Z</time></trkpt><trkpt lat="45.829909383709094" lon="11.838538476267503"><ele>299.0</ele><time>2026-05-01T17:56:22.999Z</time></trkpt><trkpt lat="45.829961824287814" lon="11.83845836794941"><ele>299.0</ele><time>2026-05-01T17:56:23.999Z</time></trkpt><trkpt lat="45.83001889964542" lon="11.83839593937498"><ele>299.0</ele><time>2026-05-01T17:56:24.999Z</time></trkpt><trkpt lat="45.830107469392274" lon="11.838372957181093"><ele>299.0</ele><time>2026-05-01T17:56:26.999Z</time></trkpt><trkpt lat="45.830192623242" lon="11.83830975026485"><ele>300.75</ele><time>2026-05-01T17:56:28.999Z</time></trkpt><trkpt lat="45.83032057522539" lon="11.838234908073671"><ele>302.5</ele><time>2026-05-01T17:56:30.999Z</time></trkpt><trkpt lat="45.83041000938231" lon="11.838215975050792"><ele>304.25</ele><time>2026-05-01T17:56:31.999Z</time></trkpt><trkpt lat="45.83052476315647" lon="11.838258506193263"><ele>306.0</ele><time>2026-05-01T17:56:32.999Z</time></trkpt><trkpt lat="45.83062358744642" lon="11.838355025894852"><ele>305.5</ele><time>2026-05-01T17:56:33.999Z</time></trkpt><trkpt lat="45.83072172074137" lon="11.838497942640817"><ele>305.0</ele><time>2026-05-01T17:56:34.999Z</time></trkpt><trkpt lat="45.830812852069904" lon="11.83864353164233"><ele>304.5</ele><time>2026-05-01T17:56:35.998Z</time></trkpt><trkpt lat="45.830890756978235" lon="11.838810203104176"><ele>304.0</ele><time>2026-05-01T17:56:36.998Z</time></trkpt><trkpt lat="45.83098337688013" lon="11.838968673436908"><ele>305.66666666666663</ele><time>2026-05-01T17:56:37.998Z</time></trkpt><trkpt lat="45.83108321222987" lon="11.839132993474124"><ele>307.3333333333333</ele><time>2026-05-01T17:56:38.998Z</time></trkpt><trkpt lat="45.831178045571875" lon="11.839300505484054"><ele>309.0</ele><time>2026-05-01T17:56:39.998Z</time></trkpt><trkpt lat="45.83127507815351" lon="11.839480543219242"><ele>309.0</ele><time>2026-05-01T17:56:40.998Z</time></trkpt><trkpt lat="45.83137318932173" lon="11.839645330435054"><ele>309.0</ele><time>2026-05-01T17:56:41.998Z</time></trkpt><trkpt lat="45.831462206222994" lon="11.839821436611496"><ele>309.0</ele><time>2026-05-01T17:56:42.998Z</time></trkpt><trkpt lat="45.83154277491602" lon="11.840002647364221"><ele>308.0</ele><time>2026-05-01T17:56:43.998Z</time></trkpt><trkpt lat="45.831612547054284" lon="11.840206451555272"><ele>307.0</ele><time>2026-05-01T17:56:44.998Z</time></trkpt><trkpt lat="45.83167524761662" lon="11.840410446345594"><ele>306.0</ele><time>2026-05-01T17:56:45.998Z</time></trkpt><trkpt lat="45.83173957685103" lon="11.840626448656494"><ele>306.0</ele><time>2026-05-01T17:56:46.998Z</time></trkpt><trkpt lat="45.831803545448466" lon="11.840840168508091"><ele>306.0</ele><time>2026-05-01T17:56:47.998Z</time></trkpt><trkpt lat="45.83186794056007" lon="11.841047930444144"><ele>306.0</ele><time>2026-05-01T17:56:48.998Z</time></trkpt><trkpt lat="45.83193179698539" lon="11.841250094173125"><ele>306.5</ele><time>2026-05-01T17:56:49.998Z</time></trkpt><trkpt lat="45.83199326830118" lon="11.841443012015386"><ele>307.0</ele><time>2026-05-01T17:56:51Z</time></trkpt><trkpt lat="45.83205429669691" lon="11.84162873991098"><ele>307.5</ele><time>2026-05-01T17:56:52Z</time></trkpt><trkpt lat="45.83212351051158" lon="11.841789247261657"><ele>308.0</ele><time>2026-05-01T17:56:53Z</time></trkpt><trkpt lat="45.83222637772304" lon="11.841904160614993"><ele>308.0</ele><time>2026-05-01T17:56:54Z</time></trkpt><trkpt lat="45.83235607633011" lon="11.841979705631287"><ele>308.0</ele><time>2026-05-01T17:56:55Z</time></trkpt><trkpt lat="45.8324991238164" lon="11.842039553737582"><ele>308.0</ele><time>2026-05-01T17:56:56Z</time></trkpt><trkpt lat="45.83264463059066" lon="11.842095195193783"><ele>308.0</ele><time>2026-05-01T17:56:57Z</time></trkpt><trkpt lat="45.8327864418127" lon="11.84215902304281"><ele>311.6666666666667</ele><time>2026-05-01T17:56:58Z</time></trkpt><trkpt lat="45.83293662992879" lon="11.84222726106675"><ele>315.3333333333333</ele><time>2026-05-01T17:56:59Z</time></trkpt><trkpt lat="45.833091571878604" lon="11.84227670042491"><ele>319.0</ele><time>2026-05-01T17:57:00Z</time></trkpt><trkpt lat="45.83323583723066" lon="11.842330241370616"><ele>319.0</ele><time>2026-05-01T17:57:01Z</time></trkpt><trkpt lat="45.83336680768914" lon="11.8423862870721"><ele>319.0</ele><time>2026-05-01T17:57:02Z</time></trkpt><trkpt lat="45.833489685154085" lon="11.842430698686801"><ele>319.0</ele><time>2026-05-01T17:57:03Z</time></trkpt><trkpt lat="45.833590809782045" lon="11.842481552912405"><ele>319.0</ele><time>2026-05-01T17:57:04Z</time></trkpt><trkpt lat="45.83367310298625" lon="11.842543614886559"><ele>320.0</ele><time>2026-05-01T17:57:05Z</time></trkpt><trkpt lat="45.83372987965696" lon="11.842639975158258"><ele>321.0</ele><time>2026-05-01T17:57:06Z</time></trkpt><trkpt lat="45.833743963701075" lon="11.842765288180917"><ele>322.0</ele><time>2026-05-01T17:57:07Z</time></trkpt><trkpt lat="45.833712655981145" lon="11.842877262785883"><ele>323.0</ele><time>2026-05-01T17:57:08Z</time></trkpt><trkpt lat="45.83364410707011" lon="11.843016756565556"><ele>324.0</ele><time>2026-05-01T17:57:09Z</time></trkpt><trkpt lat="45.83356733411268" lon="11.84315752884766"><ele>324.0</ele><time>2026-05-01T17:57:10Z</time></trkpt><trkpt lat="45.83349245222144" lon="11.843327048848657"><ele>324.0</ele><time>2026-05-01T17:57:11Z</time></trkpt><trkpt lat="45.83342072495228" lon="11.843492827808214"><ele>324.0</ele><time>2026-05-01T17:57:12Z</time></trkpt><trkpt lat="45.83334205037844" lon="11.843682686529842"><ele>324.0</ele><time>2026-05-01T17:57:13Z</time></trkpt><trkpt lat="45.833261353194565" lon="11.843874875197729"><ele>322.6666666666667</ele><time>2026-05-01T17:57:14Z</time></trkpt><trkpt lat="45.83317515673662" lon="11.844059286430163"><ele>321.33333333333337</ele><time>2026-05-01T17:57:15Z</time></trkpt><trkpt lat="45.83308827355236" lon="11.844261011477295"><ele>320.0</ele><time>2026-05-01T17:57:16Z</time></trkpt><trkpt lat="45.83300439885354" lon="11.844455543146454"><ele>320.0</ele><time>2026-05-01T17:57:17Z</time></trkpt><trkpt lat="45.832915456039764" lon="11.844661828040516"><ele>320.0</ele><time>2026-05-01T17:57:18Z</time></trkpt><trkpt lat="45.83283645416624" lon="11.844850143843741"><ele>320.0</ele><time>2026-05-01T17:57:19Z</time></trkpt><trkpt lat="45.83275662678166" lon="11.84506335106693"><ele>320.6666666666667</ele><time>2026-05-01T17:57:20Z</time></trkpt><trkpt lat="45.83270052021417" lon="11.845285892434891"><ele>321.3333333333333</ele><time>2026-05-01T17:57:21Z</time></trkpt><trkpt lat="45.83267750520237" lon="11.845496575559965"><ele>322.0</ele><time>2026-05-01T17:57:22Z</time></trkpt><trkpt lat="45.83268192171905" lon="11.84572320543286"><ele>322.0</ele><time>2026-05-01T17:57:23Z</time></trkpt><trkpt lat="45.83272411980499" lon="11.84592549217822"><ele>322.0</ele><time>2026-05-01T17:57:24Z</time></trkpt><trkpt lat="45.83280788744087" lon="11.846107077993766"><ele>322.0</ele><time>2026-05-01T17:57:25Z</time></trkpt><trkpt lat="45.832912665878375" lon="11.846267453792903"><ele>323.0</ele><time>2026-05-01T17:57:26Z</time></trkpt><trkpt lat="45.833022159896345" lon="11.846417882530131"><ele>324.0</ele><time>2026-05-01T17:57:27Z</time></trkpt><trkpt lat="45.833132749794856" lon="11.846567790077174"><ele>325.0</ele><time>2026-05-01T17:57:28Z</time></trkpt><trkpt lat="45.83324465217555" lon="11.846719476605019"><ele>325.3333333333333</ele><time>2026-05-01T17:57:29Z</time></trkpt><trkpt lat="45.83335975152742" lon="11.84687492718906"><ele>325.6666666666667</ele><time>2026-05-01T17:57:30Z</time></trkpt><trkpt lat="45.833473502052044" lon="11.847030539856068"><ele>326.0</ele><time>2026-05-01T17:57:31Z</time></trkpt><trkpt lat="45.83358962966098" lon="11.847187749921845"><ele>328.0</ele><time>2026-05-01T17:57:32Z</time></trkpt><trkpt lat="45.83371222584962" lon="11.847332298859358"><ele>330.0</ele><time>2026-05-01T17:57:33Z</time></trkpt><trkpt lat="45.83385498631584" lon="11.847469338526505"><ele>332.0</ele><time>2026-05-01T17:57:34Z</time></trkpt><trkpt lat="45.834003442444235" lon="11.847585937333445"><ele>332.6666666666667</ele><time>2026-05-01T17:57:35Z</time></trkpt><trkpt lat="45.83415696079696" lon="11.847701521133063"><ele>333.3333333333333</ele><time>2026-05-01T17:57:36Z</time></trkpt><trkpt lat="45.83432215284598" lon="11.847822399347857"><ele>334.0</ele><time>2026-05-01T17:57:37Z</time></trkpt><trkpt lat="45.834485224830146" lon="11.847940725445197"><ele>334.0</ele><time>2026-05-01T17:57:37.999Z</time></trkpt><trkpt lat="45.83465625898417" lon="11.848060166656603"><ele>334.0</ele><time>2026-05-01T17:57:38.999Z</time></trkpt><trkpt lat="45.834805477181725" lon="11.848163204321283"><ele>334.0</ele><time>2026-05-01T17:57:39.999Z</time></trkpt><trkpt lat="45.83494388159041" lon="11.848293034458322"><ele>334.0</ele><time>2026-05-01T17:57:40.999Z</time></trkpt><trkpt lat="45.835064517876894" lon="11.8484540702472"><ele>334.0</ele><time>2026-05-01T17:57:41.999Z</time></trkpt><trkpt lat="45.83516791296108" lon="11.848643310541355"><ele>334.0</ele><time>2026-05-01T17:57:42.999Z</time></trkpt><trkpt lat="45.835254573771856" lon="11.848850621324491"><ele>335.66666666666663</ele><time>2026-05-01T17:57:43.999Z</time></trkpt><trkpt lat="45.83533226825451" lon="11.849072152366377"><ele>337.3333333333333</ele><time>2026-05-01T17:57:44.999Z</time></trkpt><trkpt lat="45.83539156285976" lon="11.849303857354528"><ele>339.0</ele><time>2026-05-01T17:57:45.999Z</time></trkpt><trkpt lat="45.835433749963485" lon="11.849549906795229"><ele>339.0</ele><time>2026-05-01T17:57:46.999Z</time></trkpt><trkpt lat="45.8354735225345" lon="11.849799868597456"><ele>339.0</ele><time>2026-05-01T17:57:47.999Z</time></trkpt><trkpt lat="45.835517394226464" lon="11.850046233028591"><ele>339.0</ele><time>2026-05-01T17:57:48.999Z</time></trkpt><trkpt lat="45.83554329897714" lon="11.85030940188056"><ele>338.6666666666667</ele><time>2026-05-01T17:57:49.999Z</time></trkpt><trkpt lat="45.835585814922474" lon="11.850568461556268"><ele>338.33333333333337</ele><time>2026-05-01T17:57:50.999Z</time></trkpt><trkpt lat="45.83562756354868" lon="11.850822845720959"><ele>338.0</ele><time>2026-05-01T17:57:51.999Z</time></trkpt><trkpt lat="45.8356683863385" lon="11.85107203535754"><ele>337.6666666666667</ele><time>2026-05-01T17:57:52.999Z</time></trkpt><trkpt lat="45.83570944489874" lon="11.851322782782677"><ele>337.3333333333333</ele><time>2026-05-01T17:57:53.999Z</time></trkpt><trkpt lat="45.83576425307251" lon="11.85157245581286"><ele>337.0</ele><time>2026-05-01T17:57:54.999Z</time></trkpt><trkpt lat="45.83580884363516" lon="11.851838872403345"><ele>337.0</ele><time>2026-05-01T17:57:55.999Z</time></trkpt><trkpt lat="45.83587029383326" lon="11.852085029583389"><ele>337.0</ele><time>2026-05-01T17:57:56.999Z</time></trkpt><trkpt lat="45.83594005664131" lon="11.852331125739479"><ele>337.0</ele><time>2026-05-01T17:57:57.999Z</time></trkpt><trkpt lat="45.83601572072292" lon="11.852574986509133"><ele>338.3333333333333</ele><time>2026-05-01T17:57:58.999Z</time></trkpt><trkpt lat="45.83609274254428" lon="11.852821700797803"><ele>339.6666666666667</ele><time>2026-05-01T17:57:59.999Z</time></trkpt><trkpt lat="45.83616774969553" lon="11.85306950288872"><ele>341.0</ele><time>2026-05-01T17:58:00.999Z</time></trkpt><trkpt lat="45.836242920884615" lon="11.85330280508319"><ele>340.6666666666667</ele><time>2026-05-01T17:58:01.999Z</time></trkpt><trkpt lat="45.836322007681545" lon="11.85353864923364"><ele>340.3333333333333</ele><time>2026-05-01T17:58:02.999Z</time></trkpt><trkpt lat="45.83639804671737" lon="11.853772977817856"><ele>340.0</ele><time>2026-05-01T17:58:03.999Z</time></trkpt><trkpt lat="45.836473971696016" lon="11.854009380344374"><ele>340.0</ele><time>2026-05-01T17:58:04.999Z</time></trkpt><trkpt lat="45.836538096340234" lon="11.854261157485103"><ele>340.0</ele><time>2026-05-01T17:58:05.999Z</time></trkpt><trkpt lat="45.8366145098153" lon="11.854502104462883"><ele>340.0</ele><time>2026-05-01T17:58:06.999Z</time></trkpt><trkpt lat="45.836703608840644" lon="11.85473779007992"><ele>339.3333333333333</ele><time>2026-05-01T17:58:07.999Z</time></trkpt><trkpt lat="45.83677726781082" lon="11.854984209938632"><ele>338.6666666666667</ele><time>2026-05-01T17:58:08.999Z</time></trkpt><trkpt lat="45.83685347176135" lon="11.855229010452792"><ele>338.0</ele><time>2026-05-01T17:58:09.999Z</time></trkpt><trkpt lat="45.836936601343936" lon="11.855476638431286"><ele>338.0</ele><time>2026-05-01T17:58:10.999Z</time></trkpt><trkpt lat="45.83700317570429" lon="11.855735093469326"><ele>338.0</ele><time>2026-05-01T17:58:11.999Z</time></trkpt><trkpt lat="45.8370852068554" lon="11.85599030369416"><ele>338.0</ele><time>2026-05-01T17:58:12.999Z</time></trkpt><trkpt lat="45.837174494668844" lon="11.856236280216223"><ele>337.0</ele><time>2026-05-01T17:58:13.999Z</time></trkpt><trkpt lat="45.83727757346026" lon="11.856462540074432"><ele>336.0</ele><time>2026-05-01T17:58:14.999Z</time></trkpt><trkpt lat="45.83739976174091" lon="11.856673191092511"><ele>335.0</ele><time>2026-05-01T17:58:15.999Z</time></trkpt><trkpt lat="45.837531631211526" lon="11.856857839163935"><ele>335.0</ele><time>2026-05-01T17:58:16.999Z</time></trkpt><trkpt lat="45.83768185441634" lon="11.857015603125507"><ele>335.0</ele><time>2026-05-01T17:58:17.999Z</time></trkpt><trkpt lat="45.837837947633794" lon="11.857170242001233"><ele>335.0</ele><time>2026-05-01T17:58:18.999Z</time></trkpt><trkpt lat="45.838010415679065" lon="11.857302038750975"><ele>335.0</ele><time>2026-05-01T17:58:19.999Z</time></trkpt><trkpt lat="45.838184305213524" lon="11.857413693868981"><ele>335.0</ele><time>2026-05-01T17:58:20.999Z</time></trkpt><trkpt lat="45.838360169365515" lon="11.857514422306538"><ele>335.0</ele><time>2026-05-01T17:58:21.999Z</time></trkpt><trkpt lat="45.83853661387145" lon="11.857617729062111"><ele>335.33333333333337</ele><time>2026-05-01T17:58:22.999Z</time></trkpt><trkpt lat="45.83871223954188" lon="11.85772454601182"><ele>335.6666666666667</ele><time>2026-05-01T17:58:23.999Z</time></trkpt><trkpt lat="45.83888274462018" lon="11.85782266375103"><ele>336.0</ele><time>2026-05-01T17:58:24.999Z</time></trkpt><trkpt lat="45.83906190491321" lon="11.857920433019197"><ele>336.0</ele><time>2026-05-01T17:58:25.999Z</time></trkpt><trkpt lat="45.83923363758093" lon="11.858026491479741"><ele>336.0</ele><time>2026-05-01T17:58:26.999Z</time></trkpt><trkpt lat="45.83940287955988" lon="11.85813468183904"><ele>336.0</ele><time>2026-05-01T17:58:27.999Z</time></trkpt><trkpt lat="45.8395740699978" lon="11.85824076269706"><ele>336.3333333333333</ele><time>2026-05-01T17:58:28.999Z</time></trkpt><trkpt lat="45.839752200000525" lon="11.858339268395152"><ele>336.66666666666663</ele><time>2026-05-01T17:58:29.999Z</time></trkpt><trkpt lat="45.83993104824403" lon="11.858447656474029"><ele>337.0</ele><time>2026-05-01T17:58:30.999Z</time></trkpt><trkpt lat="45.8401087462077" lon="11.858547949762563"><ele>337.0</ele><time>2026-05-01T17:58:31.999Z</time></trkpt><trkpt lat="45.84028670353705" lon="11.858653641635497"><ele>337.0</ele><time>2026-05-01T17:58:32.999Z</time></trkpt><trkpt lat="45.840466816806895" lon="11.85875788948744"><ele>337.0</ele><time>2026-05-01T17:58:33.999Z</time></trkpt><trkpt lat="45.84064644213022" lon="11.858854729302543"><ele>337.0</ele><time>2026-05-01T17:58:34.999Z</time></trkpt><trkpt lat="45.840817516601405" lon="11.858957645892591"><ele>337.0</ele><time>2026-05-01T17:58:35.999Z</time></trkpt><trkpt lat="45.84098485369608" lon="11.859052062865478"><ele>337.0</ele><time>2026-05-01T17:58:36.999Z</time></trkpt><trkpt lat="45.84114625501972" lon="11.859127443350811"><ele>337.0</ele><time>2026-05-01T17:58:37.999Z</time></trkpt><trkpt lat="45.84131481078865" lon="11.859191606846721"><ele>337.0</ele><time>2026-05-01T17:58:38.999Z</time></trkpt><trkpt lat="45.8414797231358" lon="11.85920532627283"><ele>337.0</ele><time>2026-05-01T17:58:39.999Z</time></trkpt><trkpt lat="45.84163347266478" lon="11.859180360439138"><ele>337.0</ele><time>2026-05-01T17:58:40.999Z</time></trkpt><trkpt lat="45.841778948301744" lon="11.859116358213"><ele>337.0</ele><time>2026-05-01T17:58:41.999Z</time></trkpt><trkpt lat="45.841913502650755" lon="11.859037705821352"><ele>337.0</ele><time>2026-05-01T17:58:42.999Z</time></trkpt><trkpt lat="45.842040166399244" lon="11.858956415903224"><ele>337.0</ele><time>2026-05-01T17:58:43.998Z</time></trkpt><trkpt lat="45.84215218124461" lon="11.858917276389874"><ele>336.0</ele><time>2026-05-01T17:58:44.998Z</time></trkpt><trkpt lat="45.84226283634651" lon="11.858876591746462"><ele>335.0</ele><time>2026-05-01T17:58:45.998Z</time></trkpt><trkpt lat="45.84237012713646" lon="11.858951778814616"><ele>334.0</ele><time>2026-05-01T17:58:46.998Z</time></trkpt><trkpt lat="45.842443897616484" lon="11.859110723689483"><ele>333.0</ele><time>2026-05-01T17:58:47.998Z</time></trkpt><trkpt lat="45.84252943505057" lon="11.859281772104417"><ele>332.6666666666667</ele><time>2026-05-01T17:58:48.998Z</time></trkpt><trkpt lat="45.84260473639523" lon="11.859482209149533"><ele>332.33333333333337</ele><time>2026-05-01T17:58:49.998Z</time></trkpt><trkpt lat="45.84269091680106" lon="11.859676878664596"><ele>332.0</ele><time>2026-05-01T17:58:50.998Z</time></trkpt><trkpt lat="45.8427730477955" lon="11.859872944141078"><ele>333.33333333333337</ele><time>2026-05-01T17:58:51.998Z</time></trkpt><trkpt lat="45.84285564231209" lon="11.860047075980537"><ele>334.6666666666667</ele><time>2026-05-01T17:58:52.998Z</time></trkpt><trkpt lat="45.842920671094625" lon="11.86025959555068"><ele>336.0</ele><time>2026-05-01T17:58:53.998Z</time></trkpt><trkpt lat="45.8430030961212" lon="11.860457059166333"><ele>334.0</ele><time>2026-05-01T17:58:54.998Z</time></trkpt><trkpt lat="45.843079254290394" lon="11.860640380597173"><ele>332.0</ele><time>2026-05-01T17:58:55.998Z</time></trkpt><trkpt lat="45.84315451309016" lon="11.860817160162332"><ele>330.0</ele><time>2026-05-01T17:58:57Z</time></trkpt><trkpt lat="45.843228276516975" lon="11.860985960001619"><ele>328.0</ele><time>2026-05-01T17:58:58Z</time></trkpt><trkpt lat="45.84332288307059" lon="11.86112108147364"><ele>326.25</ele><time>2026-05-01T17:58:59Z</time></trkpt><trkpt lat="45.84342752791618" lon="11.861235735068012"><ele>324.5</ele><time>2026-05-01T17:59:00Z</time></trkpt><trkpt lat="45.843550477133746" lon="11.861303591469616"><ele>322.75</ele><time>2026-05-01T17:59:01Z</time></trkpt><trkpt lat="45.843679826179674" lon="11.86131805714466"><ele>321.0</ele><time>2026-05-01T17:59:02Z</time></trkpt><trkpt lat="45.843803884648636" lon="11.861284902396093"><ele>321.0</ele><time>2026-05-01T17:59:03Z</time></trkpt><trkpt lat="45.84391910834033" lon="11.861195688666403"><ele>321.0</ele><time>2026-05-01T17:59:04Z</time></trkpt><trkpt lat="45.84401337223492" lon="11.861066639379121"><ele>321.0</ele><time>2026-05-01T17:59:05Z</time></trkpt><trkpt lat="45.844076471225556" lon="11.860913582460169"><ele>321.0</ele><time>2026-05-01T17:59:06Z</time></trkpt><trkpt lat="45.844114588527056" lon="11.860736837439045"><ele>321.0</ele><time>2026-05-01T17:59:07Z</time></trkpt><trkpt lat="45.84411729900733" lon="11.860545169453726"><ele>321.0</ele><time>2026-05-01T17:59:08Z</time></trkpt><trkpt lat="45.84408195160413" lon="11.860348240133312"><ele>321.0</ele><time>2026-05-01T17:59:09Z</time></trkpt><trkpt lat="45.84406507107964" lon="11.860163888996288"><ele>321.0</ele><time>2026-05-01T17:59:10Z</time></trkpt><trkpt lat="45.84402709161805" lon="11.859988743499649"><ele>321.5</ele><time>2026-05-01T17:59:11Z</time></trkpt><trkpt lat="45.844038818597646" lon="11.859790682233248"><ele>322.0</ele><time>2026-05-01T17:59:12Z</time></trkpt><trkpt lat="45.84410874850236" lon="11.859614166664507"><ele>322.5</ele><time>2026-05-01T17:59:13Z</time></trkpt><trkpt lat="45.8441738419781" lon="11.859437911761635"><ele>323.0</ele><time>2026-05-01T17:59:14Z</time></trkpt><trkpt lat="45.84424560179445" lon="11.859297092144747"><ele>324.5</ele><time>2026-05-01T17:59:15Z</time></trkpt><trkpt lat="45.84434167286372" lon="11.859205266969813"><ele>326.0</ele><time>2026-05-01T17:59:16Z</time></trkpt><trkpt lat="45.84445324327379" lon="11.85916674461825"><ele>327.5</ele><time>2026-05-01T17:59:17Z</time></trkpt><trkpt lat="45.84457196100843" lon="11.859193380277288"><ele>329.0</ele><time>2026-05-01T17:59:18Z</time></trkpt><trkpt lat="45.8446817941719" lon="11.859298530522484"><ele>329.5</ele><time>2026-05-01T17:59:19Z</time></trkpt><trkpt lat="45.844806740657525" lon="11.85940905546935"><ele>330.0</ele><time>2026-05-01T17:59:20Z</time></trkpt><trkpt lat="45.844933558126634" lon="11.859509121891255"><ele>330.5</ele><time>2026-05-01T17:59:21Z</time></trkpt><trkpt lat="45.84505786517528" lon="11.859599119758036"><ele>331.0</ele><time>2026-05-01T17:59:22Z</time></trkpt><trkpt lat="45.845174019931456" lon="11.859691426720497"><ele>331.0</ele><time>2026-05-01T17:59:23Z</time></trkpt><trkpt lat="45.84529152384302" lon="11.859779263771344"><ele>331.0</ele><time>2026-05-01T17:59:24Z</time></trkpt><trkpt lat="45.84539331373575" lon="11.859881459547099"><ele>331.0</ele><time>2026-05-01T17:59:25Z</time></trkpt><trkpt lat="45.84544230628036" lon="11.860043219129714"><ele>331.0</ele><time>2026-05-01T17:59:26Z</time></trkpt><trkpt lat="45.84543989841956" lon="11.860211731090509"><ele>330.66666666666663</ele><time>2026-05-01T17:59:27Z</time></trkpt><trkpt lat="45.84537916586633" lon="11.860389920753171"><ele>330.3333333333333</ele><time>2026-05-01T17:59:28Z</time></trkpt><trkpt lat="45.845275197396745" lon="11.860560150527824"><ele>330.0</ele><time>2026-05-01T17:59:29Z</time></trkpt><trkpt lat="45.845179763790554" lon="11.860736115929955"><ele>325.0</ele><time>2026-05-01T17:59:30Z</time></trkpt><trkpt lat="45.84508579456827" lon="11.860901938103032"><ele>320.0</ele><time>2026-05-01T17:59:31Z</time></trkpt><trkpt lat="45.845012269536845" lon="11.861067726864073"><ele>315.0</ele><time>2026-05-01T17:59:32Z</time></trkpt><trkpt lat="45.844966523741505" lon="11.861266942888593"><ele>310.0</ele><time>2026-05-01T17:59:33Z</time></trkpt><trkpt lat="45.84494348942677" lon="11.861493113886104"><ele>308.66666666666663</ele><time>2026-05-01T17:59:34Z</time></trkpt><trkpt lat="45.84493724728628" lon="11.861719936718108"><ele>307.3333333333333</ele><time>2026-05-01T17:59:35Z</time></trkpt><trkpt lat="45.844927051496256" lon="11.861955088844628"><ele>306.0</ele><time>2026-05-01T17:59:36Z</time></trkpt><trkpt lat="45.84491136210418" lon="11.862195193589937"><ele>305.3333333333333</ele><time>2026-05-01T17:59:37Z</time></trkpt><trkpt lat="45.84492602254484" lon="11.862447427588778"><ele>304.66666666666663</ele><time>2026-05-01T17:59:38Z</time></trkpt><trkpt lat="45.844950113362685" lon="11.862693751049399"><ele>304.0</ele><time>2026-05-01T17:59:39Z</time></trkpt><trkpt lat="45.84498285855166" lon="11.862954364927488"><ele>300.3333333333333</ele><time>2026-05-01T17:59:40Z</time></trkpt><trkpt lat="45.845010808125956" lon="11.863209708509812"><ele>296.6666666666667</ele><time>2026-05-01T17:59:41Z</time></trkpt><trkpt lat="45.84503484464062" lon="11.86346667234722"><ele>293.0</ele><time>2026-05-01T17:59:42Z</time></trkpt><trkpt lat="45.845061136753415" lon="11.863727997424945"><ele>290.6666666666667</ele><time>2026-05-01T17:59:43Z</time></trkpt><trkpt lat="45.84508026380757" lon="11.864000203945201"><ele>288.3333333333333</ele><time>2026-05-01T17:59:43.999Z</time></trkpt><trkpt lat="45.84510274573496" lon="11.864266507068743"><ele>286.0</ele><time>2026-05-01T17:59:44.999Z</time></trkpt><trkpt lat="45.845125894382974" lon="11.864534208662047"><ele>281.0</ele><time>2026-05-01T17:59:45.999Z</time></trkpt><trkpt lat="45.84515596614774" lon="11.864802007756607"><ele>276.0</ele><time>2026-05-01T17:59:46.999Z</time></trkpt><trkpt lat="45.84517624920213" lon="11.865071757833096"><ele>271.0</ele><time>2026-05-01T17:59:47.999Z</time></trkpt><trkpt lat="45.84520502644426" lon="11.865349114319528"><ele>270.66666666666663</ele><time>2026-05-01T17:59:48.999Z</time></trkpt><trkpt lat="45.84523751457013" lon="11.865613680077"><ele>270.3333333333333</ele><time>2026-05-01T17:59:49.999Z</time></trkpt><trkpt lat="45.84525719930422" lon="11.865883445903485"><ele>270.0</ele><time>2026-05-01T17:59:50.999Z</time></trkpt><trkpt lat="45.84529755533609" lon="11.866158430478569"><ele>270.0</ele><time>2026-05-01T17:59:51.999Z</time></trkpt><trkpt lat="45.84533121599526" lon="11.866414393042849"><ele>270.0</ele><time>2026-05-01T17:59:52.999Z</time></trkpt><trkpt lat="45.84536941506857" lon="11.86665147159098"><ele>270.0</ele><time>2026-05-01T17:59:53.999Z</time></trkpt><trkpt lat="45.84543274024863" lon="11.866879887728967"><ele>268.6666666666667</ele><time>2026-05-01T17:59:54.999Z</time></trkpt><trkpt lat="45.845506132139406" lon="11.8671078159233"><ele>267.33333333333337</ele><time>2026-05-01T17:59:55.999Z</time></trkpt><trkpt lat="45.84559762662271" lon="11.867308124210075"><ele>266.0</ele><time>2026-05-01T17:59:56.999Z</time></trkpt><trkpt lat="45.84568857972927" lon="11.867514371489586"><ele>265.6666666666667</ele><time>2026-05-01T17:59:57.999Z</time></trkpt><trkpt lat="45.84580941547158" lon="11.86769421884696"><ele>265.3333333333333</ele><time>2026-05-01T17:59:58.999Z</time></trkpt><trkpt lat="45.84594705424339" lon="11.867859521247434"><ele>265.0</ele><time>2026-05-01T17:59:59.999Z</time></trkpt><trkpt lat="45.846090661138035" lon="11.868007113419091"><ele>265.0</ele><time>2026-05-01T18:00:00.999Z</time></trkpt><trkpt lat="45.84624256088609" lon="11.868147227101657"><ele>265.0</ele><time>2026-05-01T18:00:01.999Z</time></trkpt><trkpt lat="45.846399350045935" lon="11.868286315039768"><ele>265.0</ele><time>2026-05-01T18:00:02.999Z</time></trkpt><trkpt lat="45.84655573649595" lon="11.868425045736"><ele>264.3333333333333</ele><time>2026-05-01T18:00:03.999Z</time></trkpt><trkpt lat="45.84671618115161" lon="11.86856737639681"><ele>263.6666666666667</ele><time>2026-05-01T18:00:04.999Z</time></trkpt><trkpt lat="45.84687661776468" lon="11.868702182093667"><ele>263.0</ele><time>2026-05-01T18:00:05.999Z</time></trkpt><trkpt lat="45.84703542455407" lon="11.86884245791664"><ele>263.0</ele><time>2026-05-01T18:00:06.999Z</time></trkpt><trkpt lat="45.847194130959885" lon="11.868977544120805"><ele>263.0</ele><time>2026-05-01T18:00:07.999Z</time></trkpt><trkpt lat="45.847357208126056" lon="11.869118189214115"><ele>263.0</ele><time>2026-05-01T18:00:08.999Z</time></trkpt><trkpt lat="45.84752263908044" lon="11.869259297798537"><ele>261.33333333333337</ele><time>2026-05-01T18:00:09.999Z</time></trkpt><trkpt lat="45.84767848210182" lon="11.869419284066842"><ele>259.6666666666667</ele><time>2026-05-01T18:00:10.999Z</time></trkpt><trkpt lat="45.84784508869914" lon="11.869544197929736"><ele>258.0</ele><time>2026-05-01T18:00:11.999Z</time></trkpt><trkpt lat="45.848012110072666" lon="11.869689227191069"><ele>258.0</ele><time>2026-05-01T18:00:12.999Z</time></trkpt><trkpt lat="45.848172182943856" lon="11.86984830043683"><ele>258.0</ele><time>2026-05-01T18:00:13.999Z</time></trkpt><trkpt lat="45.84834064214204" lon="11.869974513874242"><ele>258.0</ele><time>2026-05-01T18:00:14.999Z</time></trkpt><trkpt lat="45.84850441458453" lon="11.870117670618844"><ele>259.6666666666667</ele><time>2026-05-01T18:00:15.999Z</time></trkpt><trkpt lat="45.84865889779927" lon="11.870280602720198"><ele>261.33333333333337</ele><time>2026-05-01T18:00:16.999Z</time></trkpt><trkpt lat="45.848808452799105" lon="11.87041468065559"><ele>263.0</ele><time>2026-05-01T18:00:17.999Z</time></trkpt><trkpt lat="45.84894299469146" lon="11.870535349865985"><ele>263.0</ele><time>2026-05-01T18:00:18.999Z</time></trkpt><trkpt lat="45.84907004589424" lon="11.8706493007574"><ele>263.0</ele><time>2026-05-01T18:00:19.999Z</time></trkpt><trkpt lat="45.84917050388693" lon="11.870754683909636"><ele>263.0</ele><time>2026-05-01T18:00:20.999Z</time></trkpt><trkpt lat="45.84926320129307" lon="11.87084398695943"><ele>263.0</ele><time>2026-05-01T18:00:21.999Z</time></trkpt><trkpt lat="45.849345888032424" lon="11.870921237436752"><ele>263.33333333333337</ele><time>2026-05-01T18:00:22.999Z</time></trkpt><trkpt lat="45.84942526350315" lon="11.870981837858075"><ele>263.6666666666667</ele><time>2026-05-01T18:00:23.999Z</time></trkpt><trkpt lat="45.84948707280573" lon="11.871029017028455"><ele>264.0</ele><time>2026-05-01T18:00:24.999Z</time></trkpt><trkpt lat="45.84955116401954" lon="11.871051632749323"><ele>264.3333333333333</ele><time>2026-05-01T18:00:25.999Z</time></trkpt><trkpt lat="45.849657083145665" lon="11.870940552130529"><ele>264.66666666666663</ele><time>2026-05-01T18:00:27.999Z</time></trkpt><trkpt lat="45.8497009046421" lon="11.8708434073838"><ele>265.0</ele><time>2026-05-01T18:00:28.999Z</time></trkpt><trkpt lat="45.84978327321174" lon="11.870750425115405"><ele>265.0</ele><time>2026-05-01T18:00:29.999Z</time></trkpt><trkpt lat="45.84987511332488" lon="11.870650722986193"><ele>265.0</ele><time>2026-05-01T18:00:30.999Z</time></trkpt><trkpt lat="45.849978558202174" lon="11.870536148889016"><ele>265.0</ele><time>2026-05-01T18:00:31.999Z</time></trkpt><trkpt lat="45.85007952847945" lon="11.870418824270068"><ele>265.0</ele><time>2026-05-01T18:00:32.999Z</time></trkpt><trkpt lat="45.85018311959845" lon="11.87029335763884"><ele>265.3333333333333</ele><time>2026-05-01T18:00:33.999Z</time></trkpt><trkpt lat="45.85029391810798" lon="11.870168404978296"><ele>265.6666666666667</ele><time>2026-05-01T18:00:34.999Z</time></trkpt><trkpt lat="45.85042145191901" lon="11.870025017610285"><ele>266.0</ele><time>2026-05-01T18:00:35.999Z</time></trkpt><trkpt lat="45.850552549171546" lon="11.86989712196166"><ele>267.33333333333337</ele><time>2026-05-01T18:00:36.999Z</time></trkpt><trkpt lat="45.85067769231036" lon="11.869757656496434"><ele>268.6666666666667</ele><time>2026-05-01T18:00:37.999Z</time></trkpt><trkpt lat="45.85076794942083" lon="11.869591778924217"><ele>270.0</ele><time>2026-05-01T18:00:38.999Z</time></trkpt><trkpt lat="45.85085939981073" lon="11.869409456649183"><ele>271.3333333333333</ele><time>2026-05-01T18:00:39.999Z</time></trkpt><trkpt lat="45.85093029457867" lon="11.869211817008203"><ele>272.66666666666663</ele><time>2026-05-01T18:00:40.999Z</time></trkpt><trkpt lat="45.85098732042954" lon="11.868995357321317"><ele>274.0</ele><time>2026-05-01T18:00:41.999Z</time></trkpt><trkpt lat="45.85103113649289" lon="11.868764576427806"><ele>275.0</ele><time>2026-05-01T18:00:42.999Z</time></trkpt><trkpt lat="45.85106299284576" lon="11.868534817500159"><ele>276.0</ele><time>2026-05-01T18:00:43.999Z</time></trkpt><trkpt lat="45.851099305578984" lon="11.868316983261991"><ele>277.0</ele><time>2026-05-01T18:00:44.999Z</time></trkpt><trkpt lat="45.85115323242434" lon="11.868105614991343"><ele>277.25</ele><time>2026-05-01T18:00:45.999Z</time></trkpt><trkpt lat="45.851224342071454" lon="11.867911603546128"><ele>277.5</ele><time>2026-05-01T18:00:46.999Z</time></trkpt><trkpt lat="45.85129530264219" lon="11.867736891256222"><ele>277.75</ele><time>2026-05-01T18:00:47.999Z</time></trkpt><trkpt lat="45.85135983463339" lon="11.86758288373513"><ele>278.0</ele><time>2026-05-01T18:00:48.999Z</time></trkpt><trkpt lat="45.851417223726095" lon="11.867452759004065"><ele>278.4</ele><time>2026-05-01T18:00:49.998Z</time></trkpt><trkpt lat="45.8514612851956" lon="11.867343187247315"><ele>278.8</ele><time>2026-05-01T18:00:50.998Z</time></trkpt><trkpt lat="45.85150812060882" lon="11.867265489466762"><ele>279.2</ele><time>2026-05-01T18:00:51.998Z</time></trkpt><trkpt lat="45.85155222026638" lon="11.867163749496363"><ele>279.6</ele><time>2026-05-01T18:00:53.998Z</time></trkpt><trkpt lat="45.85143256973206" lon="11.867003175329591"><ele>280.0</ele><time>2026-05-01T18:00:54.998Z</time></trkpt><trkpt lat="45.85137302077388" lon="11.866917465767157"><ele>280.0</ele><time>2026-05-01T18:00:55.998Z</time></trkpt><trkpt lat="45.85131904340615" lon="11.866848395511138"><ele>280.0</ele><time>2026-05-01T18:00:56.998Z</time></trkpt><trkpt lat="45.85120799784276" lon="11.866822454669371"><ele>280.0</ele><time>2026-05-01T18:00:58.998Z</time></trkpt><trkpt lat="45.851129629485136" lon="11.86687337088445"><ele>280.0</ele><time>2026-05-01T18:01:00.998Z</time></trkpt><trkpt lat="45.85104631052909" lon="11.867021560216862"><ele>280.0</ele><time>2026-05-01T18:01:03Z</time></trkpt><trkpt lat="45.85101281075868" lon="11.86714832898983"><ele>280.0</ele><time>2026-05-01T18:01:05Z</time></trkpt><trkpt lat="45.8509712618264" lon="11.867222282195845"><ele>280.0</ele><time>2026-05-01T18:01:08Z</time></trkpt><trkpt lat="45.85097168294556" lon="11.867130573150781"><ele>280.0</ele><time>2026-05-01T18:01:54.999Z</time></trkpt><trkpt lat="45.85091411203312" lon="11.867169272757922"><ele>280.0</ele><time>2026-05-01T18:03:16Z</time></trkpt><trkpt lat="45.85085048258047" lon="11.867177853124893"><ele>280.0</ele><time>2026-05-01T18:03:20Z</time></trkpt><trkpt lat="45.85082653800485" lon="11.86729481086516"><ele>280.0</ele><time>2026-05-01T18:03:32Z</time></trkpt><trkpt lat="45.85057741986325" lon="11.867139041193338"><ele>280.0</ele><time>2026-05-01T18:03:41Z</time></trkpt><trkpt lat="45.850777363015496" lon="11.867281959214221"><ele>280.0</ele><time>2026-05-01T18:03:46Z</time></trkpt><trkpt lat="45.85098600393385" lon="11.867307663581842"><ele>280.0</ele><time>2026-05-01T18:03:48Z</time></trkpt><trkpt lat="45.85103007088044" lon="11.867223396461457"><ele>280.0</ele><time>2026-05-01T18:03:56.999Z</time></trkpt><trkpt lat="45.850974376050914" lon="11.867158044696685"><ele>280.0</ele><time>2026-05-01T18:04:02.999Z</time></trkpt><trkpt lat="45.85090796737516" lon="11.867156153037877"><ele>280.0</ele><time>2026-05-01T18:05:25Z</time></trkpt><trkpt lat="45.85095809610479" lon="11.867094863717536"><ele>280.0</ele><time>2026-05-01T18:05:38Z</time></trkpt><trkpt lat="45.85097772225709" lon="11.867184946811433"><ele>280.0</ele><time>2026-05-01T18:05:48Z</time></trkpt><trkpt lat="45.851018463280056" lon="11.867085857019605"><ele>280.0</ele><time>2026-05-01T18:06:02.999Z</time></trkpt><trkpt lat="45.85108850996368" lon="11.866996493256845"><ele>280.0</ele><time>2026-05-01T18:06:04.999Z</time></trkpt><trkpt lat="45.85112976941688" lon="11.866917347399493"><ele>280.0</ele><time>2026-05-01T18:06:06.999Z</time></trkpt><trkpt lat="45.85120370963907" lon="11.866831323028547"><ele>280.0</ele><time>2026-05-01T18:06:08.999Z</time></trkpt><trkpt lat="45.851293450061334" lon="11.86684745186807"><ele>280.0</ele><time>2026-05-01T18:06:11.999Z</time></trkpt><trkpt lat="45.85134835001506" lon="11.86690697125389"><ele>280.0</ele><time>2026-05-01T18:06:13.999Z</time></trkpt><trkpt lat="45.851416297183164" lon="11.867003395100307"><ele>280.0</ele><time>2026-05-01T18:06:15.999Z</time></trkpt><trkpt lat="45.851476659139884" lon="11.867100984627553"><ele>280.0</ele><time>2026-05-01T18:06:17.999Z</time></trkpt><trkpt lat="45.85150909802186" lon="11.8671786021892"><ele>280.0</ele><time>2026-05-01T18:06:20.999Z</time></trkpt><trkpt lat="45.85147496963889" lon="11.867259741042087"><ele>280.0</ele><time>2026-05-01T18:06:22.999Z</time></trkpt><trkpt lat="45.85143148346375" lon="11.86734356701626"><ele>280.0</ele><time>2026-05-01T18:06:23.999Z</time></trkpt><trkpt lat="45.85139428459942" lon="11.86744073174654"><ele>280.0</ele><time>2026-05-01T18:06:24.999Z</time></trkpt><trkpt lat="45.851350696632295" lon="11.867534403965628"><ele>280.0</ele><time>2026-05-01T18:06:25.999Z</time></trkpt><trkpt lat="45.851304711442346" lon="11.867640256287153"><ele>280.0</ele><time>2026-05-01T18:06:26.999Z</time></trkpt><trkpt lat="45.851249603140886" lon="11.867765216163159"><ele>279.5</ele><time>2026-05-01T18:06:27.999Z</time></trkpt><trkpt lat="45.851200416927675" lon="11.86789654822138"><ele>279.0</ele><time>2026-05-01T18:06:28.999Z</time></trkpt><trkpt lat="45.851147751825415" lon="11.868034687623119"><ele>278.5</ele><time>2026-05-01T18:06:29.999Z</time></trkpt><trkpt lat="45.851099510299534" lon="11.86818636416402"><ele>278.0</ele><time>2026-05-01T18:06:30.999Z</time></trkpt><trkpt lat="45.85106266633294" lon="11.86835815774632"><ele>277.75</ele><time>2026-05-01T18:06:31.999Z</time></trkpt><trkpt lat="45.85102096980661" lon="11.868538834733922"><ele>277.5</ele><time>2026-05-01T18:06:32.999Z</time></trkpt><trkpt lat="45.85098156981211" lon="11.868712504946414"><ele>277.25</ele><time>2026-05-01T18:06:33.999Z</time></trkpt><trkpt lat="45.85095400428304" lon="11.868872383516033"><ele>277.0</ele><time>2026-05-01T18:06:34.999Z</time></trkpt><trkpt lat="45.85092184358588" lon="11.869034914338012"><ele>276.4</ele><time>2026-05-01T18:06:35.999Z</time></trkpt><trkpt lat="45.85088347648889" lon="11.86919621383397"><ele>275.79999999999995</ele><time>2026-05-01T18:06:36.999Z</time></trkpt><trkpt lat="45.8508342554877" lon="11.869322953485392"><ele>275.2</ele><time>2026-05-01T18:06:37.999Z</time></trkpt><trkpt lat="45.85077223771313" lon="11.869461640030462"><ele>274.59999999999997</ele><time>2026-05-01T18:06:38.999Z</time></trkpt><trkpt lat="45.850704121023206" lon="11.869589292001676"><ele>274.0</ele><time>2026-05-01T18:06:39.999Z</time></trkpt><trkpt lat="45.85064425596347" lon="11.86969838286878"><ele>273.0</ele><time>2026-05-01T18:06:40.999Z</time></trkpt><trkpt lat="45.85056639136253" lon="11.86980155806907"><ele>272.0</ele><time>2026-05-01T18:06:41.999Z</time></trkpt><trkpt lat="45.850479339628585" lon="11.869913317545818"><ele>271.0</ele><time>2026-05-01T18:06:42.999Z</time></trkpt><trkpt lat="45.85038467431486" lon="11.870016756245542"><ele>270.0</ele><time>2026-05-01T18:06:43.999Z</time></trkpt><trkpt lat="45.85028520082173" lon="11.870127011947572"><ele>269.2</ele><time>2026-05-01T18:06:44.999Z</time></trkpt><trkpt lat="45.85019715610866" lon="11.870227431993273"><ele>268.4</ele><time>2026-05-01T18:06:45.999Z</time></trkpt><trkpt lat="45.850109300552035" lon="11.870335963366301"><ele>267.6</ele><time>2026-05-01T18:06:46.999Z</time></trkpt><trkpt lat="45.85003074139666" lon="11.870429634043434"><ele>266.8</ele><time>2026-05-01T18:06:47.999Z</time></trkpt><trkpt lat="45.84993000264581" lon="11.87051912501167"><ele>266.0</ele><time>2026-05-01T18:06:48.999Z</time></trkpt><trkpt lat="45.849849472380484" lon="11.870611971844863"><ele>266.0</ele><time>2026-05-01T18:06:49.999Z</time></trkpt><trkpt lat="45.84978182458794" lon="11.870688820303936"><ele>266.0</ele><time>2026-05-01T18:06:50.999Z</time></trkpt><trkpt lat="45.849723510460926" lon="11.870781038080871"><ele>266.0</ele><time>2026-05-01T18:06:51.999Z</time></trkpt><trkpt lat="45.849672418169206" lon="11.87084605676286"><ele>266.0</ele><time>2026-05-01T18:06:52.999Z</time></trkpt><trkpt lat="45.8495928036005" lon="11.870939505627803"><ele>266.0</ele><time>2026-05-01T18:06:54.999Z</time></trkpt><trkpt lat="45.84954515670297" lon="11.871028847033964"><ele>266.0</ele><time>2026-05-01T18:07:04.999Z</time></trkpt><trkpt lat="45.84965599921841" lon="11.871210063954583"><ele>266.0</ele><time>2026-05-01T18:07:07.998Z</time></trkpt><trkpt lat="45.84973278648383" lon="11.871267895168826"><ele>266.0</ele><time>2026-05-01T18:07:08.998Z</time></trkpt><trkpt lat="45.84981852259639" lon="11.87135009790893"><ele>266.0</ele><time>2026-05-01T18:07:09.998Z</time></trkpt><trkpt lat="45.84990798081913" lon="11.871426533855443"><ele>266.0</ele><time>2026-05-01T18:07:10.998Z</time></trkpt><trkpt lat="45.84999047139643" lon="11.871507776907873"><ele>266.0</ele><time>2026-05-01T18:07:11.998Z</time></trkpt><trkpt lat="45.850107169196846" lon="11.871596878305432"><ele>266.0</ele><time>2026-05-01T18:07:12.998Z</time></trkpt><trkpt lat="45.85021640380001" lon="11.871695625346213"><ele>266.0</ele><time>2026-05-01T18:07:13.998Z</time></trkpt><trkpt lat="45.85033025108774" lon="11.87179028415845"><ele>266.0</ele><time>2026-05-01T18:07:14.998Z</time></trkpt><trkpt lat="45.850429910682614" lon="11.871916938835112"><ele>266.0</ele><time>2026-05-01T18:07:15.998Z</time></trkpt><trkpt lat="45.85053679666034" lon="11.872060449104172"><ele>266.0</ele><time>2026-05-01T18:07:16.998Z</time></trkpt><trkpt lat="45.850637365661704" lon="11.872225561284512"><ele>266.0</ele><time>2026-05-01T18:07:17.998Z</time></trkpt><trkpt lat="45.85073620591894" lon="11.872395602094244"><ele>266.0</ele><time>2026-05-01T18:07:18.998Z</time></trkpt><trkpt lat="45.850834766866804" lon="11.872575199674028"><ele>266.0</ele><time>2026-05-01T18:07:19.998Z</time></trkpt><trkpt lat="45.85091339255029" lon="11.872779130609977"><ele>266.0</ele><time>2026-05-01T18:07:21Z</time></trkpt><trkpt lat="45.85100179339047" lon="11.872942854079989"><ele>266.0</ele><time>2026-05-01T18:07:22Z</time></trkpt><trkpt lat="45.85108879956093" lon="11.873114038929355"><ele>267.0</ele><time>2026-05-01T18:07:23Z</time></trkpt><trkpt lat="45.8511649252938" lon="11.873287443240331"><ele>268.0</ele><time>2026-05-01T18:07:24Z</time></trkpt><trkpt lat="45.851225526090715" lon="11.873459511618176"><ele>269.0</ele><time>2026-05-01T18:07:25Z</time></trkpt><trkpt lat="45.85127739499511" lon="11.873616852124284"><ele>270.0</ele><time>2026-05-01T18:07:26Z</time></trkpt><trkpt lat="45.85127370585884" lon="11.873796494149797"><ele>270.0</ele><time>2026-05-01T18:07:27Z</time></trkpt><trkpt lat="45.85125589873761" lon="11.873985377132184"><ele>270.0</ele><time>2026-05-01T18:07:28Z</time></trkpt><trkpt lat="45.8511390753082" lon="11.874115802854302"><ele>270.0</ele><time>2026-05-01T18:07:29Z</time></trkpt><trkpt lat="45.85104407995568" lon="11.874280469220277"><ele>270.0</ele><time>2026-05-01T18:07:30Z</time></trkpt><trkpt lat="45.85089070598398" lon="11.874523202004648"><ele>267.6666666666667</ele><time>2026-05-01T18:07:31Z</time></trkpt><trkpt lat="45.85078905120004" lon="11.874699519555369"><ele>265.33333333333337</ele><time>2026-05-01T18:07:32Z</time></trkpt><trkpt lat="45.85067761441088" lon="11.874885351010358"><ele>263.0</ele><time>2026-05-01T18:07:33Z</time></trkpt><trkpt lat="45.85057225334082" lon="11.875053003871772"><ele>262.33333333333337</ele><time>2026-05-01T18:07:34Z</time></trkpt><trkpt lat="45.85044895083506" lon="11.875210816263754"><ele>261.6666666666667</ele><time>2026-05-01T18:07:35Z</time></trkpt><trkpt lat="45.85030732730709" lon="11.875349046883505"><ele>261.0</ele><time>2026-05-01T18:07:36Z</time></trkpt><trkpt lat="45.85016101567804" lon="11.875478684995949"><ele>260.0</ele><time>2026-05-01T18:07:37Z</time></trkpt><trkpt lat="45.85001716782969" lon="11.875607370461633"><ele>259.0</ele><time>2026-05-01T18:07:38Z</time></trkpt><trkpt lat="45.849871083080515" lon="11.875732603720769"><ele>258.0</ele><time>2026-05-01T18:07:39Z</time></trkpt><trkpt lat="45.84972383738127" lon="11.875855796689683"><ele>257.3333333333333</ele><time>2026-05-01T18:07:40Z</time></trkpt><trkpt lat="45.849580036618114" lon="11.875988039575317"><ele>256.66666666666663</ele><time>2026-05-01T18:07:41Z</time></trkpt><trkpt lat="45.84942197302892" lon="11.876103000309788"><ele>256.0</ele><time>2026-05-01T18:07:42Z</time></trkpt><trkpt lat="45.849269627287505" lon="11.876218891442235"><ele>254.33333333333331</ele><time>2026-05-01T18:07:43Z</time></trkpt><trkpt lat="45.849130307148876" lon="11.87633143757382"><ele>252.66666666666669</ele><time>2026-05-01T18:07:44Z</time></trkpt><trkpt lat="45.848987181093115" lon="11.876448573601502"><ele>251.0</ele><time>2026-05-01T18:07:45Z</time></trkpt><trkpt lat="45.84884541162326" lon="11.876565691245125"><ele>251.0</ele><time>2026-05-01T18:07:46Z</time></trkpt><trkpt lat="45.84870149888275" lon="11.876680479300969"><ele>251.0</ele><time>2026-05-01T18:07:47Z</time></trkpt><trkpt lat="45.84855915947821" lon="11.876796032449343"><ele>251.0</ele><time>2026-05-01T18:07:48Z</time></trkpt><trkpt lat="45.84842369537468" lon="11.876925928087278"><ele>251.0</ele><time>2026-05-01T18:07:49Z</time></trkpt><trkpt lat="45.84831472712696" lon="11.877075894903975"><ele>251.0</ele><time>2026-05-01T18:07:50Z</time></trkpt><trkpt lat="45.848218313475066" lon="11.877259408322056"><ele>251.0</ele><time>2026-05-01T18:07:51Z</time></trkpt><trkpt lat="45.8481558819835" lon="11.877452772927708"><ele>250.33333333333334</ele><time>2026-05-01T18:07:52Z</time></trkpt><trkpt lat="45.84811512279755" lon="11.87767487802212"><ele>249.66666666666669</ele><time>2026-05-01T18:07:53Z</time></trkpt><trkpt lat="45.84811316971778" lon="11.877906798544299"><ele>249.0</ele><time>2026-05-01T18:07:54Z</time></trkpt><trkpt lat="45.84814954534598" lon="11.878144997140279"><ele>249.0</ele><time>2026-05-01T18:07:55Z</time></trkpt><trkpt lat="45.848178279193164" lon="11.878392981155308"><ele>249.0</ele><time>2026-05-01T18:07:56Z</time></trkpt><trkpt lat="45.848209856473474" lon="11.878636510374218"><ele>249.0</ele><time>2026-05-01T18:07:57Z</time></trkpt><trkpt lat="45.84823467142111" lon="11.878895527702428"><ele>248.0</ele><time>2026-05-01T18:07:58Z</time></trkpt><trkpt lat="45.8482616014867" lon="11.879146183373177"><ele>247.0</ele><time>2026-05-01T18:07:59Z</time></trkpt><trkpt lat="45.84828718169996" lon="11.879394618561626"><ele>246.0</ele><time>2026-05-01T18:08:00Z</time></trkpt><trkpt lat="45.84830708505355" lon="11.879652191978277"><ele>245.33333333333331</ele><time>2026-05-01T18:08:01Z</time></trkpt><trkpt lat="45.848331963061455" lon="11.879904680760388"><ele>244.66666666666666</ele><time>2026-05-01T18:08:02Z</time></trkpt><trkpt lat="45.84835795173544" lon="11.880141382342247"><ele>244.0</ele><time>2026-05-01T18:08:03Z</time></trkpt><trkpt lat="45.848388939120184" lon="11.880373195456354"><ele>243.0</ele><time>2026-05-01T18:08:04Z</time></trkpt><trkpt lat="45.848399909995685" lon="11.880610467596497"><ele>242.0</ele><time>2026-05-01T18:08:05Z</time></trkpt><trkpt lat="45.84842617349933" lon="11.880842752952587"><ele>241.0</ele><time>2026-05-01T18:08:06Z</time></trkpt><trkpt lat="45.84846960513768" lon="11.881060449744012"><ele>240.75</ele><time>2026-05-01T18:08:07Z</time></trkpt><trkpt lat="45.848489061203935" lon="11.881273700621541"><ele>240.5</ele><time>2026-05-01T18:08:08Z</time></trkpt><trkpt lat="45.84850813746815" lon="11.881469971497621"><ele>240.25</ele><time>2026-05-01T18:08:08.999Z</time></trkpt><trkpt lat="45.8485365580885" lon="11.881653745285664"><ele>240.0</ele><time>2026-05-01T18:08:09.999Z</time></trkpt><trkpt lat="45.84856024344724" lon="11.88182884842717"><ele>239.6</ele><time>2026-05-01T18:08:10.999Z</time></trkpt><trkpt lat="45.8485809682434" lon="11.881992981867818"><ele>239.2</ele><time>2026-05-01T18:08:11.999Z</time></trkpt><trkpt lat="45.84858878998878" lon="11.882136725704845"><ele>238.8</ele><time>2026-05-01T18:08:12.999Z</time></trkpt><trkpt lat="45.84864609949767" lon="11.882250480100991"><ele>238.4</ele><time>2026-05-01T18:08:13.999Z</time></trkpt><trkpt lat="45.848687755447045" lon="11.882347508493591"><ele>238.0</ele><time>2026-05-01T18:08:14.999Z</time></trkpt><trkpt lat="45.84872694459333" lon="11.882442372743112"><ele>238.0</ele><time>2026-05-01T18:08:16.999Z</time></trkpt><trkpt lat="45.848629097693056" lon="11.882533732815292"><ele>238.0</ele><time>2026-05-01T18:08:22.999Z</time></trkpt><trkpt lat="45.848742404980996" lon="11.882537076997272"><ele>238.0</ele><time>2026-05-01T18:08:23.999Z</time></trkpt><trkpt lat="45.84864614411328" lon="11.882825919731994"><ele>238.0</ele><time>2026-05-01T18:13:17.999Z</time></trkpt><trkpt lat="45.84864057983907" lon="11.882928279148556"><ele>238.0</ele><time>2026-05-01T18:13:18.999Z</time></trkpt><trkpt lat="45.84863474982259" lon="11.883057909812454"><ele>238.0</ele><time>2026-05-01T18:13:19.999Z</time></trkpt><trkpt lat="45.8486602867904" lon="11.88324894445683"><ele>238.0</ele><time>2026-05-01T18:13:20.999Z</time></trkpt><trkpt lat="45.848692488773054" lon="11.883438600009956"><ele>238.0</ele><time>2026-05-01T18:13:21.999Z</time></trkpt><trkpt lat="45.84870592124177" lon="11.88362409169567"><ele>237.25</ele><time>2026-05-01T18:13:22.999Z</time></trkpt><trkpt lat="45.848719734199236" lon="11.883826425806712"><ele>236.5</ele><time>2026-05-01T18:13:23.999Z</time></trkpt><trkpt lat="45.84873368427834" lon="11.884013692767915"><ele>235.75</ele><time>2026-05-01T18:13:24.999Z</time></trkpt><trkpt lat="45.848759362728075" lon="11.884218530354786"><ele>235.0</ele><time>2026-05-01T18:13:25.999Z</time></trkpt><trkpt lat="45.84879028364943" lon="11.884440421794267"><ele>234.66666666666666</ele><time>2026-05-01T18:13:26.998Z</time></trkpt><trkpt lat="45.84883766069002" lon="11.88464282381522"><ele>234.33333333333331</ele><time>2026-05-01T18:13:27.998Z</time></trkpt><trkpt lat="45.848900342377114" lon="11.884855066801613"><ele>234.0</ele><time>2026-05-01T18:13:28.998Z</time></trkpt><trkpt lat="45.848960776119206" lon="11.885095233332397"><ele>234.0</ele><time>2026-05-01T18:13:29.998Z</time></trkpt><trkpt lat="45.849022008192385" lon="11.885331571416447"><ele>234.0</ele><time>2026-05-01T18:13:30.998Z</time></trkpt><trkpt lat="45.84908660928938" lon="11.885561602298857"><ele>234.0</ele><time>2026-05-01T18:13:31.998Z</time></trkpt><trkpt lat="45.84914659652618" lon="11.885801471020548"><ele>233.66666666666669</ele><time>2026-05-01T18:13:32.998Z</time></trkpt><trkpt lat="45.8492021701123" lon="11.886042275727178"><ele>233.33333333333334</ele><time>2026-05-01T18:13:33.998Z</time></trkpt><trkpt lat="45.84926194297606" lon="11.886278003455981"><ele>233.0</ele><time>2026-05-01T18:13:34.998Z</time></trkpt><trkpt lat="45.84931722706164" lon="11.886512494493092"><ele>233.0</ele><time>2026-05-01T18:13:35.998Z</time></trkpt><trkpt lat="45.84937465814448" lon="11.886747211089848"><ele>233.0</ele><time>2026-05-01T18:13:36.998Z</time></trkpt><trkpt lat="45.8494269027368" lon="11.886976995967562"><ele>233.0</ele><time>2026-05-01T18:13:37.998Z</time></trkpt><trkpt lat="45.8494394368013" lon="11.887198650249637"><ele>232.25</ele><time>2026-05-01T18:13:39Z</time></trkpt><trkpt lat="45.84944184116846" lon="11.887416478696293"><ele>231.5</ele><time>2026-05-01T18:13:40Z</time></trkpt><trkpt lat="45.84942017067666" lon="11.8876270888762"><ele>230.75</ele><time>2026-05-01T18:13:41Z</time></trkpt><trkpt lat="45.849401693773395" lon="11.88781820188187"><ele>230.0</ele><time>2026-05-01T18:13:42Z</time></trkpt><trkpt lat="45.84937640341894" lon="11.8879759212614"><ele>229.6</ele><time>2026-05-01T18:13:43Z</time></trkpt><trkpt lat="45.84936571071842" lon="11.888122391675003"><ele>229.2</ele><time>2026-05-01T18:13:44Z</time></trkpt><trkpt lat="45.84939766681974" lon="11.888253222780747"><ele>228.8</ele><time>2026-05-01T18:13:45Z</time></trkpt><trkpt lat="45.84945247270923" lon="11.888363702911581"><ele>228.4</ele><time>2026-05-01T18:13:46Z</time></trkpt><trkpt lat="45.84954150349405" lon="11.88843948077867"><ele>228.0</ele><time>2026-05-01T18:13:47Z</time></trkpt><trkpt lat="45.84966017753496" lon="11.888490294756927"><ele>228.0</ele><time>2026-05-01T18:13:48Z</time></trkpt><trkpt lat="45.84978459818519" lon="11.88855706065567"><ele>228.0</ele><time>2026-05-01T18:13:49Z</time></trkpt><trkpt lat="45.84991058641672" lon="11.888665961906618"><ele>228.0</ele><time>2026-05-01T18:13:50Z</time></trkpt><trkpt lat="45.850029443458126" lon="11.888793075463322"><ele>228.0</ele><time>2026-05-01T18:13:51Z</time></trkpt><trkpt lat="45.85015915771486" lon="11.888904755666827"><ele>228.0</ele><time>2026-05-01T18:13:52Z</time></trkpt><trkpt lat="45.85024360456282" lon="11.889139678352988"><ele>228.0</ele><time>2026-05-01T18:13:53Z</time></trkpt><trkpt lat="45.850350755152576" lon="11.88934296259927"><ele>228.0</ele><time>2026-05-01T18:13:54Z</time></trkpt><trkpt lat="45.850458259366654" lon="11.88956726500531"><ele>227.0</ele><time>2026-05-01T18:13:55Z</time></trkpt><trkpt lat="45.8505541452145" lon="11.889770745097398"><ele>226.0</ele><time>2026-05-01T18:13:56Z</time></trkpt><trkpt lat="45.85065275874511" lon="11.88997428543723"><ele>225.0</ele><time>2026-05-01T18:13:57Z</time></trkpt><trkpt lat="45.850759090808374" lon="11.890163874394934"><ele>224.66666666666669</ele><time>2026-05-01T18:13:58Z</time></trkpt><trkpt lat="45.85086600723399" lon="11.890361137886602"><ele>224.33333333333334</ele><time>2026-05-01T18:13:59Z</time></trkpt><trkpt lat="45.85097835342716" lon="11.89055736646178"><ele>224.0</ele><time>2026-05-01T18:14:00Z</time></trkpt><trkpt lat="45.85108756773985" lon="11.890766022448323"><ele>222.66666666666669</ele><time>2026-05-01T18:14:01Z</time></trkpt><trkpt lat="45.851197415779176" lon="11.890970540244705"><ele>221.33333333333331</ele><time>2026-05-01T18:14:02Z</time></trkpt><trkpt lat="45.85130411076551" lon="11.89117734566389"><ele>220.0</ele><time>2026-05-01T18:14:03Z</time></trkpt><trkpt lat="45.85141701699051" lon="11.891387005076819"><ele>220.0</ele><time>2026-05-01T18:14:04Z</time></trkpt><trkpt lat="45.851527574302175" lon="11.891597553788605"><ele>220.0</ele><time>2026-05-01T18:14:05Z</time></trkpt><trkpt lat="45.85162916503839" lon="11.891819034042642"><ele>220.0</ele><time>2026-05-01T18:14:06Z</time></trkpt><trkpt lat="45.851731846406906" lon="11.892042135861544"><ele>219.33333333333331</ele><time>2026-05-01T18:14:07Z</time></trkpt><trkpt lat="45.85183149614157" lon="11.892272356544106"><ele>218.66666666666669</ele><time>2026-05-01T18:14:08Z</time></trkpt><trkpt lat="45.85192194787075" lon="11.892509908750098"><ele>218.0</ele><time>2026-05-01T18:14:09Z</time></trkpt><trkpt lat="45.852002865789736" lon="11.89276824267915"><ele>218.0</ele><time>2026-05-01T18:14:10Z</time></trkpt><trkpt lat="45.85207795355651" lon="11.893042290456973"><ele>218.0</ele><time>2026-05-01T18:14:11Z</time></trkpt><trkpt lat="45.85215066128564" lon="11.893314959279214"><ele>218.0</ele><time>2026-05-01T18:14:12Z</time></trkpt><trkpt lat="45.85221525023044" lon="11.893590611473783"><ele>218.33333333333334</ele><time>2026-05-01T18:14:13Z</time></trkpt><trkpt lat="45.85227849850089" lon="11.89386260559079"><ele>218.66666666666669</ele><time>2026-05-01T18:14:14Z</time></trkpt><trkpt lat="45.85233592094931" lon="11.89413374593474"><ele>219.0</ele><time>2026-05-01T18:14:15Z</time></trkpt><trkpt lat="45.85239924541923" lon="11.894415064392"><ele>219.0</ele><time>2026-05-01T18:14:16Z</time></trkpt><trkpt lat="45.85246507280927" lon="11.894688729882663"><ele>219.0</ele><time>2026-05-01T18:14:17Z</time></trkpt><trkpt lat="45.85253049103382" lon="11.894975398145645"><ele>219.0</ele><time>2026-05-01T18:14:18Z</time></trkpt><trkpt lat="45.852592573131744" lon="11.895264760291736"><ele>218.66666666666669</ele><time>2026-05-01T18:14:19Z</time></trkpt><trkpt lat="45.852657340210385" lon="11.895557230623726"><ele>218.33333333333334</ele><time>2026-05-01T18:14:20Z</time></trkpt><trkpt lat="45.85272535601939" lon="11.895841377792834"><ele>218.0</ele><time>2026-05-01T18:14:21Z</time></trkpt><trkpt lat="45.8527857011274" lon="11.896133148766074"><ele>218.0</ele><time>2026-05-01T18:14:22Z</time></trkpt><trkpt lat="45.852846744874896" lon="11.896431407436602"><ele>218.0</ele><time>2026-05-01T18:14:23Z</time></trkpt><trkpt lat="45.852909914989624" lon="11.896724644680347"><ele>218.0</ele><time>2026-05-01T18:14:24Z</time></trkpt><trkpt lat="45.85296673700256" lon="11.897025472691114"><ele>218.0</ele><time>2026-05-01T18:14:25Z</time></trkpt><trkpt lat="45.85301654513713" lon="11.897329639792948"><ele>218.0</ele><time>2026-05-01T18:14:26Z</time></trkpt><trkpt lat="45.853089921088504" lon="11.897618052843846"><ele>218.0</ele><time>2026-05-01T18:14:26.999Z</time></trkpt><trkpt lat="45.85315265352712" lon="11.897899089155306"><ele>217.0</ele><time>2026-05-01T18:14:27.999Z</time></trkpt><trkpt lat="45.85321467234036" lon="11.89818593387322"><ele>216.0</ele><time>2026-05-01T18:14:28.999Z</time></trkpt><trkpt lat="45.85328852623491" lon="11.898471214347161"><ele>215.0</ele><time>2026-05-01T18:14:29.999Z</time></trkpt><trkpt lat="45.85336062099666" lon="11.898755846882942"><ele>214.5</ele><time>2026-05-01T18:14:30.999Z</time></trkpt><trkpt lat="45.8534257434838" lon="11.899063312323868"><ele>214.0</ele><time>2026-05-01T18:14:31.999Z</time></trkpt><trkpt lat="45.85348623697166" lon="11.899382058123999"><ele>215.0</ele><time>2026-05-01T18:14:32.999Z</time></trkpt><trkpt lat="45.853532140712964" lon="11.89971012339423"><ele>216.0</ele><time>2026-05-01T18:14:33.999Z</time></trkpt><trkpt lat="45.8535743857358" lon="11.900054278304687"><ele>216.0</ele><time>2026-05-01T18:14:34.999Z</time></trkpt><trkpt lat="45.85360345442156" lon="11.900414115165685"><ele>216.0</ele><time>2026-05-01T18:14:35.999Z</time></trkpt><trkpt lat="45.85361163401586" lon="11.900710089505745"><ele>215.33333333333331</ele><time>2026-05-01T18:14:36.999Z</time></trkpt><trkpt lat="45.85363322577304" lon="11.900987589794413"><ele>214.66666666666666</ele><time>2026-05-01T18:14:37.999Z</time></trkpt><trkpt lat="45.85364262559461" lon="11.90123803662674"><ele>214.0</ele><time>2026-05-01T18:14:38.999Z</time></trkpt><trkpt lat="45.85362560522943" lon="11.901540883980996"><ele>213.66666666666666</ele><time>2026-05-01T18:14:39.999Z</time></trkpt><trkpt lat="45.85359449494284" lon="11.901859733617181"><ele>213.33333333333331</ele><time>2026-05-01T18:14:40.999Z</time></trkpt><trkpt lat="45.85356922256121" lon="11.90218001163235"><ele>213.0</ele><time>2026-05-01T18:14:41.999Z</time></trkpt><trkpt lat="45.85354262779617" lon="11.902498279597909"><ele>213.0</ele><time>2026-05-01T18:14:42.999Z</time></trkpt><trkpt lat="45.85351659264025" lon="11.902819752613587"><ele>213.0</ele><time>2026-05-01T18:14:43.999Z</time></trkpt><trkpt lat="45.853492934021446" lon="11.903141386310578"><ele>212.33333333333331</ele><time>2026-05-01T18:14:44.999Z</time></trkpt><trkpt lat="45.85347479620314" lon="11.903462136616117"><ele>211.66666666666666</ele><time>2026-05-01T18:14:45.999Z</time></trkpt><trkpt lat="45.853472712177144" lon="11.903782650487555"><ele>211.0</ele><time>2026-05-01T18:14:46.999Z</time></trkpt><trkpt lat="45.8534863050136" lon="11.904116917028222"><ele>210.0</ele><time>2026-05-01T18:14:47.999Z</time></trkpt><trkpt lat="45.853513077893936" lon="11.904453332154889"><ele>209.0</ele><time>2026-05-01T18:14:48.999Z</time></trkpt><trkpt lat="45.85354913321718" lon="11.904771776796949"><ele>207.5</ele><time>2026-05-01T18:14:49.999Z</time></trkpt><trkpt lat="45.85359118024768" lon="11.905099323877058"><ele>206.0</ele><time>2026-05-01T18:14:50.999Z</time></trkpt><trkpt lat="45.853638208888725" lon="11.90542809733377"><ele>206.0</ele><time>2026-05-01T18:14:51.999Z</time></trkpt><trkpt lat="45.85368851038047" lon="11.905760308389395"><ele>206.0</ele><time>2026-05-01T18:14:52.999Z</time></trkpt><trkpt lat="45.85373074804458" lon="11.906097575225541"><ele>207.0</ele><time>2026-05-01T18:14:53.999Z</time></trkpt><trkpt lat="45.85378123728123" lon="11.906426458326674"><ele>208.0</ele><time>2026-05-01T18:14:54.999Z</time></trkpt><trkpt lat="45.85383019328435" lon="11.906758769241328"><ele>208.0</ele><time>2026-05-01T18:14:55.999Z</time></trkpt><trkpt lat="45.8538806114233" lon="11.907087963800178"><ele>208.0</ele><time>2026-05-01T18:14:56.999Z</time></trkpt><trkpt lat="45.85393288682543" lon="11.907420163652223"><ele>207.5</ele><time>2026-05-01T18:14:57.999Z</time></trkpt><trkpt lat="45.85397111700001" lon="11.907750461848375"><ele>207.0</ele><time>2026-05-01T18:14:58.999Z</time></trkpt><trkpt lat="45.85385086231755" lon="11.908143901288863"><ele>206.5</ele><time>2026-05-01T18:14:59.999Z</time></trkpt><trkpt lat="45.8539010924675" lon="11.908471356646675"><ele>206.0</ele><time>2026-05-01T18:15:00.999Z</time></trkpt><trkpt lat="45.85395391593586" lon="11.908798308915514"><ele>206.0</ele><time>2026-05-01T18:15:01.999Z</time></trkpt><trkpt lat="45.853985239129614" lon="11.909117722412953"><ele>206.0</ele><time>2026-05-01T18:15:02.999Z</time></trkpt><trkpt lat="45.85395048292886" lon="11.909458971864934"><ele>205.0</ele><time>2026-05-01T18:15:03.999Z</time></trkpt><trkpt lat="45.853911476430426" lon="11.909799898757699"><ele>204.0</ele><time>2026-05-01T18:15:04.999Z</time></trkpt><trkpt lat="45.85386402910776" lon="11.910137135681001"><ele>204.0</ele><time>2026-05-01T18:15:05.999Z</time></trkpt><trkpt lat="45.85382226961824" lon="11.91048431976239"><ele>204.0</ele><time>2026-05-01T18:15:06.999Z</time></trkpt><trkpt lat="45.85378477161937" lon="11.910836121515377"><ele>203.5</ele><time>2026-05-01T18:15:07.999Z</time></trkpt><trkpt lat="45.85374883675356" lon="11.911178596634631"><ele>203.0</ele><time>2026-05-01T18:15:08.999Z</time></trkpt><trkpt lat="45.85370988261357" lon="11.91152607416243"><ele>203.0</ele><time>2026-05-01T18:15:09.999Z</time></trkpt><trkpt lat="45.853664503337555" lon="11.911886812727914"><ele>203.0</ele><time>2026-05-01T18:15:10.999Z</time></trkpt><trkpt lat="45.853625290785764" lon="11.912233477760404"><ele>202.0</ele><time>2026-05-01T18:15:11.999Z</time></trkpt><trkpt lat="45.853586433313936" lon="11.912586938681898"><ele>201.0</ele><time>2026-05-01T18:15:12.999Z</time></trkpt><trkpt lat="45.853549063724046" lon="11.912930696007024"><ele>201.0</ele><time>2026-05-01T18:15:13.999Z</time></trkpt><trkpt lat="45.85352027285602" lon="11.91327218987063"><ele>201.0</ele><time>2026-05-01T18:15:14.999Z</time></trkpt><trkpt lat="45.853511804851514" lon="11.913613490291205"><ele>201.5</ele><time>2026-05-01T18:15:15.999Z</time></trkpt><trkpt lat="45.85351717103219" lon="11.913947337840453"><ele>202.0</ele><time>2026-05-01T18:15:16.999Z</time></trkpt><trkpt lat="45.853539567662565" lon="11.91427798409552"><ele>202.0</ele><time>2026-05-01T18:15:17.999Z</time></trkpt><trkpt lat="45.85357556530837" lon="11.914600490276113"><ele>202.0</ele><time>2026-05-01T18:15:18.999Z</time></trkpt><trkpt lat="45.853627110077895" lon="11.914912466829145"><ele>201.0</ele><time>2026-05-01T18:15:19.999Z</time></trkpt><trkpt lat="45.853697764013326" lon="11.915218575954773"><ele>200.0</ele><time>2026-05-01T18:15:20.999Z</time></trkpt><trkpt lat="45.853769368446734" lon="11.915542473959473"><ele>200.0</ele><time>2026-05-01T18:15:21.999Z</time></trkpt><trkpt lat="45.85386254189499" lon="11.91583453547398"><ele>200.0</ele><time>2026-05-01T18:15:22.999Z</time></trkpt><trkpt lat="45.853925245630506" lon="11.916151015080255"><ele>200.0</ele><time>2026-05-01T18:15:23.999Z</time></trkpt><trkpt lat="45.853996170305955" lon="11.916439169583732"><ele>200.0</ele><time>2026-05-01T18:15:24.999Z</time></trkpt><trkpt lat="45.8540745604138" lon="11.916729614992585"><ele>200.0</ele><time>2026-05-01T18:15:25.999Z</time></trkpt><trkpt lat="45.854152831067566" lon="11.917040949722963"><ele>199.5</ele><time>2026-05-01T18:15:26.999Z</time></trkpt><trkpt lat="45.854233053161614" lon="11.917361195542759"><ele>199.0</ele><time>2026-05-01T18:15:27.999Z</time></trkpt><trkpt lat="45.8543092707586" lon="11.917679969805924"><ele>199.0</ele><time>2026-05-01T18:15:28.999Z</time></trkpt><trkpt lat="45.85439959844642" lon="11.91799962629556"><ele>199.0</ele><time>2026-05-01T18:15:29.999Z</time></trkpt><trkpt lat="45.85449236197353" lon="11.918315166492883"><ele>199.5</ele><time>2026-05-01T18:15:30.999Z</time></trkpt><trkpt lat="45.854587558573414" lon="11.918635589715445"><ele>200.0</ele><time>2026-05-01T18:15:31.999Z</time></trkpt><trkpt lat="45.854681529379604" lon="11.918961887552115"><ele>199.5</ele><time>2026-05-01T18:15:32.998Z</time></trkpt><trkpt lat="45.854780960040095" lon="11.919288438546735"><ele>199.0</ele><time>2026-05-01T18:15:33.998Z</time></trkpt><trkpt lat="45.85487668408399" lon="11.919616554541388"><ele>199.0</ele><time>2026-05-01T18:15:34.998Z</time></trkpt><trkpt lat="45.854969509503746" lon="11.919945195737855"><ele>199.0</ele><time>2026-05-01T18:15:35.998Z</time></trkpt><trkpt lat="45.85506319821479" lon="11.920277567143332"><ele>199.5</ele><time>2026-05-01T18:15:36.998Z</time></trkpt><trkpt lat="45.85515837333173" lon="11.920596180958528"><ele>200.0</ele><time>2026-05-01T18:15:37.998Z</time></trkpt><trkpt lat="45.85526375418366" lon="11.920927748573419"><ele>199.0</ele><time>2026-05-01T18:15:38.998Z</time></trkpt><trkpt lat="45.85536497976441" lon="11.921254925780632"><ele>198.0</ele><time>2026-05-01T18:15:39.998Z</time></trkpt><trkpt lat="45.855457365101884" lon="11.921574781862903"><ele>197.0</ele><time>2026-05-01T18:15:40.998Z</time></trkpt><trkpt lat="45.85554812338181" lon="11.92190390557066"><ele>196.0</ele><time>2026-05-01T18:15:41.998Z</time></trkpt><trkpt lat="45.85564307866746" lon="11.92224377516463"><ele>194.5</ele><time>2026-05-01T18:15:42.998Z</time></trkpt><trkpt lat="45.85574265118987" lon="11.92257104787828"><ele>193.0</ele><time>2026-05-01T18:15:43.998Z</time></trkpt><trkpt lat="45.8558342333356" lon="11.922909014284228"><ele>193.0</ele><time>2026-05-01T18:15:45Z</time></trkpt><trkpt lat="45.855927964338775" lon="11.923241026348185"><ele>193.0</ele><time>2026-05-01T18:15:46Z</time></trkpt><trkpt lat="45.85602283704048" lon="11.923585850478016"><ele>193.5</ele><time>2026-05-01T18:15:47Z</time></trkpt><trkpt lat="45.85611494156422" lon="11.923923818654158"><ele>194.0</ele><time>2026-05-01T18:15:48Z</time></trkpt><trkpt lat="45.85621063532614" lon="11.924260203602183"><ele>194.0</ele><time>2026-05-01T18:15:49Z</time></trkpt><trkpt lat="45.85630806455956" lon="11.924604800126803"><ele>194.0</ele><time>2026-05-01T18:15:50Z</time></trkpt><trkpt lat="45.85640593282063" lon="11.924939405962089"><ele>192.5</ele><time>2026-05-01T18:15:51Z</time></trkpt><trkpt lat="45.856498053227554" lon="11.925275750686687"><ele>191.0</ele><time>2026-05-01T18:15:52Z</time></trkpt><trkpt lat="45.85659363011712" lon="11.925603523325982"><ele>191.0</ele><time>2026-05-01T18:15:53Z</time></trkpt><trkpt lat="45.856681974460734" lon="11.92592594117332"><ele>191.0</ele><time>2026-05-01T18:15:54Z</time></trkpt><trkpt lat="45.85676333776187" lon="11.926249945088353"><ele>192.0</ele><time>2026-05-01T18:15:55Z</time></trkpt><trkpt lat="45.85683385470869" lon="11.926568444282259"><ele>193.0</ele><time>2026-05-01T18:15:56Z</time></trkpt><trkpt lat="45.85692142225433" lon="11.926892730420903"><ele>193.5</ele><time>2026-05-01T18:15:57Z</time></trkpt><trkpt lat="45.85700150661605" lon="11.927209755695051"><ele>194.0</ele><time>2026-05-01T18:15:58Z</time></trkpt><trkpt lat="45.85709185619989" lon="11.927537796874832"><ele>195.5</ele><time>2026-05-01T18:15:59Z</time></trkpt><trkpt lat="45.85717207498419" lon="11.927862461742883"><ele>197.0</ele><time>2026-05-01T18:16:00Z</time></trkpt><trkpt lat="45.857248107277506" lon="11.928178172031277"><ele>195.0</ele><time>2026-05-01T18:16:01Z</time></trkpt><trkpt lat="45.85732696946122" lon="11.92849427041423"><ele>193.0</ele><time>2026-05-01T18:16:02Z</time></trkpt><trkpt lat="45.857407269214264" lon="11.928818582338488"><ele>193.0</ele><time>2026-05-01T18:16:03Z</time></trkpt><trkpt lat="45.857484913199144" lon="11.92913196201961"><ele>193.0</ele><time>2026-05-01T18:16:04Z</time></trkpt><trkpt lat="45.857564134731895" lon="11.929445132846435"><ele>191.5</ele><time>2026-05-01T18:16:05Z</time></trkpt><trkpt lat="45.857642795940464" lon="11.929756263291257"><ele>190.0</ele><time>2026-05-01T18:16:06Z</time></trkpt><trkpt lat="45.85772284826847" lon="11.930066130139048"><ele>190.0</ele><time>2026-05-01T18:16:07Z</time></trkpt><trkpt lat="45.857810656984626" lon="11.93037791498879"><ele>190.0</ele><time>2026-05-01T18:16:08Z</time></trkpt><trkpt lat="45.857866258700874" lon="11.930697841372169"><ele>189.0</ele><time>2026-05-01T18:16:09Z</time></trkpt><trkpt lat="45.85794409113397" lon="11.931000858911036"><ele>188.0</ele><time>2026-05-01T18:16:10Z</time></trkpt><trkpt lat="45.85802713735291" lon="11.931318404821337"><ele>188.0</ele><time>2026-05-01T18:16:11Z</time></trkpt><trkpt lat="45.85810609780774" lon="11.931622195439875"><ele>188.0</ele><time>2026-05-01T18:16:12Z</time></trkpt><trkpt lat="45.85818556966334" lon="11.931938734463278"><ele>188.0</ele><time>2026-05-01T18:16:13Z</time></trkpt><trkpt lat="45.85826300961362" lon="11.932246817309492"><ele>188.0</ele><time>2026-05-01T18:16:14Z</time></trkpt><trkpt lat="45.858360970463686" lon="11.932579243918083"><ele>188.0</ele><time>2026-05-01T18:16:15Z</time></trkpt><trkpt lat="45.858430105181604" lon="11.932914942470509"><ele>188.0</ele><time>2026-05-01T18:16:16Z</time></trkpt><trkpt lat="45.85850528869624" lon="11.933227503381946"><ele>187.5</ele><time>2026-05-01T18:16:17Z</time></trkpt><trkpt lat="45.85858295274707" lon="11.933556853990835"><ele>187.0</ele><time>2026-05-01T18:16:18Z</time></trkpt><trkpt lat="45.85865877275515" lon="11.933875783491924"><ele>187.0</ele><time>2026-05-01T18:16:19Z</time></trkpt><trkpt lat="45.85873711950305" lon="11.934198966699478"><ele>187.0</ele><time>2026-05-01T18:16:20Z</time></trkpt><trkpt lat="45.858814166667784" lon="11.93452111481562"><ele>187.0</ele><time>2026-05-01T18:16:21Z</time></trkpt><trkpt lat="45.85888754193603" lon="11.934837585164994"><ele>187.0</ele><time>2026-05-01T18:16:22Z</time></trkpt><trkpt lat="45.858962079783204" lon="11.935141233365325"><ele>186.5</ele><time>2026-05-01T18:16:23Z</time></trkpt><trkpt lat="45.85904638644042" lon="11.9354487999113"><ele>186.0</ele><time>2026-05-01T18:16:24Z</time></trkpt><trkpt lat="45.85912274751307" lon="11.935748061667232"><ele>185.5</ele><time>2026-05-01T18:16:25Z</time></trkpt><trkpt lat="45.85920153718315" lon="11.936059128803727"><ele>185.0</ele><time>2026-05-01T18:16:26Z</time></trkpt><trkpt lat="45.85927471253063" lon="11.936370330246458"><ele>188.0</ele><time>2026-05-01T18:16:27Z</time></trkpt><trkpt lat="45.859346603875096" lon="11.936687670600733"><ele>191.0</ele><time>2026-05-01T18:16:28Z</time></trkpt><trkpt lat="45.85941981151411" lon="11.937013269678195"><ele>191.0</ele><time>2026-05-01T18:16:29Z</time></trkpt><trkpt lat="45.859514158873786" lon="11.9373197629624"><ele>191.0</ele><time>2026-05-01T18:16:30Z</time></trkpt><trkpt lat="45.85959841122879" lon="11.937642842415332"><ele>188.5</ele><time>2026-05-01T18:16:31Z</time></trkpt><trkpt lat="45.859677985900966" lon="11.937962822481001"><ele>186.0</ele><time>2026-05-01T18:16:32Z</time></trkpt><trkpt lat="45.85976054635924" lon="11.938294118293015"><ele>185.5</ele><time>2026-05-01T18:16:33Z</time></trkpt><trkpt lat="45.859832953945116" lon="11.93863387482185"><ele>185.0</ele><time>2026-05-01T18:16:33.999Z</time></trkpt><trkpt lat="45.85991647196134" lon="11.938971768461528"><ele>186.0</ele><time>2026-05-01T18:16:34.999Z</time></trkpt><trkpt lat="45.85999657254026" lon="11.939295835984648"><ele>187.0</ele><time>2026-05-01T18:16:35.999Z</time></trkpt><trkpt lat="45.86007658212501" lon="11.93961891027782"><ele>187.0</ele><time>2026-05-01T18:16:36.999Z</time></trkpt><trkpt lat="45.86016924970078" lon="11.939934159967226"><ele>187.0</ele><time>2026-05-01T18:16:37.999Z</time></trkpt><trkpt lat="45.86025331061422" lon="11.94026687450365"><ele>187.0</ele><time>2026-05-01T18:16:38.999Z</time></trkpt><trkpt lat="45.86033332840969" lon="11.940604205469073"><ele>187.0</ele><time>2026-05-01T18:16:39.999Z</time></trkpt><trkpt lat="45.86041790921295" lon="11.940934328701713"><ele>186.0</ele><time>2026-05-01T18:16:40.999Z</time></trkpt><trkpt lat="45.86050172094242" lon="11.941263095442709"><ele>185.0</ele><time>2026-05-01T18:16:41.999Z</time></trkpt><trkpt lat="45.86060369899263" lon="11.941583276323676"><ele>185.5</ele><time>2026-05-01T18:16:42.999Z</time></trkpt><trkpt lat="45.86070567913516" lon="11.941903717579704"><ele>186.0</ele><time>2026-05-01T18:16:43.999Z</time></trkpt><trkpt lat="45.86081126065823" lon="11.942213771961578"><ele>186.0</ele><time>2026-05-01T18:16:44.999Z</time></trkpt><trkpt lat="45.86092806956321" lon="11.94252026116388"><ele>186.0</ele><time>2026-05-01T18:16:45.999Z</time></trkpt><trkpt lat="45.861043736054775" lon="11.942817087737138"><ele>186.5</ele><time>2026-05-01T18:16:46.999Z</time></trkpt><trkpt lat="45.861174094888305" lon="11.943107370978945"><ele>187.0</ele><time>2026-05-01T18:16:47.999Z</time></trkpt><trkpt lat="45.8613025637708" lon="11.94339728457559"><ele>187.0</ele><time>2026-05-01T18:16:48.999Z</time></trkpt><trkpt lat="45.8614357684409" lon="11.943685645908845"><ele>187.0</ele><time>2026-05-01T18:16:49.999Z</time></trkpt><trkpt lat="45.861574752939184" lon="11.943972038462476"><ele>187.0</ele><time>2026-05-01T18:16:50.999Z</time></trkpt><trkpt lat="45.86171755485326" lon="11.944249941328652"><ele>187.0</ele><time>2026-05-01T18:16:51.999Z</time></trkpt><trkpt lat="45.86186414885874" lon="11.944524493086714"><ele>187.0</ele><time>2026-05-01T18:16:52.999Z</time></trkpt><trkpt lat="45.86202379308175" lon="11.944795215814542"><ele>187.0</ele><time>2026-05-01T18:16:53.999Z</time></trkpt><trkpt lat="45.86218440688178" lon="11.94505752145195"><ele>188.0</ele><time>2026-05-01T18:16:54.999Z</time></trkpt><trkpt lat="45.86234921436987" lon="11.945322007071963"><ele>189.0</ele><time>2026-05-01T18:16:55.999Z</time></trkpt><trkpt lat="45.862513015770055" lon="11.945597626888013"><ele>189.0</ele><time>2026-05-01T18:16:56.999Z</time></trkpt><trkpt lat="45.862678126131115" lon="11.94585460554322"><ele>189.0</ele><time>2026-05-01T18:16:57.999Z</time></trkpt><trkpt lat="45.86284046056197" lon="11.946130304955636"><ele>189.0</ele><time>2026-05-01T18:16:58.999Z</time></trkpt><trkpt lat="45.86300689081389" lon="11.94640595062172"><ele>189.0</ele><time>2026-05-01T18:16:59.999Z</time></trkpt><trkpt lat="45.86316404356964" lon="11.94669010083368"><ele>189.5</ele><time>2026-05-01T18:17:00.999Z</time></trkpt><trkpt lat="45.863329552148464" lon="11.946982758842157"><ele>190.0</ele><time>2026-05-01T18:17:01.999Z</time></trkpt><trkpt lat="45.86349891325555" lon="11.947275837554477"><ele>189.5</ele><time>2026-05-01T18:17:02.999Z</time></trkpt><trkpt lat="45.86366411666718" lon="11.947565705478473"><ele>189.0</ele><time>2026-05-01T18:17:03.999Z</time></trkpt><trkpt lat="45.863831381713084" lon="11.947856632703306"><ele>189.0</ele><time>2026-05-01T18:17:04.999Z</time></trkpt><trkpt lat="45.86402190407098" lon="11.948118749112451"><ele>189.0</ele><time>2026-05-01T18:17:05.999Z</time></trkpt><trkpt lat="45.86419574974831" lon="11.948395671714465"><ele>189.5</ele><time>2026-05-01T18:17:06.999Z</time></trkpt><trkpt lat="45.86437613736749" lon="11.948666732732669"><ele>190.0</ele><time>2026-05-01T18:17:07.999Z</time></trkpt><trkpt lat="45.864552276486904" lon="11.94894739920301"><ele>190.5</ele><time>2026-05-01T18:17:08.999Z</time></trkpt><trkpt lat="45.86473083753431" lon="11.949220977818682"><ele>191.0</ele><time>2026-05-01T18:17:09.999Z</time></trkpt><trkpt lat="45.86490439967759" lon="11.949496404009752"><ele>191.0</ele><time>2026-05-01T18:17:10.999Z</time></trkpt><trkpt lat="45.86506708262047" lon="11.949770971694154"><ele>191.0</ele><time>2026-05-01T18:17:11.999Z</time></trkpt><trkpt lat="45.86523367023686" lon="11.9500427760603"><ele>191.5</ele><time>2026-05-01T18:17:12.999Z</time></trkpt><trkpt lat="45.86540649586547" lon="11.950324758346886"><ele>192.0</ele><time>2026-05-01T18:17:13.999Z</time></trkpt><trkpt lat="45.865569591563336" lon="11.950590865307051"><ele>192.0</ele><time>2026-05-01T18:17:14.999Z</time></trkpt><trkpt lat="45.865731354643096" lon="11.950854798028647"><ele>192.0</ele><time>2026-05-01T18:17:15.999Z</time></trkpt><trkpt lat="45.865886929270175" lon="11.951108634459022"><ele>192.0</ele><time>2026-05-01T18:17:16.999Z</time></trkpt><trkpt lat="45.86604042239264" lon="11.951359074694803"><ele>192.0</ele><time>2026-05-01T18:17:17.999Z</time></trkpt><trkpt lat="45.8661846702586" lon="11.951591952025273"><ele>192.0</ele><time>2026-05-01T18:17:18.999Z</time></trkpt><trkpt lat="45.866339613303765" lon="11.951786374361953"><ele>192.0</ele><time>2026-05-01T18:17:19.999Z</time></trkpt><trkpt lat="45.86646565655673" lon="11.952001315774497"><ele>192.0</ele><time>2026-05-01T18:17:20.999Z</time></trkpt><trkpt lat="45.866580747626195" lon="11.952189594047535"><ele>192.0</ele><time>2026-05-01T18:17:21.999Z</time></trkpt><trkpt lat="45.866677555070304" lon="11.952338250339256"><ele>192.0</ele><time>2026-05-01T18:17:22.999Z</time></trkpt><trkpt lat="45.86675877057005" lon="11.952473143879526"><ele>192.0</ele><time>2026-05-01T18:17:23.999Z</time></trkpt><trkpt lat="45.86681990372456" lon="11.952604062601914"><ele>192.0</ele><time>2026-05-01T18:17:24.999Z</time></trkpt><trkpt lat="45.86685656535131" lon="11.95274483358183"><ele>192.0</ele><time>2026-05-01T18:17:25.999Z</time></trkpt><trkpt lat="45.86687520521993" lon="11.952900693806614"><ele>192.0</ele><time>2026-05-01T18:17:26.999Z</time></trkpt><trkpt lat="45.86690970202322" lon="11.953043173590423"><ele>192.25</ele><time>2026-05-01T18:17:27.999Z</time></trkpt><trkpt lat="45.86697115383917" lon="11.953170550122705"><ele>192.5</ele><time>2026-05-01T18:17:28.999Z</time></trkpt><trkpt lat="45.867064742792344" lon="11.953275452295376"><ele>192.75</ele><time>2026-05-01T18:17:29.999Z</time></trkpt><trkpt lat="45.86717882668916" lon="11.95335332449818"><ele>193.0</ele><time>2026-05-01T18:17:30.999Z</time></trkpt><trkpt lat="45.86729501964428" lon="11.953433614688942"><ele>193.0</ele><time>2026-05-01T18:17:31.999Z</time></trkpt><trkpt lat="45.86739308915665" lon="11.95354106953258"><ele>193.0</ele><time>2026-05-01T18:17:32.999Z</time></trkpt><trkpt lat="45.86749264050671" lon="11.953686606862286"><ele>193.0</ele><time>2026-05-01T18:17:33.999Z</time></trkpt><trkpt lat="45.86758938856932" lon="11.953837368862374"><ele>193.0</ele><time>2026-05-01T18:17:34.999Z</time></trkpt><trkpt lat="45.867680975648" lon="11.953998567468604"><ele>193.0</ele><time>2026-05-01T18:17:35.999Z</time></trkpt><trkpt lat="45.86777903507053" lon="11.954171225814251"><ele>193.0</ele><time>2026-05-01T18:17:36.999Z</time></trkpt><trkpt lat="45.86789331737902" lon="11.954356488197849"><ele>193.0</ele><time>2026-05-01T18:17:37.999Z</time></trkpt><trkpt lat="45.868011443653224" lon="11.954562009832621"><ele>193.0</ele><time>2026-05-01T18:17:38.999Z</time></trkpt><trkpt lat="45.868141108965695" lon="11.954772234997053"><ele>193.0</ele><time>2026-05-01T18:17:39.998Z</time></trkpt><trkpt lat="45.86827122747928" lon="11.954987535748046"><ele>193.0</ele><time>2026-05-01T18:17:40.998Z</time></trkpt><trkpt lat="45.8684123444515" lon="11.955222725230682"><ele>193.33333333333331</ele><time>2026-05-01T18:17:41.998Z</time></trkpt><trkpt lat="45.86854917838468" lon="11.955447937730296"><ele>193.66666666666669</ele><time>2026-05-01T18:17:42.998Z</time></trkpt><trkpt lat="45.86869208131797" lon="11.955659427019574"><ele>194.0</ele><time>2026-05-01T18:17:43.998Z</time></trkpt><trkpt lat="45.86883141811594" lon="11.955884687799735"><ele>194.66666666666669</ele><time>2026-05-01T18:17:44.998Z</time></trkpt><trkpt lat="45.86896994454093" lon="11.956105888964045"><ele>195.33333333333331</ele><time>2026-05-01T18:17:45.998Z</time></trkpt><trkpt lat="45.869113807652475" lon="11.956333903042182"><ele>196.0</ele><time>2026-05-01T18:17:46.998Z</time></trkpt><trkpt lat="45.86925454848755" lon="11.956565695212065"><ele>196.66666666666666</ele><time>2026-05-01T18:17:47.998Z</time></trkpt><trkpt lat="45.86939960893199" lon="11.956795388096328"><ele>197.33333333333331</ele><time>2026-05-01T18:17:48.998Z</time></trkpt><trkpt lat="45.86953739296346" lon="11.95704092287174"><ele>198.0</ele><time>2026-05-01T18:17:49.998Z</time></trkpt><trkpt lat="45.86966880317765" lon="11.957288371973485"><ele>198.0</ele><time>2026-05-01T18:17:51Z</time></trkpt><trkpt lat="45.86979356383051" lon="11.95753713260729"><ele>198.0</ele><time>2026-05-01T18:17:52Z</time></trkpt><trkpt lat="45.86991304726017" lon="11.957783359619828"><ele>198.0</ele><time>2026-05-01T18:17:53Z</time></trkpt><trkpt lat="45.870032755122445" lon="11.958033365313701"><ele>197.33333333333331</ele><time>2026-05-01T18:17:54Z</time></trkpt><trkpt lat="45.87015786485728" lon="11.958285912465673"><ele>196.66666666666666</ele><time>2026-05-01T18:17:55Z</time></trkpt><trkpt lat="45.87026927422379" lon="11.958547919832798"><ele>196.0</ele><time>2026-05-01T18:17:56Z</time></trkpt><trkpt lat="45.870370873593814" lon="11.958810452851969"><ele>196.0</ele><time>2026-05-01T18:17:57Z</time></trkpt><trkpt lat="45.87046772439319" lon="11.959086252705642"><ele>196.0</ele><time>2026-05-01T18:17:58Z</time></trkpt><trkpt lat="45.87056749818769" lon="11.959356570560601"><ele>196.0</ele><time>2026-05-01T18:17:59Z</time></trkpt><trkpt lat="45.87065467853161" lon="11.959619298208125"><ele>196.0</ele><time>2026-05-01T18:18:00Z</time></trkpt><trkpt lat="45.87074722840821" lon="11.95987210786544"><ele>196.0</ele><time>2026-05-01T18:18:01Z</time></trkpt><trkpt lat="45.87084286769184" lon="11.960106994356837"><ele>196.0</ele><time>2026-05-01T18:18:02Z</time></trkpt><trkpt lat="45.87092512576375" lon="11.960342227371898"><ele>197.0</ele><time>2026-05-01T18:18:03Z</time></trkpt><trkpt lat="45.87099821684173" lon="11.960557726248839"><ele>198.0</ele><time>2026-05-01T18:18:04Z</time></trkpt><trkpt lat="45.87107494936782" lon="11.96076852772618"><ele>199.0</ele><time>2026-05-01T18:18:05Z</time></trkpt><trkpt lat="45.87114539172972" lon="11.960973596155563"><ele>197.5</ele><time>2026-05-01T18:18:06Z</time></trkpt><trkpt lat="45.87120355051956" lon="11.961166895201526"><ele>196.0</ele><time>2026-05-01T18:18:07Z</time></trkpt><trkpt lat="45.87126183962624" lon="11.9613502049687"><ele>194.5</ele><time>2026-05-01T18:18:08Z</time></trkpt><trkpt lat="45.87133053804976" lon="11.961536043798493"><ele>193.0</ele><time>2026-05-01T18:18:09Z</time></trkpt><trkpt lat="45.87138905937456" lon="11.96174817152914"><ele>191.33333333333331</ele><time>2026-05-01T18:18:10Z</time></trkpt><trkpt lat="45.87146831037276" lon="11.961963476710102"><ele>189.66666666666666</ele><time>2026-05-01T18:18:11Z</time></trkpt><trkpt lat="45.87155250235577" lon="11.962184101167349"><ele>188.0</ele><time>2026-05-01T18:18:12Z</time></trkpt><trkpt lat="45.871639104365066" lon="11.962413512861787"><ele>188.0</ele><time>2026-05-01T18:18:13Z</time></trkpt><trkpt lat="45.87173443375068" lon="11.962644110528132"><ele>188.0</ele><time>2026-05-01T18:18:14Z</time></trkpt><trkpt lat="45.8718226719719" lon="11.96287244092041"><ele>188.0</ele><time>2026-05-01T18:18:15Z</time></trkpt><trkpt lat="45.87191340912803" lon="11.963113673754155"><ele>187.0</ele><time>2026-05-01T18:18:16Z</time></trkpt><trkpt lat="45.8720089086604" lon="11.963368377531793"><ele>186.0</ele><time>2026-05-01T18:18:17Z</time></trkpt><trkpt lat="45.87210426044041" lon="11.963627968954526"><ele>185.0</ele><time>2026-05-01T18:18:18Z</time></trkpt><trkpt lat="45.87220116932748" lon="11.96388485328141"><ele>185.0</ele><time>2026-05-01T18:18:19Z</time></trkpt><trkpt lat="45.872304055504785" lon="11.964130184484532"><ele>185.0</ele><time>2026-05-01T18:18:20Z</time></trkpt><trkpt lat="45.87242210671316" lon="11.964377856041539"><ele>185.0</ele><time>2026-05-01T18:18:21Z</time></trkpt><trkpt lat="45.872550827196505" lon="11.964626626320237"><ele>184.66666666666666</ele><time>2026-05-01T18:18:22Z</time></trkpt><trkpt lat="45.87269674422624" lon="11.964850285250098"><ele>184.33333333333334</ele><time>2026-05-01T18:18:23Z</time></trkpt><trkpt lat="45.87283630715651" lon="11.965057600835802"><ele>184.0</ele><time>2026-05-01T18:18:24Z</time></trkpt><trkpt lat="45.87298985308946" lon="11.965247005458872"><ele>181.0</ele><time>2026-05-01T18:18:25Z</time></trkpt><trkpt lat="45.87315152324243" lon="11.96541971657389"><ele>178.0</ele><time>2026-05-01T18:18:26Z</time></trkpt><trkpt lat="45.873314953940984" lon="11.965578452584364"><ele>175.0</ele><time>2026-05-01T18:18:27Z</time></trkpt><trkpt lat="45.87347574766327" lon="11.965717251778084"><ele>174.0</ele><time>2026-05-01T18:18:28Z</time></trkpt><trkpt lat="45.87363563168988" lon="11.965822468474506"><ele>173.0</ele><time>2026-05-01T18:18:29Z</time></trkpt><trkpt lat="45.87378433264723" lon="11.965885870389345"><ele>172.0</ele><time>2026-05-01T18:18:30Z</time></trkpt><trkpt lat="45.87392987583477" lon="11.965908078252857"><ele>172.0</ele><time>2026-05-01T18:18:31Z</time></trkpt><trkpt lat="45.87408155894734" lon="11.965894701998653"><ele>172.0</ele><time>2026-05-01T18:18:32Z</time></trkpt><trkpt lat="45.87423222619255" lon="11.965826268296585"><ele>172.0</ele><time>2026-05-01T18:18:33Z</time></trkpt><trkpt lat="45.874368077904286" lon="11.965710105555345"><ele>170.0</ele><time>2026-05-01T18:18:34Z</time></trkpt><trkpt lat="45.87448656796067" lon="11.965551727931237"><ele>168.0</ele><time>2026-05-01T18:18:35Z</time></trkpt><trkpt lat="45.874575371139514" lon="11.965357479228443"><ele>166.0</ele><time>2026-05-01T18:18:36Z</time></trkpt><trkpt lat="45.87462127043634" lon="11.965132227888747"><ele>167.75</ele><time>2026-05-01T18:18:37Z</time></trkpt><trkpt lat="45.87464822235692" lon="11.964912390121016"><ele>169.5</ele><time>2026-05-01T18:18:37.999Z</time></trkpt><trkpt lat="45.87467844891015" lon="11.964718067696676"><ele>171.25</ele><time>2026-05-01T18:18:38.999Z</time></trkpt><trkpt lat="45.87473724213591" lon="11.964552828781404"><ele>173.0</ele><time>2026-05-01T18:18:39.999Z</time></trkpt><trkpt lat="45.87482494083529" lon="11.96440681527848"><ele>173.0</ele><time>2026-05-01T18:18:40.999Z</time></trkpt><trkpt lat="45.874930424527555" lon="11.964274234032738"><ele>173.0</ele><time>2026-05-01T18:18:41.999Z</time></trkpt><trkpt lat="45.87504700539373" lon="11.964153790627"><ele>173.0</ele><time>2026-05-01T18:18:42.999Z</time></trkpt><trkpt lat="45.875192218022164" lon="11.964068712217848"><ele>173.0</ele><time>2026-05-01T18:18:43.999Z</time></trkpt><trkpt lat="45.875343644644886" lon="11.96397200586441"><ele>175.33333333333331</ele><time>2026-05-01T18:18:44.999Z</time></trkpt><trkpt lat="45.87549951304586" lon="11.963872881900215"><ele>177.66666666666666</ele><time>2026-05-01T18:18:45.999Z</time></trkpt><trkpt lat="45.87565935074115" lon="11.963772367557455"><ele>180.0</ele><time>2026-05-01T18:18:46.999Z</time></trkpt><trkpt lat="45.87583900012531" lon="11.963662884951999"><ele>176.0</ele><time>2026-05-01T18:18:47.999Z</time></trkpt><trkpt lat="45.87603677353139" lon="11.96356270493686"><ele>172.0</ele><time>2026-05-01T18:18:48.999Z</time></trkpt><trkpt lat="45.87628502778138" lon="11.963448338012089"><ele>172.0</ele><time>2026-05-01T18:18:49.999Z</time></trkpt><trkpt lat="45.876533840466536" lon="11.96338073352384"><ele>172.0</ele><time>2026-05-01T18:18:50.999Z</time></trkpt><trkpt lat="45.87676771703193" lon="11.963328026802323"><ele>175.5</ele><time>2026-05-01T18:18:51.999Z</time></trkpt><trkpt lat="45.87702924651698" lon="11.963282988441694"><ele>179.0</ele><time>2026-05-01T18:18:52.999Z</time></trkpt><trkpt lat="45.87726596122523" lon="11.963243522048183"><ele>179.0</ele><time>2026-05-01T18:18:53.999Z</time></trkpt><trkpt lat="45.87750455857818" lon="11.963209083741557"><ele>179.0</ele><time>2026-05-01T18:18:54.999Z</time></trkpt><trkpt lat="45.87773189582031" lon="11.963180499321112"><ele>178.5</ele><time>2026-05-01T18:18:55.999Z</time></trkpt><trkpt lat="45.877970947432935" lon="11.963148243080585"><ele>178.0</ele><time>2026-05-01T18:18:56.999Z</time></trkpt><trkpt lat="45.87820506746158" lon="11.963115204017154"><ele>173.0</ele><time>2026-05-01T18:18:57.999Z</time></trkpt><trkpt lat="45.878435700778205" lon="11.963081168040587"><ele>168.0</ele><time>2026-05-01T18:18:58.999Z</time></trkpt><trkpt lat="45.87866370904819" lon="11.963050694652523"><ele>168.0</ele><time>2026-05-01T18:18:59.999Z</time></trkpt><trkpt lat="45.87887954462912" lon="11.96295628826156"><ele>168.0</ele><time>2026-05-01T18:19:00.999Z</time></trkpt><trkpt lat="45.87904872565407" lon="11.962876301395719"><ele>168.0</ele><time>2026-05-01T18:19:01.999Z</time></trkpt><trkpt lat="45.87921115680939" lon="11.962794288285922"><ele>167.33333333333334</ele><time>2026-05-01T18:19:02.999Z</time></trkpt><trkpt lat="45.87940191568181" lon="11.96268303773034"><ele>166.66666666666669</ele><time>2026-05-01T18:19:03.999Z</time></trkpt><trkpt lat="45.87957977519193" lon="11.962527206460331"><ele>166.0</ele><time>2026-05-01T18:19:04.999Z</time></trkpt><trkpt lat="45.87974182826216" lon="11.96233360320612"><ele>167.0</ele><time>2026-05-01T18:19:05.999Z</time></trkpt><trkpt lat="45.8799008924049" lon="11.962119047672733"><ele>168.0</ele><time>2026-05-01T18:19:06.999Z</time></trkpt><trkpt lat="45.88006213137218" lon="11.961914510174807"><ele>169.0</ele><time>2026-05-01T18:19:07.999Z</time></trkpt><trkpt lat="45.88023098973617" lon="11.961703073471812"><ele>170.0</ele><time>2026-05-01T18:19:08.999Z</time></trkpt><trkpt lat="45.88038522954137" lon="11.961496797223136"><ele>171.0</ele><time>2026-05-01T18:19:09.999Z</time></trkpt><trkpt lat="45.88054189042716" lon="11.961274903384172"><ele>172.0</ele><time>2026-05-01T18:19:10.999Z</time></trkpt><trkpt lat="45.88070098153257" lon="11.961050366223292"><ele>174.0</ele><time>2026-05-01T18:19:11.999Z</time></trkpt><trkpt lat="45.88085337058072" lon="11.96080498837655"><ele>176.0</ele><time>2026-05-01T18:19:12.999Z</time></trkpt><trkpt lat="45.88099828107972" lon="11.960537653820648"><ele>172.0</ele><time>2026-05-01T18:19:13.999Z</time></trkpt><trkpt lat="45.8811205183146" lon="11.960272333989566"><ele>168.0</ele><time>2026-05-01T18:19:14.999Z</time></trkpt><trkpt lat="45.881257887526075" lon="11.959991790805951"><ele>168.0</ele><time>2026-05-01T18:19:15.999Z</time></trkpt><trkpt lat="45.881395793398134" lon="11.959713347145282"><ele>168.0</ele><time>2026-05-01T18:19:16.999Z</time></trkpt><trkpt lat="45.88152998340695" lon="11.95943683721231"><ele>166.5</ele><time>2026-05-01T18:19:17.999Z</time></trkpt><trkpt lat="45.88166300946719" lon="11.959158051542762"><ele>165.0</ele><time>2026-05-01T18:19:18.999Z</time></trkpt><trkpt lat="45.88180230573405" lon="11.958881775359005"><ele>165.0</ele><time>2026-05-01T18:19:19.999Z</time></trkpt><trkpt lat="45.881947434005326" lon="11.958616974360195"><ele>165.0</ele><time>2026-05-01T18:19:20.999Z</time></trkpt><trkpt lat="45.882100411345114" lon="11.958361564053865"><ele>167.0</ele><time>2026-05-01T18:19:21.999Z</time></trkpt><trkpt lat="45.88226602096292" lon="11.958126128279057"><ele>169.0</ele><time>2026-05-01T18:19:22.999Z</time></trkpt><trkpt lat="45.88242478455722" lon="11.95788110178704"><ele>169.0</ele><time>2026-05-01T18:19:23.999Z</time></trkpt><trkpt lat="45.8825923570887" lon="11.957625927829653"><ele>169.0</ele><time>2026-05-01T18:19:24.999Z</time></trkpt><trkpt lat="45.88274275681014" lon="11.957372364729784"><ele>168.5</ele><time>2026-05-01T18:19:25.999Z</time></trkpt><trkpt lat="45.88289405572495" lon="11.95712012131175"><ele>168.0</ele><time>2026-05-01T18:19:26.999Z</time></trkpt><trkpt lat="45.88304596090451" lon="11.956863025891337"><ele>171.5</ele><time>2026-05-01T18:19:27.999Z</time></trkpt><trkpt lat="45.883206605246436" lon="11.956604543013446"><ele>175.0</ele><time>2026-05-01T18:19:28.999Z</time></trkpt><trkpt lat="45.883356464664196" lon="11.95635242695693"><ele>172.0</ele><time>2026-05-01T18:19:29.999Z</time></trkpt><trkpt lat="45.88350901974737" lon="11.956100084145856"><ele>169.0</ele><time>2026-05-01T18:19:30.999Z</time></trkpt><trkpt lat="45.883662380490456" lon="11.95585325370518"><ele>169.0</ele><time>2026-05-01T18:19:31.999Z</time></trkpt><trkpt lat="45.88381217060132" lon="11.955606579130354"><ele>169.0</ele><time>2026-05-01T18:19:32.999Z</time></trkpt><trkpt lat="45.883966951480325" lon="11.955354310046083"><ele>169.0</ele><time>2026-05-01T18:19:33.999Z</time></trkpt><trkpt lat="45.88412354205794" lon="11.955095366746416"><ele>169.0</ele><time>2026-05-01T18:19:34.999Z</time></trkpt><trkpt lat="45.884285258422665" lon="11.954839888445136"><ele>170.5</ele><time>2026-05-01T18:19:35.999Z</time></trkpt><trkpt lat="45.88443870102235" lon="11.95458423084413"><ele>172.0</ele><time>2026-05-01T18:19:36.999Z</time></trkpt><trkpt lat="45.88457679983057" lon="11.95432104065231"><ele>172.0</ele><time>2026-05-01T18:19:37.999Z</time></trkpt><trkpt lat="45.884691517934726" lon="11.954034175581269"><ele>172.0</ele><time>2026-05-01T18:19:38.999Z</time></trkpt><trkpt lat="45.88477744107765" lon="11.953728706070805"><ele>172.0</ele><time>2026-05-01T18:19:39.999Z</time></trkpt><trkpt lat="45.884846712282226" lon="11.95340537573124"><ele>172.0</ele><time>2026-05-01T18:19:40.999Z</time></trkpt><trkpt lat="45.8849116243116" lon="11.953078677019523"><ele>174.5</ele><time>2026-05-01T18:19:41.999Z</time></trkpt><trkpt lat="45.88496684245832" lon="11.952755562564311"><ele>177.0</ele><time>2026-05-01T18:19:42.999Z</time></trkpt><trkpt lat="45.88502499055959" lon="11.952426947403058"><ele>180.5</ele><time>2026-05-01T18:19:43.998Z</time></trkpt><trkpt lat="45.885079207714824" lon="11.9520941258001"><ele>184.0</ele><time>2026-05-01T18:19:44.998Z</time></trkpt><trkpt lat="45.88513724762167" lon="11.95176185370548"><ele>175.0</ele><time>2026-05-01T18:19:45.998Z</time></trkpt><trkpt lat="45.885208248979396" lon="11.9514254799827"><ele>166.0</ele><time>2026-05-01T18:19:46.998Z</time></trkpt><trkpt lat="45.885274673716225" lon="11.951087395162114"><ele>164.0</ele><time>2026-05-01T18:19:47.998Z</time></trkpt><trkpt lat="45.88534620500396" lon="11.950742002021316"><ele>162.0</ele><time>2026-05-01T18:19:48.998Z</time></trkpt><trkpt lat="45.88542283545335" lon="11.950402561703081"><ele>162.0</ele><time>2026-05-01T18:19:49.998Z</time></trkpt><trkpt lat="45.88550417288258" lon="11.950074098580656"><ele>162.0</ele><time>2026-05-01T18:19:50.998Z</time></trkpt><trkpt lat="45.8856034840432" lon="11.94974642942387"><ele>166.0</ele><time>2026-05-01T18:19:51.998Z</time></trkpt><trkpt lat="45.88570160849614" lon="11.949427990522077"><ele>170.0</ele><time>2026-05-01T18:19:52.998Z</time></trkpt><trkpt lat="45.88580661179905" lon="11.949124433837994"><ele>169.5</ele><time>2026-05-01T18:19:53.998Z</time></trkpt><trkpt lat="45.88592256813987" lon="11.94882031785437"><ele>169.0</ele><time>2026-05-01T18:19:54.998Z</time></trkpt><trkpt lat="45.8860433898648" lon="11.948515973239294"><ele>169.0</ele><time>2026-05-01T18:19:55.998Z</time></trkpt><trkpt lat="45.88617521753647" lon="11.948220078928786"><ele>169.0</ele><time>2026-05-01T18:19:57Z</time></trkpt><trkpt lat="45.88631663987108" lon="11.947935661465834"><ele>169.0</ele><time>2026-05-01T18:19:58Z</time></trkpt><trkpt lat="45.88646927348198" lon="11.947661844876334"><ele>169.0</ele><time>2026-05-01T18:19:59Z</time></trkpt><trkpt lat="45.88663517780825" lon="11.947406350121343"><ele>169.5</ele><time>2026-05-01T18:20:00Z</time></trkpt><trkpt lat="45.8868212582682" lon="11.947178284535855"><ele>170.0</ele><time>2026-05-01T18:20:01Z</time></trkpt><trkpt lat="45.88702860066767" lon="11.946982288046426"><ele>170.0</ele><time>2026-05-01T18:20:02Z</time></trkpt><trkpt lat="45.887232947004804" lon="11.94679169461312"><ele>170.0</ele><time>2026-05-01T18:20:03Z</time></trkpt><trkpt lat="45.88744505836951" lon="11.946598494816005"><ele>170.0</ele><time>2026-05-01T18:20:04Z</time></trkpt><trkpt lat="45.8876515311901" lon="11.946402738481792"><ele>170.0</ele><time>2026-05-01T18:20:05Z</time></trkpt><trkpt lat="45.887859050281705" lon="11.946213543141145"><ele>170.0</ele><time>2026-05-01T18:20:06Z</time></trkpt><trkpt lat="45.888074430714994" lon="11.946018316102244"><ele>170.0</ele><time>2026-05-01T18:20:07Z</time></trkpt><trkpt lat="45.88828749935099" lon="11.945826555118694"><ele>169.5</ele><time>2026-05-01T18:20:08Z</time></trkpt><trkpt lat="45.8884979520354" lon="11.945638610068503"><ele>169.0</ele><time>2026-05-01T18:20:09Z</time></trkpt><trkpt lat="45.88869810276913" lon="11.945450897603767"><ele>169.0</ele><time>2026-05-01T18:20:10Z</time></trkpt><trkpt lat="45.8889150499795" lon="11.945260921639417"><ele>169.0</ele><time>2026-05-01T18:20:11Z</time></trkpt><trkpt lat="45.88912628144514" lon="11.945073484759298"><ele>171.5</ele><time>2026-05-01T18:20:12Z</time></trkpt><trkpt lat="45.88932886561914" lon="11.94489076724903"><ele>174.0</ele><time>2026-05-01T18:20:13Z</time></trkpt><trkpt lat="45.88952661535402" lon="11.944698181280659"><ele>174.0</ele><time>2026-05-01T18:20:14Z</time></trkpt><trkpt lat="45.889725829740186" lon="11.944510259445606"><ele>174.0</ele><time>2026-05-01T18:20:15Z</time></trkpt><trkpt lat="45.88992631003107" lon="11.944322720417585"><ele>175.0</ele><time>2026-05-01T18:20:16Z</time></trkpt><trkpt lat="45.89014297058104" lon="11.944161659399253"><ele>176.0</ele><time>2026-05-01T18:20:17Z</time></trkpt><trkpt lat="45.89037461281542" lon="11.944043484306395"><ele>176.0</ele><time>2026-05-01T18:20:18Z</time></trkpt><trkpt lat="45.89062039782307" lon="11.943960377236632"><ele>176.0</ele><time>2026-05-01T18:20:19Z</time></trkpt><trkpt lat="45.890873433111814" lon="11.943916950575838"><ele>175.5</ele><time>2026-05-01T18:20:20Z</time></trkpt><trkpt lat="45.89113158565699" lon="11.943880425870613"><ele>175.0</ele><time>2026-05-01T18:20:21Z</time></trkpt><trkpt lat="45.89138631257216" lon="11.943828258607567"><ele>175.0</ele><time>2026-05-01T18:20:22Z</time></trkpt><trkpt lat="45.891640517065504" lon="11.94377224146666"><ele>175.0</ele><time>2026-05-01T18:20:23Z</time></trkpt><trkpt lat="45.891885962891386" lon="11.943716361154664"><ele>175.5</ele><time>2026-05-01T18:20:24Z</time></trkpt><trkpt lat="45.89212639720331" lon="11.943652810433228"><ele>176.0</ele><time>2026-05-01T18:20:25Z</time></trkpt><trkpt lat="45.89235935156615" lon="11.943574363076754"><ele>176.0</ele><time>2026-05-01T18:20:26Z</time></trkpt><trkpt lat="45.89258037363361" lon="11.94347526114093"><ele>176.0</ele><time>2026-05-01T18:20:27Z</time></trkpt><trkpt lat="45.89279821058102" lon="11.943353380196928"><ele>177.0</ele><time>2026-05-01T18:20:28Z</time></trkpt><trkpt lat="45.89301124857503" lon="11.94321562470771"><ele>178.0</ele><time>2026-05-01T18:20:29Z</time></trkpt><trkpt lat="45.89321405178141" lon="11.943061091651273"><ele>178.0</ele><time>2026-05-01T18:20:30Z</time></trkpt><trkpt lat="45.89341511507156" lon="11.942902442999864"><ele>178.0</ele><time>2026-05-01T18:20:31Z</time></trkpt><trkpt lat="45.893618739737235" lon="11.942751083000946"><ele>179.33333333333334</ele><time>2026-05-01T18:20:32Z</time></trkpt><trkpt lat="45.893810266378225" lon="11.942613153585794"><ele>180.66666666666666</ele><time>2026-05-01T18:20:33Z</time></trkpt><trkpt lat="45.894012740632846" lon="11.942504765692496"><ele>182.0</ele><time>2026-05-01T18:20:34Z</time></trkpt><trkpt lat="45.89422160336541" lon="11.942430623617414"><ele>180.66666666666666</ele><time>2026-05-01T18:20:35Z</time></trkpt><trkpt lat="45.89443450719304" lon="11.942401136863868"><ele>179.33333333333334</ele><time>2026-05-01T18:20:36Z</time></trkpt><trkpt lat="45.8946469121831" lon="11.942401633771334"><ele>178.0</ele><time>2026-05-01T18:20:37Z</time></trkpt><trkpt lat="45.89486727791551" lon="11.942425425637916"><ele>178.0</ele><time>2026-05-01T18:20:38Z</time></trkpt><trkpt lat="45.89508040850572" lon="11.942459613363454"><ele>178.0</ele><time>2026-05-01T18:20:39Z</time></trkpt><trkpt lat="45.89529735009523" lon="11.942489873559362"><ele>178.0</ele><time>2026-05-01T18:20:40Z</time></trkpt><trkpt lat="45.89551891910735" lon="11.942521139573444"><ele>177.33333333333334</ele><time>2026-05-01T18:20:41Z</time></trkpt><trkpt lat="45.89573366179326" lon="11.942562816255231"><ele>176.66666666666666</ele><time>2026-05-01T18:20:42Z</time></trkpt><trkpt lat="45.89593697116163" lon="11.942601926168836"><ele>176.0</ele><time>2026-05-01T18:20:43Z</time></trkpt><trkpt lat="45.89613827758167" lon="11.942639211178543"><ele>176.0</ele><time>2026-05-01T18:20:43.999Z</time></trkpt><trkpt lat="45.89633740284723" lon="11.942668358357471"><ele>176.0</ele><time>2026-05-01T18:20:44.999Z</time></trkpt><trkpt lat="45.89653241996396" lon="11.942690514735016"><ele>176.0</ele><time>2026-05-01T18:20:45.999Z</time></trkpt><trkpt lat="45.89671771527006" lon="11.942702509509504"><ele>175.33333333333331</ele><time>2026-05-01T18:20:46.999Z</time></trkpt><trkpt lat="45.89690170729613" lon="11.942720979349504"><ele>174.66666666666666</ele><time>2026-05-01T18:20:47.999Z</time></trkpt><trkpt lat="45.89708642923377" lon="11.942731290824124"><ele>174.0</ele><time>2026-05-01T18:20:48.999Z</time></trkpt><trkpt lat="45.897269997358435" lon="11.942737670607691"><ele>174.0</ele><time>2026-05-01T18:20:49.999Z</time></trkpt><trkpt lat="45.89746236701077" lon="11.942723678544755"><ele>174.0</ele><time>2026-05-01T18:20:50.999Z</time></trkpt><trkpt lat="45.89764994724316" lon="11.942709322398594"><ele>174.0</ele><time>2026-05-01T18:20:51.999Z</time></trkpt><trkpt lat="45.89781960968165" lon="11.942693330894226"><ele>174.0</ele><time>2026-05-01T18:20:52.999Z</time></trkpt><trkpt lat="45.89799582126772" lon="11.942670625105913"><ele>174.0</ele><time>2026-05-01T18:20:53.999Z</time></trkpt><trkpt lat="45.89817317992096" lon="11.942648710937066"><ele>174.0</ele><time>2026-05-01T18:20:54.999Z</time></trkpt><trkpt lat="45.89834498683075" lon="11.942633784111335"><ele>176.0</ele><time>2026-05-01T18:20:55.999Z</time></trkpt><trkpt lat="45.898514937618955" lon="11.942626059090681"><ele>178.0</ele><time>2026-05-01T18:20:56.999Z</time></trkpt><trkpt lat="45.89868970393983" lon="11.942638647576544"><ele>180.0</ele><time>2026-05-01T18:20:57.999Z</time></trkpt><trkpt lat="45.898862751566114" lon="11.942676522972036"><ele>180.0</ele><time>2026-05-01T18:20:58.999Z</time></trkpt><trkpt lat="45.89902555574848" lon="11.942713696418167"><ele>180.0</ele><time>2026-05-01T18:20:59.999Z</time></trkpt><trkpt lat="45.89916411122764" lon="11.942751181393781"><ele>180.0</ele><time>2026-05-01T18:21:00.999Z</time></trkpt><trkpt lat="45.89928340048825" lon="11.942798285952415"><ele>180.0</ele><time>2026-05-01T18:21:01.999Z</time></trkpt><trkpt lat="45.8993703002189" lon="11.942854114875415"><ele>180.66666666666666</ele><time>2026-05-01T18:21:02.999Z</time></trkpt><trkpt lat="45.89942342413598" lon="11.942923982870672"><ele>181.33333333333334</ele><time>2026-05-01T18:21:03.999Z</time></trkpt><trkpt lat="45.89946057147363" lon="11.943039783056099"><ele>182.0</ele><time>2026-05-01T18:21:04.999Z</time></trkpt><trkpt lat="45.899509852374415" lon="11.943155367154661"><ele>182.66666666666669</ele><time>2026-05-01T18:21:05.999Z</time></trkpt><trkpt lat="45.899584480713564" lon="11.94322379063378"><ele>183.33333333333334</ele><time>2026-05-01T18:21:06.999Z</time></trkpt><trkpt lat="45.89966974795522" lon="11.943256085399613"><ele>184.0</ele><time>2026-05-01T18:21:07.999Z</time></trkpt><trkpt lat="45.89976777680403" lon="11.943230219132765"><ele>184.0</ele><time>2026-05-01T18:21:08.999Z</time></trkpt><trkpt lat="45.89983480209633" lon="11.943069923264472"><ele>184.0</ele><time>2026-05-01T18:21:09.999Z</time></trkpt><trkpt lat="45.8998766219779" lon="11.942981072126553"><ele>184.0</ele><time>2026-05-01T18:21:10.999Z</time></trkpt><trkpt lat="45.89998132468444" lon="11.942976738134517"><ele>184.0</ele><time>2026-05-01T18:21:11.999Z</time></trkpt><trkpt lat="45.90006908933714" lon="11.942973124967933"><ele>184.0</ele><time>2026-05-01T18:21:12.999Z</time></trkpt><trkpt lat="45.90014468375426" lon="11.942981924934973"><ele>184.39999999999998</ele><time>2026-05-01T18:21:13.999Z</time></trkpt><trkpt lat="45.90022908024886" lon="11.942985297420785"><ele>184.8</ele><time>2026-05-01T18:21:14.999Z</time></trkpt><trkpt lat="45.90032123741221" lon="11.942978630927593"><ele>185.2</ele><time>2026-05-01T18:21:15.999Z</time></trkpt><trkpt lat="45.900418689961434" lon="11.942971735550968"><ele>185.60000000000002</ele><time>2026-05-01T18:21:16.999Z</time></trkpt><trkpt lat="45.900517783537055" lon="11.94296104208451"><ele>186.0</ele><time>2026-05-01T18:21:17.999Z</time></trkpt><trkpt lat="45.900611807525344" lon="11.94293816155777"><ele>186.0</ele><time>2026-05-01T18:21:18.999Z</time></trkpt><trkpt lat="45.900710226439735" lon="11.942916719215807"><ele>186.0</ele><time>2026-05-01T18:21:19.999Z</time></trkpt><trkpt lat="45.90081270844577" lon="11.942895866786811"><ele>186.0</ele><time>2026-05-01T18:21:20.999Z</time></trkpt><trkpt lat="45.90091731772311" lon="11.942873407691048"><ele>186.0</ele><time>2026-05-01T18:21:21.999Z</time></trkpt><trkpt lat="45.90102416328079" lon="11.942853623240428"><ele>186.0</ele><time>2026-05-01T18:21:22.999Z</time></trkpt><trkpt lat="45.901131105232125" lon="11.942833373549467"><ele>185.75</ele><time>2026-05-01T18:21:23.999Z</time></trkpt><trkpt lat="45.90124497575212" lon="11.942812733278371"><ele>185.5</ele><time>2026-05-01T18:21:24.999Z</time></trkpt><trkpt lat="45.90135783014342" lon="11.94279465031143"><ele>185.25</ele><time>2026-05-01T18:21:25.999Z</time></trkpt><trkpt lat="45.901473294898146" lon="11.942768125925989"><ele>185.0</ele><time>2026-05-01T18:21:26.999Z</time></trkpt><trkpt lat="45.90159014024554" lon="11.94274689063214"><ele>185.0</ele><time>2026-05-01T18:21:27.999Z</time></trkpt><trkpt lat="45.901702612118655" lon="11.9427150143785"><ele>185.0</ele><time>2026-05-01T18:21:28.999Z</time></trkpt><trkpt lat="45.90182095331817" lon="11.942680228084809"><ele>185.0</ele><time>2026-05-01T18:21:29.999Z</time></trkpt><trkpt lat="45.90192818089206" lon="11.942654028668466"><ele>185.0</ele><time>2026-05-01T18:21:30.999Z</time></trkpt><trkpt lat="45.90203828991232" lon="11.942618544414714"><ele>185.75</ele><time>2026-05-01T18:21:31.999Z</time></trkpt><trkpt lat="45.90214849330179" lon="11.942578051851935"><ele>186.5</ele><time>2026-05-01T18:21:32.999Z</time></trkpt><trkpt lat="45.90225761742625" lon="11.942549005417762"><ele>187.25</ele><time>2026-05-01T18:21:33.999Z</time></trkpt><trkpt lat="45.90237472204788" lon="11.942524333134802"><ele>188.0</ele><time>2026-05-01T18:21:34.999Z</time></trkpt><trkpt lat="45.902498573833775" lon="11.942494765656141"><ele>188.5</ele><time>2026-05-01T18:21:35.999Z</time></trkpt><trkpt lat="45.90262466937628" lon="11.942464214321536"><ele>189.0</ele><time>2026-05-01T18:21:36.999Z</time></trkpt><trkpt lat="45.90275580277082" lon="11.942416183259928"><ele>189.5</ele><time>2026-05-01T18:21:37.999Z</time></trkpt><trkpt lat="45.9028859771549" lon="11.942379623818177"><ele>190.0</ele><time>2026-05-01T18:21:38.999Z</time></trkpt><trkpt lat="45.90301158160755" lon="11.94234813224615"><ele>190.0</ele><time>2026-05-01T18:21:39.999Z</time></trkpt><trkpt lat="45.90311830783019" lon="11.94229812171811"><ele>190.0</ele><time>2026-05-01T18:21:40.999Z</time></trkpt><trkpt lat="45.903248450851486" lon="11.94225704137724"><ele>190.0</ele><time>2026-05-01T18:21:41.999Z</time></trkpt><trkpt lat="45.903355684281436" lon="11.942200827074384"><ele>190.0</ele><time>2026-05-01T18:21:42.999Z</time></trkpt><trkpt lat="45.903484226510635" lon="11.942157950806326"><ele>189.75</ele><time>2026-05-01T18:21:43.999Z</time></trkpt><trkpt lat="45.90361634142626" lon="11.942107957060228"><ele>189.5</ele><time>2026-05-01T18:21:44.999Z</time></trkpt><trkpt lat="45.9037190735666" lon="11.942041860330175"><ele>189.25</ele><time>2026-05-01T18:21:45.999Z</time></trkpt><trkpt lat="45.903840259284145" lon="11.941992637116924"><ele>189.0</ele><time>2026-05-01T18:21:46.999Z</time></trkpt><trkpt lat="45.90396387576716" lon="11.941944681687882"><ele>189.0</ele><time>2026-05-01T18:21:47.999Z</time></trkpt><trkpt lat="45.90407741162986" lon="11.941901441539171"><ele>189.0</ele><time>2026-05-01T18:21:48.999Z</time></trkpt><trkpt lat="45.9041861450628" lon="11.941860404480902"><ele>189.0</ele><time>2026-05-01T18:21:49.998Z</time></trkpt><trkpt lat="45.904296314284444" lon="11.941804960045094"><ele>189.0</ele><time>2026-05-01T18:21:50.998Z</time></trkpt><trkpt lat="45.90441611389601" lon="11.94174313662156"><ele>189.2</ele><time>2026-05-01T18:21:51.998Z</time></trkpt><trkpt lat="45.90453504491432" lon="11.94169679025513"><ele>189.39999999999998</ele><time>2026-05-01T18:21:52.998Z</time></trkpt><trkpt lat="45.90464617971563" lon="11.941655058092357"><ele>189.6</ele><time>2026-05-01T18:21:53.998Z</time></trkpt><trkpt lat="45.90475186330831" lon="11.941603606982829"><ele>189.8</ele><time>2026-05-01T18:21:54.998Z</time></trkpt><trkpt lat="45.90484633337759" lon="11.941557378433322"><ele>190.0</ele><time>2026-05-01T18:21:55.998Z</time></trkpt><trkpt lat="45.904923607830824" lon="11.941504685869946"><ele>190.0</ele><time>2026-05-01T18:21:56.998Z</time></trkpt><trkpt lat="45.905003234105465" lon="11.941452380271903"><ele>190.0</ele><time>2026-05-01T18:21:57.998Z</time></trkpt><trkpt lat="45.90508018653592" lon="11.941414020404599"><ele>190.0</ele><time>2026-05-01T18:21:58.998Z</time></trkpt><trkpt lat="45.90516095146134" lon="11.941383847808197"><ele>190.0</ele><time>2026-05-01T18:21:59.998Z</time></trkpt><trkpt lat="45.90527664406563" lon="11.941316715299557"><ele>190.0</ele><time>2026-05-01T18:22:01.998Z</time></trkpt><trkpt lat="45.9053429513293" lon="11.941289554116251"><ele>190.0</ele><time>2026-05-01T18:22:03Z</time></trkpt><trkpt lat="45.90539543693801" lon="11.94120061669826"><ele>188.8</ele><time>2026-05-01T18:22:04Z</time></trkpt><trkpt lat="45.90538836895015" lon="11.941063532592857"><ele>187.6</ele><time>2026-05-01T18:22:05Z</time></trkpt><trkpt lat="45.90538112458129" lon="11.940941896457643"><ele>186.39999999999998</ele><time>2026-05-01T18:22:06Z</time></trkpt><trkpt lat="45.90537251526302" lon="11.940815862632602"><ele>185.2</ele><time>2026-05-01T18:22:07Z</time></trkpt><trkpt lat="45.90538081320574" lon="11.94068836763346"><ele>184.0</ele><time>2026-05-01T18:22:08Z</time></trkpt><trkpt lat="45.90541316631698" lon="11.940560250769966"><ele>184.0</ele><time>2026-05-01T18:22:09Z</time></trkpt><trkpt lat="45.90544852650161" lon="11.940437061163852"><ele>184.0</ele><time>2026-05-01T18:22:10Z</time></trkpt><trkpt lat="45.90548662189001" lon="11.940309703522185"><ele>184.0</ele><time>2026-05-01T18:22:11Z</time></trkpt><trkpt lat="45.905516998641545" lon="11.94018052619867"><ele>184.0</ele><time>2026-05-01T18:22:12Z</time></trkpt><trkpt lat="45.90553866515929" lon="11.940047287849149"><ele>184.0</ele><time>2026-05-01T18:22:13Z</time></trkpt><trkpt lat="45.90554671144284" lon="11.939910606624332"><ele>183.79999999999998</ele><time>2026-05-01T18:22:14Z</time></trkpt><trkpt lat="45.9055505883389" lon="11.939771724478584"><ele>183.6</ele><time>2026-05-01T18:22:15Z</time></trkpt><trkpt lat="45.90555538682713" lon="11.939638818746538"><ele>183.4</ele><time>2026-05-01T18:22:16Z</time></trkpt><trkpt lat="45.905557238461725" lon="11.939498733822935"><ele>183.2</ele><time>2026-05-01T18:22:17Z</time></trkpt><trkpt lat="45.90556839203636" lon="11.93935749552863"><ele>183.0</ele><time>2026-05-01T18:22:18Z</time></trkpt><trkpt lat="45.905569867532535" lon="11.939209990054326"><ele>184.0</ele><time>2026-05-01T18:22:19Z</time></trkpt><trkpt lat="45.90559645116101" lon="11.9390489556959"><ele>185.0</ele><time>2026-05-01T18:22:20Z</time></trkpt><trkpt lat="45.90563242406674" lon="11.93888491905297"><ele>186.0</ele><time>2026-05-01T18:22:21Z</time></trkpt><trkpt lat="45.90567414997611" lon="11.938734330598699"><ele>187.0</ele><time>2026-05-01T18:22:22Z</time></trkpt><trkpt lat="45.90572771757201" lon="11.938590696128863"><ele>187.0</ele><time>2026-05-01T18:22:23Z</time></trkpt><trkpt lat="45.905786462233124" lon="11.938444039200089"><ele>187.0</ele><time>2026-05-01T18:22:24Z</time></trkpt><trkpt lat="45.90584179380814" lon="11.938303017585865"><ele>187.0</ele><time>2026-05-01T18:22:25Z</time></trkpt><trkpt lat="45.9058998653249" lon="11.938158495343389"><ele>187.0</ele><time>2026-05-01T18:22:26Z</time></trkpt><trkpt lat="45.905945986471295" lon="11.93801252707642"><ele>187.0</ele><time>2026-05-01T18:22:27Z</time></trkpt><trkpt lat="45.90599654083576" lon="11.93786927193349"><ele>187.0</ele><time>2026-05-01T18:22:28Z</time></trkpt><trkpt lat="45.906055855172525" lon="11.937722604520228"><ele>187.0</ele><time>2026-05-01T18:22:29Z</time></trkpt><trkpt lat="45.906100696773414" lon="11.937578946680667"><ele>187.0</ele><time>2026-05-01T18:22:30Z</time></trkpt><trkpt lat="45.90615900020979" lon="11.937435941942972"><ele>187.0</ele><time>2026-05-01T18:22:31Z</time></trkpt><trkpt lat="45.90621539540752" lon="11.9372933457959"><ele>187.0</ele><time>2026-05-01T18:22:32Z</time></trkpt><trkpt lat="45.90627720178309" lon="11.937154687817143"><ele>187.0</ele><time>2026-05-01T18:22:33Z</time></trkpt><trkpt lat="45.906353555007506" lon="11.937030142357244"><ele>187.0</ele><time>2026-05-01T18:22:34Z</time></trkpt><trkpt lat="45.90643535627619" lon="11.936911669981063"><ele>187.0</ele><time>2026-05-01T18:22:35Z</time></trkpt><trkpt lat="45.90650788989668" lon="11.936789413370603"><ele>187.0</ele><time>2026-05-01T18:22:36Z</time></trkpt><trkpt lat="45.90658824993175" lon="11.93666274231502"><ele>187.0</ele><time>2026-05-01T18:22:37Z</time></trkpt><trkpt lat="45.906678480729944" lon="11.936548367438455"><ele>187.0</ele><time>2026-05-01T18:22:38Z</time></trkpt><trkpt lat="45.9067599079691" lon="11.936428698586727"><ele>186.5</ele><time>2026-05-01T18:22:39Z</time></trkpt><trkpt lat="45.90684051871082" lon="11.936282052097944"><ele>186.0</ele><time>2026-05-01T18:22:40Z</time></trkpt><trkpt lat="45.90692030737137" lon="11.93613764313783"><ele>185.5</ele><time>2026-05-01T18:22:41Z</time></trkpt><trkpt lat="45.90699032113309" lon="11.935991266022153"><ele>185.0</ele><time>2026-05-01T18:22:42Z</time></trkpt><trkpt lat="45.907062470069775" lon="11.935854130984698"><ele>186.25</ele><time>2026-05-01T18:22:43Z</time></trkpt><trkpt lat="45.907132663846255" lon="11.935712429801395"><ele>187.5</ele><time>2026-05-01T18:22:44Z</time></trkpt><trkpt lat="45.90720466827092" lon="11.935578448278338"><ele>188.75</ele><time>2026-05-01T18:22:45Z</time></trkpt><trkpt lat="45.90726762287347" lon="11.93544432227285"><ele>190.0</ele><time>2026-05-01T18:22:46Z</time></trkpt><trkpt lat="45.90733386601477" lon="11.935304053466746"><ele>190.0</ele><time>2026-05-01T18:22:47Z</time></trkpt><trkpt lat="45.90740612724842" lon="11.935174462823444"><ele>190.0</ele><time>2026-05-01T18:22:48Z</time></trkpt><trkpt lat="45.907484745913" lon="11.935037926563641"><ele>190.0</ele><time>2026-05-01T18:22:49Z</time></trkpt><trkpt lat="45.907563323624466" lon="11.93490100743018"><ele>190.0</ele><time>2026-05-01T18:22:49.999Z</time></trkpt><trkpt lat="45.9076219098214" lon="11.934759656184742"><ele>189.8</ele><time>2026-05-01T18:22:50.999Z</time></trkpt><trkpt lat="45.90767446219591" lon="11.934637713439603"><ele>189.6</ele><time>2026-05-01T18:22:51.999Z</time></trkpt><trkpt lat="45.907721190637126" lon="11.93449585471011"><ele>189.39999999999998</ele><time>2026-05-01T18:22:52.999Z</time></trkpt><trkpt lat="45.90777243354422" lon="11.934403060264804"><ele>189.2</ele><time>2026-05-01T18:22:53.999Z</time></trkpt><trkpt lat="45.90782714585015" lon="11.934314041165015"><ele>189.0</ele><time>2026-05-01T18:22:54.999Z</time></trkpt><trkpt lat="45.90787523429815" lon="11.93421052943736"><ele>190.0</ele><time>2026-05-01T18:22:55.999Z</time></trkpt><trkpt lat="45.907942330888915" lon="11.934169972880794"><ele>191.0</ele><time>2026-05-01T18:22:56.999Z</time></trkpt><trkpt lat="45.908014248386024" lon="11.934142846957778"><ele>192.0</ele><time>2026-05-01T18:22:57.999Z</time></trkpt><trkpt lat="45.908087863320524" lon="11.934081445367083"><ele>193.0</ele><time>2026-05-01T18:22:58.999Z</time></trkpt><trkpt lat="45.90815529816742" lon="11.93396511244511"><ele>194.0</ele><time>2026-05-01T18:22:59.999Z</time></trkpt><trkpt lat="45.90821719337998" lon="11.933821731792891"><ele>194.0</ele><time>2026-05-01T18:23:00.999Z</time></trkpt><trkpt lat="45.90830380887613" lon="11.933655058487364"><ele>194.0</ele><time>2026-05-01T18:23:01.999Z</time></trkpt><trkpt lat="45.90844192784464" lon="11.933496312316654"><ele>194.0</ele><time>2026-05-01T18:23:02.999Z</time></trkpt><trkpt lat="45.90857290986252" lon="11.933273672446054"><ele>193.66666666666669</ele><time>2026-05-01T18:23:03.999Z</time></trkpt><trkpt lat="45.90869530638406" lon="11.933022590674744"><ele>193.33333333333331</ele><time>2026-05-01T18:23:04.999Z</time></trkpt><trkpt lat="45.908808628013865" lon="11.932784770862334"><ele>193.0</ele><time>2026-05-01T18:23:05.999Z</time></trkpt><trkpt lat="45.90888914316383" lon="11.93257721488782"><ele>192.60000000000002</ele><time>2026-05-01T18:23:06.999Z</time></trkpt><trkpt lat="45.908983698870486" lon="11.93244262178945"><ele>192.20000000000002</ele><time>2026-05-01T18:23:07.999Z</time></trkpt><trkpt lat="45.90905476706956" lon="11.932308930330151"><ele>191.8</ele><time>2026-05-01T18:23:08.999Z</time></trkpt><trkpt lat="45.90912437541069" lon="11.932199779565662"><ele>191.4</ele><time>2026-05-01T18:23:09.999Z</time></trkpt><trkpt lat="45.90915319962394" lon="11.932067859499737"><ele>191.0</ele><time>2026-05-01T18:23:10.999Z</time></trkpt><trkpt lat="45.90914371569152" lon="11.931939765770904"><ele>191.0</ele><time>2026-05-01T18:23:11.999Z</time></trkpt><trkpt lat="45.909107105785424" lon="11.931814427432172"><ele>191.0</ele><time>2026-05-01T18:23:12.999Z</time></trkpt><trkpt lat="45.90908017709657" lon="11.93167110602783"><ele>191.0</ele><time>2026-05-01T18:23:13.999Z</time></trkpt><trkpt lat="45.9090451971942" lon="11.931523072380747"><ele>191.0</ele><time>2026-05-01T18:23:14.999Z</time></trkpt><trkpt lat="45.9090015366046" lon="11.931351019826327"><ele>191.0</ele><time>2026-05-01T18:23:15.999Z</time></trkpt><trkpt lat="45.90894906058497" lon="11.931187431892825"><ele>191.75</ele><time>2026-05-01T18:23:16.999Z</time></trkpt><trkpt lat="45.90890056022949" lon="11.931024919130445"><ele>192.5</ele><time>2026-05-01T18:23:17.999Z</time></trkpt><trkpt lat="45.908859649390415" lon="11.930866609916023"><ele>193.25</ele><time>2026-05-01T18:23:18.999Z</time></trkpt><trkpt lat="45.90881741277262" lon="11.930716075826878"><ele>194.0</ele><time>2026-05-01T18:23:19.999Z</time></trkpt><trkpt lat="45.90876492262207" lon="11.930551691354824"><ele>194.75</ele><time>2026-05-01T18:23:20.999Z</time></trkpt><trkpt lat="45.90871432740739" lon="11.93037601595304"><ele>195.5</ele><time>2026-05-01T18:23:21.999Z</time></trkpt><trkpt lat="45.90866772113858" lon="11.930204835683506"><ele>196.25</ele><time>2026-05-01T18:23:22.999Z</time></trkpt><trkpt lat="45.90864637788187" lon="11.93003459050753"><ele>197.0</ele><time>2026-05-01T18:23:23.999Z</time></trkpt><trkpt lat="45.90860992142953" lon="11.929878181831384"><ele>198.5</ele><time>2026-05-01T18:23:24.999Z</time></trkpt><trkpt lat="45.90857194401148" lon="11.929719978334271"><ele>200.0</ele><time>2026-05-01T18:23:25.999Z</time></trkpt><trkpt lat="45.90853238543239" lon="11.92955975269355"><ele>201.5</ele><time>2026-05-01T18:23:26.999Z</time></trkpt><trkpt lat="45.90850595359754" lon="11.929400295114004"><ele>203.0</ele><time>2026-05-01T18:23:27.999Z</time></trkpt><trkpt lat="45.90848362978339" lon="11.929230619406198"><ele>203.5</ele><time>2026-05-01T18:23:28.999Z</time></trkpt><trkpt lat="45.908467796289614" lon="11.92905451601948"><ele>204.0</ele><time>2026-05-01T18:23:29.999Z</time></trkpt><trkpt lat="45.908440335512246" lon="11.928881304755539"><ele>204.5</ele><time>2026-05-01T18:23:30.999Z</time></trkpt><trkpt lat="45.9084365819473" lon="11.928692176560535"><ele>205.0</ele><time>2026-05-01T18:23:31.999Z</time></trkpt><trkpt lat="45.908443001903905" lon="11.928488643077939"><ele>205.75</ele><time>2026-05-01T18:23:32.999Z</time></trkpt><trkpt lat="45.908459092960385" lon="11.928271607305986"><ele>206.5</ele><time>2026-05-01T18:23:33.999Z</time></trkpt><trkpt lat="45.908476742837216" lon="11.928070777264562"><ele>207.25</ele><time>2026-05-01T18:23:34.999Z</time></trkpt><trkpt lat="45.908475249832236" lon="11.927866689834218"><ele>208.0</ele><time>2026-05-01T18:23:35.999Z</time></trkpt><trkpt lat="45.90849454430188" lon="11.927652022655504"><ele>212.0</ele><time>2026-05-01T18:23:36.999Z</time></trkpt><trkpt lat="45.90850420141633" lon="11.9274400216838"><ele>216.0</ele><time>2026-05-01T18:23:37.999Z</time></trkpt><trkpt lat="45.908516287466206" lon="11.927217412870446"><ele>220.0</ele><time>2026-05-01T18:23:38.999Z</time></trkpt><trkpt lat="45.90852253346545" lon="11.926988772491393"><ele>220.0</ele><time>2026-05-01T18:23:39.999Z</time></trkpt><trkpt lat="45.908524813053724" lon="11.926762470710413"><ele>220.0</ele><time>2026-05-01T18:23:40.999Z</time></trkpt><trkpt lat="45.90852131131142" lon="11.926514407479521"><ele>220.0</ele><time>2026-05-01T18:23:41.999Z</time></trkpt><trkpt lat="45.90851846973899" lon="11.926251571322595"><ele>222.33333333333331</ele><time>2026-05-01T18:23:42.999Z</time></trkpt><trkpt lat="45.90851125570161" lon="11.925982162599192"><ele>224.66666666666669</ele><time>2026-05-01T18:23:43.999Z</time></trkpt><trkpt lat="45.90850759904971" lon="11.925709959598283"><ele>227.0</ele><time>2026-05-01T18:23:44.999Z</time></trkpt><trkpt lat="45.908503174037605" lon="11.925459368952518"><ele>227.33333333333334</ele><time>2026-05-01T18:23:45.999Z</time></trkpt><trkpt lat="45.908500848068" lon="11.925224056988235"><ele>227.66666666666669</ele><time>2026-05-01T18:23:46.999Z</time></trkpt><trkpt lat="45.90850012842228" lon="11.924993368375409"><ele>228.0</ele><time>2026-05-01T18:23:47.999Z</time></trkpt><trkpt lat="45.90849966599231" lon="11.924781881515022"><ele>228.0</ele><time>2026-05-01T18:23:48.999Z</time></trkpt><trkpt lat="45.908503165360266" lon="11.924597651948538"><ele>228.0</ele><time>2026-05-01T18:23:49.999Z</time></trkpt><trkpt lat="45.90850337455305" lon="11.924399985289456"><ele>228.0</ele><time>2026-05-01T18:23:50.999Z</time></trkpt><trkpt lat="45.90849189066697" lon="11.92418672139011"><ele>228.0</ele><time>2026-05-01T18:23:51.999Z</time></trkpt><trkpt lat="45.90850586778216" lon="11.923969573892649"><ele>228.66666666666669</ele><time>2026-05-01T18:23:52.999Z</time></trkpt><trkpt lat="45.908529536433306" lon="11.923760315287364"><ele>229.33333333333334</ele><time>2026-05-01T18:23:53.999Z</time></trkpt><trkpt lat="45.90856366959993" lon="11.923550198001168"><ele>230.0</ele><time>2026-05-01T18:23:54.999Z</time></trkpt><trkpt lat="45.90861633890309" lon="11.923342597824686"><ele>232.0</ele><time>2026-05-01T18:23:55.998Z</time></trkpt><trkpt lat="45.90867887692335" lon="11.92314025639554"><ele>234.0</ele><time>2026-05-01T18:23:56.998Z</time></trkpt><trkpt lat="45.908734909185064" lon="11.922934603860137"><ele>236.0</ele><time>2026-05-01T18:23:57.998Z</time></trkpt><trkpt lat="45.908786101875386" lon="11.922714612591516"><ele>235.66666666666669</ele><time>2026-05-01T18:23:58.998Z</time></trkpt><trkpt lat="45.90883861933199" lon="11.922473674063843"><ele>235.33333333333331</ele><time>2026-05-01T18:23:59.998Z</time></trkpt><trkpt lat="45.90891007221208" lon="11.922232022334253"><ele>235.0</ele><time>2026-05-01T18:24:00.998Z</time></trkpt><trkpt lat="45.908977737355244" lon="11.922009210671494"><ele>235.0</ele><time>2026-05-01T18:24:01.998Z</time></trkpt><trkpt lat="45.90906571475032" lon="11.921788542918557"><ele>235.0</ele><time>2026-05-01T18:24:02.998Z</time></trkpt><trkpt lat="45.90915791791575" lon="11.921556894754819"><ele>235.0</ele><time>2026-05-01T18:24:03.998Z</time></trkpt><trkpt lat="45.909248721191304" lon="11.921310774037787"><ele>238.0</ele><time>2026-05-01T18:24:04.998Z</time></trkpt><trkpt lat="45.90935648471455" lon="11.92103994660488"><ele>241.0</ele><time>2026-05-01T18:24:05.998Z</time></trkpt><trkpt lat="45.90947921061049" lon="11.92075260956853"><ele>241.0</ele><time>2026-05-01T18:24:06.998Z</time></trkpt><trkpt lat="45.909613429248665" lon="11.920451493520886"><ele>241.0</ele><time>2026-05-01T18:24:07.998Z</time></trkpt><trkpt lat="45.90974867146412" lon="11.920115893470099"><ele>240.5</ele><time>2026-05-01T18:24:09Z</time></trkpt><trkpt lat="45.909904730321905" lon="11.91977164142829"><ele>240.0</ele><time>2026-05-01T18:24:10Z</time></trkpt><trkpt lat="45.91005159480889" lon="11.919430060456703"><ele>246.5</ele><time>2026-05-01T18:24:11Z</time></trkpt><trkpt lat="45.91017850905298" lon="11.919103334381504"><ele>253.0</ele><time>2026-05-01T18:24:12Z</time></trkpt><trkpt lat="45.910293142038775" lon="11.918748376574175"><ele>253.5</ele><time>2026-05-01T18:24:13Z</time></trkpt><trkpt lat="45.910406786204454" lon="11.918360506833325"><ele>254.0</ele><time>2026-05-01T18:24:14Z</time></trkpt><trkpt lat="45.91049772127398" lon="11.917966802797322"><ele>254.0</ele><time>2026-05-01T18:24:15Z</time></trkpt><trkpt lat="45.91058014722773" lon="11.917613126253102"><ele>254.0</ele><time>2026-05-01T18:24:16Z</time></trkpt><trkpt lat="45.91067094239465" lon="11.917300487592295"><ele>253.5</ele><time>2026-05-01T18:24:17Z</time></trkpt><trkpt lat="45.91080586542625" lon="11.91701518087654"><ele>253.0</ele><time>2026-05-01T18:24:18Z</time></trkpt><trkpt lat="45.91094495707719" lon="11.916732246905699"><ele>256.66666666666663</ele><time>2026-05-01T18:24:19Z</time></trkpt><trkpt lat="45.91107769728608" lon="11.916470746913495"><ele>260.3333333333333</ele><time>2026-05-01T18:24:20Z</time></trkpt><trkpt lat="45.91119272999828" lon="11.91622898748235"><ele>264.0</ele><time>2026-05-01T18:24:21Z</time></trkpt><trkpt lat="45.91128290561577" lon="11.915968302167238"><ele>264.0</ele><time>2026-05-01T18:24:22Z</time></trkpt><trkpt lat="45.91136206702924" lon="11.915723452948136"><ele>264.0</ele><time>2026-05-01T18:24:23Z</time></trkpt><trkpt lat="45.911407392362335" lon="11.915500213007782"><ele>264.0</ele><time>2026-05-01T18:24:24Z</time></trkpt><trkpt lat="45.911419571834635" lon="11.915309774134654"><ele>264.0</ele><time>2026-05-01T18:24:25Z</time></trkpt><trkpt lat="45.911424628112435" lon="11.915133807098965"><ele>264.0</ele><time>2026-05-01T18:24:26Z</time></trkpt><trkpt lat="45.91136226858214" lon="11.914982048797832"><ele>264.0</ele><time>2026-05-01T18:24:27Z</time></trkpt><trkpt lat="45.91127841150607" lon="11.914846696243963"><ele>264.0</ele><time>2026-05-01T18:24:28Z</time></trkpt><trkpt lat="45.91116109520208" lon="11.914728268022438"><ele>263.0</ele><time>2026-05-01T18:24:29Z</time></trkpt><trkpt lat="45.91100975358955" lon="11.914615674199496"><ele>262.0</ele><time>2026-05-01T18:24:30Z</time></trkpt><trkpt lat="45.910841783279885" lon="11.91452411050097"><ele>261.0</ele><time>2026-05-01T18:24:31Z</time></trkpt><trkpt lat="45.91067564570013" lon="11.914469744414903"><ele>259.6666666666667</ele><time>2026-05-01T18:24:32Z</time></trkpt><trkpt lat="45.91050530125739" lon="11.914451789436177"><ele>258.33333333333337</ele><time>2026-05-01T18:24:33Z</time></trkpt><trkpt lat="45.9103333433273" lon="11.914460277825246"><ele>257.0</ele><time>2026-05-01T18:24:34Z</time></trkpt><trkpt lat="45.91016108490286" lon="11.914467493945516"><ele>259.0</ele><time>2026-05-01T18:24:35Z</time></trkpt><trkpt lat="45.910009714282495" lon="11.914465196589815"><ele>261.0</ele><time>2026-05-01T18:24:36Z</time></trkpt><trkpt lat="45.90986667247661" lon="11.914437052353554"><ele>263.0</ele><time>2026-05-01T18:24:37Z</time></trkpt><trkpt lat="45.909726098126974" lon="11.914418345990137"><ele>265.0</ele><time>2026-05-01T18:24:38Z</time></trkpt><trkpt lat="45.909592299319755" lon="11.914360090389778"><ele>265.0</ele><time>2026-05-01T18:24:39Z</time></trkpt><trkpt lat="45.909456694651496" lon="11.914289308263472"><ele>265.0</ele><time>2026-05-01T18:24:40Z</time></trkpt><trkpt lat="45.90932332260718" lon="11.914219756638598"><ele>265.0</ele><time>2026-05-01T18:24:41Z</time></trkpt><trkpt lat="45.90920861796272" lon="11.914153045464458"><ele>265.0</ele><time>2026-05-01T18:24:42Z</time></trkpt><trkpt lat="45.90912131793469" lon="11.914067343495313"><ele>266.75</ele><time>2026-05-01T18:24:43Z</time></trkpt><trkpt lat="45.90905690404215" lon="11.913946417132975"><ele>268.5</ele><time>2026-05-01T18:24:44Z</time></trkpt><trkpt lat="45.90903461035608" lon="11.913771995921545"><ele>270.25</ele><time>2026-05-01T18:24:45Z</time></trkpt><trkpt lat="45.90897803011864" lon="11.913582575921934"><ele>272.0</ele><time>2026-05-01T18:24:46Z</time></trkpt><trkpt lat="45.90894353957764" lon="11.91338695480197"><ele>273.0</ele><time>2026-05-01T18:24:47Z</time></trkpt><trkpt lat="45.90889882852909" lon="11.913184383627446"><ele>274.0</ele><time>2026-05-01T18:24:48Z</time></trkpt><trkpt lat="45.908855105259995" lon="11.912985397195161"><ele>275.0</ele><time>2026-05-01T18:24:49Z</time></trkpt><trkpt lat="45.90880240052941" lon="11.912758128631188"><ele>275.5</ele><time>2026-05-01T18:24:50Z</time></trkpt><trkpt lat="45.908760046388096" lon="11.912564331453243"><ele>276.0</ele><time>2026-05-01T18:24:51Z</time></trkpt><trkpt lat="45.908748922711155" lon="11.912351137394959"><ele>276.5</ele><time>2026-05-01T18:24:52Z</time></trkpt><trkpt lat="45.908740244501175" lon="11.912131483074031"><ele>277.0</ele><time>2026-05-01T18:24:53Z</time></trkpt><trkpt lat="45.908706908296" lon="11.911917234553666"><ele>278.0</ele><time>2026-05-01T18:24:54Z</time></trkpt><trkpt lat="45.90866131792783" lon="11.911705162277173"><ele>279.0</ele><time>2026-05-01T18:24:55Z</time></trkpt><trkpt lat="45.908602088775545" lon="11.911494452254226"><ele>280.0</ele><time>2026-05-01T18:24:55.999Z</time></trkpt><trkpt lat="45.90855091721955" lon="11.911265267391347"><ele>280.0</ele><time>2026-05-01T18:24:56.999Z</time></trkpt><trkpt lat="45.90850469135627" lon="11.911054103801566"><ele>280.0</ele><time>2026-05-01T18:24:57.999Z</time></trkpt><trkpt lat="45.908452945397556" lon="11.910848721750302"><ele>280.0</ele><time>2026-05-01T18:24:58.999Z</time></trkpt><trkpt lat="45.908398846100646" lon="11.9106472226318"><ele>282.25</ele><time>2026-05-01T18:24:59.999Z</time></trkpt><trkpt lat="45.90834892239049" lon="11.910437144863929"><ele>284.5</ele><time>2026-05-01T18:25:00.999Z</time></trkpt><trkpt lat="45.908307099108455" lon="11.910228497636187"><ele>286.75</ele><time>2026-05-01T18:25:01.999Z</time></trkpt><trkpt lat="45.90827149914623" lon="11.910030878850185"><ele>289.0</ele><time>2026-05-01T18:25:02.999Z</time></trkpt><trkpt lat="45.90822124775139" lon="11.909837659032801"><ele>289.59999999999997</ele><time>2026-05-01T18:25:03.999Z</time></trkpt><trkpt lat="45.908186820148146" lon="11.909681232217132"><ele>290.2</ele><time>2026-05-01T18:25:04.999Z</time></trkpt><trkpt lat="45.90816364285726" lon="11.909537758224713"><ele>290.79999999999995</ele><time>2026-05-01T18:25:05.999Z</time></trkpt><trkpt lat="45.90812836838825" lon="11.909386234775088"><ele>291.4</ele><time>2026-05-01T18:25:06.999Z</time></trkpt><trkpt lat="45.90810314799631" lon="11.909259686092144"><ele>292.0</ele><time>2026-05-01T18:25:07.999Z</time></trkpt><trkpt lat="45.908084059266116" lon="11.909151953704757"><ele>291.8</ele><time>2026-05-01T18:25:08.999Z</time></trkpt><trkpt lat="45.908058694646336" lon="11.909050282429508"><ele>291.6</ele><time>2026-05-01T18:25:10.999Z</time></trkpt><trkpt lat="45.90822653276483" lon="11.909008071470922"><ele>291.40000000000003</ele><time>2026-05-01T18:25:11.999Z</time></trkpt><trkpt lat="45.90830679044274" lon="11.908974516563053"><ele>291.2</ele><time>2026-05-01T18:25:12.999Z</time></trkpt><trkpt lat="45.908390133929494" lon="11.908934386444479"><ele>291.0</ele><time>2026-05-01T18:25:13.999Z</time></trkpt><trkpt lat="45.908480608062796" lon="11.908892961983426"><ele>291.0</ele><time>2026-05-01T18:25:14.999Z</time></trkpt><trkpt lat="45.90858488218926" lon="11.908843382118517"><ele>291.0</ele><time>2026-05-01T18:25:15.999Z</time></trkpt><trkpt lat="45.908716135973805" lon="11.90879117312277"><ele>291.0</ele><time>2026-05-01T18:25:16.999Z</time></trkpt><trkpt lat="45.90881643519684" lon="11.908743487561278"><ele>291.0</ele><time>2026-05-01T18:25:17.999Z</time></trkpt><trkpt lat="45.90890957275315" lon="11.908700812325407"><ele>291.0</ele><time>2026-05-01T18:25:18.999Z</time></trkpt><trkpt lat="45.90899646661282" lon="11.908664492791095"><ele>291.0</ele><time>2026-05-01T18:25:19.999Z</time></trkpt><trkpt lat="45.909064143212355" lon="11.908608654318067"><ele>291.0</ele><time>2026-05-01T18:25:20.999Z</time></trkpt><trkpt lat="45.90915020994207" lon="11.908556993763995"><ele>291.0</ele><time>2026-05-01T18:25:22.999Z</time></trkpt><trkpt lat="45.90910160604514" lon="11.908334644245382"><ele>291.0</ele><time>2026-05-01T18:25:23.999Z</time></trkpt><trkpt lat="45.90908096348184" lon="11.908220839701007"><ele>291.0</ele><time>2026-05-01T18:25:24.999Z</time></trkpt><trkpt lat="45.90905425846461" lon="11.90809753579615"><ele>291.5</ele><time>2026-05-01T18:25:26.999Z</time></trkpt><trkpt lat="45.90915815017217" lon="11.907988196930736"><ele>292.0</ele><time>2026-05-01T18:26:02.998Z</time></trkpt><trkpt lat="45.90924122436151" lon="11.907940451500664"><ele>292.5</ele><time>2026-05-01T18:26:04.998Z</time></trkpt><trkpt lat="45.909310349871426" lon="11.907873536777577"><ele>293.0</ele><time>2026-05-01T18:26:06.998Z</time></trkpt><trkpt lat="45.90938117377321" lon="11.907841853573544"><ele>293.5</ele><time>2026-05-01T18:26:08.998Z</time></trkpt><trkpt lat="45.909439438816854" lon="11.90780692603995"><ele>294.0</ele><time>2026-05-01T18:26:10.998Z</time></trkpt><trkpt lat="45.909496574948754" lon="11.907728688337258"><ele>291.75</ele><time>2026-05-01T18:26:13.998Z</time></trkpt><trkpt lat="45.90946350561441" lon="11.907630334765269"><ele>289.5</ele><time>2026-05-01T18:26:16Z</time></trkpt><trkpt lat="45.90957155126663" lon="11.907497632521313"><ele>287.25</ele><time>2026-05-01T18:27:36.999Z</time></trkpt><trkpt lat="45.909524891278615" lon="11.907584361971965"><ele>285.0</ele><time>2026-05-01T18:28:03.999Z</time></trkpt><trkpt lat="45.90960580158433" lon="11.907830965110488"><ele>285.0</ele><time>2026-05-01T18:37:58.999Z</time></trkpt><trkpt lat="45.90953938887651" lon="11.907783488298445"><ele>285.0</ele><time>2026-05-01T18:37:59.999Z</time></trkpt><trkpt lat="45.90946312136916" lon="11.907741556326915"><ele>285.0</ele><time>2026-05-01T18:38:01.999Z</time></trkpt><trkpt lat="45.909425412519255" lon="11.907640213072598"><ele>285.0</ele><time>2026-05-01T18:38:03.999Z</time></trkpt><trkpt lat="45.90935470196229" lon="11.907614871509972"><ele>285.0</ele><time>2026-05-01T18:40:48.998Z</time></trkpt><trkpt lat="45.90929854024638" lon="11.907567920822977"><ele>285.0</ele><time>2026-05-01T18:40:50.998Z</time></trkpt><trkpt lat="45.90915372963391" lon="11.907444882427757"><ele>298.0</ele><time>2026-05-01T18:40:51.998Z</time></trkpt><trkpt lat="45.909212669743816" lon="11.907507537559383"><ele>298.0</ele><time>2026-05-01T18:41:33Z</time></trkpt></trkseg></trk></gpx>